<?xml version="1.0" encoding="UTF-8"?>
<gpx version="1.1" creator="https://www.youtrack.es" xsi:schemaLocation="http://www.topografix.com/GPX/1/1 http://www.topografix.com/GPX/1/1/gpx.xsd http://www.garmin.com/xmlschemas/GpxExtensions/v3 http://www.garmin.com/xmlschemas/GpxExtensionsv3.xsd http://www.garmin.com/xmlschemas/TrackPointExtension/v1 http://www.garmin.com/xmlschemas/TrackPointExtensionv1.xsd" xmlns:gpxtpx="http://www.garmin.com/xmlschemas/TrackPointExtension/v1" xmlns:gpxx="http://www.garmin.com/xmlschemas/GpxExtensions/v3" xmlns:xsi="http://www.w3.org/2001/XMLSchema-instance">
  <metadata>
    <author>
      <name>Ricard Vilardebo</name>
      <email id="ricardvilardebo" domain="gmail.com"/>
    </author>
    <link href="https://www.youtrack.es">
      <text>YouTrack.es</text>
    </link>
    <time>2026-05-08T14:12:58Z</time>
  </metadata>
  <trk>
    <src>https://www.youtrack.es</src>
    <link href="https://www.youtrack.es/ruta/30788-12-004-22">
      <text>YouTrack.es</text>
    </link>
    <trkseg>
      <trkpt lat="41.726790" lon="2.571019">
        <ele>89.089</ele>
        <time>2019-01-17T07:27:46Z</time>
      </trkpt>
      <trkpt lat="41.726858" lon="2.571041">
        <ele>67.406</ele>
        <time>2019-01-17T07:28:28Z</time>
      </trkpt>
      <trkpt lat="41.726932" lon="2.571001">
        <ele>66.926</ele>
        <time>2019-01-17T07:28:46Z</time>
      </trkpt>
      <trkpt lat="41.727007" lon="2.570961">
        <ele>66.908</ele>
        <time>2019-01-17T07:28:57Z</time>
      </trkpt>
      <trkpt lat="41.727095" lon="2.570902">
        <ele>66.471</ele>
        <time>2019-01-17T07:29:06Z</time>
      </trkpt>
      <trkpt lat="41.727198" lon="2.570837">
        <ele>66.490</ele>
        <time>2019-01-17T07:29:14Z</time>
      </trkpt>
      <trkpt lat="41.727291" lon="2.570702">
        <ele>66.922</ele>
        <time>2019-01-17T07:29:23Z</time>
      </trkpt>
      <trkpt lat="41.727333" lon="2.570573">
        <ele>67.929</ele>
        <time>2019-01-17T07:29:31Z</time>
      </trkpt>
      <trkpt lat="41.727334" lon="2.570428">
        <ele>67.990</ele>
        <time>2019-01-17T07:29:40Z</time>
      </trkpt>
      <trkpt lat="41.727307" lon="2.570289">
        <ele>68.847</ele>
        <time>2019-01-17T07:29:49Z</time>
      </trkpt>
      <trkpt lat="41.727273" lon="2.570156">
        <ele>69.397</ele>
        <time>2019-01-17T07:29:58Z</time>
      </trkpt>
      <trkpt lat="41.727244" lon="2.570041">
        <ele>69.353</ele>
        <time>2019-01-17T07:30:13Z</time>
      </trkpt>
      <trkpt lat="41.727214" lon="2.569908">
        <ele>69.372</ele>
        <time>2019-01-17T07:30:22Z</time>
      </trkpt>
      <trkpt lat="41.727181" lon="2.569780">
        <ele>69.813</ele>
        <time>2019-01-17T07:30:31Z</time>
      </trkpt>
      <trkpt lat="41.727135" lon="2.569614">
        <ele>70.714</ele>
        <time>2019-01-17T07:30:40Z</time>
      </trkpt>
      <trkpt lat="41.727128" lon="2.569521">
        <ele>69.808</ele>
        <time>2019-01-17T07:30:49Z</time>
      </trkpt>
      <trkpt lat="41.727165" lon="2.569403">
        <ele>69.890</ele>
        <time>2019-01-17T07:30:57Z</time>
      </trkpt>
      <trkpt lat="41.727220" lon="2.569296">
        <ele>70.769</ele>
        <time>2019-01-17T07:31:05Z</time>
      </trkpt>
      <trkpt lat="41.727278" lon="2.569183">
        <ele>70.351</ele>
        <time>2019-01-17T07:31:14Z</time>
      </trkpt>
      <trkpt lat="41.727307" lon="2.569116">
        <ele>70.358</ele>
        <time>2019-01-17T07:31:22Z</time>
      </trkpt>
      <trkpt lat="41.727336" lon="2.568941">
        <ele>70.759</ele>
        <time>2019-01-17T07:31:30Z</time>
      </trkpt>
      <trkpt lat="41.727358" lon="2.568810">
        <ele>70.766</ele>
        <time>2019-01-17T07:31:39Z</time>
      </trkpt>
      <trkpt lat="41.727376" lon="2.568664">
        <ele>70.376</ele>
        <time>2019-01-17T07:31:47Z</time>
      </trkpt>
      <trkpt lat="41.727384" lon="2.568557">
        <ele>71.242</ele>
        <time>2019-01-17T07:31:55Z</time>
      </trkpt>
      <trkpt lat="41.727388" lon="2.568436">
        <ele>71.273</ele>
        <time>2019-01-17T07:32:04Z</time>
      </trkpt>
      <trkpt lat="41.727395" lon="2.568281">
        <ele>70.785</ele>
        <time>2019-01-17T07:32:13Z</time>
      </trkpt>
      <trkpt lat="41.727485" lon="2.568175">
        <ele>71.713</ele>
        <time>2019-01-17T07:32:22Z</time>
      </trkpt>
      <trkpt lat="41.727565" lon="2.568106">
        <ele>72.208</ele>
        <time>2019-01-17T07:32:32Z</time>
      </trkpt>
      <trkpt lat="41.727679" lon="2.568051">
        <ele>71.770</ele>
        <time>2019-01-17T07:32:42Z</time>
      </trkpt>
      <trkpt lat="41.727768" lon="2.568004">
        <ele>72.779</ele>
        <time>2019-01-17T07:32:51Z</time>
      </trkpt>
      <trkpt lat="41.727862" lon="2.567936">
        <ele>72.791</ele>
        <time>2019-01-17T07:33:00Z</time>
      </trkpt>
      <trkpt lat="41.727988" lon="2.567843">
        <ele>73.678</ele>
        <time>2019-01-17T07:33:09Z</time>
      </trkpt>
      <trkpt lat="41.728017" lon="2.567779">
        <ele>73.699</ele>
        <time>2019-01-17T07:33:18Z</time>
      </trkpt>
      <trkpt lat="41.728085" lon="2.567677">
        <ele>73.656</ele>
        <time>2019-01-17T07:33:27Z</time>
      </trkpt>
      <trkpt lat="41.728154" lon="2.567593">
        <ele>73.626</ele>
        <time>2019-01-17T07:33:35Z</time>
      </trkpt>
      <trkpt lat="41.728227" lon="2.567496">
        <ele>74.132</ele>
        <time>2019-01-17T07:33:44Z</time>
      </trkpt>
      <trkpt lat="41.728294" lon="2.567405">
        <ele>74.627</ele>
        <time>2019-01-17T07:33:53Z</time>
      </trkpt>
      <trkpt lat="41.728371" lon="2.567319">
        <ele>74.168</ele>
        <time>2019-01-17T07:34:01Z</time>
      </trkpt>
      <trkpt lat="41.728439" lon="2.567230">
        <ele>75.614</ele>
        <time>2019-01-17T07:34:10Z</time>
      </trkpt>
      <trkpt lat="41.728522" lon="2.567133">
        <ele>75.608</ele>
        <time>2019-01-17T07:34:19Z</time>
      </trkpt>
      <trkpt lat="41.728601" lon="2.567029">
        <ele>76.545</ele>
        <time>2019-01-17T07:34:30Z</time>
      </trkpt>
      <trkpt lat="41.728642" lon="2.567008">
        <ele>77.054</ele>
        <time>2019-01-17T07:35:07Z</time>
      </trkpt>
      <trkpt lat="41.728642" lon="2.566925">
        <ele>78.416</ele>
        <time>2019-01-17T07:35:39Z</time>
      </trkpt>
      <trkpt lat="41.728567" lon="2.566866">
        <ele>78.423</ele>
        <time>2019-01-17T07:35:47Z</time>
      </trkpt>
      <trkpt lat="41.728467" lon="2.566814">
        <ele>78.494</ele>
        <time>2019-01-17T07:35:56Z</time>
      </trkpt>
      <trkpt lat="41.728383" lon="2.566730">
        <ele>78.411</ele>
        <time>2019-01-17T07:36:04Z</time>
      </trkpt>
      <trkpt lat="41.728290" lon="2.566664">
        <ele>78.031</ele>
        <time>2019-01-17T07:36:13Z</time>
      </trkpt>
      <trkpt lat="41.728209" lon="2.566600">
        <ele>77.597</ele>
        <time>2019-01-17T07:36:21Z</time>
      </trkpt>
      <trkpt lat="41.728123" lon="2.566537">
        <ele>78.026</ele>
        <time>2019-01-17T07:36:29Z</time>
      </trkpt>
      <trkpt lat="41.728047" lon="2.566447">
        <ele>77.547</ele>
        <time>2019-01-17T07:36:37Z</time>
      </trkpt>
      <trkpt lat="41.727977" lon="2.566359">
        <ele>77.511</ele>
        <time>2019-01-17T07:36:45Z</time>
      </trkpt>
      <trkpt lat="41.727917" lon="2.566268">
        <ele>78.008</ele>
        <time>2019-01-17T07:36:54Z</time>
      </trkpt>
      <trkpt lat="41.727862" lon="2.566166">
        <ele>78.065</ele>
        <time>2019-01-17T07:37:01Z</time>
      </trkpt>
      <trkpt lat="41.727816" lon="2.566057">
        <ele>78.094</ele>
        <time>2019-01-17T07:37:09Z</time>
      </trkpt>
      <trkpt lat="41.727771" lon="2.565945">
        <ele>78.086</ele>
        <time>2019-01-17T07:37:16Z</time>
      </trkpt>
      <trkpt lat="41.727722" lon="2.565837">
        <ele>77.513</ele>
        <time>2019-01-17T07:37:26Z</time>
      </trkpt>
      <trkpt lat="41.727641" lon="2.565666">
        <ele>77.094</ele>
        <time>2019-01-17T07:37:35Z</time>
      </trkpt>
      <trkpt lat="41.727602" lon="2.565509">
        <ele>77.551</ele>
        <time>2019-01-17T07:37:46Z</time>
      </trkpt>
      <trkpt lat="41.727636" lon="2.565431">
        <ele>78.041</ele>
        <time>2019-01-17T07:38:02Z</time>
      </trkpt>
      <trkpt lat="41.727683" lon="2.565314">
        <ele>78.047</ele>
        <time>2019-01-17T07:38:13Z</time>
      </trkpt>
      <trkpt lat="41.727755" lon="2.565201">
        <ele>78.019</ele>
        <time>2019-01-17T07:38:32Z</time>
      </trkpt>
      <trkpt lat="41.727807" lon="2.565088">
        <ele>78.009</ele>
        <time>2019-01-17T07:38:41Z</time>
      </trkpt>
      <trkpt lat="41.727862" lon="2.564986">
        <ele>78.419</ele>
        <time>2019-01-17T07:38:50Z</time>
      </trkpt>
      <trkpt lat="41.727925" lon="2.564869">
        <ele>78.408</ele>
        <time>2019-01-17T07:38:59Z</time>
      </trkpt>
      <trkpt lat="41.727997" lon="2.564749">
        <ele>78.994</ele>
        <time>2019-01-17T07:39:08Z</time>
      </trkpt>
      <trkpt lat="41.728048" lon="2.564618">
        <ele>79.493</ele>
        <time>2019-01-17T07:39:18Z</time>
      </trkpt>
      <trkpt lat="41.728100" lon="2.564500">
        <ele>80.455</ele>
        <time>2019-01-17T07:39:27Z</time>
      </trkpt>
      <trkpt lat="41.728161" lon="2.564371">
        <ele>80.462</ele>
        <time>2019-01-17T07:39:36Z</time>
      </trkpt>
      <trkpt lat="41.728215" lon="2.564241">
        <ele>80.473</ele>
        <time>2019-01-17T07:39:45Z</time>
      </trkpt>
      <trkpt lat="41.728258" lon="2.564113">
        <ele>81.320</ele>
        <time>2019-01-17T07:39:53Z</time>
      </trkpt>
      <trkpt lat="41.728285" lon="2.564015">
        <ele>81.390</ele>
        <time>2019-01-17T07:40:02Z</time>
      </trkpt>
      <trkpt lat="41.728315" lon="2.563885">
        <ele>81.846</ele>
        <time>2019-01-17T07:40:11Z</time>
      </trkpt>
      <trkpt lat="41.728355" lon="2.563739">
        <ele>82.346</ele>
        <time>2019-01-17T07:40:20Z</time>
      </trkpt>
      <trkpt lat="41.728378" lon="2.563630">
        <ele>81.888</ele>
        <time>2019-01-17T07:40:29Z</time>
      </trkpt>
      <trkpt lat="41.728410" lon="2.563500">
        <ele>83.716</ele>
        <time>2019-01-17T07:40:38Z</time>
      </trkpt>
      <trkpt lat="41.728448" lon="2.563362">
        <ele>82.808</ele>
        <time>2019-01-17T07:40:46Z</time>
      </trkpt>
      <trkpt lat="41.728475" lon="2.563238">
        <ele>83.747</ele>
        <time>2019-01-17T07:40:54Z</time>
      </trkpt>
      <trkpt lat="41.728507" lon="2.563106">
        <ele>84.766</ele>
        <time>2019-01-17T07:41:03Z</time>
      </trkpt>
      <trkpt lat="41.728542" lon="2.562966">
        <ele>83.738</ele>
        <time>2019-01-17T07:41:12Z</time>
      </trkpt>
      <trkpt lat="41.728572" lon="2.562840">
        <ele>84.765</ele>
        <time>2019-01-17T07:41:21Z</time>
      </trkpt>
      <trkpt lat="41.728604" lon="2.562705">
        <ele>84.716</ele>
        <time>2019-01-17T07:41:29Z</time>
      </trkpt>
      <trkpt lat="41.728633" lon="2.562575">
        <ele>85.263</ele>
        <time>2019-01-17T07:41:38Z</time>
      </trkpt>
      <trkpt lat="41.728692" lon="2.562435">
        <ele>85.623</ele>
        <time>2019-01-17T07:41:47Z</time>
      </trkpt>
      <trkpt lat="41.728755" lon="2.562334">
        <ele>85.289</ele>
        <time>2019-01-17T07:41:55Z</time>
      </trkpt>
      <trkpt lat="41.728811" lon="2.562252">
        <ele>85.636</ele>
        <time>2019-01-17T07:42:03Z</time>
      </trkpt>
      <trkpt lat="41.728885" lon="2.562143">
        <ele>86.117</ele>
        <time>2019-01-17T07:42:12Z</time>
      </trkpt>
      <trkpt lat="41.728955" lon="2.562035">
        <ele>86.618</ele>
        <time>2019-01-17T07:42:21Z</time>
      </trkpt>
      <trkpt lat="41.729037" lon="2.561909">
        <ele>87.108</ele>
        <time>2019-01-17T07:42:37Z</time>
      </trkpt>
      <trkpt lat="41.729127" lon="2.561791">
        <ele>86.686</ele>
        <time>2019-01-17T07:42:47Z</time>
      </trkpt>
      <trkpt lat="41.729188" lon="2.561712">
        <ele>88.125</ele>
        <time>2019-01-17T07:42:56Z</time>
      </trkpt>
      <trkpt lat="41.729257" lon="2.561625">
        <ele>88.177</ele>
        <time>2019-01-17T07:43:05Z</time>
      </trkpt>
      <trkpt lat="41.729345" lon="2.561513">
        <ele>88.524</ele>
        <time>2019-01-17T07:43:14Z</time>
      </trkpt>
      <trkpt lat="41.729411" lon="2.561420">
        <ele>88.135</ele>
        <time>2019-01-17T07:43:23Z</time>
      </trkpt>
      <trkpt lat="41.729472" lon="2.561340">
        <ele>88.132</ele>
        <time>2019-01-17T07:43:32Z</time>
      </trkpt>
      <trkpt lat="41.729535" lon="2.561229">
        <ele>89.062</ele>
        <time>2019-01-17T07:43:40Z</time>
      </trkpt>
      <trkpt lat="41.729571" lon="2.561116">
        <ele>88.558</ele>
        <time>2019-01-17T07:43:49Z</time>
      </trkpt>
      <trkpt lat="41.729607" lon="2.560957">
        <ele>87.699</ele>
        <time>2019-01-17T07:43:58Z</time>
      </trkpt>
      <trkpt lat="41.729630" lon="2.560811">
        <ele>87.607</ele>
        <time>2019-01-17T07:44:07Z</time>
      </trkpt>
      <trkpt lat="41.729652" lon="2.560683">
        <ele>88.127</ele>
        <time>2019-01-17T07:44:16Z</time>
      </trkpt>
      <trkpt lat="41.729677" lon="2.560554">
        <ele>87.608</ele>
        <time>2019-01-17T07:44:25Z</time>
      </trkpt>
      <trkpt lat="41.729704" lon="2.560413">
        <ele>87.612</ele>
        <time>2019-01-17T07:44:34Z</time>
      </trkpt>
      <trkpt lat="41.729731" lon="2.560269">
        <ele>87.641</ele>
        <time>2019-01-17T07:44:43Z</time>
      </trkpt>
      <trkpt lat="41.729754" lon="2.560127">
        <ele>87.693</ele>
        <time>2019-01-17T07:44:53Z</time>
      </trkpt>
      <trkpt lat="41.729776" lon="2.559979">
        <ele>87.660</ele>
        <time>2019-01-17T07:45:03Z</time>
      </trkpt>
      <trkpt lat="41.729806" lon="2.559829">
        <ele>87.691</ele>
        <time>2019-01-17T07:45:11Z</time>
      </trkpt>
      <trkpt lat="41.729840" lon="2.559697">
        <ele>87.198</ele>
        <time>2019-01-17T07:45:20Z</time>
      </trkpt>
      <trkpt lat="41.729878" lon="2.559578">
        <ele>87.158</ele>
        <time>2019-01-17T07:45:28Z</time>
      </trkpt>
      <trkpt lat="41.729913" lon="2.559464">
        <ele>87.684</ele>
        <time>2019-01-17T07:45:36Z</time>
      </trkpt>
      <trkpt lat="41.729957" lon="2.559344">
        <ele>87.171</ele>
        <time>2019-01-17T07:45:44Z</time>
      </trkpt>
      <trkpt lat="41.730005" lon="2.559224">
        <ele>86.641</ele>
        <time>2019-01-17T07:45:53Z</time>
      </trkpt>
      <trkpt lat="41.730054" lon="2.559103">
        <ele>87.115</ele>
        <time>2019-01-17T07:46:01Z</time>
      </trkpt>
      <trkpt lat="41.730103" lon="2.558981">
        <ele>87.108</ele>
        <time>2019-01-17T07:46:09Z</time>
      </trkpt>
      <trkpt lat="41.730142" lon="2.558866">
        <ele>86.170</ele>
        <time>2019-01-17T07:46:17Z</time>
      </trkpt>
      <trkpt lat="41.730191" lon="2.558751">
        <ele>86.639</ele>
        <time>2019-01-17T07:46:26Z</time>
      </trkpt>
      <trkpt lat="41.730235" lon="2.558631">
        <ele>86.641</ele>
        <time>2019-01-17T07:46:34Z</time>
      </trkpt>
      <trkpt lat="41.730285" lon="2.558510">
        <ele>87.658</ele>
        <time>2019-01-17T07:46:42Z</time>
      </trkpt>
      <trkpt lat="41.730342" lon="2.558401">
        <ele>86.649</ele>
        <time>2019-01-17T07:46:51Z</time>
      </trkpt>
      <trkpt lat="41.730415" lon="2.558296">
        <ele>86.696</ele>
        <time>2019-01-17T07:46:59Z</time>
      </trkpt>
      <trkpt lat="41.730495" lon="2.558206">
        <ele>87.666</ele>
        <time>2019-01-17T07:47:08Z</time>
      </trkpt>
      <trkpt lat="41.730568" lon="2.558116">
        <ele>88.132</ele>
        <time>2019-01-17T07:47:17Z</time>
      </trkpt>
      <trkpt lat="41.730636" lon="2.558014">
        <ele>88.139</ele>
        <time>2019-01-17T07:47:25Z</time>
      </trkpt>
      <trkpt lat="41.730712" lon="2.557910">
        <ele>88.501</ele>
        <time>2019-01-17T07:47:33Z</time>
      </trkpt>
      <trkpt lat="41.730780" lon="2.557815">
        <ele>88.121</ele>
        <time>2019-01-17T07:47:42Z</time>
      </trkpt>
      <trkpt lat="41.730842" lon="2.557708">
        <ele>88.508</ele>
        <time>2019-01-17T07:47:50Z</time>
      </trkpt>
      <trkpt lat="41.730879" lon="2.557576">
        <ele>89.086</ele>
        <time>2019-01-17T07:47:58Z</time>
      </trkpt>
      <trkpt lat="41.730911" lon="2.557447">
        <ele>89.545</ele>
        <time>2019-01-17T07:48:07Z</time>
      </trkpt>
      <trkpt lat="41.730915" lon="2.557319">
        <ele>89.517</ele>
        <time>2019-01-17T07:48:15Z</time>
      </trkpt>
      <trkpt lat="41.730928" lon="2.557190">
        <ele>90.564</ele>
        <time>2019-01-17T07:48:23Z</time>
      </trkpt>
      <trkpt lat="41.730954" lon="2.557065">
        <ele>90.985</ele>
        <time>2019-01-17T07:48:32Z</time>
      </trkpt>
      <trkpt lat="41.730965" lon="2.556931">
        <ele>90.982</ele>
        <time>2019-01-17T07:48:40Z</time>
      </trkpt>
      <trkpt lat="41.730985" lon="2.556793">
        <ele>90.542</ele>
        <time>2019-01-17T07:48:48Z</time>
      </trkpt>
      <trkpt lat="41.731006" lon="2.556650">
        <ele>91.488</ele>
        <time>2019-01-17T07:48:58Z</time>
      </trkpt>
      <trkpt lat="41.731050" lon="2.556481">
        <ele>90.914</ele>
        <time>2019-01-17T07:49:07Z</time>
      </trkpt>
      <trkpt lat="41.731098" lon="2.556332">
        <ele>91.454</ele>
        <time>2019-01-17T07:49:25Z</time>
      </trkpt>
      <trkpt lat="41.731147" lon="2.556231">
        <ele>92.409</ele>
        <time>2019-01-17T07:49:33Z</time>
      </trkpt>
      <trkpt lat="41.731206" lon="2.556132">
        <ele>91.908</ele>
        <time>2019-01-17T07:49:41Z</time>
      </trkpt>
      <trkpt lat="41.731267" lon="2.556012">
        <ele>92.434</ele>
        <time>2019-01-17T07:49:50Z</time>
      </trkpt>
      <trkpt lat="41.731322" lon="2.555905">
        <ele>92.413</ele>
        <time>2019-01-17T07:49:58Z</time>
      </trkpt>
      <trkpt lat="41.731380" lon="2.555793">
        <ele>92.415</ele>
        <time>2019-01-17T07:50:06Z</time>
      </trkpt>
      <trkpt lat="41.731479" lon="2.555644">
        <ele>92.922</ele>
        <time>2019-01-17T07:50:15Z</time>
      </trkpt>
      <trkpt lat="41.731546" lon="2.555569">
        <ele>92.933</ele>
        <time>2019-01-17T07:50:23Z</time>
      </trkpt>
      <trkpt lat="41.731614" lon="2.555489">
        <ele>93.320</ele>
        <time>2019-01-17T07:50:31Z</time>
      </trkpt>
      <trkpt lat="41.731677" lon="2.555410">
        <ele>93.860</ele>
        <time>2019-01-17T07:50:39Z</time>
      </trkpt>
      <trkpt lat="41.731743" lon="2.555337">
        <ele>94.336</ele>
        <time>2019-01-17T07:50:47Z</time>
      </trkpt>
      <trkpt lat="41.731829" lon="2.555248">
        <ele>93.817</ele>
        <time>2019-01-17T07:50:56Z</time>
      </trkpt>
      <trkpt lat="41.731905" lon="2.555162">
        <ele>94.387</ele>
        <time>2019-01-17T07:51:03Z</time>
      </trkpt>
      <trkpt lat="41.731991" lon="2.555077">
        <ele>93.815</ele>
        <time>2019-01-17T07:51:11Z</time>
      </trkpt>
      <trkpt lat="41.732067" lon="2.554980">
        <ele>94.808</ele>
        <time>2019-01-17T07:51:20Z</time>
      </trkpt>
      <trkpt lat="41.732138" lon="2.554883">
        <ele>94.884</ele>
        <time>2019-01-17T07:51:28Z</time>
      </trkpt>
      <trkpt lat="41.732209" lon="2.554790">
        <ele>95.353</ele>
        <time>2019-01-17T07:51:37Z</time>
      </trkpt>
      <trkpt lat="41.732272" lon="2.554693">
        <ele>96.285</ele>
        <time>2019-01-17T07:51:46Z</time>
      </trkpt>
      <trkpt lat="41.732337" lon="2.554585">
        <ele>97.282</ele>
        <time>2019-01-17T07:51:55Z</time>
      </trkpt>
      <trkpt lat="41.732388" lon="2.554456">
        <ele>97.753</ele>
        <time>2019-01-17T07:52:04Z</time>
      </trkpt>
      <trkpt lat="41.732414" lon="2.554318">
        <ele>98.140</ele>
        <time>2019-01-17T07:52:14Z</time>
      </trkpt>
      <trkpt lat="41.732436" lon="2.554174">
        <ele>99.170</ele>
        <time>2019-01-17T07:52:24Z</time>
      </trkpt>
      <trkpt lat="41.732471" lon="2.554035">
        <ele>99.116</ele>
        <time>2019-01-17T07:52:33Z</time>
      </trkpt>
      <trkpt lat="41.732497" lon="2.553889">
        <ele>100.174</ele>
        <time>2019-01-17T07:52:43Z</time>
      </trkpt>
      <trkpt lat="41.732539" lon="2.553728">
        <ele>101.056</ele>
        <time>2019-01-17T07:52:53Z</time>
      </trkpt>
      <trkpt lat="41.732591" lon="2.553575">
        <ele>102.021</ele>
        <time>2019-01-17T07:53:04Z</time>
      </trkpt>
      <trkpt lat="41.732641" lon="2.553447">
        <ele>101.508</ele>
        <time>2019-01-17T07:53:14Z</time>
      </trkpt>
      <trkpt lat="41.732704" lon="2.553283">
        <ele>102.540</ele>
        <time>2019-01-17T07:53:23Z</time>
      </trkpt>
      <trkpt lat="41.732767" lon="2.553124">
        <ele>102.519</ele>
        <time>2019-01-17T07:53:30Z</time>
      </trkpt>
      <trkpt lat="41.732812" lon="2.553031">
        <ele>102.051</ele>
        <time>2019-01-17T07:53:40Z</time>
      </trkpt>
      <trkpt lat="41.732877" lon="2.552929">
        <ele>102.598</ele>
        <time>2019-01-17T07:53:49Z</time>
      </trkpt>
      <trkpt lat="41.732953" lon="2.552815">
        <ele>102.559</ele>
        <time>2019-01-17T07:53:58Z</time>
      </trkpt>
      <trkpt lat="41.733042" lon="2.552688">
        <ele>102.566</ele>
        <time>2019-01-17T07:54:08Z</time>
      </trkpt>
      <trkpt lat="41.733127" lon="2.552559">
        <ele>103.056</ele>
        <time>2019-01-17T07:54:17Z</time>
      </trkpt>
      <trkpt lat="41.733177" lon="2.552473">
        <ele>103.092</ele>
        <time>2019-01-17T07:54:25Z</time>
      </trkpt>
      <trkpt lat="41.733240" lon="2.552378">
        <ele>102.541</ele>
        <time>2019-01-17T07:54:33Z</time>
      </trkpt>
      <trkpt lat="41.733308" lon="2.552276">
        <ele>103.481</ele>
        <time>2019-01-17T07:54:41Z</time>
      </trkpt>
      <trkpt lat="41.733376" lon="2.552165">
        <ele>103.909</ele>
        <time>2019-01-17T07:54:49Z</time>
      </trkpt>
      <trkpt lat="41.733447" lon="2.552069">
        <ele>104.408</ele>
        <time>2019-01-17T07:54:59Z</time>
      </trkpt>
      <trkpt lat="41.733509" lon="2.551966">
        <ele>104.977</ele>
        <time>2019-01-17T07:55:07Z</time>
      </trkpt>
      <trkpt lat="41.733563" lon="2.551878">
        <ele>104.436</ele>
        <time>2019-01-17T07:55:16Z</time>
      </trkpt>
      <trkpt lat="41.733637" lon="2.551754">
        <ele>104.478</ele>
        <time>2019-01-17T07:55:24Z</time>
      </trkpt>
      <trkpt lat="41.733709" lon="2.551637">
        <ele>104.925</ele>
        <time>2019-01-17T07:55:32Z</time>
      </trkpt>
      <trkpt lat="41.733775" lon="2.551531">
        <ele>104.996</ele>
        <time>2019-01-17T07:55:41Z</time>
      </trkpt>
      <trkpt lat="41.733852" lon="2.551400">
        <ele>105.413</ele>
        <time>2019-01-17T07:55:51Z</time>
      </trkpt>
      <trkpt lat="41.733933" lon="2.551265">
        <ele>104.933</ele>
        <time>2019-01-17T07:56:00Z</time>
      </trkpt>
      <trkpt lat="41.733987" lon="2.551143">
        <ele>105.479</ele>
        <time>2019-01-17T07:56:10Z</time>
      </trkpt>
      <trkpt lat="41.734018" lon="2.550955">
        <ele>105.857</ele>
        <time>2019-01-17T07:56:19Z</time>
      </trkpt>
      <trkpt lat="41.734025" lon="2.550828">
        <ele>105.800</ele>
        <time>2019-01-17T07:56:28Z</time>
      </trkpt>
      <trkpt lat="41.734041" lon="2.550673">
        <ele>106.320</ele>
        <time>2019-01-17T07:56:38Z</time>
      </trkpt>
      <trkpt lat="41.734047" lon="2.550536">
        <ele>106.808</ele>
        <time>2019-01-17T07:56:47Z</time>
      </trkpt>
      <trkpt lat="41.734062" lon="2.550379">
        <ele>107.838</ele>
        <time>2019-01-17T07:56:56Z</time>
      </trkpt>
      <trkpt lat="41.734068" lon="2.550254">
        <ele>107.857</ele>
        <time>2019-01-17T07:57:06Z</time>
      </trkpt>
      <trkpt lat="41.734099" lon="2.550119">
        <ele>107.379</ele>
        <time>2019-01-17T07:57:14Z</time>
      </trkpt>
      <trkpt lat="41.734145" lon="2.549979">
        <ele>107.316</ele>
        <time>2019-01-17T07:57:22Z</time>
      </trkpt>
      <trkpt lat="41.734222" lon="2.549857">
        <ele>108.277</ele>
        <time>2019-01-17T07:57:31Z</time>
      </trkpt>
      <trkpt lat="41.734281" lon="2.549749">
        <ele>107.834</ele>
        <time>2019-01-17T07:57:38Z</time>
      </trkpt>
      <trkpt lat="41.734350" lon="2.549650">
        <ele>107.844</ele>
        <time>2019-01-17T07:57:48Z</time>
      </trkpt>
      <trkpt lat="41.734444" lon="2.549539">
        <ele>108.230</ele>
        <time>2019-01-17T07:58:03Z</time>
      </trkpt>
      <trkpt lat="41.734505" lon="2.549448">
        <ele>109.217</ele>
        <time>2019-01-17T07:58:12Z</time>
      </trkpt>
      <trkpt lat="41.734592" lon="2.549337">
        <ele>109.287</ele>
        <time>2019-01-17T07:58:21Z</time>
      </trkpt>
      <trkpt lat="41.734671" lon="2.549222">
        <ele>109.715</ele>
        <time>2019-01-17T07:58:31Z</time>
      </trkpt>
      <trkpt lat="41.734750" lon="2.549109">
        <ele>111.108</ele>
        <time>2019-01-17T07:58:41Z</time>
      </trkpt>
      <trkpt lat="41.734846" lon="2.548988">
        <ele>111.124</ele>
        <time>2019-01-17T07:58:51Z</time>
      </trkpt>
      <trkpt lat="41.734922" lon="2.548886">
        <ele>110.673</ele>
        <time>2019-01-17T07:59:00Z</time>
      </trkpt>
      <trkpt lat="41.735003" lon="2.548772">
        <ele>111.175</ele>
        <time>2019-01-17T07:59:10Z</time>
      </trkpt>
      <trkpt lat="41.735091" lon="2.548641">
        <ele>112.182</ele>
        <time>2019-01-17T07:59:20Z</time>
      </trkpt>
      <trkpt lat="41.735157" lon="2.548525">
        <ele>112.153</ele>
        <time>2019-01-17T07:59:29Z</time>
      </trkpt>
      <trkpt lat="41.735189" lon="2.548391">
        <ele>112.670</ele>
        <time>2019-01-17T07:59:38Z</time>
      </trkpt>
      <trkpt lat="41.735229" lon="2.548213">
        <ele>113.090</ele>
        <time>2019-01-17T07:59:48Z</time>
      </trkpt>
      <trkpt lat="41.735254" lon="2.548054">
        <ele>113.056</ele>
        <time>2019-01-17T07:59:58Z</time>
      </trkpt>
      <trkpt lat="41.735284" lon="2.547904">
        <ele>113.031</ele>
        <time>2019-01-17T08:00:08Z</time>
      </trkpt>
      <trkpt lat="41.735320" lon="2.547702">
        <ele>114.061</ele>
        <time>2019-01-17T08:00:17Z</time>
      </trkpt>
      <trkpt lat="41.735358" lon="2.547609">
        <ele>114.007</ele>
        <time>2019-01-17T08:00:26Z</time>
      </trkpt>
      <trkpt lat="41.735423" lon="2.547525">
        <ele>115.508</ele>
        <time>2019-01-17T08:00:35Z</time>
      </trkpt>
      <trkpt lat="41.735520" lon="2.547399">
        <ele>114.076</ele>
        <time>2019-01-17T08:00:44Z</time>
      </trkpt>
      <trkpt lat="41.735595" lon="2.547319">
        <ele>115.035</ele>
        <time>2019-01-17T08:00:53Z</time>
      </trkpt>
      <trkpt lat="41.735678" lon="2.547213">
        <ele>115.047</ele>
        <time>2019-01-17T08:01:00Z</time>
      </trkpt>
      <trkpt lat="41.735760" lon="2.547120">
        <ele>114.514</ele>
        <time>2019-01-17T08:01:09Z</time>
      </trkpt>
      <trkpt lat="41.735848" lon="2.547032">
        <ele>114.065</ele>
        <time>2019-01-17T08:01:17Z</time>
      </trkpt>
      <trkpt lat="41.735927" lon="2.546943">
        <ele>114.082</ele>
        <time>2019-01-17T08:01:26Z</time>
      </trkpt>
      <trkpt lat="41.736028" lon="2.546821">
        <ele>114.532</ele>
        <time>2019-01-17T08:01:33Z</time>
      </trkpt>
      <trkpt lat="41.736087" lon="2.546767">
        <ele>114.078</ele>
        <time>2019-01-17T08:01:43Z</time>
      </trkpt>
      <trkpt lat="41.736161" lon="2.546669">
        <ele>115.025</ele>
        <time>2019-01-17T08:01:51Z</time>
      </trkpt>
      <trkpt lat="41.736249" lon="2.546567">
        <ele>114.026</ele>
        <time>2019-01-17T08:02:01Z</time>
      </trkpt>
      <trkpt lat="41.736316" lon="2.546456">
        <ele>114.508</ele>
        <time>2019-01-17T08:02:11Z</time>
      </trkpt>
      <trkpt lat="41.736386" lon="2.546330">
        <ele>114.508</ele>
        <time>2019-01-17T08:02:19Z</time>
      </trkpt>
      <trkpt lat="41.736475" lon="2.546195">
        <ele>115.555</ele>
        <time>2019-01-17T08:02:29Z</time>
      </trkpt>
      <trkpt lat="41.736522" lon="2.546122">
        <ele>115.524</ele>
        <time>2019-01-17T08:02:38Z</time>
      </trkpt>
      <trkpt lat="41.736598" lon="2.545992">
        <ele>115.546</ele>
        <time>2019-01-17T08:02:46Z</time>
      </trkpt>
      <trkpt lat="41.736669" lon="2.545896">
        <ele>115.973</ele>
        <time>2019-01-17T08:02:55Z</time>
      </trkpt>
      <trkpt lat="41.736737" lon="2.545785">
        <ele>116.474</ele>
        <time>2019-01-17T08:03:04Z</time>
      </trkpt>
      <trkpt lat="41.736805" lon="2.545666">
        <ele>116.951</ele>
        <time>2019-01-17T08:03:13Z</time>
      </trkpt>
      <trkpt lat="41.736879" lon="2.545550">
        <ele>117.921</ele>
        <time>2019-01-17T08:03:22Z</time>
      </trkpt>
      <trkpt lat="41.736965" lon="2.545446">
        <ele>118.347</ele>
        <time>2019-01-17T08:03:30Z</time>
      </trkpt>
      <trkpt lat="41.737036" lon="2.545340">
        <ele>117.437</ele>
        <time>2019-01-17T08:03:39Z</time>
      </trkpt>
      <trkpt lat="41.737108" lon="2.545235">
        <ele>117.449</ele>
        <time>2019-01-17T08:03:47Z</time>
      </trkpt>
      <trkpt lat="41.737183" lon="2.545142">
        <ele>118.313</ele>
        <time>2019-01-17T08:03:56Z</time>
      </trkpt>
      <trkpt lat="41.737249" lon="2.545059">
        <ele>118.808</ele>
        <time>2019-01-17T08:04:03Z</time>
      </trkpt>
      <trkpt lat="41.737300" lon="2.544972">
        <ele>118.896</ele>
        <time>2019-01-17T08:04:12Z</time>
      </trkpt>
      <trkpt lat="41.737381" lon="2.544859">
        <ele>119.815</ele>
        <time>2019-01-17T08:04:20Z</time>
      </trkpt>
      <trkpt lat="41.737454" lon="2.544768">
        <ele>119.877</ele>
        <time>2019-01-17T08:04:29Z</time>
      </trkpt>
      <trkpt lat="41.737550" lon="2.544644">
        <ele>120.784</ele>
        <time>2019-01-17T08:04:39Z</time>
      </trkpt>
      <trkpt lat="41.737623" lon="2.544530">
        <ele>121.265</ele>
        <time>2019-01-17T08:04:48Z</time>
      </trkpt>
      <trkpt lat="41.737654" lon="2.544403">
        <ele>122.222</ele>
        <time>2019-01-17T08:04:56Z</time>
      </trkpt>
      <trkpt lat="41.737674" lon="2.544275">
        <ele>122.272</ele>
        <time>2019-01-17T08:05:05Z</time>
      </trkpt>
      <trkpt lat="41.737695" lon="2.544148">
        <ele>122.738</ele>
        <time>2019-01-17T08:05:13Z</time>
      </trkpt>
      <trkpt lat="41.737720" lon="2.544007">
        <ele>123.653</ele>
        <time>2019-01-17T08:05:21Z</time>
      </trkpt>
      <trkpt lat="41.737735" lon="2.543867">
        <ele>124.104</ele>
        <time>2019-01-17T08:05:31Z</time>
      </trkpt>
      <trkpt lat="41.737755" lon="2.543732">
        <ele>125.514</ele>
        <time>2019-01-17T08:05:40Z</time>
      </trkpt>
      <trkpt lat="41.737781" lon="2.543580">
        <ele>126.508</ele>
        <time>2019-01-17T08:05:49Z</time>
      </trkpt>
      <trkpt lat="41.737848" lon="2.543440">
        <ele>126.558</ele>
        <time>2019-01-17T08:05:58Z</time>
      </trkpt>
      <trkpt lat="41.737916" lon="2.543347">
        <ele>126.517</ele>
        <time>2019-01-17T08:06:06Z</time>
      </trkpt>
      <trkpt lat="41.738011" lon="2.543252">
        <ele>127.519</ele>
        <time>2019-01-17T08:06:14Z</time>
      </trkpt>
      <trkpt lat="41.738090" lon="2.543192">
        <ele>127.546</ele>
        <time>2019-01-17T08:06:23Z</time>
      </trkpt>
      <trkpt lat="41.738173" lon="2.543135">
        <ele>127.917</ele>
        <time>2019-01-17T08:06:30Z</time>
      </trkpt>
      <trkpt lat="41.738257" lon="2.543064">
        <ele>127.954</ele>
        <time>2019-01-17T08:06:39Z</time>
      </trkpt>
      <trkpt lat="41.738353" lon="2.542991">
        <ele>127.584</ele>
        <time>2019-01-17T08:06:46Z</time>
      </trkpt>
      <trkpt lat="41.738439" lon="2.542938">
        <ele>127.960</ele>
        <time>2019-01-17T08:06:55Z</time>
      </trkpt>
      <trkpt lat="41.738541" lon="2.542872">
        <ele>128.497</ele>
        <time>2019-01-17T08:07:02Z</time>
      </trkpt>
      <trkpt lat="41.738624" lon="2.542829">
        <ele>128.423</ele>
        <time>2019-01-17T08:07:11Z</time>
      </trkpt>
      <trkpt lat="41.738709" lon="2.542799">
        <ele>127.925</ele>
        <time>2019-01-17T08:07:18Z</time>
      </trkpt>
      <trkpt lat="41.738822" lon="2.542756">
        <ele>127.908</ele>
        <time>2019-01-17T08:07:27Z</time>
      </trkpt>
      <trkpt lat="41.738908" lon="2.542725">
        <ele>127.942</ele>
        <time>2019-01-17T08:07:34Z</time>
      </trkpt>
      <trkpt lat="41.738998" lon="2.542686">
        <ele>127.921</ele>
        <time>2019-01-17T08:07:43Z</time>
      </trkpt>
      <trkpt lat="41.739093" lon="2.542604">
        <ele>128.493</ele>
        <time>2019-01-17T08:07:51Z</time>
      </trkpt>
      <trkpt lat="41.739152" lon="2.542522">
        <ele>128.950</ele>
        <time>2019-01-17T08:08:00Z</time>
      </trkpt>
      <trkpt lat="41.739204" lon="2.542413">
        <ele>129.931</ele>
        <time>2019-01-17T08:08:09Z</time>
      </trkpt>
      <trkpt lat="41.739276" lon="2.542289">
        <ele>131.358</ele>
        <time>2019-01-17T08:08:19Z</time>
      </trkpt>
      <trkpt lat="41.739330" lon="2.542169">
        <ele>131.898</ele>
        <time>2019-01-17T08:08:27Z</time>
      </trkpt>
      <trkpt lat="41.739391" lon="2.542053">
        <ele>132.394</ele>
        <time>2019-01-17T08:08:35Z</time>
      </trkpt>
      <trkpt lat="41.739440" lon="2.541926">
        <ele>132.871</ele>
        <time>2019-01-17T08:08:45Z</time>
      </trkpt>
      <trkpt lat="41.739479" lon="2.541795">
        <ele>132.841</ele>
        <time>2019-01-17T08:08:54Z</time>
      </trkpt>
      <trkpt lat="41.739512" lon="2.541669">
        <ele>132.815</ele>
        <time>2019-01-17T08:09:02Z</time>
      </trkpt>
      <trkpt lat="41.739562" lon="2.541529">
        <ele>134.708</ele>
        <time>2019-01-17T08:09:11Z</time>
      </trkpt>
      <trkpt lat="41.739608" lon="2.541394">
        <ele>135.250</ele>
        <time>2019-01-17T08:09:21Z</time>
      </trkpt>
      <trkpt lat="41.739673" lon="2.541194">
        <ele>135.639</ele>
        <time>2019-01-17T08:09:31Z</time>
      </trkpt>
      <trkpt lat="41.739718" lon="2.541132">
        <ele>136.131</ele>
        <time>2019-01-17T08:09:41Z</time>
      </trkpt>
      <trkpt lat="41.739813" lon="2.541004">
        <ele>136.658</ele>
        <time>2019-01-17T08:09:50Z</time>
      </trkpt>
      <trkpt lat="41.739914" lon="2.540898">
        <ele>137.149</ele>
        <time>2019-01-17T08:10:00Z</time>
      </trkpt>
      <trkpt lat="41.740005" lon="2.540789">
        <ele>137.616</ele>
        <time>2019-01-17T08:10:18Z</time>
      </trkpt>
      <trkpt lat="41.740079" lon="2.540703">
        <ele>137.676</ele>
        <time>2019-01-17T08:10:26Z</time>
      </trkpt>
      <trkpt lat="41.740156" lon="2.540601">
        <ele>138.072</ele>
        <time>2019-01-17T08:10:36Z</time>
      </trkpt>
      <trkpt lat="41.740248" lon="2.540493">
        <ele>137.146</ele>
        <time>2019-01-17T08:10:45Z</time>
      </trkpt>
      <trkpt lat="41.740331" lon="2.540386">
        <ele>137.188</ele>
        <time>2019-01-17T08:10:53Z</time>
      </trkpt>
      <trkpt lat="41.740412" lon="2.540291">
        <ele>136.616</ele>
        <time>2019-01-17T08:11:01Z</time>
      </trkpt>
      <trkpt lat="41.740476" lon="2.540200">
        <ele>136.108</ele>
        <time>2019-01-17T08:11:09Z</time>
      </trkpt>
      <trkpt lat="41.740543" lon="2.540108">
        <ele>137.627</ele>
        <time>2019-01-17T08:11:18Z</time>
      </trkpt>
      <trkpt lat="41.740613" lon="2.540008">
        <ele>137.126</ele>
        <time>2019-01-17T08:11:25Z</time>
      </trkpt>
      <trkpt lat="41.740696" lon="2.539906">
        <ele>137.188</ele>
        <time>2019-01-17T08:11:34Z</time>
      </trkpt>
      <trkpt lat="41.740769" lon="2.539800">
        <ele>137.135</ele>
        <time>2019-01-17T08:11:42Z</time>
      </trkpt>
      <trkpt lat="41.740836" lon="2.539700">
        <ele>136.656</ele>
        <time>2019-01-17T08:11:51Z</time>
      </trkpt>
      <trkpt lat="41.740906" lon="2.539581">
        <ele>137.173</ele>
        <time>2019-01-17T08:12:00Z</time>
      </trkpt>
      <trkpt lat="41.740979" lon="2.539490">
        <ele>137.613</ele>
        <time>2019-01-17T08:12:08Z</time>
      </trkpt>
      <trkpt lat="41.741055" lon="2.539386">
        <ele>136.619</ele>
        <time>2019-01-17T08:12:18Z</time>
      </trkpt>
      <trkpt lat="41.741127" lon="2.539289">
        <ele>137.188</ele>
        <time>2019-01-17T08:12:26Z</time>
      </trkpt>
      <trkpt lat="41.741218" lon="2.539180">
        <ele>137.124</ele>
        <time>2019-01-17T08:12:36Z</time>
      </trkpt>
      <trkpt lat="41.741290" lon="2.539098">
        <ele>137.126</ele>
        <time>2019-01-17T08:12:44Z</time>
      </trkpt>
      <trkpt lat="41.741376" lon="2.538986">
        <ele>138.508</ele>
        <time>2019-01-17T08:12:54Z</time>
      </trkpt>
      <trkpt lat="41.741457" lon="2.538891">
        <ele>138.031</ele>
        <time>2019-01-17T08:13:04Z</time>
      </trkpt>
      <trkpt lat="41.741542" lon="2.538780">
        <ele>138.560</ele>
        <time>2019-01-17T08:13:12Z</time>
      </trkpt>
      <trkpt lat="41.741628" lon="2.538672">
        <ele>139.072</ele>
        <time>2019-01-17T08:13:21Z</time>
      </trkpt>
      <trkpt lat="41.741712" lon="2.538568">
        <ele>139.039</ele>
        <time>2019-01-17T08:13:30Z</time>
      </trkpt>
      <trkpt lat="41.741773" lon="2.538494">
        <ele>139.050</ele>
        <time>2019-01-17T08:13:37Z</time>
      </trkpt>
      <trkpt lat="41.741845" lon="2.538379">
        <ele>139.527</ele>
        <time>2019-01-17T08:13:46Z</time>
      </trkpt>
      <trkpt lat="41.741897" lon="2.538261">
        <ele>140.417</ele>
        <time>2019-01-17T08:13:55Z</time>
      </trkpt>
      <trkpt lat="41.741944" lon="2.538135">
        <ele>140.933</ele>
        <time>2019-01-17T08:14:03Z</time>
      </trkpt>
      <trkpt lat="41.742012" lon="2.538004">
        <ele>140.972</ele>
        <time>2019-01-17T08:14:13Z</time>
      </trkpt>
      <trkpt lat="41.742052" lon="2.537919">
        <ele>142.413</ele>
        <time>2019-01-17T08:14:22Z</time>
      </trkpt>
      <trkpt lat="41.742125" lon="2.537818">
        <ele>143.314</ele>
        <time>2019-01-17T08:14:31Z</time>
      </trkpt>
      <trkpt lat="41.742204" lon="2.537697">
        <ele>143.808</ele>
        <time>2019-01-17T08:14:40Z</time>
      </trkpt>
      <trkpt lat="41.742282" lon="2.537592">
        <ele>144.350</ele>
        <time>2019-01-17T08:14:50Z</time>
      </trkpt>
      <trkpt lat="41.742368" lon="2.537501">
        <ele>145.329</ele>
        <time>2019-01-17T08:14:59Z</time>
      </trkpt>
      <trkpt lat="41.742483" lon="2.537393">
        <ele>146.211</ele>
        <time>2019-01-17T08:15:09Z</time>
      </trkpt>
      <trkpt lat="41.742594" lon="2.537354">
        <ele>146.288</ele>
        <time>2019-01-17T08:15:18Z</time>
      </trkpt>
      <trkpt lat="41.742706" lon="2.537303">
        <ele>146.789</ele>
        <time>2019-01-17T08:15:28Z</time>
      </trkpt>
      <trkpt lat="41.742803" lon="2.537281">
        <ele>148.126</ele>
        <time>2019-01-17T08:15:37Z</time>
      </trkpt>
      <trkpt lat="41.742901" lon="2.537249">
        <ele>149.136</ele>
        <time>2019-01-17T08:15:45Z</time>
      </trkpt>
      <trkpt lat="41.743000" lon="2.537205">
        <ele>150.182</ele>
        <time>2019-01-17T08:15:54Z</time>
      </trkpt>
      <trkpt lat="41.743113" lon="2.537172">
        <ele>150.121</ele>
        <time>2019-01-17T08:16:04Z</time>
      </trkpt>
      <trkpt lat="41.743215" lon="2.537139">
        <ele>151.041</ele>
        <time>2019-01-17T08:16:14Z</time>
      </trkpt>
      <trkpt lat="41.743314" lon="2.537105">
        <ele>151.505</ele>
        <time>2019-01-17T08:16:23Z</time>
      </trkpt>
      <trkpt lat="41.743423" lon="2.537032">
        <ele>152.508</ele>
        <time>2019-01-17T08:16:32Z</time>
      </trkpt>
      <trkpt lat="41.743527" lon="2.536966">
        <ele>152.955</ele>
        <time>2019-01-17T08:16:42Z</time>
      </trkpt>
      <trkpt lat="41.743590" lon="2.536865">
        <ele>152.954</ele>
        <time>2019-01-17T08:16:50Z</time>
      </trkpt>
      <trkpt lat="41.743664" lon="2.536764">
        <ele>152.926</ele>
        <time>2019-01-17T08:16:58Z</time>
      </trkpt>
      <trkpt lat="41.743723" lon="2.536658">
        <ele>152.953</ele>
        <time>2019-01-17T08:17:07Z</time>
      </trkpt>
      <trkpt lat="41.743793" lon="2.536539">
        <ele>152.914</ele>
        <time>2019-01-17T08:17:16Z</time>
      </trkpt>
      <trkpt lat="41.743886" lon="2.536426">
        <ele>152.571</ele>
        <time>2019-01-17T08:17:24Z</time>
      </trkpt>
      <trkpt lat="41.743981" lon="2.536333">
        <ele>152.971</ele>
        <time>2019-01-17T08:17:33Z</time>
      </trkpt>
      <trkpt lat="41.744068" lon="2.536251">
        <ele>152.537</ele>
        <time>2019-01-17T08:17:42Z</time>
      </trkpt>
      <trkpt lat="41.744178" lon="2.536165">
        <ele>153.468</ele>
        <time>2019-01-17T08:17:51Z</time>
      </trkpt>
      <trkpt lat="41.744258" lon="2.536055">
        <ele>153.442</ele>
        <time>2019-01-17T08:18:01Z</time>
      </trkpt>
      <trkpt lat="41.744330" lon="2.535945">
        <ele>153.426</ele>
        <time>2019-01-17T08:18:09Z</time>
      </trkpt>
      <trkpt lat="41.744395" lon="2.535822">
        <ele>153.908</ele>
        <time>2019-01-17T08:18:19Z</time>
      </trkpt>
      <trkpt lat="41.744461" lon="2.535694">
        <ele>154.459</ele>
        <time>2019-01-17T08:18:27Z</time>
      </trkpt>
      <trkpt lat="41.744529" lon="2.535576">
        <ele>156.378</ele>
        <time>2019-01-17T08:18:37Z</time>
      </trkpt>
      <trkpt lat="41.744612" lon="2.535455">
        <ele>155.840</ele>
        <time>2019-01-17T08:18:46Z</time>
      </trkpt>
      <trkpt lat="41.744685" lon="2.535351">
        <ele>156.347</ele>
        <time>2019-01-17T08:18:54Z</time>
      </trkpt>
      <trkpt lat="41.744752" lon="2.535267">
        <ele>156.898</ele>
        <time>2019-01-17T08:19:02Z</time>
      </trkpt>
      <trkpt lat="41.744871" lon="2.535198">
        <ele>156.315</ele>
        <time>2019-01-17T08:19:11Z</time>
      </trkpt>
      <trkpt lat="41.744973" lon="2.535152">
        <ele>156.395</ele>
        <time>2019-01-17T08:19:18Z</time>
      </trkpt>
      <trkpt lat="41.745068" lon="2.535105">
        <ele>155.891</ele>
        <time>2019-01-17T08:19:27Z</time>
      </trkpt>
      <trkpt lat="41.745162" lon="2.535053">
        <ele>156.391</ele>
        <time>2019-01-17T08:19:35Z</time>
      </trkpt>
      <trkpt lat="41.745279" lon="2.535034">
        <ele>156.881</ele>
        <time>2019-01-17T08:19:45Z</time>
      </trkpt>
      <trkpt lat="41.745402" lon="2.535048">
        <ele>156.819</ele>
        <time>2019-01-17T08:19:53Z</time>
      </trkpt>
      <trkpt lat="41.745499" lon="2.535050">
        <ele>157.308</ele>
        <time>2019-01-17T08:20:03Z</time>
      </trkpt>
      <trkpt lat="41.745634" lon="2.535050">
        <ele>157.372</ele>
        <time>2019-01-17T08:20:12Z</time>
      </trkpt>
      <trkpt lat="41.745740" lon="2.535012">
        <ele>156.841</ele>
        <time>2019-01-17T08:20:21Z</time>
      </trkpt>
      <trkpt lat="41.745853" lon="2.534961">
        <ele>156.823</ele>
        <time>2019-01-17T08:20:30Z</time>
      </trkpt>
      <trkpt lat="41.745972" lon="2.534910">
        <ele>157.770</ele>
        <time>2019-01-17T08:20:40Z</time>
      </trkpt>
      <trkpt lat="41.746088" lon="2.534855">
        <ele>158.251</ele>
        <time>2019-01-17T08:20:50Z</time>
      </trkpt>
      <trkpt lat="41.746193" lon="2.534802">
        <ele>158.228</ele>
        <time>2019-01-17T08:20:58Z</time>
      </trkpt>
      <trkpt lat="41.746296" lon="2.534776">
        <ele>159.238</ele>
        <time>2019-01-17T08:21:07Z</time>
      </trkpt>
      <trkpt lat="41.746400" lon="2.534737">
        <ele>159.284</ele>
        <time>2019-01-17T08:21:15Z</time>
      </trkpt>
      <trkpt lat="41.746507" lon="2.534709">
        <ele>160.626</ele>
        <time>2019-01-17T08:21:24Z</time>
      </trkpt>
      <trkpt lat="41.746611" lon="2.534691">
        <ele>160.647</ele>
        <time>2019-01-17T08:21:33Z</time>
      </trkpt>
      <trkpt lat="41.746732" lon="2.534674">
        <ele>162.111</ele>
        <time>2019-01-17T08:21:41Z</time>
      </trkpt>
      <trkpt lat="41.746816" lon="2.534672">
        <ele>162.608</ele>
        <time>2019-01-17T08:21:51Z</time>
      </trkpt>
      <trkpt lat="41.746927" lon="2.534659">
        <ele>162.665</ele>
        <time>2019-01-17T08:22:00Z</time>
      </trkpt>
      <trkpt lat="41.747050" lon="2.534652">
        <ele>163.014</ele>
        <time>2019-01-17T08:22:09Z</time>
      </trkpt>
      <trkpt lat="41.747141" lon="2.534653">
        <ele>164.096</ele>
        <time>2019-01-17T08:22:18Z</time>
      </trkpt>
      <trkpt lat="41.747247" lon="2.534669">
        <ele>163.083</ele>
        <time>2019-01-17T08:22:26Z</time>
      </trkpt>
      <trkpt lat="41.747357" lon="2.534676">
        <ele>163.054</ele>
        <time>2019-01-17T08:22:36Z</time>
      </trkpt>
      <trkpt lat="41.747464" lon="2.534690">
        <ele>164.041</ele>
        <time>2019-01-17T08:22:45Z</time>
      </trkpt>
      <trkpt lat="41.747597" lon="2.534706">
        <ele>164.531</ele>
        <time>2019-01-17T08:22:56Z</time>
      </trkpt>
      <trkpt lat="41.747715" lon="2.534725">
        <ele>164.077</ele>
        <time>2019-01-17T08:23:06Z</time>
      </trkpt>
      <trkpt lat="41.747824" lon="2.534749">
        <ele>163.593</ele>
        <time>2019-01-17T08:23:14Z</time>
      </trkpt>
      <trkpt lat="41.747950" lon="2.534789">
        <ele>163.565</ele>
        <time>2019-01-17T08:23:23Z</time>
      </trkpt>
      <trkpt lat="41.748078" lon="2.534796">
        <ele>164.021</ele>
        <time>2019-01-17T08:23:32Z</time>
      </trkpt>
      <trkpt lat="41.748194" lon="2.534751">
        <ele>163.508</ele>
        <time>2019-01-17T08:23:42Z</time>
      </trkpt>
      <trkpt lat="41.748307" lon="2.534692">
        <ele>163.582</ele>
        <time>2019-01-17T08:23:52Z</time>
      </trkpt>
      <trkpt lat="41.748413" lon="2.534619">
        <ele>163.581</ele>
        <time>2019-01-17T08:24:01Z</time>
      </trkpt>
      <trkpt lat="41.748491" lon="2.534497">
        <ele>163.523</ele>
        <time>2019-01-17T08:24:10Z</time>
      </trkpt>
      <trkpt lat="41.748537" lon="2.534361">
        <ele>164.060</ele>
        <time>2019-01-17T08:24:19Z</time>
      </trkpt>
      <trkpt lat="41.748582" lon="2.534225">
        <ele>164.521</ele>
        <time>2019-01-17T08:24:27Z</time>
      </trkpt>
      <trkpt lat="41.748617" lon="2.534079">
        <ele>164.098</ele>
        <time>2019-01-17T08:24:36Z</time>
      </trkpt>
      <trkpt lat="41.748654" lon="2.533955">
        <ele>164.568</ele>
        <time>2019-01-17T08:24:43Z</time>
      </trkpt>
      <trkpt lat="41.748731" lon="2.533831">
        <ele>164.584</ele>
        <time>2019-01-17T08:24:52Z</time>
      </trkpt>
      <trkpt lat="41.748803" lon="2.533720">
        <ele>165.419</ele>
        <time>2019-01-17T08:25:00Z</time>
      </trkpt>
      <trkpt lat="41.748850" lon="2.533645">
        <ele>165.909</ele>
        <time>2019-01-17T08:25:11Z</time>
      </trkpt>
      <trkpt lat="41.748951" lon="2.533514">
        <ele>167.419</ele>
        <time>2019-01-17T08:26:07Z</time>
      </trkpt>
      <trkpt lat="41.749038" lon="2.533428">
        <ele>167.808</ele>
        <time>2019-01-17T08:26:56Z</time>
      </trkpt>
      <trkpt lat="41.749123" lon="2.533419">
        <ele>169.884</ele>
        <time>2019-01-17T08:27:08Z</time>
      </trkpt>
      <trkpt lat="41.749254" lon="2.533437">
        <ele>170.713</ele>
        <time>2019-01-17T08:27:18Z</time>
      </trkpt>
      <trkpt lat="41.749342" lon="2.533457">
        <ele>171.795</ele>
        <time>2019-01-17T08:27:27Z</time>
      </trkpt>
      <trkpt lat="41.749419" lon="2.533475">
        <ele>171.242</ele>
        <time>2019-01-17T08:27:36Z</time>
      </trkpt>
      <trkpt lat="41.749504" lon="2.533373">
        <ele>171.253</ele>
        <time>2019-01-17T08:27:59Z</time>
      </trkpt>
      <trkpt lat="41.749551" lon="2.533222">
        <ele>173.130</ele>
        <time>2019-01-17T08:28:12Z</time>
      </trkpt>
      <trkpt lat="41.749608" lon="2.533070">
        <ele>175.180</ele>
        <time>2019-01-17T08:28:21Z</time>
      </trkpt>
      <trkpt lat="41.749649" lon="2.532972">
        <ele>177.546</ele>
        <time>2019-01-17T08:28:32Z</time>
      </trkpt>
      <trkpt lat="41.749744" lon="2.532848">
        <ele>178.959</ele>
        <time>2019-01-17T08:28:44Z</time>
      </trkpt>
      <trkpt lat="41.749813" lon="2.532742">
        <ele>179.403</ele>
        <time>2019-01-17T08:28:54Z</time>
      </trkpt>
      <trkpt lat="41.749899" lon="2.532625">
        <ele>179.423</ele>
        <time>2019-01-17T08:29:05Z</time>
      </trkpt>
      <trkpt lat="41.749983" lon="2.532499">
        <ele>179.908</ele>
        <time>2019-01-17T08:29:17Z</time>
      </trkpt>
      <trkpt lat="41.750039" lon="2.532373">
        <ele>181.378</ele>
        <time>2019-01-17T08:29:31Z</time>
      </trkpt>
      <trkpt lat="41.750077" lon="2.532280">
        <ele>182.717</ele>
        <time>2019-01-17T08:29:40Z</time>
      </trkpt>
      <trkpt lat="41.750131" lon="2.532131">
        <ele>184.759</ele>
        <time>2019-01-17T08:29:53Z</time>
      </trkpt>
      <trkpt lat="41.750181" lon="2.531974">
        <ele>187.576</ele>
        <time>2019-01-17T08:30:08Z</time>
      </trkpt>
      <trkpt lat="41.750230" lon="2.531908">
        <ele>189.077</ele>
        <time>2019-01-17T08:30:22Z</time>
      </trkpt>
      <trkpt lat="41.750415" lon="2.531786">
        <ele>189.524</ele>
        <time>2019-01-17T08:30:34Z</time>
      </trkpt>
      <trkpt lat="41.750537" lon="2.531689">
        <ele>189.094</ele>
        <time>2019-01-17T08:30:50Z</time>
      </trkpt>
      <trkpt lat="41.750587" lon="2.531618">
        <ele>188.050</ele>
        <time>2019-01-17T08:31:01Z</time>
      </trkpt>
      <trkpt lat="41.750677" lon="2.531493">
        <ele>188.092</ele>
        <time>2019-01-17T08:31:12Z</time>
      </trkpt>
      <trkpt lat="41.750781" lon="2.531361">
        <ele>189.573</ele>
        <time>2019-01-17T08:31:23Z</time>
      </trkpt>
      <trkpt lat="41.750884" lon="2.531332">
        <ele>189.020</ele>
        <time>2019-01-17T08:31:33Z</time>
      </trkpt>
      <trkpt lat="41.750974" lon="2.531219">
        <ele>188.508</ele>
        <time>2019-01-17T08:31:44Z</time>
      </trkpt>
      <trkpt lat="41.751070" lon="2.531120">
        <ele>187.172</ele>
        <time>2019-01-17T08:31:56Z</time>
      </trkpt>
      <trkpt lat="41.751236" lon="2.531102">
        <ele>184.781</ele>
        <time>2019-01-17T08:32:09Z</time>
      </trkpt>
      <trkpt lat="41.751365" lon="2.531113">
        <ele>183.293</ele>
        <time>2019-01-17T08:32:21Z</time>
      </trkpt>
      <trkpt lat="41.751480" lon="2.531028">
        <ele>181.820</ele>
        <time>2019-01-17T08:32:35Z</time>
      </trkpt>
      <trkpt lat="41.751564" lon="2.530943">
        <ele>183.211</ele>
        <time>2019-01-17T08:32:46Z</time>
      </trkpt>
      <trkpt lat="41.751640" lon="2.530941">
        <ele>185.118</ele>
        <time>2019-01-17T08:33:00Z</time>
      </trkpt>
      <trkpt lat="41.751753" lon="2.530731">
        <ele>185.618</ele>
        <time>2019-01-17T08:33:10Z</time>
      </trkpt>
      <trkpt lat="41.751834" lon="2.530633">
        <ele>185.674</ele>
        <time>2019-01-17T08:33:20Z</time>
      </trkpt>
      <trkpt lat="41.751940" lon="2.530560">
        <ele>187.533</ele>
        <time>2019-01-17T08:33:29Z</time>
      </trkpt>
      <trkpt lat="41.752024" lon="2.530461">
        <ele>187.523</ele>
        <time>2019-01-17T08:33:40Z</time>
      </trkpt>
      <trkpt lat="41.752064" lon="2.530368">
        <ele>188.015</ele>
        <time>2019-01-17T08:33:49Z</time>
      </trkpt>
      <trkpt lat="41.752130" lon="2.530226">
        <ele>188.008</ele>
        <time>2019-01-17T08:33:59Z</time>
      </trkpt>
      <trkpt lat="41.752182" lon="2.530109">
        <ele>188.536</ele>
        <time>2019-01-17T08:34:09Z</time>
      </trkpt>
      <trkpt lat="41.752245" lon="2.529974">
        <ele>189.085</ele>
        <time>2019-01-17T08:34:19Z</time>
      </trkpt>
      <trkpt lat="41.752310" lon="2.529870">
        <ele>189.527</ele>
        <time>2019-01-17T08:34:29Z</time>
      </trkpt>
      <trkpt lat="41.752360" lon="2.529779">
        <ele>189.544</ele>
        <time>2019-01-17T08:34:42Z</time>
      </trkpt>
      <trkpt lat="41.752432" lon="2.529761">
        <ele>190.425</ele>
        <time>2019-01-17T08:34:54Z</time>
      </trkpt>
      <trkpt lat="41.752579" lon="2.529843">
        <ele>191.942</ele>
        <time>2019-01-17T08:35:04Z</time>
      </trkpt>
      <trkpt lat="41.752680" lon="2.529901">
        <ele>192.412</ele>
        <time>2019-01-17T08:35:13Z</time>
      </trkpt>
      <trkpt lat="41.752790" lon="2.529958">
        <ele>192.448</ele>
        <time>2019-01-17T08:35:22Z</time>
      </trkpt>
      <trkpt lat="41.752887" lon="2.529958">
        <ele>193.862</ele>
        <time>2019-01-17T08:35:31Z</time>
      </trkpt>
      <trkpt lat="41.752984" lon="2.529890">
        <ele>193.383</ele>
        <time>2019-01-17T08:35:41Z</time>
      </trkpt>
      <trkpt lat="41.753057" lon="2.529790">
        <ele>194.311</ele>
        <time>2019-01-17T08:35:51Z</time>
      </trkpt>
      <trkpt lat="41.753145" lon="2.529671">
        <ele>194.808</ele>
        <time>2019-01-17T08:36:04Z</time>
      </trkpt>
      <trkpt lat="41.753221" lon="2.529587">
        <ele>196.239</ele>
        <time>2019-01-17T08:36:16Z</time>
      </trkpt>
      <trkpt lat="41.753345" lon="2.529585">
        <ele>197.288</ele>
        <time>2019-01-17T08:36:24Z</time>
      </trkpt>
      <trkpt lat="41.753474" lon="2.529591">
        <ele>198.670</ele>
        <time>2019-01-17T08:36:35Z</time>
      </trkpt>
      <trkpt lat="41.753562" lon="2.529571">
        <ele>200.047</ele>
        <time>2019-01-17T08:36:47Z</time>
      </trkpt>
      <trkpt lat="41.753647" lon="2.529512">
        <ele>200.568</ele>
        <time>2019-01-17T08:36:57Z</time>
      </trkpt>
      <trkpt lat="41.753695" lon="2.529403">
        <ele>201.595</ele>
        <time>2019-01-17T08:37:06Z</time>
      </trkpt>
      <trkpt lat="41.753725" lon="2.529260">
        <ele>201.575</ele>
        <time>2019-01-17T08:37:15Z</time>
      </trkpt>
      <trkpt lat="41.753750" lon="2.529120">
        <ele>202.021</ele>
        <time>2019-01-17T08:37:24Z</time>
      </trkpt>
      <trkpt lat="41.753799" lon="2.529049">
        <ele>201.539</ele>
        <time>2019-01-17T08:37:33Z</time>
      </trkpt>
      <trkpt lat="41.753966" lon="2.529029">
        <ele>202.001</ele>
        <time>2019-01-17T08:37:42Z</time>
      </trkpt>
      <trkpt lat="41.754069" lon="2.529007">
        <ele>202.421</ele>
        <time>2019-01-17T08:37:52Z</time>
      </trkpt>
      <trkpt lat="41.754189" lon="2.528967">
        <ele>202.908</ele>
        <time>2019-01-17T08:38:03Z</time>
      </trkpt>
      <trkpt lat="41.754295" lon="2.528910">
        <ele>204.946</ele>
        <time>2019-01-17T08:38:14Z</time>
      </trkpt>
      <trkpt lat="41.754434" lon="2.528828">
        <ele>207.385</ele>
        <time>2019-01-17T08:38:27Z</time>
      </trkpt>
      <trkpt lat="41.754497" lon="2.528828">
        <ele>207.787</ele>
        <time>2019-01-17T08:38:38Z</time>
      </trkpt>
      <trkpt lat="41.754595" lon="2.528847">
        <ele>207.324</ele>
        <time>2019-01-17T08:38:51Z</time>
      </trkpt>
      <trkpt lat="41.754726" lon="2.528841">
        <ele>206.825</ele>
        <time>2019-01-17T08:39:01Z</time>
      </trkpt>
      <trkpt lat="41.754841" lon="2.528817">
        <ele>207.392</ele>
        <time>2019-01-17T08:39:11Z</time>
      </trkpt>
      <trkpt lat="41.754948" lon="2.528779">
        <ele>207.752</ele>
        <time>2019-01-17T08:39:22Z</time>
      </trkpt>
      <trkpt lat="41.755045" lon="2.528759">
        <ele>208.718</ele>
        <time>2019-01-17T08:39:32Z</time>
      </trkpt>
      <trkpt lat="41.755197" lon="2.528812">
        <ele>211.123</ele>
        <time>2019-01-17T08:39:43Z</time>
      </trkpt>
      <trkpt lat="41.755258" lon="2.528868">
        <ele>212.583</ele>
        <time>2019-01-17T08:39:54Z</time>
      </trkpt>
      <trkpt lat="41.755325" lon="2.528988">
        <ele>213.011</ele>
        <time>2019-01-17T08:40:05Z</time>
      </trkpt>
      <trkpt lat="41.755381" lon="2.529107">
        <ele>214.508</ele>
        <time>2019-01-17T08:40:15Z</time>
      </trkpt>
      <trkpt lat="41.755434" lon="2.529146">
        <ele>214.995</ele>
        <time>2019-01-17T08:40:25Z</time>
      </trkpt>
      <trkpt lat="41.755603" lon="2.529065">
        <ele>215.414</ele>
        <time>2019-01-17T08:40:34Z</time>
      </trkpt>
      <trkpt lat="41.755691" lon="2.528998">
        <ele>216.486</ele>
        <time>2019-01-17T08:40:47Z</time>
      </trkpt>
      <trkpt lat="41.755776" lon="2.528921">
        <ele>217.483</ele>
        <time>2019-01-17T08:40:56Z</time>
      </trkpt>
      <trkpt lat="41.755858" lon="2.528885">
        <ele>220.294</ele>
        <time>2019-01-17T08:41:09Z</time>
      </trkpt>
      <trkpt lat="41.756000" lon="2.528886">
        <ele>222.231</ele>
        <time>2019-01-17T08:41:21Z</time>
      </trkpt>
      <trkpt lat="41.756083" lon="2.528841">
        <ele>223.661</ele>
        <time>2019-01-17T08:41:32Z</time>
      </trkpt>
      <trkpt lat="41.756189" lon="2.528836">
        <ele>224.627</ele>
        <time>2019-01-17T08:41:42Z</time>
      </trkpt>
      <trkpt lat="41.756282" lon="2.528934">
        <ele>224.174</ele>
        <time>2019-01-17T08:41:51Z</time>
      </trkpt>
      <trkpt lat="41.756385" lon="2.528930">
        <ele>223.656</ele>
        <time>2019-01-17T08:42:01Z</time>
      </trkpt>
      <trkpt lat="41.756497" lon="2.528879">
        <ele>224.621</ele>
        <time>2019-01-17T08:42:12Z</time>
      </trkpt>
      <trkpt lat="41.756611" lon="2.528852">
        <ele>225.508</ele>
        <time>2019-01-17T08:42:22Z</time>
      </trkpt>
      <trkpt lat="41.756707" lon="2.528835">
        <ele>226.560</ele>
        <time>2019-01-17T08:42:34Z</time>
      </trkpt>
      <trkpt lat="41.756839" lon="2.528796">
        <ele>227.989</ele>
        <time>2019-01-17T08:42:45Z</time>
      </trkpt>
      <trkpt lat="41.756951" lon="2.528744">
        <ele>227.911</ele>
        <time>2019-01-17T08:42:55Z</time>
      </trkpt>
      <trkpt lat="41.757054" lon="2.528680">
        <ele>228.448</ele>
        <time>2019-01-17T08:43:05Z</time>
      </trkpt>
      <trkpt lat="41.757161" lon="2.528651">
        <ele>228.989</ele>
        <time>2019-01-17T08:43:15Z</time>
      </trkpt>
      <trkpt lat="41.757271" lon="2.528651">
        <ele>229.426</ele>
        <time>2019-01-17T08:43:26Z</time>
      </trkpt>
      <trkpt lat="41.757400" lon="2.528611">
        <ele>230.386</ele>
        <time>2019-01-17T08:43:37Z</time>
      </trkpt>
      <trkpt lat="41.757504" lon="2.528533">
        <ele>231.862</ele>
        <time>2019-01-17T08:43:49Z</time>
      </trkpt>
      <trkpt lat="41.757604" lon="2.528527">
        <ele>231.858</ele>
        <time>2019-01-17T08:43:58Z</time>
      </trkpt>
      <trkpt lat="41.757699" lon="2.528486">
        <ele>233.252</ele>
        <time>2019-01-17T08:44:09Z</time>
      </trkpt>
      <trkpt lat="41.757793" lon="2.528445">
        <ele>233.717</ele>
        <time>2019-01-17T08:44:21Z</time>
      </trkpt>
      <trkpt lat="41.757944" lon="2.528431">
        <ele>235.108</ele>
        <time>2019-01-17T08:44:34Z</time>
      </trkpt>
      <trkpt lat="41.758036" lon="2.528476">
        <ele>237.578</ele>
        <time>2019-01-17T08:44:54Z</time>
      </trkpt>
      <trkpt lat="41.758178" lon="2.528545">
        <ele>239.967</ele>
        <time>2019-01-17T08:45:18Z</time>
      </trkpt>
      <trkpt lat="41.758305" lon="2.528573">
        <ele>242.859</ele>
        <time>2019-01-17T08:47:44Z</time>
      </trkpt>
      <trkpt lat="41.758429" lon="2.528588">
        <ele>245.786</ele>
        <time>2019-01-17T08:48:02Z</time>
      </trkpt>
      <trkpt lat="41.758568" lon="2.528617">
        <ele>248.187</ele>
        <time>2019-01-17T08:48:28Z</time>
      </trkpt>
      <trkpt lat="41.758726" lon="2.528692">
        <ele>249.174</ele>
        <time>2019-01-17T08:48:58Z</time>
      </trkpt>
      <trkpt lat="41.758850" lon="2.528743">
        <ele>253.914</ele>
        <time>2019-01-17T08:49:15Z</time>
      </trkpt>
      <trkpt lat="41.758995" lon="2.528869">
        <ele>255.380</ele>
        <time>2019-01-17T08:49:35Z</time>
      </trkpt>
      <trkpt lat="41.759038" lon="2.528929">
        <ele>259.243</ele>
        <time>2019-01-17T08:49:52Z</time>
      </trkpt>
      <trkpt lat="41.759035" lon="2.529002">
        <ele>262.164</ele>
        <time>2019-01-17T08:50:11Z</time>
      </trkpt>
      <trkpt lat="41.758970" lon="2.529082">
        <ele>265.910</ele>
        <time>2019-01-17T08:50:29Z</time>
      </trkpt>
      <trkpt lat="41.758925" lon="2.529084">
        <ele>268.308</ele>
        <time>2019-01-17T08:50:47Z</time>
      </trkpt>
      <trkpt lat="41.758702" lon="2.529022">
        <ele>270.797</ele>
        <time>2019-01-17T08:51:03Z</time>
      </trkpt>
      <trkpt lat="41.758544" lon="2.529053">
        <ele>273.156</ele>
        <time>2019-01-17T08:51:18Z</time>
      </trkpt>
      <trkpt lat="41.758465" lon="2.529128">
        <ele>274.538</ele>
        <time>2019-01-17T08:51:30Z</time>
      </trkpt>
      <trkpt lat="41.758417" lon="2.529177">
        <ele>274.565</ele>
        <time>2019-01-17T08:51:39Z</time>
      </trkpt>
      <trkpt lat="41.758376" lon="2.529390">
        <ele>272.656</ele>
        <time>2019-01-17T08:51:52Z</time>
      </trkpt>
      <trkpt lat="41.758332" lon="2.529527">
        <ele>271.233</ele>
        <time>2019-01-17T08:52:01Z</time>
      </trkpt>
      <trkpt lat="41.758285" lon="2.529562">
        <ele>271.243</ele>
        <time>2019-01-17T08:52:12Z</time>
      </trkpt>
      <trkpt lat="41.758114" lon="2.529541">
        <ele>272.199</ele>
        <time>2019-01-17T08:52:23Z</time>
      </trkpt>
      <trkpt lat="41.758000" lon="2.529538">
        <ele>273.693</ele>
        <time>2019-01-17T08:52:35Z</time>
      </trkpt>
      <trkpt lat="41.757937" lon="2.529593">
        <ele>275.065</ele>
        <time>2019-01-17T08:52:45Z</time>
      </trkpt>
      <trkpt lat="41.757845" lon="2.529763">
        <ele>276.521</ele>
        <time>2019-01-17T08:52:57Z</time>
      </trkpt>
      <trkpt lat="41.757799" lon="2.529874">
        <ele>277.908</ele>
        <time>2019-01-17T08:53:07Z</time>
      </trkpt>
      <trkpt lat="41.757721" lon="2.529964">
        <ele>278.992</ele>
        <time>2019-01-17T08:53:18Z</time>
      </trkpt>
      <trkpt lat="41.757664" lon="2.529969">
        <ele>280.891</ele>
        <time>2019-01-17T08:53:30Z</time>
      </trkpt>
      <trkpt lat="41.757532" lon="2.529916">
        <ele>282.713</ele>
        <time>2019-01-17T08:53:43Z</time>
      </trkpt>
      <trkpt lat="41.757475" lon="2.529958">
        <ele>283.720</ele>
        <time>2019-01-17T08:53:54Z</time>
      </trkpt>
      <trkpt lat="41.757412" lon="2.530129">
        <ele>286.121</ele>
        <time>2019-01-17T08:54:05Z</time>
      </trkpt>
      <trkpt lat="41.757372" lon="2.530263">
        <ele>287.098</ele>
        <time>2019-01-17T08:54:16Z</time>
      </trkpt>
      <trkpt lat="41.757328" lon="2.530399">
        <ele>288.018</ele>
        <time>2019-01-17T08:54:28Z</time>
      </trkpt>
      <trkpt lat="41.757294" lon="2.530527">
        <ele>289.494</ele>
        <time>2019-01-17T08:54:38Z</time>
      </trkpt>
      <trkpt lat="41.757226" lon="2.530611">
        <ele>290.959</ele>
        <time>2019-01-17T08:54:49Z</time>
      </trkpt>
      <trkpt lat="41.757095" lon="2.530607">
        <ele>291.903</ele>
        <time>2019-01-17T08:55:01Z</time>
      </trkpt>
      <trkpt lat="41.757012" lon="2.530558">
        <ele>293.323</ele>
        <time>2019-01-17T08:55:11Z</time>
      </trkpt>
      <trkpt lat="41.756962" lon="2.530575">
        <ele>294.708</ele>
        <time>2019-01-17T08:55:26Z</time>
      </trkpt>
      <trkpt lat="41.756979" lon="2.530646">
        <ele>296.268</ele>
        <time>2019-01-17T08:55:36Z</time>
      </trkpt>
      <trkpt lat="41.757197" lon="2.530772">
        <ele>296.717</ele>
        <time>2019-01-17T08:55:46Z</time>
      </trkpt>
      <trkpt lat="41.757303" lon="2.530788">
        <ele>298.649</ele>
        <time>2019-01-17T08:55:57Z</time>
      </trkpt>
      <trkpt lat="41.757395" lon="2.530725">
        <ele>299.516</ele>
        <time>2019-01-17T08:56:08Z</time>
      </trkpt>
      <trkpt lat="41.757462" lon="2.530632">
        <ele>300.577</ele>
        <time>2019-01-17T08:56:19Z</time>
      </trkpt>
      <trkpt lat="41.757545" lon="2.530511">
        <ele>301.534</ele>
        <time>2019-01-17T08:56:31Z</time>
      </trkpt>
      <trkpt lat="41.757590" lon="2.530476">
        <ele>302.444</ele>
        <time>2019-01-17T08:56:42Z</time>
      </trkpt>
      <trkpt lat="41.757716" lon="2.530555">
        <ele>303.460</ele>
        <time>2019-01-17T08:56:53Z</time>
      </trkpt>
      <trkpt lat="41.757862" lon="2.530648">
        <ele>304.814</ele>
        <time>2019-01-17T08:57:03Z</time>
      </trkpt>
      <trkpt lat="41.757918" lon="2.530595">
        <ele>306.354</ele>
        <time>2019-01-17T08:57:14Z</time>
      </trkpt>
      <trkpt lat="41.758011" lon="2.530537">
        <ele>307.709</ele>
        <time>2019-01-17T08:57:25Z</time>
      </trkpt>
      <trkpt lat="41.758095" lon="2.530474">
        <ele>309.208</ele>
        <time>2019-01-17T08:57:36Z</time>
      </trkpt>
      <trkpt lat="41.758235" lon="2.530491">
        <ele>310.164</ele>
        <time>2019-01-17T08:57:47Z</time>
      </trkpt>
      <trkpt lat="41.758342" lon="2.530547">
        <ele>310.633</ele>
        <time>2019-01-17T08:57:57Z</time>
      </trkpt>
      <trkpt lat="41.758467" lon="2.530584">
        <ele>312.565</ele>
        <time>2019-01-17T08:58:09Z</time>
      </trkpt>
      <trkpt lat="41.758561" lon="2.530646">
        <ele>313.532</ele>
        <time>2019-01-17T08:58:21Z</time>
      </trkpt>
      <trkpt lat="41.758647" lon="2.530679">
        <ele>314.413</ele>
        <time>2019-01-17T08:58:33Z</time>
      </trkpt>
      <trkpt lat="41.758771" lon="2.530679">
        <ele>317.320</ele>
        <time>2019-01-17T08:58:46Z</time>
      </trkpt>
      <trkpt lat="41.758845" lon="2.530595">
        <ele>317.810</ele>
        <time>2019-01-17T08:58:59Z</time>
      </trkpt>
      <trkpt lat="41.758922" lon="2.530451">
        <ele>318.886</ele>
        <time>2019-01-17T08:59:09Z</time>
      </trkpt>
      <trkpt lat="41.758961" lon="2.530401">
        <ele>320.253</ele>
        <time>2019-01-17T08:59:21Z</time>
      </trkpt>
      <trkpt lat="41.759006" lon="2.530361">
        <ele>321.704</ele>
        <time>2019-01-17T08:59:33Z</time>
      </trkpt>
      <trkpt lat="41.759089" lon="2.530374">
        <ele>321.214</ele>
        <time>2019-01-17T09:00:29Z</time>
      </trkpt>
      <trkpt lat="41.759156" lon="2.530417">
        <ele>321.708</ele>
        <time>2019-01-17T09:00:39Z</time>
      </trkpt>
      <trkpt lat="41.759249" lon="2.530447">
        <ele>320.748</ele>
        <time>2019-01-17T09:00:49Z</time>
      </trkpt>
      <trkpt lat="41.759351" lon="2.530464">
        <ele>319.367</ele>
        <time>2019-01-17T09:00:58Z</time>
      </trkpt>
      <trkpt lat="41.759446" lon="2.530460">
        <ele>319.389</ele>
        <time>2019-01-17T09:01:07Z</time>
      </trkpt>
      <trkpt lat="41.759565" lon="2.530356">
        <ele>319.376</ele>
        <time>2019-01-17T09:01:17Z</time>
      </trkpt>
      <trkpt lat="41.759649" lon="2.530317">
        <ele>320.777</ele>
        <time>2019-01-17T09:01:28Z</time>
      </trkpt>
      <trkpt lat="41.759773" lon="2.530346">
        <ele>321.284</ele>
        <time>2019-01-17T09:01:38Z</time>
      </trkpt>
      <trkpt lat="41.759878" lon="2.530370">
        <ele>322.634</ele>
        <time>2019-01-17T09:01:47Z</time>
      </trkpt>
      <trkpt lat="41.759960" lon="2.530285">
        <ele>322.610</ele>
        <time>2019-01-17T09:01:56Z</time>
      </trkpt>
      <trkpt lat="41.760007" lon="2.530162">
        <ele>322.655</ele>
        <time>2019-01-17T09:02:07Z</time>
      </trkpt>
      <trkpt lat="41.760038" lon="2.530051">
        <ele>323.607</ele>
        <time>2019-01-17T09:02:18Z</time>
      </trkpt>
      <trkpt lat="41.760094" lon="2.529901">
        <ele>324.117</ele>
        <time>2019-01-17T09:02:30Z</time>
      </trkpt>
      <trkpt lat="41.760164" lon="2.529771">
        <ele>323.108</ele>
        <time>2019-01-17T09:02:50Z</time>
      </trkpt>
      <trkpt lat="41.760231" lon="2.529646">
        <ele>319.738</ele>
        <time>2019-01-17T09:03:02Z</time>
      </trkpt>
      <trkpt lat="41.760224" lon="2.529573">
        <ele>318.327</ele>
        <time>2019-01-17T09:03:14Z</time>
      </trkpt>
      <trkpt lat="41.760418" lon="2.529500">
        <ele>321.219</ele>
        <time>2019-01-17T09:03:25Z</time>
      </trkpt>
      <trkpt lat="41.760510" lon="2.529434">
        <ele>320.776</ele>
        <time>2019-01-17T09:03:35Z</time>
      </trkpt>
      <trkpt lat="41.760572" lon="2.529304">
        <ele>320.737</ele>
        <time>2019-01-17T09:03:59Z</time>
      </trkpt>
      <trkpt lat="41.760604" lon="2.529162">
        <ele>321.234</ele>
        <time>2019-01-17T09:04:11Z</time>
      </trkpt>
      <trkpt lat="41.760648" lon="2.529015">
        <ele>322.194</ele>
        <time>2019-01-17T09:04:21Z</time>
      </trkpt>
      <trkpt lat="41.760706" lon="2.528936">
        <ele>324.510</ele>
        <time>2019-01-17T09:04:33Z</time>
      </trkpt>
      <trkpt lat="41.760826" lon="2.528911">
        <ele>325.032</ele>
        <time>2019-01-17T09:04:42Z</time>
      </trkpt>
      <trkpt lat="41.760945" lon="2.528909">
        <ele>326.592</ele>
        <time>2019-01-17T09:04:51Z</time>
      </trkpt>
      <trkpt lat="41.761041" lon="2.528907">
        <ele>326.911</ele>
        <time>2019-01-17T09:05:01Z</time>
      </trkpt>
      <trkpt lat="41.761136" lon="2.528853">
        <ele>328.408</ele>
        <time>2019-01-17T09:05:10Z</time>
      </trkpt>
      <trkpt lat="41.761227" lon="2.528814">
        <ele>329.356</ele>
        <time>2019-01-17T09:05:20Z</time>
      </trkpt>
      <trkpt lat="41.761351" lon="2.528803">
        <ele>330.385</ele>
        <time>2019-01-17T09:05:30Z</time>
      </trkpt>
      <trkpt lat="41.761433" lon="2.528756">
        <ele>332.257</ele>
        <time>2019-01-17T09:05:40Z</time>
      </trkpt>
      <trkpt lat="41.761550" lon="2.528694">
        <ele>333.784</ele>
        <time>2019-01-17T09:05:53Z</time>
      </trkpt>
      <trkpt lat="41.761656" lon="2.528646">
        <ele>335.655</ele>
        <time>2019-01-17T09:06:03Z</time>
      </trkpt>
      <trkpt lat="41.761776" lon="2.528615">
        <ele>335.682</ele>
        <time>2019-01-17T09:06:14Z</time>
      </trkpt>
      <trkpt lat="41.761897" lon="2.528595">
        <ele>337.572</ele>
        <time>2019-01-17T09:06:25Z</time>
      </trkpt>
      <trkpt lat="41.761997" lon="2.528575">
        <ele>338.588</ele>
        <time>2019-01-17T09:06:36Z</time>
      </trkpt>
      <trkpt lat="41.762073" lon="2.528530">
        <ele>338.515</ele>
        <time>2019-01-17T09:06:46Z</time>
      </trkpt>
      <trkpt lat="41.762132" lon="2.528420">
        <ele>338.565</ele>
        <time>2019-01-17T09:06:56Z</time>
      </trkpt>
      <trkpt lat="41.762154" lon="2.528296">
        <ele>338.511</ele>
        <time>2019-01-17T09:07:05Z</time>
      </trkpt>
      <trkpt lat="41.762188" lon="2.528159">
        <ele>338.508</ele>
        <time>2019-01-17T09:07:13Z</time>
      </trkpt>
      <trkpt lat="41.762204" lon="2.528030">
        <ele>339.094</ele>
        <time>2019-01-17T09:07:21Z</time>
      </trkpt>
      <trkpt lat="41.762191" lon="2.527889">
        <ele>340.953</ele>
        <time>2019-01-17T09:07:31Z</time>
      </trkpt>
      <trkpt lat="41.762190" lon="2.527730">
        <ele>342.315</ele>
        <time>2019-01-17T09:07:42Z</time>
      </trkpt>
      <trkpt lat="41.762172" lon="2.527577">
        <ele>344.262</ele>
        <time>2019-01-17T09:07:54Z</time>
      </trkpt>
      <trkpt lat="41.762200" lon="2.527477">
        <ele>346.623</ele>
        <time>2019-01-17T09:08:06Z</time>
      </trkpt>
      <trkpt lat="41.762267" lon="2.527442">
        <ele>348.140</ele>
        <time>2019-01-17T09:08:18Z</time>
      </trkpt>
      <trkpt lat="41.762446" lon="2.527453">
        <ele>351.090</ele>
        <time>2019-01-17T09:08:30Z</time>
      </trkpt>
      <trkpt lat="41.762602" lon="2.527434">
        <ele>352.446</ele>
        <time>2019-01-17T09:08:41Z</time>
      </trkpt>
      <trkpt lat="41.762710" lon="2.527414">
        <ele>354.342</ele>
        <time>2019-01-17T09:08:54Z</time>
      </trkpt>
      <trkpt lat="41.762792" lon="2.527387">
        <ele>356.322</ele>
        <time>2019-01-17T09:09:26Z</time>
      </trkpt>
      <trkpt lat="41.762867" lon="2.527349">
        <ele>356.714</ele>
        <time>2019-01-17T09:09:37Z</time>
      </trkpt>
      <trkpt lat="41.762899" lon="2.527263">
        <ele>359.108</ele>
        <time>2019-01-17T09:09:48Z</time>
      </trkpt>
      <trkpt lat="41.762896" lon="2.527108">
        <ele>361.197</ele>
        <time>2019-01-17T09:09:59Z</time>
      </trkpt>
      <trkpt lat="41.762923" lon="2.526999">
        <ele>363.536</ele>
        <time>2019-01-17T09:10:10Z</time>
      </trkpt>
      <trkpt lat="41.762982" lon="2.526891">
        <ele>366.468</ele>
        <time>2019-01-17T09:10:22Z</time>
      </trkpt>
      <trkpt lat="41.763088" lon="2.526747">
        <ele>367.355</ele>
        <time>2019-01-17T09:10:36Z</time>
      </trkpt>
      <trkpt lat="41.763155" lon="2.526650">
        <ele>369.736</ele>
        <time>2019-01-17T09:10:48Z</time>
      </trkpt>
      <trkpt lat="41.763210" lon="2.526568">
        <ele>371.273</ele>
        <time>2019-01-17T09:10:58Z</time>
      </trkpt>
      <trkpt lat="41.763297" lon="2.526440">
        <ele>371.643</ele>
        <time>2019-01-17T09:11:07Z</time>
      </trkpt>
      <trkpt lat="41.763367" lon="2.526342">
        <ele>373.629</ele>
        <time>2019-01-17T09:11:17Z</time>
      </trkpt>
      <trkpt lat="41.763447" lon="2.526227">
        <ele>374.555</ele>
        <time>2019-01-17T09:11:27Z</time>
      </trkpt>
      <trkpt lat="41.763516" lon="2.526121">
        <ele>376.907</ele>
        <time>2019-01-17T09:11:39Z</time>
      </trkpt>
      <trkpt lat="41.763573" lon="2.526015">
        <ele>377.917</ele>
        <time>2019-01-17T09:11:49Z</time>
      </trkpt>
      <trkpt lat="41.763616" lon="2.525911">
        <ele>379.308</ele>
        <time>2019-01-17T09:12:00Z</time>
      </trkpt>
      <trkpt lat="41.763665" lon="2.525796">
        <ele>380.818</ele>
        <time>2019-01-17T09:12:11Z</time>
      </trkpt>
      <trkpt lat="41.763737" lon="2.525581">
        <ele>380.867</ele>
        <time>2019-01-17T09:12:21Z</time>
      </trkpt>
      <trkpt lat="41.763780" lon="2.525523">
        <ele>380.329</ele>
        <time>2019-01-17T09:13:05Z</time>
      </trkpt>
      <trkpt lat="41.763850" lon="2.525422">
        <ele>378.996</ele>
        <time>2019-01-17T09:13:16Z</time>
      </trkpt>
      <trkpt lat="41.763949" lon="2.525307">
        <ele>378.997</ele>
        <time>2019-01-17T09:13:25Z</time>
      </trkpt>
      <trkpt lat="41.764033" lon="2.525231">
        <ele>379.334</ele>
        <time>2019-01-17T09:13:36Z</time>
      </trkpt>
      <trkpt lat="41.764146" lon="2.525194">
        <ele>380.354</ele>
        <time>2019-01-17T09:13:46Z</time>
      </trkpt>
      <trkpt lat="41.764310" lon="2.525200">
        <ele>378.420</ele>
        <time>2019-01-17T09:13:56Z</time>
      </trkpt>
      <trkpt lat="41.764403" lon="2.525234">
        <ele>377.984</ele>
        <time>2019-01-17T09:14:04Z</time>
      </trkpt>
      <trkpt lat="41.764529" lon="2.525284">
        <ele>377.407</ele>
        <time>2019-01-17T09:14:14Z</time>
      </trkpt>
      <trkpt lat="41.764623" lon="2.525318">
        <ele>376.917</ele>
        <time>2019-01-17T09:14:22Z</time>
      </trkpt>
      <trkpt lat="41.764711" lon="2.525346">
        <ele>377.408</ele>
        <time>2019-01-17T09:14:31Z</time>
      </trkpt>
      <trkpt lat="41.764829" lon="2.525388">
        <ele>377.491</ele>
        <time>2019-01-17T09:14:41Z</time>
      </trkpt>
      <trkpt lat="41.764942" lon="2.525421">
        <ele>376.920</ele>
        <time>2019-01-17T09:14:51Z</time>
      </trkpt>
      <trkpt lat="41.765030" lon="2.525459">
        <ele>376.422</ele>
        <time>2019-01-17T09:15:01Z</time>
      </trkpt>
      <trkpt lat="41.765142" lon="2.525477">
        <ele>376.049</ele>
        <time>2019-01-17T09:15:09Z</time>
      </trkpt>
      <trkpt lat="41.765223" lon="2.525479">
        <ele>374.510</ele>
        <time>2019-01-17T09:15:19Z</time>
      </trkpt>
      <trkpt lat="41.765342" lon="2.525418">
        <ele>373.667</ele>
        <time>2019-01-17T09:15:29Z</time>
      </trkpt>
      <trkpt lat="41.765459" lon="2.525319">
        <ele>373.647</ele>
        <time>2019-01-17T09:15:40Z</time>
      </trkpt>
      <trkpt lat="41.765540" lon="2.525207">
        <ele>372.613</ele>
        <time>2019-01-17T09:15:50Z</time>
      </trkpt>
      <trkpt lat="41.765611" lon="2.525136">
        <ele>370.779</ele>
        <time>2019-01-17T09:16:03Z</time>
      </trkpt>
      <trkpt lat="41.765785" lon="2.525068">
        <ele>368.805</ele>
        <time>2019-01-17T09:16:16Z</time>
      </trkpt>
      <trkpt lat="41.765859" lon="2.524968">
        <ele>367.325</ele>
        <time>2019-01-17T09:16:26Z</time>
      </trkpt>
      <trkpt lat="41.765889" lon="2.524835">
        <ele>366.408</ele>
        <time>2019-01-17T09:16:35Z</time>
      </trkpt>
      <trkpt lat="41.765947" lon="2.524649">
        <ele>366.820</ele>
        <time>2019-01-17T09:16:44Z</time>
      </trkpt>
      <trkpt lat="41.766004" lon="2.524475">
        <ele>367.329</ele>
        <time>2019-01-17T09:16:54Z</time>
      </trkpt>
      <trkpt lat="41.766040" lon="2.524357">
        <ele>366.461</ele>
        <time>2019-01-17T09:17:04Z</time>
      </trkpt>
      <trkpt lat="41.766087" lon="2.524218">
        <ele>367.878</ele>
        <time>2019-01-17T09:17:14Z</time>
      </trkpt>
      <trkpt lat="41.766132" lon="2.524090">
        <ele>367.869</ele>
        <time>2019-01-17T09:17:23Z</time>
      </trkpt>
      <trkpt lat="41.766187" lon="2.523939">
        <ele>367.366</ele>
        <time>2019-01-17T09:17:32Z</time>
      </trkpt>
      <trkpt lat="41.766209" lon="2.523764">
        <ele>366.846</ele>
        <time>2019-01-17T09:17:42Z</time>
      </trkpt>
      <trkpt lat="41.766300" lon="2.523663">
        <ele>366.472</ele>
        <time>2019-01-17T09:17:50Z</time>
      </trkpt>
      <trkpt lat="41.766378" lon="2.523548">
        <ele>366.828</ele>
        <time>2019-01-17T09:18:00Z</time>
      </trkpt>
      <trkpt lat="41.766389" lon="2.523424">
        <ele>367.889</ele>
        <time>2019-01-17T09:18:10Z</time>
      </trkpt>
      <trkpt lat="41.766396" lon="2.523267">
        <ele>369.717</ele>
        <time>2019-01-17T09:18:20Z</time>
      </trkpt>
      <trkpt lat="41.766407" lon="2.523145">
        <ele>370.208</ele>
        <time>2019-01-17T09:18:29Z</time>
      </trkpt>
      <trkpt lat="41.766426" lon="2.523010">
        <ele>372.165</ele>
        <time>2019-01-17T09:18:42Z</time>
      </trkpt>
      <trkpt lat="41.766437" lon="2.522868">
        <ele>373.654</ele>
        <time>2019-01-17T09:18:54Z</time>
      </trkpt>
      <trkpt lat="41.766437" lon="2.522687">
        <ele>375.066</ele>
        <time>2019-01-17T09:19:04Z</time>
      </trkpt>
      <trkpt lat="41.766432" lon="2.522534">
        <ele>376.013</ele>
        <time>2019-01-17T09:19:15Z</time>
      </trkpt>
      <trkpt lat="41.766430" lon="2.522390">
        <ele>377.964</ele>
        <time>2019-01-17T09:19:26Z</time>
      </trkpt>
      <trkpt lat="41.766430" lon="2.522226">
        <ele>378.981</ele>
        <time>2019-01-17T09:19:36Z</time>
      </trkpt>
      <trkpt lat="41.766414" lon="2.522089">
        <ele>380.361</ele>
        <time>2019-01-17T09:19:48Z</time>
      </trkpt>
      <trkpt lat="41.766353" lon="2.521921">
        <ele>383.247</ele>
        <time>2019-01-17T09:20:00Z</time>
      </trkpt>
      <trkpt lat="41.766290" lon="2.521795">
        <ele>384.155</ele>
        <time>2019-01-17T09:20:11Z</time>
      </trkpt>
      <trkpt lat="41.766220" lon="2.521664">
        <ele>385.107</ele>
        <time>2019-01-17T09:20:21Z</time>
      </trkpt>
      <trkpt lat="41.766155" lon="2.521536">
        <ele>387.017</ele>
        <time>2019-01-17T09:20:32Z</time>
      </trkpt>
      <trkpt lat="41.766081" lon="2.521392">
        <ele>388.008</ele>
        <time>2019-01-17T09:20:45Z</time>
      </trkpt>
      <trkpt lat="41.766008" lon="2.521259">
        <ele>390.948</ele>
        <time>2019-01-17T09:20:59Z</time>
      </trkpt>
      <trkpt lat="41.765922" lon="2.521116">
        <ele>393.847</ele>
        <time>2019-01-17T09:21:12Z</time>
      </trkpt>
      <trkpt lat="41.765892" lon="2.520975">
        <ele>394.739</ele>
        <time>2019-01-17T09:21:24Z</time>
      </trkpt>
      <trkpt lat="41.765874" lon="2.520863">
        <ele>396.256</ele>
        <time>2019-01-17T09:21:33Z</time>
      </trkpt>
      <trkpt lat="41.765876" lon="2.520704">
        <ele>396.227</ele>
        <time>2019-01-17T09:21:42Z</time>
      </trkpt>
      <trkpt lat="41.765861" lon="2.520565">
        <ele>396.284</ele>
        <time>2019-01-17T09:21:53Z</time>
      </trkpt>
      <trkpt lat="41.765847" lon="2.520425">
        <ele>395.744</ele>
        <time>2019-01-17T09:22:07Z</time>
      </trkpt>
      <trkpt lat="41.765820" lon="2.520277">
        <ele>395.290</ele>
        <time>2019-01-17T09:22:23Z</time>
      </trkpt>
      <trkpt lat="41.765779" lon="2.520109">
        <ele>393.886</ele>
        <time>2019-01-17T09:22:54Z</time>
      </trkpt>
      <trkpt lat="41.765727" lon="2.519983">
        <ele>392.360</ele>
        <time>2019-01-17T09:23:07Z</time>
      </trkpt>
      <trkpt lat="41.765667" lon="2.519857">
        <ele>390.426</ele>
        <time>2019-01-17T09:23:21Z</time>
      </trkpt>
      <trkpt lat="41.765710" lon="2.519673">
        <ele>389.408</ele>
        <time>2019-01-17T09:23:36Z</time>
      </trkpt>
      <trkpt lat="41.765757" lon="2.519642">
        <ele>388.521</ele>
        <time>2019-01-17T09:23:53Z</time>
      </trkpt>
      <trkpt lat="41.765903" lon="2.519704">
        <ele>387.590</ele>
        <time>2019-01-17T09:24:06Z</time>
      </trkpt>
      <trkpt lat="41.766075" lon="2.519773">
        <ele>386.192</ele>
        <time>2019-01-17T09:24:19Z</time>
      </trkpt>
      <trkpt lat="41.766167" lon="2.519753">
        <ele>384.629</ele>
        <time>2019-01-17T09:24:31Z</time>
      </trkpt>
      <trkpt lat="41.766276" lon="2.519688">
        <ele>384.690</ele>
        <time>2019-01-17T09:24:43Z</time>
      </trkpt>
      <trkpt lat="41.766352" lon="2.519589">
        <ele>385.177</ele>
        <time>2019-01-17T09:24:55Z</time>
      </trkpt>
      <trkpt lat="41.766391" lon="2.519478">
        <ele>383.237</ele>
        <time>2019-01-17T09:25:04Z</time>
      </trkpt>
      <trkpt lat="41.766435" lon="2.519383">
        <ele>384.143</ele>
        <time>2019-01-17T09:25:15Z</time>
      </trkpt>
      <trkpt lat="41.766496" lon="2.519339">
        <ele>384.172</ele>
        <time>2019-01-17T09:25:26Z</time>
      </trkpt>
      <trkpt lat="41.766596" lon="2.519398">
        <ele>383.713</ele>
        <time>2019-01-17T09:25:36Z</time>
      </trkpt>
      <trkpt lat="41.766745" lon="2.519489">
        <ele>382.714</ele>
        <time>2019-01-17T09:25:46Z</time>
      </trkpt>
      <trkpt lat="41.766864" lon="2.519549">
        <ele>382.708</ele>
        <time>2019-01-17T09:25:56Z</time>
      </trkpt>
      <trkpt lat="41.766959" lon="2.519547">
        <ele>381.310</ele>
        <time>2019-01-17T09:26:05Z</time>
      </trkpt>
      <trkpt lat="41.767013" lon="2.519498">
        <ele>380.879</ele>
        <time>2019-01-17T09:26:15Z</time>
      </trkpt>
      <trkpt lat="41.767070" lon="2.519413">
        <ele>380.321</ele>
        <time>2019-01-17T09:26:24Z</time>
      </trkpt>
      <trkpt lat="41.767117" lon="2.519290">
        <ele>379.888</ele>
        <time>2019-01-17T09:26:32Z</time>
      </trkpt>
      <trkpt lat="41.767153" lon="2.519168">
        <ele>380.339</ele>
        <time>2019-01-17T09:26:41Z</time>
      </trkpt>
      <trkpt lat="41.767185" lon="2.519018">
        <ele>379.356</ele>
        <time>2019-01-17T09:26:50Z</time>
      </trkpt>
      <trkpt lat="41.767225" lon="2.518856">
        <ele>378.416</ele>
        <time>2019-01-17T09:27:00Z</time>
      </trkpt>
      <trkpt lat="41.767257" lon="2.518679">
        <ele>378.462</ele>
        <time>2019-01-17T09:27:09Z</time>
      </trkpt>
      <trkpt lat="41.767273" lon="2.518493">
        <ele>377.939</ele>
        <time>2019-01-17T09:27:18Z</time>
      </trkpt>
      <trkpt lat="41.767243" lon="2.518365">
        <ele>376.901</ele>
        <time>2019-01-17T09:27:28Z</time>
      </trkpt>
      <trkpt lat="41.767198" lon="2.518204">
        <ele>376.921</ele>
        <time>2019-01-17T09:27:38Z</time>
      </trkpt>
      <trkpt lat="41.767173" lon="2.518108">
        <ele>376.008</ele>
        <time>2019-01-17T09:27:48Z</time>
      </trkpt>
      <trkpt lat="41.767279" lon="2.517978">
        <ele>376.096</ele>
        <time>2019-01-17T09:28:05Z</time>
      </trkpt>
      <trkpt lat="41.767390" lon="2.517807">
        <ele>376.045</ele>
        <time>2019-01-17T09:28:17Z</time>
      </trkpt>
      <trkpt lat="41.767530" lon="2.517628">
        <ele>375.027</ele>
        <time>2019-01-17T09:28:30Z</time>
      </trkpt>
      <trkpt lat="41.767540" lon="2.517513">
        <ele>374.574</ele>
        <time>2019-01-17T09:28:41Z</time>
      </trkpt>
      <trkpt lat="41.767520" lon="2.517356">
        <ele>375.575</ele>
        <time>2019-01-17T09:28:51Z</time>
      </trkpt>
      <trkpt lat="41.767532" lon="2.517152">
        <ele>374.572</ele>
        <time>2019-01-17T09:29:05Z</time>
      </trkpt>
      <trkpt lat="41.767571" lon="2.517059">
        <ele>376.412</ele>
        <time>2019-01-17T09:29:17Z</time>
      </trkpt>
      <trkpt lat="41.767652" lon="2.517002">
        <ele>376.448</ele>
        <time>2019-01-17T09:29:28Z</time>
      </trkpt>
      <trkpt lat="41.767800" lon="2.517115">
        <ele>376.484</ele>
        <time>2019-01-17T09:29:38Z</time>
      </trkpt>
      <trkpt lat="41.767864" lon="2.517128">
        <ele>376.407</ele>
        <time>2019-01-17T09:29:46Z</time>
      </trkpt>
      <trkpt lat="41.768001" lon="2.517053">
        <ele>376.417</ele>
        <time>2019-01-17T09:29:54Z</time>
      </trkpt>
      <trkpt lat="41.768091" lon="2.516889">
        <ele>376.908</ele>
        <time>2019-01-17T09:30:04Z</time>
      </trkpt>
      <trkpt lat="41.768168" lon="2.516730">
        <ele>376.471</ele>
        <time>2019-01-17T09:30:12Z</time>
      </trkpt>
      <trkpt lat="41.768229" lon="2.516686">
        <ele>376.960</ele>
        <time>2019-01-17T09:30:21Z</time>
      </trkpt>
      <trkpt lat="41.768258" lon="2.516544">
        <ele>377.972</ele>
        <time>2019-01-17T09:30:31Z</time>
      </trkpt>
      <trkpt lat="41.768277" lon="2.516418">
        <ele>378.489</ele>
        <time>2019-01-17T09:30:42Z</time>
      </trkpt>
      <trkpt lat="41.768286" lon="2.516261">
        <ele>379.840</ele>
        <time>2019-01-17T09:30:51Z</time>
      </trkpt>
      <trkpt lat="41.768304" lon="2.516110">
        <ele>382.267</ele>
        <time>2019-01-17T09:31:05Z</time>
      </trkpt>
      <trkpt lat="41.768371" lon="2.515938">
        <ele>384.677</ele>
        <time>2019-01-17T09:31:19Z</time>
      </trkpt>
      <trkpt lat="41.768394" lon="2.515818">
        <ele>387.033</ele>
        <time>2019-01-17T09:31:33Z</time>
      </trkpt>
      <trkpt lat="41.768329" lon="2.515686">
        <ele>388.952</ele>
        <time>2019-01-17T09:31:44Z</time>
      </trkpt>
      <trkpt lat="41.768337" lon="2.515537">
        <ele>389.953</ele>
        <time>2019-01-17T09:31:54Z</time>
      </trkpt>
      <trkpt lat="41.768338" lon="2.515393">
        <ele>392.808</ele>
        <time>2019-01-17T09:32:07Z</time>
      </trkpt>
      <trkpt lat="41.768316" lon="2.515258">
        <ele>395.208</ele>
        <time>2019-01-17T09:32:19Z</time>
      </trkpt>
      <trkpt lat="41.768249" lon="2.515163">
        <ele>396.658</ele>
        <time>2019-01-17T09:32:29Z</time>
      </trkpt>
      <trkpt lat="41.768184" lon="2.515121">
        <ele>398.647</ele>
        <time>2019-01-17T09:32:41Z</time>
      </trkpt>
      <trkpt lat="41.768051" lon="2.515092">
        <ele>401.089</ele>
        <time>2019-01-17T09:32:59Z</time>
      </trkpt>
      <trkpt lat="41.767927" lon="2.515068">
        <ele>401.936</ele>
        <time>2019-01-17T09:33:10Z</time>
      </trkpt>
      <trkpt lat="41.767825" lon="2.515037">
        <ele>402.427</ele>
        <time>2019-01-17T09:33:19Z</time>
      </trkpt>
      <trkpt lat="41.767728" lon="2.514995">
        <ele>403.454</ele>
        <time>2019-01-17T09:33:28Z</time>
      </trkpt>
      <trkpt lat="41.767656" lon="2.514930">
        <ele>403.854</ele>
        <time>2019-01-17T09:33:37Z</time>
      </trkpt>
      <trkpt lat="41.767589" lon="2.514882">
        <ele>404.330</ele>
        <time>2019-01-17T09:33:45Z</time>
      </trkpt>
      <trkpt lat="41.767478" lon="2.514736">
        <ele>406.234</ele>
        <time>2019-01-17T09:33:55Z</time>
      </trkpt>
      <trkpt lat="41.767415" lon="2.514661">
        <ele>407.255</ele>
        <time>2019-01-17T09:34:05Z</time>
      </trkpt>
      <trkpt lat="41.767331" lon="2.514506">
        <ele>407.210</ele>
        <time>2019-01-17T09:34:15Z</time>
      </trkpt>
      <trkpt lat="41.767307" lon="2.514431">
        <ele>407.208</ele>
        <time>2019-01-17T09:34:22Z</time>
      </trkpt>
      <trkpt lat="41.767311" lon="2.514259">
        <ele>407.216</ele>
        <time>2019-01-17T09:34:31Z</time>
      </trkpt>
      <trkpt lat="41.767304" lon="2.514159">
        <ele>408.235</ele>
        <time>2019-01-17T09:34:41Z</time>
      </trkpt>
      <trkpt lat="41.767268" lon="2.514101">
        <ele>410.647</ele>
        <time>2019-01-17T09:34:52Z</time>
      </trkpt>
      <trkpt lat="41.767111" lon="2.514059">
        <ele>411.564</ele>
        <time>2019-01-17T09:35:03Z</time>
      </trkpt>
      <trkpt lat="41.766954" lon="2.514041">
        <ele>412.585</ele>
        <time>2019-01-17T09:35:18Z</time>
      </trkpt>
      <trkpt lat="41.766873" lon="2.514113">
        <ele>414.492</ele>
        <time>2019-01-17T09:35:31Z</time>
      </trkpt>
      <trkpt lat="41.766744" lon="2.514155">
        <ele>415.442</ele>
        <time>2019-01-17T09:35:40Z</time>
      </trkpt>
      <trkpt lat="41.766669" lon="2.514168">
        <ele>416.338</ele>
        <time>2019-01-17T09:35:49Z</time>
      </trkpt>
      <trkpt lat="41.766594" lon="2.514119">
        <ele>416.827</ele>
        <time>2019-01-17T09:35:57Z</time>
      </trkpt>
      <trkpt lat="41.766535" lon="2.513986">
        <ele>417.868</ele>
        <time>2019-01-17T09:36:06Z</time>
      </trkpt>
      <trkpt lat="41.766456" lon="2.513791">
        <ele>417.314</ele>
        <time>2019-01-17T09:36:14Z</time>
      </trkpt>
      <trkpt lat="41.766407" lon="2.513678">
        <ele>417.308</ele>
        <time>2019-01-17T09:36:23Z</time>
      </trkpt>
      <trkpt lat="41.766307" lon="2.513568">
        <ele>417.815</ele>
        <time>2019-01-17T09:36:32Z</time>
      </trkpt>
      <trkpt lat="41.766195" lon="2.513444">
        <ele>419.744</ele>
        <time>2019-01-17T09:36:45Z</time>
      </trkpt>
      <trkpt lat="41.766106" lon="2.513386">
        <ele>420.266</ele>
        <time>2019-01-17T09:36:57Z</time>
      </trkpt>
      <trkpt lat="41.766014" lon="2.513295">
        <ele>422.163</ele>
        <time>2019-01-17T09:37:08Z</time>
      </trkpt>
      <trkpt lat="41.765936" lon="2.513190">
        <ele>422.614</ele>
        <time>2019-01-17T09:37:16Z</time>
      </trkpt>
      <trkpt lat="41.765890" lon="2.513037">
        <ele>424.051</ele>
        <time>2019-01-17T09:37:27Z</time>
      </trkpt>
      <trkpt lat="41.765859" lon="2.512915">
        <ele>424.561</ele>
        <time>2019-01-17T09:37:36Z</time>
      </trkpt>
      <trkpt lat="41.765798" lon="2.512801">
        <ele>425.057</ele>
        <time>2019-01-17T09:37:44Z</time>
      </trkpt>
      <trkpt lat="41.765736" lon="2.512677">
        <ele>425.581</ele>
        <time>2019-01-17T09:37:55Z</time>
      </trkpt>
      <trkpt lat="41.765662" lon="2.512584">
        <ele>427.961</ele>
        <time>2019-01-17T09:38:06Z</time>
      </trkpt>
      <trkpt lat="41.765593" lon="2.512436">
        <ele>427.917</ele>
        <time>2019-01-17T09:38:40Z</time>
      </trkpt>
      <trkpt lat="41.765651" lon="2.512448">
        <ele>429.308</ele>
        <time>2019-01-17T09:39:19Z</time>
      </trkpt>
      <trkpt lat="41.765733" lon="2.512488">
        <ele>430.831</ele>
        <time>2019-01-17T09:39:30Z</time>
      </trkpt>
      <trkpt lat="41.765811" lon="2.512548">
        <ele>432.290</ele>
        <time>2019-01-17T09:39:40Z</time>
      </trkpt>
      <trkpt lat="41.765904" lon="2.512605">
        <ele>433.282</ele>
        <time>2019-01-17T09:39:50Z</time>
      </trkpt>
      <trkpt lat="41.766023" lon="2.512694">
        <ele>433.639</ele>
        <time>2019-01-17T09:40:00Z</time>
      </trkpt>
      <trkpt lat="41.766139" lon="2.512789">
        <ele>436.510</ele>
        <time>2019-01-17T09:40:11Z</time>
      </trkpt>
      <trkpt lat="41.766193" lon="2.512829">
        <ele>437.597</ele>
        <time>2019-01-17T09:40:22Z</time>
      </trkpt>
      <trkpt lat="41.766281" lon="2.512906">
        <ele>438.547</ele>
        <time>2019-01-17T09:40:32Z</time>
      </trkpt>
      <trkpt lat="41.766393" lon="2.512993">
        <ele>440.493</ele>
        <time>2019-01-17T09:40:42Z</time>
      </trkpt>
      <trkpt lat="41.766486" lon="2.513015">
        <ele>441.897</ele>
        <time>2019-01-17T09:40:51Z</time>
      </trkpt>
      <trkpt lat="41.766570" lon="2.513010">
        <ele>443.323</ele>
        <time>2019-01-17T09:41:01Z</time>
      </trkpt>
      <trkpt lat="41.766666" lon="2.512928">
        <ele>444.225</ele>
        <time>2019-01-17T09:41:13Z</time>
      </trkpt>
      <trkpt lat="41.766740" lon="2.512838">
        <ele>445.708</ele>
        <time>2019-01-17T09:41:23Z</time>
      </trkpt>
      <trkpt lat="41.766795" lon="2.512758">
        <ele>445.792</ele>
        <time>2019-01-17T09:41:33Z</time>
      </trkpt>
      <trkpt lat="41.766908" lon="2.512720">
        <ele>446.181</ele>
        <time>2019-01-17T09:41:45Z</time>
      </trkpt>
      <trkpt lat="41.767074" lon="2.512663">
        <ele>446.653</ele>
        <time>2019-01-17T09:41:52Z</time>
      </trkpt>
      <trkpt lat="41.767174" lon="2.512585">
        <ele>447.130</ele>
        <time>2019-01-17T09:42:03Z</time>
      </trkpt>
      <trkpt lat="41.767262" lon="2.512479">
        <ele>447.151</ele>
        <time>2019-01-17T09:42:14Z</time>
      </trkpt>
      <trkpt lat="41.767375" lon="2.512331">
        <ele>447.638</ele>
        <time>2019-01-17T09:42:26Z</time>
      </trkpt>
      <trkpt lat="41.767445" lon="2.512237">
        <ele>447.658</ele>
        <time>2019-01-17T09:42:36Z</time>
      </trkpt>
      <trkpt lat="41.767442" lon="2.512106">
        <ele>450.514</ele>
        <time>2019-01-17T09:42:48Z</time>
      </trkpt>
      <trkpt lat="41.767436" lon="2.511968">
        <ele>452.919</ele>
        <time>2019-01-17T09:43:02Z</time>
      </trkpt>
      <trkpt lat="41.767409" lon="2.511828">
        <ele>454.809</ele>
        <time>2019-01-17T09:43:14Z</time>
      </trkpt>
      <trkpt lat="41.767379" lon="2.511718">
        <ele>456.719</ele>
        <time>2019-01-17T09:43:26Z</time>
      </trkpt>
      <trkpt lat="41.767339" lon="2.511576">
        <ele>458.208</ele>
        <time>2019-01-17T09:43:37Z</time>
      </trkpt>
      <trkpt lat="41.767311" lon="2.511406">
        <ele>459.194</ele>
        <time>2019-01-17T09:43:46Z</time>
      </trkpt>
      <trkpt lat="41.767298" lon="2.511247">
        <ele>460.123</ele>
        <time>2019-01-17T09:43:56Z</time>
      </trkpt>
      <trkpt lat="41.767311" lon="2.511125">
        <ele>461.085</ele>
        <time>2019-01-17T09:44:06Z</time>
      </trkpt>
      <trkpt lat="41.767379" lon="2.511012">
        <ele>464.932</ele>
        <time>2019-01-17T09:44:20Z</time>
      </trkpt>
      <trkpt lat="41.767487" lon="2.510985">
        <ele>468.383</ele>
        <time>2019-01-17T09:44:38Z</time>
      </trkpt>
      <trkpt lat="41.767615" lon="2.511015">
        <ele>469.770</ele>
        <time>2019-01-17T09:44:51Z</time>
      </trkpt>
      <trkpt lat="41.767701" lon="2.511008">
        <ele>473.180</ele>
        <time>2019-01-17T09:45:05Z</time>
      </trkpt>
      <trkpt lat="41.767789" lon="2.510892">
        <ele>475.946</ele>
        <time>2019-01-17T09:45:22Z</time>
      </trkpt>
      <trkpt lat="41.767871" lon="2.510751">
        <ele>477.997</ele>
        <time>2019-01-17T09:45:36Z</time>
      </trkpt>
      <trkpt lat="41.767988" lon="2.510583">
        <ele>478.823</ele>
        <time>2019-01-17T09:45:47Z</time>
      </trkpt>
      <trkpt lat="41.768092" lon="2.510556">
        <ele>478.325</ele>
        <time>2019-01-17T09:45:58Z</time>
      </trkpt>
      <trkpt lat="41.768175" lon="2.510576">
        <ele>477.408</ele>
        <time>2019-01-17T09:46:06Z</time>
      </trkpt>
      <trkpt lat="41.768252" lon="2.510656">
        <ele>478.882</ele>
        <time>2019-01-17T09:46:17Z</time>
      </trkpt>
      <trkpt lat="41.768302" lon="2.510784">
        <ele>480.391</ele>
        <time>2019-01-17T09:46:28Z</time>
      </trkpt>
      <trkpt lat="41.768351" lon="2.510899">
        <ele>480.893</ele>
        <time>2019-01-17T09:46:40Z</time>
      </trkpt>
      <trkpt lat="41.768378" lon="2.510981">
        <ele>481.240</ele>
        <time>2019-01-17T09:46:52Z</time>
      </trkpt>
      <trkpt lat="41.768469" lon="2.511045">
        <ele>480.361</ele>
        <time>2019-01-17T09:47:08Z</time>
      </trkpt>
      <trkpt lat="41.768554" lon="2.511052">
        <ele>479.338</ele>
        <time>2019-01-17T09:47:39Z</time>
      </trkpt>
      <trkpt lat="41.768624" lon="2.511030">
        <ele>478.848</ele>
        <time>2019-01-17T09:47:57Z</time>
      </trkpt>
      <trkpt lat="41.768744" lon="2.510895">
        <ele>474.554</ele>
        <time>2019-01-17T09:48:14Z</time>
      </trkpt>
      <trkpt lat="41.768854" lon="2.510873">
        <ele>473.534</ele>
        <time>2019-01-17T09:48:27Z</time>
      </trkpt>
      <trkpt lat="41.768951" lon="2.510895">
        <ele>472.655</ele>
        <time>2019-01-17T09:48:39Z</time>
      </trkpt>
      <trkpt lat="41.769082" lon="2.511016">
        <ele>473.510</ele>
        <time>2019-01-17T09:48:53Z</time>
      </trkpt>
      <trkpt lat="41.769140" lon="2.511384">
        <ele>471.608</ele>
        <time>2019-01-17T09:49:02Z</time>
      </trkpt>
      <trkpt lat="41.769183" lon="2.511461">
        <ele>470.716</ele>
        <time>2019-01-17T09:49:10Z</time>
      </trkpt>
      <trkpt lat="41.769335" lon="2.511497">
        <ele>469.225</ele>
        <time>2019-01-17T09:49:21Z</time>
      </trkpt>
      <trkpt lat="41.769436" lon="2.511520">
        <ele>467.837</ele>
        <time>2019-01-17T09:49:31Z</time>
      </trkpt>
      <trkpt lat="41.769537" lon="2.511501">
        <ele>467.354</ele>
        <time>2019-01-17T09:49:39Z</time>
      </trkpt>
      <trkpt lat="41.769655" lon="2.511519">
        <ele>466.385</ele>
        <time>2019-01-17T09:49:47Z</time>
      </trkpt>
      <trkpt lat="41.769711" lon="2.511594">
        <ele>465.942</ele>
        <time>2019-01-17T09:49:56Z</time>
      </trkpt>
      <trkpt lat="41.769742" lon="2.511747">
        <ele>464.912</ele>
        <time>2019-01-17T09:50:04Z</time>
      </trkpt>
      <trkpt lat="41.769768" lon="2.511882">
        <ele>464.998</ele>
        <time>2019-01-17T09:50:14Z</time>
      </trkpt>
      <trkpt lat="41.769799" lon="2.512052">
        <ele>464.465</ele>
        <time>2019-01-17T09:50:24Z</time>
      </trkpt>
      <trkpt lat="41.769837" lon="2.512160">
        <ele>464.468</ele>
        <time>2019-01-17T09:50:31Z</time>
      </trkpt>
      <trkpt lat="41.769896" lon="2.512289">
        <ele>463.914</ele>
        <time>2019-01-17T09:50:41Z</time>
      </trkpt>
      <trkpt lat="41.769954" lon="2.512430">
        <ele>463.908</ele>
        <time>2019-01-17T09:50:48Z</time>
      </trkpt>
      <trkpt lat="41.770016" lon="2.512563">
        <ele>463.479</ele>
        <time>2019-01-17T09:50:58Z</time>
      </trkpt>
      <trkpt lat="41.770067" lon="2.512663">
        <ele>463.458</ele>
        <time>2019-01-17T09:51:05Z</time>
      </trkpt>
      <trkpt lat="41.770138" lon="2.512813">
        <ele>463.430</ele>
        <time>2019-01-17T09:51:15Z</time>
      </trkpt>
      <trkpt lat="41.770147" lon="2.512917">
        <ele>462.017</ele>
        <time>2019-01-17T09:51:24Z</time>
      </trkpt>
      <trkpt lat="41.770155" lon="2.513010">
        <ele>462.098</ele>
        <time>2019-01-17T09:51:33Z</time>
      </trkpt>
      <trkpt lat="41.770214" lon="2.513196">
        <ele>461.585</ele>
        <time>2019-01-17T09:51:41Z</time>
      </trkpt>
      <trkpt lat="41.770289" lon="2.513347">
        <ele>461.535</ele>
        <time>2019-01-17T09:51:49Z</time>
      </trkpt>
      <trkpt lat="41.770383" lon="2.513468">
        <ele>460.161</ele>
        <time>2019-01-17T09:51:58Z</time>
      </trkpt>
      <trkpt lat="41.770449" lon="2.513568">
        <ele>461.059</ele>
        <time>2019-01-17T09:52:06Z</time>
      </trkpt>
      <trkpt lat="41.770503" lon="2.513632">
        <ele>460.103</ele>
        <time>2019-01-17T09:52:15Z</time>
      </trkpt>
      <trkpt lat="41.770525" lon="2.513709">
        <ele>460.123</ele>
        <time>2019-01-17T09:52:23Z</time>
      </trkpt>
      <trkpt lat="41.770659" lon="2.513802">
        <ele>459.608</ele>
        <time>2019-01-17T09:53:05Z</time>
      </trkpt>
      <trkpt lat="41.770715" lon="2.513847">
        <ele>457.788</ele>
        <time>2019-01-17T09:53:27Z</time>
      </trkpt>
      <trkpt lat="41.770796" lon="2.513858">
        <ele>454.867</ele>
        <time>2019-01-17T09:54:33Z</time>
      </trkpt>
      <trkpt lat="41.770873" lon="2.513751">
        <ele>451.439</ele>
        <time>2019-01-17T09:54:52Z</time>
      </trkpt>
      <trkpt lat="41.770910" lon="2.513625">
        <ele>451.086</ele>
        <time>2019-01-17T09:55:06Z</time>
      </trkpt>
      <trkpt lat="41.770904" lon="2.513499">
        <ele>451.047</ele>
        <time>2019-01-17T09:55:16Z</time>
      </trkpt>
      <trkpt lat="41.770927" lon="2.513366">
        <ele>450.554</ele>
        <time>2019-01-17T09:55:27Z</time>
      </trkpt>
      <trkpt lat="41.770996" lon="2.513318">
        <ele>449.054</ele>
        <time>2019-01-17T09:55:33Z</time>
      </trkpt>
      <trkpt lat="41.771150" lon="2.513373">
        <ele>449.080</ele>
        <time>2019-01-17T09:55:41Z</time>
      </trkpt>
      <trkpt lat="41.771274" lon="2.513435">
        <ele>447.666</ele>
        <time>2019-01-17T09:55:51Z</time>
      </trkpt>
      <trkpt lat="41.771373" lon="2.513459">
        <ele>447.129</ele>
        <time>2019-01-17T09:56:03Z</time>
      </trkpt>
      <trkpt lat="41.771498" lon="2.513415">
        <ele>446.621</ele>
        <time>2019-01-17T09:56:14Z</time>
      </trkpt>
      <trkpt lat="41.771571" lon="2.513305">
        <ele>445.708</ele>
        <time>2019-01-17T09:56:24Z</time>
      </trkpt>
      <trkpt lat="41.771650" lon="2.513166">
        <ele>444.789</ele>
        <time>2019-01-17T09:56:36Z</time>
      </trkpt>
      <trkpt lat="41.771780" lon="2.513146">
        <ele>446.648</ele>
        <time>2019-01-17T09:56:47Z</time>
      </trkpt>
      <trkpt lat="41.771897" lon="2.513137">
        <ele>447.160</ele>
        <time>2019-01-17T09:56:58Z</time>
      </trkpt>
      <trkpt lat="41.771997" lon="2.513155">
        <ele>447.137</ele>
        <time>2019-01-17T09:57:07Z</time>
      </trkpt>
      <trkpt lat="41.772091" lon="2.513263">
        <ele>447.628</ele>
        <time>2019-01-17T09:57:15Z</time>
      </trkpt>
      <trkpt lat="41.772134" lon="2.513491">
        <ele>449.565</ele>
        <time>2019-01-17T09:57:29Z</time>
      </trkpt>
      <trkpt lat="41.772150" lon="2.513635">
        <ele>451.445</ele>
        <time>2019-01-17T09:57:41Z</time>
      </trkpt>
      <trkpt lat="41.772184" lon="2.513752">
        <ele>452.441</ele>
        <time>2019-01-17T09:57:51Z</time>
      </trkpt>
      <trkpt lat="41.772218" lon="2.513887">
        <ele>451.929</ele>
        <time>2019-01-17T09:58:00Z</time>
      </trkpt>
      <trkpt lat="41.772249" lon="2.513983">
        <ele>453.800</ele>
        <time>2019-01-17T09:58:07Z</time>
      </trkpt>
      <trkpt lat="41.772295" lon="2.514099">
        <ele>452.920</ele>
        <time>2019-01-17T09:58:16Z</time>
      </trkpt>
      <trkpt lat="41.772344" lon="2.514212">
        <ele>453.808</ele>
        <time>2019-01-17T09:58:23Z</time>
      </trkpt>
      <trkpt lat="41.772389" lon="2.514321">
        <ele>453.865</ele>
        <time>2019-01-17T09:58:32Z</time>
      </trkpt>
      <trkpt lat="41.772436" lon="2.514431">
        <ele>454.374</ele>
        <time>2019-01-17T09:58:39Z</time>
      </trkpt>
      <trkpt lat="41.772486" lon="2.514551">
        <ele>454.336</ele>
        <time>2019-01-17T09:58:48Z</time>
      </trkpt>
      <trkpt lat="41.772532" lon="2.514647">
        <ele>454.823</ele>
        <time>2019-01-17T09:58:57Z</time>
      </trkpt>
      <trkpt lat="41.772565" lon="2.514781">
        <ele>454.394</ele>
        <time>2019-01-17T09:59:04Z</time>
      </trkpt>
      <trkpt lat="41.772604" lon="2.514883">
        <ele>455.811</ele>
        <time>2019-01-17T09:59:11Z</time>
      </trkpt>
      <trkpt lat="41.772658" lon="2.514987">
        <ele>455.381</ele>
        <time>2019-01-17T09:59:19Z</time>
      </trkpt>
      <trkpt lat="41.772725" lon="2.515040">
        <ele>454.317</ele>
        <time>2019-01-17T09:59:26Z</time>
      </trkpt>
      <trkpt lat="41.772825" lon="2.515108">
        <ele>453.475</ele>
        <time>2019-01-17T09:59:34Z</time>
      </trkpt>
      <trkpt lat="41.772940" lon="2.515206">
        <ele>453.428</ele>
        <time>2019-01-17T09:59:41Z</time>
      </trkpt>
      <trkpt lat="41.772980" lon="2.515292">
        <ele>452.920</ele>
        <time>2019-01-17T09:59:52Z</time>
      </trkpt>
      <trkpt lat="41.773038" lon="2.515415">
        <ele>452.908</ele>
        <time>2019-01-17T10:00:00Z</time>
      </trkpt>
      <trkpt lat="41.773088" lon="2.515494">
        <ele>453.450</ele>
        <time>2019-01-17T10:00:09Z</time>
      </trkpt>
      <trkpt lat="41.773133" lon="2.515614">
        <ele>453.849</ele>
        <time>2019-01-17T10:00:15Z</time>
      </trkpt>
      <trkpt lat="41.773235" lon="2.515690">
        <ele>453.451</ele>
        <time>2019-01-17T10:00:24Z</time>
      </trkpt>
      <trkpt lat="41.773351" lon="2.515687">
        <ele>452.448</ele>
        <time>2019-01-17T10:00:34Z</time>
      </trkpt>
      <trkpt lat="41.773459" lon="2.515591">
        <ele>451.089</ele>
        <time>2019-01-17T10:00:43Z</time>
      </trkpt>
      <trkpt lat="41.773494" lon="2.515523">
        <ele>450.016</ele>
        <time>2019-01-17T10:00:52Z</time>
      </trkpt>
      <trkpt lat="41.773571" lon="2.515418">
        <ele>449.556</ele>
        <time>2019-01-17T10:01:01Z</time>
      </trkpt>
      <trkpt lat="41.773637" lon="2.515319">
        <ele>448.592</ele>
        <time>2019-01-17T10:01:10Z</time>
      </trkpt>
      <trkpt lat="41.773700" lon="2.515203">
        <ele>448.116</ele>
        <time>2019-01-17T10:01:19Z</time>
      </trkpt>
      <trkpt lat="41.773771" lon="2.515100">
        <ele>448.576</ele>
        <time>2019-01-17T10:01:28Z</time>
      </trkpt>
      <trkpt lat="41.773850" lon="2.514998">
        <ele>449.013</ele>
        <time>2019-01-17T10:01:38Z</time>
      </trkpt>
      <trkpt lat="41.773915" lon="2.514864">
        <ele>448.108</ele>
        <time>2019-01-17T10:01:52Z</time>
      </trkpt>
      <trkpt lat="41.773958" lon="2.514736">
        <ele>447.154</ele>
        <time>2019-01-17T10:02:02Z</time>
      </trkpt>
      <trkpt lat="41.774024" lon="2.514602">
        <ele>448.113</ele>
        <time>2019-01-17T10:02:16Z</time>
      </trkpt>
      <trkpt lat="41.774114" lon="2.514503">
        <ele>447.175</ele>
        <time>2019-01-17T10:02:26Z</time>
      </trkpt>
      <trkpt lat="41.774218" lon="2.514458">
        <ele>447.182</ele>
        <time>2019-01-17T10:02:35Z</time>
      </trkpt>
      <trkpt lat="41.774335" lon="2.514477">
        <ele>446.673</ele>
        <time>2019-01-17T10:02:45Z</time>
      </trkpt>
      <trkpt lat="41.774342" lon="2.514586">
        <ele>446.650</ele>
        <time>2019-01-17T10:02:53Z</time>
      </trkpt>
      <trkpt lat="41.774396" lon="2.514715">
        <ele>445.760</ele>
        <time>2019-01-17T10:03:02Z</time>
      </trkpt>
      <trkpt lat="41.774460" lon="2.514829">
        <ele>444.726</ele>
        <time>2019-01-17T10:03:14Z</time>
      </trkpt>
      <trkpt lat="41.774484" lon="2.514980">
        <ele>443.789</ele>
        <time>2019-01-17T10:03:29Z</time>
      </trkpt>
      <trkpt lat="41.774496" lon="2.515135">
        <ele>441.306</ele>
        <time>2019-01-17T10:03:44Z</time>
      </trkpt>
      <trkpt lat="41.774589" lon="2.515256">
        <ele>438.026</ele>
        <time>2019-01-17T10:04:17Z</time>
      </trkpt>
      <trkpt lat="41.774654" lon="2.515337">
        <ele>436.508</ele>
        <time>2019-01-17T10:04:28Z</time>
      </trkpt>
      <trkpt lat="41.774689" lon="2.515484">
        <ele>434.181</ele>
        <time>2019-01-17T10:04:41Z</time>
      </trkpt>
      <trkpt lat="41.774711" lon="2.515626">
        <ele>432.750</ele>
        <time>2019-01-17T10:04:51Z</time>
      </trkpt>
      <trkpt lat="41.774728" lon="2.515778">
        <ele>431.722</ele>
        <time>2019-01-17T10:05:02Z</time>
      </trkpt>
      <trkpt lat="41.774710" lon="2.515918">
        <ele>431.739</ele>
        <time>2019-01-17T10:05:11Z</time>
      </trkpt>
      <trkpt lat="41.774737" lon="2.516055">
        <ele>430.330</ele>
        <time>2019-01-17T10:05:21Z</time>
      </trkpt>
      <trkpt lat="41.774865" lon="2.516067">
        <ele>429.897</ele>
        <time>2019-01-17T10:06:01Z</time>
      </trkpt>
      <trkpt lat="41.774960" lon="2.516006">
        <ele>430.377</ele>
        <time>2019-01-17T10:06:21Z</time>
      </trkpt>
      <trkpt lat="41.775043" lon="2.516019">
        <ele>430.333</ele>
        <time>2019-01-17T10:06:33Z</time>
      </trkpt>
      <trkpt lat="41.775135" lon="2.516143">
        <ele>430.836</ele>
        <time>2019-01-17T10:06:42Z</time>
      </trkpt>
      <trkpt lat="41.775244" lon="2.516170">
        <ele>432.717</ele>
        <time>2019-01-17T10:06:56Z</time>
      </trkpt>
      <trkpt lat="41.775341" lon="2.516113">
        <ele>434.118</ele>
        <time>2019-01-17T10:07:09Z</time>
      </trkpt>
      <trkpt lat="41.775445" lon="2.516054">
        <ele>434.608</ele>
        <time>2019-01-17T10:07:19Z</time>
      </trkpt>
      <trkpt lat="41.775528" lon="2.515999">
        <ele>435.636</ele>
        <time>2019-01-17T10:07:29Z</time>
      </trkpt>
      <trkpt lat="41.775619" lon="2.515978">
        <ele>435.195</ele>
        <time>2019-01-17T10:07:38Z</time>
      </trkpt>
      <trkpt lat="41.775656" lon="2.515885">
        <ele>436.597</ele>
        <time>2019-01-17T10:07:48Z</time>
      </trkpt>
      <trkpt lat="41.775678" lon="2.515826">
        <ele>436.584</ele>
        <time>2019-01-17T10:08:05Z</time>
      </trkpt>
      <trkpt lat="41.775707" lon="2.515768">
        <ele>438.555</ele>
        <time>2019-01-17T10:08:29Z</time>
      </trkpt>
      <trkpt lat="41.775748" lon="2.515677">
        <ele>440.452</ele>
        <time>2019-01-17T10:08:40Z</time>
      </trkpt>
      <trkpt lat="41.775777" lon="2.515593">
        <ele>442.382</ele>
        <time>2019-01-17T10:09:30Z</time>
      </trkpt>
      <trkpt lat="41.775822" lon="2.515489">
        <ele>441.858</ele>
        <time>2019-01-17T10:09:42Z</time>
      </trkpt>
      <trkpt lat="41.775847" lon="2.515365">
        <ele>443.741</ele>
        <time>2019-01-17T10:09:52Z</time>
      </trkpt>
      <trkpt lat="41.775881" lon="2.515217">
        <ele>445.281</ele>
        <time>2019-01-17T10:10:01Z</time>
      </trkpt>
      <trkpt lat="41.775878" lon="2.515110">
        <ele>445.709</ele>
        <time>2019-01-17T10:10:11Z</time>
      </trkpt>
      <trkpt lat="41.775941" lon="2.514998">
        <ele>447.108</ele>
        <time>2019-01-17T10:10:23Z</time>
      </trkpt>
      <trkpt lat="41.776052" lon="2.514865">
        <ele>447.677</ele>
        <time>2019-01-17T10:10:34Z</time>
      </trkpt>
      <trkpt lat="41.776131" lon="2.514794">
        <ele>450.566</ele>
        <time>2019-01-17T10:10:48Z</time>
      </trkpt>
      <trkpt lat="41.776176" lon="2.514750">
        <ele>452.998</ele>
        <time>2019-01-17T10:11:13Z</time>
      </trkpt>
      <trkpt lat="41.776239" lon="2.514710">
        <ele>452.915</ele>
        <time>2019-01-17T10:11:30Z</time>
      </trkpt>
      <trkpt lat="41.776280" lon="2.514633">
        <ele>454.336</ele>
        <time>2019-01-17T10:11:42Z</time>
      </trkpt>
      <trkpt lat="41.776334" lon="2.514527">
        <ele>455.313</ele>
        <time>2019-01-17T10:11:55Z</time>
      </trkpt>
      <trkpt lat="41.776366" lon="2.514412">
        <ele>457.713</ele>
        <time>2019-01-17T10:12:07Z</time>
      </trkpt>
      <trkpt lat="41.776417" lon="2.514316">
        <ele>458.649</ele>
        <time>2019-01-17T10:12:19Z</time>
      </trkpt>
      <trkpt lat="41.776496" lon="2.514208">
        <ele>460.148</ele>
        <time>2019-01-17T10:12:30Z</time>
      </trkpt>
      <trkpt lat="41.776607" lon="2.514115">
        <ele>460.661</ele>
        <time>2019-01-17T10:12:42Z</time>
      </trkpt>
      <trkpt lat="41.776690" lon="2.514031">
        <ele>459.117</ele>
        <time>2019-01-17T10:12:54Z</time>
      </trkpt>
      <trkpt lat="41.776742" lon="2.513962">
        <ele>458.608</ele>
        <time>2019-01-17T10:13:06Z</time>
      </trkpt>
      <trkpt lat="41.776772" lon="2.513876">
        <ele>456.277</ele>
        <time>2019-01-17T10:13:18Z</time>
      </trkpt>
      <trkpt lat="41.776770" lon="2.513741">
        <ele>457.276</ele>
        <time>2019-01-17T10:13:28Z</time>
      </trkpt>
      <trkpt lat="41.776761" lon="2.513644">
        <ele>457.738</ele>
        <time>2019-01-17T10:13:38Z</time>
      </trkpt>
      <trkpt lat="41.776785" lon="2.513510">
        <ele>456.785</ele>
        <time>2019-01-17T10:13:49Z</time>
      </trkpt>
      <trkpt lat="41.776857" lon="2.513362">
        <ele>458.296</ele>
        <time>2019-01-17T10:14:02Z</time>
      </trkpt>
      <trkpt lat="41.776879" lon="2.513239">
        <ele>461.043</ele>
        <time>2019-01-17T10:14:24Z</time>
      </trkpt>
      <trkpt lat="41.776792" lon="2.513140">
        <ele>464.983</ele>
        <time>2019-01-17T10:14:53Z</time>
      </trkpt>
      <trkpt lat="41.776712" lon="2.513230">
        <ele>467.819</ele>
        <time>2019-01-17T10:15:07Z</time>
      </trkpt>
      <trkpt lat="41.776699" lon="2.513153">
        <ele>470.787</ele>
        <time>2019-01-17T10:15:24Z</time>
      </trkpt>
      <trkpt lat="41.776634" lon="2.513181">
        <ele>472.642</ele>
        <time>2019-01-17T10:16:49Z</time>
      </trkpt>
      <trkpt lat="41.776591" lon="2.513040">
        <ele>474.526</ele>
        <time>2019-01-17T10:17:05Z</time>
      </trkpt>
      <trkpt lat="41.776635" lon="2.512905">
        <ele>474.508</ele>
        <time>2019-01-17T10:17:17Z</time>
      </trkpt>
      <trkpt lat="41.776695" lon="2.512790">
        <ele>476.471</ele>
        <time>2019-01-17T10:17:26Z</time>
      </trkpt>
      <trkpt lat="41.776738" lon="2.512668">
        <ele>477.410</ele>
        <time>2019-01-17T10:17:36Z</time>
      </trkpt>
      <trkpt lat="41.776769" lon="2.512482">
        <ele>478.382</ele>
        <time>2019-01-17T10:17:46Z</time>
      </trkpt>
      <trkpt lat="41.776769" lon="2.512354">
        <ele>478.829</ele>
        <time>2019-01-17T10:17:55Z</time>
      </trkpt>
      <trkpt lat="41.776751" lon="2.512245">
        <ele>479.810</ele>
        <time>2019-01-17T10:18:12Z</time>
      </trkpt>
      <trkpt lat="41.776729" lon="2.512207">
        <ele>480.337</ele>
        <time>2019-01-17T10:19:17Z</time>
      </trkpt>
      <trkpt lat="41.776774" lon="2.512053">
        <ele>479.827</ele>
        <time>2019-01-17T10:19:33Z</time>
      </trkpt>
      <trkpt lat="41.776826" lon="2.511971">
        <ele>479.343</ele>
        <time>2019-01-17T10:20:11Z</time>
      </trkpt>
      <trkpt lat="41.776848" lon="2.511867">
        <ele>478.841</ele>
        <time>2019-01-17T10:20:20Z</time>
      </trkpt>
      <trkpt lat="41.776918" lon="2.511755">
        <ele>478.881</ele>
        <time>2019-01-17T10:20:29Z</time>
      </trkpt>
      <trkpt lat="41.776978" lon="2.511650">
        <ele>478.809</ele>
        <time>2019-01-17T10:20:39Z</time>
      </trkpt>
      <trkpt lat="41.777046" lon="2.511566">
        <ele>479.308</ele>
        <time>2019-01-17T10:20:46Z</time>
      </trkpt>
      <trkpt lat="41.777111" lon="2.511442">
        <ele>479.897</ele>
        <time>2019-01-17T10:20:55Z</time>
      </trkpt>
      <trkpt lat="41.777159" lon="2.511327">
        <ele>480.326</ele>
        <time>2019-01-17T10:21:03Z</time>
      </trkpt>
      <trkpt lat="41.777209" lon="2.511159">
        <ele>480.328</ele>
        <time>2019-01-17T10:21:12Z</time>
      </trkpt>
      <trkpt lat="41.777270" lon="2.511061">
        <ele>481.725</ele>
        <time>2019-01-17T10:21:21Z</time>
      </trkpt>
      <trkpt lat="41.777346" lon="2.510997">
        <ele>481.756</ele>
        <time>2019-01-17T10:21:30Z</time>
      </trkpt>
      <trkpt lat="41.777444" lon="2.510951">
        <ele>482.733</ele>
        <time>2019-01-17T10:21:41Z</time>
      </trkpt>
      <trkpt lat="41.777620" lon="2.510873">
        <ele>482.773</ele>
        <time>2019-01-17T10:21:56Z</time>
      </trkpt>
      <trkpt lat="41.777737" lon="2.510762">
        <ele>483.619</ele>
        <time>2019-01-17T10:22:05Z</time>
      </trkpt>
      <trkpt lat="41.777840" lon="2.510574">
        <ele>484.151</ele>
        <time>2019-01-17T10:22:13Z</time>
      </trkpt>
      <trkpt lat="41.777883" lon="2.510462">
        <ele>484.101</ele>
        <time>2019-01-17T10:22:24Z</time>
      </trkpt>
      <trkpt lat="41.777917" lon="2.510331">
        <ele>485.111</ele>
        <time>2019-01-17T10:22:33Z</time>
      </trkpt>
      <trkpt lat="41.777998" lon="2.510200">
        <ele>484.608</ele>
        <time>2019-01-17T10:22:43Z</time>
      </trkpt>
      <trkpt lat="41.778100" lon="2.510132">
        <ele>484.618</ele>
        <time>2019-01-17T10:22:51Z</time>
      </trkpt>
      <trkpt lat="41.778217" lon="2.510079">
        <ele>484.647</ele>
        <time>2019-01-17T10:23:00Z</time>
      </trkpt>
      <trkpt lat="41.778321" lon="2.510019">
        <ele>485.129</ele>
        <time>2019-01-17T10:23:09Z</time>
      </trkpt>
      <trkpt lat="41.778426" lon="2.509955">
        <ele>485.636</ele>
        <time>2019-01-17T10:23:19Z</time>
      </trkpt>
      <trkpt lat="41.778492" lon="2.509884">
        <ele>486.037</ele>
        <time>2019-01-17T10:23:28Z</time>
      </trkpt>
      <trkpt lat="41.778568" lon="2.509767">
        <ele>486.524</ele>
        <time>2019-01-17T10:23:37Z</time>
      </trkpt>
      <trkpt lat="41.778645" lon="2.509652">
        <ele>486.044</ele>
        <time>2019-01-17T10:23:45Z</time>
      </trkpt>
      <trkpt lat="41.778733" lon="2.509530">
        <ele>487.080</ele>
        <time>2019-01-17T10:23:55Z</time>
      </trkpt>
      <trkpt lat="41.778792" lon="2.509426">
        <ele>487.093</ele>
        <time>2019-01-17T10:24:03Z</time>
      </trkpt>
      <trkpt lat="41.778868" lon="2.509300">
        <ele>488.065</ele>
        <time>2019-01-17T10:24:13Z</time>
      </trkpt>
      <trkpt lat="41.778936" lon="2.509171">
        <ele>488.421</ele>
        <time>2019-01-17T10:24:22Z</time>
      </trkpt>
      <trkpt lat="41.778993" lon="2.509070">
        <ele>489.408</ele>
        <time>2019-01-17T10:24:33Z</time>
      </trkpt>
      <trkpt lat="41.779076" lon="2.508928">
        <ele>489.942</ele>
        <time>2019-01-17T10:24:42Z</time>
      </trkpt>
      <trkpt lat="41.779152" lon="2.508802">
        <ele>489.991</ele>
        <time>2019-01-17T10:24:52Z</time>
      </trkpt>
      <trkpt lat="41.779236" lon="2.508667">
        <ele>490.853</ele>
        <time>2019-01-17T10:25:05Z</time>
      </trkpt>
      <trkpt lat="41.779381" lon="2.508596">
        <ele>490.820</ele>
        <time>2019-01-17T10:26:19Z</time>
      </trkpt>
      <trkpt lat="41.779473" lon="2.508567">
        <ele>490.861</ele>
        <time>2019-01-17T10:26:34Z</time>
      </trkpt>
      <trkpt lat="41.779582" lon="2.508551">
        <ele>490.488</ele>
        <time>2019-01-17T10:26:52Z</time>
      </trkpt>
      <trkpt lat="41.779687" lon="2.508520">
        <ele>490.438</ele>
        <time>2019-01-17T10:27:02Z</time>
      </trkpt>
      <trkpt lat="41.779789" lon="2.508558">
        <ele>490.844</ele>
        <time>2019-01-17T10:27:13Z</time>
      </trkpt>
      <trkpt lat="41.779830" lon="2.508696">
        <ele>489.488</ele>
        <time>2019-01-17T10:27:27Z</time>
      </trkpt>
      <trkpt lat="41.779878" lon="2.508855">
        <ele>488.424</ele>
        <time>2019-01-17T10:27:47Z</time>
      </trkpt>
      <trkpt lat="41.779928" lon="2.509035">
        <ele>485.626</ele>
        <time>2019-01-17T10:28:05Z</time>
      </trkpt>
      <trkpt lat="41.780012" lon="2.509125">
        <ele>484.108</ele>
        <time>2019-01-17T10:28:22Z</time>
      </trkpt>
      <trkpt lat="41.780209" lon="2.509115">
        <ele>483.631</ele>
        <time>2019-01-17T10:29:36Z</time>
      </trkpt>
      <trkpt lat="41.780253" lon="2.508943">
        <ele>485.670</ele>
        <time>2019-01-17T10:30:17Z</time>
      </trkpt>
      <trkpt lat="41.780263" lon="2.509104">
        <ele>488.982</ele>
        <time>2019-01-17T10:30:39Z</time>
      </trkpt>
      <trkpt lat="41.780292" lon="2.509309">
        <ele>488.969</ele>
        <time>2019-01-17T10:30:58Z</time>
      </trkpt>
      <trkpt lat="41.780311" lon="2.509491">
        <ele>491.330</ele>
        <time>2019-01-17T10:31:13Z</time>
      </trkpt>
      <trkpt lat="41.780329" lon="2.509659">
        <ele>489.957</ele>
        <time>2019-01-17T10:31:27Z</time>
      </trkpt>
      <trkpt lat="41.780252" lon="2.509871">
        <ele>487.037</ele>
        <time>2019-01-17T10:31:50Z</time>
      </trkpt>
      <trkpt lat="41.780287" lon="2.510033">
        <ele>486.013</ele>
        <time>2019-01-17T10:32:02Z</time>
      </trkpt>
      <trkpt lat="41.780303" lon="2.510195">
        <ele>486.518</ele>
        <time>2019-01-17T10:32:13Z</time>
      </trkpt>
      <trkpt lat="41.780240" lon="2.510447">
        <ele>486.598</ele>
        <time>2019-01-17T10:32:30Z</time>
      </trkpt>
      <trkpt lat="41.780238" lon="2.510674">
        <ele>485.617</ele>
        <time>2019-01-17T10:33:25Z</time>
      </trkpt>
      <trkpt lat="41.780293" lon="2.510834">
        <ele>485.108</ele>
        <time>2019-01-17T10:33:37Z</time>
      </trkpt>
      <trkpt lat="41.780364" lon="2.510889">
        <ele>482.774</ele>
        <time>2019-01-17T10:33:46Z</time>
      </trkpt>
      <trkpt lat="41.780409" lon="2.511033">
        <ele>483.273</ele>
        <time>2019-01-17T10:33:56Z</time>
      </trkpt>
      <trkpt lat="41.780470" lon="2.511150">
        <ele>482.785</ele>
        <time>2019-01-17T10:34:05Z</time>
      </trkpt>
      <trkpt lat="41.780542" lon="2.511248">
        <ele>480.362</ele>
        <time>2019-01-17T10:34:17Z</time>
      </trkpt>
      <trkpt lat="41.780616" lon="2.511347">
        <ele>479.823</ele>
        <time>2019-01-17T10:34:23Z</time>
      </trkpt>
      <trkpt lat="41.780693" lon="2.511449">
        <ele>479.890</ele>
        <time>2019-01-17T10:34:34Z</time>
      </trkpt>
      <trkpt lat="41.780778" lon="2.511544">
        <ele>480.350</ele>
        <time>2019-01-17T10:34:42Z</time>
      </trkpt>
      <trkpt lat="41.780860" lon="2.511615">
        <ele>481.796</ele>
        <time>2019-01-17T10:34:52Z</time>
      </trkpt>
      <trkpt lat="41.780956" lon="2.511727">
        <ele>482.795</ele>
        <time>2019-01-17T10:35:02Z</time>
      </trkpt>
      <trkpt lat="41.781044" lon="2.511814">
        <ele>483.249</ele>
        <time>2019-01-17T10:35:12Z</time>
      </trkpt>
      <trkpt lat="41.781139" lon="2.511840">
        <ele>483.623</ele>
        <time>2019-01-17T10:35:20Z</time>
      </trkpt>
      <trkpt lat="41.781241" lon="2.511874">
        <ele>483.608</ele>
        <time>2019-01-17T10:35:30Z</time>
      </trkpt>
      <trkpt lat="41.781362" lon="2.511917">
        <ele>483.222</ele>
        <time>2019-01-17T10:35:40Z</time>
      </trkpt>
      <trkpt lat="41.781484" lon="2.511980">
        <ele>482.721</ele>
        <time>2019-01-17T10:35:52Z</time>
      </trkpt>
      <trkpt lat="41.781630" lon="2.512004">
        <ele>481.793</ele>
        <time>2019-01-17T10:36:06Z</time>
      </trkpt>
      <trkpt lat="41.781844" lon="2.511975">
        <ele>480.830</ele>
        <time>2019-01-17T10:36:17Z</time>
      </trkpt>
      <trkpt lat="41.781951" lon="2.512062">
        <ele>480.811</ele>
        <time>2019-01-17T10:36:29Z</time>
      </trkpt>
      <trkpt lat="41.782016" lon="2.512178">
        <ele>479.818</ele>
        <time>2019-01-17T10:36:39Z</time>
      </trkpt>
      <trkpt lat="41.782164" lon="2.512247">
        <ele>477.968</ele>
        <time>2019-01-17T10:36:54Z</time>
      </trkpt>
      <trkpt lat="41.782280" lon="2.512254">
        <ele>477.424</ele>
        <time>2019-01-17T10:37:02Z</time>
      </trkpt>
      <trkpt lat="41.782442" lon="2.512257">
        <ele>476.474</ele>
        <time>2019-01-17T10:37:18Z</time>
      </trkpt>
      <trkpt lat="41.782603" lon="2.512244">
        <ele>475.956</ele>
        <time>2019-01-17T10:37:24Z</time>
      </trkpt>
      <trkpt lat="41.782746" lon="2.512201">
        <ele>475.921</ele>
        <time>2019-01-17T10:37:34Z</time>
      </trkpt>
      <trkpt lat="41.782905" lon="2.512138">
        <ele>475.508</ele>
        <time>2019-01-17T10:37:46Z</time>
      </trkpt>
      <trkpt lat="41.783045" lon="2.512125">
        <ele>475.910</ele>
        <time>2019-01-17T10:37:58Z</time>
      </trkpt>
      <trkpt lat="41.783185" lon="2.512188">
        <ele>475.989</ele>
        <time>2019-01-17T10:38:08Z</time>
      </trkpt>
      <trkpt lat="41.783326" lon="2.512257">
        <ele>476.421</ele>
        <time>2019-01-17T10:38:19Z</time>
      </trkpt>
      <trkpt lat="41.783412" lon="2.512334">
        <ele>477.458</ele>
        <time>2019-01-17T10:38:29Z</time>
      </trkpt>
      <trkpt lat="41.783482" lon="2.512400">
        <ele>477.469</ele>
        <time>2019-01-17T10:38:36Z</time>
      </trkpt>
      <trkpt lat="41.783555" lon="2.512451">
        <ele>479.376</ele>
        <time>2019-01-17T10:38:48Z</time>
      </trkpt>
      <trkpt lat="41.783676" lon="2.512419">
        <ele>480.896</ele>
        <time>2019-01-17T10:38:59Z</time>
      </trkpt>
      <trkpt lat="41.783783" lon="2.512370">
        <ele>482.272</ele>
        <time>2019-01-17T10:39:08Z</time>
      </trkpt>
      <trkpt lat="41.783881" lon="2.512277">
        <ele>483.636</ele>
        <time>2019-01-17T10:39:20Z</time>
      </trkpt>
      <trkpt lat="41.784018" lon="2.512218">
        <ele>485.117</ele>
        <time>2019-01-17T10:39:33Z</time>
      </trkpt>
      <trkpt lat="41.784153" lon="2.512171">
        <ele>486.018</ele>
        <time>2019-01-17T10:39:45Z</time>
      </trkpt>
      <trkpt lat="41.784296" lon="2.512125">
        <ele>487.508</ele>
        <time>2019-01-17T10:39:56Z</time>
      </trkpt>
      <trkpt lat="41.784412" lon="2.512105">
        <ele>488.026</ele>
        <time>2019-01-17T10:40:06Z</time>
      </trkpt>
      <trkpt lat="41.784530" lon="2.512060">
        <ele>487.525</ele>
        <time>2019-01-17T10:40:17Z</time>
      </trkpt>
      <trkpt lat="41.784614" lon="2.511954">
        <ele>487.597</ele>
        <time>2019-01-17T10:40:25Z</time>
      </trkpt>
      <trkpt lat="41.784668" lon="2.511823">
        <ele>488.024</ele>
        <time>2019-01-17T10:40:36Z</time>
      </trkpt>
      <trkpt lat="41.784700" lon="2.511667">
        <ele>488.075</ele>
        <time>2019-01-17T10:40:44Z</time>
      </trkpt>
      <trkpt lat="41.784786" lon="2.511544">
        <ele>488.912</ele>
        <time>2019-01-17T10:40:54Z</time>
      </trkpt>
      <trkpt lat="41.784913" lon="2.511537">
        <ele>490.442</ele>
        <time>2019-01-17T10:41:06Z</time>
      </trkpt>
      <trkpt lat="41.785042" lon="2.511627">
        <ele>491.898</ele>
        <time>2019-01-17T10:41:13Z</time>
      </trkpt>
      <trkpt lat="41.785169" lon="2.511690">
        <ele>491.335</ele>
        <time>2019-01-17T10:41:23Z</time>
      </trkpt>
      <trkpt lat="41.785263" lon="2.511710">
        <ele>493.286</ele>
        <time>2019-01-17T10:41:33Z</time>
      </trkpt>
      <trkpt lat="41.785357" lon="2.511710">
        <ele>494.214</ele>
        <time>2019-01-17T10:41:44Z</time>
      </trkpt>
      <trkpt lat="41.785468" lon="2.511710">
        <ele>495.208</ele>
        <time>2019-01-17T10:41:55Z</time>
      </trkpt>
      <trkpt lat="41.785592" lon="2.511692">
        <ele>497.146</ele>
        <time>2019-01-17T10:42:08Z</time>
      </trkpt>
      <trkpt lat="41.785746" lon="2.511630">
        <ele>497.685</ele>
        <time>2019-01-17T10:42:24Z</time>
      </trkpt>
      <trkpt lat="41.785875" lon="2.511567">
        <ele>499.097</ele>
        <time>2019-01-17T10:42:37Z</time>
      </trkpt>
      <trkpt lat="41.785996" lon="2.511504">
        <ele>500.964</ele>
        <time>2019-01-17T10:42:51Z</time>
      </trkpt>
      <trkpt lat="41.786204" lon="2.511471">
        <ele>501.965</ele>
        <time>2019-01-17T10:43:03Z</time>
      </trkpt>
      <trkpt lat="41.786387" lon="2.511461">
        <ele>504.312</ele>
        <time>2019-01-17T10:43:15Z</time>
      </trkpt>
      <trkpt lat="41.786484" lon="2.511384">
        <ele>505.382</ele>
        <time>2019-01-17T10:43:27Z</time>
      </trkpt>
      <trkpt lat="41.786600" lon="2.511384">
        <ele>506.778</ele>
        <time>2019-01-17T10:43:37Z</time>
      </trkpt>
      <trkpt lat="41.786721" lon="2.511467">
        <ele>508.144</ele>
        <time>2019-01-17T10:43:49Z</time>
      </trkpt>
      <trkpt lat="41.786839" lon="2.511463">
        <ele>510.105</ele>
        <time>2019-01-17T10:44:00Z</time>
      </trkpt>
      <trkpt lat="41.786969" lon="2.511364">
        <ele>511.015</ele>
        <time>2019-01-17T10:44:13Z</time>
      </trkpt>
      <trkpt lat="41.787050" lon="2.511345">
        <ele>513.008</ele>
        <time>2019-01-17T10:44:23Z</time>
      </trkpt>
      <trkpt lat="41.787193" lon="2.511364">
        <ele>514.427</ele>
        <time>2019-01-17T10:44:33Z</time>
      </trkpt>
      <trkpt lat="41.787314" lon="2.511364">
        <ele>517.336</ele>
        <time>2019-01-17T10:44:45Z</time>
      </trkpt>
      <trkpt lat="41.787417" lon="2.511384">
        <ele>519.288</ele>
        <time>2019-01-17T10:44:57Z</time>
      </trkpt>
      <trkpt lat="41.787559" lon="2.511321">
        <ele>521.185</ele>
        <time>2019-01-17T10:45:08Z</time>
      </trkpt>
      <trkpt lat="41.787637" lon="2.511305">
        <ele>523.596</ele>
        <time>2019-01-17T10:45:22Z</time>
      </trkpt>
      <trkpt lat="41.787759" lon="2.511264">
        <ele>525.573</ele>
        <time>2019-01-17T10:45:35Z</time>
      </trkpt>
      <trkpt lat="41.787868" lon="2.511175">
        <ele>528.353</ele>
        <time>2019-01-17T10:45:49Z</time>
      </trkpt>
      <trkpt lat="41.788009" lon="2.511074">
        <ele>529.339</ele>
        <time>2019-01-17T10:46:01Z</time>
      </trkpt>
      <trkpt lat="41.788091" lon="2.510965">
        <ele>530.763</ele>
        <time>2019-01-17T10:46:13Z</time>
      </trkpt>
      <trkpt lat="41.788150" lon="2.510873">
        <ele>532.244</ele>
        <time>2019-01-17T10:46:24Z</time>
      </trkpt>
      <trkpt lat="41.788172" lon="2.510699">
        <ele>534.118</ele>
        <time>2019-01-17T10:46:35Z</time>
      </trkpt>
      <trkpt lat="41.788225" lon="2.510567">
        <ele>534.108</ele>
        <time>2019-01-17T10:46:43Z</time>
      </trkpt>
      <trkpt lat="41.788273" lon="2.510417">
        <ele>533.119</ele>
        <time>2019-01-17T10:46:53Z</time>
      </trkpt>
      <trkpt lat="41.788343" lon="2.510305">
        <ele>533.168</ele>
        <time>2019-01-17T10:47:01Z</time>
      </trkpt>
      <trkpt lat="41.788428" lon="2.510191">
        <ele>533.670</ele>
        <time>2019-01-17T10:47:11Z</time>
      </trkpt>
      <trkpt lat="41.788500" lon="2.510057">
        <ele>534.697</ele>
        <time>2019-01-17T10:47:22Z</time>
      </trkpt>
      <trkpt lat="41.788562" lon="2.509927">
        <ele>536.038</ele>
        <time>2019-01-17T10:47:33Z</time>
      </trkpt>
      <trkpt lat="41.788592" lon="2.509811">
        <ele>536.035</ele>
        <time>2019-01-17T10:47:45Z</time>
      </trkpt>
      <trkpt lat="41.788640" lon="2.509661">
        <ele>533.655</ele>
        <time>2019-01-17T10:47:58Z</time>
      </trkpt>
      <trkpt lat="41.788750" lon="2.509560">
        <ele>534.691</ele>
        <time>2019-01-17T10:48:09Z</time>
      </trkpt>
      <trkpt lat="41.788818" lon="2.509402">
        <ele>534.117</ele>
        <time>2019-01-17T10:49:01Z</time>
      </trkpt>
      <trkpt lat="41.788912" lon="2.509334">
        <ele>536.087</ele>
        <time>2019-01-17T10:49:17Z</time>
      </trkpt>
      <trkpt lat="41.789031" lon="2.509276">
        <ele>538.915</ele>
        <time>2019-01-17T10:49:42Z</time>
      </trkpt>
      <trkpt lat="41.789080" lon="2.509163">
        <ele>538.408</ele>
        <time>2019-01-17T10:50:37Z</time>
      </trkpt>
      <trkpt lat="41.789146" lon="2.509058">
        <ele>538.944</ele>
        <time>2019-01-17T10:50:47Z</time>
      </trkpt>
      <trkpt lat="41.789193" lon="2.508943">
        <ele>539.443</ele>
        <time>2019-01-17T10:50:58Z</time>
      </trkpt>
      <trkpt lat="41.789264" lon="2.508826">
        <ele>539.435</ele>
        <time>2019-01-17T10:51:09Z</time>
      </trkpt>
      <trkpt lat="41.789380" lon="2.508704">
        <ele>543.232</ele>
        <time>2019-01-17T10:51:26Z</time>
      </trkpt>
      <trkpt lat="41.789425" lon="2.508573">
        <ele>548.553</ele>
        <time>2019-01-17T10:51:51Z</time>
      </trkpt>
      <trkpt lat="41.789492" lon="2.508656">
        <ele>551.470</ele>
        <time>2019-01-17T10:52:28Z</time>
      </trkpt>
      <trkpt lat="41.789495" lon="2.508796">
        <ele>555.760</ele>
        <time>2019-01-17T10:52:48Z</time>
      </trkpt>
      <trkpt lat="41.789522" lon="2.508938">
        <ele>559.196</ele>
        <time>2019-01-17T10:53:07Z</time>
      </trkpt>
      <trkpt lat="41.789547" lon="2.509111">
        <ele>561.564</ele>
        <time>2019-01-17T10:53:23Z</time>
      </trkpt>
      <trkpt lat="41.789572" lon="2.509279">
        <ele>559.106</ele>
        <time>2019-01-17T10:53:41Z</time>
      </trkpt>
      <trkpt lat="41.789578" lon="2.509400">
        <ele>560.516</ele>
        <time>2019-01-17T10:53:57Z</time>
      </trkpt>
      <trkpt lat="41.789573" lon="2.509484">
        <ele>564.908</ele>
        <time>2019-01-17T10:54:16Z</time>
      </trkpt>
      <trkpt lat="41.789548" lon="2.509652">
        <ele>566.829</ele>
        <time>2019-01-17T10:54:35Z</time>
      </trkpt>
      <trkpt lat="41.789495" lon="2.509792">
        <ele>566.858</ele>
        <time>2019-01-17T10:54:46Z</time>
      </trkpt>
      <trkpt lat="41.789438" lon="2.509949">
        <ele>567.320</ele>
        <time>2019-01-17T10:54:58Z</time>
      </trkpt>
      <trkpt lat="41.789447" lon="2.510117">
        <ele>566.357</ele>
        <time>2019-01-17T10:55:09Z</time>
      </trkpt>
      <trkpt lat="41.789478" lon="2.510210">
        <ele>566.368</ele>
        <time>2019-01-17T10:55:29Z</time>
      </trkpt>
      <trkpt lat="41.789510" lon="2.510352">
        <ele>562.955</ele>
        <time>2019-01-17T10:55:42Z</time>
      </trkpt>
      <trkpt lat="41.789510" lon="2.510418">
        <ele>562.025</ele>
        <time>2019-01-17T10:55:54Z</time>
      </trkpt>
      <trkpt lat="41.789383" lon="2.510504">
        <ele>561.051</ele>
        <time>2019-01-17T10:56:04Z</time>
      </trkpt>
      <trkpt lat="41.789224" lon="2.510613">
        <ele>557.757</ele>
        <time>2019-01-17T10:56:19Z</time>
      </trkpt>
      <trkpt lat="41.789120" lon="2.510785">
        <ele>556.700</ele>
        <time>2019-01-17T10:56:34Z</time>
      </trkpt>
      <trkpt lat="41.789104" lon="2.511002">
        <ele>556.720</ele>
        <time>2019-01-17T10:56:44Z</time>
      </trkpt>
      <trkpt lat="41.789081" lon="2.511137">
        <ele>560.108</ele>
        <time>2019-01-17T10:56:58Z</time>
      </trkpt>
      <trkpt lat="41.789063" lon="2.511367">
        <ele>562.058</ele>
        <time>2019-01-17T10:57:11Z</time>
      </trkpt>
      <trkpt lat="41.789144" lon="2.511553">
        <ele>563.937</ele>
        <time>2019-01-17T10:57:24Z</time>
      </trkpt>
      <trkpt lat="41.789370" lon="2.511817">
        <ele>566.359</ele>
        <time>2019-01-17T10:57:38Z</time>
      </trkpt>
      <trkpt lat="41.789526" lon="2.511956">
        <ele>567.876</ele>
        <time>2019-01-17T10:57:50Z</time>
      </trkpt>
      <trkpt lat="41.789702" lon="2.512022">
        <ele>569.257</ele>
        <time>2019-01-17T10:58:02Z</time>
      </trkpt>
      <trkpt lat="41.789817" lon="2.512144">
        <ele>572.194</ele>
        <time>2019-01-17T10:58:22Z</time>
      </trkpt>
      <trkpt lat="41.789878" lon="2.512148">
        <ele>573.554</ele>
        <time>2019-01-17T10:58:35Z</time>
      </trkpt>
      <trkpt lat="41.789896" lon="2.512071">
        <ele>576.960</ele>
        <time>2019-01-17T10:59:15Z</time>
      </trkpt>
      <trkpt lat="41.789818" lon="2.511930">
        <ele>579.863</ele>
        <time>2019-01-17T10:59:29Z</time>
      </trkpt>
      <trkpt lat="41.789756" lon="2.511831">
        <ele>579.844</ele>
        <time>2019-01-17T10:59:41Z</time>
      </trkpt>
      <trkpt lat="41.789577" lon="2.511693">
        <ele>581.718</ele>
        <time>2019-01-17T10:59:54Z</time>
      </trkpt>
      <trkpt lat="41.789526" lon="2.511569">
        <ele>582.708</ele>
        <time>2019-01-17T11:00:05Z</time>
      </trkpt>
      <trkpt lat="41.789528" lon="2.511445">
        <ele>586.089</ele>
        <time>2019-01-17T11:00:21Z</time>
      </trkpt>
      <trkpt lat="41.789586" lon="2.511369">
        <ele>589.438</ele>
        <time>2019-01-17T11:00:37Z</time>
      </trkpt>
      <trkpt lat="41.789641" lon="2.511427">
        <ele>591.350</ele>
        <time>2019-01-17T11:00:59Z</time>
      </trkpt>
      <trkpt lat="41.789702" lon="2.511510">
        <ele>591.857</ele>
        <time>2019-01-17T11:01:12Z</time>
      </trkpt>
      <trkpt lat="41.789814" lon="2.511647">
        <ele>590.388</ele>
        <time>2019-01-17T11:01:49Z</time>
      </trkpt>
      <trkpt lat="41.789898" lon="2.511691">
        <ele>589.415</ele>
        <time>2019-01-17T11:01:58Z</time>
      </trkpt>
      <trkpt lat="41.789956" lon="2.511761">
        <ele>588.445</ele>
        <time>2019-01-17T11:02:07Z</time>
      </trkpt>
      <trkpt lat="41.790028" lon="2.511870">
        <ele>587.511</ele>
        <time>2019-01-17T11:02:16Z</time>
      </trkpt>
      <trkpt lat="41.790100" lon="2.511989">
        <ele>587.591</ele>
        <time>2019-01-17T11:02:24Z</time>
      </trkpt>
      <trkpt lat="41.790210" lon="2.512123">
        <ele>587.081</ele>
        <time>2019-01-17T11:02:33Z</time>
      </trkpt>
      <trkpt lat="41.790286" lon="2.512098">
        <ele>586.019</ele>
        <time>2019-01-17T11:02:45Z</time>
      </trkpt>
      <trkpt lat="41.790423" lon="2.512046">
        <ele>584.608</ele>
        <time>2019-01-17T11:02:57Z</time>
      </trkpt>
      <trkpt lat="41.790512" lon="2.512103">
        <ele>584.112</ele>
        <time>2019-01-17T11:03:05Z</time>
      </trkpt>
      <trkpt lat="41.790593" lon="2.512282">
        <ele>583.151</ele>
        <time>2019-01-17T11:03:15Z</time>
      </trkpt>
      <trkpt lat="41.790671" lon="2.512407">
        <ele>583.663</ele>
        <time>2019-01-17T11:03:28Z</time>
      </trkpt>
      <trkpt lat="41.790768" lon="2.512450">
        <ele>585.130</ele>
        <time>2019-01-17T11:03:40Z</time>
      </trkpt>
      <trkpt lat="41.790796" lon="2.512472">
        <ele>585.141</ele>
        <time>2019-01-17T11:04:37Z</time>
      </trkpt>
      <trkpt lat="41.790833" lon="2.512421">
        <ele>587.538</ele>
        <time>2019-01-17T11:05:44Z</time>
      </trkpt>
      <trkpt lat="41.790860" lon="2.512339">
        <ele>589.948</ele>
        <time>2019-01-17T11:06:04Z</time>
      </trkpt>
      <trkpt lat="41.791003" lon="2.512309">
        <ele>592.734</ele>
        <time>2019-01-17T11:06:21Z</time>
      </trkpt>
      <trkpt lat="41.791126" lon="2.512296">
        <ele>596.132</ele>
        <time>2019-01-17T11:06:37Z</time>
      </trkpt>
      <trkpt lat="41.791221" lon="2.512324">
        <ele>599.092</ele>
        <time>2019-01-17T11:06:52Z</time>
      </trkpt>
      <trkpt lat="41.791342" lon="2.512294">
        <ele>602.411</ele>
        <time>2019-01-17T11:07:15Z</time>
      </trkpt>
      <trkpt lat="41.791419" lon="2.512201">
        <ele>604.308</ele>
        <time>2019-01-17T11:07:27Z</time>
      </trkpt>
      <trkpt lat="41.791495" lon="2.512187">
        <ele>606.256</ele>
        <time>2019-01-17T11:07:39Z</time>
      </trkpt>
      <trkpt lat="41.791559" lon="2.512204">
        <ele>609.195</ele>
        <time>2019-01-17T11:07:55Z</time>
      </trkpt>
      <trkpt lat="41.791570" lon="2.512150">
        <ele>611.077</ele>
        <time>2019-01-17T11:08:09Z</time>
      </trkpt>
      <trkpt lat="41.791639" lon="2.512220">
        <ele>611.544</ele>
        <time>2019-01-17T11:08:19Z</time>
      </trkpt>
      <trkpt lat="41.791721" lon="2.512289">
        <ele>612.515</ele>
        <time>2019-01-17T11:08:29Z</time>
      </trkpt>
      <trkpt lat="41.791790" lon="2.512365">
        <ele>613.462</ele>
        <time>2019-01-17T11:08:39Z</time>
      </trkpt>
      <trkpt lat="41.791815" lon="2.512522">
        <ele>613.962</ele>
        <time>2019-01-17T11:08:49Z</time>
      </trkpt>
      <trkpt lat="41.791884" lon="2.512660">
        <ele>614.928</ele>
        <time>2019-01-17T11:08:58Z</time>
      </trkpt>
      <trkpt lat="41.791945" lon="2.512752">
        <ele>616.367</ele>
        <time>2019-01-17T11:09:06Z</time>
      </trkpt>
      <trkpt lat="41.792022" lon="2.512826">
        <ele>617.781</ele>
        <time>2019-01-17T11:09:14Z</time>
      </trkpt>
      <trkpt lat="41.792107" lon="2.512909">
        <ele>618.719</ele>
        <time>2019-01-17T11:09:23Z</time>
      </trkpt>
      <trkpt lat="41.792184" lon="2.512999">
        <ele>619.208</ele>
        <time>2019-01-17T11:09:32Z</time>
      </trkpt>
      <trkpt lat="41.792275" lon="2.513070">
        <ele>619.249</ele>
        <time>2019-01-17T11:09:41Z</time>
      </trkpt>
      <trkpt lat="41.792352" lon="2.513154">
        <ele>620.658</ele>
        <time>2019-01-17T11:09:51Z</time>
      </trkpt>
      <trkpt lat="41.792420" lon="2.513262">
        <ele>622.170</ele>
        <time>2019-01-17T11:10:01Z</time>
      </trkpt>
      <trkpt lat="41.792478" lon="2.513354">
        <ele>622.597</ele>
        <time>2019-01-17T11:10:08Z</time>
      </trkpt>
      <trkpt lat="41.792540" lon="2.513467">
        <ele>623.538</ele>
        <time>2019-01-17T11:10:17Z</time>
      </trkpt>
      <trkpt lat="41.792592" lon="2.513571">
        <ele>623.515</ele>
        <time>2019-01-17T11:10:26Z</time>
      </trkpt>
      <trkpt lat="41.792605" lon="2.513712">
        <ele>625.925</ele>
        <time>2019-01-17T11:10:37Z</time>
      </trkpt>
      <trkpt lat="41.792606" lon="2.513835">
        <ele>626.961</ele>
        <time>2019-01-17T11:10:47Z</time>
      </trkpt>
      <trkpt lat="41.792631" lon="2.513966">
        <ele>628.823</ele>
        <time>2019-01-17T11:10:57Z</time>
      </trkpt>
      <trkpt lat="41.792678" lon="2.514093">
        <ele>630.283</ele>
        <time>2019-01-17T11:11:06Z</time>
      </trkpt>
      <trkpt lat="41.792741" lon="2.514222">
        <ele>631.711</ele>
        <time>2019-01-17T11:11:16Z</time>
      </trkpt>
      <trkpt lat="41.792803" lon="2.514303">
        <ele>632.608</ele>
        <time>2019-01-17T11:11:25Z</time>
      </trkpt>
      <trkpt lat="41.792852" lon="2.514410">
        <ele>633.685</ele>
        <time>2019-01-17T11:11:34Z</time>
      </trkpt>
      <trkpt lat="41.792894" lon="2.514494">
        <ele>635.554</ele>
        <time>2019-01-17T11:11:45Z</time>
      </trkpt>
      <trkpt lat="41.792903" lon="2.514598">
        <ele>637.016</ele>
        <time>2019-01-17T11:11:56Z</time>
      </trkpt>
      <trkpt lat="41.792870" lon="2.514726">
        <ele>637.433</ele>
        <time>2019-01-17T11:12:04Z</time>
      </trkpt>
      <trkpt lat="41.792755" lon="2.514861">
        <ele>641.394</ele>
        <time>2019-01-17T11:12:22Z</time>
      </trkpt>
      <trkpt lat="41.792689" lon="2.514981">
        <ele>645.671</ele>
        <time>2019-01-17T11:12:50Z</time>
      </trkpt>
      <trkpt lat="41.792671" lon="2.515144">
        <ele>649.021</ele>
        <time>2019-01-17T11:13:09Z</time>
      </trkpt>
      <trkpt lat="41.792692" lon="2.515324">
        <ele>650.497</ele>
        <time>2019-01-17T11:13:24Z</time>
      </trkpt>
      <trkpt lat="41.792718" lon="2.515439">
        <ele>653.326</ele>
        <time>2019-01-17T11:13:39Z</time>
      </trkpt>
      <trkpt lat="41.792755" lon="2.515591">
        <ele>656.247</ele>
        <time>2019-01-17T11:13:54Z</time>
      </trkpt>
      <trkpt lat="41.792762" lon="2.515748">
        <ele>657.611</ele>
        <time>2019-01-17T11:14:06Z</time>
      </trkpt>
      <trkpt lat="41.792771" lon="2.515894">
        <ele>658.608</ele>
        <time>2019-01-17T11:14:17Z</time>
      </trkpt>
      <trkpt lat="41.792818" lon="2.516026">
        <ele>660.055</ele>
        <time>2019-01-17T11:14:29Z</time>
      </trkpt>
      <trkpt lat="41.792876" lon="2.516107">
        <ele>658.164</ele>
        <time>2019-01-17T11:14:38Z</time>
      </trkpt>
      <trkpt lat="41.792973" lon="2.516182">
        <ele>657.266</ele>
        <time>2019-01-17T11:14:46Z</time>
      </trkpt>
      <trkpt lat="41.793096" lon="2.516260">
        <ele>656.763</ele>
        <time>2019-01-17T11:14:58Z</time>
      </trkpt>
      <trkpt lat="41.793211" lon="2.516276">
        <ele>657.264</ele>
        <time>2019-01-17T11:15:06Z</time>
      </trkpt>
      <trkpt lat="41.793302" lon="2.516266">
        <ele>657.261</ele>
        <time>2019-01-17T11:15:12Z</time>
      </trkpt>
      <trkpt lat="41.793393" lon="2.516264">
        <ele>657.221</ele>
        <time>2019-01-17T11:15:21Z</time>
      </trkpt>
      <trkpt lat="41.793510" lon="2.516268">
        <ele>656.797</ele>
        <time>2019-01-17T11:15:30Z</time>
      </trkpt>
      <trkpt lat="41.793618" lon="2.516275">
        <ele>657.625</ele>
        <time>2019-01-17T11:15:37Z</time>
      </trkpt>
      <trkpt lat="41.793678" lon="2.516348">
        <ele>658.626</ele>
        <time>2019-01-17T11:15:50Z</time>
      </trkpt>
      <trkpt lat="41.793733" lon="2.516450">
        <ele>658.108</ele>
        <time>2019-01-17T11:16:17Z</time>
      </trkpt>
      <trkpt lat="41.793787" lon="2.516503">
        <ele>655.708</ele>
        <time>2019-01-17T11:16:30Z</time>
      </trkpt>
      <trkpt lat="41.793871" lon="2.516543">
        <ele>653.835</ele>
        <time>2019-01-17T11:16:41Z</time>
      </trkpt>
      <trkpt lat="41.794002" lon="2.516689">
        <ele>653.834</ele>
        <time>2019-01-17T11:16:54Z</time>
      </trkpt>
      <trkpt lat="41.794115" lon="2.516772">
        <ele>652.866</ele>
        <time>2019-01-17T11:17:03Z</time>
      </trkpt>
      <trkpt lat="41.794207" lon="2.516833">
        <ele>650.923</ele>
        <time>2019-01-17T11:17:15Z</time>
      </trkpt>
      <trkpt lat="41.794295" lon="2.516897">
        <ele>649.534</ele>
        <time>2019-01-17T11:17:26Z</time>
      </trkpt>
      <trkpt lat="41.794408" lon="2.516970">
        <ele>648.551</ele>
        <time>2019-01-17T11:17:36Z</time>
      </trkpt>
      <trkpt lat="41.794507" lon="2.517056">
        <ele>648.551</ele>
        <time>2019-01-17T11:17:44Z</time>
      </trkpt>
      <trkpt lat="41.794599" lon="2.517165">
        <ele>648.067</ele>
        <time>2019-01-17T11:17:54Z</time>
      </trkpt>
      <trkpt lat="41.794652" lon="2.517293">
        <ele>646.654</ele>
        <time>2019-01-17T11:18:01Z</time>
      </trkpt>
      <trkpt lat="41.794730" lon="2.517401">
        <ele>646.156</ele>
        <time>2019-01-17T11:18:09Z</time>
      </trkpt>
      <trkpt lat="41.794780" lon="2.517503">
        <ele>645.611</ele>
        <time>2019-01-17T11:18:18Z</time>
      </trkpt>
      <trkpt lat="41.794841" lon="2.517623">
        <ele>644.708</ele>
        <time>2019-01-17T11:18:28Z</time>
      </trkpt>
      <trkpt lat="41.794917" lon="2.517764">
        <ele>644.748</ele>
        <time>2019-01-17T11:18:35Z</time>
      </trkpt>
      <trkpt lat="41.794965" lon="2.517886">
        <ele>643.747</ele>
        <time>2019-01-17T11:18:43Z</time>
      </trkpt>
      <trkpt lat="41.795021" lon="2.517994">
        <ele>643.729</ele>
        <time>2019-01-17T11:18:51Z</time>
      </trkpt>
      <trkpt lat="41.795076" lon="2.518140">
        <ele>643.296</ele>
        <time>2019-01-17T11:19:00Z</time>
      </trkpt>
      <trkpt lat="41.795136" lon="2.518246">
        <ele>641.857</ele>
        <time>2019-01-17T11:19:08Z</time>
      </trkpt>
      <trkpt lat="41.795253" lon="2.518293">
        <ele>638.964</ele>
        <time>2019-01-17T11:19:20Z</time>
      </trkpt>
      <trkpt lat="41.795341" lon="2.518322">
        <ele>638.424</ele>
        <time>2019-01-17T11:19:29Z</time>
      </trkpt>
      <trkpt lat="41.795426" lon="2.518409">
        <ele>636.560</ele>
        <time>2019-01-17T11:19:41Z</time>
      </trkpt>
      <trkpt lat="41.795508" lon="2.518517">
        <ele>635.047</ele>
        <time>2019-01-17T11:19:52Z</time>
      </trkpt>
      <trkpt lat="41.795554" lon="2.518645">
        <ele>633.629</ele>
        <time>2019-01-17T11:20:02Z</time>
      </trkpt>
      <trkpt lat="41.795561" lon="2.518773">
        <ele>633.121</ele>
        <time>2019-01-17T11:20:09Z</time>
      </trkpt>
      <trkpt lat="41.795579" lon="2.518851">
        <ele>632.208</ele>
        <time>2019-01-17T11:20:19Z</time>
      </trkpt>
      <trkpt lat="41.795586" lon="2.518981">
        <ele>629.877</ele>
        <time>2019-01-17T11:20:28Z</time>
      </trkpt>
      <trkpt lat="41.795612" lon="2.519074">
        <ele>628.826</ele>
        <time>2019-01-17T11:20:37Z</time>
      </trkpt>
      <trkpt lat="41.795671" lon="2.519098">
        <ele>627.868</ele>
        <time>2019-01-17T11:20:46Z</time>
      </trkpt>
      <trkpt lat="41.795741" lon="2.519036">
        <ele>627.815</ele>
        <time>2019-01-17T11:20:56Z</time>
      </trkpt>
      <trkpt lat="41.795820" lon="2.518820">
        <ele>627.476</ele>
        <time>2019-01-17T11:21:04Z</time>
      </trkpt>
      <trkpt lat="41.795854" lon="2.518651">
        <ele>627.473</ele>
        <time>2019-01-17T11:21:12Z</time>
      </trkpt>
      <trkpt lat="41.795879" lon="2.518545">
        <ele>627.843</ele>
        <time>2019-01-17T11:21:19Z</time>
      </trkpt>
      <trkpt lat="41.795896" lon="2.518428">
        <ele>626.479</ele>
        <time>2019-01-17T11:21:29Z</time>
      </trkpt>
      <trkpt lat="41.795923" lon="2.518282">
        <ele>625.429</ele>
        <time>2019-01-17T11:21:40Z</time>
      </trkpt>
      <trkpt lat="41.795975" lon="2.518180">
        <ele>626.400</ele>
        <time>2019-01-17T11:21:50Z</time>
      </trkpt>
      <trkpt lat="41.796068" lon="2.518109">
        <ele>626.420</ele>
        <time>2019-01-17T11:21:59Z</time>
      </trkpt>
      <trkpt lat="41.796174" lon="2.518041">
        <ele>625.908</ele>
        <time>2019-01-17T11:22:09Z</time>
      </trkpt>
      <trkpt lat="41.796282" lon="2.517994">
        <ele>626.965</ele>
        <time>2019-01-17T11:22:18Z</time>
      </trkpt>
      <trkpt lat="41.796359" lon="2.517984">
        <ele>626.944</ele>
        <time>2019-01-17T11:22:26Z</time>
      </trkpt>
      <trkpt lat="41.796472" lon="2.517948">
        <ele>625.486</ele>
        <time>2019-01-17T11:22:38Z</time>
      </trkpt>
      <trkpt lat="41.796582" lon="2.517943">
        <ele>623.513</ele>
        <time>2019-01-17T11:22:48Z</time>
      </trkpt>
      <trkpt lat="41.796684" lon="2.517948">
        <ele>622.554</ele>
        <time>2019-01-17T11:22:58Z</time>
      </trkpt>
      <trkpt lat="41.796805" lon="2.517965">
        <ele>622.151</ele>
        <time>2019-01-17T11:23:35Z</time>
      </trkpt>
      <trkpt lat="41.796898" lon="2.517999">
        <ele>619.781</ele>
        <time>2019-01-17T11:24:07Z</time>
      </trkpt>
      <trkpt lat="41.796966" lon="2.518039">
        <ele>616.887</ele>
        <time>2019-01-17T11:24:23Z</time>
      </trkpt>
      <trkpt lat="41.797035" lon="2.518027">
        <ele>612.578</ele>
        <time>2019-01-17T11:24:46Z</time>
      </trkpt>
      <trkpt lat="41.797182" lon="2.517952">
        <ele>609.133</ele>
        <time>2019-01-17T11:25:03Z</time>
      </trkpt>
      <trkpt lat="41.797279" lon="2.517926">
        <ele>606.226</ele>
        <time>2019-01-17T11:25:23Z</time>
      </trkpt>
      <trkpt lat="41.797409" lon="2.517950">
        <ele>603.308</ele>
        <time>2019-01-17T11:25:42Z</time>
      </trkpt>
      <trkpt lat="41.797529" lon="2.517963">
        <ele>597.690</ele>
        <time>2019-01-17T11:26:08Z</time>
      </trkpt>
      <trkpt lat="41.797638" lon="2.517968">
        <ele>594.779</ele>
        <time>2019-01-17T11:26:22Z</time>
      </trkpt>
      <trkpt lat="41.797761" lon="2.517963">
        <ele>591.331</ele>
        <time>2019-01-17T11:26:45Z</time>
      </trkpt>
      <trkpt lat="41.797825" lon="2.517836">
        <ele>588.448</ele>
        <time>2019-01-17T11:27:02Z</time>
      </trkpt>
      <trkpt lat="41.797953" lon="2.517740">
        <ele>584.139</ele>
        <time>2019-01-17T11:27:29Z</time>
      </trkpt>
      <trkpt lat="41.798009" lon="2.517605">
        <ele>581.716</ele>
        <time>2019-01-17T11:27:49Z</time>
      </trkpt>
      <trkpt lat="41.798053" lon="2.517461">
        <ele>578.366</ele>
        <time>2019-01-17T11:28:09Z</time>
      </trkpt>
      <trkpt lat="41.798134" lon="2.517384">
        <ele>575.922</ele>
        <time>2019-01-17T11:28:25Z</time>
      </trkpt>
      <trkpt lat="41.798267" lon="2.517319">
        <ele>572.192</ele>
        <time>2019-01-17T11:28:55Z</time>
      </trkpt>
      <trkpt lat="41.798378" lon="2.517246">
        <ele>566.873</ele>
        <time>2019-01-17T11:29:20Z</time>
      </trkpt>
      <trkpt lat="41.798515" lon="2.517190">
        <ele>562.920</ele>
        <time>2019-01-17T11:29:48Z</time>
      </trkpt>
      <trkpt lat="41.798651" lon="2.517175">
        <ele>559.608</ele>
        <time>2019-01-17T11:30:15Z</time>
      </trkpt>
      <trkpt lat="41.798718" lon="2.517112">
        <ele>556.772</ele>
        <time>2019-01-17T11:30:39Z</time>
      </trkpt>
      <trkpt lat="41.798844" lon="2.517030">
        <ele>552.971</ele>
        <time>2019-01-17T11:31:01Z</time>
      </trkpt>
      <trkpt lat="41.798937" lon="2.516926">
        <ele>550.033</ele>
        <time>2019-01-17T11:31:21Z</time>
      </trkpt>
      <trkpt lat="41.799068" lon="2.516850">
        <ele>548.060</ele>
        <time>2019-01-17T11:31:35Z</time>
      </trkpt>
      <trkpt lat="41.799187" lon="2.516811">
        <ele>546.611</ele>
        <time>2019-01-17T11:31:46Z</time>
      </trkpt>
      <trkpt lat="41.799312" lon="2.516761">
        <ele>545.658</ele>
        <time>2019-01-17T11:31:59Z</time>
      </trkpt>
      <trkpt lat="41.799433" lon="2.516683">
        <ele>544.738</ele>
        <time>2019-01-17T11:32:14Z</time>
      </trkpt>
      <trkpt lat="41.799482" lon="2.516574">
        <ele>545.264</ele>
        <time>2019-01-17T11:32:26Z</time>
      </trkpt>
      <trkpt lat="41.799432" lon="2.516436">
        <ele>543.268</ele>
        <time>2019-01-17T11:33:15Z</time>
      </trkpt>
      <trkpt lat="41.799375" lon="2.516316">
        <ele>540.442</ele>
        <time>2019-01-17T11:33:30Z</time>
      </trkpt>
      <trkpt lat="41.799329" lon="2.516177">
        <ele>537.526</ele>
        <time>2019-01-17T11:33:43Z</time>
      </trkpt>
      <trkpt lat="41.799326" lon="2.516011">
        <ele>533.608</ele>
        <time>2019-01-17T11:34:02Z</time>
      </trkpt>
      <trkpt lat="41.799327" lon="2.515836">
        <ele>529.829</ele>
        <time>2019-01-17T11:34:23Z</time>
      </trkpt>
      <trkpt lat="41.799335" lon="2.515693">
        <ele>526.428</ele>
        <time>2019-01-17T11:34:40Z</time>
      </trkpt>
      <trkpt lat="41.799279" lon="2.515603">
        <ele>524.080</ele>
        <time>2019-01-17T11:34:54Z</time>
      </trkpt>
      <trkpt lat="41.799263" lon="2.515425">
        <ele>523.077</ele>
        <time>2019-01-17T11:35:04Z</time>
      </trkpt>
      <trkpt lat="41.799350" lon="2.515332">
        <ele>521.118</ele>
        <time>2019-01-17T11:35:24Z</time>
      </trkpt>
      <trkpt lat="41.799421" lon="2.515317">
        <ele>517.385</ele>
        <time>2019-01-17T11:35:51Z</time>
      </trkpt>
      <trkpt lat="41.799425" lon="2.515424">
        <ele>514.485</ele>
        <time>2019-01-17T11:36:08Z</time>
      </trkpt>
      <trkpt lat="41.799589" lon="2.515462">
        <ele>511.071</ele>
        <time>2019-01-17T11:36:30Z</time>
      </trkpt>
      <trkpt lat="41.799791" lon="2.515425">
        <ele>507.235</ele>
        <time>2019-01-17T11:36:53Z</time>
      </trkpt>
      <trkpt lat="41.799915" lon="2.515376">
        <ele>504.386</ele>
        <time>2019-01-17T11:37:09Z</time>
      </trkpt>
      <trkpt lat="41.800033" lon="2.515350">
        <ele>501.414</ele>
        <time>2019-01-17T11:37:29Z</time>
      </trkpt>
      <trkpt lat="41.800143" lon="2.515330">
        <ele>497.108</ele>
        <time>2019-01-17T11:37:54Z</time>
      </trkpt>
      <trkpt lat="41.800271" lon="2.515381">
        <ele>494.236</ele>
        <time>2019-01-17T11:38:19Z</time>
      </trkpt>
      <trkpt lat="41.800377" lon="2.515408">
        <ele>490.465</ele>
        <time>2019-01-17T11:38:36Z</time>
      </trkpt>
      <trkpt lat="41.800514" lon="2.515427">
        <ele>486.587</ele>
        <time>2019-01-17T11:39:00Z</time>
      </trkpt>
      <trkpt lat="41.800617" lon="2.515403">
        <ele>483.624</ele>
        <time>2019-01-17T11:39:20Z</time>
      </trkpt>
      <trkpt lat="41.800702" lon="2.515410">
        <ele>479.365</ele>
        <time>2019-01-17T11:39:46Z</time>
      </trkpt>
      <trkpt lat="41.800793" lon="2.515423">
        <ele>475.992</ele>
        <time>2019-01-17T11:40:09Z</time>
      </trkpt>
      <trkpt lat="41.800884" lon="2.515489">
        <ele>473.112</ele>
        <time>2019-01-17T11:40:35Z</time>
      </trkpt>
      <trkpt lat="41.801009" lon="2.515529">
        <ele>469.798</ele>
        <time>2019-01-17T11:40:56Z</time>
      </trkpt>
      <trkpt lat="41.801097" lon="2.515523">
        <ele>467.348</ele>
        <time>2019-01-17T11:41:15Z</time>
      </trkpt>
      <trkpt lat="41.801205" lon="2.515443">
        <ele>462.061</ele>
        <time>2019-01-17T11:41:45Z</time>
      </trkpt>
      <trkpt lat="41.801291" lon="2.515363">
        <ele>458.617</ele>
        <time>2019-01-17T11:42:02Z</time>
      </trkpt>
      <trkpt lat="41.801420" lon="2.515295">
        <ele>456.708</ele>
        <time>2019-01-17T11:42:17Z</time>
      </trkpt>
      <trkpt lat="41.801553" lon="2.515252">
        <ele>453.457</ele>
        <time>2019-01-17T11:42:38Z</time>
      </trkpt>
      <trkpt lat="41.801595" lon="2.515147">
        <ele>451.026</ele>
        <time>2019-01-17T11:42:52Z</time>
      </trkpt>
      <trkpt lat="41.801634" lon="2.515007">
        <ele>448.158</ele>
        <time>2019-01-17T11:43:09Z</time>
      </trkpt>
      <trkpt lat="41.801677" lon="2.514868">
        <ele>446.195</ele>
        <time>2019-01-17T11:43:23Z</time>
      </trkpt>
      <trkpt lat="41.801670" lon="2.514724">
        <ele>443.356</ele>
        <time>2019-01-17T11:43:39Z</time>
      </trkpt>
      <trkpt lat="41.801707" lon="2.514655">
        <ele>440.943</ele>
        <time>2019-01-17T11:43:55Z</time>
      </trkpt>
      <trkpt lat="41.801828" lon="2.514533">
        <ele>438.523</ele>
        <time>2019-01-17T11:45:05Z</time>
      </trkpt>
      <trkpt lat="41.801864" lon="2.514576">
        <ele>435.139</ele>
        <time>2019-01-17T11:45:43Z</time>
      </trkpt>
      <trkpt lat="41.801950" lon="2.514671">
        <ele>432.263</ele>
        <time>2019-01-17T11:46:01Z</time>
      </trkpt>
      <trkpt lat="41.802064" lon="2.514706">
        <ele>428.844</ele>
        <time>2019-01-17T11:46:20Z</time>
      </trkpt>
      <trkpt lat="41.802140" lon="2.514795">
        <ele>427.418</ele>
        <time>2019-01-17T11:46:35Z</time>
      </trkpt>
      <trkpt lat="41.802202" lon="2.514887">
        <ele>426.008</ele>
        <time>2019-01-17T11:46:45Z</time>
      </trkpt>
      <trkpt lat="41.802267" lon="2.514924">
        <ele>425.059</ele>
        <time>2019-01-17T11:47:01Z</time>
      </trkpt>
      <trkpt lat="41.802334" lon="2.514846">
        <ele>424.558</ele>
        <time>2019-01-17T11:47:12Z</time>
      </trkpt>
      <trkpt lat="41.802435" lon="2.514726">
        <ele>423.670</ele>
        <time>2019-01-17T11:47:21Z</time>
      </trkpt>
      <trkpt lat="41.802540" lon="2.514653">
        <ele>423.137</ele>
        <time>2019-01-17T11:47:47Z</time>
      </trkpt>
      <trkpt lat="41.802613" lon="2.514638">
        <ele>422.138</ele>
        <time>2019-01-17T11:48:00Z</time>
      </trkpt>
      <trkpt lat="41.802718" lon="2.514647">
        <ele>421.615</ele>
        <time>2019-01-17T11:48:10Z</time>
      </trkpt>
      <trkpt lat="41.802796" lon="2.514641">
        <ele>419.255</ele>
        <time>2019-01-17T11:48:22Z</time>
      </trkpt>
      <trkpt lat="41.802924" lon="2.514642">
        <ele>417.821</ele>
        <time>2019-01-17T11:48:32Z</time>
      </trkpt>
      <trkpt lat="41.803001" lon="2.514702">
        <ele>415.499</ele>
        <time>2019-01-17T11:48:44Z</time>
      </trkpt>
      <trkpt lat="41.803110" lon="2.514760">
        <ele>413.507</ele>
        <time>2019-01-17T11:48:53Z</time>
      </trkpt>
      <trkpt lat="41.803189" lon="2.514834">
        <ele>413.527</ele>
        <time>2019-01-17T11:49:01Z</time>
      </trkpt>
      <trkpt lat="41.803298" lon="2.514881">
        <ele>411.508</ele>
        <time>2019-01-17T11:49:14Z</time>
      </trkpt>
      <trkpt lat="41.803359" lon="2.514980">
        <ele>407.772</ele>
        <time>2019-01-17T11:49:29Z</time>
      </trkpt>
      <trkpt lat="41.803407" lon="2.515102">
        <ele>404.851</ele>
        <time>2019-01-17T11:49:42Z</time>
      </trkpt>
      <trkpt lat="41.803476" lon="2.515174">
        <ele>402.983</ele>
        <time>2019-01-17T11:49:52Z</time>
      </trkpt>
      <trkpt lat="41.803552" lon="2.515182">
        <ele>401.050</ele>
        <time>2019-01-17T11:50:03Z</time>
      </trkpt>
      <trkpt lat="41.803632" lon="2.515228">
        <ele>397.141</ele>
        <time>2019-01-17T11:50:40Z</time>
      </trkpt>
      <trkpt lat="41.803731" lon="2.515255">
        <ele>395.248</ele>
        <time>2019-01-17T11:50:55Z</time>
      </trkpt>
      <trkpt lat="41.803851" lon="2.515279">
        <ele>392.358</ele>
        <time>2019-01-17T11:51:13Z</time>
      </trkpt>
      <trkpt lat="41.803951" lon="2.515276">
        <ele>390.444</ele>
        <time>2019-01-17T11:51:36Z</time>
      </trkpt>
      <trkpt lat="41.804061" lon="2.515183">
        <ele>387.592</ele>
        <time>2019-01-17T11:51:54Z</time>
      </trkpt>
      <trkpt lat="41.804177" lon="2.515134">
        <ele>386.173</ele>
        <time>2019-01-17T11:52:09Z</time>
      </trkpt>
      <trkpt lat="41.804286" lon="2.515155">
        <ele>385.120</ele>
        <time>2019-01-17T11:52:21Z</time>
      </trkpt>
      <trkpt lat="41.804383" lon="2.515185">
        <ele>382.708</ele>
        <time>2019-01-17T11:52:35Z</time>
      </trkpt>
      <trkpt lat="41.804476" lon="2.515089">
        <ele>380.852</ele>
        <time>2019-01-17T11:52:50Z</time>
      </trkpt>
      <trkpt lat="41.804553" lon="2.515014">
        <ele>376.491</ele>
        <time>2019-01-17T11:53:13Z</time>
      </trkpt>
      <trkpt lat="41.804690" lon="2.514941">
        <ele>375.043</ele>
        <time>2019-01-17T11:54:12Z</time>
      </trkpt>
      <trkpt lat="41.804837" lon="2.514914">
        <ele>371.270</ele>
        <time>2019-01-17T11:55:13Z</time>
      </trkpt>
      <trkpt lat="41.804954" lon="2.514905">
        <ele>368.311</ele>
        <time>2019-01-17T11:56:55Z</time>
      </trkpt>
      <trkpt lat="41.805083" lon="2.514899">
        <ele>363.518</ele>
        <time>2019-01-17T11:57:18Z</time>
      </trkpt>
      <trkpt lat="41.805299" lon="2.514899">
        <ele>358.768</ele>
        <time>2019-01-17T11:57:42Z</time>
      </trkpt>
      <trkpt lat="41.805382" lon="2.514976">
        <ele>357.774</ele>
        <time>2019-01-17T11:57:55Z</time>
      </trkpt>
      <trkpt lat="41.805477" lon="2.515052">
        <ele>355.391</ele>
        <time>2019-01-17T11:58:27Z</time>
      </trkpt>
      <trkpt lat="41.805576" lon="2.515135">
        <ele>351.981</ele>
        <time>2019-01-17T11:58:39Z</time>
      </trkpt>
      <trkpt lat="41.805655" lon="2.515151">
        <ele>349.519</ele>
        <time>2019-01-17T11:58:50Z</time>
      </trkpt>
      <trkpt lat="41.805762" lon="2.515191">
        <ele>348.108</ele>
        <time>2019-01-17T11:58:59Z</time>
      </trkpt>
      <trkpt lat="41.805854" lon="2.515222">
        <ele>345.732</ele>
        <time>2019-01-17T11:59:08Z</time>
      </trkpt>
      <trkpt lat="41.805958" lon="2.515239">
        <ele>343.831</ele>
        <time>2019-01-17T11:59:17Z</time>
      </trkpt>
      <trkpt lat="41.806059" lon="2.515246">
        <ele>342.333</ele>
        <time>2019-01-17T11:59:27Z</time>
      </trkpt>
      <trkpt lat="41.806136" lon="2.515217">
        <ele>339.090</ele>
        <time>2019-01-17T11:59:40Z</time>
      </trkpt>
      <trkpt lat="41.806266" lon="2.515120">
        <ele>336.151</ele>
        <time>2019-01-17T11:59:55Z</time>
      </trkpt>
      <trkpt lat="41.806398" lon="2.515149">
        <ele>332.278</ele>
        <time>2019-01-17T12:00:09Z</time>
      </trkpt>
      <trkpt lat="41.806464" lon="2.515114">
        <ele>328.438</ele>
        <time>2019-01-17T12:00:27Z</time>
      </trkpt>
      <trkpt lat="41.806558" lon="2.515058">
        <ele>326.084</ele>
        <time>2019-01-17T12:00:42Z</time>
      </trkpt>
      <trkpt lat="41.806642" lon="2.514967">
        <ele>323.161</ele>
        <time>2019-01-17T12:01:03Z</time>
      </trkpt>
      <trkpt lat="41.806752" lon="2.515020">
        <ele>319.321</ele>
        <time>2019-01-17T12:01:51Z</time>
      </trkpt>
      <trkpt lat="41.806779" lon="2.515122">
        <ele>317.813</ele>
        <time>2019-01-17T12:02:29Z</time>
      </trkpt>
      <trkpt lat="41.806807" lon="2.515324">
        <ele>318.808</ele>
        <time>2019-01-17T12:02:44Z</time>
      </trkpt>
      <trkpt lat="41.806885" lon="2.515432">
        <ele>320.789</ele>
        <time>2019-01-17T12:02:54Z</time>
      </trkpt>
      <trkpt lat="41.806989" lon="2.515507">
        <ele>324.128</ele>
        <time>2019-01-17T12:03:14Z</time>
      </trkpt>
      <trkpt lat="41.807117" lon="2.515589">
        <ele>327.950</ele>
        <time>2019-01-17T12:03:34Z</time>
      </trkpt>
      <trkpt lat="41.807266" lon="2.515739">
        <ele>329.867</ele>
        <time>2019-01-17T12:03:46Z</time>
      </trkpt>
      <trkpt lat="41.807376" lon="2.515855">
        <ele>332.718</ele>
        <time>2019-01-17T12:04:01Z</time>
      </trkpt>
      <trkpt lat="41.807512" lon="2.515994">
        <ele>334.245</ele>
        <time>2019-01-17T12:04:15Z</time>
      </trkpt>
      <trkpt lat="41.807626" lon="2.516125">
        <ele>334.615</ele>
        <time>2019-01-17T12:04:28Z</time>
      </trkpt>
      <trkpt lat="41.807748" lon="2.516226">
        <ele>336.661</ele>
        <time>2019-01-17T12:04:42Z</time>
      </trkpt>
      <trkpt lat="41.807847" lon="2.516297">
        <ele>338.019</ele>
        <time>2019-01-17T12:04:53Z</time>
      </trkpt>
      <trkpt lat="41.807972" lon="2.516403">
        <ele>340.909</ele>
        <time>2019-01-17T12:05:05Z</time>
      </trkpt>
      <trkpt lat="41.808086" lon="2.516496">
        <ele>342.819</ele>
        <time>2019-01-17T12:05:17Z</time>
      </trkpt>
      <trkpt lat="41.808204" lon="2.516593">
        <ele>345.708</ele>
        <time>2019-01-17T12:05:32Z</time>
      </trkpt>
      <trkpt lat="41.808364" lon="2.516709">
        <ele>349.184</ele>
        <time>2019-01-17T12:05:47Z</time>
      </trkpt>
      <trkpt lat="41.808454" lon="2.516797">
        <ele>352.943</ele>
        <time>2019-01-17T12:06:08Z</time>
      </trkpt>
      <trkpt lat="41.808551" lon="2.516919">
        <ele>356.355</ele>
        <time>2019-01-17T12:06:21Z</time>
      </trkpt>
      <trkpt lat="41.808569" lon="2.516976">
        <ele>358.232</ele>
        <time>2019-01-17T12:06:34Z</time>
      </trkpt>
      <trkpt lat="41.808616" lon="2.517016">
        <ele>358.783</ele>
        <time>2019-01-17T12:06:44Z</time>
      </trkpt>
      <trkpt lat="41.808708" lon="2.516907">
        <ele>358.240</ele>
        <time>2019-01-17T12:06:54Z</time>
      </trkpt>
      <trkpt lat="41.808808" lon="2.516801">
        <ele>357.760</ele>
        <time>2019-01-17T12:07:04Z</time>
      </trkpt>
      <trkpt lat="41.808900" lon="2.516711">
        <ele>357.796</ele>
        <time>2019-01-17T12:07:12Z</time>
      </trkpt>
      <trkpt lat="41.808990" lon="2.516615">
        <ele>356.754</ele>
        <time>2019-01-17T12:07:22Z</time>
      </trkpt>
      <trkpt lat="41.809076" lon="2.516511">
        <ele>356.356</ele>
        <time>2019-01-17T12:07:30Z</time>
      </trkpt>
      <trkpt lat="41.809162" lon="2.516416">
        <ele>357.211</ele>
        <time>2019-01-17T12:07:40Z</time>
      </trkpt>
      <trkpt lat="41.809240" lon="2.516349">
        <ele>357.208</ele>
        <time>2019-01-17T12:07:48Z</time>
      </trkpt>
      <trkpt lat="41.809340" lon="2.516237">
        <ele>356.368</ele>
        <time>2019-01-17T12:07:59Z</time>
      </trkpt>
      <trkpt lat="41.809419" lon="2.516124">
        <ele>355.387</ele>
        <time>2019-01-17T12:08:08Z</time>
      </trkpt>
      <trkpt lat="41.809496" lon="2.516034">
        <ele>354.839</ele>
        <time>2019-01-17T12:08:15Z</time>
      </trkpt>
      <trkpt lat="41.809585" lon="2.515967">
        <ele>354.346</ele>
        <time>2019-01-17T12:08:24Z</time>
      </trkpt>
      <trkpt lat="41.809667" lon="2.515870">
        <ele>354.387</ele>
        <time>2019-01-17T12:08:32Z</time>
      </trkpt>
      <trkpt lat="41.809704" lon="2.515746">
        <ele>354.814</ele>
        <time>2019-01-17T12:08:41Z</time>
      </trkpt>
      <trkpt lat="41.809749" lon="2.515613">
        <ele>355.894</ele>
        <time>2019-01-17T12:08:50Z</time>
      </trkpt>
      <trkpt lat="41.809809" lon="2.515452">
        <ele>357.770</ele>
        <time>2019-01-17T12:08:59Z</time>
      </trkpt>
      <trkpt lat="41.809879" lon="2.515403">
        <ele>358.263</ele>
        <time>2019-01-17T12:09:09Z</time>
      </trkpt>
      <trkpt lat="41.809962" lon="2.515369">
        <ele>359.144</ele>
        <time>2019-01-17T12:09:27Z</time>
      </trkpt>
      <trkpt lat="41.809979" lon="2.515341">
        <ele>360.118</ele>
        <time>2019-01-17T12:09:36Z</time>
      </trkpt>
      <trkpt lat="41.810125" lon="2.515259">
        <ele>362.508</ele>
        <time>2019-01-17T12:09:45Z</time>
      </trkpt>
      <trkpt lat="41.810206" lon="2.515168">
        <ele>362.039</ele>
        <time>2019-01-17T12:09:52Z</time>
      </trkpt>
      <trkpt lat="41.810281" lon="2.515080">
        <ele>361.558</ele>
        <time>2019-01-17T12:10:00Z</time>
      </trkpt>
      <trkpt lat="41.810358" lon="2.514980">
        <ele>362.060</ele>
        <time>2019-01-17T12:10:08Z</time>
      </trkpt>
      <trkpt lat="41.810423" lon="2.514894">
        <ele>361.177</ele>
        <time>2019-01-17T12:10:16Z</time>
      </trkpt>
      <trkpt lat="41.810506" lon="2.514792">
        <ele>359.638</ele>
        <time>2019-01-17T12:10:26Z</time>
      </trkpt>
      <trkpt lat="41.810556" lon="2.514740">
        <ele>359.665</ele>
        <time>2019-01-17T12:10:34Z</time>
      </trkpt>
      <trkpt lat="41.810632" lon="2.514649">
        <ele>358.785</ele>
        <time>2019-01-17T12:10:41Z</time>
      </trkpt>
      <trkpt lat="41.810709" lon="2.514535">
        <ele>358.261</ele>
        <time>2019-01-17T12:10:51Z</time>
      </trkpt>
      <trkpt lat="41.810757" lon="2.514416">
        <ele>356.359</ele>
        <time>2019-01-17T12:10:59Z</time>
      </trkpt>
      <trkpt lat="41.810799" lon="2.514308">
        <ele>355.803</ele>
        <time>2019-01-17T12:11:06Z</time>
      </trkpt>
      <trkpt lat="41.810843" lon="2.514181">
        <ele>354.823</ele>
        <time>2019-01-17T12:11:23Z</time>
      </trkpt>
      <trkpt lat="41.810890" lon="2.514040">
        <ele>352.908</ele>
        <time>2019-01-17T12:11:32Z</time>
      </trkpt>
      <trkpt lat="41.810939" lon="2.513923">
        <ele>351.558</ele>
        <time>2019-01-17T12:11:42Z</time>
      </trkpt>
      <trkpt lat="41.811037" lon="2.513850">
        <ele>349.597</ele>
        <time>2019-01-17T12:11:54Z</time>
      </trkpt>
      <trkpt lat="41.811088" lon="2.513706">
        <ele>344.779</ele>
        <time>2019-01-17T12:12:17Z</time>
      </trkpt>
      <trkpt lat="41.811039" lon="2.513489">
        <ele>339.466</ele>
        <time>2019-01-17T12:12:44Z</time>
      </trkpt>
      <trkpt lat="41.811080" lon="2.513456">
        <ele>337.077</ele>
        <time>2019-01-17T12:13:44Z</time>
      </trkpt>
      <trkpt lat="41.811178" lon="2.513434">
        <ele>336.664</ele>
        <time>2019-01-17T12:14:10Z</time>
      </trkpt>
      <trkpt lat="41.811305" lon="2.513338">
        <ele>337.084</ele>
        <time>2019-01-17T12:14:21Z</time>
      </trkpt>
      <trkpt lat="41.811435" lon="2.513347">
        <ele>337.040</ele>
        <time>2019-01-17T12:14:33Z</time>
      </trkpt>
      <trkpt lat="41.811528" lon="2.513424">
        <ele>338.037</ele>
        <time>2019-01-17T12:14:44Z</time>
      </trkpt>
      <trkpt lat="41.811632" lon="2.513498">
        <ele>338.549</ele>
        <time>2019-01-17T12:14:56Z</time>
      </trkpt>
      <trkpt lat="41.811719" lon="2.513714">
        <ele>339.013</ele>
        <time>2019-01-17T12:15:07Z</time>
      </trkpt>
      <trkpt lat="41.811803" lon="2.513873">
        <ele>340.408</ele>
        <time>2019-01-17T12:15:16Z</time>
      </trkpt>
      <trkpt lat="41.811898" lon="2.513907">
        <ele>342.396</ele>
        <time>2019-01-17T12:15:30Z</time>
      </trkpt>
      <trkpt lat="41.811997" lon="2.513891">
        <ele>344.735</ele>
        <time>2019-01-17T12:15:46Z</time>
      </trkpt>
      <trkpt lat="41.812083" lon="2.513882">
        <ele>348.677</ele>
        <time>2019-01-17T12:16:01Z</time>
      </trkpt>
      <trkpt lat="41.812189" lon="2.514000">
        <ele>350.014</ele>
        <time>2019-01-17T12:16:12Z</time>
      </trkpt>
      <trkpt lat="41.812310" lon="2.514048">
        <ele>349.585</ele>
        <time>2019-01-17T12:16:21Z</time>
      </trkpt>
      <trkpt lat="41.812380" lon="2.514101">
        <ele>346.252</ele>
        <time>2019-01-17T12:16:35Z</time>
      </trkpt>
      <trkpt lat="41.812461" lon="2.514239">
        <ele>345.222</ele>
        <time>2019-01-17T12:16:42Z</time>
      </trkpt>
      <trkpt lat="41.812550" lon="2.514358">
        <ele>342.848</ele>
        <time>2019-01-17T12:16:50Z</time>
      </trkpt>
      <trkpt lat="41.812597" lon="2.514428">
        <ele>342.377</ele>
        <time>2019-01-17T12:16:57Z</time>
      </trkpt>
      <trkpt lat="41.812647" lon="2.514533">
        <ele>339.961</ele>
        <time>2019-01-17T12:17:06Z</time>
      </trkpt>
      <trkpt lat="41.812688" lon="2.514623">
        <ele>338.527</ele>
        <time>2019-01-17T12:17:20Z</time>
      </trkpt>
      <trkpt lat="41.812753" lon="2.514715">
        <ele>338.008</ele>
        <time>2019-01-17T12:17:46Z</time>
      </trkpt>
      <trkpt lat="41.812792" lon="2.514722">
        <ele>338.070</ele>
        <time>2019-01-17T12:18:28Z</time>
      </trkpt>
      <trkpt lat="41.812814" lon="2.514822">
        <ele>335.669</ele>
        <time>2019-01-17T12:18:40Z</time>
      </trkpt>
      <trkpt lat="41.812815" lon="2.514911">
        <ele>332.791</ele>
        <time>2019-01-17T12:18:53Z</time>
      </trkpt>
      <trkpt lat="41.812885" lon="2.514944">
        <ele>329.848</ele>
        <time>2019-01-17T12:19:06Z</time>
      </trkpt>
      <trkpt lat="41.812951" lon="2.514825">
        <ele>326.999</ele>
        <time>2019-01-17T12:19:19Z</time>
      </trkpt>
      <trkpt lat="41.812990" lon="2.514876">
        <ele>323.156</ele>
        <time>2019-01-17T12:19:37Z</time>
      </trkpt>
      <trkpt lat="41.813080" lon="2.514882">
        <ele>322.146</ele>
        <time>2019-01-17T12:19:46Z</time>
      </trkpt>
      <trkpt lat="41.813113" lon="2.514714">
        <ele>319.722</ele>
        <time>2019-01-17T12:19:56Z</time>
      </trkpt>
      <trkpt lat="41.813219" lon="2.514617">
        <ele>318.353</ele>
        <time>2019-01-17T12:20:09Z</time>
      </trkpt>
      <trkpt lat="41.813287" lon="2.514548">
        <ele>316.404</ele>
        <time>2019-01-17T12:20:17Z</time>
      </trkpt>
      <trkpt lat="41.813359" lon="2.514482">
        <ele>314.914</ele>
        <time>2019-01-17T12:20:25Z</time>
      </trkpt>
      <trkpt lat="41.813414" lon="2.514441">
        <ele>313.508</ele>
        <time>2019-01-17T12:20:34Z</time>
      </trkpt>
      <trkpt lat="41.813495" lon="2.514361">
        <ele>312.098</ele>
        <time>2019-01-17T12:20:43Z</time>
      </trkpt>
      <trkpt lat="41.813581" lon="2.514247">
        <ele>309.657</ele>
        <time>2019-01-17T12:20:53Z</time>
      </trkpt>
      <trkpt lat="41.813644" lon="2.514077">
        <ele>307.229</ele>
        <time>2019-01-17T12:21:03Z</time>
      </trkpt>
      <trkpt lat="41.813741" lon="2.514084">
        <ele>308.256</ele>
        <time>2019-01-17T12:21:12Z</time>
      </trkpt>
      <trkpt lat="41.813846" lon="2.514161">
        <ele>308.267</ele>
        <time>2019-01-17T12:21:21Z</time>
      </trkpt>
      <trkpt lat="41.813932" lon="2.514183">
        <ele>308.274</ele>
        <time>2019-01-17T12:21:29Z</time>
      </trkpt>
      <trkpt lat="41.814016" lon="2.514195">
        <ele>306.824</ele>
        <time>2019-01-17T12:21:40Z</time>
      </trkpt>
      <trkpt lat="41.814189" lon="2.514225">
        <ele>303.960</ele>
        <time>2019-01-17T12:21:52Z</time>
      </trkpt>
      <trkpt lat="41.814289" lon="2.514250">
        <ele>302.911</ele>
        <time>2019-01-17T12:22:03Z</time>
      </trkpt>
      <trkpt lat="41.814302" lon="2.514345">
        <ele>301.521</ele>
        <time>2019-01-17T12:22:10Z</time>
      </trkpt>
      <trkpt lat="41.814498" lon="2.514416">
        <ele>301.003</ele>
        <time>2019-01-17T12:22:19Z</time>
      </trkpt>
      <trkpt lat="41.814571" lon="2.514376">
        <ele>298.108</ele>
        <time>2019-01-17T12:22:42Z</time>
      </trkpt>
      <trkpt lat="41.814623" lon="2.514278">
        <ele>296.274</ele>
        <time>2019-01-17T12:22:53Z</time>
      </trkpt>
      <trkpt lat="41.814695" lon="2.514278">
        <ele>294.753</ele>
        <time>2019-01-17T12:23:04Z</time>
      </trkpt>
      <trkpt lat="41.814741" lon="2.514108">
        <ele>294.385</ele>
        <time>2019-01-17T12:23:13Z</time>
      </trkpt>
      <trkpt lat="41.814780" lon="2.513990">
        <ele>293.852</ele>
        <time>2019-01-17T12:23:20Z</time>
      </trkpt>
      <trkpt lat="41.814839" lon="2.513862">
        <ele>292.813</ele>
        <time>2019-01-17T12:23:30Z</time>
      </trkpt>
      <trkpt lat="41.814950" lon="2.513871">
        <ele>290.950</ele>
        <time>2019-01-17T12:23:41Z</time>
      </trkpt>
      <trkpt lat="41.815064" lon="2.513907">
        <ele>290.980</ele>
        <time>2019-01-17T12:23:52Z</time>
      </trkpt>
      <trkpt lat="41.815211" lon="2.513957">
        <ele>289.936</ele>
        <time>2019-01-17T12:24:01Z</time>
      </trkpt>
      <trkpt lat="41.815290" lon="2.513980">
        <ele>289.971</ele>
        <time>2019-01-17T12:24:09Z</time>
      </trkpt>
      <trkpt lat="41.815409" lon="2.514014">
        <ele>289.041</ele>
        <time>2019-01-17T12:24:20Z</time>
      </trkpt>
      <trkpt lat="41.815507" lon="2.514039">
        <ele>289.415</ele>
        <time>2019-01-17T12:24:28Z</time>
      </trkpt>
      <trkpt lat="41.815622" lon="2.514035">
        <ele>289.008</ele>
        <time>2019-01-17T12:24:35Z</time>
      </trkpt>
      <trkpt lat="41.815741" lon="2.514053">
        <ele>289.030</ele>
        <time>2019-01-17T12:24:46Z</time>
      </trkpt>
      <trkpt lat="41.815855" lon="2.514074">
        <ele>289.049</ele>
        <time>2019-01-17T12:24:57Z</time>
      </trkpt>
      <trkpt lat="41.816019" lon="2.514115">
        <ele>289.421</ele>
        <time>2019-01-17T12:25:07Z</time>
      </trkpt>
      <trkpt lat="41.816071" lon="2.514251">
        <ele>289.028</ele>
        <time>2019-01-17T12:25:18Z</time>
      </trkpt>
      <trkpt lat="41.816119" lon="2.514316">
        <ele>288.599</ele>
        <time>2019-01-17T12:25:26Z</time>
      </trkpt>
      <trkpt lat="41.816935" lon="2.514388">
        <ele>291.954</ele>
        <time>2020-10-12T07:00:41Z</time>
      </trkpt>
      <trkpt lat="41.817002" lon="2.514393">
        <ele>291.956</ele>
        <time>2020-10-12T07:00:42Z</time>
      </trkpt>
      <trkpt lat="41.817022" lon="2.514327">
        <ele>251.011</ele>
        <time>2020-10-12T07:00:47Z</time>
      </trkpt>
      <trkpt lat="41.817047" lon="2.514256">
        <ele>251.008</ele>
        <time>2020-10-12T07:00:48Z</time>
      </trkpt>
      <trkpt lat="41.817076" lon="2.514166">
        <ele>252.020</ele>
        <time>2020-10-12T07:01:12Z</time>
      </trkpt>
      <trkpt lat="41.817101" lon="2.514092">
        <ele>252.494</ele>
        <time>2020-10-12T07:01:31Z</time>
      </trkpt>
      <trkpt lat="41.817140" lon="2.513982">
        <ele>252.991</ele>
        <time>2020-10-12T07:02:06Z</time>
      </trkpt>
      <trkpt lat="41.817178" lon="2.513887">
        <ele>253.457</ele>
        <time>2020-10-12T07:02:29Z</time>
      </trkpt>
      <trkpt lat="41.817193" lon="2.513829">
        <ele>266.440</ele>
        <time>2020-10-12T07:06:13Z</time>
      </trkpt>
      <trkpt lat="41.817212" lon="2.513778">
        <ele>265.917</ele>
        <time>2020-10-12T07:06:27Z</time>
      </trkpt>
      <trkpt lat="41.817245" lon="2.513696">
        <ele>266.968</ele>
        <time>2020-10-12T07:06:42Z</time>
      </trkpt>
      <trkpt lat="41.817277" lon="2.513597">
        <ele>266.436</ele>
        <time>2020-10-12T07:06:54Z</time>
      </trkpt>
      <trkpt lat="41.817317" lon="2.513488">
        <ele>266.912</ele>
        <time>2020-10-12T07:07:02Z</time>
      </trkpt>
      <trkpt lat="41.817351" lon="2.513389">
        <ele>267.332</ele>
        <time>2020-10-12T07:07:08Z</time>
      </trkpt>
      <trkpt lat="41.817376" lon="2.513321">
        <ele>267.305</ele>
        <time>2020-10-12T07:07:24Z</time>
      </trkpt>
      <trkpt lat="41.817416" lon="2.513202">
        <ele>267.308</ele>
        <time>2020-10-12T07:07:38Z</time>
      </trkpt>
      <trkpt lat="41.817455" lon="2.513093">
        <ele>267.836</ele>
        <time>2020-10-12T07:07:54Z</time>
      </trkpt>
      <trkpt lat="41.817489" lon="2.512987">
        <ele>267.810</ele>
        <time>2020-10-12T07:08:11Z</time>
      </trkpt>
      <trkpt lat="41.817531" lon="2.512870">
        <ele>268.347</ele>
        <time>2020-10-12T07:08:14Z</time>
      </trkpt>
      <trkpt lat="41.817556" lon="2.512788">
        <ele>268.383</ele>
        <time>2020-10-12T07:08:15Z</time>
      </trkpt>
      <trkpt lat="41.817577" lon="2.512719">
        <ele>268.346</ele>
        <time>2020-10-12T07:08:18Z</time>
      </trkpt>
      <trkpt lat="41.817597" lon="2.512646">
        <ele>268.353</ele>
        <time>2020-10-12T07:08:25Z</time>
      </trkpt>
      <trkpt lat="41.817599" lon="2.512591">
        <ele>267.884</ele>
        <time>2020-10-12T07:08:26Z</time>
      </trkpt>
      <trkpt lat="41.817601" lon="2.512507">
        <ele>268.372</ele>
        <time>2020-10-12T07:08:39Z</time>
      </trkpt>
      <trkpt lat="41.817603" lon="2.512476">
        <ele>267.837</ele>
        <time>2020-10-12T07:08:57Z</time>
      </trkpt>
      <trkpt lat="41.817611" lon="2.512405">
        <ele>268.849</ele>
        <time>2020-10-12T07:09:12Z</time>
      </trkpt>
      <trkpt lat="41.817619" lon="2.512334">
        <ele>269.313</ele>
        <time>2020-10-12T07:09:14Z</time>
      </trkpt>
      <trkpt lat="41.817633" lon="2.512252">
        <ele>269.308</ele>
        <time>2020-10-12T07:09:15Z</time>
      </trkpt>
      <trkpt lat="41.817640" lon="2.512152">
        <ele>269.358</ele>
        <time>2020-10-12T07:09:16Z</time>
      </trkpt>
      <trkpt lat="41.817649" lon="2.512070">
        <ele>269.312</ele>
        <time>2020-10-12T07:09:17Z</time>
      </trkpt>
      <trkpt lat="41.817662" lon="2.511962">
        <ele>268.859</ele>
        <time>2020-10-12T07:09:18Z</time>
      </trkpt>
      <trkpt lat="41.817671" lon="2.511862">
        <ele>268.865</ele>
        <time>2020-10-12T07:09:19Z</time>
      </trkpt>
      <trkpt lat="41.817681" lon="2.511778">
        <ele>268.828</ele>
        <time>2020-10-12T07:09:20Z</time>
      </trkpt>
      <trkpt lat="41.817712" lon="2.511696">
        <ele>269.385</ele>
        <time>2020-10-12T07:09:21Z</time>
      </trkpt>
      <trkpt lat="41.817726" lon="2.511643">
        <ele>268.826</ele>
        <time>2020-10-12T07:09:22Z</time>
      </trkpt>
      <trkpt lat="41.817742" lon="2.511597">
        <ele>269.324</ele>
        <time>2020-10-12T07:09:23Z</time>
      </trkpt>
      <trkpt lat="41.817769" lon="2.511564">
        <ele>268.377</ele>
        <time>2020-10-12T07:09:24Z</time>
      </trkpt>
      <trkpt lat="41.817783" lon="2.511524">
        <ele>268.361</ele>
        <time>2020-10-12T07:09:25Z</time>
      </trkpt>
      <trkpt lat="41.817783" lon="2.511442">
        <ele>268.827</ele>
        <time>2020-10-12T07:09:26Z</time>
      </trkpt>
      <trkpt lat="41.817785" lon="2.511380">
        <ele>268.308</ele>
        <time>2020-10-12T07:09:27Z</time>
      </trkpt>
      <trkpt lat="41.817785" lon="2.511300">
        <ele>268.892</ele>
        <time>2020-10-12T07:09:28Z</time>
      </trkpt>
      <trkpt lat="41.817790" lon="2.511240">
        <ele>268.346</ele>
        <time>2020-10-12T07:09:29Z</time>
      </trkpt>
      <trkpt lat="41.817790" lon="2.511185">
        <ele>268.833</ele>
        <time>2020-10-12T07:09:30Z</time>
      </trkpt>
      <trkpt lat="41.817803" lon="2.511125">
        <ele>268.399</ele>
        <time>2020-10-12T07:09:31Z</time>
      </trkpt>
      <trkpt lat="41.817808" lon="2.511094">
        <ele>268.322</ele>
        <time>2020-10-12T07:09:33Z</time>
      </trkpt>
      <trkpt lat="41.817813" lon="2.511061">
        <ele>268.859</ele>
        <time>2020-10-12T07:09:34Z</time>
      </trkpt>
      <trkpt lat="41.817787" lon="2.511023">
        <ele>268.890</ele>
        <time>2020-10-12T07:09:46Z</time>
      </trkpt>
      <trkpt lat="41.817765" lon="2.511032">
        <ele>268.878</ele>
        <time>2020-10-12T07:10:09Z</time>
      </trkpt>
      <trkpt lat="41.817775" lon="2.510957">
        <ele>269.748</ele>
        <time>2020-10-12T07:10:27Z</time>
      </trkpt>
      <trkpt lat="41.817767" lon="2.510945">
        <ele>269.761</ele>
        <time>2020-10-12T07:10:28Z</time>
      </trkpt>
      <trkpt lat="41.817750" lon="2.510918">
        <ele>269.717</ele>
        <time>2020-10-12T07:10:31Z</time>
      </trkpt>
      <trkpt lat="41.817744" lon="2.510902">
        <ele>270.208</ele>
        <time>2020-10-12T07:10:32Z</time>
      </trkpt>
      <trkpt lat="41.817739" lon="2.510886">
        <ele>269.799</ele>
        <time>2020-10-12T07:10:33Z</time>
      </trkpt>
      <trkpt lat="41.817725" lon="2.510837">
        <ele>270.213</ele>
        <time>2020-10-12T07:10:37Z</time>
      </trkpt>
      <trkpt lat="41.817705" lon="2.510720">
        <ele>269.750</ele>
        <time>2020-10-12T07:10:44Z</time>
      </trkpt>
      <trkpt lat="41.817696" lon="2.510705">
        <ele>269.736</ele>
        <time>2020-10-12T07:10:45Z</time>
      </trkpt>
      <trkpt lat="41.817686" lon="2.510693">
        <ele>269.759</ele>
        <time>2020-10-12T07:10:46Z</time>
      </trkpt>
      <trkpt lat="41.817676" lon="2.510679">
        <ele>270.296</ele>
        <time>2020-10-12T07:10:47Z</time>
      </trkpt>
      <trkpt lat="41.817667" lon="2.510666">
        <ele>270.227</ele>
        <time>2020-10-12T07:10:48Z</time>
      </trkpt>
      <trkpt lat="41.817658" lon="2.510654">
        <ele>270.285</ele>
        <time>2020-10-12T07:10:49Z</time>
      </trkpt>
      <trkpt lat="41.817649" lon="2.510640">
        <ele>270.731</ele>
        <time>2020-10-12T07:10:50Z</time>
      </trkpt>
      <trkpt lat="41.817602" lon="2.510556">
        <ele>271.761</ele>
        <time>2020-10-12T07:11:03Z</time>
      </trkpt>
      <trkpt lat="41.817567" lon="2.510532">
        <ele>271.207</ele>
        <time>2020-10-12T07:11:13Z</time>
      </trkpt>
      <trkpt lat="41.817546" lon="2.510482">
        <ele>271.208</ele>
        <time>2020-10-12T07:11:22Z</time>
      </trkpt>
      <trkpt lat="41.817543" lon="2.510466">
        <ele>272.178</ele>
        <time>2020-10-12T07:11:23Z</time>
      </trkpt>
      <trkpt lat="41.817539" lon="2.510452">
        <ele>271.762</ele>
        <time>2020-10-12T07:11:24Z</time>
      </trkpt>
      <trkpt lat="41.817536" lon="2.510366">
        <ele>270.799</ele>
        <time>2020-10-12T07:11:36Z</time>
      </trkpt>
      <trkpt lat="41.817542" lon="2.510337">
        <ele>270.275</ele>
        <time>2020-10-12T07:11:38Z</time>
      </trkpt>
      <trkpt lat="41.817582" lon="2.510111">
        <ele>269.368</ele>
        <time>2020-10-12T07:11:53Z</time>
      </trkpt>
      <trkpt lat="41.817585" lon="2.509864">
        <ele>270.265</ele>
        <time>2020-10-12T07:12:09Z</time>
      </trkpt>
      <trkpt lat="41.817587" lon="2.509619">
        <ele>270.296</ele>
        <time>2020-10-12T07:12:24Z</time>
      </trkpt>
      <trkpt lat="41.817580" lon="2.509433">
        <ele>271.244</ele>
        <time>2020-10-12T07:12:40Z</time>
      </trkpt>
      <trkpt lat="41.817641" lon="2.509175">
        <ele>271.245</ele>
        <time>2020-10-12T07:12:49Z</time>
      </trkpt>
      <trkpt lat="41.817675" lon="2.509006">
        <ele>270.747</ele>
        <time>2020-10-12T07:12:57Z</time>
      </trkpt>
      <trkpt lat="41.817709" lon="2.508908">
        <ele>270.211</ele>
        <time>2020-10-12T07:13:02Z</time>
      </trkpt>
      <trkpt lat="41.817765" lon="2.508773">
        <ele>272.608</ele>
        <time>2020-10-12T07:13:16Z</time>
      </trkpt>
      <trkpt lat="41.817788" lon="2.508691">
        <ele>272.129</ele>
        <time>2020-10-12T07:13:19Z</time>
      </trkpt>
      <trkpt lat="41.817812" lon="2.508632">
        <ele>272.633</ele>
        <time>2020-10-12T07:13:25Z</time>
      </trkpt>
      <trkpt lat="41.817841" lon="2.508419">
        <ele>272.680</ele>
        <time>2020-10-12T07:13:39Z</time>
      </trkpt>
      <trkpt lat="41.817892" lon="2.508240">
        <ele>273.196</ele>
        <time>2020-10-12T07:13:53Z</time>
      </trkpt>
      <trkpt lat="41.817877" lon="2.508076">
        <ele>271.259</ele>
        <time>2020-10-12T07:14:07Z</time>
      </trkpt>
      <trkpt lat="41.817885" lon="2.507994">
        <ele>269.766</ele>
        <time>2020-10-12T07:14:13Z</time>
      </trkpt>
      <trkpt lat="41.817877" lon="2.507930">
        <ele>268.837</ele>
        <time>2020-10-12T07:14:17Z</time>
      </trkpt>
      <trkpt lat="41.817852" lon="2.507809">
        <ele>269.395</ele>
        <time>2020-10-12T07:14:24Z</time>
      </trkpt>
      <trkpt lat="41.817868" lon="2.507719">
        <ele>268.859</ele>
        <time>2020-10-12T07:14:39Z</time>
      </trkpt>
      <trkpt lat="41.817925" lon="2.507678">
        <ele>269.703</ele>
        <time>2020-10-12T07:14:58Z</time>
      </trkpt>
      <trkpt lat="41.817909" lon="2.507540">
        <ele>269.723</ele>
        <time>2020-10-12T07:15:12Z</time>
      </trkpt>
      <trkpt lat="41.817910" lon="2.507420">
        <ele>270.208</ele>
        <time>2020-10-12T07:15:24Z</time>
      </trkpt>
      <trkpt lat="41.817928" lon="2.507254">
        <ele>270.230</ele>
        <time>2020-10-12T07:15:33Z</time>
      </trkpt>
      <trkpt lat="41.817941" lon="2.507132">
        <ele>271.284</ele>
        <time>2020-10-12T07:15:44Z</time>
      </trkpt>
      <trkpt lat="41.817949" lon="2.507067">
        <ele>272.121</ele>
        <time>2020-10-12T07:15:48Z</time>
      </trkpt>
      <trkpt lat="41.818000" lon="2.506902">
        <ele>272.667</ele>
        <time>2020-10-12T07:15:59Z</time>
      </trkpt>
      <trkpt lat="41.818047" lon="2.506730">
        <ele>273.690</ele>
        <time>2020-10-12T07:16:12Z</time>
      </trkpt>
      <trkpt lat="41.818063" lon="2.506711">
        <ele>273.187</ele>
        <time>2020-10-12T07:16:14Z</time>
      </trkpt>
      <trkpt lat="41.818179" lon="2.506525">
        <ele>274.568</ele>
        <time>2020-10-12T07:16:28Z</time>
      </trkpt>
      <trkpt lat="41.818339" lon="2.506323">
        <ele>275.546</ele>
        <time>2020-10-12T07:16:46Z</time>
      </trkpt>
      <trkpt lat="41.818501" lon="2.506128">
        <ele>276.543</ele>
        <time>2020-10-12T07:17:01Z</time>
      </trkpt>
      <trkpt lat="41.818623" lon="2.506020">
        <ele>277.964</ele>
        <time>2020-10-12T07:17:16Z</time>
      </trkpt>
      <trkpt lat="41.818692" lon="2.505922">
        <ele>278.910</ele>
        <time>2020-10-12T07:17:30Z</time>
      </trkpt>
      <trkpt lat="41.818692" lon="2.505899">
        <ele>278.908</ele>
        <time>2020-10-12T07:17:32Z</time>
      </trkpt>
      <trkpt lat="41.818726" lon="2.505862">
        <ele>278.969</ele>
        <time>2020-10-12T07:17:43Z</time>
      </trkpt>
      <trkpt lat="41.818734" lon="2.505836">
        <ele>279.443</ele>
        <time>2020-10-12T07:17:59Z</time>
      </trkpt>
      <trkpt lat="41.818747" lon="2.505810">
        <ele>278.980</ele>
        <time>2020-10-12T07:18:02Z</time>
      </trkpt>
      <trkpt lat="41.818830" lon="2.505633">
        <ele>280.316</ele>
        <time>2020-10-12T07:18:16Z</time>
      </trkpt>
      <trkpt lat="41.818846" lon="2.505612">
        <ele>280.359</ele>
        <time>2020-10-12T07:18:18Z</time>
      </trkpt>
      <trkpt lat="41.818906" lon="2.505505">
        <ele>279.816</ele>
        <time>2020-10-12T07:18:26Z</time>
      </trkpt>
      <trkpt lat="41.818969" lon="2.505301">
        <ele>280.877</ele>
        <time>2020-10-12T07:18:40Z</time>
      </trkpt>
      <trkpt lat="41.818987" lon="2.505250">
        <ele>281.325</ele>
        <time>2020-10-12T07:18:43Z</time>
      </trkpt>
      <trkpt lat="41.818975" lon="2.505056">
        <ele>282.292</ele>
        <time>2020-10-12T07:18:56Z</time>
      </trkpt>
      <trkpt lat="41.818978" lon="2.504911">
        <ele>283.273</ele>
        <time>2020-10-12T07:19:05Z</time>
      </trkpt>
      <trkpt lat="41.818967" lon="2.504880">
        <ele>282.720</ele>
        <time>2020-10-12T07:19:07Z</time>
      </trkpt>
      <trkpt lat="41.818937" lon="2.504664">
        <ele>283.708</ele>
        <time>2020-10-12T07:19:19Z</time>
      </trkpt>
      <trkpt lat="41.818940" lon="2.504638">
        <ele>283.734</ele>
        <time>2020-10-12T07:19:21Z</time>
      </trkpt>
      <trkpt lat="41.818937" lon="2.504488">
        <ele>283.718</ele>
        <time>2020-10-12T07:19:30Z</time>
      </trkpt>
      <trkpt lat="41.818938" lon="2.504342">
        <ele>283.785</ele>
        <time>2020-10-12T07:19:34Z</time>
      </trkpt>
      <trkpt lat="41.818942" lon="2.504269">
        <ele>283.731</ele>
        <time>2020-10-12T07:19:37Z</time>
      </trkpt>
      <trkpt lat="41.818940" lon="2.504152">
        <ele>284.274</ele>
        <time>2020-10-12T07:19:46Z</time>
      </trkpt>
      <trkpt lat="41.818962" lon="2.504006">
        <ele>284.661</ele>
        <time>2020-10-12T07:19:55Z</time>
      </trkpt>
      <trkpt lat="41.818980" lon="2.503837">
        <ele>286.662</ele>
        <time>2020-10-12T07:20:07Z</time>
      </trkpt>
      <trkpt lat="41.818983" lon="2.503798">
        <ele>286.640</ele>
        <time>2020-10-12T07:20:09Z</time>
      </trkpt>
      <trkpt lat="41.818991" lon="2.503731">
        <ele>286.194</ele>
        <time>2020-10-12T07:20:12Z</time>
      </trkpt>
      <trkpt lat="41.818994" lon="2.503661">
        <ele>287.057</ele>
        <time>2020-10-12T07:20:17Z</time>
      </trkpt>
      <trkpt lat="41.819012" lon="2.503554">
        <ele>287.522</ele>
        <time>2020-10-12T07:20:24Z</time>
      </trkpt>
      <trkpt lat="41.819030" lon="2.503437">
        <ele>288.008</ele>
        <time>2020-10-12T07:20:29Z</time>
      </trkpt>
      <trkpt lat="41.819055" lon="2.503324">
        <ele>287.544</ele>
        <time>2020-10-12T07:20:33Z</time>
      </trkpt>
      <trkpt lat="41.819053" lon="2.503224">
        <ele>287.018</ele>
        <time>2020-10-12T07:20:37Z</time>
      </trkpt>
      <trkpt lat="41.819037" lon="2.503090">
        <ele>287.525</ele>
        <time>2020-10-12T07:20:44Z</time>
      </trkpt>
      <trkpt lat="41.819034" lon="2.502858">
        <ele>288.051</ele>
        <time>2020-10-12T07:20:59Z</time>
      </trkpt>
      <trkpt lat="41.819030" lon="2.502738">
        <ele>288.094</ele>
        <time>2020-10-12T07:21:05Z</time>
      </trkpt>
      <trkpt lat="41.819008" lon="2.502659">
        <ele>288.081</ele>
        <time>2020-10-12T07:21:09Z</time>
      </trkpt>
      <trkpt lat="41.819014" lon="2.502530">
        <ele>288.582</ele>
        <time>2020-10-12T07:21:18Z</time>
      </trkpt>
      <trkpt lat="41.819084" lon="2.502383">
        <ele>289.480</ele>
        <time>2020-10-12T07:21:33Z</time>
      </trkpt>
      <trkpt lat="41.819130" lon="2.502218">
        <ele>290.439</ele>
        <time>2020-10-12T07:21:45Z</time>
      </trkpt>
      <trkpt lat="41.819137" lon="2.502168">
        <ele>290.901</ele>
        <time>2020-10-12T07:21:48Z</time>
      </trkpt>
      <trkpt lat="41.819165" lon="2.501933">
        <ele>291.921</ele>
        <time>2020-10-12T07:22:02Z</time>
      </trkpt>
      <trkpt lat="41.819194" lon="2.501724">
        <ele>291.908</ele>
        <time>2020-10-12T07:22:14Z</time>
      </trkpt>
      <trkpt lat="41.819207" lon="2.501510">
        <ele>292.348</ele>
        <time>2020-10-12T07:22:28Z</time>
      </trkpt>
      <trkpt lat="41.819220" lon="2.501440">
        <ele>292.332</ele>
        <time>2020-10-12T07:22:32Z</time>
      </trkpt>
      <trkpt lat="41.819217" lon="2.501246">
        <ele>293.329</ele>
        <time>2020-10-12T07:22:45Z</time>
      </trkpt>
      <trkpt lat="41.819177" lon="2.501168">
        <ele>293.355</ele>
        <time>2020-10-12T07:23:06Z</time>
      </trkpt>
      <trkpt lat="41.819160" lon="2.501020">
        <ele>293.868</ele>
        <time>2020-10-12T07:23:19Z</time>
      </trkpt>
      <trkpt lat="41.819054" lon="2.500949">
        <ele>294.385</ele>
        <time>2020-10-12T07:23:32Z</time>
      </trkpt>
      <trkpt lat="41.819031" lon="2.500934">
        <ele>293.846</ele>
        <time>2020-10-12T07:23:34Z</time>
      </trkpt>
      <trkpt lat="41.819017" lon="2.500866">
        <ele>294.784</ele>
        <time>2020-10-12T07:23:42Z</time>
      </trkpt>
      <trkpt lat="41.818995" lon="2.500818">
        <ele>294.759</ele>
        <time>2020-10-12T07:23:52Z</time>
      </trkpt>
      <trkpt lat="41.818971" lon="2.500691">
        <ele>294.303</ele>
        <time>2020-10-12T07:24:04Z</time>
      </trkpt>
      <trkpt lat="41.818944" lon="2.500644">
        <ele>293.823</ele>
        <time>2020-10-12T07:24:08Z</time>
      </trkpt>
      <trkpt lat="41.818865" lon="2.500572">
        <ele>294.308</ele>
        <time>2020-10-12T07:24:18Z</time>
      </trkpt>
      <trkpt lat="41.818734" lon="2.500545">
        <ele>294.740</ele>
        <time>2020-10-12T07:24:33Z</time>
      </trkpt>
      <trkpt lat="41.818602" lon="2.500497">
        <ele>295.794</ele>
        <time>2020-10-12T07:24:45Z</time>
      </trkpt>
      <trkpt lat="41.818453" lon="2.500467">
        <ele>296.261</ele>
        <time>2020-10-12T07:24:55Z</time>
      </trkpt>
      <trkpt lat="41.818310" lon="2.500416">
        <ele>295.737</ele>
        <time>2020-10-12T07:25:05Z</time>
      </trkpt>
      <trkpt lat="41.818197" lon="2.500287">
        <ele>295.780</ele>
        <time>2020-10-12T07:25:19Z</time>
      </trkpt>
      <trkpt lat="41.818164" lon="2.500235">
        <ele>296.217</ele>
        <time>2020-10-12T07:25:22Z</time>
      </trkpt>
      <trkpt lat="41.818124" lon="2.500175">
        <ele>296.238</ele>
        <time>2020-10-12T07:25:26Z</time>
      </trkpt>
      <trkpt lat="41.817985" lon="2.500049">
        <ele>296.276</ele>
        <time>2020-10-12T07:25:37Z</time>
      </trkpt>
      <trkpt lat="41.817943" lon="2.499973">
        <ele>297.113</ele>
        <time>2020-10-12T07:25:44Z</time>
      </trkpt>
      <trkpt lat="41.817887" lon="2.499794">
        <ele>297.143</ele>
        <time>2020-10-12T07:25:58Z</time>
      </trkpt>
      <trkpt lat="41.817887" lon="2.499734">
        <ele>298.107</ele>
        <time>2020-10-12T07:26:12Z</time>
      </trkpt>
      <trkpt lat="41.817854" lon="2.499716">
        <ele>297.608</ele>
        <time>2020-10-12T07:26:21Z</time>
      </trkpt>
      <trkpt lat="41.817846" lon="2.499675">
        <ele>299.116</ele>
        <time>2020-10-12T07:26:24Z</time>
      </trkpt>
      <trkpt lat="41.817847" lon="2.499645">
        <ele>299.520</ele>
        <time>2020-10-12T07:26:27Z</time>
      </trkpt>
      <trkpt lat="41.817810" lon="2.499457">
        <ele>299.567</ele>
        <time>2020-10-12T07:26:42Z</time>
      </trkpt>
      <trkpt lat="41.817799" lon="2.499399">
        <ele>299.513</ele>
        <time>2020-10-12T07:26:45Z</time>
      </trkpt>
      <trkpt lat="41.817837" lon="2.499317">
        <ele>300.556</ele>
        <time>2020-10-12T07:26:58Z</time>
      </trkpt>
      <trkpt lat="41.817875" lon="2.499397">
        <ele>302.963</ele>
        <time>2020-10-12T07:27:12Z</time>
      </trkpt>
      <trkpt lat="41.817880" lon="2.499405">
        <ele>302.924</ele>
        <time>2020-10-12T07:27:13Z</time>
      </trkpt>
      <trkpt lat="41.817923" lon="2.499478">
        <ele>304.392</ele>
        <time>2020-10-12T07:27:21Z</time>
      </trkpt>
      <trkpt lat="41.817945" lon="2.499513">
        <ele>304.851</ele>
        <time>2020-10-12T07:27:24Z</time>
      </trkpt>
      <trkpt lat="41.818040" lon="2.499605">
        <ele>307.201</ele>
        <time>2020-10-12T07:27:38Z</time>
      </trkpt>
      <trkpt lat="41.818044" lon="2.499513">
        <ele>308.711</ele>
        <time>2020-10-12T07:27:48Z</time>
      </trkpt>
      <trkpt lat="41.817988" lon="2.499353">
        <ele>309.208</ele>
        <time>2020-10-12T07:28:04Z</time>
      </trkpt>
      <trkpt lat="41.817983" lon="2.499248">
        <ele>311.170</ele>
        <time>2020-10-12T07:28:15Z</time>
      </trkpt>
      <trkpt lat="41.817969" lon="2.499172">
        <ele>314.434</ele>
        <time>2020-10-12T07:28:24Z</time>
      </trkpt>
      <trkpt lat="41.817968" lon="2.499126">
        <ele>315.441</ele>
        <time>2020-10-12T07:28:28Z</time>
      </trkpt>
      <trkpt lat="41.817966" lon="2.499117">
        <ele>315.987</ele>
        <time>2020-10-12T07:28:29Z</time>
      </trkpt>
      <trkpt lat="41.817967" lon="2.499070">
        <ele>316.830</ele>
        <time>2020-10-12T07:28:34Z</time>
      </trkpt>
      <trkpt lat="41.817922" lon="2.498890">
        <ele>318.847</ele>
        <time>2020-10-12T07:28:48Z</time>
      </trkpt>
      <trkpt lat="41.817903" lon="2.498848">
        <ele>319.348</ele>
        <time>2020-10-12T07:29:13Z</time>
      </trkpt>
      <trkpt lat="41.817940" lon="2.498856">
        <ele>319.316</ele>
        <time>2020-10-12T07:29:37Z</time>
      </trkpt>
      <trkpt lat="41.817940" lon="2.498821">
        <ele>319.344</ele>
        <time>2020-10-12T07:29:53Z</time>
      </trkpt>
      <trkpt lat="41.817903" lon="2.498704">
        <ele>317.305</ele>
        <time>2020-10-12T07:30:04Z</time>
      </trkpt>
      <trkpt lat="41.817806" lon="2.498550">
        <ele>319.715</ele>
        <time>2020-10-12T07:30:18Z</time>
      </trkpt>
      <trkpt lat="41.817680" lon="2.498417">
        <ele>319.708</ele>
        <time>2020-10-12T07:30:32Z</time>
      </trkpt>
      <trkpt lat="41.817601" lon="2.498305">
        <ele>317.339</ele>
        <time>2020-10-12T07:30:41Z</time>
      </trkpt>
      <trkpt lat="41.817537" lon="2.498216">
        <ele>314.413</ele>
        <time>2020-10-12T07:30:52Z</time>
      </trkpt>
      <trkpt lat="41.817448" lon="2.498170">
        <ele>311.650</ele>
        <time>2020-10-12T07:31:03Z</time>
      </trkpt>
      <trkpt lat="41.817357" lon="2.498174">
        <ele>310.166</ele>
        <time>2020-10-12T07:31:10Z</time>
      </trkpt>
      <trkpt lat="41.817239" lon="2.498158">
        <ele>307.299</ele>
        <time>2020-10-12T07:31:24Z</time>
      </trkpt>
      <trkpt lat="41.817110" lon="2.498205">
        <ele>306.356</ele>
        <time>2020-10-12T07:31:38Z</time>
      </trkpt>
      <trkpt lat="41.816996" lon="2.498207">
        <ele>305.877</ele>
        <time>2020-10-12T07:31:44Z</time>
      </trkpt>
      <trkpt lat="41.816969" lon="2.498203">
        <ele>306.335</ele>
        <time>2020-10-12T07:31:46Z</time>
      </trkpt>
      <trkpt lat="41.816861" lon="2.498183">
        <ele>306.886</ele>
        <time>2020-10-12T07:31:59Z</time>
      </trkpt>
      <trkpt lat="41.816851" lon="2.498178">
        <ele>306.860</ele>
        <time>2020-10-12T07:32:00Z</time>
      </trkpt>
      <trkpt lat="41.816652" lon="2.498054">
        <ele>306.826</ele>
        <time>2020-10-12T07:32:14Z</time>
      </trkpt>
      <trkpt lat="41.816615" lon="2.498014">
        <ele>306.808</ele>
        <time>2020-10-12T07:32:19Z</time>
      </trkpt>
      <trkpt lat="41.816542" lon="2.497988">
        <ele>307.793</ele>
        <time>2020-10-12T07:32:26Z</time>
      </trkpt>
      <trkpt lat="41.816515" lon="2.497960">
        <ele>307.267</ele>
        <time>2020-10-12T07:32:31Z</time>
      </trkpt>
      <trkpt lat="41.816517" lon="2.497934">
        <ele>307.774</ele>
        <time>2020-10-12T07:32:32Z</time>
      </trkpt>
      <trkpt lat="41.816556" lon="2.497912">
        <ele>310.190</ele>
        <time>2020-10-12T07:32:42Z</time>
      </trkpt>
      <trkpt lat="41.816618" lon="2.497924">
        <ele>311.143</ele>
        <time>2020-10-12T07:32:48Z</time>
      </trkpt>
      <trkpt lat="41.816699" lon="2.497891">
        <ele>312.570</ele>
        <time>2020-10-12T07:32:57Z</time>
      </trkpt>
      <trkpt lat="41.816647" lon="2.497806">
        <ele>315.491</ele>
        <time>2020-10-12T07:33:08Z</time>
      </trkpt>
      <trkpt lat="41.816581" lon="2.497635">
        <ele>316.859</ele>
        <time>2020-10-12T07:33:21Z</time>
      </trkpt>
      <trkpt lat="41.816551" lon="2.497591">
        <ele>317.855</ele>
        <time>2020-10-12T07:33:27Z</time>
      </trkpt>
      <trkpt lat="41.816508" lon="2.497460">
        <ele>316.407</ele>
        <time>2020-10-12T07:33:38Z</time>
      </trkpt>
      <trkpt lat="41.816530" lon="2.497376">
        <ele>313.517</ele>
        <time>2020-10-12T07:33:48Z</time>
      </trkpt>
      <trkpt lat="41.816514" lon="2.497276">
        <ele>311.608</ele>
        <time>2020-10-12T07:33:59Z</time>
      </trkpt>
      <trkpt lat="41.816445" lon="2.497263">
        <ele>310.690</ele>
        <time>2020-10-12T07:34:06Z</time>
      </trkpt>
      <trkpt lat="41.816317" lon="2.497194">
        <ele>311.634</ele>
        <time>2020-10-12T07:34:17Z</time>
      </trkpt>
      <trkpt lat="41.816312" lon="2.497151">
        <ele>311.661</ele>
        <time>2020-10-12T07:34:21Z</time>
      </trkpt>
      <trkpt lat="41.816308" lon="2.497063">
        <ele>312.557</ele>
        <time>2020-10-12T07:34:26Z</time>
      </trkpt>
      <trkpt lat="41.816268" lon="2.496916">
        <ele>312.020</ele>
        <time>2020-10-12T07:34:35Z</time>
      </trkpt>
      <trkpt lat="41.816176" lon="2.496716">
        <ele>314.097</ele>
        <time>2020-10-12T07:34:50Z</time>
      </trkpt>
      <trkpt lat="41.816165" lon="2.496439">
        <ele>314.478</ele>
        <time>2020-10-12T07:35:06Z</time>
      </trkpt>
      <trkpt lat="41.816235" lon="2.496294">
        <ele>313.596</ele>
        <time>2020-10-12T07:35:20Z</time>
      </trkpt>
      <trkpt lat="41.816266" lon="2.496253">
        <ele>314.445</ele>
        <time>2020-10-12T07:35:24Z</time>
      </trkpt>
      <trkpt lat="41.816388" lon="2.496167">
        <ele>314.447</ele>
        <time>2020-10-12T07:35:38Z</time>
      </trkpt>
      <trkpt lat="41.816540" lon="2.496114">
        <ele>314.911</ele>
        <time>2020-10-12T07:35:51Z</time>
      </trkpt>
      <trkpt lat="41.816715" lon="2.496033">
        <ele>316.408</ele>
        <time>2020-10-12T07:36:04Z</time>
      </trkpt>
      <trkpt lat="41.816749" lon="2.495987">
        <ele>316.499</ele>
        <time>2020-10-12T07:36:19Z</time>
      </trkpt>
      <trkpt lat="41.816733" lon="2.495953">
        <ele>316.873</ele>
        <time>2020-10-12T07:36:24Z</time>
      </trkpt>
      <trkpt lat="41.816703" lon="2.495828">
        <ele>317.340</ele>
        <time>2020-10-12T07:36:38Z</time>
      </trkpt>
      <trkpt lat="41.816651" lon="2.495810">
        <ele>317.366</ele>
        <time>2020-10-12T07:36:44Z</time>
      </trkpt>
      <trkpt lat="41.816603" lon="2.495796">
        <ele>317.899</ele>
        <time>2020-10-12T07:36:50Z</time>
      </trkpt>
      <trkpt lat="41.816439" lon="2.495821">
        <ele>317.856</ele>
        <time>2020-10-12T07:37:02Z</time>
      </trkpt>
      <trkpt lat="41.816339" lon="2.495830">
        <ele>318.377</ele>
        <time>2020-10-12T07:37:16Z</time>
      </trkpt>
      <trkpt lat="41.816244" lon="2.495798">
        <ele>319.725</ele>
        <time>2020-10-12T07:37:25Z</time>
      </trkpt>
      <trkpt lat="41.816108" lon="2.495764">
        <ele>321.212</ele>
        <time>2020-10-12T07:37:40Z</time>
      </trkpt>
      <trkpt lat="41.816062" lon="2.495733">
        <ele>322.632</ele>
        <time>2020-10-12T07:37:53Z</time>
      </trkpt>
      <trkpt lat="41.816029" lon="2.495678">
        <ele>322.605</ele>
        <time>2020-10-12T07:37:55Z</time>
      </trkpt>
      <trkpt lat="41.816009" lon="2.495585">
        <ele>323.608</ele>
        <time>2020-10-12T07:37:57Z</time>
      </trkpt>
      <trkpt lat="41.816002" lon="2.495520">
        <ele>323.616</ele>
        <time>2020-10-12T07:38:07Z</time>
      </trkpt>
      <trkpt lat="41.816051" lon="2.495467">
        <ele>324.130</ele>
        <time>2020-10-12T07:38:15Z</time>
      </trkpt>
      <trkpt lat="41.816130" lon="2.495410">
        <ele>325.067</ele>
        <time>2020-10-12T07:38:25Z</time>
      </trkpt>
      <trkpt lat="41.816230" lon="2.495388">
        <ele>324.523</ele>
        <time>2020-10-12T07:38:37Z</time>
      </trkpt>
      <trkpt lat="41.816295" lon="2.495366">
        <ele>324.516</ele>
        <time>2020-10-12T07:38:43Z</time>
      </trkpt>
      <trkpt lat="41.816416" lon="2.495361">
        <ele>324.183</ele>
        <time>2020-10-12T07:38:44Z</time>
      </trkpt>
      <trkpt lat="41.816566" lon="2.495377">
        <ele>325.044</ele>
        <time>2020-10-12T07:38:59Z</time>
      </trkpt>
      <trkpt lat="41.816771" lon="2.495428">
        <ele>325.092</ele>
        <time>2020-10-12T07:39:01Z</time>
      </trkpt>
      <trkpt lat="41.816873" lon="2.495449">
        <ele>325.065</ele>
        <time>2020-10-12T07:39:14Z</time>
      </trkpt>
      <trkpt lat="41.816902" lon="2.495456">
        <ele>325.568</ele>
        <time>2020-10-12T07:39:16Z</time>
      </trkpt>
      <trkpt lat="41.816934" lon="2.495460">
        <ele>325.014</ele>
        <time>2020-10-12T07:39:18Z</time>
      </trkpt>
      <trkpt lat="41.816958" lon="2.495469">
        <ele>325.008</ele>
        <time>2020-10-12T07:39:21Z</time>
      </trkpt>
      <trkpt lat="41.817017" lon="2.495482">
        <ele>324.531</ele>
        <time>2020-10-12T07:39:23Z</time>
      </trkpt>
      <trkpt lat="41.817126" lon="2.495524">
        <ele>325.075</ele>
        <time>2020-10-12T07:39:33Z</time>
      </trkpt>
      <trkpt lat="41.817229" lon="2.495566">
        <ele>325.522</ele>
        <time>2020-10-12T07:39:44Z</time>
      </trkpt>
      <trkpt lat="41.817279" lon="2.495600">
        <ele>325.028</ele>
        <time>2020-10-12T07:39:45Z</time>
      </trkpt>
      <trkpt lat="41.817427" lon="2.495649">
        <ele>326.951</ele>
        <time>2020-10-12T07:40:00Z</time>
      </trkpt>
      <trkpt lat="41.817684" lon="2.495705">
        <ele>326.568</ele>
        <time>2020-10-12T07:40:17Z</time>
      </trkpt>
      <trkpt lat="41.817810" lon="2.495738">
        <ele>326.999</ele>
        <time>2020-10-12T07:40:25Z</time>
      </trkpt>
      <trkpt lat="41.817871" lon="2.495754">
        <ele>326.927</ele>
        <time>2020-10-12T07:40:29Z</time>
      </trkpt>
      <trkpt lat="41.817922" lon="2.495765">
        <ele>326.948</ele>
        <time>2020-10-12T07:40:32Z</time>
      </trkpt>
      <trkpt lat="41.817947" lon="2.495777">
        <ele>327.461</ele>
        <time>2020-10-12T07:40:34Z</time>
      </trkpt>
      <trkpt lat="41.817971" lon="2.495780">
        <ele>326.917</ele>
        <time>2020-10-12T07:40:36Z</time>
      </trkpt>
      <trkpt lat="41.818094" lon="2.495800">
        <ele>327.908</ele>
        <time>2020-10-12T07:40:50Z</time>
      </trkpt>
      <trkpt lat="41.818155" lon="2.495800">
        <ele>328.479</ele>
        <time>2020-10-12T07:40:52Z</time>
      </trkpt>
      <trkpt lat="41.818204" lon="2.495659">
        <ele>329.393</ele>
        <time>2020-10-12T07:41:09Z</time>
      </trkpt>
      <trkpt lat="41.818197" lon="2.495469">
        <ele>329.880</ele>
        <time>2020-10-12T07:41:24Z</time>
      </trkpt>
      <trkpt lat="41.818247" lon="2.495414">
        <ele>329.846</ele>
        <time>2020-10-12T07:41:29Z</time>
      </trkpt>
      <trkpt lat="41.818375" lon="2.495496">
        <ele>330.359</ele>
        <time>2020-10-12T07:41:39Z</time>
      </trkpt>
      <trkpt lat="41.818493" lon="2.495541">
        <ele>332.266</ele>
        <time>2020-10-12T07:41:52Z</time>
      </trkpt>
      <trkpt lat="41.818607" lon="2.495557">
        <ele>332.267</ele>
        <time>2020-10-12T07:42:06Z</time>
      </trkpt>
      <trkpt lat="41.818741" lon="2.495580">
        <ele>333.245</ele>
        <time>2020-10-12T07:42:17Z</time>
      </trkpt>
      <trkpt lat="41.818770" lon="2.495582">
        <ele>333.741</ele>
        <time>2020-10-12T07:42:19Z</time>
      </trkpt>
      <trkpt lat="41.818840" lon="2.495554">
        <ele>333.781</ele>
        <time>2020-10-12T07:42:23Z</time>
      </trkpt>
      <trkpt lat="41.818916" lon="2.495494">
        <ele>334.609</ele>
        <time>2020-10-12T07:42:28Z</time>
      </trkpt>
      <trkpt lat="41.818977" lon="2.495423">
        <ele>334.608</ele>
        <time>2020-10-12T07:42:33Z</time>
      </trkpt>
      <trkpt lat="41.818991" lon="2.495407">
        <ele>335.679</ele>
        <time>2020-10-12T07:42:34Z</time>
      </trkpt>
      <trkpt lat="41.819053" lon="2.495288">
        <ele>336.613</ele>
        <time>2020-10-12T07:42:43Z</time>
      </trkpt>
      <trkpt lat="41.819089" lon="2.495225">
        <ele>337.010</ele>
        <time>2020-10-12T07:42:48Z</time>
      </trkpt>
      <trkpt lat="41.819106" lon="2.495194">
        <ele>337.076</ele>
        <time>2020-10-12T07:42:50Z</time>
      </trkpt>
      <trkpt lat="41.819128" lon="2.495128">
        <ele>337.019</ele>
        <time>2020-10-12T07:42:51Z</time>
      </trkpt>
      <trkpt lat="41.819154" lon="2.495075">
        <ele>337.036</ele>
        <time>2020-10-12T07:42:52Z</time>
      </trkpt>
      <trkpt lat="41.819185" lon="2.495011">
        <ele>337.077</ele>
        <time>2020-10-12T07:42:53Z</time>
      </trkpt>
      <trkpt lat="41.819212" lon="2.494960">
        <ele>336.685</ele>
        <time>2020-10-12T07:42:54Z</time>
      </trkpt>
      <trkpt lat="41.819243" lon="2.494929">
        <ele>336.657</ele>
        <time>2020-10-12T07:42:55Z</time>
      </trkpt>
      <trkpt lat="41.819304" lon="2.494836">
        <ele>337.000</ele>
        <time>2020-10-12T07:42:56Z</time>
      </trkpt>
      <trkpt lat="41.819331" lon="2.494803">
        <ele>337.020</ele>
        <time>2020-10-12T07:42:57Z</time>
      </trkpt>
      <trkpt lat="41.819363" lon="2.494759">
        <ele>337.008</ele>
        <time>2020-10-12T07:43:10Z</time>
      </trkpt>
      <trkpt lat="41.819410" lon="2.494714">
        <ele>339.040</ele>
        <time>2020-10-12T07:43:25Z</time>
      </trkpt>
      <trkpt lat="41.819448" lon="2.494660">
        <ele>339.024</ele>
        <time>2020-10-12T07:43:31Z</time>
      </trkpt>
      <trkpt lat="41.819447" lon="2.494644">
        <ele>338.541</ele>
        <time>2020-10-12T07:43:32Z</time>
      </trkpt>
      <trkpt lat="41.819447" lon="2.494491">
        <ele>339.457</ele>
        <time>2020-10-12T07:43:47Z</time>
      </trkpt>
      <trkpt lat="41.819449" lon="2.494465">
        <ele>339.010</ele>
        <time>2020-10-12T07:44:12Z</time>
      </trkpt>
      <trkpt lat="41.819443" lon="2.494463">
        <ele>339.427</ele>
        <time>2020-10-12T07:44:23Z</time>
      </trkpt>
      <trkpt lat="41.819445" lon="2.494451">
        <ele>339.428</ele>
        <time>2020-10-12T07:44:24Z</time>
      </trkpt>
      <trkpt lat="41.819443" lon="2.494438">
        <ele>339.096</ele>
        <time>2020-10-12T07:44:25Z</time>
      </trkpt>
      <trkpt lat="41.819445" lon="2.494401">
        <ele>339.484</ele>
        <time>2020-10-12T07:44:38Z</time>
      </trkpt>
      <trkpt lat="41.819441" lon="2.494333">
        <ele>339.907</ele>
        <time>2020-10-12T07:44:44Z</time>
      </trkpt>
      <trkpt lat="41.819443" lon="2.494319">
        <ele>340.917</ele>
        <time>2020-10-12T07:44:45Z</time>
      </trkpt>
      <trkpt lat="41.819441" lon="2.494305">
        <ele>340.908</ele>
        <time>2020-10-12T07:44:46Z</time>
      </trkpt>
      <trkpt lat="41.819441" lon="2.494283">
        <ele>340.913</ele>
        <time>2020-10-12T07:44:48Z</time>
      </trkpt>
      <trkpt lat="41.819461" lon="2.494171">
        <ele>343.387</ele>
        <time>2020-10-12T07:44:59Z</time>
      </trkpt>
      <trkpt lat="41.819522" lon="2.494052">
        <ele>343.354</ele>
        <time>2020-10-12T07:45:12Z</time>
      </trkpt>
      <trkpt lat="41.819629" lon="2.493898">
        <ele>344.750</ele>
        <time>2020-10-12T07:45:27Z</time>
      </trkpt>
      <trkpt lat="41.819664" lon="2.493643">
        <ele>344.243</ele>
        <time>2020-10-12T07:45:44Z</time>
      </trkpt>
      <trkpt lat="41.819672" lon="2.493606">
        <ele>344.740</ele>
        <time>2020-10-12T07:45:46Z</time>
      </trkpt>
      <trkpt lat="41.819693" lon="2.493496">
        <ele>344.781</ele>
        <time>2020-10-12T07:46:01Z</time>
      </trkpt>
      <trkpt lat="41.819706" lon="2.493390">
        <ele>344.239</ele>
        <time>2020-10-12T07:46:14Z</time>
      </trkpt>
      <trkpt lat="41.819709" lon="2.493403">
        <ele>345.712</ele>
        <time>2020-10-12T07:46:26Z</time>
      </trkpt>
      <trkpt lat="41.819729" lon="2.493347">
        <ele>344.732</ele>
        <time>2020-10-12T07:46:51Z</time>
      </trkpt>
      <trkpt lat="41.819680" lon="2.493291">
        <ele>345.205</ele>
        <time>2020-10-12T07:47:02Z</time>
      </trkpt>
      <trkpt lat="41.819559" lon="2.493339">
        <ele>346.208</ele>
        <time>2020-10-12T07:47:16Z</time>
      </trkpt>
      <trkpt lat="41.819505" lon="2.493352">
        <ele>346.656</ele>
        <time>2020-10-12T07:47:23Z</time>
      </trkpt>
      <trkpt lat="41.819466" lon="2.493332">
        <ele>348.170</ele>
        <time>2020-10-12T07:47:37Z</time>
      </trkpt>
      <trkpt lat="41.819437" lon="2.493310">
        <ele>349.517</ele>
        <time>2020-10-12T07:47:51Z</time>
      </trkpt>
      <trkpt lat="41.819430" lon="2.493264">
        <ele>348.693</ele>
        <time>2020-10-12T07:47:52Z</time>
      </trkpt>
      <trkpt lat="41.819432" lon="2.493191">
        <ele>350.576</ele>
        <time>2020-10-12T07:48:08Z</time>
      </trkpt>
      <trkpt lat="41.819457" lon="2.493109">
        <ele>351.053</ele>
        <time>2020-10-12T07:48:16Z</time>
      </trkpt>
      <trkpt lat="41.819493" lon="2.492996">
        <ele>353.464</ele>
        <time>2020-10-12T07:48:33Z</time>
      </trkpt>
      <trkpt lat="41.819538" lon="2.492853">
        <ele>354.892</ele>
        <time>2020-10-12T07:48:48Z</time>
      </trkpt>
      <trkpt lat="41.819541" lon="2.492715">
        <ele>355.825</ele>
        <time>2020-10-12T07:49:01Z</time>
      </trkpt>
      <trkpt lat="41.819521" lon="2.492629">
        <ele>357.726</ele>
        <time>2020-10-12T07:49:11Z</time>
      </trkpt>
      <trkpt lat="41.819487" lon="2.492541">
        <ele>358.208</ele>
        <time>2020-10-12T07:49:18Z</time>
      </trkpt>
      <trkpt lat="41.819433" lon="2.492450">
        <ele>358.708</ele>
        <time>2020-10-12T07:49:35Z</time>
      </trkpt>
      <trkpt lat="41.819387" lon="2.492364">
        <ele>359.697</ele>
        <time>2020-10-12T07:49:49Z</time>
      </trkpt>
      <trkpt lat="41.819333" lon="2.492287">
        <ele>359.671</ele>
        <time>2020-10-12T07:49:51Z</time>
      </trkpt>
      <trkpt lat="41.819270" lon="2.492207">
        <ele>360.158</ele>
        <time>2020-10-12T07:49:58Z</time>
      </trkpt>
      <trkpt lat="41.819209" lon="2.492130">
        <ele>361.174</ele>
        <time>2020-10-12T07:50:14Z</time>
      </trkpt>
      <trkpt lat="41.819168" lon="2.492014">
        <ele>362.537</ele>
        <time>2020-10-12T07:50:24Z</time>
      </trkpt>
      <trkpt lat="41.819141" lon="2.491913">
        <ele>363.554</ele>
        <time>2020-10-12T07:50:30Z</time>
      </trkpt>
      <trkpt lat="41.819130" lon="2.491833">
        <ele>364.015</ele>
        <time>2020-10-12T07:50:35Z</time>
      </trkpt>
      <trkpt lat="41.819119" lon="2.491732">
        <ele>364.453</ele>
        <time>2020-10-12T07:50:39Z</time>
      </trkpt>
      <trkpt lat="41.819107" lon="2.491592">
        <ele>365.463</ele>
        <time>2020-10-12T07:50:53Z</time>
      </trkpt>
      <trkpt lat="41.819107" lon="2.491448">
        <ele>365.444</ele>
        <time>2020-10-12T07:50:54Z</time>
      </trkpt>
      <trkpt lat="41.819107" lon="2.491333">
        <ele>366.418</ele>
        <time>2020-10-12T07:51:07Z</time>
      </trkpt>
      <trkpt lat="41.819110" lon="2.491229">
        <ele>366.808</ele>
        <time>2020-10-12T07:51:12Z</time>
      </trkpt>
      <trkpt lat="41.819107" lon="2.491141">
        <ele>367.351</ele>
        <time>2020-10-12T07:51:18Z</time>
      </trkpt>
      <trkpt lat="41.819128" lon="2.491057">
        <ele>369.245</ele>
        <time>2020-10-12T07:51:30Z</time>
      </trkpt>
      <trkpt lat="41.819144" lon="2.490973">
        <ele>369.262</ele>
        <time>2020-10-12T07:51:34Z</time>
      </trkpt>
      <trkpt lat="41.819167" lon="2.490915">
        <ele>369.778</ele>
        <time>2020-10-12T07:51:37Z</time>
      </trkpt>
      <trkpt lat="41.819196" lon="2.490829">
        <ele>370.291</ele>
        <time>2020-10-12T07:51:51Z</time>
      </trkpt>
      <trkpt lat="41.819234" lon="2.490754">
        <ele>370.758</ele>
        <time>2020-10-12T07:52:20Z</time>
      </trkpt>
      <trkpt lat="41.819264" lon="2.490681">
        <ele>371.269</ele>
        <time>2020-10-12T07:52:31Z</time>
      </trkpt>
      <trkpt lat="41.819298" lon="2.490606">
        <ele>373.177</ele>
        <time>2020-10-12T07:52:43Z</time>
      </trkpt>
      <trkpt lat="41.819327" lon="2.490519">
        <ele>372.611</ele>
        <time>2020-10-12T07:52:46Z</time>
      </trkpt>
      <trkpt lat="41.819332" lon="2.490431">
        <ele>374.021</ele>
        <time>2020-10-12T07:52:51Z</time>
      </trkpt>
      <trkpt lat="41.819349" lon="2.490375">
        <ele>375.003</ele>
        <time>2020-10-12T07:53:02Z</time>
      </trkpt>
      <trkpt lat="41.819359" lon="2.490320">
        <ele>375.008</ele>
        <time>2020-10-12T07:53:06Z</time>
      </trkpt>
      <trkpt lat="41.819376" lon="2.490319">
        <ele>375.576</ele>
        <time>2020-10-12T07:53:08Z</time>
      </trkpt>
      <trkpt lat="41.819387" lon="2.490311">
        <ele>368.890</ele>
        <time>2020-10-12T08:03:04Z</time>
      </trkpt>
      <trkpt lat="41.819409" lon="2.490296">
        <ele>368.327</ele>
        <time>2020-10-12T08:03:20Z</time>
      </trkpt>
      <trkpt lat="41.819428" lon="2.490225">
        <ele>366.823</ele>
        <time>2020-10-12T08:03:34Z</time>
      </trkpt>
      <trkpt lat="41.819455" lon="2.490158">
        <ele>366.876</ele>
        <time>2020-10-12T08:03:41Z</time>
      </trkpt>
      <trkpt lat="41.819473" lon="2.490076">
        <ele>366.843</ele>
        <time>2020-10-12T08:03:50Z</time>
      </trkpt>
      <trkpt lat="41.819504" lon="2.489939">
        <ele>365.974</ele>
        <time>2020-10-12T08:04:01Z</time>
      </trkpt>
      <trkpt lat="41.819522" lon="2.489800">
        <ele>364.932</ele>
        <time>2020-10-12T08:04:13Z</time>
      </trkpt>
      <trkpt lat="41.819531" lon="2.489700">
        <ele>364.915</ele>
        <time>2020-10-12T08:04:19Z</time>
      </trkpt>
      <trkpt lat="41.819551" lon="2.489620">
        <ele>364.965</ele>
        <time>2020-10-12T08:04:26Z</time>
      </trkpt>
      <trkpt lat="41.819563" lon="2.489556">
        <ele>365.911</ele>
        <time>2020-10-12T08:06:53Z</time>
      </trkpt>
      <trkpt lat="41.819572" lon="2.489534">
        <ele>366.408</ele>
        <time>2020-10-12T08:07:07Z</time>
      </trkpt>
      <trkpt lat="41.819592" lon="2.489512">
        <ele>367.816</ele>
        <time>2020-10-12T08:07:20Z</time>
      </trkpt>
      <trkpt lat="41.819612" lon="2.489485">
        <ele>368.830</ele>
        <time>2020-10-12T08:07:24Z</time>
      </trkpt>
      <trkpt lat="41.819666" lon="2.489390">
        <ele>368.857</ele>
        <time>2020-10-12T08:07:34Z</time>
      </trkpt>
      <trkpt lat="41.819698" lon="2.489310">
        <ele>369.733</ele>
        <time>2020-10-12T08:07:42Z</time>
      </trkpt>
      <trkpt lat="41.819719" lon="2.489246">
        <ele>370.216</ele>
        <time>2020-10-12T08:07:46Z</time>
      </trkpt>
      <trkpt lat="41.819744" lon="2.489211">
        <ele>369.713</ele>
        <time>2020-10-12T08:07:49Z</time>
      </trkpt>
      <trkpt lat="41.819839" lon="2.489083">
        <ele>369.764</ele>
        <time>2020-10-12T08:08:00Z</time>
      </trkpt>
      <trkpt lat="41.819910" lon="2.489000">
        <ele>370.232</ele>
        <time>2020-10-12T08:08:07Z</time>
      </trkpt>
      <trkpt lat="41.820011" lon="2.488763">
        <ele>370.226</ele>
        <time>2020-10-12T08:08:21Z</time>
      </trkpt>
      <trkpt lat="41.820041" lon="2.488702">
        <ele>369.747</ele>
        <time>2020-10-12T08:08:27Z</time>
      </trkpt>
      <trkpt lat="41.820196" lon="2.488545">
        <ele>370.211</ele>
        <time>2020-10-12T08:08:40Z</time>
      </trkpt>
      <trkpt lat="41.820271" lon="2.488364">
        <ele>370.708</ele>
        <time>2020-10-12T08:08:53Z</time>
      </trkpt>
      <trkpt lat="41.820342" lon="2.488212">
        <ele>370.777</ele>
        <time>2020-10-12T08:09:07Z</time>
      </trkpt>
      <trkpt lat="41.820335" lon="2.488160">
        <ele>372.611</ele>
        <time>2020-10-12T08:09:19Z</time>
      </trkpt>
      <trkpt lat="41.820346" lon="2.488129">
        <ele>372.698</ele>
        <time>2020-10-12T08:09:29Z</time>
      </trkpt>
      <trkpt lat="41.820365" lon="2.488129">
        <ele>371.654</ele>
        <time>2020-10-12T08:09:34Z</time>
      </trkpt>
      <trkpt lat="41.820409" lon="2.488139">
        <ele>370.727</ele>
        <time>2020-10-12T08:09:44Z</time>
      </trkpt>
      <trkpt lat="41.820414" lon="2.488138">
        <ele>370.734</ele>
        <time>2020-10-12T08:09:45Z</time>
      </trkpt>
      <trkpt lat="41.820480" lon="2.488059">
        <ele>371.215</ele>
        <time>2020-10-12T08:09:51Z</time>
      </trkpt>
      <trkpt lat="41.820566" lon="2.487891">
        <ele>370.763</ele>
        <time>2020-10-12T08:10:04Z</time>
      </trkpt>
      <trkpt lat="41.820676" lon="2.487695">
        <ele>371.697</ele>
        <time>2020-10-12T08:10:17Z</time>
      </trkpt>
      <trkpt lat="41.820767" lon="2.487462">
        <ele>371.623</ele>
        <time>2020-10-12T08:10:33Z</time>
      </trkpt>
      <trkpt lat="41.820785" lon="2.487450">
        <ele>371.225</ele>
        <time>2020-10-12T08:10:36Z</time>
      </trkpt>
      <trkpt lat="41.820870" lon="2.487256">
        <ele>372.108</ele>
        <time>2020-10-12T08:10:49Z</time>
      </trkpt>
      <trkpt lat="41.820928" lon="2.487127">
        <ele>371.674</ele>
        <time>2020-10-12T08:11:00Z</time>
      </trkpt>
      <trkpt lat="41.820937" lon="2.487103">
        <ele>371.658</ele>
        <time>2020-10-12T08:11:02Z</time>
      </trkpt>
      <trkpt lat="41.820948" lon="2.487069">
        <ele>372.145</ele>
        <time>2020-10-12T08:11:04Z</time>
      </trkpt>
      <trkpt lat="41.820977" lon="2.486980">
        <ele>372.121</ele>
        <time>2020-10-12T08:11:09Z</time>
      </trkpt>
      <trkpt lat="41.821075" lon="2.486753">
        <ele>372.164</ele>
        <time>2020-10-12T08:11:23Z</time>
      </trkpt>
      <trkpt lat="41.821160" lon="2.486535">
        <ele>372.621</ele>
        <time>2020-10-12T08:11:38Z</time>
      </trkpt>
      <trkpt lat="41.821200" lon="2.486343">
        <ele>372.622</ele>
        <time>2020-10-12T08:11:52Z</time>
      </trkpt>
      <trkpt lat="41.821239" lon="2.486284">
        <ele>371.280</ele>
        <time>2020-10-12T08:12:04Z</time>
      </trkpt>
      <trkpt lat="41.821272" lon="2.486295">
        <ele>372.129</ele>
        <time>2020-10-12T08:12:17Z</time>
      </trkpt>
      <trkpt lat="41.821327" lon="2.486313">
        <ele>372.600</ele>
        <time>2020-10-12T08:12:28Z</time>
      </trkpt>
      <trkpt lat="41.821376" lon="2.486332">
        <ele>374.520</ele>
        <time>2020-10-12T08:12:42Z</time>
      </trkpt>
      <trkpt lat="41.821441" lon="2.486348">
        <ele>372.608</ele>
        <time>2020-10-12T08:12:53Z</time>
      </trkpt>
      <trkpt lat="41.821489" lon="2.486282">
        <ele>371.677</ele>
        <time>2020-10-12T08:13:05Z</time>
      </trkpt>
      <trkpt lat="41.821544" lon="2.486191">
        <ele>369.781</ele>
        <time>2020-10-12T08:13:20Z</time>
      </trkpt>
      <trkpt lat="41.821600" lon="2.486112">
        <ele>368.888</ele>
        <time>2020-10-12T08:13:31Z</time>
      </trkpt>
      <trkpt lat="41.821666" lon="2.486025">
        <ele>366.894</ele>
        <time>2020-10-12T08:13:51Z</time>
      </trkpt>
      <trkpt lat="41.821749" lon="2.485930">
        <ele>365.467</ele>
        <time>2020-10-12T08:14:02Z</time>
      </trkpt>
      <trkpt lat="41.821792" lon="2.485837">
        <ele>365.914</ele>
        <time>2020-10-12T08:14:05Z</time>
      </trkpt>
      <trkpt lat="41.821824" lon="2.485755">
        <ele>365.415</ele>
        <time>2020-10-12T08:14:10Z</time>
      </trkpt>
      <trkpt lat="41.821846" lon="2.485585">
        <ele>364.983</ele>
        <time>2020-10-12T08:14:12Z</time>
      </trkpt>
      <trkpt lat="41.821888" lon="2.485422">
        <ele>364.975</ele>
        <time>2020-10-12T08:14:16Z</time>
      </trkpt>
      <trkpt lat="41.821926" lon="2.485311">
        <ele>362.528</ele>
        <time>2020-10-12T08:14:29Z</time>
      </trkpt>
      <trkpt lat="41.821964" lon="2.485214">
        <ele>361.120</ele>
        <time>2020-10-12T08:14:42Z</time>
      </trkpt>
      <trkpt lat="41.822003" lon="2.485112">
        <ele>360.108</ele>
        <time>2020-10-12T08:14:52Z</time>
      </trkpt>
      <trkpt lat="41.822062" lon="2.485015">
        <ele>360.182</ele>
        <time>2020-10-12T08:14:53Z</time>
      </trkpt>
      <trkpt lat="41.822133" lon="2.484946">
        <ele>360.636</ele>
        <time>2020-10-12T08:14:57Z</time>
      </trkpt>
      <trkpt lat="41.822183" lon="2.484930">
        <ele>361.153</ele>
        <time>2020-10-12T08:15:12Z</time>
      </trkpt>
      <trkpt lat="41.822253" lon="2.484961">
        <ele>360.629</ele>
        <time>2020-10-12T08:15:31Z</time>
      </trkpt>
      <trkpt lat="41.822307" lon="2.485026">
        <ele>361.172</ele>
        <time>2020-10-12T08:15:32Z</time>
      </trkpt>
      <trkpt lat="41.822366" lon="2.485119">
        <ele>360.689</ele>
        <time>2020-10-12T08:15:51Z</time>
      </trkpt>
      <trkpt lat="41.822348" lon="2.485271">
        <ele>362.540</ele>
        <time>2020-10-12T08:16:06Z</time>
      </trkpt>
      <trkpt lat="41.822314" lon="2.485389">
        <ele>363.538</ele>
        <time>2020-10-12T08:16:20Z</time>
      </trkpt>
      <trkpt lat="41.822276" lon="2.485563">
        <ele>365.428</ele>
        <time>2020-10-12T08:16:32Z</time>
      </trkpt>
      <trkpt lat="41.822248" lon="2.485824">
        <ele>367.889</ele>
        <time>2020-10-12T08:16:49Z</time>
      </trkpt>
      <trkpt lat="41.822224" lon="2.486094">
        <ele>369.717</ele>
        <time>2020-10-12T08:17:04Z</time>
      </trkpt>
      <trkpt lat="41.822219" lon="2.486174">
        <ele>371.208</ele>
        <time>2020-10-12T08:17:16Z</time>
      </trkpt>
      <trkpt lat="41.822224" lon="2.486278">
        <ele>371.237</ele>
        <time>2020-10-12T08:17:19Z</time>
      </trkpt>
      <trkpt lat="41.822233" lon="2.486318">
        <ele>371.671</ele>
        <time>2020-10-12T08:17:22Z</time>
      </trkpt>
      <trkpt lat="41.822243" lon="2.486366">
        <ele>372.168</ele>
        <time>2020-10-12T08:17:27Z</time>
      </trkpt>
      <trkpt lat="41.822288" lon="2.486333">
        <ele>371.274</ele>
        <time>2020-10-12T08:17:32Z</time>
      </trkpt>
      <trkpt lat="41.822304" lon="2.486260">
        <ele>371.697</ele>
        <time>2020-10-12T08:17:46Z</time>
      </trkpt>
      <trkpt lat="41.822330" lon="2.486180">
        <ele>371.214</ele>
        <time>2020-10-12T08:18:00Z</time>
      </trkpt>
      <trkpt lat="41.822349" lon="2.486085">
        <ele>371.615</ele>
        <time>2020-10-12T08:18:02Z</time>
      </trkpt>
      <trkpt lat="41.822371" lon="2.485963">
        <ele>372.133</ele>
        <time>2020-10-12T08:18:13Z</time>
      </trkpt>
      <trkpt lat="41.822391" lon="2.485868">
        <ele>372.679</ele>
        <time>2020-10-12T08:18:14Z</time>
      </trkpt>
      <trkpt lat="41.822407" lon="2.485791">
        <ele>372.605</ele>
        <time>2020-10-12T08:18:23Z</time>
      </trkpt>
      <trkpt lat="41.822423" lon="2.485736">
        <ele>372.625</ele>
        <time>2020-10-12T08:18:28Z</time>
      </trkpt>
      <trkpt lat="41.822444" lon="2.485656">
        <ele>372.108</ele>
        <time>2020-10-12T08:18:32Z</time>
      </trkpt>
      <trkpt lat="41.822468" lon="2.485567">
        <ele>372.182</ele>
        <time>2020-10-12T08:18:38Z</time>
      </trkpt>
      <trkpt lat="41.822495" lon="2.485477">
        <ele>372.146</ele>
        <time>2020-10-12T08:18:41Z</time>
      </trkpt>
      <trkpt lat="41.822518" lon="2.485377">
        <ele>371.653</ele>
        <time>2020-10-12T08:18:50Z</time>
      </trkpt>
      <trkpt lat="41.822556" lon="2.485253">
        <ele>372.659</ele>
        <time>2020-10-12T08:18:52Z</time>
      </trkpt>
      <trkpt lat="41.822600" lon="2.485083">
        <ele>372.632</ele>
        <time>2020-10-12T08:18:57Z</time>
      </trkpt>
      <trkpt lat="41.822635" lon="2.484939">
        <ele>373.129</ele>
        <time>2020-10-12T08:19:09Z</time>
      </trkpt>
      <trkpt lat="41.822706" lon="2.484733">
        <ele>373.170</ele>
        <time>2020-10-12T08:19:10Z</time>
      </trkpt>
      <trkpt lat="41.822751" lon="2.484581">
        <ele>373.168</ele>
        <time>2020-10-12T08:19:21Z</time>
      </trkpt>
      <trkpt lat="41.822805" lon="2.484406">
        <ele>373.133</ele>
        <time>2020-10-12T08:19:39Z</time>
      </trkpt>
      <trkpt lat="41.822844" lon="2.484302">
        <ele>373.123</ele>
        <time>2020-10-12T08:19:47Z</time>
      </trkpt>
      <trkpt lat="41.822887" lon="2.484121">
        <ele>373.115</ele>
        <time>2020-10-12T08:20:03Z</time>
      </trkpt>
      <trkpt lat="41.822919" lon="2.483992">
        <ele>374.008</ele>
        <time>2020-10-12T08:20:19Z</time>
      </trkpt>
      <trkpt lat="41.822928" lon="2.483831">
        <ele>375.028</ele>
        <time>2020-10-12T08:20:33Z</time>
      </trkpt>
      <trkpt lat="41.822939" lon="2.483694">
        <ele>375.542</ele>
        <time>2020-10-12T08:20:36Z</time>
      </trkpt>
      <trkpt lat="41.822961" lon="2.483552">
        <ele>376.079</ele>
        <time>2020-10-12T08:20:52Z</time>
      </trkpt>
      <trkpt lat="41.822987" lon="2.483410">
        <ele>376.095</ele>
        <time>2020-10-12T08:20:53Z</time>
      </trkpt>
      <trkpt lat="41.823022" lon="2.483251">
        <ele>376.498</ele>
        <time>2020-10-12T08:20:55Z</time>
      </trkpt>
      <trkpt lat="41.823027" lon="2.483158">
        <ele>376.935</ele>
        <time>2020-10-12T08:21:01Z</time>
      </trkpt>
      <trkpt lat="41.823036" lon="2.483039">
        <ele>378.416</ele>
        <time>2020-10-12T08:21:16Z</time>
      </trkpt>
      <trkpt lat="41.823053" lon="2.482822">
        <ele>379.384</ele>
        <time>2020-10-12T08:21:30Z</time>
      </trkpt>
      <trkpt lat="41.823071" lon="2.482649">
        <ele>378.913</ele>
        <time>2020-10-12T08:21:43Z</time>
      </trkpt>
      <trkpt lat="41.823098" lon="2.482503">
        <ele>380.343</ele>
        <time>2020-10-12T08:21:57Z</time>
      </trkpt>
      <trkpt lat="41.823114" lon="2.482357">
        <ele>381.307</ele>
        <time>2020-10-12T08:22:10Z</time>
      </trkpt>
      <trkpt lat="41.823126" lon="2.482256">
        <ele>381.308</ele>
        <time>2020-10-12T08:22:11Z</time>
      </trkpt>
      <trkpt lat="41.823146" lon="2.482145">
        <ele>381.366</ele>
        <time>2020-10-12T08:22:13Z</time>
      </trkpt>
      <trkpt lat="41.823168" lon="2.482034">
        <ele>382.750</ele>
        <time>2020-10-12T08:22:28Z</time>
      </trkpt>
      <trkpt lat="41.823180" lon="2.481921">
        <ele>383.227</ele>
        <time>2020-10-12T08:22:43Z</time>
      </trkpt>
      <trkpt lat="41.823195" lon="2.481848">
        <ele>382.733</ele>
        <time>2020-10-12T08:22:49Z</time>
      </trkpt>
      <trkpt lat="41.823229" lon="2.481704">
        <ele>383.296</ele>
        <time>2020-10-12T08:22:56Z</time>
      </trkpt>
      <trkpt lat="41.823263" lon="2.481560">
        <ele>384.183</ele>
        <time>2020-10-12T08:23:01Z</time>
      </trkpt>
      <trkpt lat="41.823329" lon="2.481447">
        <ele>384.614</ele>
        <time>2020-10-12T08:23:16Z</time>
      </trkpt>
      <trkpt lat="41.823363" lon="2.481361">
        <ele>384.622</ele>
        <time>2020-10-12T08:23:18Z</time>
      </trkpt>
      <trkpt lat="41.823453" lon="2.481235">
        <ele>385.653</ele>
        <time>2020-10-12T08:23:29Z</time>
      </trkpt>
      <trkpt lat="41.823561" lon="2.481111">
        <ele>384.104</ele>
        <time>2020-10-12T08:23:42Z</time>
      </trkpt>
      <trkpt lat="41.823635" lon="2.481051">
        <ele>383.714</ele>
        <time>2020-10-12T08:23:52Z</time>
      </trkpt>
      <trkpt lat="41.823762" lon="2.481011">
        <ele>383.208</ele>
        <time>2020-10-12T08:23:57Z</time>
      </trkpt>
      <trkpt lat="41.823868" lon="2.481001">
        <ele>383.260</ele>
        <time>2020-10-12T08:24:01Z</time>
      </trkpt>
      <trkpt lat="41.823963" lon="2.480983">
        <ele>383.264</ele>
        <time>2020-10-12T08:24:11Z</time>
      </trkpt>
      <trkpt lat="41.824033" lon="2.480926">
        <ele>382.761</ele>
        <time>2020-10-12T08:24:15Z</time>
      </trkpt>
      <trkpt lat="41.824117" lon="2.480804">
        <ele>382.797</ele>
        <time>2020-10-12T08:24:28Z</time>
      </trkpt>
      <trkpt lat="41.824205" lon="2.480638">
        <ele>381.750</ele>
        <time>2020-10-12T08:24:41Z</time>
      </trkpt>
      <trkpt lat="41.824238" lon="2.480592">
        <ele>381.777</ele>
        <time>2020-10-12T08:24:45Z</time>
      </trkpt>
      <trkpt lat="41.824304" lon="2.480475">
        <ele>381.398</ele>
        <time>2020-10-12T08:24:50Z</time>
      </trkpt>
      <trkpt lat="41.824370" lon="2.480355">
        <ele>380.856</ele>
        <time>2020-10-12T08:25:00Z</time>
      </trkpt>
      <trkpt lat="41.824405" lon="2.480280">
        <ele>379.877</ele>
        <time>2020-10-12T08:25:08Z</time>
      </trkpt>
      <trkpt lat="41.824478" lon="2.480110">
        <ele>380.861</ele>
        <time>2020-10-12T08:25:22Z</time>
      </trkpt>
      <trkpt lat="41.824550" lon="2.479930">
        <ele>381.327</ele>
        <time>2020-10-12T08:25:29Z</time>
      </trkpt>
      <trkpt lat="41.824590" lon="2.479815">
        <ele>382.208</ele>
        <time>2020-10-12T08:25:43Z</time>
      </trkpt>
      <trkpt lat="41.824658" lon="2.479627">
        <ele>383.272</ele>
        <time>2020-10-12T08:25:55Z</time>
      </trkpt>
      <trkpt lat="41.824726" lon="2.479430">
        <ele>384.696</ele>
        <time>2020-10-12T08:26:09Z</time>
      </trkpt>
      <trkpt lat="41.824803" lon="2.479213">
        <ele>385.683</ele>
        <time>2020-10-12T08:26:24Z</time>
      </trkpt>
      <trkpt lat="41.824866" lon="2.479049">
        <ele>387.029</ele>
        <time>2020-10-12T08:26:36Z</time>
      </trkpt>
      <trkpt lat="41.824929" lon="2.478926">
        <ele>389.412</ele>
        <time>2020-10-12T08:26:49Z</time>
      </trkpt>
      <trkpt lat="41.824963" lon="2.478853">
        <ele>390.959</ele>
        <time>2020-10-12T08:27:01Z</time>
      </trkpt>
      <trkpt lat="41.825010" lon="2.478828">
        <ele>391.350</ele>
        <time>2020-10-12T08:27:30Z</time>
      </trkpt>
      <trkpt lat="41.825116" lon="2.478776">
        <ele>391.898</ele>
        <time>2020-10-12T08:27:46Z</time>
      </trkpt>
      <trkpt lat="41.825214" lon="2.478611">
        <ele>393.875</ele>
        <time>2020-10-12T08:28:00Z</time>
      </trkpt>
      <trkpt lat="41.825297" lon="2.478454">
        <ele>393.828</ele>
        <time>2020-10-12T08:28:11Z</time>
      </trkpt>
      <trkpt lat="41.825377" lon="2.478219">
        <ele>394.720</ele>
        <time>2020-10-12T08:28:26Z</time>
      </trkpt>
      <trkpt lat="41.825387" lon="2.478184">
        <ele>394.708</ele>
        <time>2020-10-12T08:28:28Z</time>
      </trkpt>
      <trkpt lat="41.825426" lon="2.478139">
        <ele>395.252</ele>
        <time>2020-10-12T08:28:32Z</time>
      </trkpt>
      <trkpt lat="41.825492" lon="2.478010">
        <ele>396.636</ele>
        <time>2020-10-12T08:28:46Z</time>
      </trkpt>
      <trkpt lat="41.825523" lon="2.477922">
        <ele>397.123</ele>
        <time>2020-10-12T08:28:54Z</time>
      </trkpt>
      <trkpt lat="41.825549" lon="2.477880">
        <ele>397.689</ele>
        <time>2020-10-12T08:28:57Z</time>
      </trkpt>
      <trkpt lat="41.825584" lon="2.477775">
        <ele>398.172</ele>
        <time>2020-10-12T08:29:04Z</time>
      </trkpt>
      <trkpt lat="41.825714" lon="2.477565">
        <ele>398.629</ele>
        <time>2020-10-12T08:29:18Z</time>
      </trkpt>
      <trkpt lat="41.825771" lon="2.477510">
        <ele>398.190</ele>
        <time>2020-10-12T08:29:22Z</time>
      </trkpt>
      <trkpt lat="41.825917" lon="2.477327">
        <ele>399.578</ele>
        <time>2020-10-12T08:29:38Z</time>
      </trkpt>
      <trkpt lat="41.826010" lon="2.477171">
        <ele>399.547</ele>
        <time>2020-10-12T08:29:49Z</time>
      </trkpt>
      <trkpt lat="41.826042" lon="2.477013">
        <ele>401.029</ele>
        <time>2020-10-12T08:29:57Z</time>
      </trkpt>
      <trkpt lat="41.826119" lon="2.476835">
        <ele>400.521</ele>
        <time>2020-10-12T08:30:11Z</time>
      </trkpt>
      <trkpt lat="41.826151" lon="2.476770">
        <ele>400.508</ele>
        <time>2020-10-12T08:30:16Z</time>
      </trkpt>
      <trkpt lat="41.826188" lon="2.476706">
        <ele>400.539</ele>
        <time>2020-10-12T08:30:20Z</time>
      </trkpt>
      <trkpt lat="41.826292" lon="2.476470">
        <ele>402.453</ele>
        <time>2020-10-12T08:30:35Z</time>
      </trkpt>
      <trkpt lat="41.826340" lon="2.476363">
        <ele>402.990</ele>
        <time>2020-10-12T08:30:43Z</time>
      </trkpt>
      <trkpt lat="41.826395" lon="2.476277">
        <ele>404.366</ele>
        <time>2020-10-12T08:30:55Z</time>
      </trkpt>
      <trkpt lat="41.826412" lon="2.476240">
        <ele>404.839</ele>
        <time>2020-10-12T08:30:58Z</time>
      </trkpt>
      <trkpt lat="41.826430" lon="2.476161">
        <ele>404.816</ele>
        <time>2020-10-12T08:31:03Z</time>
      </trkpt>
      <trkpt lat="41.826444" lon="2.476143">
        <ele>404.317</ele>
        <time>2020-10-12T08:31:05Z</time>
      </trkpt>
      <trkpt lat="41.826486" lon="2.476027">
        <ele>403.875</ele>
        <time>2020-10-12T08:31:09Z</time>
      </trkpt>
      <trkpt lat="41.826585" lon="2.475808">
        <ele>403.425</ele>
        <time>2020-10-12T08:31:24Z</time>
      </trkpt>
      <trkpt lat="41.826697" lon="2.475559">
        <ele>403.826</ele>
        <time>2020-10-12T08:31:41Z</time>
      </trkpt>
      <trkpt lat="41.826791" lon="2.475320">
        <ele>403.408</ele>
        <time>2020-10-12T08:31:57Z</time>
      </trkpt>
      <trkpt lat="41.826879" lon="2.475047">
        <ele>403.808</ele>
        <time>2020-10-12T08:32:12Z</time>
      </trkpt>
      <trkpt lat="41.826912" lon="2.474967">
        <ele>403.897</ele>
        <time>2020-10-12T08:32:15Z</time>
      </trkpt>
      <trkpt lat="41.826971" lon="2.474719">
        <ele>403.461</ele>
        <time>2020-10-12T08:32:33Z</time>
      </trkpt>
      <trkpt lat="41.827039" lon="2.474472">
        <ele>403.448</ele>
        <time>2020-10-12T08:32:48Z</time>
      </trkpt>
      <trkpt lat="41.827104" lon="2.474190">
        <ele>403.814</ele>
        <time>2020-10-12T08:33:02Z</time>
      </trkpt>
      <trkpt lat="41.827162" lon="2.473944">
        <ele>404.397</ele>
        <time>2020-10-12T08:33:18Z</time>
      </trkpt>
      <trkpt lat="41.827250" lon="2.473637">
        <ele>404.824</ele>
        <time>2020-10-12T08:33:36Z</time>
      </trkpt>
      <trkpt lat="41.827380" lon="2.473372">
        <ele>404.865</ele>
        <time>2020-10-12T08:33:53Z</time>
      </trkpt>
      <trkpt lat="41.827484" lon="2.473158">
        <ele>404.873</ele>
        <time>2020-10-12T08:34:09Z</time>
      </trkpt>
      <trkpt lat="41.827572" lon="2.472872">
        <ele>405.332</ele>
        <time>2020-10-12T08:34:25Z</time>
      </trkpt>
      <trkpt lat="41.827661" lon="2.472532">
        <ele>403.892</ele>
        <time>2020-10-12T08:34:44Z</time>
      </trkpt>
      <trkpt lat="41.827694" lon="2.472398">
        <ele>402.911</ele>
        <time>2020-10-12T08:34:57Z</time>
      </trkpt>
      <trkpt lat="41.827688" lon="2.472347">
        <ele>403.408</ele>
        <time>2020-10-12T08:35:01Z</time>
      </trkpt>
      <trkpt lat="41.827626" lon="2.472276">
        <ele>403.418</ele>
        <time>2020-10-12T08:35:09Z</time>
      </trkpt>
      <trkpt lat="41.827473" lon="2.472126">
        <ele>403.472</ele>
        <time>2020-10-12T08:35:18Z</time>
      </trkpt>
      <trkpt lat="41.827435" lon="2.472064">
        <ele>404.349</ele>
        <time>2020-10-12T08:35:33Z</time>
      </trkpt>
      <trkpt lat="41.827457" lon="2.471752">
        <ele>405.895</ele>
        <time>2020-10-12T08:35:40Z</time>
      </trkpt>
      <trkpt lat="41.827460" lon="2.471632">
        <ele>406.728</ele>
        <time>2020-10-12T08:35:47Z</time>
      </trkpt>
      <trkpt lat="41.827453" lon="2.471392">
        <ele>408.795</ele>
        <time>2020-10-12T08:36:04Z</time>
      </trkpt>
      <trkpt lat="41.827426" lon="2.471122">
        <ele>409.656</ele>
        <time>2020-10-12T08:36:19Z</time>
      </trkpt>
      <trkpt lat="41.827381" lon="2.470874">
        <ele>410.654</ele>
        <time>2020-10-12T08:36:31Z</time>
      </trkpt>
      <trkpt lat="41.827363" lon="2.470774">
        <ele>410.184</ele>
        <time>2020-10-12T08:36:33Z</time>
      </trkpt>
      <trkpt lat="41.827371" lon="2.470562">
        <ele>410.607</ele>
        <time>2020-10-12T08:36:40Z</time>
      </trkpt>
      <trkpt lat="41.827387" lon="2.470436">
        <ele>412.017</ele>
        <time>2020-10-12T08:36:57Z</time>
      </trkpt>
      <trkpt lat="41.827437" lon="2.470279">
        <ele>413.008</ele>
        <time>2020-10-12T08:37:02Z</time>
      </trkpt>
      <trkpt lat="41.827487" lon="2.470066">
        <ele>413.593</ele>
        <time>2020-10-12T08:37:17Z</time>
      </trkpt>
      <trkpt lat="41.827516" lon="2.469891">
        <ele>414.457</ele>
        <time>2020-10-12T08:37:31Z</time>
      </trkpt>
      <trkpt lat="41.827513" lon="2.469739">
        <ele>414.994</ele>
        <time>2020-10-12T08:37:42Z</time>
      </trkpt>
      <trkpt lat="41.827495" lon="2.469584">
        <ele>414.950</ele>
        <time>2020-10-12T08:37:46Z</time>
      </trkpt>
      <trkpt lat="41.827487" lon="2.469484">
        <ele>415.473</ele>
        <time>2020-10-12T08:38:05Z</time>
      </trkpt>
      <trkpt lat="41.827466" lon="2.469387">
        <ele>416.320</ele>
        <time>2020-10-12T08:38:21Z</time>
      </trkpt>
      <trkpt lat="41.827452" lon="2.469301">
        <ele>417.841</ele>
        <time>2020-10-12T08:38:36Z</time>
      </trkpt>
      <trkpt lat="41.827441" lon="2.469259">
        <ele>418.359</ele>
        <time>2020-10-12T08:38:48Z</time>
      </trkpt>
      <trkpt lat="41.827436" lon="2.469219">
        <ele>417.836</ele>
        <time>2020-10-12T08:38:56Z</time>
      </trkpt>
      <trkpt lat="41.827427" lon="2.469179">
        <ele>417.317</ele>
        <time>2020-10-12T08:38:58Z</time>
      </trkpt>
      <trkpt lat="41.827418" lon="2.469135">
        <ele>419.218</ele>
        <time>2020-10-12T08:39:15Z</time>
      </trkpt>
      <trkpt lat="41.827391" lon="2.469053">
        <ele>417.808</ele>
        <time>2020-10-12T08:39:29Z</time>
      </trkpt>
      <trkpt lat="41.827371" lon="2.468960">
        <ele>418.718</ele>
        <time>2020-10-12T08:39:36Z</time>
      </trkpt>
      <trkpt lat="41.827368" lon="2.468894">
        <ele>418.752</ele>
        <time>2020-10-12T08:39:52Z</time>
      </trkpt>
      <trkpt lat="41.827396" lon="2.468880">
        <ele>418.749</ele>
        <time>2020-10-12T08:40:07Z</time>
      </trkpt>
      <trkpt lat="41.827420" lon="2.468835">
        <ele>417.325</ele>
        <time>2020-10-12T08:40:19Z</time>
      </trkpt>
      <trkpt lat="41.827430" lon="2.468733">
        <ele>414.968</ele>
        <time>2020-10-12T08:40:30Z</time>
      </trkpt>
      <trkpt lat="41.827461" lon="2.468693">
        <ele>413.555</ele>
        <time>2020-10-12T08:40:37Z</time>
      </trkpt>
      <trkpt lat="41.827516" lon="2.468585">
        <ele>409.636</ele>
        <time>2020-10-12T08:40:49Z</time>
      </trkpt>
      <trkpt lat="41.827535" lon="2.468478">
        <ele>408.284</ele>
        <time>2020-10-12T08:41:05Z</time>
      </trkpt>
      <trkpt lat="41.827581" lon="2.468369">
        <ele>406.223</ele>
        <time>2020-10-12T08:41:19Z</time>
      </trkpt>
      <trkpt lat="41.827649" lon="2.468323">
        <ele>406.283</ele>
        <time>2020-10-12T08:41:42Z</time>
      </trkpt>
      <trkpt lat="41.827655" lon="2.468343">
        <ele>406.711</ele>
        <time>2020-10-12T08:41:53Z</time>
      </trkpt>
      <trkpt lat="41.827648" lon="2.468467">
        <ele>409.608</ele>
        <time>2020-10-12T08:42:06Z</time>
      </trkpt>
      <trkpt lat="41.827638" lon="2.468546">
        <ele>410.617</ele>
        <time>2020-10-12T08:42:11Z</time>
      </trkpt>
      <trkpt lat="41.827627" lon="2.468637">
        <ele>411.151</ele>
        <time>2020-10-12T08:42:17Z</time>
      </trkpt>
      <trkpt lat="41.827630" lon="2.468669">
        <ele>411.138</ele>
        <time>2020-10-12T08:42:19Z</time>
      </trkpt>
      <trkpt lat="41.827630" lon="2.468759">
        <ele>411.134</ele>
        <time>2020-10-12T08:42:34Z</time>
      </trkpt>
      <trkpt lat="41.827708" lon="2.468996">
        <ele>414.487</ele>
        <time>2020-10-12T08:42:51Z</time>
      </trkpt>
      <trkpt lat="41.827771" lon="2.469153">
        <ele>417.854</ele>
        <time>2020-10-12T08:43:07Z</time>
      </trkpt>
      <trkpt lat="41.827870" lon="2.469313">
        <ele>420.275</ele>
        <time>2020-10-12T08:43:21Z</time>
      </trkpt>
      <trkpt lat="41.827961" lon="2.469391">
        <ele>423.143</ele>
        <time>2020-10-12T08:43:33Z</time>
      </trkpt>
      <trkpt lat="41.828156" lon="2.469361">
        <ele>423.649</ele>
        <time>2020-10-12T08:43:46Z</time>
      </trkpt>
      <trkpt lat="41.828200" lon="2.469302">
        <ele>423.602</ele>
        <time>2020-10-12T08:44:01Z</time>
      </trkpt>
      <trkpt lat="41.828288" lon="2.469211">
        <ele>424.522</ele>
        <time>2020-10-12T08:44:14Z</time>
      </trkpt>
      <trkpt lat="41.828354" lon="2.469147">
        <ele>425.508</ele>
        <time>2020-10-12T08:44:17Z</time>
      </trkpt>
      <trkpt lat="41.828393" lon="2.469067">
        <ele>428.499</ele>
        <time>2020-10-12T08:44:31Z</time>
      </trkpt>
      <trkpt lat="41.828426" lon="2.468961">
        <ele>429.373</ele>
        <time>2020-10-12T08:44:43Z</time>
      </trkpt>
      <trkpt lat="41.828460" lon="2.468901">
        <ele>430.330</ele>
        <time>2020-10-12T08:44:46Z</time>
      </trkpt>
      <trkpt lat="41.828512" lon="2.468811">
        <ele>431.796</ele>
        <time>2020-10-12T08:45:01Z</time>
      </trkpt>
      <trkpt lat="41.828573" lon="2.468691">
        <ele>433.689</ele>
        <time>2020-10-12T08:45:13Z</time>
      </trkpt>
      <trkpt lat="41.828641" lon="2.468592">
        <ele>436.116</ele>
        <time>2020-10-12T08:45:29Z</time>
      </trkpt>
      <trkpt lat="41.828677" lon="2.468525">
        <ele>436.127</ele>
        <time>2020-10-12T08:45:31Z</time>
      </trkpt>
      <trkpt lat="41.828740" lon="2.468443">
        <ele>436.165</ele>
        <time>2020-10-12T08:45:33Z</time>
      </trkpt>
      <trkpt lat="41.828798" lon="2.468357">
        <ele>438.014</ele>
        <time>2020-10-12T08:45:41Z</time>
      </trkpt>
      <trkpt lat="41.828855" lon="2.468284">
        <ele>438.054</ele>
        <time>2020-10-12T08:45:45Z</time>
      </trkpt>
      <trkpt lat="41.828896" lon="2.468240">
        <ele>437.509</ele>
        <time>2020-10-12T08:45:51Z</time>
      </trkpt>
      <trkpt lat="41.828945" lon="2.468198">
        <ele>438.508</ele>
        <time>2020-10-12T08:46:03Z</time>
      </trkpt>
      <trkpt lat="41.828977" lon="2.468134">
        <ele>438.966</ele>
        <time>2020-10-12T08:46:11Z</time>
      </trkpt>
      <trkpt lat="41.828992" lon="2.468098">
        <ele>438.970</ele>
        <time>2020-10-12T08:46:24Z</time>
      </trkpt>
      <trkpt lat="41.829001" lon="2.468069">
        <ele>403.867</ele>
        <time>2020-10-12T08:46:56Z</time>
      </trkpt>
      <trkpt lat="41.828981" lon="2.468027">
        <ele>407.223</ele>
        <time>2020-10-12T08:47:09Z</time>
      </trkpt>
      <trkpt lat="41.828945" lon="2.468056">
        <ele>411.116</ele>
        <time>2020-10-12T08:47:13Z</time>
      </trkpt>
      <trkpt lat="41.828896" lon="2.468085">
        <ele>412.063</ele>
        <time>2020-10-12T08:47:15Z</time>
      </trkpt>
      <trkpt lat="41.828850" lon="2.468145">
        <ele>413.534</ele>
        <time>2020-10-12T08:47:17Z</time>
      </trkpt>
      <trkpt lat="41.828774" lon="2.468216">
        <ele>417.322</ele>
        <time>2020-10-12T08:47:21Z</time>
      </trkpt>
      <trkpt lat="41.828706" lon="2.468275">
        <ele>418.336</ele>
        <time>2020-10-12T08:47:23Z</time>
      </trkpt>
      <trkpt lat="41.828657" lon="2.468331">
        <ele>420.217</ele>
        <time>2020-10-12T08:47:26Z</time>
      </trkpt>
      <trkpt lat="41.828611" lon="2.468355">
        <ele>422.618</ele>
        <time>2020-10-12T08:47:30Z</time>
      </trkpt>
      <trkpt lat="41.828553" lon="2.468364">
        <ele>422.608</ele>
        <time>2020-10-12T08:47:31Z</time>
      </trkpt>
      <trkpt lat="41.828523" lon="2.468353">
        <ele>424.098</ele>
        <time>2020-10-12T08:47:33Z</time>
      </trkpt>
      <trkpt lat="41.828525" lon="2.468310">
        <ele>425.532</ele>
        <time>2020-10-12T08:47:36Z</time>
      </trkpt>
      <trkpt lat="41.828531" lon="2.468318">
        <ele>427.949</ele>
        <time>2020-10-12T08:47:40Z</time>
      </trkpt>
      <trkpt lat="41.828545" lon="2.468304">
        <ele>430.855</ele>
        <time>2020-10-12T08:47:50Z</time>
      </trkpt>
      <trkpt lat="41.828552" lon="2.468286">
        <ele>433.648</ele>
        <time>2020-10-12T08:47:55Z</time>
      </trkpt>
      <trkpt lat="41.828555" lon="2.468284">
        <ele>434.115</ele>
        <time>2020-10-12T08:47:56Z</time>
      </trkpt>
      <trkpt lat="41.828564" lon="2.468285">
        <ele>436.596</ele>
        <time>2020-10-12T08:48:00Z</time>
      </trkpt>
      <trkpt lat="41.828634" lon="2.468256">
        <ele>439.994</ele>
        <time>2020-10-12T08:48:11Z</time>
      </trkpt>
      <trkpt lat="41.828643" lon="2.468212">
        <ele>441.837</ele>
        <time>2020-10-12T08:48:16Z</time>
      </trkpt>
      <trkpt lat="41.828661" lon="2.468159">
        <ele>445.249</ele>
        <time>2020-10-12T08:48:24Z</time>
      </trkpt>
      <trkpt lat="41.828673" lon="2.468136">
        <ele>446.613</ele>
        <time>2020-10-12T08:48:28Z</time>
      </trkpt>
      <trkpt lat="41.828683" lon="2.468030">
        <ele>450.008</ele>
        <time>2020-10-12T08:48:38Z</time>
      </trkpt>
      <trkpt lat="41.828701" lon="2.467945">
        <ele>453.878</ele>
        <time>2020-10-12T08:48:52Z</time>
      </trkpt>
      <trkpt lat="41.828747" lon="2.467885">
        <ele>456.762</ele>
        <time>2020-10-12T08:49:03Z</time>
      </trkpt>
      <trkpt lat="41.828783" lon="2.467764">
        <ele>460.189</ele>
        <time>2020-10-12T08:49:17Z</time>
      </trkpt>
      <trkpt lat="41.828811" lon="2.467683">
        <ele>462.585</ele>
        <time>2020-10-12T08:49:28Z</time>
      </trkpt>
      <trkpt lat="41.828837" lon="2.467575">
        <ele>464.958</ele>
        <time>2020-10-12T08:49:43Z</time>
      </trkpt>
      <trkpt lat="41.828823" lon="2.467510">
        <ele>467.835</ele>
        <time>2020-10-12T08:49:57Z</time>
      </trkpt>
      <trkpt lat="41.828866" lon="2.467472">
        <ele>470.776</ele>
        <time>2020-10-12T08:50:09Z</time>
      </trkpt>
      <trkpt lat="41.828906" lon="2.467390">
        <ele>471.184</ele>
        <time>2020-10-12T08:50:21Z</time>
      </trkpt>
      <trkpt lat="41.828898" lon="2.467368">
        <ele>471.159</ele>
        <time>2020-10-12T08:50:32Z</time>
      </trkpt>
      <trkpt lat="41.828925" lon="2.467252">
        <ele>473.503</ele>
        <time>2020-10-12T08:50:45Z</time>
      </trkpt>
      <trkpt lat="41.828957" lon="2.467204">
        <ele>476.923</ele>
        <time>2020-10-12T08:50:57Z</time>
      </trkpt>
      <trkpt lat="41.828959" lon="2.467199">
        <ele>476.908</ele>
        <time>2020-10-12T08:50:58Z</time>
      </trkpt>
      <trkpt lat="41.828983" lon="2.467109">
        <ele>478.830</ele>
        <time>2020-10-12T08:51:09Z</time>
      </trkpt>
      <trkpt lat="41.829000" lon="2.467055">
        <ele>480.874</ele>
        <time>2020-10-12T08:51:16Z</time>
      </trkpt>
      <trkpt lat="41.829060" lon="2.467016">
        <ele>483.221</ele>
        <time>2020-10-12T08:51:30Z</time>
      </trkpt>
      <trkpt lat="41.829097" lon="2.466943">
        <ele>485.617</ele>
        <time>2020-10-12T08:51:43Z</time>
      </trkpt>
      <trkpt lat="41.829125" lon="2.466857">
        <ele>488.050</ele>
        <time>2020-10-12T08:51:56Z</time>
      </trkpt>
      <trkpt lat="41.829139" lon="2.466780">
        <ele>489.957</ele>
        <time>2020-10-12T08:52:08Z</time>
      </trkpt>
      <trkpt lat="41.829158" lon="2.466669">
        <ele>492.328</ele>
        <time>2020-10-12T08:52:29Z</time>
      </trkpt>
      <trkpt lat="41.829172" lon="2.466616">
        <ele>494.276</ele>
        <time>2020-10-12T08:52:35Z</time>
      </trkpt>
      <trkpt lat="41.829173" lon="2.466510">
        <ele>495.786</ele>
        <time>2020-10-12T08:52:46Z</time>
      </trkpt>
      <trkpt lat="41.829204" lon="2.466405">
        <ele>497.160</ele>
        <time>2020-10-12T08:52:58Z</time>
      </trkpt>
      <trkpt lat="41.829219" lon="2.466319">
        <ele>499.526</ele>
        <time>2020-10-12T08:53:06Z</time>
      </trkpt>
      <trkpt lat="41.829245" lon="2.466135">
        <ele>501.408</ele>
        <time>2020-10-12T08:53:22Z</time>
      </trkpt>
      <trkpt lat="41.829286" lon="2.465920">
        <ele>503.863</ele>
        <time>2020-10-12T08:53:38Z</time>
      </trkpt>
      <trkpt lat="41.829290" lon="2.465893">
        <ele>504.367</ele>
        <time>2020-10-12T08:53:40Z</time>
      </trkpt>
      <trkpt lat="41.829309" lon="2.465681">
        <ele>506.214</ele>
        <time>2020-10-12T08:53:54Z</time>
      </trkpt>
      <trkpt lat="41.829402" lon="2.465452">
        <ele>507.290</ele>
        <time>2020-10-12T08:54:09Z</time>
      </trkpt>
      <trkpt lat="41.829414" lon="2.465366">
        <ele>507.253</ele>
        <time>2020-10-12T08:54:13Z</time>
      </trkpt>
      <trkpt lat="41.829466" lon="2.465232">
        <ele>507.730</ele>
        <time>2020-10-12T08:54:27Z</time>
      </trkpt>
      <trkpt lat="41.829471" lon="2.465156">
        <ele>507.711</ele>
        <time>2020-10-12T08:54:31Z</time>
      </trkpt>
      <trkpt lat="41.829478" lon="2.465108">
        <ele>507.299</ele>
        <time>2020-10-12T08:54:34Z</time>
      </trkpt>
      <trkpt lat="41.829553" lon="2.464909">
        <ele>507.255</ele>
        <time>2020-10-12T08:54:49Z</time>
      </trkpt>
      <trkpt lat="41.829569" lon="2.464857">
        <ele>507.207</ele>
        <time>2020-10-12T08:54:53Z</time>
      </trkpt>
      <trkpt lat="41.829587" lon="2.464805">
        <ele>507.217</ele>
        <time>2020-10-12T08:54:57Z</time>
      </trkpt>
      <trkpt lat="41.829692" lon="2.464595">
        <ele>507.708</ele>
        <time>2020-10-12T08:55:12Z</time>
      </trkpt>
      <trkpt lat="41.829730" lon="2.464504">
        <ele>507.760</ele>
        <time>2020-10-12T08:55:27Z</time>
      </trkpt>
      <trkpt lat="41.829827" lon="2.464316">
        <ele>509.674</ele>
        <time>2020-10-12T08:55:42Z</time>
      </trkpt>
      <trkpt lat="41.829953" lon="2.464150">
        <ele>511.011</ele>
        <time>2020-10-12T08:55:56Z</time>
      </trkpt>
      <trkpt lat="41.830032" lon="2.464001">
        <ele>510.697</ele>
        <time>2020-10-12T08:56:07Z</time>
      </trkpt>
      <trkpt lat="41.830135" lon="2.463798">
        <ele>510.690</ele>
        <time>2020-10-12T08:56:22Z</time>
      </trkpt>
      <trkpt lat="41.830250" lon="2.463572">
        <ele>511.037</ele>
        <time>2020-10-12T08:56:36Z</time>
      </trkpt>
      <trkpt lat="41.830402" lon="2.463430">
        <ele>513.448</ele>
        <time>2020-10-12T08:56:51Z</time>
      </trkpt>
      <trkpt lat="41.830467" lon="2.463346">
        <ele>513.056</ele>
        <time>2020-10-12T08:57:05Z</time>
      </trkpt>
      <trkpt lat="41.830553" lon="2.463200">
        <ele>515.878</ele>
        <time>2020-10-12T08:57:20Z</time>
      </trkpt>
      <trkpt lat="41.830574" lon="2.463128">
        <ele>516.333</ele>
        <time>2020-10-12T08:57:25Z</time>
      </trkpt>
      <trkpt lat="41.830626" lon="2.463018">
        <ele>516.326</ele>
        <time>2020-10-12T08:57:34Z</time>
      </trkpt>
      <trkpt lat="41.830720" lon="2.462825">
        <ele>517.808</ele>
        <time>2020-10-12T08:57:49Z</time>
      </trkpt>
      <trkpt lat="41.830822" lon="2.462648">
        <ele>518.282</ele>
        <time>2020-10-12T08:58:04Z</time>
      </trkpt>
      <trkpt lat="41.830885" lon="2.462549">
        <ele>518.296</ele>
        <time>2020-10-12T08:58:10Z</time>
      </trkpt>
      <trkpt lat="41.830932" lon="2.462454">
        <ele>519.243</ele>
        <time>2020-10-12T08:58:20Z</time>
      </trkpt>
      <trkpt lat="41.831005" lon="2.462334">
        <ele>518.769</ele>
        <time>2020-10-12T08:58:22Z</time>
      </trkpt>
      <trkpt lat="41.831101" lon="2.462188">
        <ele>520.262</ele>
        <time>2020-10-12T08:58:36Z</time>
      </trkpt>
      <trkpt lat="41.831205" lon="2.462064">
        <ele>520.619</ele>
        <time>2020-10-12T08:58:49Z</time>
      </trkpt>
      <trkpt lat="41.831241" lon="2.462013">
        <ele>520.620</ele>
        <time>2020-10-12T08:58:54Z</time>
      </trkpt>
      <trkpt lat="41.831302" lon="2.461951">
        <ele>521.118</ele>
        <time>2020-10-12T08:58:56Z</time>
      </trkpt>
      <trkpt lat="41.831372" lon="2.461865">
        <ele>522.666</ele>
        <time>2020-10-12T08:59:08Z</time>
      </trkpt>
      <trkpt lat="41.831482" lon="2.461730">
        <ele>524.029</ele>
        <time>2020-10-12T08:59:19Z</time>
      </trkpt>
      <trkpt lat="41.831550" lon="2.461672">
        <ele>525.921</ele>
        <time>2020-10-12T08:59:30Z</time>
      </trkpt>
      <trkpt lat="41.831609" lon="2.461635">
        <ele>525.908</ele>
        <time>2020-10-12T08:59:31Z</time>
      </trkpt>
      <trkpt lat="41.831663" lon="2.461633">
        <ele>527.491</ele>
        <time>2020-10-12T08:59:38Z</time>
      </trkpt>
      <trkpt lat="41.831731" lon="2.461605">
        <ele>529.885</ele>
        <time>2020-10-12T08:59:53Z</time>
      </trkpt>
      <trkpt lat="41.831802" lon="2.461532">
        <ele>530.762</ele>
        <time>2020-10-12T09:00:05Z</time>
      </trkpt>
      <trkpt lat="41.831823" lon="2.461512">
        <ele>531.288</ele>
        <time>2020-10-12T09:00:08Z</time>
      </trkpt>
      <trkpt lat="41.831903" lon="2.461377">
        <ele>534.161</ele>
        <time>2020-10-12T09:00:23Z</time>
      </trkpt>
      <trkpt lat="41.831897" lon="2.461258">
        <ele>537.098</ele>
        <time>2020-10-12T09:00:38Z</time>
      </trkpt>
      <trkpt lat="41.831900" lon="2.461266">
        <ele>537.069</ele>
        <time>2020-10-12T09:00:40Z</time>
      </trkpt>
      <trkpt lat="41.831936" lon="2.461284">
        <ele>539.417</ele>
        <time>2020-10-12T09:00:54Z</time>
      </trkpt>
      <trkpt lat="41.831987" lon="2.461339">
        <ele>541.373</ele>
        <time>2020-10-12T09:01:07Z</time>
      </trkpt>
      <trkpt lat="41.831992" lon="2.461347">
        <ele>541.885</ele>
        <time>2020-10-12T09:01:09Z</time>
      </trkpt>
      <trkpt lat="41.832038" lon="2.461446">
        <ele>543.713</ele>
        <time>2020-10-12T09:01:21Z</time>
      </trkpt>
      <trkpt lat="41.832042" lon="2.461504">
        <ele>545.608</ele>
        <time>2020-10-12T09:01:28Z</time>
      </trkpt>
      <trkpt lat="41.832039" lon="2.461523">
        <ele>545.692</ele>
        <time>2020-10-12T09:01:30Z</time>
      </trkpt>
      <trkpt lat="41.832157" lon="2.461673">
        <ele>547.166</ele>
        <time>2020-10-12T09:01:45Z</time>
      </trkpt>
      <trkpt lat="41.832191" lon="2.461702">
        <ele>548.073</ele>
        <time>2020-10-12T09:01:49Z</time>
      </trkpt>
      <trkpt lat="41.832312" lon="2.461758">
        <ele>550.929</ele>
        <time>2020-10-12T09:02:03Z</time>
      </trkpt>
      <trkpt lat="41.832381" lon="2.461756">
        <ele>551.422</ele>
        <time>2020-10-12T09:02:11Z</time>
      </trkpt>
      <trkpt lat="41.832421" lon="2.461655">
        <ele>553.329</ele>
        <time>2020-10-12T09:02:23Z</time>
      </trkpt>
      <trkpt lat="41.832432" lon="2.461630">
        <ele>554.310</ele>
        <time>2020-10-12T09:02:26Z</time>
      </trkpt>
      <trkpt lat="41.832479" lon="2.461554">
        <ele>556.258</ele>
        <time>2020-10-12T09:02:34Z</time>
      </trkpt>
      <trkpt lat="41.832563" lon="2.461486">
        <ele>557.794</ele>
        <time>2020-10-12T09:02:45Z</time>
      </trkpt>
      <trkpt lat="41.832651" lon="2.461581">
        <ele>559.157</ele>
        <time>2020-10-12T09:03:00Z</time>
      </trkpt>
      <trkpt lat="41.832766" lon="2.461614">
        <ele>561.022</ele>
        <time>2020-10-12T09:03:13Z</time>
      </trkpt>
      <trkpt lat="41.832820" lon="2.461529">
        <ele>563.908</ele>
        <time>2020-10-12T09:03:26Z</time>
      </trkpt>
      <trkpt lat="41.832800" lon="2.461388">
        <ele>566.814</ele>
        <time>2020-10-12T09:03:40Z</time>
      </trkpt>
      <trkpt lat="41.832775" lon="2.461252">
        <ele>568.738</ele>
        <time>2020-10-12T09:03:53Z</time>
      </trkpt>
      <trkpt lat="41.832766" lon="2.461147">
        <ele>570.625</ele>
        <time>2020-10-12T09:04:02Z</time>
      </trkpt>
      <trkpt lat="41.832739" lon="2.460970">
        <ele>572.611</ele>
        <time>2020-10-12T09:04:15Z</time>
      </trkpt>
      <trkpt lat="41.832721" lon="2.460878">
        <ele>575.024</ele>
        <time>2020-10-12T09:04:27Z</time>
      </trkpt>
      <trkpt lat="41.832689" lon="2.460682">
        <ele>578.361</ele>
        <time>2020-10-12T09:04:43Z</time>
      </trkpt>
      <trkpt lat="41.832689" lon="2.460638">
        <ele>578.832</ele>
        <time>2020-10-12T09:04:48Z</time>
      </trkpt>
      <trkpt lat="41.832711" lon="2.460495">
        <ele>580.720</ele>
        <time>2020-10-12T09:05:01Z</time>
      </trkpt>
      <trkpt lat="41.832702" lon="2.460468">
        <ele>580.792</ele>
        <time>2020-10-12T09:05:04Z</time>
      </trkpt>
      <trkpt lat="41.832678" lon="2.460291">
        <ele>582.773</ele>
        <time>2020-10-12T09:05:16Z</time>
      </trkpt>
      <trkpt lat="41.832651" lon="2.460144">
        <ele>585.120</ele>
        <time>2020-10-12T09:05:27Z</time>
      </trkpt>
      <trkpt lat="41.832646" lon="2.460113">
        <ele>586.508</ele>
        <time>2020-10-12T09:05:31Z</time>
      </trkpt>
      <trkpt lat="41.832634" lon="2.460092">
        <ele>587.554</ele>
        <time>2020-10-12T09:05:43Z</time>
      </trkpt>
      <trkpt lat="41.832642" lon="2.460093">
        <ele>587.048</ele>
        <time>2020-10-12T09:05:44Z</time>
      </trkpt>
      <trkpt lat="41.832697" lon="2.460109">
        <ele>588.965</ele>
        <time>2020-10-12T09:05:52Z</time>
      </trkpt>
      <trkpt lat="41.832836" lon="2.460138">
        <ele>591.371</ele>
        <time>2020-10-12T09:06:07Z</time>
      </trkpt>
      <trkpt lat="41.832964" lon="2.460126">
        <ele>593.744</ele>
        <time>2020-10-12T09:06:21Z</time>
      </trkpt>
      <trkpt lat="41.833073" lon="2.460101">
        <ele>596.111</ele>
        <time>2020-10-12T09:06:35Z</time>
      </trkpt>
      <trkpt lat="41.833126" lon="2.460019">
        <ele>596.662</ele>
        <time>2020-10-12T09:06:43Z</time>
      </trkpt>
      <trkpt lat="41.833210" lon="2.459872">
        <ele>597.120</ele>
        <time>2020-10-12T09:06:55Z</time>
      </trkpt>
      <trkpt lat="41.833276" lon="2.459755">
        <ele>600.416</ele>
        <time>2020-10-12T09:07:08Z</time>
      </trkpt>
      <trkpt lat="41.833311" lon="2.459712">
        <ele>600.976</ele>
        <time>2020-10-12T09:07:12Z</time>
      </trkpt>
      <trkpt lat="41.833360" lon="2.459569">
        <ele>602.813</ele>
        <time>2020-10-12T09:07:26Z</time>
      </trkpt>
      <trkpt lat="41.833394" lon="2.459456">
        <ele>605.708</ele>
        <time>2020-10-12T09:07:37Z</time>
      </trkpt>
      <trkpt lat="41.833430" lon="2.459316">
        <ele>608.616</ele>
        <time>2020-10-12T09:07:50Z</time>
      </trkpt>
      <trkpt lat="41.833441" lon="2.459293">
        <ele>609.160</ele>
        <time>2020-10-12T09:07:52Z</time>
      </trkpt>
      <trkpt lat="41.833468" lon="2.459202">
        <ele>610.547</ele>
        <time>2020-10-12T09:08:00Z</time>
      </trkpt>
      <trkpt lat="41.833517" lon="2.459066">
        <ele>612.093</ele>
        <time>2020-10-12T09:08:11Z</time>
      </trkpt>
      <trkpt lat="41.833523" lon="2.458968">
        <ele>612.956</ele>
        <time>2020-10-12T09:08:18Z</time>
      </trkpt>
      <trkpt lat="41.833550" lon="2.458797">
        <ele>613.913</ele>
        <time>2020-10-12T09:08:30Z</time>
      </trkpt>
      <trkpt lat="41.833612" lon="2.458655">
        <ele>615.394</ele>
        <time>2020-10-12T09:08:42Z</time>
      </trkpt>
      <trkpt lat="41.833653" lon="2.458472">
        <ele>618.222</ele>
        <time>2020-10-12T09:08:55Z</time>
      </trkpt>
      <trkpt lat="41.833652" lon="2.458460">
        <ele>618.264</ele>
        <time>2020-10-12T09:08:56Z</time>
      </trkpt>
      <trkpt lat="41.833700" lon="2.458277">
        <ele>620.106</ele>
        <time>2020-10-12T09:09:10Z</time>
      </trkpt>
      <trkpt lat="41.833701" lon="2.458262">
        <ele>620.616</ele>
        <time>2020-10-12T09:09:11Z</time>
      </trkpt>
      <trkpt lat="41.833718" lon="2.458182">
        <ele>621.108</ele>
        <time>2020-10-12T09:09:16Z</time>
      </trkpt>
      <trkpt lat="41.833731" lon="2.458082">
        <ele>622.551</ele>
        <time>2020-10-12T09:09:22Z</time>
      </trkpt>
      <trkpt lat="41.833678" lon="2.457815">
        <ele>623.095</ele>
        <time>2020-10-12T09:09:35Z</time>
      </trkpt>
      <trkpt lat="41.833631" lon="2.457598">
        <ele>624.012</ele>
        <time>2020-10-12T09:09:47Z</time>
      </trkpt>
      <trkpt lat="41.833614" lon="2.457508">
        <ele>624.058</ele>
        <time>2020-10-12T09:09:51Z</time>
      </trkpt>
      <trkpt lat="41.833603" lon="2.457413">
        <ele>624.581</ele>
        <time>2020-10-12T09:10:00Z</time>
      </trkpt>
      <trkpt lat="41.833589" lon="2.457294">
        <ele>624.578</ele>
        <time>2020-10-12T09:10:02Z</time>
      </trkpt>
      <trkpt lat="41.833584" lon="2.457236">
        <ele>624.949</ele>
        <time>2020-10-12T09:10:10Z</time>
      </trkpt>
      <trkpt lat="41.833560" lon="2.457139">
        <ele>625.957</ele>
        <time>2020-10-12T09:10:12Z</time>
      </trkpt>
      <trkpt lat="41.833591" lon="2.457015">
        <ele>626.447</ele>
        <time>2020-10-12T09:10:17Z</time>
      </trkpt>
      <trkpt lat="41.833611" lon="2.456924">
        <ele>626.929</ele>
        <time>2020-10-12T09:10:24Z</time>
      </trkpt>
      <trkpt lat="41.833616" lon="2.456860">
        <ele>628.821</ele>
        <time>2020-10-12T09:10:32Z</time>
      </trkpt>
      <trkpt lat="41.833632" lon="2.456747">
        <ele>627.808</ele>
        <time>2020-10-12T09:10:33Z</time>
      </trkpt>
      <trkpt lat="41.833645" lon="2.456663">
        <ele>628.899</ele>
        <time>2020-10-12T09:10:44Z</time>
      </trkpt>
      <trkpt lat="41.833666" lon="2.456504">
        <ele>629.383</ele>
        <time>2020-10-12T09:10:56Z</time>
      </trkpt>
      <trkpt lat="41.833673" lon="2.456366">
        <ele>629.880</ele>
        <time>2020-10-12T09:11:08Z</time>
      </trkpt>
      <trkpt lat="41.833661" lon="2.456271">
        <ele>630.246</ele>
        <time>2020-10-12T09:11:11Z</time>
      </trkpt>
      <trkpt lat="41.833636" lon="2.456065">
        <ele>629.849</ele>
        <time>2020-10-12T09:11:16Z</time>
      </trkpt>
      <trkpt lat="41.833578" lon="2.455869">
        <ele>629.316</ele>
        <time>2020-10-12T09:11:36Z</time>
      </trkpt>
      <trkpt lat="41.833483" lon="2.455716">
        <ele>630.247</ele>
        <time>2020-10-12T09:11:52Z</time>
      </trkpt>
      <trkpt lat="41.833460" lon="2.455616">
        <ele>629.815</ele>
        <time>2020-10-12T09:11:53Z</time>
      </trkpt>
      <trkpt lat="41.833434" lon="2.455488">
        <ele>629.324</ele>
        <time>2020-10-12T09:12:02Z</time>
      </trkpt>
      <trkpt lat="41.833443" lon="2.455379">
        <ele>628.804</ele>
        <time>2020-10-12T09:12:15Z</time>
      </trkpt>
      <trkpt lat="41.833481" lon="2.455211">
        <ele>627.814</ele>
        <time>2020-10-12T09:12:19Z</time>
      </trkpt>
      <trkpt lat="41.833469" lon="2.455098">
        <ele>628.308</ele>
        <time>2020-10-12T09:12:35Z</time>
      </trkpt>
      <trkpt lat="41.833261" lon="2.454749">
        <ele>629.357</ele>
        <time>2020-10-12T09:12:51Z</time>
      </trkpt>
      <trkpt lat="41.833123" lon="2.454472">
        <ele>630.281</ele>
        <time>2020-10-12T09:13:06Z</time>
      </trkpt>
      <trkpt lat="41.833013" lon="2.454309">
        <ele>631.728</ele>
        <time>2020-10-12T09:13:18Z</time>
      </trkpt>
      <trkpt lat="41.832916" lon="2.454189">
        <ele>633.124</ele>
        <time>2020-10-12T09:13:31Z</time>
      </trkpt>
      <trkpt lat="41.832793" lon="2.454092">
        <ele>633.117</ele>
        <time>2020-10-12T09:13:43Z</time>
      </trkpt>
      <trkpt lat="41.832729" lon="2.454044">
        <ele>633.174</ele>
        <time>2020-10-12T09:13:50Z</time>
      </trkpt>
      <trkpt lat="41.832658" lon="2.453986">
        <ele>633.135</ele>
        <time>2020-10-12T09:13:54Z</time>
      </trkpt>
      <trkpt lat="41.832571" lon="2.453884">
        <ele>634.643</ele>
        <time>2020-10-12T09:14:11Z</time>
      </trkpt>
      <trkpt lat="41.832501" lon="2.453758">
        <ele>634.689</ele>
        <time>2020-10-12T09:14:12Z</time>
      </trkpt>
      <trkpt lat="41.832471" lon="2.453665">
        <ele>634.606</ele>
        <time>2020-10-12T09:14:14Z</time>
      </trkpt>
      <trkpt lat="41.832474" lon="2.453575">
        <ele>635.526</ele>
        <time>2020-10-12T09:14:17Z</time>
      </trkpt>
      <trkpt lat="41.832483" lon="2.453440">
        <ele>635.008</ele>
        <time>2020-10-12T09:14:27Z</time>
      </trkpt>
      <trkpt lat="41.832505" lon="2.453327">
        <ele>636.523</ele>
        <time>2020-10-12T09:14:35Z</time>
      </trkpt>
      <trkpt lat="41.832474" lon="2.453154">
        <ele>637.947</ele>
        <time>2020-10-12T09:14:46Z</time>
      </trkpt>
      <trkpt lat="41.832431" lon="2.452951">
        <ele>637.934</ele>
        <time>2020-10-12T09:14:49Z</time>
      </trkpt>
      <trkpt lat="41.832428" lon="2.452871">
        <ele>637.940</ele>
        <time>2020-10-12T09:15:01Z</time>
      </trkpt>
      <trkpt lat="41.832419" lon="2.452789">
        <ele>639.423</ele>
        <time>2020-10-12T09:15:14Z</time>
      </trkpt>
      <trkpt lat="41.832403" lon="2.452694">
        <ele>640.380</ele>
        <time>2020-10-12T09:15:17Z</time>
      </trkpt>
      <trkpt lat="41.832372" lon="2.452632">
        <ele>642.321</ele>
        <time>2020-10-12T09:15:31Z</time>
      </trkpt>
      <trkpt lat="41.832316" lon="2.452595">
        <ele>643.269</ele>
        <time>2020-10-12T09:15:34Z</time>
      </trkpt>
      <trkpt lat="41.832244" lon="2.452512">
        <ele>644.749</ele>
        <time>2020-10-12T09:15:48Z</time>
      </trkpt>
      <trkpt lat="41.832176" lon="2.452437">
        <ele>646.102</ele>
        <time>2020-10-12T09:15:55Z</time>
      </trkpt>
      <trkpt lat="41.832142" lon="2.452359">
        <ele>649.022</ele>
        <time>2020-10-12T09:16:09Z</time>
      </trkpt>
      <trkpt lat="41.832138" lon="2.452244">
        <ele>648.508</ele>
        <time>2020-10-12T09:16:15Z</time>
      </trkpt>
      <trkpt lat="41.832135" lon="2.452173">
        <ele>649.079</ele>
        <time>2020-10-12T09:16:27Z</time>
      </trkpt>
      <trkpt lat="41.832132" lon="2.452087">
        <ele>649.543</ele>
        <time>2020-10-12T09:16:47Z</time>
      </trkpt>
      <trkpt lat="41.832140" lon="2.451974">
        <ele>649.950</ele>
        <time>2020-10-12T09:17:00Z</time>
      </trkpt>
      <trkpt lat="41.832117" lon="2.451894">
        <ele>650.416</ele>
        <time>2020-10-12T09:17:02Z</time>
      </trkpt>
      <trkpt lat="41.832072" lon="2.451788">
        <ele>652.399</ele>
        <time>2020-10-12T09:17:17Z</time>
      </trkpt>
      <trkpt lat="41.832022" lon="2.451622">
        <ele>653.846</ele>
        <time>2020-10-12T09:17:31Z</time>
      </trkpt>
      <trkpt lat="41.832000" lon="2.451509">
        <ele>654.317</ele>
        <time>2020-10-12T09:17:36Z</time>
      </trkpt>
      <trkpt lat="41.831957" lon="2.451363">
        <ele>654.825</ele>
        <time>2020-10-12T09:17:50Z</time>
      </trkpt>
      <trkpt lat="41.831927" lon="2.451189">
        <ele>657.246</ele>
        <time>2020-10-12T09:18:01Z</time>
      </trkpt>
      <trkpt lat="41.831917" lon="2.451079">
        <ele>660.088</ele>
        <time>2020-10-12T09:18:14Z</time>
      </trkpt>
      <trkpt lat="41.831907" lon="2.451010">
        <ele>660.016</ele>
        <time>2020-10-12T09:18:19Z</time>
      </trkpt>
      <trkpt lat="41.831891" lon="2.450844">
        <ele>661.008</ele>
        <time>2020-10-12T09:18:26Z</time>
      </trkpt>
      <trkpt lat="41.831896" lon="2.450758">
        <ele>662.479</ele>
        <time>2020-10-12T09:18:40Z</time>
      </trkpt>
      <trkpt lat="41.831907" lon="2.450693">
        <ele>663.473</ele>
        <time>2020-10-12T09:18:46Z</time>
      </trkpt>
      <trkpt lat="41.831943" lon="2.450607">
        <ele>664.460</ele>
        <time>2020-10-12T09:18:52Z</time>
      </trkpt>
      <trkpt lat="41.832000" lon="2.450455">
        <ele>667.746</ele>
        <time>2020-10-12T09:19:07Z</time>
      </trkpt>
      <trkpt lat="41.832063" lon="2.450317">
        <ele>669.719</ele>
        <time>2020-10-12T09:19:18Z</time>
      </trkpt>
      <trkpt lat="41.832165" lon="2.450178">
        <ele>672.116</ele>
        <time>2020-10-12T09:19:31Z</time>
      </trkpt>
      <trkpt lat="41.832293" lon="2.450094">
        <ele>675.477</ele>
        <time>2020-10-12T09:19:45Z</time>
      </trkpt>
      <trkpt lat="41.832365" lon="2.450014">
        <ele>677.815</ele>
        <time>2020-10-12T09:19:59Z</time>
      </trkpt>
      <trkpt lat="41.832424" lon="2.449917">
        <ele>678.865</ele>
        <time>2020-10-12T09:20:09Z</time>
      </trkpt>
      <trkpt lat="41.832480" lon="2.449771">
        <ele>679.368</ele>
        <time>2020-10-12T09:20:18Z</time>
      </trkpt>
      <trkpt lat="41.832478" lon="2.449704">
        <ele>680.214</ele>
        <time>2020-10-12T09:20:33Z</time>
      </trkpt>
      <trkpt lat="41.832469" lon="2.449603">
        <ele>683.108</ele>
        <time>2020-10-12T09:20:47Z</time>
      </trkpt>
      <trkpt lat="41.832424" lon="2.449461">
        <ele>684.131</ele>
        <time>2020-10-12T09:20:56Z</time>
      </trkpt>
      <trkpt lat="41.832419" lon="2.449291">
        <ele>685.015</ele>
        <time>2020-10-12T09:20:59Z</time>
      </trkpt>
      <trkpt lat="41.832435" lon="2.449169">
        <ele>685.052</ele>
        <time>2020-10-12T09:21:04Z</time>
      </trkpt>
      <trkpt lat="41.832446" lon="2.449069">
        <ele>685.568</ele>
        <time>2020-10-12T09:21:08Z</time>
      </trkpt>
      <trkpt lat="41.832463" lon="2.448990">
        <ele>686.561</ele>
        <time>2020-10-12T09:21:18Z</time>
      </trkpt>
      <trkpt lat="41.832474" lon="2.448795">
        <ele>688.928</ele>
        <time>2020-10-12T09:21:31Z</time>
      </trkpt>
      <trkpt lat="41.832495" lon="2.448576">
        <ele>690.849</ele>
        <time>2020-10-12T09:21:49Z</time>
      </trkpt>
      <trkpt lat="41.832509" lon="2.448472">
        <ele>692.257</ele>
        <time>2020-10-12T09:22:03Z</time>
      </trkpt>
      <trkpt lat="41.832482" lon="2.448309">
        <ele>692.711</ele>
        <time>2020-10-12T09:22:05Z</time>
      </trkpt>
      <trkpt lat="41.832479" lon="2.448191">
        <ele>693.221</ele>
        <time>2020-10-12T09:22:13Z</time>
      </trkpt>
      <trkpt lat="41.832509" lon="2.448138">
        <ele>693.703</ele>
        <time>2020-10-12T09:22:15Z</time>
      </trkpt>
      <trkpt lat="41.832525" lon="2.448112">
        <ele>695.108</ele>
        <time>2020-10-12T09:22:20Z</time>
      </trkpt>
      <trkpt lat="41.832558" lon="2.448103">
        <ele>694.616</ele>
        <time>2020-10-12T09:22:24Z</time>
      </trkpt>
      <trkpt lat="41.832676" lon="2.448110">
        <ele>696.640</ele>
        <time>2020-10-12T09:22:35Z</time>
      </trkpt>
      <trkpt lat="41.832777" lon="2.448092">
        <ele>696.687</ele>
        <time>2020-10-12T09:22:40Z</time>
      </trkpt>
      <trkpt lat="41.832854" lon="2.448070">
        <ele>697.043</ele>
        <time>2020-10-12T09:22:46Z</time>
      </trkpt>
      <trkpt lat="41.832971" lon="2.448039">
        <ele>699.956</ele>
        <time>2020-10-12T09:23:02Z</time>
      </trkpt>
      <trkpt lat="41.833094" lon="2.448033">
        <ele>702.393</ele>
        <time>2020-10-12T09:23:16Z</time>
      </trkpt>
      <trkpt lat="41.833229" lon="2.448008">
        <ele>703.884</ele>
        <time>2020-10-12T09:23:31Z</time>
      </trkpt>
      <trkpt lat="41.833251" lon="2.448012">
        <ele>704.742</ele>
        <time>2020-10-12T09:23:34Z</time>
      </trkpt>
      <trkpt lat="41.833383" lon="2.448003">
        <ele>706.776</ele>
        <time>2020-10-12T09:23:48Z</time>
      </trkpt>
      <trkpt lat="41.833527" lon="2.448045">
        <ele>709.190</ele>
        <time>2020-10-12T09:24:03Z</time>
      </trkpt>
      <trkpt lat="41.833642" lon="2.448104">
        <ele>711.519</ele>
        <time>2020-10-12T09:24:18Z</time>
      </trkpt>
      <trkpt lat="41.833785" lon="2.448149">
        <ele>713.408</ele>
        <time>2020-10-12T09:24:33Z</time>
      </trkpt>
      <trkpt lat="41.833892" lon="2.448124">
        <ele>715.362</ele>
        <time>2020-10-12T09:24:47Z</time>
      </trkpt>
      <trkpt lat="41.833827" lon="2.448014">
        <ele>717.776</ele>
        <time>2020-10-12T09:24:59Z</time>
      </trkpt>
      <trkpt lat="41.833773" lon="2.447967">
        <ele>719.673</ele>
        <time>2020-10-12T09:25:14Z</time>
      </trkpt>
      <trkpt lat="41.833682" lon="2.447790">
        <ele>722.589</ele>
        <time>2020-10-12T09:25:28Z</time>
      </trkpt>
      <trkpt lat="41.833554" lon="2.447582">
        <ele>724.482</ele>
        <time>2020-10-12T09:25:41Z</time>
      </trkpt>
      <trkpt lat="41.833495" lon="2.447489">
        <ele>726.879</ele>
        <time>2020-10-12T09:25:55Z</time>
      </trkpt>
      <trkpt lat="41.833421" lon="2.447350">
        <ele>730.220</ele>
        <time>2020-10-12T09:26:06Z</time>
      </trkpt>
      <trkpt lat="41.833344" lon="2.447202">
        <ele>731.258</ele>
        <time>2020-10-12T09:26:18Z</time>
      </trkpt>
      <trkpt lat="41.833288" lon="2.447078">
        <ele>734.149</ele>
        <time>2020-10-12T09:26:31Z</time>
      </trkpt>
      <trkpt lat="41.833274" lon="2.447020">
        <ele>736.502</ele>
        <time>2020-10-12T09:26:46Z</time>
      </trkpt>
      <trkpt lat="41.833256" lon="2.446887">
        <ele>737.422</ele>
        <time>2020-10-12T09:26:48Z</time>
      </trkpt>
      <trkpt lat="41.833274" lon="2.446812">
        <ele>739.308</ele>
        <time>2020-10-12T09:27:01Z</time>
      </trkpt>
      <trkpt lat="41.833292" lon="2.446739">
        <ele>738.979</ele>
        <time>2020-10-12T09:27:14Z</time>
      </trkpt>
      <trkpt lat="41.833278" lon="2.446615">
        <ele>738.433</ele>
        <time>2020-10-12T09:27:16Z</time>
      </trkpt>
      <trkpt lat="41.833263" lon="2.446507">
        <ele>738.440</ele>
        <time>2020-10-12T09:27:18Z</time>
      </trkpt>
      <trkpt lat="41.833258" lon="2.446414">
        <ele>737.466</ele>
        <time>2020-10-12T09:27:30Z</time>
      </trkpt>
      <trkpt lat="41.833234" lon="2.446319">
        <ele>736.599</ele>
        <time>2020-10-12T09:27:35Z</time>
      </trkpt>
      <trkpt lat="41.833220" lon="2.446226">
        <ele>735.596</ele>
        <time>2020-10-12T09:27:40Z</time>
      </trkpt>
      <trkpt lat="41.833211" lon="2.446137">
        <ele>735.067</ele>
        <time>2020-10-12T09:27:42Z</time>
      </trkpt>
      <trkpt lat="41.833197" lon="2.446049">
        <ele>734.135</ele>
        <time>2020-10-12T09:27:48Z</time>
      </trkpt>
      <trkpt lat="41.833213" lon="2.445973">
        <ele>732.166</ele>
        <time>2020-10-12T09:28:00Z</time>
      </trkpt>
      <trkpt lat="41.833247" lon="2.445896">
        <ele>731.729</ele>
        <time>2020-10-12T09:28:03Z</time>
      </trkpt>
      <trkpt lat="41.833294" lon="2.445796">
        <ele>731.721</ele>
        <time>2020-10-12T09:28:06Z</time>
      </trkpt>
      <trkpt lat="41.833349" lon="2.445701">
        <ele>730.708</ele>
        <time>2020-10-12T09:28:19Z</time>
      </trkpt>
      <trkpt lat="41.833398" lon="2.445602">
        <ele>729.341</ele>
        <time>2020-10-12T09:28:31Z</time>
      </trkpt>
      <trkpt lat="41.833448" lon="2.445505">
        <ele>727.815</ele>
        <time>2020-10-12T09:28:41Z</time>
      </trkpt>
      <trkpt lat="41.833502" lon="2.445368">
        <ele>726.452</ele>
        <time>2020-10-12T09:28:55Z</time>
      </trkpt>
      <trkpt lat="41.833536" lon="2.445215">
        <ele>725.968</ele>
        <time>2020-10-12T09:29:01Z</time>
      </trkpt>
      <trkpt lat="41.833567" lon="2.445060">
        <ele>725.981</ele>
        <time>2020-10-12T09:29:06Z</time>
      </trkpt>
      <trkpt lat="41.833610" lon="2.444938">
        <ele>725.958</ele>
        <time>2020-10-12T09:29:21Z</time>
      </trkpt>
      <trkpt lat="41.833675" lon="2.444788">
        <ele>725.989</ele>
        <time>2020-10-12T09:29:30Z</time>
      </trkpt>
      <trkpt lat="41.833732" lon="2.444662">
        <ele>727.887</ele>
        <time>2020-10-12T09:29:44Z</time>
      </trkpt>
      <trkpt lat="41.833750" lon="2.444551">
        <ele>728.384</ele>
        <time>2020-10-12T09:30:01Z</time>
      </trkpt>
      <trkpt lat="41.833865" lon="2.444246">
        <ele>727.807</ele>
        <time>2020-10-12T09:30:09Z</time>
      </trkpt>
      <trkpt lat="41.833935" lon="2.444071">
        <ele>727.817</ele>
        <time>2020-10-12T09:30:14Z</time>
      </trkpt>
      <trkpt lat="41.833968" lon="2.443963">
        <ele>729.308</ele>
        <time>2020-10-12T09:30:29Z</time>
      </trkpt>
      <trkpt lat="41.834005" lon="2.443921">
        <ele>729.723</ele>
        <time>2020-10-12T09:30:34Z</time>
      </trkpt>
      <trkpt lat="41.834201" lon="2.443693">
        <ele>729.767</ele>
        <time>2020-10-12T09:30:47Z</time>
      </trkpt>
      <trkpt lat="41.834311" lon="2.443560">
        <ele>731.244</ele>
        <time>2020-10-12T09:31:02Z</time>
      </trkpt>
      <trkpt lat="41.834388" lon="2.443392">
        <ele>733.130</ele>
        <time>2020-10-12T09:31:15Z</time>
      </trkpt>
      <trkpt lat="41.834438" lon="2.443297">
        <ele>733.663</ele>
        <time>2020-10-12T09:31:20Z</time>
      </trkpt>
      <trkpt lat="41.834512" lon="2.443173">
        <ele>736.030</ele>
        <time>2020-10-12T09:31:35Z</time>
      </trkpt>
      <trkpt lat="41.834767" lon="2.442916">
        <ele>736.941</ele>
        <time>2020-10-12T09:31:49Z</time>
      </trkpt>
      <trkpt lat="41.834794" lon="2.442841">
        <ele>738.469</ele>
        <time>2020-10-12T09:32:01Z</time>
      </trkpt>
      <trkpt lat="41.834848" lon="2.442631">
        <ele>739.841</ele>
        <time>2020-10-12T09:32:15Z</time>
      </trkpt>
      <trkpt lat="41.834876" lon="2.442504">
        <ele>742.281</ele>
        <time>2020-10-12T09:32:28Z</time>
      </trkpt>
      <trkpt lat="41.834856" lon="2.442493">
        <ele>742.209</ele>
        <time>2020-10-12T09:32:41Z</time>
      </trkpt>
      <trkpt lat="41.834861" lon="2.442445">
        <ele>742.208</ele>
        <time>2020-10-12T09:33:12Z</time>
      </trkpt>
      <trkpt lat="41.834880" lon="2.442392">
        <ele>742.299</ele>
        <time>2020-10-12T09:33:39Z</time>
      </trkpt>
      <trkpt lat="41.834868" lon="2.442317">
        <ele>743.293</ele>
        <time>2020-10-12T09:33:54Z</time>
      </trkpt>
      <trkpt lat="41.834872" lon="2.442144">
        <ele>743.770</ele>
        <time>2020-10-12T09:33:55Z</time>
      </trkpt>
      <trkpt lat="41.834863" lon="2.442029">
        <ele>743.296</ele>
        <time>2020-10-12T09:33:56Z</time>
      </trkpt>
      <trkpt lat="41.834857" lon="2.441819">
        <ele>743.269</ele>
        <time>2020-10-12T09:34:00Z</time>
      </trkpt>
      <trkpt lat="41.834843" lon="2.441699">
        <ele>745.186</ele>
        <time>2020-10-12T09:34:07Z</time>
      </trkpt>
      <trkpt lat="41.834820" lon="2.441646">
        <ele>744.667</ele>
        <time>2020-10-12T09:34:13Z</time>
      </trkpt>
      <trkpt lat="41.834782" lon="2.441624">
        <ele>745.125</ele>
        <time>2020-10-12T09:34:14Z</time>
      </trkpt>
      <trkpt lat="41.834657" lon="2.441579">
        <ele>745.664</ele>
        <time>2020-10-12T09:34:28Z</time>
      </trkpt>
      <trkpt lat="41.834567" lon="2.441489">
        <ele>746.606</ele>
        <time>2020-10-12T09:34:45Z</time>
      </trkpt>
      <trkpt lat="41.834483" lon="2.441380">
        <ele>748.016</ele>
        <time>2020-10-12T09:34:59Z</time>
      </trkpt>
      <trkpt lat="41.834378" lon="2.441245">
        <ele>748.508</ele>
        <time>2020-10-12T09:35:06Z</time>
      </trkpt>
      <trkpt lat="41.834310" lon="2.441093">
        <ele>750.911</ele>
        <time>2020-10-12T09:35:20Z</time>
      </trkpt>
      <trkpt lat="41.834251" lon="2.440991">
        <ele>752.365</ele>
        <time>2020-10-12T09:35:34Z</time>
      </trkpt>
      <trkpt lat="41.834233" lon="2.440885">
        <ele>752.362</ele>
        <time>2020-10-12T09:35:37Z</time>
      </trkpt>
      <trkpt lat="41.834170" lon="2.440803">
        <ele>753.398</ele>
        <time>2020-10-12T09:35:38Z</time>
      </trkpt>
      <trkpt lat="41.834154" lon="2.440739">
        <ele>752.851</ele>
        <time>2020-10-12T09:35:39Z</time>
      </trkpt>
      <trkpt lat="41.834179" lon="2.440674">
        <ele>753.378</ele>
        <time>2020-10-12T09:35:40Z</time>
      </trkpt>
      <trkpt lat="41.834236" lon="2.440670">
        <ele>753.899</ele>
        <time>2020-10-12T09:35:41Z</time>
      </trkpt>
      <trkpt lat="41.834355" lon="2.440721">
        <ele>755.227</ele>
        <time>2020-10-12T09:35:54Z</time>
      </trkpt>
      <trkpt lat="41.834493" lon="2.440776">
        <ele>756.684</ele>
        <time>2020-10-12T09:36:06Z</time>
      </trkpt>
      <trkpt lat="41.834617" lon="2.440710">
        <ele>757.607</ele>
        <time>2020-10-12T09:36:18Z</time>
      </trkpt>
      <trkpt lat="41.834737" lon="2.440612">
        <ele>758.617</ele>
        <time>2020-10-12T09:36:21Z</time>
      </trkpt>
      <trkpt lat="41.834806" lon="2.440491">
        <ele>760.508</ele>
        <time>2020-10-12T09:36:37Z</time>
      </trkpt>
      <trkpt lat="41.834838" lon="2.440370">
        <ele>761.573</ele>
        <time>2020-10-12T09:36:49Z</time>
      </trkpt>
      <trkpt lat="41.834871" lon="2.440235">
        <ele>761.967</ele>
        <time>2020-10-12T09:37:03Z</time>
      </trkpt>
      <trkpt lat="41.834941" lon="2.440162">
        <ele>761.544</ele>
        <time>2020-10-12T09:37:10Z</time>
      </trkpt>
      <trkpt lat="41.834986" lon="2.440143">
        <ele>761.570</ele>
        <time>2020-10-12T09:37:11Z</time>
      </trkpt>
      <trkpt lat="41.835068" lon="2.440171">
        <ele>761.993</ele>
        <time>2020-10-12T09:37:12Z</time>
      </trkpt>
      <trkpt lat="41.835183" lon="2.440213">
        <ele>761.080</ele>
        <time>2020-10-12T09:37:13Z</time>
      </trkpt>
      <trkpt lat="41.835239" lon="2.440227">
        <ele>761.581</ele>
        <time>2020-10-12T09:37:14Z</time>
      </trkpt>
      <trkpt lat="41.835234" lon="2.440175">
        <ele>762.969</ele>
        <time>2020-10-12T09:37:28Z</time>
      </trkpt>
      <trkpt lat="41.835275" lon="2.439973">
        <ele>764.367</ele>
        <time>2020-10-12T09:37:43Z</time>
      </trkpt>
      <trkpt lat="41.835323" lon="2.439780">
        <ele>764.381</ele>
        <time>2020-10-12T09:37:55Z</time>
      </trkpt>
      <trkpt lat="41.835365" lon="2.439671">
        <ele>764.819</ele>
        <time>2020-10-12T09:38:00Z</time>
      </trkpt>
      <trkpt lat="41.835417" lon="2.439493">
        <ele>764.308</ele>
        <time>2020-10-12T09:38:01Z</time>
      </trkpt>
      <trkpt lat="41.835480" lon="2.439393">
        <ele>765.811</ele>
        <time>2020-10-12T09:38:16Z</time>
      </trkpt>
      <trkpt lat="41.835546" lon="2.439318">
        <ele>766.315</ele>
        <time>2020-10-12T09:38:27Z</time>
      </trkpt>
      <trkpt lat="41.835625" lon="2.439236">
        <ele>767.212</ele>
        <time>2020-10-12T09:38:33Z</time>
      </trkpt>
      <trkpt lat="41.835685" lon="2.439170">
        <ele>768.298</ele>
        <time>2020-10-12T09:38:46Z</time>
      </trkpt>
      <trkpt lat="41.835764" lon="2.439090">
        <ele>769.181</ele>
        <time>2020-10-12T09:38:54Z</time>
      </trkpt>
      <trkpt lat="41.835798" lon="2.439015">
        <ele>769.658</ele>
        <time>2020-10-12T09:38:55Z</time>
      </trkpt>
      <trkpt lat="41.835827" lon="2.438971">
        <ele>770.669</ele>
        <time>2020-10-12T09:39:06Z</time>
      </trkpt>
      <trkpt lat="41.835832" lon="2.438929">
        <ele>771.137</ele>
        <time>2020-10-12T09:39:07Z</time>
      </trkpt>
      <trkpt lat="41.835845" lon="2.438900">
        <ele>770.669</ele>
        <time>2020-10-12T09:39:08Z</time>
      </trkpt>
      <trkpt lat="41.835852" lon="2.438838">
        <ele>770.604</ele>
        <time>2020-10-12T09:39:09Z</time>
      </trkpt>
      <trkpt lat="41.835857" lon="2.438772">
        <ele>772.024</ele>
        <time>2020-10-12T09:39:22Z</time>
      </trkpt>
      <trkpt lat="41.835866" lon="2.438719">
        <ele>773.008</ele>
        <time>2020-10-12T09:39:29Z</time>
      </trkpt>
      <trkpt lat="41.835866" lon="2.438683">
        <ele>773.031</ele>
        <time>2020-10-12T09:39:30Z</time>
      </trkpt>
      <trkpt lat="41.835881" lon="2.438626">
        <ele>773.515</ele>
        <time>2020-10-12T09:39:34Z</time>
      </trkpt>
      <trkpt lat="41.835884" lon="2.438557">
        <ele>773.532</ele>
        <time>2020-10-12T09:39:40Z</time>
      </trkpt>
      <trkpt lat="41.835881" lon="2.438517">
        <ele>773.558</ele>
        <time>2020-10-12T09:39:47Z</time>
      </trkpt>
      <trkpt lat="41.835877" lon="2.438466">
        <ele>774.021</ele>
        <time>2020-10-12T09:39:59Z</time>
      </trkpt>
      <trkpt lat="41.835879" lon="2.438413">
        <ele>773.528</ele>
        <time>2020-10-12T09:40:11Z</time>
      </trkpt>
      <trkpt lat="41.835887" lon="2.438324">
        <ele>773.079</ele>
        <time>2020-10-12T09:40:31Z</time>
      </trkpt>
      <trkpt lat="41.835896" lon="2.438193">
        <ele>774.067</ele>
        <time>2020-10-12T09:40:43Z</time>
      </trkpt>
      <trkpt lat="41.835916" lon="2.438116">
        <ele>774.074</ele>
        <time>2020-10-12T09:40:44Z</time>
      </trkpt>
      <trkpt lat="41.835907" lon="2.438014">
        <ele>774.456</ele>
        <time>2020-10-12T09:40:45Z</time>
      </trkpt>
      <trkpt lat="41.835899" lon="2.437888">
        <ele>774.421</ele>
        <time>2020-10-12T09:40:46Z</time>
      </trkpt>
      <trkpt lat="41.835953" lon="2.437781">
        <ele>774.408</ele>
        <time>2020-10-12T09:40:48Z</time>
      </trkpt>
      <trkpt lat="41.836011" lon="2.437695">
        <ele>773.552</ele>
        <time>2020-10-12T09:41:04Z</time>
      </trkpt>
      <trkpt lat="41.836052" lon="2.437666">
        <ele>774.086</ele>
        <time>2020-10-12T09:41:17Z</time>
      </trkpt>
      <trkpt lat="41.836093" lon="2.437629">
        <ele>774.083</ele>
        <time>2020-10-12T09:41:20Z</time>
      </trkpt>
      <trkpt lat="41.836145" lon="2.437598">
        <ele>773.559</ele>
        <time>2020-10-12T09:41:21Z</time>
      </trkpt>
      <trkpt lat="41.836208" lon="2.437571">
        <ele>774.472</ele>
        <time>2020-10-12T09:41:23Z</time>
      </trkpt>
      <trkpt lat="41.836331" lon="2.437507">
        <ele>774.469</ele>
        <time>2020-10-12T09:41:37Z</time>
      </trkpt>
      <trkpt lat="41.836389" lon="2.437476">
        <ele>775.930</ele>
        <time>2020-10-12T09:41:50Z</time>
      </trkpt>
      <trkpt lat="41.836457" lon="2.437422">
        <ele>776.468</ele>
        <time>2020-10-12T09:41:54Z</time>
      </trkpt>
      <trkpt lat="41.836536" lon="2.437352">
        <ele>776.455</ele>
        <time>2020-10-12T09:41:55Z</time>
      </trkpt>
      <trkpt lat="41.836595" lon="2.437272">
        <ele>776.407</ele>
        <time>2020-10-12T09:41:56Z</time>
      </trkpt>
      <trkpt lat="41.836619" lon="2.437146">
        <ele>777.817</ele>
        <time>2020-10-12T09:42:11Z</time>
      </trkpt>
      <trkpt lat="41.836650" lon="2.437049">
        <ele>777.808</ele>
        <time>2020-10-12T09:42:14Z</time>
      </trkpt>
      <trkpt lat="41.836691" lon="2.436928">
        <ele>777.820</ele>
        <time>2020-10-12T09:42:15Z</time>
      </trkpt>
      <trkpt lat="41.836720" lon="2.436835">
        <ele>777.824</ele>
        <time>2020-10-12T09:42:16Z</time>
      </trkpt>
      <trkpt lat="41.836770" lon="2.436775">
        <ele>778.311</ele>
        <time>2020-10-12T09:42:27Z</time>
      </trkpt>
      <trkpt lat="41.836846" lon="2.436757">
        <ele>777.887</ele>
        <time>2020-10-12T09:42:29Z</time>
      </trkpt>
      <trkpt lat="41.836966" lon="2.436744">
        <ele>778.850</ele>
        <time>2020-10-12T09:42:36Z</time>
      </trkpt>
      <trkpt lat="41.837026" lon="2.436739">
        <ele>778.327</ele>
        <time>2020-10-12T09:42:49Z</time>
      </trkpt>
      <trkpt lat="41.837132" lon="2.436693">
        <ele>778.348</ele>
        <time>2020-10-12T09:42:55Z</time>
      </trkpt>
      <trkpt lat="41.837221" lon="2.436651">
        <ele>778.396</ele>
        <time>2020-10-12T09:43:08Z</time>
      </trkpt>
      <trkpt lat="41.837282" lon="2.436604">
        <ele>778.316</ele>
        <time>2020-10-12T09:43:19Z</time>
      </trkpt>
      <trkpt lat="41.837327" lon="2.436536">
        <ele>777.876</ele>
        <time>2020-10-12T09:43:20Z</time>
      </trkpt>
      <trkpt lat="41.837381" lon="2.436410">
        <ele>778.313</ele>
        <time>2020-10-12T09:43:21Z</time>
      </trkpt>
      <trkpt lat="41.837423" lon="2.436299">
        <ele>778.308</ele>
        <time>2020-10-12T09:43:22Z</time>
      </trkpt>
      <trkpt lat="41.837458" lon="2.436200">
        <ele>778.886</ele>
        <time>2020-10-12T09:43:23Z</time>
      </trkpt>
      <trkpt lat="41.837496" lon="2.436111">
        <ele>778.330</ele>
        <time>2020-10-12T09:43:24Z</time>
      </trkpt>
      <trkpt lat="41.837521" lon="2.436010">
        <ele>779.277</ele>
        <time>2020-10-12T09:43:39Z</time>
      </trkpt>
      <trkpt lat="41.837546" lon="2.435908">
        <ele>779.243</ele>
        <time>2020-10-12T09:43:43Z</time>
      </trkpt>
      <trkpt lat="41.837554" lon="2.435810">
        <ele>780.246</ele>
        <time>2020-10-12T09:43:56Z</time>
      </trkpt>
      <trkpt lat="41.837561" lon="2.435722">
        <ele>780.243</ele>
        <time>2020-10-12T09:44:08Z</time>
      </trkpt>
      <trkpt lat="41.837550" lon="2.435631">
        <ele>780.774</ele>
        <time>2020-10-12T09:44:16Z</time>
      </trkpt>
      <trkpt lat="41.837536" lon="2.435532">
        <ele>781.222</ele>
        <time>2020-10-12T09:44:17Z</time>
      </trkpt>
      <trkpt lat="41.837507" lon="2.435421">
        <ele>781.651</ele>
        <time>2020-10-12T09:44:31Z</time>
      </trkpt>
      <trkpt lat="41.837475" lon="2.435293">
        <ele>781.601</ele>
        <time>2020-10-12T09:44:32Z</time>
      </trkpt>
      <trkpt lat="41.837446" lon="2.435233">
        <ele>780.211</ele>
        <time>2020-10-12T09:44:48Z</time>
      </trkpt>
      <trkpt lat="41.837407" lon="2.435142">
        <ele>779.708</ele>
        <time>2020-10-12T09:44:54Z</time>
      </trkpt>
      <trkpt lat="41.837374" lon="2.435060">
        <ele>779.210</ele>
        <time>2020-10-12T09:45:01Z</time>
      </trkpt>
      <trkpt lat="41.837349" lon="2.434994">
        <ele>779.234</ele>
        <time>2020-10-12T09:45:02Z</time>
      </trkpt>
      <trkpt lat="41.837326" lon="2.434941">
        <ele>778.351</ele>
        <time>2020-10-12T09:45:08Z</time>
      </trkpt>
      <trkpt lat="41.837306" lon="2.434870">
        <ele>777.897</ele>
        <time>2020-10-12T09:45:09Z</time>
      </trkpt>
      <trkpt lat="41.837290" lon="2.434819">
        <ele>777.850</ele>
        <time>2020-10-12T09:45:10Z</time>
      </trkpt>
      <trkpt lat="41.837297" lon="2.434784">
        <ele>777.377</ele>
        <time>2020-10-12T09:45:11Z</time>
      </trkpt>
      <trkpt lat="41.837308" lon="2.434759">
        <ele>776.868</ele>
        <time>2020-10-12T09:45:12Z</time>
      </trkpt>
      <trkpt lat="41.837344" lon="2.434739">
        <ele>776.896</ele>
        <time>2020-10-12T09:45:19Z</time>
      </trkpt>
      <trkpt lat="41.837385" lon="2.434709">
        <ele>776.888</ele>
        <time>2020-10-12T09:45:20Z</time>
      </trkpt>
      <trkpt lat="41.837482" lon="2.434711">
        <ele>776.824</ele>
        <time>2020-10-12T09:45:24Z</time>
      </trkpt>
      <trkpt lat="41.837556" lon="2.434711">
        <ele>776.426</ele>
        <time>2020-10-12T09:45:38Z</time>
      </trkpt>
      <trkpt lat="41.837615" lon="2.434740">
        <ele>776.408</ele>
        <time>2020-10-12T09:46:03Z</time>
      </trkpt>
      <trkpt lat="41.837685" lon="2.434776">
        <ele>776.813</ele>
        <time>2020-10-12T09:46:16Z</time>
      </trkpt>
      <trkpt lat="41.837725" lon="2.434798">
        <ele>777.337</ele>
        <time>2020-10-12T09:46:34Z</time>
      </trkpt>
      <trkpt lat="41.837825" lon="2.434833">
        <ele>777.834</ele>
        <time>2020-10-12T09:46:45Z</time>
      </trkpt>
      <trkpt lat="41.837877" lon="2.434846">
        <ele>777.860</ele>
        <time>2020-10-12T09:46:46Z</time>
      </trkpt>
      <trkpt lat="41.837921" lon="2.434857">
        <ele>778.363</ele>
        <time>2020-10-12T09:46:49Z</time>
      </trkpt>
      <trkpt lat="41.837960" lon="2.434886">
        <ele>777.880</ele>
        <time>2020-10-12T09:46:50Z</time>
      </trkpt>
      <trkpt lat="41.838001" lon="2.434891">
        <ele>777.871</ele>
        <time>2020-10-12T09:46:51Z</time>
      </trkpt>
      <trkpt lat="41.838052" lon="2.434880">
        <ele>780.239</ele>
        <time>2020-10-12T09:47:03Z</time>
      </trkpt>
      <trkpt lat="41.838081" lon="2.434873">
        <ele>780.278</ele>
        <time>2020-10-12T09:47:04Z</time>
      </trkpt>
      <trkpt lat="41.838115" lon="2.434853">
        <ele>782.633</ele>
        <time>2020-10-12T09:47:19Z</time>
      </trkpt>
      <trkpt lat="41.838158" lon="2.434815">
        <ele>784.026</ele>
        <time>2020-10-12T09:47:36Z</time>
      </trkpt>
      <trkpt lat="41.838181" lon="2.434801">
        <ele>786.008</ele>
        <time>2020-10-12T09:47:47Z</time>
      </trkpt>
      <trkpt lat="41.838331" lon="2.434695">
        <ele>786.942</ele>
        <time>2020-10-12T09:47:59Z</time>
      </trkpt>
      <trkpt lat="41.838436" lon="2.434633">
        <ele>789.346</ele>
        <time>2020-10-12T09:48:13Z</time>
      </trkpt>
      <trkpt lat="41.838502" lon="2.434608">
        <ele>789.313</ele>
        <time>2020-10-12T09:48:15Z</time>
      </trkpt>
      <trkpt lat="41.838545" lon="2.434613">
        <ele>790.389</ele>
        <time>2020-10-12T09:48:23Z</time>
      </trkpt>
      <trkpt lat="41.838631" lon="2.434679">
        <ele>792.752</ele>
        <time>2020-10-12T09:48:38Z</time>
      </trkpt>
      <trkpt lat="41.838739" lon="2.434737">
        <ele>795.129</ele>
        <time>2020-10-12T09:48:52Z</time>
      </trkpt>
      <trkpt lat="41.838890" lon="2.434765">
        <ele>796.170</ele>
        <time>2020-10-12T09:49:00Z</time>
      </trkpt>
      <trkpt lat="41.839068" lon="2.434776">
        <ele>797.078</ele>
        <time>2020-10-12T09:49:15Z</time>
      </trkpt>
      <trkpt lat="41.839210" lon="2.434710">
        <ele>798.023</ele>
        <time>2020-10-12T09:49:27Z</time>
      </trkpt>
      <trkpt lat="41.839269" lon="2.434661">
        <ele>798.083</ele>
        <time>2020-10-12T09:49:28Z</time>
      </trkpt>
      <trkpt lat="41.839307" lon="2.434575">
        <ele>798.511</ele>
        <time>2020-10-12T09:49:32Z</time>
      </trkpt>
      <trkpt lat="41.839366" lon="2.434390">
        <ele>798.908</ele>
        <time>2020-10-12T09:49:44Z</time>
      </trkpt>
      <trkpt lat="41.839361" lon="2.434174">
        <ele>798.957</ele>
        <time>2020-10-12T09:49:56Z</time>
      </trkpt>
      <trkpt lat="41.839321" lon="2.433930">
        <ele>799.451</ele>
        <time>2020-10-12T09:50:09Z</time>
      </trkpt>
      <trkpt lat="41.839273" lon="2.433787">
        <ele>800.958</ele>
        <time>2020-10-12T09:50:23Z</time>
      </trkpt>
      <trkpt lat="41.839183" lon="2.433603">
        <ele>801.414</ele>
        <time>2020-10-12T09:50:35Z</time>
      </trkpt>
      <trkpt lat="41.839109" lon="2.433459">
        <ele>803.317</ele>
        <time>2020-10-12T09:50:48Z</time>
      </trkpt>
      <trkpt lat="41.839061" lon="2.433373">
        <ele>803.344</ele>
        <time>2020-10-12T09:50:56Z</time>
      </trkpt>
      <trkpt lat="41.839026" lon="2.433277">
        <ele>804.235</ele>
        <time>2020-10-12T09:51:05Z</time>
      </trkpt>
      <trkpt lat="41.839000" lon="2.433166">
        <ele>805.293</ele>
        <time>2020-10-12T09:51:10Z</time>
      </trkpt>
      <trkpt lat="41.838997" lon="2.433040">
        <ele>805.711</ele>
        <time>2020-10-12T09:51:22Z</time>
      </trkpt>
      <trkpt lat="41.839017" lon="2.432878">
        <ele>806.221</ele>
        <time>2020-10-12T09:51:28Z</time>
      </trkpt>
      <trkpt lat="41.839021" lon="2.432801">
        <ele>806.603</ele>
        <time>2020-10-12T09:51:33Z</time>
      </trkpt>
      <trkpt lat="41.839054" lon="2.432639">
        <ele>809.008</ele>
        <time>2020-10-12T09:51:47Z</time>
      </trkpt>
      <trkpt lat="41.839087" lon="2.432469">
        <ele>809.556</ele>
        <time>2020-10-12T09:51:48Z</time>
      </trkpt>
      <trkpt lat="41.839106" lon="2.432360">
        <ele>810.550</ele>
        <time>2020-10-12T09:51:59Z</time>
      </trkpt>
      <trkpt lat="41.839137" lon="2.432325">
        <ele>812.447</ele>
        <time>2020-10-12T09:52:10Z</time>
      </trkpt>
      <trkpt lat="41.839171" lon="2.432294">
        <ele>812.973</ele>
        <time>2020-10-12T09:52:15Z</time>
      </trkpt>
      <trkpt lat="41.839302" lon="2.432250">
        <ele>813.896</ele>
        <time>2020-10-12T09:52:19Z</time>
      </trkpt>
      <trkpt lat="41.839377" lon="2.432179">
        <ele>815.353</ele>
        <time>2020-10-12T09:52:30Z</time>
      </trkpt>
      <trkpt lat="41.839444" lon="2.432108">
        <ele>816.764</ele>
        <time>2020-10-12T09:52:43Z</time>
      </trkpt>
      <trkpt lat="41.839507" lon="2.432058">
        <ele>817.242</ele>
        <time>2020-10-12T09:52:55Z</time>
      </trkpt>
      <trkpt lat="41.839536" lon="2.432004">
        <ele>818.728</ele>
        <time>2020-10-12T09:53:09Z</time>
      </trkpt>
      <trkpt lat="41.839722" lon="2.431938">
        <ele>818.789</ele>
        <time>2020-10-12T09:53:10Z</time>
      </trkpt>
      <trkpt lat="41.839758" lon="2.431861">
        <ele>819.617</ele>
        <time>2020-10-12T09:53:23Z</time>
      </trkpt>
      <trkpt lat="41.839837" lon="2.431692">
        <ele>821.508</ele>
        <time>2020-10-12T09:53:38Z</time>
      </trkpt>
      <trkpt lat="41.839947" lon="2.431471">
        <ele>822.567</ele>
        <time>2020-10-12T09:53:51Z</time>
      </trkpt>
      <trkpt lat="41.840007" lon="2.431307">
        <ele>823.511</ele>
        <time>2020-10-12T09:54:07Z</time>
      </trkpt>
      <trkpt lat="41.840059" lon="2.431097">
        <ele>824.468</ele>
        <time>2020-10-12T09:54:17Z</time>
      </trkpt>
      <trkpt lat="41.840129" lon="2.430759">
        <ele>825.464</ele>
        <time>2020-10-12T09:54:32Z</time>
      </trkpt>
      <trkpt lat="41.840153" lon="2.430482">
        <ele>825.467</ele>
        <time>2020-10-12T09:54:51Z</time>
      </trkpt>
      <trkpt lat="41.840184" lon="2.430382">
        <ele>824.944</ele>
        <time>2020-10-12T09:55:00Z</time>
      </trkpt>
      <trkpt lat="41.840192" lon="2.430300">
        <ele>825.425</ele>
        <time>2020-10-12T09:55:06Z</time>
      </trkpt>
      <trkpt lat="41.840192" lon="2.430157">
        <ele>824.923</ele>
        <time>2020-10-12T09:55:22Z</time>
      </trkpt>
      <trkpt lat="41.840203" lon="2.430039">
        <ele>825.479</ele>
        <time>2020-10-12T09:55:37Z</time>
      </trkpt>
      <trkpt lat="41.840206" lon="2.429913">
        <ele>825.405</ele>
        <time>2020-10-12T09:55:48Z</time>
      </trkpt>
      <trkpt lat="41.840230" lon="2.429776">
        <ele>826.325</ele>
        <time>2020-10-12T09:55:52Z</time>
      </trkpt>
      <trkpt lat="41.840264" lon="2.429579">
        <ele>826.308</ele>
        <time>2020-10-12T09:56:06Z</time>
      </trkpt>
      <trkpt lat="41.840333" lon="2.429381">
        <ele>826.892</ele>
        <time>2020-10-12T09:56:17Z</time>
      </trkpt>
      <trkpt lat="41.840338" lon="2.429292">
        <ele>827.346</ele>
        <time>2020-10-12T09:56:24Z</time>
      </trkpt>
      <trkpt lat="41.840353" lon="2.429126">
        <ele>827.883</ele>
        <time>2020-10-12T09:56:27Z</time>
      </trkpt>
      <trkpt lat="41.840381" lon="2.429000">
        <ele>828.319</ele>
        <time>2020-10-12T09:56:40Z</time>
      </trkpt>
      <trkpt lat="41.840398" lon="2.428883">
        <ele>828.352</ele>
        <time>2020-10-12T09:56:45Z</time>
      </trkpt>
      <trkpt lat="41.840426" lon="2.428801">
        <ele>828.339</ele>
        <time>2020-10-12T09:56:57Z</time>
      </trkpt>
      <trkpt lat="41.840477" lon="2.428732">
        <ele>828.360</ele>
        <time>2020-10-12T09:57:01Z</time>
      </trkpt>
      <trkpt lat="41.840518" lon="2.428701">
        <ele>828.738</ele>
        <time>2020-10-12T09:57:10Z</time>
      </trkpt>
      <trkpt lat="41.840552" lon="2.428730">
        <ele>828.782</ele>
        <time>2020-10-12T09:57:23Z</time>
      </trkpt>
      <trkpt lat="41.840602" lon="2.428776">
        <ele>829.743</ele>
        <time>2020-10-12T09:57:38Z</time>
      </trkpt>
      <trkpt lat="41.840755" lon="2.428831">
        <ele>830.717</ele>
        <time>2020-10-12T09:57:45Z</time>
      </trkpt>
      <trkpt lat="41.841001" lon="2.428811">
        <ele>831.608</ele>
        <time>2020-10-12T09:57:56Z</time>
      </trkpt>
      <trkpt lat="41.841215" lon="2.428820">
        <ele>832.673</ele>
        <time>2020-10-12T09:58:12Z</time>
      </trkpt>
      <trkpt lat="41.841289" lon="2.428829">
        <ele>832.677</ele>
        <time>2020-10-12T09:58:15Z</time>
      </trkpt>
      <trkpt lat="41.841387" lon="2.428833">
        <ele>833.194</ele>
        <time>2020-10-12T09:58:21Z</time>
      </trkpt>
      <trkpt lat="41.841429" lon="2.428838">
        <ele>833.110</ele>
        <time>2020-10-12T09:58:27Z</time>
      </trkpt>
      <trkpt lat="41.841474" lon="2.428774">
        <ele>834.043</ele>
        <time>2020-10-12T09:58:43Z</time>
      </trkpt>
      <trkpt lat="41.841650" lon="2.428510">
        <ele>836.020</ele>
        <time>2020-10-12T09:59:01Z</time>
      </trkpt>
      <trkpt lat="41.841739" lon="2.428453">
        <ele>836.931</ele>
        <time>2020-10-12T09:59:17Z</time>
      </trkpt>
      <trkpt lat="41.841865" lon="2.428453">
        <ele>837.989</ele>
        <time>2020-10-12T09:59:33Z</time>
      </trkpt>
      <trkpt lat="41.842070" lon="2.428490">
        <ele>840.339</ele>
        <time>2020-10-12T09:59:41Z</time>
      </trkpt>
      <trkpt lat="41.842363" lon="2.428610">
        <ele>840.801</ele>
        <time>2020-10-12T09:59:55Z</time>
      </trkpt>
      <trkpt lat="41.842507" lon="2.428624">
        <ele>841.721</ele>
        <time>2020-10-12T10:00:05Z</time>
      </trkpt>
      <trkpt lat="41.842620" lon="2.428504">
        <ele>844.108</ele>
        <time>2020-10-12T10:00:17Z</time>
      </trkpt>
      <trkpt lat="41.842727" lon="2.428358">
        <ele>846.568</ele>
        <time>2020-10-12T10:00:31Z</time>
      </trkpt>
      <trkpt lat="41.842735" lon="2.428348">
        <ele>847.032</ele>
        <time>2020-10-12T10:00:32Z</time>
      </trkpt>
      <trkpt lat="41.842772" lon="2.428271">
        <ele>847.079</ele>
        <time>2020-10-12T10:00:39Z</time>
      </trkpt>
      <trkpt lat="41.842801" lon="2.428148">
        <ele>848.545</ele>
        <time>2020-10-12T10:00:50Z</time>
      </trkpt>
      <trkpt lat="41.842796" lon="2.428055">
        <ele>848.088</ele>
        <time>2020-10-12T10:00:56Z</time>
      </trkpt>
      <trkpt lat="41.842842" lon="2.427929">
        <ele>849.945</ele>
        <time>2020-10-12T10:01:06Z</time>
      </trkpt>
      <trkpt lat="41.842863" lon="2.427850">
        <ele>849.926</ele>
        <time>2020-10-12T10:01:11Z</time>
      </trkpt>
      <trkpt lat="41.842871" lon="2.427755">
        <ele>850.914</ele>
        <time>2020-10-12T10:01:16Z</time>
      </trkpt>
      <trkpt lat="41.842863" lon="2.427526">
        <ele>850.948</ele>
        <time>2020-10-12T10:01:28Z</time>
      </trkpt>
      <trkpt lat="41.842859" lon="2.427362">
        <ele>850.961</ele>
        <time>2020-10-12T10:01:40Z</time>
      </trkpt>
      <trkpt lat="41.842818" lon="2.427241">
        <ele>850.417</ele>
        <time>2020-10-12T10:01:55Z</time>
      </trkpt>
      <trkpt lat="41.842737" lon="2.427101">
        <ele>850.908</ele>
        <time>2020-10-12T10:02:07Z</time>
      </trkpt>
      <trkpt lat="41.842713" lon="2.426960">
        <ele>851.349</ele>
        <time>2020-10-12T10:02:10Z</time>
      </trkpt>
      <trkpt lat="41.842728" lon="2.426900">
        <ele>851.843</ele>
        <time>2020-10-12T10:02:18Z</time>
      </trkpt>
      <trkpt lat="41.842804" lon="2.426858">
        <ele>852.850</ele>
        <time>2020-10-12T10:02:31Z</time>
      </trkpt>
      <trkpt lat="41.842995" lon="2.426809">
        <ele>853.326</ele>
        <time>2020-10-12T10:02:34Z</time>
      </trkpt>
      <trkpt lat="41.843144" lon="2.426683">
        <ele>853.789</ele>
        <time>2020-10-12T10:02:41Z</time>
      </trkpt>
      <trkpt lat="41.843252" lon="2.426623">
        <ele>855.266</ele>
        <time>2020-10-12T10:02:58Z</time>
      </trkpt>
      <trkpt lat="41.843376" lon="2.426517">
        <ele>855.267</ele>
        <time>2020-10-12T10:03:09Z</time>
      </trkpt>
      <trkpt lat="41.843424" lon="2.426446">
        <ele>855.795</ele>
        <time>2020-10-12T10:03:15Z</time>
      </trkpt>
      <trkpt lat="41.843483" lon="2.426283">
        <ele>856.155</ele>
        <time>2020-10-12T10:03:30Z</time>
      </trkpt>
      <trkpt lat="41.843542" lon="2.426070">
        <ele>856.107</ele>
        <time>2020-10-12T10:03:34Z</time>
      </trkpt>
      <trkpt lat="41.843582" lon="2.425964">
        <ele>856.617</ele>
        <time>2020-10-12T10:03:39Z</time>
      </trkpt>
      <trkpt lat="41.843648" lon="2.425865">
        <ele>857.108</ele>
        <time>2020-10-12T10:03:54Z</time>
      </trkpt>
      <trkpt lat="41.843720" lon="2.425798">
        <ele>858.550</ele>
        <time>2020-10-12T10:04:08Z</time>
      </trkpt>
      <trkpt lat="41.843770" lon="2.425756">
        <ele>859.084</ele>
        <time>2020-10-12T10:04:25Z</time>
      </trkpt>
      <trkpt lat="41.843830" lon="2.425787">
        <ele>859.051</ele>
        <time>2020-10-12T10:04:41Z</time>
      </trkpt>
      <trkpt lat="41.843950" lon="2.425811">
        <ele>856.687</ele>
        <time>2020-10-12T10:04:55Z</time>
      </trkpt>
      <trkpt lat="41.844081" lon="2.425878">
        <ele>853.720</ele>
        <time>2020-10-12T10:05:06Z</time>
      </trkpt>
      <trkpt lat="41.844181" lon="2.425937">
        <ele>852.837</ele>
        <time>2020-10-12T10:05:21Z</time>
      </trkpt>
      <trkpt lat="41.844301" lon="2.425959">
        <ele>851.818</ele>
        <time>2020-10-12T10:05:36Z</time>
      </trkpt>
      <trkpt lat="41.844467" lon="2.425886">
        <ele>851.316</ele>
        <time>2020-10-12T10:05:48Z</time>
      </trkpt>
      <trkpt lat="41.844531" lon="2.425875">
        <ele>852.387</ele>
        <time>2020-10-12T10:05:54Z</time>
      </trkpt>
      <trkpt lat="41.844652" lon="2.425911">
        <ele>851.342</ele>
        <time>2020-10-12T10:06:04Z</time>
      </trkpt>
      <trkpt lat="41.844748" lon="2.425962">
        <ele>851.826</ele>
        <time>2020-10-12T10:06:21Z</time>
      </trkpt>
      <trkpt lat="41.844844" lon="2.425964">
        <ele>852.308</ele>
        <time>2020-10-12T10:06:25Z</time>
      </trkpt>
      <trkpt lat="41.844923" lon="2.425898">
        <ele>851.883</ele>
        <time>2020-10-12T10:06:27Z</time>
      </trkpt>
      <trkpt lat="41.845029" lon="2.425745">
        <ele>849.487</ele>
        <time>2020-10-12T10:06:43Z</time>
      </trkpt>
      <trkpt lat="41.845135" lon="2.425564">
        <ele>849.444</ele>
        <time>2020-10-12T10:06:45Z</time>
      </trkpt>
      <trkpt lat="41.845311" lon="2.425574">
        <ele>847.030</ele>
        <time>2020-10-12T10:06:59Z</time>
      </trkpt>
      <trkpt lat="41.845439" lon="2.425485">
        <ele>845.633</ele>
        <time>2020-10-12T10:07:12Z</time>
      </trkpt>
      <trkpt lat="41.845507" lon="2.425427">
        <ele>845.610</ele>
        <time>2020-10-12T10:07:17Z</time>
      </trkpt>
      <trkpt lat="41.845563" lon="2.425313">
        <ele>843.651</ele>
        <time>2020-10-12T10:07:26Z</time>
      </trkpt>
      <trkpt lat="41.845626" lon="2.425224">
        <ele>844.669</ele>
        <time>2020-10-12T10:07:39Z</time>
      </trkpt>
      <trkpt lat="41.845689" lon="2.425104">
        <ele>843.232</ele>
        <time>2020-10-12T10:07:51Z</time>
      </trkpt>
      <trkpt lat="41.845778" lon="2.424911">
        <ele>842.792</ele>
        <time>2020-10-12T10:08:04Z</time>
      </trkpt>
      <trkpt lat="41.845792" lon="2.424866">
        <ele>842.711</ele>
        <time>2020-10-12T10:08:08Z</time>
      </trkpt>
      <trkpt lat="41.845884" lon="2.424737">
        <ele>841.708</ele>
        <time>2020-10-12T10:08:22Z</time>
      </trkpt>
      <trkpt lat="41.845903" lon="2.424746">
        <ele>842.268</ele>
        <time>2020-10-12T10:08:24Z</time>
      </trkpt>
      <trkpt lat="41.846067" lon="2.424778">
        <ele>839.842</ele>
        <time>2020-10-12T10:08:39Z</time>
      </trkpt>
      <trkpt lat="41.846202" lon="2.424650">
        <ele>839.369</ele>
        <time>2020-10-12T10:08:48Z</time>
      </trkpt>
      <trkpt lat="41.846322" lon="2.424535">
        <ele>836.975</ele>
        <time>2020-10-12T10:09:03Z</time>
      </trkpt>
      <trkpt lat="41.846418" lon="2.424413">
        <ele>836.018</ele>
        <time>2020-10-12T10:09:11Z</time>
      </trkpt>
      <trkpt lat="41.846538" lon="2.424297">
        <ele>834.565</ele>
        <time>2020-10-12T10:09:23Z</time>
      </trkpt>
      <trkpt lat="41.846590" lon="2.424190">
        <ele>834.076</ele>
        <time>2020-10-12T10:09:34Z</time>
      </trkpt>
      <trkpt lat="41.846703" lon="2.423867">
        <ele>833.694</ele>
        <time>2020-10-12T10:09:51Z</time>
      </trkpt>
      <trkpt lat="41.846715" lon="2.423553">
        <ele>832.616</ele>
        <time>2020-10-12T10:10:04Z</time>
      </trkpt>
      <trkpt lat="41.846737" lon="2.423385">
        <ele>832.676</ele>
        <time>2020-10-12T10:10:10Z</time>
      </trkpt>
      <trkpt lat="41.846750" lon="2.423345">
        <ele>832.113</ele>
        <time>2020-10-12T10:10:13Z</time>
      </trkpt>
      <trkpt lat="41.846765" lon="2.423200">
        <ele>831.608</ele>
        <time>2020-10-12T10:10:21Z</time>
      </trkpt>
      <trkpt lat="41.846760" lon="2.423163">
        <ele>831.686</ele>
        <time>2020-10-12T10:10:23Z</time>
      </trkpt>
      <trkpt lat="41.846767" lon="2.423149">
        <ele>831.640</ele>
        <time>2020-10-12T10:10:24Z</time>
      </trkpt>
      <trkpt lat="41.846775" lon="2.423133">
        <ele>831.637</ele>
        <time>2020-10-12T10:10:25Z</time>
      </trkpt>
      <trkpt lat="41.846781" lon="2.423116">
        <ele>831.253</ele>
        <time>2020-10-12T10:10:26Z</time>
      </trkpt>
      <trkpt lat="41.846787" lon="2.423100">
        <ele>831.286</ele>
        <time>2020-10-12T10:10:27Z</time>
      </trkpt>
      <trkpt lat="41.846794" lon="2.423085">
        <ele>830.713</ele>
        <time>2020-10-12T10:10:28Z</time>
      </trkpt>
      <trkpt lat="41.846801" lon="2.423070">
        <ele>830.284</ele>
        <time>2020-10-12T10:10:29Z</time>
      </trkpt>
      <trkpt lat="41.846820" lon="2.423011">
        <ele>829.722</ele>
        <time>2020-10-12T10:10:33Z</time>
      </trkpt>
      <trkpt lat="41.846832" lon="2.422879">
        <ele>828.759</ele>
        <time>2020-10-12T10:10:39Z</time>
      </trkpt>
      <trkpt lat="41.846827" lon="2.422850">
        <ele>829.203</ele>
        <time>2020-10-12T10:10:40Z</time>
      </trkpt>
      <trkpt lat="41.846808" lon="2.422724">
        <ele>829.223</ele>
        <time>2020-10-12T10:10:46Z</time>
      </trkpt>
      <trkpt lat="41.846809" lon="2.422717">
        <ele>828.708</ele>
        <time>2020-10-12T10:10:47Z</time>
      </trkpt>
      <trkpt lat="41.846801" lon="2.422702">
        <ele>827.820</ele>
        <time>2020-10-12T10:10:48Z</time>
      </trkpt>
      <trkpt lat="41.846796" lon="2.422689">
        <ele>828.734</ele>
        <time>2020-10-12T10:10:49Z</time>
      </trkpt>
      <trkpt lat="41.846795" lon="2.422680">
        <ele>828.761</ele>
        <time>2020-10-12T10:10:50Z</time>
      </trkpt>
      <trkpt lat="41.846793" lon="2.422665">
        <ele>828.347</ele>
        <time>2020-10-12T10:10:51Z</time>
      </trkpt>
      <trkpt lat="41.846790" lon="2.422650">
        <ele>828.320</ele>
        <time>2020-10-12T10:10:52Z</time>
      </trkpt>
      <trkpt lat="41.846784" lon="2.422634">
        <ele>827.857</ele>
        <time>2020-10-12T10:10:53Z</time>
      </trkpt>
      <trkpt lat="41.846789" lon="2.422532">
        <ele>826.878</ele>
        <time>2020-10-12T10:11:05Z</time>
      </trkpt>
      <trkpt lat="41.846841" lon="2.422428">
        <ele>826.896</ele>
        <time>2020-10-12T10:11:15Z</time>
      </trkpt>
      <trkpt lat="41.846869" lon="2.422380">
        <ele>825.979</ele>
        <time>2020-10-12T10:11:22Z</time>
      </trkpt>
      <trkpt lat="41.846963" lon="2.422349">
        <ele>824.405</ele>
        <time>2020-10-12T10:11:35Z</time>
      </trkpt>
      <trkpt lat="41.847067" lon="2.422292">
        <ele>823.925</ele>
        <time>2020-10-12T10:11:45Z</time>
      </trkpt>
      <trkpt lat="41.847205" lon="2.422246">
        <ele>823.008</ele>
        <time>2020-10-12T10:11:57Z</time>
      </trkpt>
      <trkpt lat="41.847229" lon="2.422219">
        <ele>823.062</ele>
        <time>2020-10-12T10:11:59Z</time>
      </trkpt>
      <trkpt lat="41.847241" lon="2.422206">
        <ele>822.576</ele>
        <time>2020-10-12T10:12:00Z</time>
      </trkpt>
      <trkpt lat="41.847263" lon="2.422188">
        <ele>822.543</ele>
        <time>2020-10-12T10:12:02Z</time>
      </trkpt>
      <trkpt lat="41.847318" lon="2.422184">
        <ele>823.099</ele>
        <time>2020-10-12T10:12:06Z</time>
      </trkpt>
      <trkpt lat="41.847355" lon="2.422161">
        <ele>823.032</ele>
        <time>2020-10-12T10:12:09Z</time>
      </trkpt>
      <trkpt lat="41.847437" lon="2.422163">
        <ele>823.049</ele>
        <time>2020-10-12T10:12:15Z</time>
      </trkpt>
      <trkpt lat="41.847477" lon="2.422105">
        <ele>822.030</ele>
        <time>2020-10-12T10:12:19Z</time>
      </trkpt>
      <trkpt lat="41.847519" lon="2.422001">
        <ele>822.028</ele>
        <time>2020-10-12T10:12:23Z</time>
      </trkpt>
      <trkpt lat="41.847544" lon="2.421901">
        <ele>821.544</ele>
        <time>2020-10-12T10:12:27Z</time>
      </trkpt>
      <trkpt lat="41.847636" lon="2.421768">
        <ele>821.105</ele>
        <time>2020-10-12T10:12:34Z</time>
      </trkpt>
      <trkpt lat="41.847674" lon="2.421557">
        <ele>820.115</ele>
        <time>2020-10-12T10:12:41Z</time>
      </trkpt>
      <trkpt lat="41.847761" lon="2.421471">
        <ele>820.608</ele>
        <time>2020-10-12T10:12:46Z</time>
      </trkpt>
      <trkpt lat="41.847743" lon="2.421396">
        <ele>819.179</ele>
        <time>2020-10-12T10:12:53Z</time>
      </trkpt>
      <trkpt lat="41.847686" lon="2.421368">
        <ele>819.193</ele>
        <time>2020-10-12T10:12:59Z</time>
      </trkpt>
      <trkpt lat="41.847618" lon="2.421232">
        <ele>815.860</ele>
        <time>2020-10-12T10:13:11Z</time>
      </trkpt>
      <trkpt lat="41.847559" lon="2.421126">
        <ele>814.386</ele>
        <time>2020-10-12T10:13:20Z</time>
      </trkpt>
      <trkpt lat="41.847531" lon="2.421074">
        <ele>813.439</ele>
        <time>2020-10-12T10:13:25Z</time>
      </trkpt>
      <trkpt lat="41.847404" lon="2.420855">
        <ele>811.916</ele>
        <time>2020-10-12T10:13:38Z</time>
      </trkpt>
      <trkpt lat="41.847342" lon="2.420763">
        <ele>811.927</ele>
        <time>2020-10-12T10:13:50Z</time>
      </trkpt>
      <trkpt lat="41.847317" lon="2.420675">
        <ele>812.485</ele>
        <time>2020-10-12T10:14:01Z</time>
      </trkpt>
      <trkpt lat="41.847303" lon="2.420612">
        <ele>811.988</ele>
        <time>2020-10-12T10:14:06Z</time>
      </trkpt>
      <trkpt lat="41.847294" lon="2.420528">
        <ele>811.924</ele>
        <time>2020-10-12T10:14:12Z</time>
      </trkpt>
      <trkpt lat="41.847273" lon="2.420436">
        <ele>811.926</ele>
        <time>2020-10-12T10:14:17Z</time>
      </trkpt>
      <trkpt lat="41.847204" lon="2.420240">
        <ele>811.008</ele>
        <time>2020-10-12T10:14:28Z</time>
      </trkpt>
      <trkpt lat="41.847180" lon="2.420186">
        <ele>810.513</ele>
        <time>2020-10-12T10:14:30Z</time>
      </trkpt>
      <trkpt lat="41.847092" lon="2.420018">
        <ele>810.057</ele>
        <time>2020-10-12T10:14:43Z</time>
      </trkpt>
      <trkpt lat="41.847028" lon="2.419855">
        <ele>811.024</ele>
        <time>2020-10-12T10:14:56Z</time>
      </trkpt>
      <trkpt lat="41.846979" lon="2.419726">
        <ele>811.020</ele>
        <time>2020-10-12T10:15:07Z</time>
      </trkpt>
      <trkpt lat="41.846866" lon="2.419526">
        <ele>811.933</ele>
        <time>2020-10-12T10:15:21Z</time>
      </trkpt>
      <trkpt lat="41.846765" lon="2.419402">
        <ele>812.950</ele>
        <time>2020-10-12T10:15:32Z</time>
      </trkpt>
      <trkpt lat="41.846658" lon="2.419343">
        <ele>813.421</ele>
        <time>2020-10-12T10:15:46Z</time>
      </trkpt>
      <trkpt lat="41.846579" lon="2.419291">
        <ele>813.849</ele>
        <time>2020-10-12T10:15:56Z</time>
      </trkpt>
      <trkpt lat="41.846427" lon="2.419254">
        <ele>813.883</ele>
        <time>2020-10-12T10:16:20Z</time>
      </trkpt>
      <trkpt lat="41.846325" lon="2.419193">
        <ele>814.825</ele>
        <time>2020-10-12T10:16:39Z</time>
      </trkpt>
      <trkpt lat="41.846308" lon="2.419194">
        <ele>814.317</ele>
        <time>2020-10-12T10:16:56Z</time>
      </trkpt>
      <trkpt lat="41.846335" lon="2.419130">
        <ele>814.308</ele>
        <time>2020-10-12T10:17:10Z</time>
      </trkpt>
      <trkpt lat="41.846297" lon="2.419109">
        <ele>815.383</ele>
        <time>2020-10-12T10:17:29Z</time>
      </trkpt>
      <trkpt lat="41.846271" lon="2.419035">
        <ele>815.837</ele>
        <time>2020-10-12T10:17:43Z</time>
      </trkpt>
      <trkpt lat="41.846271" lon="2.418993">
        <ele>816.384</ele>
        <time>2020-10-12T10:17:57Z</time>
      </trkpt>
      <trkpt lat="41.846277" lon="2.418981">
        <ele>816.740</ele>
        <time>2020-10-12T10:17:58Z</time>
      </trkpt>
      <trkpt lat="41.846214" lon="2.418793">
        <ele>818.273</ele>
        <time>2020-10-12T10:18:11Z</time>
      </trkpt>
      <trkpt lat="41.846196" lon="2.418609">
        <ele>819.630</ele>
        <time>2020-10-12T10:18:25Z</time>
      </trkpt>
      <trkpt lat="41.846180" lon="2.418571">
        <ele>819.611</ele>
        <time>2020-10-12T10:18:34Z</time>
      </trkpt>
      <trkpt lat="41.846189" lon="2.418516">
        <ele>821.569</ele>
        <time>2020-10-12T10:18:46Z</time>
      </trkpt>
      <trkpt lat="41.846203" lon="2.418474">
        <ele>821.566</ele>
        <time>2020-10-12T10:18:48Z</time>
      </trkpt>
      <trkpt lat="41.846214" lon="2.418460">
        <ele>826.829</ele>
        <time>2020-10-12T10:19:31Z</time>
      </trkpt>
      <trkpt lat="41.846227" lon="2.418463">
        <ele>830.221</ele>
        <time>2020-10-12T10:19:43Z</time>
      </trkpt>
      <trkpt lat="41.846240" lon="2.418442">
        <ele>832.608</ele>
        <time>2020-10-12T10:19:56Z</time>
      </trkpt>
      <trkpt lat="41.846252" lon="2.418447">
        <ele>833.171</ele>
        <time>2020-10-12T10:19:57Z</time>
      </trkpt>
      <trkpt lat="41.846404" lon="2.418313">
        <ele>834.555</ele>
        <time>2020-10-12T10:20:08Z</time>
      </trkpt>
      <trkpt lat="41.846447" lon="2.418275">
        <ele>835.592</ele>
        <time>2020-10-12T10:20:15Z</time>
      </trkpt>
      <trkpt lat="41.846479" lon="2.418231">
        <ele>836.018</ele>
        <time>2020-10-12T10:20:17Z</time>
      </trkpt>
      <trkpt lat="41.846502" lon="2.418165">
        <ele>836.461</ele>
        <time>2020-10-12T10:20:20Z</time>
      </trkpt>
      <trkpt lat="41.846550" lon="2.418091">
        <ele>838.478</ele>
        <time>2020-10-12T10:20:28Z</time>
      </trkpt>
      <trkpt lat="41.846639" lon="2.417924">
        <ele>839.849</ele>
        <time>2020-10-12T10:20:42Z</time>
      </trkpt>
      <trkpt lat="41.846688" lon="2.417822">
        <ele>842.257</ele>
        <time>2020-10-12T10:20:52Z</time>
      </trkpt>
      <trkpt lat="41.846792" lon="2.417623">
        <ele>844.637</ele>
        <time>2020-10-12T10:21:04Z</time>
      </trkpt>
      <trkpt lat="41.846801" lon="2.417528">
        <ele>846.549</ele>
        <time>2020-10-12T10:21:19Z</time>
      </trkpt>
      <trkpt lat="41.846693" lon="2.417366">
        <ele>848.513</ele>
        <time>2020-10-12T10:21:32Z</time>
      </trkpt>
      <trkpt lat="41.846623" lon="2.417229">
        <ele>848.908</ele>
        <time>2020-10-12T10:21:43Z</time>
      </trkpt>
      <trkpt lat="41.846551" lon="2.417023">
        <ele>848.938</ele>
        <time>2020-10-12T10:21:51Z</time>
      </trkpt>
      <trkpt lat="41.846503" lon="2.416804">
        <ele>850.922</ele>
        <time>2020-10-12T10:22:06Z</time>
      </trkpt>
      <trkpt lat="41.846479" lon="2.416633">
        <ele>852.369</ele>
        <time>2020-10-12T10:22:17Z</time>
      </trkpt>
      <trkpt lat="41.846443" lon="2.416399">
        <ele>854.245</ele>
        <time>2020-10-12T10:22:30Z</time>
      </trkpt>
      <trkpt lat="41.846447" lon="2.416326">
        <ele>856.698</ele>
        <time>2020-10-12T10:22:43Z</time>
      </trkpt>
      <trkpt lat="41.846467" lon="2.416217">
        <ele>857.635</ele>
        <time>2020-10-12T10:22:45Z</time>
      </trkpt>
      <trkpt lat="41.846494" lon="2.416089">
        <ele>858.176</ele>
        <time>2020-10-12T10:22:49Z</time>
      </trkpt>
      <trkpt lat="41.846546" lon="2.415958">
        <ele>859.544</ele>
        <time>2020-10-12T10:23:04Z</time>
      </trkpt>
      <trkpt lat="41.846580" lon="2.415810">
        <ele>861.045</ele>
        <time>2020-10-12T10:23:18Z</time>
      </trkpt>
      <trkpt lat="41.846601" lon="2.415679">
        <ele>861.447</ele>
        <time>2020-10-12T10:23:25Z</time>
      </trkpt>
      <trkpt lat="41.846601" lon="2.415506">
        <ele>862.911</ele>
        <time>2020-10-12T10:23:36Z</time>
      </trkpt>
      <trkpt lat="41.846640" lon="2.415194">
        <ele>864.808</ele>
        <time>2020-10-12T10:23:52Z</time>
      </trkpt>
      <trkpt lat="41.846644" lon="2.415090">
        <ele>865.829</ele>
        <time>2020-10-12T10:24:00Z</time>
      </trkpt>
      <trkpt lat="41.846674" lon="2.414860">
        <ele>867.763</ele>
        <time>2020-10-12T10:24:15Z</time>
      </trkpt>
      <trkpt lat="41.846697" lon="2.414698">
        <ele>868.250</ele>
        <time>2020-10-12T10:24:26Z</time>
      </trkpt>
      <trkpt lat="41.846708" lon="2.414631">
        <ele>869.686</ele>
        <time>2020-10-12T10:24:31Z</time>
      </trkpt>
      <trkpt lat="41.846742" lon="2.414383">
        <ele>870.169</ele>
        <time>2020-10-12T10:24:47Z</time>
      </trkpt>
      <trkpt lat="41.846762" lon="2.414292">
        <ele>871.066</ele>
        <time>2020-10-12T10:24:53Z</time>
      </trkpt>
      <trkpt lat="41.846848" lon="2.414018">
        <ele>872.027</ele>
        <time>2020-10-12T10:25:07Z</time>
      </trkpt>
      <trkpt lat="41.846865" lon="2.413959">
        <ele>873.055</ele>
        <time>2020-10-12T10:25:12Z</time>
      </trkpt>
      <trkpt lat="41.846921" lon="2.413756">
        <ele>873.543</ele>
        <time>2020-10-12T10:25:23Z</time>
      </trkpt>
      <trkpt lat="41.846979" lon="2.413639">
        <ele>874.964</ele>
        <time>2020-10-12T10:25:36Z</time>
      </trkpt>
      <trkpt lat="41.847036" lon="2.413553">
        <ele>875.410</ele>
        <time>2020-10-12T10:25:39Z</time>
      </trkpt>
      <trkpt lat="41.847072" lon="2.413482">
        <ele>876.308</ele>
        <time>2020-10-12T10:25:47Z</time>
      </trkpt>
      <trkpt lat="41.847087" lon="2.413382">
        <ele>878.719</ele>
        <time>2020-10-12T10:26:00Z</time>
      </trkpt>
      <trkpt lat="41.847036" lon="2.413208">
        <ele>879.753</ele>
        <time>2020-10-12T10:26:13Z</time>
      </trkpt>
      <trkpt lat="41.846995" lon="2.413055">
        <ele>880.230</ele>
        <time>2020-10-12T10:26:14Z</time>
      </trkpt>
      <trkpt lat="41.846963" lon="2.412767">
        <ele>882.116</ele>
        <time>2020-10-12T10:26:29Z</time>
      </trkpt>
      <trkpt lat="41.846922" lon="2.412639">
        <ele>883.129</ele>
        <time>2020-10-12T10:26:41Z</time>
      </trkpt>
      <trkpt lat="41.846912" lon="2.412614">
        <ele>883.176</ele>
        <time>2020-10-12T10:26:43Z</time>
      </trkpt>
      <trkpt lat="41.846887" lon="2.412452">
        <ele>884.037</ele>
        <time>2020-10-12T10:26:53Z</time>
      </trkpt>
      <trkpt lat="41.846886" lon="2.412307">
        <ele>885.915</ele>
        <time>2020-10-12T10:27:03Z</time>
      </trkpt>
      <trkpt lat="41.846897" lon="2.412094">
        <ele>886.996</ele>
        <time>2020-10-12T10:27:16Z</time>
      </trkpt>
      <trkpt lat="41.846867" lon="2.411988">
        <ele>886.931</ele>
        <time>2020-10-12T10:27:29Z</time>
      </trkpt>
      <trkpt lat="41.846858" lon="2.411910">
        <ele>887.424</ele>
        <time>2020-10-12T10:27:33Z</time>
      </trkpt>
      <trkpt lat="41.846869" lon="2.411824">
        <ele>888.408</ele>
        <time>2020-10-12T10:27:39Z</time>
      </trkpt>
      <trkpt lat="41.846875" lon="2.411764">
        <ele>888.444</ele>
        <time>2020-10-12T10:27:43Z</time>
      </trkpt>
      <trkpt lat="41.846855" lon="2.411453">
        <ele>890.318</ele>
        <time>2020-10-12T10:27:59Z</time>
      </trkpt>
      <trkpt lat="41.846798" lon="2.411308">
        <ele>892.715</ele>
        <time>2020-10-12T10:28:13Z</time>
      </trkpt>
      <trkpt lat="41.846710" lon="2.411113">
        <ele>895.151</ele>
        <time>2020-10-12T10:28:27Z</time>
      </trkpt>
      <trkpt lat="41.846663" lon="2.411009">
        <ele>897.514</ele>
        <time>2020-10-12T10:28:38Z</time>
      </trkpt>
      <trkpt lat="41.846649" lon="2.410927">
        <ele>898.411</ele>
        <time>2020-10-12T10:28:43Z</time>
      </trkpt>
      <trkpt lat="41.846641" lon="2.410891">
        <ele>897.582</ele>
        <time>2020-10-12T10:28:45Z</time>
      </trkpt>
      <trkpt lat="41.846601" lon="2.410642">
        <ele>901.360</ele>
        <time>2020-10-12T10:29:03Z</time>
      </trkpt>
      <trkpt lat="41.846574" lon="2.410469">
        <ele>902.874</ele>
        <time>2020-10-12T10:29:17Z</time>
      </trkpt>
      <trkpt lat="41.846561" lon="2.410409">
        <ele>903.756</ele>
        <time>2020-10-12T10:29:36Z</time>
      </trkpt>
      <trkpt lat="41.846540" lon="2.410355">
        <ele>903.321</ele>
        <time>2020-10-12T10:29:53Z</time>
      </trkpt>
      <trkpt lat="41.846504" lon="2.410283">
        <ele>904.708</ele>
        <time>2020-10-12T10:30:05Z</time>
      </trkpt>
      <trkpt lat="41.846458" lon="2.410225">
        <ele>905.752</ele>
        <time>2020-10-12T10:30:18Z</time>
      </trkpt>
      <trkpt lat="41.846366" lon="2.409978">
        <ele>906.686</ele>
        <time>2020-10-12T10:30:33Z</time>
      </trkpt>
      <trkpt lat="41.846273" lon="2.409741">
        <ele>907.663</ele>
        <time>2020-10-12T10:30:44Z</time>
      </trkpt>
      <trkpt lat="41.846219" lon="2.409573">
        <ele>907.679</ele>
        <time>2020-10-12T10:30:55Z</time>
      </trkpt>
      <trkpt lat="41.846176" lon="2.409447">
        <ele>908.122</ele>
        <time>2020-10-12T10:31:07Z</time>
      </trkpt>
      <trkpt lat="41.846127" lon="2.409216">
        <ele>910.099</ele>
        <time>2020-10-12T10:31:26Z</time>
      </trkpt>
      <trkpt lat="41.846077" lon="2.408960">
        <ele>912.410</ele>
        <time>2020-10-12T10:31:40Z</time>
      </trkpt>
      <trkpt lat="41.846059" lon="2.408807">
        <ele>913.898</ele>
        <time>2020-10-12T10:31:53Z</time>
      </trkpt>
      <trkpt lat="41.846004" lon="2.408626">
        <ele>915.323</ele>
        <time>2020-10-12T10:32:05Z</time>
      </trkpt>
      <trkpt lat="41.845959" lon="2.408508">
        <ele>915.383</ele>
        <time>2020-10-12T10:32:18Z</time>
      </trkpt>
      <trkpt lat="41.845910" lon="2.408276">
        <ele>917.211</ele>
        <time>2020-10-12T10:32:29Z</time>
      </trkpt>
      <trkpt lat="41.845865" lon="2.408214">
        <ele>918.208</ele>
        <time>2020-10-12T10:32:43Z</time>
      </trkpt>
      <trkpt lat="41.845849" lon="2.408050">
        <ele>918.677</ele>
        <time>2020-10-12T10:32:45Z</time>
      </trkpt>
      <trkpt lat="41.845800" lon="2.407982">
        <ele>918.621</ele>
        <time>2020-10-12T10:32:49Z</time>
      </trkpt>
      <trkpt lat="41.845636" lon="2.407822">
        <ele>921.078</ele>
        <time>2020-10-12T10:33:05Z</time>
      </trkpt>
      <trkpt lat="41.845599" lon="2.407792">
        <ele>921.544</ele>
        <time>2020-10-12T10:33:09Z</time>
      </trkpt>
      <trkpt lat="41.845499" lon="2.407692">
        <ele>921.587</ele>
        <time>2020-10-12T10:33:23Z</time>
      </trkpt>
      <trkpt lat="41.845465" lon="2.407663">
        <ele>922.584</ele>
        <time>2020-10-12T10:33:38Z</time>
      </trkpt>
      <trkpt lat="41.845406" lon="2.407617">
        <ele>923.035</ele>
        <time>2020-10-12T10:33:56Z</time>
      </trkpt>
      <trkpt lat="41.845438" lon="2.407526">
        <ele>922.543</ele>
        <time>2020-10-12T10:33:59Z</time>
      </trkpt>
      <trkpt lat="41.845479" lon="2.407422">
        <ele>922.534</ele>
        <time>2020-10-12T10:34:03Z</time>
      </trkpt>
      <trkpt lat="41.845521" lon="2.407300">
        <ele>923.455</ele>
        <time>2020-10-12T10:34:18Z</time>
      </trkpt>
      <trkpt lat="41.845583" lon="2.407115">
        <ele>924.410</ele>
        <time>2020-10-12T10:34:33Z</time>
      </trkpt>
      <trkpt lat="41.845584" lon="2.407034">
        <ele>924.408</ele>
        <time>2020-10-12T10:34:46Z</time>
      </trkpt>
      <trkpt lat="41.845564" lon="2.406969">
        <ele>925.418</ele>
        <time>2020-10-12T10:34:53Z</time>
      </trkpt>
      <trkpt lat="41.845559" lon="2.406875">
        <ele>925.882</ele>
        <time>2020-10-12T10:35:04Z</time>
      </trkpt>
      <trkpt lat="41.845561" lon="2.406772">
        <ele>927.349</ele>
        <time>2020-10-12T10:35:16Z</time>
      </trkpt>
      <trkpt lat="41.845536" lon="2.406634">
        <ele>928.755</ele>
        <time>2020-10-12T10:35:30Z</time>
      </trkpt>
      <trkpt lat="41.845527" lon="2.406599">
        <ele>929.218</ele>
        <time>2020-10-12T10:35:33Z</time>
      </trkpt>
      <trkpt lat="41.845458" lon="2.406465">
        <ele>931.195</ele>
        <time>2020-10-12T10:35:46Z</time>
      </trkpt>
      <trkpt lat="41.845340" lon="2.406429">
        <ele>931.156</ele>
        <time>2020-10-12T10:36:01Z</time>
      </trkpt>
      <trkpt lat="41.845308" lon="2.406418">
        <ele>930.644</ele>
        <time>2020-10-12T10:36:20Z</time>
      </trkpt>
      <trkpt lat="41.845288" lon="2.406350">
        <ele>931.145</ele>
        <time>2020-10-12T10:36:29Z</time>
      </trkpt>
      <trkpt lat="41.845277" lon="2.406292">
        <ele>932.147</ele>
        <time>2020-10-12T10:36:31Z</time>
      </trkpt>
      <trkpt lat="41.845259" lon="2.406240">
        <ele>933.511</ele>
        <time>2020-10-12T10:36:43Z</time>
      </trkpt>
      <trkpt lat="41.845208" lon="2.406188">
        <ele>935.008</ele>
        <time>2020-10-12T10:36:57Z</time>
      </trkpt>
      <trkpt lat="41.845183" lon="2.406126">
        <ele>937.469</ele>
        <time>2020-10-12T10:37:10Z</time>
      </trkpt>
      <trkpt lat="41.845201" lon="2.405987">
        <ele>940.373</ele>
        <time>2020-10-12T10:37:20Z</time>
      </trkpt>
      <trkpt lat="41.845226" lon="2.405839">
        <ele>942.720</ele>
        <time>2020-10-12T10:37:32Z</time>
      </trkpt>
      <trkpt lat="41.845212" lon="2.405684">
        <ele>945.586</ele>
        <time>2020-10-12T10:37:46Z</time>
      </trkpt>
      <trkpt lat="41.845192" lon="2.405531">
        <ele>947.539</ele>
        <time>2020-10-12T10:37:59Z</time>
      </trkpt>
      <trkpt lat="41.845237" lon="2.405385">
        <ele>948.926</ele>
        <time>2020-10-12T10:38:11Z</time>
      </trkpt>
      <trkpt lat="41.845271" lon="2.405263">
        <ele>949.957</ele>
        <time>2020-10-12T10:38:20Z</time>
      </trkpt>
      <trkpt lat="41.845196" lon="2.404945">
        <ele>948.495</ele>
        <time>2020-10-12T10:38:26Z</time>
      </trkpt>
      <trkpt lat="41.845143" lon="2.404796">
        <ele>947.519</ele>
        <time>2020-10-12T10:38:39Z</time>
      </trkpt>
      <trkpt lat="41.845024" lon="2.404527">
        <ele>945.509</ele>
        <time>2020-10-12T10:38:54Z</time>
      </trkpt>
      <trkpt lat="41.844954" lon="2.404399">
        <ele>945.119</ele>
        <time>2020-10-12T10:39:01Z</time>
      </trkpt>
      <trkpt lat="41.844920" lon="2.404297">
        <ele>944.608</ele>
        <time>2020-10-12T10:39:11Z</time>
      </trkpt>
      <trkpt lat="41.844899" lon="2.404155">
        <ele>943.616</ele>
        <time>2020-10-12T10:39:18Z</time>
      </trkpt>
      <trkpt lat="41.844902" lon="2.404047">
        <ele>942.710</ele>
        <time>2020-10-12T10:39:30Z</time>
      </trkpt>
      <trkpt lat="41.844947" lon="2.403985">
        <ele>942.777</ele>
        <time>2020-10-12T10:39:33Z</time>
      </trkpt>
      <trkpt lat="41.844956" lon="2.403943">
        <ele>941.763</ele>
        <time>2020-10-12T10:39:37Z</time>
      </trkpt>
      <trkpt lat="41.844966" lon="2.403917">
        <ele>941.296</ele>
        <time>2020-10-12T10:39:39Z</time>
      </trkpt>
      <trkpt lat="41.844969" lon="2.403850">
        <ele>940.713</ele>
        <time>2020-10-12T10:39:43Z</time>
      </trkpt>
      <trkpt lat="41.844964" lon="2.403812">
        <ele>941.264</ele>
        <time>2020-10-12T10:39:45Z</time>
      </trkpt>
      <trkpt lat="41.844954" lon="2.403690">
        <ele>939.882</ele>
        <time>2020-10-12T10:39:48Z</time>
      </trkpt>
      <trkpt lat="41.844956" lon="2.403541">
        <ele>938.395</ele>
        <time>2020-10-12T10:40:00Z</time>
      </trkpt>
      <trkpt lat="41.844964" lon="2.403319">
        <ele>937.949</ele>
        <time>2020-10-12T10:40:13Z</time>
      </trkpt>
      <trkpt lat="41.844967" lon="2.403161">
        <ele>936.923</ele>
        <time>2020-10-12T10:40:23Z</time>
      </trkpt>
      <trkpt lat="41.844958" lon="2.403110">
        <ele>936.408</ele>
        <time>2020-10-12T10:40:35Z</time>
      </trkpt>
      <trkpt lat="41.844979" lon="2.402856">
        <ele>934.544</ele>
        <time>2020-10-12T10:40:43Z</time>
      </trkpt>
      <trkpt lat="41.844992" lon="2.402761">
        <ele>934.018</ele>
        <time>2020-10-12T10:40:50Z</time>
      </trkpt>
      <trkpt lat="41.845001" lon="2.402716">
        <ele>933.575</ele>
        <time>2020-10-12T10:40:53Z</time>
      </trkpt>
      <trkpt lat="41.845017" lon="2.402651">
        <ele>933.141</ele>
        <time>2020-10-12T10:40:56Z</time>
      </trkpt>
      <trkpt lat="41.845019" lon="2.402606">
        <ele>933.554</ele>
        <time>2020-10-12T10:40:58Z</time>
      </trkpt>
      <trkpt lat="41.845031" lon="2.402535">
        <ele>932.111</ele>
        <time>2020-10-12T10:41:04Z</time>
      </trkpt>
      <trkpt lat="41.845049" lon="2.402458">
        <ele>931.642</ele>
        <time>2020-10-12T10:41:06Z</time>
      </trkpt>
      <trkpt lat="41.845064" lon="2.402367">
        <ele>930.680</ele>
        <time>2020-10-12T10:41:10Z</time>
      </trkpt>
      <trkpt lat="41.845100" lon="2.402265">
        <ele>928.725</ele>
        <time>2020-10-12T10:41:22Z</time>
      </trkpt>
      <trkpt lat="41.845116" lon="2.402212">
        <ele>929.226</ele>
        <time>2020-10-12T10:41:23Z</time>
      </trkpt>
      <trkpt lat="41.845152" lon="2.402123">
        <ele>928.208</ele>
        <time>2020-10-12T10:41:29Z</time>
      </trkpt>
      <trkpt lat="41.845198" lon="2.401987">
        <ele>927.808</ele>
        <time>2020-10-12T10:41:40Z</time>
      </trkpt>
      <trkpt lat="41.845258" lon="2.401803">
        <ele>927.347</ele>
        <time>2020-10-12T10:41:42Z</time>
      </trkpt>
      <trkpt lat="41.845292" lon="2.401606">
        <ele>926.331</ele>
        <time>2020-10-12T10:41:50Z</time>
      </trkpt>
      <trkpt lat="41.845272" lon="2.401513">
        <ele>926.818</ele>
        <time>2020-10-12T10:41:54Z</time>
      </trkpt>
      <trkpt lat="41.845256" lon="2.401347">
        <ele>926.874</ele>
        <time>2020-10-12T10:41:56Z</time>
      </trkpt>
      <trkpt lat="41.845229" lon="2.401190">
        <ele>925.427</ele>
        <time>2020-10-12T10:42:03Z</time>
      </trkpt>
      <trkpt lat="41.845247" lon="2.401125">
        <ele>923.934</ele>
        <time>2020-10-12T10:42:15Z</time>
      </trkpt>
      <trkpt lat="41.845288" lon="2.401117">
        <ele>923.945</ele>
        <time>2020-10-12T10:42:25Z</time>
      </trkpt>
      <trkpt lat="41.845333" lon="2.401097">
        <ele>923.033</ele>
        <time>2020-10-12T10:42:31Z</time>
      </trkpt>
      <trkpt lat="41.845443" lon="2.401094">
        <ele>922.516</ele>
        <time>2020-10-12T10:42:48Z</time>
      </trkpt>
      <trkpt lat="41.845540" lon="2.401083">
        <ele>922.576</ele>
        <time>2020-10-12T10:42:49Z</time>
      </trkpt>
      <trkpt lat="41.845683" lon="2.401068">
        <ele>921.513</ele>
        <time>2020-10-12T10:43:01Z</time>
      </trkpt>
      <trkpt lat="41.845728" lon="2.401057">
        <ele>921.508</ele>
        <time>2020-10-12T10:43:14Z</time>
      </trkpt>
      <trkpt lat="41.845791" lon="2.401048">
        <ele>921.086</ele>
        <time>2020-10-12T10:43:17Z</time>
      </trkpt>
      <trkpt lat="41.845831" lon="2.401017">
        <ele>920.640</ele>
        <time>2020-10-12T10:43:20Z</time>
      </trkpt>
      <trkpt lat="41.845872" lon="2.400896">
        <ele>921.097</ele>
        <time>2020-10-12T10:43:27Z</time>
      </trkpt>
      <trkpt lat="41.845929" lon="2.400780">
        <ele>920.153</ele>
        <time>2020-10-12T10:43:35Z</time>
      </trkpt>
      <trkpt lat="41.845948" lon="2.400765">
        <ele>920.186</ele>
        <time>2020-10-12T10:43:37Z</time>
      </trkpt>
      <trkpt lat="41.846083" lon="2.400740">
        <ele>917.763</ele>
        <time>2020-10-12T10:43:49Z</time>
      </trkpt>
      <trkpt lat="41.846214" lon="2.400586">
        <ele>915.714</ele>
        <time>2020-10-12T10:44:02Z</time>
      </trkpt>
      <trkpt lat="41.846231" lon="2.400504">
        <ele>914.892</ele>
        <time>2020-10-12T10:44:08Z</time>
      </trkpt>
      <trkpt lat="41.846233" lon="2.400465">
        <ele>915.379</ele>
        <time>2020-10-12T10:44:10Z</time>
      </trkpt>
      <trkpt lat="41.846267" lon="2.400256">
        <ele>912.405</ele>
        <time>2020-10-12T10:44:23Z</time>
      </trkpt>
      <trkpt lat="41.846277" lon="2.400041">
        <ele>910.525</ele>
        <time>2020-10-12T10:44:34Z</time>
      </trkpt>
      <trkpt lat="41.846275" lon="2.399959">
        <ele>910.008</ele>
        <time>2020-10-12T10:44:38Z</time>
      </trkpt>
      <trkpt lat="41.846290" lon="2.399772">
        <ele>908.152</ele>
        <time>2020-10-12T10:44:50Z</time>
      </trkpt>
      <trkpt lat="41.846255" lon="2.399521">
        <ele>907.696</ele>
        <time>2020-10-12T10:45:04Z</time>
      </trkpt>
      <trkpt lat="41.846247" lon="2.399507">
        <ele>907.613</ele>
        <time>2020-10-12T10:45:05Z</time>
      </trkpt>
      <trkpt lat="41.846090" lon="2.399348">
        <ele>906.619</ele>
        <time>2020-10-12T10:45:17Z</time>
      </trkpt>
      <trkpt lat="41.846025" lon="2.399121">
        <ele>907.192</ele>
        <time>2020-10-12T10:45:30Z</time>
      </trkpt>
      <trkpt lat="41.846029" lon="2.399098">
        <ele>907.119</ele>
        <time>2020-10-12T10:45:32Z</time>
      </trkpt>
      <trkpt lat="41.846011" lon="2.399029">
        <ele>907.160</ele>
        <time>2020-10-12T10:45:36Z</time>
      </trkpt>
      <trkpt lat="41.846017" lon="2.398949">
        <ele>907.658</ele>
        <time>2020-10-12T10:45:43Z</time>
      </trkpt>
      <trkpt lat="41.846013" lon="2.398768">
        <ele>909.572</ele>
        <time>2020-10-12T10:45:56Z</time>
      </trkpt>
      <trkpt lat="41.846026" lon="2.398747">
        <ele>909.013</ele>
        <time>2020-10-12T10:45:59Z</time>
      </trkpt>
      <trkpt lat="41.846130" lon="2.398536">
        <ele>909.014</ele>
        <time>2020-10-12T10:46:13Z</time>
      </trkpt>
      <trkpt lat="41.846168" lon="2.398442">
        <ele>908.508</ele>
        <time>2020-10-12T10:46:27Z</time>
      </trkpt>
      <trkpt lat="41.846175" lon="2.398341">
        <ele>908.162</ele>
        <time>2020-10-12T10:46:50Z</time>
      </trkpt>
      <trkpt lat="41.846231" lon="2.398231">
        <ele>906.666</ele>
        <time>2020-10-12T10:47:02Z</time>
      </trkpt>
      <trkpt lat="41.846238" lon="2.398221">
        <ele>906.683</ele>
        <time>2020-10-12T10:47:03Z</time>
      </trkpt>
      <trkpt lat="41.846248" lon="2.398167">
        <ele>906.179</ele>
        <time>2020-10-12T10:47:06Z</time>
      </trkpt>
      <trkpt lat="41.846316" lon="2.398023">
        <ele>902.862</ele>
        <time>2020-10-12T10:47:19Z</time>
      </trkpt>
      <trkpt lat="41.846325" lon="2.397997">
        <ele>902.329</ele>
        <time>2020-10-12T10:47:21Z</time>
      </trkpt>
      <trkpt lat="41.846349" lon="2.397858">
        <ele>899.910</ele>
        <time>2020-10-12T10:47:29Z</time>
      </trkpt>
      <trkpt lat="41.846405" lon="2.397721">
        <ele>897.068</ele>
        <time>2020-10-12T10:47:41Z</time>
      </trkpt>
      <trkpt lat="41.846484" lon="2.397672">
        <ele>895.185</ele>
        <time>2020-10-12T10:47:49Z</time>
      </trkpt>
      <trkpt lat="41.846518" lon="2.397626">
        <ele>894.689</ele>
        <time>2020-10-12T10:47:53Z</time>
      </trkpt>
      <trkpt lat="41.846637" lon="2.397531">
        <ele>892.717</ele>
        <time>2020-10-12T10:48:04Z</time>
      </trkpt>
      <trkpt lat="41.846757" lon="2.397414">
        <ele>890.308</ele>
        <time>2020-10-12T10:48:16Z</time>
      </trkpt>
      <trkpt lat="41.846762" lon="2.397406">
        <ele>890.393</ele>
        <time>2020-10-12T10:48:17Z</time>
      </trkpt>
      <trkpt lat="41.846820" lon="2.397307">
        <ele>888.437</ele>
        <time>2020-10-12T10:48:25Z</time>
      </trkpt>
      <trkpt lat="41.846871" lon="2.397252">
        <ele>886.994</ele>
        <time>2020-10-12T10:48:30Z</time>
      </trkpt>
      <trkpt lat="41.846908" lon="2.397239">
        <ele>885.940</ele>
        <time>2020-10-12T10:48:34Z</time>
      </trkpt>
      <trkpt lat="41.846989" lon="2.397111">
        <ele>884.513</ele>
        <time>2020-10-12T10:48:43Z</time>
      </trkpt>
      <trkpt lat="41.846994" lon="2.397061">
        <ele>884.060</ele>
        <time>2020-10-12T10:48:46Z</time>
      </trkpt>
      <trkpt lat="41.846941" lon="2.396927">
        <ele>883.191</ele>
        <time>2020-10-12T10:48:56Z</time>
      </trkpt>
      <trkpt lat="41.846892" lon="2.396712">
        <ele>881.159</ele>
        <time>2020-10-12T10:49:11Z</time>
      </trkpt>
      <trkpt lat="41.846890" lon="2.396680">
        <ele>880.752</ele>
        <time>2020-10-12T10:49:13Z</time>
      </trkpt>
      <trkpt lat="41.846921" lon="2.396602">
        <ele>879.753</ele>
        <time>2020-10-12T10:49:20Z</time>
      </trkpt>
      <trkpt lat="41.846908" lon="2.396335">
        <ele>878.308</ele>
        <time>2020-10-12T10:49:33Z</time>
      </trkpt>
      <trkpt lat="41.846820" lon="2.396113">
        <ele>877.808</ele>
        <time>2020-10-12T10:49:46Z</time>
      </trkpt>
      <trkpt lat="41.846782" lon="2.395894">
        <ele>875.930</ele>
        <time>2020-10-12T10:50:00Z</time>
      </trkpt>
      <trkpt lat="41.846786" lon="2.395885">
        <ele>875.924</ele>
        <time>2020-10-12T10:50:01Z</time>
      </trkpt>
      <trkpt lat="41.846886" lon="2.395671">
        <ele>874.951</ele>
        <time>2020-10-12T10:50:18Z</time>
      </trkpt>
      <trkpt lat="41.846939" lon="2.395316">
        <ele>873.557</ele>
        <time>2020-10-12T10:50:35Z</time>
      </trkpt>
      <trkpt lat="41.846946" lon="2.395096">
        <ele>872.580</ele>
        <time>2020-10-12T10:50:50Z</time>
      </trkpt>
      <trkpt lat="41.846968" lon="2.395013">
        <ele>871.597</ele>
        <time>2020-10-12T10:50:58Z</time>
      </trkpt>
      <trkpt lat="41.846900" lon="2.394766">
        <ele>873.048</ele>
        <time>2020-10-12T10:51:12Z</time>
      </trkpt>
      <trkpt lat="41.846904" lon="2.394515">
        <ele>872.016</ele>
        <time>2020-10-12T10:51:24Z</time>
      </trkpt>
      <trkpt lat="41.846944" lon="2.394265">
        <ele>869.136</ele>
        <time>2020-10-12T10:51:39Z</time>
      </trkpt>
      <trkpt lat="41.847041" lon="2.394162">
        <ele>866.217</ele>
        <time>2020-10-12T10:51:49Z</time>
      </trkpt>
      <trkpt lat="41.847078" lon="2.394146">
        <ele>865.318</ele>
        <time>2020-10-12T10:51:52Z</time>
      </trkpt>
      <trkpt lat="41.847095" lon="2.394125">
        <ele>865.308</ele>
        <time>2020-10-12T10:51:54Z</time>
      </trkpt>
      <trkpt lat="41.847134" lon="2.394066">
        <ele>863.498</ele>
        <time>2020-10-12T10:52:00Z</time>
      </trkpt>
      <trkpt lat="41.847160" lon="2.393961">
        <ele>861.412</ele>
        <time>2020-10-12T10:52:07Z</time>
      </trkpt>
      <trkpt lat="41.847175" lon="2.393934">
        <ele>860.549</ele>
        <time>2020-10-12T10:52:09Z</time>
      </trkpt>
      <trkpt lat="41.847171" lon="2.393814">
        <ele>858.595</ele>
        <time>2020-10-12T10:52:15Z</time>
      </trkpt>
      <trkpt lat="41.847185" lon="2.393745">
        <ele>857.628</ele>
        <time>2020-10-12T10:52:19Z</time>
      </trkpt>
      <trkpt lat="41.847285" lon="2.393664">
        <ele>856.115</ele>
        <time>2020-10-12T10:52:29Z</time>
      </trkpt>
      <trkpt lat="41.847328" lon="2.393633">
        <ele>854.786</ele>
        <time>2020-10-12T10:52:34Z</time>
      </trkpt>
      <trkpt lat="41.847370" lon="2.393596">
        <ele>853.354</ele>
        <time>2020-10-12T10:52:40Z</time>
      </trkpt>
      <trkpt lat="41.847424" lon="2.393527">
        <ele>850.457</ele>
        <time>2020-10-12T10:52:51Z</time>
      </trkpt>
      <trkpt lat="41.847454" lon="2.393352">
        <ele>849.400</ele>
        <time>2020-10-12T10:53:08Z</time>
      </trkpt>
      <trkpt lat="41.847443" lon="2.393297">
        <ele>847.020</ele>
        <time>2020-10-12T10:53:25Z</time>
      </trkpt>
      <trkpt lat="41.847598" lon="2.393140">
        <ele>844.108</ele>
        <time>2020-10-12T10:53:42Z</time>
      </trkpt>
      <trkpt lat="41.847899" lon="2.392755">
        <ele>842.720</ele>
        <time>2020-10-12T10:53:56Z</time>
      </trkpt>
      <trkpt lat="41.847955" lon="2.392671">
        <ele>840.834</ele>
        <time>2020-10-12T10:54:09Z</time>
      </trkpt>
      <trkpt lat="41.848125" lon="2.392508">
        <ele>839.351</ele>
        <time>2020-10-12T10:54:17Z</time>
      </trkpt>
      <trkpt lat="41.848305" lon="2.392302">
        <ele>839.397</ele>
        <time>2020-10-12T10:54:21Z</time>
      </trkpt>
      <trkpt lat="41.848375" lon="2.392229">
        <ele>839.360</ele>
        <time>2020-10-12T10:54:25Z</time>
      </trkpt>
      <trkpt lat="41.848416" lon="2.392198">
        <ele>838.477</ele>
        <time>2020-10-12T10:54:37Z</time>
      </trkpt>
      <trkpt lat="41.848387" lon="2.392137">
        <ele>837.928</ele>
        <time>2020-10-12T10:54:41Z</time>
      </trkpt>
      <trkpt lat="41.848368" lon="2.391937">
        <ele>836.016</ele>
        <time>2020-10-12T10:54:55Z</time>
      </trkpt>
      <trkpt lat="41.848355" lon="2.391848">
        <ele>836.021</ele>
        <time>2020-10-12T10:54:58Z</time>
      </trkpt>
      <trkpt lat="41.848339" lon="2.391733">
        <ele>835.541</ele>
        <time>2020-10-12T10:55:12Z</time>
      </trkpt>
      <trkpt lat="41.848312" lon="2.391541">
        <ele>832.105</ele>
        <time>2020-10-12T10:55:24Z</time>
      </trkpt>
      <trkpt lat="41.848360" lon="2.391442">
        <ele>832.108</ele>
        <time>2020-10-12T10:55:36Z</time>
      </trkpt>
      <trkpt lat="41.848439" lon="2.391286">
        <ele>830.747</ele>
        <time>2020-10-12T10:55:49Z</time>
      </trkpt>
      <trkpt lat="41.848520" lon="2.391145">
        <ele>827.871</ele>
        <time>2020-10-12T10:56:08Z</time>
      </trkpt>
      <trkpt lat="41.848581" lon="2.391019">
        <ele>826.338</ele>
        <time>2020-10-12T10:56:10Z</time>
      </trkpt>
      <trkpt lat="41.848617" lon="2.390961">
        <ele>826.844</ele>
        <time>2020-10-12T10:56:18Z</time>
      </trkpt>
      <trkpt lat="41.848595" lon="2.390809">
        <ele>825.937</ele>
        <time>2020-10-12T10:56:35Z</time>
      </trkpt>
      <trkpt lat="41.848579" lon="2.390727">
        <ele>824.944</ele>
        <time>2020-10-12T10:56:46Z</time>
      </trkpt>
      <trkpt lat="41.848576" lon="2.390717">
        <ele>824.975</ele>
        <time>2020-10-12T10:56:48Z</time>
      </trkpt>
      <trkpt lat="41.848573" lon="2.390689">
        <ele>824.493</ele>
        <time>2020-10-12T10:56:53Z</time>
      </trkpt>
      <trkpt lat="41.848550" lon="2.390578">
        <ele>824.492</ele>
        <time>2020-10-12T10:57:03Z</time>
      </trkpt>
      <trkpt lat="41.848507" lon="2.390545">
        <ele>823.973</ele>
        <time>2020-10-12T10:57:12Z</time>
      </trkpt>
      <trkpt lat="41.848522" lon="2.390626">
        <ele>824.420</ele>
        <time>2020-10-12T10:57:26Z</time>
      </trkpt>
      <trkpt lat="41.847167" lon="2.390590">
        <ele>825.598</ele>
        <time>2021-06-12T10:41:11Z</time>
      </trkpt>
      <trkpt lat="41.847132" lon="2.390391">
        <ele>812.115</ele>
        <time>2021-06-12T10:41:17Z</time>
      </trkpt>
      <trkpt lat="41.846900" lon="2.390090">
        <ele>812.126</ele>
        <time>2021-06-12T10:41:17Z</time>
      </trkpt>
      <trkpt lat="41.846884" lon="2.389684">
        <ele>812.108</ele>
        <time>2021-06-12T10:41:17Z</time>
      </trkpt>
      <trkpt lat="41.846876" lon="2.389617">
        <ele>812.136</ele>
        <time>2021-06-12T10:41:17Z</time>
      </trkpt>
      <trkpt lat="41.846881" lon="2.389568">
        <ele>798.474</ele>
        <time>2021-06-12T10:41:22Z</time>
      </trkpt>
      <trkpt lat="41.846857" lon="2.389495">
        <ele>794.547</ele>
        <time>2021-06-12T10:41:27Z</time>
      </trkpt>
      <trkpt lat="41.846849" lon="2.389449">
        <ele>799.752</ele>
        <time>2021-06-12T10:41:30Z</time>
      </trkpt>
      <trkpt lat="41.846844" lon="2.389418">
        <ele>796.677</ele>
        <time>2021-06-12T10:41:34Z</time>
      </trkpt>
      <trkpt lat="41.846803" lon="2.389383">
        <ele>794.784</ele>
        <time>2021-06-12T10:41:39Z</time>
      </trkpt>
      <trkpt lat="41.846790" lon="2.389351">
        <ele>796.323</ele>
        <time>2021-06-12T10:41:44Z</time>
      </trkpt>
      <trkpt lat="41.846768" lon="2.389313">
        <ele>793.789</ele>
        <time>2021-06-12T10:41:50Z</time>
      </trkpt>
      <trkpt lat="41.846731" lon="2.389281">
        <ele>796.484</ele>
        <time>2021-06-12T10:42:00Z</time>
      </trkpt>
      <trkpt lat="41.846679" lon="2.389428">
        <ele>796.107</ele>
        <time>2021-06-12T10:42:03Z</time>
      </trkpt>
      <trkpt lat="41.846669" lon="2.389530">
        <ele>796.517</ele>
        <time>2021-06-12T10:42:05Z</time>
      </trkpt>
      <trkpt lat="41.846650" lon="2.389621">
        <ele>797.608</ele>
        <time>2021-06-12T10:42:07Z</time>
      </trkpt>
      <trkpt lat="41.846642" lon="2.389680">
        <ele>797.755</ele>
        <time>2021-06-12T10:42:10Z</time>
      </trkpt>
      <trkpt lat="41.846628" lon="2.389740">
        <ele>797.133</ele>
        <time>2021-06-12T10:42:16Z</time>
      </trkpt>
      <trkpt lat="41.846625" lon="2.389782">
        <ele>797.026</ele>
        <time>2021-06-12T10:42:20Z</time>
      </trkpt>
      <trkpt lat="41.846617" lon="2.389824">
        <ele>795.771</ele>
        <time>2021-06-12T10:42:25Z</time>
      </trkpt>
      <trkpt lat="41.846596" lon="2.389866">
        <ele>796.676</ele>
        <time>2021-06-12T10:42:31Z</time>
      </trkpt>
      <trkpt lat="41.846534" lon="2.389957">
        <ele>795.423</ele>
        <time>2021-06-12T10:42:40Z</time>
      </trkpt>
      <trkpt lat="41.846492" lon="2.389981">
        <ele>794.942</ele>
        <time>2021-06-12T10:42:44Z</time>
      </trkpt>
      <trkpt lat="41.846437" lon="2.389965">
        <ele>794.558</ele>
        <time>2021-06-12T10:42:48Z</time>
      </trkpt>
      <trkpt lat="41.846166" lon="2.389942">
        <ele>790.348</ele>
        <time>2021-06-12T10:43:19Z</time>
      </trkpt>
      <trkpt lat="41.846085" lon="2.389948">
        <ele>789.061</ele>
        <time>2021-06-12T10:43:24Z</time>
      </trkpt>
      <trkpt lat="41.846042" lon="2.389895">
        <ele>789.317</ele>
        <time>2021-06-12T10:43:30Z</time>
      </trkpt>
      <trkpt lat="41.846022" lon="2.389857">
        <ele>788.508</ele>
        <time>2021-06-12T10:43:33Z</time>
      </trkpt>
      <trkpt lat="41.845986" lon="2.389817">
        <ele>789.241</ele>
        <time>2021-06-12T10:43:36Z</time>
      </trkpt>
      <trkpt lat="41.845959" lon="2.389775">
        <ele>786.829</ele>
        <time>2021-06-12T10:43:42Z</time>
      </trkpt>
      <trkpt lat="41.845938" lon="2.389724">
        <ele>785.842</ele>
        <time>2021-06-12T10:43:45Z</time>
      </trkpt>
      <trkpt lat="41.845893" lon="2.389698">
        <ele>785.647</ele>
        <time>2021-06-12T10:43:49Z</time>
      </trkpt>
      <trkpt lat="41.845885" lon="2.389636">
        <ele>784.752</ele>
        <time>2021-06-12T10:43:52Z</time>
      </trkpt>
      <trkpt lat="41.845852" lon="2.389593">
        <ele>783.969</ele>
        <time>2021-06-12T10:43:55Z</time>
      </trkpt>
      <trkpt lat="41.845818" lon="2.389551">
        <ele>782.948</ele>
        <time>2021-06-12T10:44:00Z</time>
      </trkpt>
      <trkpt lat="41.845785" lon="2.389500">
        <ele>782.164</ele>
        <time>2021-06-12T10:44:05Z</time>
      </trkpt>
      <trkpt lat="41.845746" lon="2.389460">
        <ele>781.517</ele>
        <time>2021-06-12T10:44:09Z</time>
      </trkpt>
      <trkpt lat="41.845715" lon="2.389407">
        <ele>780.187</ele>
        <time>2021-06-12T10:44:14Z</time>
      </trkpt>
      <trkpt lat="41.845697" lon="2.389349">
        <ele>780.115</ele>
        <time>2021-06-12T10:44:17Z</time>
      </trkpt>
      <trkpt lat="41.845656" lon="2.389293">
        <ele>779.608</ele>
        <time>2021-06-12T10:44:21Z</time>
      </trkpt>
      <trkpt lat="41.845653" lon="2.389231">
        <ele>778.928</ele>
        <time>2021-06-12T10:44:25Z</time>
      </trkpt>
      <trkpt lat="41.845496" lon="2.388924">
        <ele>776.546</ele>
        <time>2021-06-12T10:44:48Z</time>
      </trkpt>
      <trkpt lat="41.845436" lon="2.388845">
        <ele>776.489</ele>
        <time>2021-06-12T10:44:53Z</time>
      </trkpt>
      <trkpt lat="41.845239" lon="2.388604">
        <ele>774.584</ele>
        <time>2021-06-12T10:45:30Z</time>
      </trkpt>
      <trkpt lat="41.845176" lon="2.388595">
        <ele>774.729</ele>
        <time>2021-06-12T10:45:36Z</time>
      </trkpt>
      <trkpt lat="41.844707" lon="2.388434">
        <ele>770.526</ele>
        <time>2021-06-12T10:46:25Z</time>
      </trkpt>
      <trkpt lat="41.844709" lon="2.388333">
        <ele>769.565</ele>
        <time>2021-06-12T10:46:42Z</time>
      </trkpt>
      <trkpt lat="41.844713" lon="2.388231">
        <ele>769.061</ele>
        <time>2021-06-12T10:46:46Z</time>
      </trkpt>
      <trkpt lat="41.844752" lon="2.388170">
        <ele>768.129</ele>
        <time>2021-06-12T10:46:49Z</time>
      </trkpt>
      <trkpt lat="41.844928" lon="2.387897">
        <ele>766.900</ele>
        <time>2021-06-12T10:47:16Z</time>
      </trkpt>
      <trkpt lat="41.844935" lon="2.387834">
        <ele>767.120</ele>
        <time>2021-06-12T10:47:20Z</time>
      </trkpt>
      <trkpt lat="41.844934" lon="2.387755">
        <ele>766.508</ele>
        <time>2021-06-12T10:47:24Z</time>
      </trkpt>
      <trkpt lat="41.844928" lon="2.387694">
        <ele>765.449</ele>
        <time>2021-06-12T10:47:28Z</time>
      </trkpt>
      <trkpt lat="41.844934" lon="2.387628">
        <ele>765.067</ele>
        <time>2021-06-12T10:47:33Z</time>
      </trkpt>
      <trkpt lat="41.844934" lon="2.387600">
        <ele>764.710</ele>
        <time>2021-06-12T10:47:37Z</time>
      </trkpt>
      <trkpt lat="41.844950" lon="2.387558">
        <ele>764.745</ele>
        <time>2021-06-12T10:47:39Z</time>
      </trkpt>
      <trkpt lat="41.844950" lon="2.387479">
        <ele>764.440</ele>
        <time>2021-06-12T10:47:42Z</time>
      </trkpt>
      <trkpt lat="41.844984" lon="2.387423">
        <ele>764.157</ele>
        <time>2021-06-12T10:47:45Z</time>
      </trkpt>
      <trkpt lat="41.845011" lon="2.387365">
        <ele>763.946</ele>
        <time>2021-06-12T10:47:48Z</time>
      </trkpt>
      <trkpt lat="41.845027" lon="2.387281">
        <ele>763.772</ele>
        <time>2021-06-12T10:47:51Z</time>
      </trkpt>
      <trkpt lat="41.845034" lon="2.387197">
        <ele>763.956</ele>
        <time>2021-06-12T10:47:55Z</time>
      </trkpt>
      <trkpt lat="41.845040" lon="2.387127">
        <ele>763.659</ele>
        <time>2021-06-12T10:47:59Z</time>
      </trkpt>
      <trkpt lat="41.845034" lon="2.387001">
        <ele>763.314</ele>
        <time>2021-06-12T10:48:03Z</time>
      </trkpt>
      <trkpt lat="41.844998" lon="2.386581">
        <ele>761.908</ele>
        <time>2021-06-12T10:48:43Z</time>
      </trkpt>
      <trkpt lat="41.845079" lon="2.386413">
        <ele>757.672</ele>
        <time>2021-06-12T10:49:38Z</time>
      </trkpt>
      <trkpt lat="41.845142" lon="2.386331">
        <ele>757.640</ele>
        <time>2021-06-12T10:49:40Z</time>
      </trkpt>
      <trkpt lat="41.845209" lon="2.386049">
        <ele>757.763</ele>
        <time>2021-06-12T10:49:43Z</time>
      </trkpt>
      <trkpt lat="41.845193" lon="2.385977">
        <ele>757.628</ele>
        <time>2021-06-12T10:49:47Z</time>
      </trkpt>
      <trkpt lat="41.845187" lon="2.385914">
        <ele>757.823</ele>
        <time>2021-06-12T10:49:50Z</time>
      </trkpt>
      <trkpt lat="41.845178" lon="2.385862">
        <ele>756.460</ele>
        <time>2021-06-12T10:49:55Z</time>
      </trkpt>
      <trkpt lat="41.845175" lon="2.385811">
        <ele>758.159</ele>
        <time>2021-06-12T10:50:00Z</time>
      </trkpt>
      <trkpt lat="41.845150" lon="2.385741">
        <ele>757.295</ele>
        <time>2021-06-12T10:50:10Z</time>
      </trkpt>
      <trkpt lat="41.845103" lon="2.385676">
        <ele>756.856</ele>
        <time>2021-06-12T10:50:14Z</time>
      </trkpt>
      <trkpt lat="41.845106" lon="2.385629">
        <ele>756.859</ele>
        <time>2021-06-12T10:50:18Z</time>
      </trkpt>
      <trkpt lat="41.845065" lon="2.385540">
        <ele>755.614</ele>
        <time>2021-06-12T10:50:22Z</time>
      </trkpt>
      <trkpt lat="41.845072" lon="2.385473">
        <ele>755.108</ele>
        <time>2021-06-12T10:50:27Z</time>
      </trkpt>
      <trkpt lat="41.845060" lon="2.385407">
        <ele>757.072</ele>
        <time>2021-06-12T10:50:31Z</time>
      </trkpt>
      <trkpt lat="41.845071" lon="2.385386">
        <ele>755.110</ele>
        <time>2021-06-12T10:50:35Z</time>
      </trkpt>
      <trkpt lat="41.845108" lon="2.385319">
        <ele>755.183</ele>
        <time>2021-06-12T10:50:40Z</time>
      </trkpt>
      <trkpt lat="41.845130" lon="2.385267">
        <ele>754.788</ele>
        <time>2021-06-12T10:50:44Z</time>
      </trkpt>
      <trkpt lat="41.845196" lon="2.385146">
        <ele>754.493</ele>
        <time>2021-06-12T10:50:48Z</time>
      </trkpt>
      <trkpt lat="41.845234" lon="2.385041">
        <ele>754.340</ele>
        <time>2021-06-12T10:50:51Z</time>
      </trkpt>
      <trkpt lat="41.845232" lon="2.384946">
        <ele>754.159</ele>
        <time>2021-06-12T10:50:55Z</time>
      </trkpt>
      <trkpt lat="41.845236" lon="2.384850">
        <ele>754.275</ele>
        <time>2021-06-12T10:50:59Z</time>
      </trkpt>
      <trkpt lat="41.845279" lon="2.384692">
        <ele>750.645</ele>
        <time>2021-06-12T10:51:31Z</time>
      </trkpt>
      <trkpt lat="41.845263" lon="2.384553">
        <ele>751.747</ele>
        <time>2021-06-12T10:51:36Z</time>
      </trkpt>
      <trkpt lat="41.845248" lon="2.384512">
        <ele>750.911</ele>
        <time>2021-06-12T10:51:41Z</time>
      </trkpt>
      <trkpt lat="41.845224" lon="2.384455">
        <ele>751.308</ele>
        <time>2021-06-12T10:51:58Z</time>
      </trkpt>
      <trkpt lat="41.845193" lon="2.384403">
        <ele>752.191</ele>
        <time>2021-06-12T10:52:02Z</time>
      </trkpt>
      <trkpt lat="41.845209" lon="2.384314">
        <ele>752.339</ele>
        <time>2021-06-12T10:52:06Z</time>
      </trkpt>
      <trkpt lat="41.845230" lon="2.384251">
        <ele>752.572</ele>
        <time>2021-06-12T10:52:09Z</time>
      </trkpt>
      <trkpt lat="41.845241" lon="2.384190">
        <ele>752.457</ele>
        <time>2021-06-12T10:52:12Z</time>
      </trkpt>
      <trkpt lat="41.845259" lon="2.384130">
        <ele>752.352</ele>
        <time>2021-06-12T10:52:15Z</time>
      </trkpt>
      <trkpt lat="41.845277" lon="2.384071">
        <ele>752.149</ele>
        <time>2021-06-12T10:52:19Z</time>
      </trkpt>
      <trkpt lat="41.845274" lon="2.384039">
        <ele>752.288</ele>
        <time>2021-06-12T10:52:22Z</time>
      </trkpt>
      <trkpt lat="41.845300" lon="2.383985">
        <ele>752.324</ele>
        <time>2021-06-12T10:52:26Z</time>
      </trkpt>
      <trkpt lat="41.845319" lon="2.383922">
        <ele>752.898</ele>
        <time>2021-06-12T10:52:31Z</time>
      </trkpt>
      <trkpt lat="41.845321" lon="2.383855">
        <ele>753.015</ele>
        <time>2021-06-12T10:52:36Z</time>
      </trkpt>
      <trkpt lat="41.845320" lon="2.383790">
        <ele>753.426</ele>
        <time>2021-06-12T10:52:41Z</time>
      </trkpt>
      <trkpt lat="41.845324" lon="2.383725">
        <ele>754.408</ele>
        <time>2021-06-12T10:52:48Z</time>
      </trkpt>
      <trkpt lat="41.845340" lon="2.383632">
        <ele>754.276</ele>
        <time>2021-06-12T10:52:52Z</time>
      </trkpt>
      <trkpt lat="41.845336" lon="2.383555">
        <ele>754.784</ele>
        <time>2021-06-12T10:52:56Z</time>
      </trkpt>
      <trkpt lat="41.845338" lon="2.383488">
        <ele>755.137</ele>
        <time>2021-06-12T10:53:00Z</time>
      </trkpt>
      <trkpt lat="41.845331" lon="2.383453">
        <ele>755.122</ele>
        <time>2021-06-12T10:53:03Z</time>
      </trkpt>
      <trkpt lat="41.845320" lon="2.383397">
        <ele>754.987</ele>
        <time>2021-06-12T10:53:09Z</time>
      </trkpt>
      <trkpt lat="41.845309" lon="2.383350">
        <ele>756.394</ele>
        <time>2021-06-12T10:53:20Z</time>
      </trkpt>
      <trkpt lat="41.845298" lon="2.383290">
        <ele>756.993</ele>
        <time>2021-06-12T10:53:26Z</time>
      </trkpt>
      <trkpt lat="41.845318" lon="2.383240">
        <ele>757.659</ele>
        <time>2021-06-12T10:53:33Z</time>
      </trkpt>
      <trkpt lat="41.845338" lon="2.383182">
        <ele>756.216</ele>
        <time>2021-06-12T10:53:40Z</time>
      </trkpt>
      <trkpt lat="41.845336" lon="2.383126">
        <ele>755.976</ele>
        <time>2021-06-12T10:53:44Z</time>
      </trkpt>
      <trkpt lat="41.845320" lon="2.383023">
        <ele>755.613</ele>
        <time>2021-06-12T10:53:51Z</time>
      </trkpt>
      <trkpt lat="41.845291" lon="2.382559">
        <ele>748.708</ele>
        <time>2021-06-12T10:54:58Z</time>
      </trkpt>
      <trkpt lat="41.845115" lon="2.381948">
        <ele>748.378</ele>
        <time>2021-06-12T10:55:03Z</time>
      </trkpt>
      <trkpt lat="41.845103" lon="2.381885">
        <ele>748.346</ele>
        <time>2021-06-12T10:55:07Z</time>
      </trkpt>
      <trkpt lat="41.845108" lon="2.381818">
        <ele>747.729</ele>
        <time>2021-06-12T10:55:11Z</time>
      </trkpt>
      <trkpt lat="41.845119" lon="2.381759">
        <ele>748.184</ele>
        <time>2021-06-12T10:55:17Z</time>
      </trkpt>
      <trkpt lat="41.845048" lon="2.381199">
        <ele>744.719</ele>
        <time>2021-06-12T10:55:59Z</time>
      </trkpt>
      <trkpt lat="41.845032" lon="2.381136">
        <ele>744.476</ele>
        <time>2021-06-12T10:56:04Z</time>
      </trkpt>
      <trkpt lat="41.845026" lon="2.381073">
        <ele>744.155</ele>
        <time>2021-06-12T10:56:08Z</time>
      </trkpt>
      <trkpt lat="41.845023" lon="2.381008">
        <ele>743.921</ele>
        <time>2021-06-12T10:56:12Z</time>
      </trkpt>
      <trkpt lat="41.845016" lon="2.380947">
        <ele>743.414</ele>
        <time>2021-06-12T10:56:15Z</time>
      </trkpt>
      <trkpt lat="41.844991" lon="2.380886">
        <ele>742.654</ele>
        <time>2021-06-12T10:56:19Z</time>
      </trkpt>
      <trkpt lat="41.844995" lon="2.380824">
        <ele>743.209</ele>
        <time>2021-06-12T10:56:23Z</time>
      </trkpt>
      <trkpt lat="41.844987" lon="2.380762">
        <ele>742.008</ele>
        <time>2021-06-12T10:56:27Z</time>
      </trkpt>
      <trkpt lat="41.844966" lon="2.380704">
        <ele>741.668</ele>
        <time>2021-06-12T10:56:31Z</time>
      </trkpt>
      <trkpt lat="41.844946" lon="2.380649">
        <ele>740.786</ele>
        <time>2021-06-12T10:56:36Z</time>
      </trkpt>
      <trkpt lat="41.844927" lon="2.380593">
        <ele>740.119</ele>
        <time>2021-06-12T10:56:41Z</time>
      </trkpt>
      <trkpt lat="41.844871" lon="2.380221">
        <ele>737.684</ele>
        <time>2021-06-12T10:57:01Z</time>
      </trkpt>
      <trkpt lat="41.844965" lon="2.379551">
        <ele>729.439</ele>
        <time>2021-06-12T10:58:21Z</time>
      </trkpt>
      <trkpt lat="41.844977" lon="2.379512">
        <ele>729.376</ele>
        <time>2021-06-12T10:58:27Z</time>
      </trkpt>
      <trkpt lat="41.844952" lon="2.379319">
        <ele>728.515</ele>
        <time>2021-06-12T10:58:32Z</time>
      </trkpt>
      <trkpt lat="41.844934" lon="2.379259">
        <ele>727.841</ele>
        <time>2021-06-12T10:58:37Z</time>
      </trkpt>
      <trkpt lat="41.844938" lon="2.379196">
        <ele>726.772</ele>
        <time>2021-06-12T10:58:41Z</time>
      </trkpt>
      <trkpt lat="41.844960" lon="2.379135">
        <ele>727.213</ele>
        <time>2021-06-12T10:58:46Z</time>
      </trkpt>
      <trkpt lat="41.844923" lon="2.379174">
        <ele>727.114</ele>
        <time>2021-06-12T10:59:09Z</time>
      </trkpt>
      <trkpt lat="41.844965" lon="2.379124">
        <ele>726.408</ele>
        <time>2021-06-12T10:59:24Z</time>
      </trkpt>
      <trkpt lat="41.844986" lon="2.379047">
        <ele>724.874</ele>
        <time>2021-06-12T10:59:33Z</time>
      </trkpt>
      <trkpt lat="41.844984" lon="2.379012">
        <ele>725.252</ele>
        <time>2021-06-12T11:00:02Z</time>
      </trkpt>
      <trkpt lat="41.844990" lon="2.378942">
        <ele>724.285</ele>
        <time>2021-06-12T11:00:10Z</time>
      </trkpt>
      <trkpt lat="41.844984" lon="2.378921">
        <ele>724.350</ele>
        <time>2021-06-12T11:00:26Z</time>
      </trkpt>
      <trkpt lat="41.844922" lon="2.379013">
        <ele>724.775</ele>
        <time>2021-06-12T11:00:33Z</time>
      </trkpt>
      <trkpt lat="41.844941" lon="2.378953">
        <ele>725.262</ele>
        <time>2021-06-12T11:00:37Z</time>
      </trkpt>
      <trkpt lat="41.844975" lon="2.378912">
        <ele>726.421</ele>
        <time>2021-06-12T11:00:41Z</time>
      </trkpt>
      <trkpt lat="41.844909" lon="2.378674">
        <ele>725.217</ele>
        <time>2021-06-12T11:01:48Z</time>
      </trkpt>
      <trkpt lat="41.844846" lon="2.378557">
        <ele>726.317</ele>
        <time>2021-06-12T11:02:23Z</time>
      </trkpt>
      <trkpt lat="41.844817" lon="2.378429">
        <ele>726.087</ele>
        <time>2021-06-12T11:02:28Z</time>
      </trkpt>
      <trkpt lat="41.844819" lon="2.378254">
        <ele>726.715</ele>
        <time>2021-06-12T11:02:31Z</time>
      </trkpt>
      <trkpt lat="41.844835" lon="2.378235">
        <ele>726.608</ele>
        <time>2021-06-12T11:02:35Z</time>
      </trkpt>
      <trkpt lat="41.844862" lon="2.378217">
        <ele>728.388</ele>
        <time>2021-06-12T11:02:39Z</time>
      </trkpt>
      <trkpt lat="41.844888" lon="2.378164">
        <ele>728.126</ele>
        <time>2021-06-12T11:02:42Z</time>
      </trkpt>
      <trkpt lat="41.845054" lon="2.378046">
        <ele>731.579</ele>
        <time>2021-06-12T11:03:13Z</time>
      </trkpt>
      <trkpt lat="41.845099" lon="2.378024">
        <ele>732.714</ele>
        <time>2021-06-12T11:03:20Z</time>
      </trkpt>
      <trkpt lat="41.845135" lon="2.377979">
        <ele>733.339</ele>
        <time>2021-06-12T11:03:26Z</time>
      </trkpt>
      <trkpt lat="41.845149" lon="2.377922">
        <ele>733.976</ele>
        <time>2021-06-12T11:03:30Z</time>
      </trkpt>
      <trkpt lat="41.845155" lon="2.377862">
        <ele>734.895</ele>
        <time>2021-06-12T11:03:38Z</time>
      </trkpt>
      <trkpt lat="41.845163" lon="2.377798">
        <ele>735.561</ele>
        <time>2021-06-12T11:03:46Z</time>
      </trkpt>
      <trkpt lat="41.845166" lon="2.377729">
        <ele>735.872</ele>
        <time>2021-06-12T11:03:50Z</time>
      </trkpt>
      <trkpt lat="41.845165" lon="2.377668">
        <ele>735.913</ele>
        <time>2021-06-12T11:03:53Z</time>
      </trkpt>
      <trkpt lat="41.845162" lon="2.377604">
        <ele>736.114</ele>
        <time>2021-06-12T11:03:57Z</time>
      </trkpt>
      <trkpt lat="41.845156" lon="2.377533">
        <ele>736.108</ele>
        <time>2021-06-12T11:04:01Z</time>
      </trkpt>
      <trkpt lat="41.845140" lon="2.377474">
        <ele>736.234</ele>
        <time>2021-06-12T11:04:04Z</time>
      </trkpt>
      <trkpt lat="41.845113" lon="2.377421">
        <ele>736.392</ele>
        <time>2021-06-12T11:04:09Z</time>
      </trkpt>
      <trkpt lat="41.845102" lon="2.377313">
        <ele>736.425</ele>
        <time>2021-06-12T11:04:13Z</time>
      </trkpt>
      <trkpt lat="41.845080" lon="2.377255">
        <ele>736.520</ele>
        <time>2021-06-12T11:04:18Z</time>
      </trkpt>
      <trkpt lat="41.845015" lon="2.377218">
        <ele>736.195</ele>
        <time>2021-06-12T11:04:22Z</time>
      </trkpt>
      <trkpt lat="41.844974" lon="2.377204">
        <ele>737.372</ele>
        <time>2021-06-12T11:04:27Z</time>
      </trkpt>
      <trkpt lat="41.844924" lon="2.377150">
        <ele>737.141</ele>
        <time>2021-06-12T11:04:31Z</time>
      </trkpt>
      <trkpt lat="41.844908" lon="2.377152">
        <ele>737.147</ele>
        <time>2021-06-12T11:04:35Z</time>
      </trkpt>
      <trkpt lat="41.844869" lon="2.377166">
        <ele>737.417</ele>
        <time>2021-06-12T11:04:38Z</time>
      </trkpt>
      <trkpt lat="41.844868" lon="2.377105">
        <ele>737.487</ele>
        <time>2021-06-12T11:04:41Z</time>
      </trkpt>
      <trkpt lat="41.844749" lon="2.376754">
        <ele>739.215</ele>
        <time>2021-06-12T11:05:08Z</time>
      </trkpt>
      <trkpt lat="41.844720" lon="2.376706">
        <ele>739.208</ele>
        <time>2021-06-12T11:05:11Z</time>
      </trkpt>
      <trkpt lat="41.844689" lon="2.376662">
        <ele>739.238</ele>
        <time>2021-06-12T11:05:15Z</time>
      </trkpt>
      <trkpt lat="41.844666" lon="2.376603">
        <ele>739.536</ele>
        <time>2021-06-12T11:05:21Z</time>
      </trkpt>
      <trkpt lat="41.844654" lon="2.376542">
        <ele>739.739</ele>
        <time>2021-06-12T11:05:24Z</time>
      </trkpt>
      <trkpt lat="41.844630" lon="2.376482">
        <ele>739.734</ele>
        <time>2021-06-12T11:05:28Z</time>
      </trkpt>
      <trkpt lat="41.844603" lon="2.376432">
        <ele>739.849</ele>
        <time>2021-06-12T11:05:32Z</time>
      </trkpt>
      <trkpt lat="41.844586" lon="2.376375">
        <ele>739.646</ele>
        <time>2021-06-12T11:05:36Z</time>
      </trkpt>
      <trkpt lat="41.844583" lon="2.376311">
        <ele>739.945</ele>
        <time>2021-06-12T11:05:42Z</time>
      </trkpt>
      <trkpt lat="41.844574" lon="2.376249">
        <ele>740.341</ele>
        <time>2021-06-12T11:05:47Z</time>
      </trkpt>
      <trkpt lat="41.844563" lon="2.376189">
        <ele>740.018</ele>
        <time>2021-06-12T11:05:50Z</time>
      </trkpt>
      <trkpt lat="41.844554" lon="2.376126">
        <ele>739.798</ele>
        <time>2021-06-12T11:05:55Z</time>
      </trkpt>
      <trkpt lat="41.844558" lon="2.376061">
        <ele>739.617</ele>
        <time>2021-06-12T11:06:00Z</time>
      </trkpt>
      <trkpt lat="41.844540" lon="2.375985">
        <ele>739.508</ele>
        <time>2021-06-12T11:06:04Z</time>
      </trkpt>
      <trkpt lat="41.844543" lon="2.375897">
        <ele>739.528</ele>
        <time>2021-06-12T11:06:08Z</time>
      </trkpt>
      <trkpt lat="41.844568" lon="2.375846">
        <ele>739.646</ele>
        <time>2021-06-12T11:06:16Z</time>
      </trkpt>
      <trkpt lat="41.844592" lon="2.375778">
        <ele>740.189</ele>
        <time>2021-06-12T11:06:19Z</time>
      </trkpt>
      <trkpt lat="41.844619" lon="2.375733">
        <ele>737.454</ele>
        <time>2021-06-12T11:06:23Z</time>
      </trkpt>
      <trkpt lat="41.844631" lon="2.375685">
        <ele>740.179</ele>
        <time>2021-06-12T11:06:26Z</time>
      </trkpt>
      <trkpt lat="41.844665" lon="2.375612">
        <ele>740.236</ele>
        <time>2021-06-12T11:06:31Z</time>
      </trkpt>
      <trkpt lat="41.844683" lon="2.375580">
        <ele>740.885</ele>
        <time>2021-06-12T11:06:35Z</time>
      </trkpt>
      <trkpt lat="41.844708" lon="2.375541">
        <ele>741.021</ele>
        <time>2021-06-12T11:06:37Z</time>
      </trkpt>
      <trkpt lat="41.844705" lon="2.375498">
        <ele>741.636</ele>
        <time>2021-06-12T11:06:40Z</time>
      </trkpt>
      <trkpt lat="41.844721" lon="2.375449">
        <ele>741.417</ele>
        <time>2021-06-12T11:06:45Z</time>
      </trkpt>
      <trkpt lat="41.844739" lon="2.375421">
        <ele>741.818</ele>
        <time>2021-06-12T11:06:49Z</time>
      </trkpt>
      <trkpt lat="41.844735" lon="2.375379">
        <ele>741.808</ele>
        <time>2021-06-12T11:06:52Z</time>
      </trkpt>
      <trkpt lat="41.844744" lon="2.375302">
        <ele>742.140</ele>
        <time>2021-06-12T11:06:57Z</time>
      </trkpt>
      <trkpt lat="41.844756" lon="2.375249">
        <ele>742.338</ele>
        <time>2021-06-12T11:07:01Z</time>
      </trkpt>
      <trkpt lat="41.844739" lon="2.375185">
        <ele>742.811</ele>
        <time>2021-06-12T11:07:06Z</time>
      </trkpt>
      <trkpt lat="41.844723" lon="2.375127">
        <ele>743.166</ele>
        <time>2021-06-12T11:07:10Z</time>
      </trkpt>
      <trkpt lat="41.844712" lon="2.375022">
        <ele>744.611</ele>
        <time>2021-06-12T11:07:34Z</time>
      </trkpt>
      <trkpt lat="41.844685" lon="2.374945">
        <ele>744.418</ele>
        <time>2021-06-12T11:08:02Z</time>
      </trkpt>
      <trkpt lat="41.844644" lon="2.374875">
        <ele>744.317</ele>
        <time>2021-06-12T11:08:07Z</time>
      </trkpt>
      <trkpt lat="41.844626" lon="2.374791">
        <ele>745.433</ele>
        <time>2021-06-12T11:08:11Z</time>
      </trkpt>
      <trkpt lat="41.844603" lon="2.374760">
        <ele>745.271</ele>
        <time>2021-06-12T11:08:21Z</time>
      </trkpt>
      <trkpt lat="41.844594" lon="2.374714">
        <ele>747.641</ele>
        <time>2021-06-12T11:08:28Z</time>
      </trkpt>
      <trkpt lat="41.844570" lon="2.374562">
        <ele>748.415</ele>
        <time>2021-06-12T11:08:31Z</time>
      </trkpt>
      <trkpt lat="41.844574" lon="2.374602">
        <ele>748.708</ele>
        <time>2021-06-12T11:08:35Z</time>
      </trkpt>
      <trkpt lat="41.844579" lon="2.374615">
        <ele>749.524</ele>
        <time>2021-06-12T11:08:43Z</time>
      </trkpt>
      <trkpt lat="41.844563" lon="2.374555">
        <ele>751.432</ele>
        <time>2021-06-12T11:08:52Z</time>
      </trkpt>
      <trkpt lat="41.844547" lon="2.374492">
        <ele>751.525</ele>
        <time>2021-06-12T11:08:59Z</time>
      </trkpt>
      <trkpt lat="41.844550" lon="2.374420">
        <ele>751.960</ele>
        <time>2021-06-12T11:09:03Z</time>
      </trkpt>
      <trkpt lat="41.844549" lon="2.374247">
        <ele>752.855</ele>
        <time>2021-06-12T11:09:10Z</time>
      </trkpt>
      <trkpt lat="41.844486" lon="2.374114">
        <ele>754.032</ele>
        <time>2021-06-12T11:09:21Z</time>
      </trkpt>
      <trkpt lat="41.844498" lon="2.374121">
        <ele>755.611</ele>
        <time>2021-06-12T11:09:29Z</time>
      </trkpt>
      <trkpt lat="41.844462" lon="2.374082">
        <ele>756.367</ele>
        <time>2021-06-12T11:09:51Z</time>
      </trkpt>
      <trkpt lat="41.844416" lon="2.374041">
        <ele>756.414</ele>
        <time>2021-06-12T11:09:54Z</time>
      </trkpt>
      <trkpt lat="41.844378" lon="2.374004">
        <ele>756.654</ele>
        <time>2021-06-12T11:09:57Z</time>
      </trkpt>
      <trkpt lat="41.844329" lon="2.373991">
        <ele>756.709</ele>
        <time>2021-06-12T11:10:00Z</time>
      </trkpt>
      <trkpt lat="41.844281" lon="2.373959">
        <ele>756.708</ele>
        <time>2021-06-12T11:10:03Z</time>
      </trkpt>
      <trkpt lat="41.844249" lon="2.373916">
        <ele>752.418</ele>
        <time>2021-06-12T11:10:08Z</time>
      </trkpt>
      <trkpt lat="41.844206" lon="2.373886">
        <ele>757.146</ele>
        <time>2021-06-12T11:10:13Z</time>
      </trkpt>
      <trkpt lat="41.844173" lon="2.373842">
        <ele>758.049</ele>
        <time>2021-06-12T11:10:19Z</time>
      </trkpt>
      <trkpt lat="41.844184" lon="2.373780">
        <ele>757.984</ele>
        <time>2021-06-12T11:10:48Z</time>
      </trkpt>
      <trkpt lat="41.844198" lon="2.373719">
        <ele>760.489</ele>
        <time>2021-06-12T11:11:22Z</time>
      </trkpt>
      <trkpt lat="41.844206" lon="2.373657">
        <ele>758.726</ele>
        <time>2021-06-12T11:11:32Z</time>
      </trkpt>
      <trkpt lat="41.844219" lon="2.373590">
        <ele>759.075</ele>
        <time>2021-06-12T11:11:38Z</time>
      </trkpt>
      <trkpt lat="41.844258" lon="2.373559">
        <ele>758.711</ele>
        <time>2021-06-12T11:11:42Z</time>
      </trkpt>
      <trkpt lat="41.844301" lon="2.373537">
        <ele>759.298</ele>
        <time>2021-06-12T11:11:47Z</time>
      </trkpt>
      <trkpt lat="41.844327" lon="2.373488">
        <ele>759.515</ele>
        <time>2021-06-12T11:12:01Z</time>
      </trkpt>
      <trkpt lat="41.844240" lon="2.373540">
        <ele>760.826</ele>
        <time>2021-06-12T11:12:22Z</time>
      </trkpt>
      <trkpt lat="41.844148" lon="2.373493">
        <ele>761.808</ele>
        <time>2021-06-12T11:12:29Z</time>
      </trkpt>
      <trkpt lat="41.844087" lon="2.373472">
        <ele>762.226</ele>
        <time>2021-06-12T11:12:33Z</time>
      </trkpt>
      <trkpt lat="41.843748" lon="2.373475">
        <ele>767.394</ele>
        <time>2021-06-12T11:13:26Z</time>
      </trkpt>
      <trkpt lat="41.843620" lon="2.373377">
        <ele>768.297</ele>
        <time>2021-06-12T11:13:33Z</time>
      </trkpt>
      <trkpt lat="41.843537" lon="2.373325">
        <ele>769.042</ele>
        <time>2021-06-12T11:13:39Z</time>
      </trkpt>
      <trkpt lat="41.843500" lon="2.373260">
        <ele>769.787</ele>
        <time>2021-06-12T11:13:45Z</time>
      </trkpt>
      <trkpt lat="41.843487" lon="2.373218">
        <ele>770.824</ele>
        <time>2021-06-12T11:13:53Z</time>
      </trkpt>
      <trkpt lat="41.843477" lon="2.373180">
        <ele>772.013</ele>
        <time>2021-06-12T11:14:06Z</time>
      </trkpt>
      <trkpt lat="41.843462" lon="2.373129">
        <ele>772.479</ele>
        <time>2021-06-12T11:14:09Z</time>
      </trkpt>
      <trkpt lat="41.843474" lon="2.373145">
        <ele>772.427</ele>
        <time>2021-06-12T11:14:13Z</time>
      </trkpt>
      <trkpt lat="41.843405" lon="2.373022">
        <ele>772.868</ele>
        <time>2021-06-12T11:14:18Z</time>
      </trkpt>
      <trkpt lat="41.843369" lon="2.372991">
        <ele>773.714</ele>
        <time>2021-06-12T11:14:22Z</time>
      </trkpt>
      <trkpt lat="41.843309" lon="2.372984">
        <ele>774.508</ele>
        <time>2021-06-12T11:14:31Z</time>
      </trkpt>
      <trkpt lat="41.842776" lon="2.372834">
        <ele>783.169</ele>
        <time>2021-06-12T11:16:21Z</time>
      </trkpt>
      <trkpt lat="41.842730" lon="2.372827">
        <ele>783.897</ele>
        <time>2021-06-12T11:16:26Z</time>
      </trkpt>
      <trkpt lat="41.842693" lon="2.372789">
        <ele>784.790</ele>
        <time>2021-06-12T11:16:32Z</time>
      </trkpt>
      <trkpt lat="41.842644" lon="2.372785">
        <ele>785.195</ele>
        <time>2021-06-12T11:16:37Z</time>
      </trkpt>
      <trkpt lat="41.842592" lon="2.372785">
        <ele>784.660</ele>
        <time>2021-06-12T11:16:43Z</time>
      </trkpt>
      <trkpt lat="41.842547" lon="2.372772">
        <ele>785.877</ele>
        <time>2021-06-12T11:16:48Z</time>
      </trkpt>
      <trkpt lat="41.842503" lon="2.372752">
        <ele>786.456</ele>
        <time>2021-06-12T11:16:52Z</time>
      </trkpt>
      <trkpt lat="41.842451" lon="2.372737">
        <ele>787.082</ele>
        <time>2021-06-12T11:16:58Z</time>
      </trkpt>
      <trkpt lat="41.842379" lon="2.372723">
        <ele>787.543</ele>
        <time>2021-06-12T11:17:04Z</time>
      </trkpt>
      <trkpt lat="41.842298" lon="2.372692">
        <ele>788.464</ele>
        <time>2021-06-12T11:17:10Z</time>
      </trkpt>
      <trkpt lat="41.842257" lon="2.372660">
        <ele>789.610</ele>
        <time>2021-06-12T11:17:16Z</time>
      </trkpt>
      <trkpt lat="41.842221" lon="2.372585">
        <ele>790.608</ele>
        <time>2021-06-12T11:17:38Z</time>
      </trkpt>
      <trkpt lat="41.842207" lon="2.372541">
        <ele>792.561</ele>
        <time>2021-06-12T11:18:30Z</time>
      </trkpt>
      <trkpt lat="41.842207" lon="2.372455">
        <ele>793.069</ele>
        <time>2021-06-12T11:18:34Z</time>
      </trkpt>
      <trkpt lat="41.842196" lon="2.372408">
        <ele>794.272</ele>
        <time>2021-06-12T11:18:39Z</time>
      </trkpt>
      <trkpt lat="41.842199" lon="2.372373">
        <ele>794.877</ele>
        <time>2021-06-12T11:18:44Z</time>
      </trkpt>
      <trkpt lat="41.842183" lon="2.372316">
        <ele>796.162</ele>
        <time>2021-06-12T11:18:56Z</time>
      </trkpt>
      <trkpt lat="41.842164" lon="2.372259">
        <ele>796.799</ele>
        <time>2021-06-12T11:19:00Z</time>
      </trkpt>
      <trkpt lat="41.842144" lon="2.372202">
        <ele>797.138</ele>
        <time>2021-06-12T11:19:05Z</time>
      </trkpt>
      <trkpt lat="41.842056" lon="2.371895">
        <ele>800.494</ele>
        <time>2021-06-12T11:19:43Z</time>
      </trkpt>
      <trkpt lat="41.841914" lon="2.371771">
        <ele>800.838</ele>
        <time>2021-06-12T11:19:46Z</time>
      </trkpt>
      <trkpt lat="41.841855" lon="2.371729">
        <ele>801.070</ele>
        <time>2021-06-12T11:19:50Z</time>
      </trkpt>
      <trkpt lat="41.841767" lon="2.371675">
        <ele>801.517</ele>
        <time>2021-06-12T11:19:53Z</time>
      </trkpt>
      <trkpt lat="41.841709" lon="2.371626">
        <ele>801.608</ele>
        <time>2021-06-12T11:19:56Z</time>
      </trkpt>
      <trkpt lat="41.841650" lon="2.371591">
        <ele>802.690</ele>
        <time>2021-06-12T11:20:00Z</time>
      </trkpt>
      <trkpt lat="41.841617" lon="2.371530">
        <ele>801.578</ele>
        <time>2021-06-12T11:20:03Z</time>
      </trkpt>
      <trkpt lat="41.841612" lon="2.371472">
        <ele>802.281</ele>
        <time>2021-06-12T11:20:07Z</time>
      </trkpt>
      <trkpt lat="41.841598" lon="2.371458">
        <ele>802.596</ele>
        <time>2021-06-12T11:20:11Z</time>
      </trkpt>
      <trkpt lat="41.841592" lon="2.371456">
        <ele>802.911</ele>
        <time>2021-06-12T11:20:15Z</time>
      </trkpt>
      <trkpt lat="41.841599" lon="2.371444">
        <ele>803.828</ele>
        <time>2021-06-12T11:20:28Z</time>
      </trkpt>
      <trkpt lat="41.841531" lon="2.371404">
        <ele>803.537</ele>
        <time>2021-06-12T11:20:32Z</time>
      </trkpt>
      <trkpt lat="41.841312" lon="2.371369">
        <ele>802.213</ele>
        <time>2021-06-12T11:20:42Z</time>
      </trkpt>
      <trkpt lat="41.841061" lon="2.371011">
        <ele>800.559</ele>
        <time>2021-06-12T11:21:15Z</time>
      </trkpt>
      <trkpt lat="41.841019" lon="2.370976">
        <ele>800.303</ele>
        <time>2021-06-12T11:21:19Z</time>
      </trkpt>
      <trkpt lat="41.840935" lon="2.370924">
        <ele>800.723</ele>
        <time>2021-06-12T11:21:23Z</time>
      </trkpt>
      <trkpt lat="41.840933" lon="2.370847">
        <ele>801.108</ele>
        <time>2021-06-12T11:21:30Z</time>
      </trkpt>
      <trkpt lat="41.840911" lon="2.370789">
        <ele>801.632</ele>
        <time>2021-06-12T11:21:35Z</time>
      </trkpt>
      <trkpt lat="41.840906" lon="2.370719">
        <ele>802.220</ele>
        <time>2021-06-12T11:21:40Z</time>
      </trkpt>
      <trkpt lat="41.840901" lon="2.370684">
        <ele>802.793</ele>
        <time>2021-06-12T11:21:45Z</time>
      </trkpt>
      <trkpt lat="41.840907" lon="2.370634">
        <ele>803.178</ele>
        <time>2021-06-12T11:21:49Z</time>
      </trkpt>
      <trkpt lat="41.840904" lon="2.370571">
        <ele>803.413</ele>
        <time>2021-06-12T11:21:53Z</time>
      </trkpt>
      <trkpt lat="41.840916" lon="2.370511">
        <ele>803.650</ele>
        <time>2021-06-12T11:21:57Z</time>
      </trkpt>
      <trkpt lat="41.840933" lon="2.370445">
        <ele>803.999</ele>
        <time>2021-06-12T11:22:02Z</time>
      </trkpt>
      <trkpt lat="41.840945" lon="2.370376">
        <ele>804.095</ele>
        <time>2021-06-12T11:22:06Z</time>
      </trkpt>
      <trkpt lat="41.840959" lon="2.370311">
        <ele>804.612</ele>
        <time>2021-06-12T11:22:10Z</time>
      </trkpt>
      <trkpt lat="41.840976" lon="2.370253">
        <ele>805.432</ele>
        <time>2021-06-12T11:22:18Z</time>
      </trkpt>
      <trkpt lat="41.840983" lon="2.370193">
        <ele>805.705</ele>
        <time>2021-06-12T11:22:25Z</time>
      </trkpt>
      <trkpt lat="41.840961" lon="2.369965">
        <ele>807.108</ele>
        <time>2021-06-12T11:22:43Z</time>
      </trkpt>
      <trkpt lat="41.840942" lon="2.369684">
        <ele>809.748</ele>
        <time>2021-06-12T11:23:12Z</time>
      </trkpt>
      <trkpt lat="41.840953" lon="2.369635">
        <ele>810.046</ele>
        <time>2021-06-12T11:23:18Z</time>
      </trkpt>
      <trkpt lat="41.840949" lon="2.369554">
        <ele>810.499</ele>
        <time>2021-06-12T11:23:23Z</time>
      </trkpt>
      <trkpt lat="41.840951" lon="2.369493">
        <ele>810.854</ele>
        <time>2021-06-12T11:23:30Z</time>
      </trkpt>
      <trkpt lat="41.840964" lon="2.369426">
        <ele>811.349</ele>
        <time>2021-06-12T11:23:34Z</time>
      </trkpt>
      <trkpt lat="41.840953" lon="2.369364">
        <ele>811.676</ele>
        <time>2021-06-12T11:23:38Z</time>
      </trkpt>
      <trkpt lat="41.840947" lon="2.369300">
        <ele>812.125</ele>
        <time>2021-06-12T11:23:44Z</time>
      </trkpt>
      <trkpt lat="41.840945" lon="2.369257">
        <ele>813.231</ele>
        <time>2021-06-12T11:23:54Z</time>
      </trkpt>
      <trkpt lat="41.840935" lon="2.369192">
        <ele>813.886</ele>
        <time>2021-06-12T11:24:00Z</time>
      </trkpt>
      <trkpt lat="41.840935" lon="2.369130">
        <ele>814.160</ele>
        <time>2021-06-12T11:24:03Z</time>
      </trkpt>
      <trkpt lat="41.840907" lon="2.369080">
        <ele>814.826</ele>
        <time>2021-06-12T11:24:08Z</time>
      </trkpt>
      <trkpt lat="41.840872" lon="2.369030">
        <ele>815.508</ele>
        <time>2021-06-12T11:24:17Z</time>
      </trkpt>
      <trkpt lat="41.840846" lon="2.368974">
        <ele>816.165</ele>
        <time>2021-06-12T11:24:24Z</time>
      </trkpt>
      <trkpt lat="41.840812" lon="2.368884">
        <ele>816.853</ele>
        <time>2021-06-12T11:24:29Z</time>
      </trkpt>
      <trkpt lat="41.840773" lon="2.368849">
        <ele>817.486</ele>
        <time>2021-06-12T11:24:34Z</time>
      </trkpt>
      <trkpt lat="41.840733" lon="2.368819">
        <ele>817.931</ele>
        <time>2021-06-12T11:24:40Z</time>
      </trkpt>
      <trkpt lat="41.840701" lon="2.368805">
        <ele>818.316</ele>
        <time>2021-06-12T11:24:46Z</time>
      </trkpt>
      <trkpt lat="41.840671" lon="2.368779">
        <ele>818.933</ele>
        <time>2021-06-12T11:24:53Z</time>
      </trkpt>
      <trkpt lat="41.840648" lon="2.368725">
        <ele>819.172</ele>
        <time>2021-06-12T11:24:58Z</time>
      </trkpt>
      <trkpt lat="41.840618" lon="2.368680">
        <ele>819.318</ele>
        <time>2021-06-12T11:25:02Z</time>
      </trkpt>
      <trkpt lat="41.840574" lon="2.368648">
        <ele>819.337</ele>
        <time>2021-06-12T11:25:08Z</time>
      </trkpt>
      <trkpt lat="41.840514" lon="2.368642">
        <ele>819.549</ele>
        <time>2021-06-12T11:25:13Z</time>
      </trkpt>
      <trkpt lat="41.840224" lon="2.368405">
        <ele>818.113</ele>
        <time>2021-06-12T11:25:37Z</time>
      </trkpt>
      <trkpt lat="41.840178" lon="2.368389">
        <ele>817.908</ele>
        <time>2021-06-12T11:25:42Z</time>
      </trkpt>
      <trkpt lat="41.840146" lon="2.368336">
        <ele>816.610</ele>
        <time>2021-06-12T11:25:53Z</time>
      </trkpt>
      <trkpt lat="41.840141" lon="2.368273">
        <ele>816.438</ele>
        <time>2021-06-12T11:25:57Z</time>
      </trkpt>
      <trkpt lat="41.839824" lon="2.367806">
        <ele>814.871</ele>
        <time>2021-06-12T11:26:37Z</time>
      </trkpt>
      <trkpt lat="41.839794" lon="2.367678">
        <ele>814.416</ele>
        <time>2021-06-12T11:26:41Z</time>
      </trkpt>
      <trkpt lat="41.839780" lon="2.367636">
        <ele>814.531</ele>
        <time>2021-06-12T11:26:44Z</time>
      </trkpt>
      <trkpt lat="41.839742" lon="2.367566">
        <ele>815.098</ele>
        <time>2021-06-12T11:26:49Z</time>
      </trkpt>
      <trkpt lat="41.839721" lon="2.367512">
        <ele>815.297</ele>
        <time>2021-06-12T11:26:53Z</time>
      </trkpt>
      <trkpt lat="41.839715" lon="2.367458">
        <ele>815.443</ele>
        <time>2021-06-12T11:26:57Z</time>
      </trkpt>
      <trkpt lat="41.839725" lon="2.367422">
        <ele>815.563</ele>
        <time>2021-06-12T11:27:01Z</time>
      </trkpt>
      <trkpt lat="41.839700" lon="2.367371">
        <ele>815.844</ele>
        <time>2021-06-12T11:27:05Z</time>
      </trkpt>
      <trkpt lat="41.839673" lon="2.367316">
        <ele>815.818</ele>
        <time>2021-06-12T11:27:09Z</time>
      </trkpt>
      <trkpt lat="41.839653" lon="2.367258">
        <ele>815.608</ele>
        <time>2021-06-12T11:27:13Z</time>
      </trkpt>
      <trkpt lat="41.839624" lon="2.367206">
        <ele>815.663</ele>
        <time>2021-06-12T11:27:17Z</time>
      </trkpt>
      <trkpt lat="41.839609" lon="2.367139">
        <ele>815.691</ele>
        <time>2021-06-12T11:27:20Z</time>
      </trkpt>
      <trkpt lat="41.839548" lon="2.366994">
        <ele>815.214</ele>
        <time>2021-06-12T11:27:25Z</time>
      </trkpt>
      <trkpt lat="41.839482" lon="2.366973">
        <ele>814.069</ele>
        <time>2021-06-12T11:27:33Z</time>
      </trkpt>
      <trkpt lat="41.839438" lon="2.366931">
        <ele>813.644</ele>
        <time>2021-06-12T11:27:37Z</time>
      </trkpt>
      <trkpt lat="41.839410" lon="2.366926">
        <ele>814.131</ele>
        <time>2021-06-12T11:27:42Z</time>
      </trkpt>
      <trkpt lat="41.839367" lon="2.366896">
        <ele>814.230</ele>
        <time>2021-06-12T11:27:48Z</time>
      </trkpt>
      <trkpt lat="41.839325" lon="2.366896">
        <ele>814.726</ele>
        <time>2021-06-12T11:27:54Z</time>
      </trkpt>
      <trkpt lat="41.839295" lon="2.366896">
        <ele>814.955</ele>
        <time>2021-06-12T11:27:58Z</time>
      </trkpt>
      <trkpt lat="41.839258" lon="2.366911">
        <ele>815.507</ele>
        <time>2021-06-12T11:28:03Z</time>
      </trkpt>
      <trkpt lat="41.839210" lon="2.366893">
        <ele>816.017</ele>
        <time>2021-06-12T11:28:08Z</time>
      </trkpt>
      <trkpt lat="41.839167" lon="2.366866">
        <ele>816.308</ele>
        <time>2021-06-12T11:28:14Z</time>
      </trkpt>
      <trkpt lat="41.838848" lon="2.366826">
        <ele>817.072</ele>
        <time>2021-06-12T11:28:19Z</time>
      </trkpt>
      <trkpt lat="41.838578" lon="2.366748">
        <ele>823.770</ele>
        <time>2021-06-12T11:29:34Z</time>
      </trkpt>
      <trkpt lat="41.838543" lon="2.366707">
        <ele>823.433</ele>
        <time>2021-06-12T11:29:38Z</time>
      </trkpt>
      <trkpt lat="41.838494" lon="2.366687">
        <ele>823.818</ele>
        <time>2021-06-12T11:29:41Z</time>
      </trkpt>
      <trkpt lat="41.838446" lon="2.366658">
        <ele>823.813</ele>
        <time>2021-06-12T11:29:44Z</time>
      </trkpt>
      <trkpt lat="41.838401" lon="2.366639">
        <ele>824.020</ele>
        <time>2021-06-12T11:29:47Z</time>
      </trkpt>
      <trkpt lat="41.838341" lon="2.366642">
        <ele>824.629</ele>
        <time>2021-06-12T11:29:55Z</time>
      </trkpt>
      <trkpt lat="41.838298" lon="2.366644">
        <ele>825.335</ele>
        <time>2021-06-12T11:30:05Z</time>
      </trkpt>
      <trkpt lat="41.838258" lon="2.366639">
        <ele>825.932</ele>
        <time>2021-06-12T11:30:11Z</time>
      </trkpt>
      <trkpt lat="41.838188" lon="2.366609">
        <ele>826.692</ele>
        <time>2021-06-12T11:30:19Z</time>
      </trkpt>
      <trkpt lat="41.838145" lon="2.366616">
        <ele>826.911</ele>
        <time>2021-06-12T11:30:26Z</time>
      </trkpt>
      <trkpt lat="41.838120" lon="2.366623">
        <ele>827.908</ele>
        <time>2021-06-12T11:30:39Z</time>
      </trkpt>
      <trkpt lat="41.838079" lon="2.366603">
        <ele>828.190</ele>
        <time>2021-06-12T11:30:58Z</time>
      </trkpt>
      <trkpt lat="41.838034" lon="2.366590">
        <ele>828.158</ele>
        <time>2021-06-12T11:31:12Z</time>
      </trkpt>
      <trkpt lat="41.837974" lon="2.366618">
        <ele>828.271</ele>
        <time>2021-06-12T11:31:16Z</time>
      </trkpt>
      <trkpt lat="41.837915" lon="2.366628">
        <ele>827.226</ele>
        <time>2021-06-12T11:31:20Z</time>
      </trkpt>
      <trkpt lat="41.837879" lon="2.366597">
        <ele>826.861</ele>
        <time>2021-06-12T11:31:26Z</time>
      </trkpt>
      <trkpt lat="41.837841" lon="2.366588">
        <ele>829.278</ele>
        <time>2021-06-12T11:31:32Z</time>
      </trkpt>
      <trkpt lat="41.837789" lon="2.366576">
        <ele>829.347</ele>
        <time>2021-06-12T11:31:37Z</time>
      </trkpt>
      <trkpt lat="41.837745" lon="2.366562">
        <ele>829.453</ele>
        <time>2021-06-12T11:31:43Z</time>
      </trkpt>
      <trkpt lat="41.837701" lon="2.366544">
        <ele>830.163</ele>
        <time>2021-06-12T11:31:49Z</time>
      </trkpt>
      <trkpt lat="41.837638" lon="2.366515">
        <ele>830.544</ele>
        <time>2021-06-12T11:31:55Z</time>
      </trkpt>
      <trkpt lat="41.837594" lon="2.366497">
        <ele>830.918</ele>
        <time>2021-06-12T11:31:59Z</time>
      </trkpt>
      <trkpt lat="41.837575" lon="2.366465">
        <ele>831.108</ele>
        <time>2021-06-12T11:32:03Z</time>
      </trkpt>
      <trkpt lat="41.837529" lon="2.366452">
        <ele>831.413</ele>
        <time>2021-06-12T11:32:06Z</time>
      </trkpt>
      <trkpt lat="41.837478" lon="2.366433">
        <ele>831.471</ele>
        <time>2021-06-12T11:32:10Z</time>
      </trkpt>
      <trkpt lat="41.837408" lon="2.366357">
        <ele>831.914</ele>
        <time>2021-06-12T11:32:14Z</time>
      </trkpt>
      <trkpt lat="41.837333" lon="2.366336">
        <ele>832.659</ele>
        <time>2021-06-12T11:32:17Z</time>
      </trkpt>
      <trkpt lat="41.837274" lon="2.366354">
        <ele>832.134</ele>
        <time>2021-06-12T11:32:22Z</time>
      </trkpt>
      <trkpt lat="41.837252" lon="2.366350">
        <ele>832.861</ele>
        <time>2021-06-12T11:32:26Z</time>
      </trkpt>
      <trkpt lat="41.837231" lon="2.366371">
        <ele>833.070</ele>
        <time>2021-06-12T11:32:30Z</time>
      </trkpt>
      <trkpt lat="41.837196" lon="2.366340">
        <ele>833.676</ele>
        <time>2021-06-12T11:32:49Z</time>
      </trkpt>
      <trkpt lat="41.837155" lon="2.366324">
        <ele>833.332</ele>
        <time>2021-06-12T11:32:56Z</time>
      </trkpt>
      <trkpt lat="41.837101" lon="2.366289">
        <ele>833.092</ele>
        <time>2021-06-12T11:33:00Z</time>
      </trkpt>
      <trkpt lat="41.837054" lon="2.366332">
        <ele>832.711</ele>
        <time>2021-06-12T11:33:06Z</time>
      </trkpt>
      <trkpt lat="41.837023" lon="2.366283">
        <ele>833.308</ele>
        <time>2021-06-12T11:33:11Z</time>
      </trkpt>
      <trkpt lat="41.836986" lon="2.366247">
        <ele>832.390</ele>
        <time>2021-06-12T11:33:25Z</time>
      </trkpt>
      <trkpt lat="41.836938" lon="2.366235">
        <ele>832.558</ele>
        <time>2021-06-12T11:33:29Z</time>
      </trkpt>
      <trkpt lat="41.836897" lon="2.366207">
        <ele>832.121</ele>
        <time>2021-06-12T11:33:34Z</time>
      </trkpt>
      <trkpt lat="41.836848" lon="2.366209">
        <ele>832.636</ele>
        <time>2021-06-12T11:34:03Z</time>
      </trkpt>
      <trkpt lat="41.836804" lon="2.366176">
        <ele>831.891</ele>
        <time>2021-06-12T11:34:07Z</time>
      </trkpt>
      <trkpt lat="41.836750" lon="2.366158">
        <ele>832.028</ele>
        <time>2021-06-12T11:34:10Z</time>
      </trkpt>
      <trkpt lat="41.836704" lon="2.366163">
        <ele>831.667</ele>
        <time>2021-06-12T11:34:21Z</time>
      </trkpt>
      <trkpt lat="41.836673" lon="2.366136">
        <ele>831.483</ele>
        <time>2021-06-12T11:34:26Z</time>
      </trkpt>
      <trkpt lat="41.836621" lon="2.366140">
        <ele>830.881</ele>
        <time>2021-06-12T11:34:29Z</time>
      </trkpt>
      <trkpt lat="41.836581" lon="2.366111">
        <ele>830.561</ele>
        <time>2021-06-12T11:34:50Z</time>
      </trkpt>
      <trkpt lat="41.836524" lon="2.366138">
        <ele>830.517</ele>
        <time>2021-06-12T11:35:00Z</time>
      </trkpt>
      <trkpt lat="41.836492" lon="2.366140">
        <ele>830.808</ele>
        <time>2021-06-12T11:35:13Z</time>
      </trkpt>
      <trkpt lat="41.836438" lon="2.366140">
        <ele>830.685</ele>
        <time>2021-06-12T11:35:17Z</time>
      </trkpt>
      <trkpt lat="41.836401" lon="2.366114">
        <ele>830.493</ele>
        <time>2021-06-12T11:35:21Z</time>
      </trkpt>
      <trkpt lat="41.836357" lon="2.366126">
        <ele>830.016</ele>
        <time>2021-06-12T11:35:25Z</time>
      </trkpt>
      <trkpt lat="41.836311" lon="2.366141">
        <ele>829.711</ele>
        <time>2021-06-12T11:35:29Z</time>
      </trkpt>
      <trkpt lat="41.836256" lon="2.366107">
        <ele>829.386</ele>
        <time>2021-06-12T11:35:34Z</time>
      </trkpt>
      <trkpt lat="41.836231" lon="2.366060">
        <ele>828.533</ele>
        <time>2021-06-12T11:35:39Z</time>
      </trkpt>
      <trkpt lat="41.835994" lon="2.365561">
        <ele>828.762</ele>
        <time>2021-06-12T11:36:18Z</time>
      </trkpt>
      <trkpt lat="41.835863" lon="2.365516">
        <ele>829.288</ele>
        <time>2021-06-12T11:36:22Z</time>
      </trkpt>
      <trkpt lat="41.835797" lon="2.365456">
        <ele>829.855</ele>
        <time>2021-06-12T11:36:37Z</time>
      </trkpt>
      <trkpt lat="41.835727" lon="2.365437">
        <ele>830.707</ele>
        <time>2021-06-12T11:36:46Z</time>
      </trkpt>
      <trkpt lat="41.835653" lon="2.365414">
        <ele>831.317</ele>
        <time>2021-06-12T11:36:50Z</time>
      </trkpt>
      <trkpt lat="41.835601" lon="2.365397">
        <ele>828.908</ele>
        <time>2021-06-12T11:36:54Z</time>
      </trkpt>
      <trkpt lat="41.835592" lon="2.365390">
        <ele>831.232</ele>
        <time>2021-06-12T11:36:57Z</time>
      </trkpt>
      <trkpt lat="41.835567" lon="2.365395">
        <ele>831.520</ele>
        <time>2021-06-12T11:37:01Z</time>
      </trkpt>
      <trkpt lat="41.835525" lon="2.365397">
        <ele>831.723</ele>
        <time>2021-06-12T11:37:05Z</time>
      </trkpt>
      <trkpt lat="41.835486" lon="2.365379">
        <ele>831.578</ele>
        <time>2021-06-12T11:37:08Z</time>
      </trkpt>
      <trkpt lat="41.835432" lon="2.365369">
        <ele>831.423</ele>
        <time>2021-06-12T11:37:12Z</time>
      </trkpt>
      <trkpt lat="41.835438" lon="2.365399">
        <ele>831.730</ele>
        <time>2021-06-12T11:37:17Z</time>
      </trkpt>
      <trkpt lat="41.835344" lon="2.365353">
        <ele>831.879</ele>
        <time>2021-06-12T11:37:20Z</time>
      </trkpt>
      <trkpt lat="41.835272" lon="2.365327">
        <ele>832.175</ele>
        <time>2021-06-12T11:37:23Z</time>
      </trkpt>
      <trkpt lat="41.834900" lon="2.365362">
        <ele>832.515</ele>
        <time>2021-06-12T11:38:03Z</time>
      </trkpt>
      <trkpt lat="41.834848" lon="2.365386">
        <ele>832.265</ele>
        <time>2021-06-12T11:38:08Z</time>
      </trkpt>
      <trkpt lat="41.834802" lon="2.365374">
        <ele>832.011</ele>
        <time>2021-06-12T11:38:13Z</time>
      </trkpt>
      <trkpt lat="41.834751" lon="2.365367">
        <ele>831.508</ele>
        <time>2021-06-12T11:38:18Z</time>
      </trkpt>
      <trkpt lat="41.834703" lon="2.365376">
        <ele>831.278</ele>
        <time>2021-06-12T11:38:22Z</time>
      </trkpt>
      <trkpt lat="41.834656" lon="2.365388">
        <ele>830.896</ele>
        <time>2021-06-12T11:38:26Z</time>
      </trkpt>
      <trkpt lat="41.834611" lon="2.365387">
        <ele>830.679</ele>
        <time>2021-06-12T11:38:31Z</time>
      </trkpt>
      <trkpt lat="41.834562" lon="2.365392">
        <ele>830.784</ele>
        <time>2021-06-12T11:38:37Z</time>
      </trkpt>
      <trkpt lat="41.834514" lon="2.365405">
        <ele>830.229</ele>
        <time>2021-06-12T11:38:42Z</time>
      </trkpt>
      <trkpt lat="41.834465" lon="2.365409">
        <ele>830.196</ele>
        <time>2021-06-12T11:38:46Z</time>
      </trkpt>
      <trkpt lat="41.834419" lon="2.365416">
        <ele>830.445</ele>
        <time>2021-06-12T11:38:50Z</time>
      </trkpt>
      <trkpt lat="41.834378" lon="2.365444">
        <ele>830.341</ele>
        <time>2021-06-12T11:38:54Z</time>
      </trkpt>
      <trkpt lat="41.834337" lon="2.365471">
        <ele>830.466</ele>
        <time>2021-06-12T11:38:58Z</time>
      </trkpt>
      <trkpt lat="41.834289" lon="2.365482">
        <ele>830.729</ele>
        <time>2021-06-12T11:39:03Z</time>
      </trkpt>
      <trkpt lat="41.834243" lon="2.365501">
        <ele>830.821</ele>
        <time>2021-06-12T11:39:07Z</time>
      </trkpt>
      <trkpt lat="41.834194" lon="2.365511">
        <ele>830.808</ele>
        <time>2021-06-12T11:39:12Z</time>
      </trkpt>
      <trkpt lat="41.834145" lon="2.365509">
        <ele>831.123</ele>
        <time>2021-06-12T11:39:16Z</time>
      </trkpt>
      <trkpt lat="41.834099" lon="2.365510">
        <ele>831.351</ele>
        <time>2021-06-12T11:39:20Z</time>
      </trkpt>
      <trkpt lat="41.834053" lon="2.365506">
        <ele>831.644</ele>
        <time>2021-06-12T11:39:25Z</time>
      </trkpt>
      <trkpt lat="41.834007" lon="2.365512">
        <ele>831.859</ele>
        <time>2021-06-12T11:39:29Z</time>
      </trkpt>
      <trkpt lat="41.833962" lon="2.365536">
        <ele>832.274</ele>
        <time>2021-06-12T11:39:33Z</time>
      </trkpt>
      <trkpt lat="41.833625" lon="2.365534">
        <ele>836.561</ele>
        <time>2021-06-12T11:40:26Z</time>
      </trkpt>
      <trkpt lat="41.833579" lon="2.365544">
        <ele>836.850</ele>
        <time>2021-06-12T11:40:32Z</time>
      </trkpt>
      <trkpt lat="41.833531" lon="2.365528">
        <ele>836.986</ele>
        <time>2021-06-12T11:40:38Z</time>
      </trkpt>
      <trkpt lat="41.833183" lon="2.365690">
        <ele>839.815</ele>
        <time>2021-06-12T11:41:31Z</time>
      </trkpt>
      <trkpt lat="41.833173" lon="2.365752">
        <ele>840.665</ele>
        <time>2021-06-12T11:41:35Z</time>
      </trkpt>
      <trkpt lat="41.833154" lon="2.365815">
        <ele>841.011</ele>
        <time>2021-06-12T11:41:40Z</time>
      </trkpt>
      <trkpt lat="41.833138" lon="2.365875">
        <ele>841.908</ele>
        <time>2021-06-12T11:41:45Z</time>
      </trkpt>
      <trkpt lat="41.833116" lon="2.365932">
        <ele>842.898</ele>
        <time>2021-06-12T11:41:51Z</time>
      </trkpt>
      <trkpt lat="41.833102" lon="2.366002">
        <ele>842.576</ele>
        <time>2021-06-12T11:41:59Z</time>
      </trkpt>
      <trkpt lat="41.833061" lon="2.366081">
        <ele>844.259</ele>
        <time>2021-06-12T11:42:06Z</time>
      </trkpt>
      <trkpt lat="41.833028" lon="2.366140">
        <ele>844.284</ele>
        <time>2021-06-12T11:42:09Z</time>
      </trkpt>
      <trkpt lat="41.833003" lon="2.366182">
        <ele>843.679</ele>
        <time>2021-06-12T11:42:12Z</time>
      </trkpt>
      <trkpt lat="41.832974" lon="2.366268">
        <ele>843.036</ele>
        <time>2021-06-12T11:42:16Z</time>
      </trkpt>
      <trkpt lat="41.832926" lon="2.366280">
        <ele>842.195</ele>
        <time>2021-06-12T11:42:21Z</time>
      </trkpt>
      <trkpt lat="41.832919" lon="2.366284">
        <ele>841.071</ele>
        <time>2021-06-12T11:42:27Z</time>
      </trkpt>
      <trkpt lat="41.832879" lon="2.366277">
        <ele>842.236</ele>
        <time>2021-06-12T11:42:58Z</time>
      </trkpt>
      <trkpt lat="41.832851" lon="2.366273">
        <ele>842.217</ele>
        <time>2021-06-12T11:43:13Z</time>
      </trkpt>
      <trkpt lat="41.832813" lon="2.366240">
        <ele>843.818</ele>
        <time>2021-06-12T11:43:39Z</time>
      </trkpt>
      <trkpt lat="41.832773" lon="2.366249">
        <ele>842.908</ele>
        <time>2021-06-12T11:43:43Z</time>
      </trkpt>
      <trkpt lat="41.832739" lon="2.366165">
        <ele>843.590</ele>
        <time>2021-06-12T11:44:11Z</time>
      </trkpt>
      <trkpt lat="41.832708" lon="2.366123">
        <ele>844.618</ele>
        <time>2021-06-12T11:44:19Z</time>
      </trkpt>
      <trkpt lat="41.832696" lon="2.366098">
        <ele>845.311</ele>
        <time>2021-06-12T11:44:24Z</time>
      </trkpt>
      <trkpt lat="41.832682" lon="2.366056">
        <ele>846.576</ele>
        <time>2021-06-12T11:44:29Z</time>
      </trkpt>
      <trkpt lat="41.832638" lon="2.365988">
        <ele>847.561</ele>
        <time>2021-06-12T11:44:35Z</time>
      </trkpt>
      <trkpt lat="41.832608" lon="2.365939">
        <ele>848.398</ele>
        <time>2021-06-12T11:44:41Z</time>
      </trkpt>
      <trkpt lat="41.832569" lon="2.365912">
        <ele>849.317</ele>
        <time>2021-06-12T11:44:49Z</time>
      </trkpt>
      <trkpt lat="41.832547" lon="2.365855">
        <ele>850.053</ele>
        <time>2021-06-12T11:44:54Z</time>
      </trkpt>
      <trkpt lat="41.832507" lon="2.365811">
        <ele>850.412</ele>
        <time>2021-06-12T11:44:59Z</time>
      </trkpt>
      <trkpt lat="41.832462" lon="2.365790">
        <ele>850.932</ele>
        <time>2021-06-12T11:45:03Z</time>
      </trkpt>
      <trkpt lat="41.832429" lon="2.365742">
        <ele>851.405</ele>
        <time>2021-06-12T11:45:06Z</time>
      </trkpt>
      <trkpt lat="41.832397" lon="2.365683">
        <ele>851.308</ele>
        <time>2021-06-12T11:45:09Z</time>
      </trkpt>
      <trkpt lat="41.832359" lon="2.365643">
        <ele>851.998</ele>
        <time>2021-06-12T11:45:13Z</time>
      </trkpt>
      <trkpt lat="41.832320" lon="2.365607">
        <ele>852.216</ele>
        <time>2021-06-12T11:45:18Z</time>
      </trkpt>
      <trkpt lat="41.832290" lon="2.365551">
        <ele>853.789</ele>
        <time>2021-06-12T11:45:29Z</time>
      </trkpt>
      <trkpt lat="41.832264" lon="2.365498">
        <ele>854.064</ele>
        <time>2021-06-12T11:45:34Z</time>
      </trkpt>
      <trkpt lat="41.832225" lon="2.365468">
        <ele>855.189</ele>
        <time>2021-06-12T11:45:40Z</time>
      </trkpt>
      <trkpt lat="41.832186" lon="2.365435">
        <ele>856.196</ele>
        <time>2021-06-12T11:45:46Z</time>
      </trkpt>
      <trkpt lat="41.832152" lon="2.365393">
        <ele>857.295</ele>
        <time>2021-06-12T11:45:52Z</time>
      </trkpt>
      <trkpt lat="41.832124" lon="2.365337">
        <ele>858.161</ele>
        <time>2021-06-12T11:46:01Z</time>
      </trkpt>
      <trkpt lat="41.832085" lon="2.365305">
        <ele>858.823</ele>
        <time>2021-06-12T11:46:07Z</time>
      </trkpt>
      <trkpt lat="41.832056" lon="2.365253">
        <ele>859.883</ele>
        <time>2021-06-12T11:46:55Z</time>
      </trkpt>
      <trkpt lat="41.832040" lon="2.365196">
        <ele>859.911</ele>
        <time>2021-06-12T11:47:03Z</time>
      </trkpt>
      <trkpt lat="41.832076" lon="2.365154">
        <ele>859.708</ele>
        <time>2021-06-12T11:47:18Z</time>
      </trkpt>
      <trkpt lat="41.832098" lon="2.365094">
        <ele>859.719</ele>
        <time>2021-06-12T11:47:50Z</time>
      </trkpt>
      <trkpt lat="41.832050" lon="2.365089">
        <ele>859.657</ele>
        <time>2021-06-12T11:48:02Z</time>
      </trkpt>
      <trkpt lat="41.832007" lon="2.365119">
        <ele>859.710</ele>
        <time>2021-06-12T11:48:05Z</time>
      </trkpt>
      <trkpt lat="41.831964" lon="2.365137">
        <ele>859.975</ele>
        <time>2021-06-12T11:48:15Z</time>
      </trkpt>
      <trkpt lat="41.831920" lon="2.365160">
        <ele>859.890</ele>
        <time>2021-06-12T11:48:20Z</time>
      </trkpt>
      <trkpt lat="41.831875" lon="2.365173">
        <ele>860.097</ele>
        <time>2021-06-12T11:48:34Z</time>
      </trkpt>
      <trkpt lat="41.831826" lon="2.365150">
        <ele>860.566</ele>
        <time>2021-06-12T11:48:40Z</time>
      </trkpt>
      <trkpt lat="41.831790" lon="2.365110">
        <ele>860.792</ele>
        <time>2021-06-12T11:48:45Z</time>
      </trkpt>
      <trkpt lat="41.831745" lon="2.365086">
        <ele>861.891</ele>
        <time>2021-06-12T11:48:57Z</time>
      </trkpt>
      <trkpt lat="41.831696" lon="2.365070">
        <ele>862.981</ele>
        <time>2021-06-12T11:49:02Z</time>
      </trkpt>
      <trkpt lat="41.831661" lon="2.365029">
        <ele>863.419</ele>
        <time>2021-06-12T11:49:11Z</time>
      </trkpt>
      <trkpt lat="41.831617" lon="2.365018">
        <ele>864.208</ele>
        <time>2021-06-12T11:49:19Z</time>
      </trkpt>
      <trkpt lat="41.831577" lon="2.364987">
        <ele>864.576</ele>
        <time>2021-06-12T11:49:27Z</time>
      </trkpt>
      <trkpt lat="41.831530" lon="2.364992">
        <ele>865.174</ele>
        <time>2021-06-12T11:49:34Z</time>
      </trkpt>
      <trkpt lat="41.831481" lon="2.364988">
        <ele>865.397</ele>
        <time>2021-06-12T11:49:40Z</time>
      </trkpt>
      <trkpt lat="41.831440" lon="2.365022">
        <ele>866.782</ele>
        <time>2021-06-12T11:49:46Z</time>
      </trkpt>
      <trkpt lat="41.831391" lon="2.365022">
        <ele>867.087</ele>
        <time>2021-06-12T11:49:51Z</time>
      </trkpt>
      <trkpt lat="41.831418" lon="2.364973">
        <ele>866.464</ele>
        <time>2021-06-12T11:50:05Z</time>
      </trkpt>
      <trkpt lat="41.831377" lon="2.364940">
        <ele>867.673</ele>
        <time>2021-06-12T11:50:18Z</time>
      </trkpt>
      <trkpt lat="41.831349" lon="2.364893">
        <ele>867.479</ele>
        <time>2021-06-12T11:50:35Z</time>
      </trkpt>
      <trkpt lat="41.831349" lon="2.364829">
        <ele>867.826</ele>
        <time>2021-06-12T11:50:52Z</time>
      </trkpt>
      <trkpt lat="41.831322" lon="2.364882">
        <ele>867.947</ele>
        <time>2021-06-12T11:51:17Z</time>
      </trkpt>
      <trkpt lat="41.831347" lon="2.364936">
        <ele>868.511</ele>
        <time>2021-06-12T11:51:24Z</time>
      </trkpt>
      <trkpt lat="41.831302" lon="2.364951">
        <ele>870.708</ele>
        <time>2021-06-12T11:51:34Z</time>
      </trkpt>
      <trkpt lat="41.831251" lon="2.364966">
        <ele>872.139</ele>
        <time>2021-06-12T11:51:39Z</time>
      </trkpt>
      <trkpt lat="41.831203" lon="2.364976">
        <ele>872.197</ele>
        <time>2021-06-12T11:51:43Z</time>
      </trkpt>
      <trkpt lat="41.831171" lon="2.364926">
        <ele>873.050</ele>
        <time>2021-06-12T11:51:48Z</time>
      </trkpt>
      <trkpt lat="41.831108" lon="2.364865">
        <ele>874.475</ele>
        <time>2021-06-12T11:51:55Z</time>
      </trkpt>
      <trkpt lat="41.831085" lon="2.364858">
        <ele>875.710</ele>
        <time>2021-06-12T11:52:00Z</time>
      </trkpt>
      <trkpt lat="41.831060" lon="2.364871">
        <ele>876.697</ele>
        <time>2021-06-12T11:52:09Z</time>
      </trkpt>
      <trkpt lat="41.831019" lon="2.364839">
        <ele>877.186</ele>
        <time>2021-06-12T11:52:16Z</time>
      </trkpt>
      <trkpt lat="41.830987" lon="2.364793">
        <ele>875.892</ele>
        <time>2021-06-12T11:52:19Z</time>
      </trkpt>
      <trkpt lat="41.830477" lon="2.364422">
        <ele>885.081</ele>
        <time>2021-06-12T11:53:43Z</time>
      </trkpt>
      <trkpt lat="41.829822" lon="2.363692">
        <ele>911.161</ele>
        <time>2021-06-12T11:59:08Z</time>
      </trkpt>
      <trkpt lat="41.829300" lon="2.363025">
        <ele>911.517</ele>
        <time>2021-06-12T11:59:13Z</time>
      </trkpt>
      <trkpt lat="41.829267" lon="2.362966">
        <ele>911.608</ele>
        <time>2021-06-12T11:59:20Z</time>
      </trkpt>
      <trkpt lat="41.829241" lon="2.362875">
        <ele>912.185</ele>
        <time>2021-06-12T11:59:26Z</time>
      </trkpt>
      <trkpt lat="41.829164" lon="2.362784">
        <ele>912.513</ele>
        <time>2021-06-12T11:59:31Z</time>
      </trkpt>
      <trkpt lat="41.829109" lon="2.362700">
        <ele>912.986</ele>
        <time>2021-06-12T11:59:37Z</time>
      </trkpt>
      <trkpt lat="41.829065" lon="2.362660">
        <ele>913.751</ele>
        <time>2021-06-12T11:59:42Z</time>
      </trkpt>
      <trkpt lat="41.829019" lon="2.362623">
        <ele>913.956</ele>
        <time>2021-06-12T11:59:45Z</time>
      </trkpt>
      <trkpt lat="41.828976" lon="2.362593">
        <ele>914.553</ele>
        <time>2021-06-12T11:59:49Z</time>
      </trkpt>
      <trkpt lat="41.828920" lon="2.362555">
        <ele>915.032</ele>
        <time>2021-06-12T11:59:54Z</time>
      </trkpt>
      <trkpt lat="41.828871" lon="2.362504">
        <ele>915.868</ele>
        <time>2021-06-12T12:00:00Z</time>
      </trkpt>
      <trkpt lat="41.828819" lon="2.362509">
        <ele>916.442</ele>
        <time>2021-06-12T12:00:06Z</time>
      </trkpt>
      <trkpt lat="41.828742" lon="2.362446">
        <ele>916.822</ele>
        <time>2021-06-12T12:00:10Z</time>
      </trkpt>
      <trkpt lat="41.828713" lon="2.362425">
        <ele>917.614</ele>
        <time>2021-06-12T12:00:15Z</time>
      </trkpt>
      <trkpt lat="41.828543" lon="2.362349">
        <ele>924.708</ele>
        <time>2021-06-12T12:01:16Z</time>
      </trkpt>
      <trkpt lat="41.828496" lon="2.362367">
        <ele>925.711</ele>
        <time>2021-06-12T12:01:26Z</time>
      </trkpt>
      <trkpt lat="41.828456" lon="2.362401">
        <ele>925.619</ele>
        <time>2021-06-12T12:01:32Z</time>
      </trkpt>
      <trkpt lat="41.828409" lon="2.362414">
        <ele>925.332</ele>
        <time>2021-06-12T12:01:38Z</time>
      </trkpt>
      <trkpt lat="41.828371" lon="2.362453">
        <ele>925.127</ele>
        <time>2021-06-12T12:01:42Z</time>
      </trkpt>
      <trkpt lat="41.828334" lon="2.362434">
        <ele>924.832</ele>
        <time>2021-06-12T12:01:45Z</time>
      </trkpt>
      <trkpt lat="41.828293" lon="2.362474">
        <ele>924.699</ele>
        <time>2021-06-12T12:01:49Z</time>
      </trkpt>
      <trkpt lat="41.828237" lon="2.362513">
        <ele>924.628</ele>
        <time>2021-06-12T12:01:53Z</time>
      </trkpt>
      <trkpt lat="41.828167" lon="2.362555">
        <ele>924.784</ele>
        <time>2021-06-12T12:01:56Z</time>
      </trkpt>
      <trkpt lat="41.828125" lon="2.362628">
        <ele>924.976</ele>
        <time>2021-06-12T12:02:01Z</time>
      </trkpt>
      <trkpt lat="41.828082" lon="2.362679">
        <ele>924.890</ele>
        <time>2021-06-12T12:02:05Z</time>
      </trkpt>
      <trkpt lat="41.828034" lon="2.362693">
        <ele>924.719</ele>
        <time>2021-06-12T12:02:08Z</time>
      </trkpt>
      <trkpt lat="41.827985" lon="2.362698">
        <ele>924.608</ele>
        <time>2021-06-12T12:02:12Z</time>
      </trkpt>
      <trkpt lat="41.827944" lon="2.362670">
        <ele>924.424</ele>
        <time>2021-06-12T12:02:17Z</time>
      </trkpt>
      <trkpt lat="41.827917" lon="2.362635">
        <ele>923.222</ele>
        <time>2021-06-12T12:02:23Z</time>
      </trkpt>
      <trkpt lat="41.827885" lon="2.362602">
        <ele>922.525</ele>
        <time>2021-06-12T12:02:27Z</time>
      </trkpt>
      <trkpt lat="41.827863" lon="2.362555">
        <ele>922.740</ele>
        <time>2021-06-12T12:02:33Z</time>
      </trkpt>
      <trkpt lat="41.827809" lon="2.362497">
        <ele>922.135</ele>
        <time>2021-06-12T12:02:37Z</time>
      </trkpt>
      <trkpt lat="41.827766" lon="2.362425">
        <ele>921.062</ele>
        <time>2021-06-12T12:02:40Z</time>
      </trkpt>
      <trkpt lat="41.827723" lon="2.362327">
        <ele>921.431</ele>
        <time>2021-06-12T12:02:43Z</time>
      </trkpt>
      <trkpt lat="41.827696" lon="2.362266">
        <ele>921.897</ele>
        <time>2021-06-12T12:02:47Z</time>
      </trkpt>
      <trkpt lat="41.827657" lon="2.362208">
        <ele>922.283</ele>
        <time>2021-06-12T12:02:52Z</time>
      </trkpt>
      <trkpt lat="41.827644" lon="2.362177">
        <ele>923.025</ele>
        <time>2021-06-12T12:02:59Z</time>
      </trkpt>
      <trkpt lat="41.827245" lon="2.361299">
        <ele>929.217</ele>
        <time>2021-06-12T12:04:40Z</time>
      </trkpt>
      <trkpt lat="41.827215" lon="2.361250">
        <ele>930.108</ele>
        <time>2021-06-12T12:04:48Z</time>
      </trkpt>
      <trkpt lat="41.827172" lon="2.361217">
        <ele>930.955</ele>
        <time>2021-06-12T12:04:55Z</time>
      </trkpt>
      <trkpt lat="41.827128" lon="2.361201">
        <ele>931.963</ele>
        <time>2021-06-12T12:05:03Z</time>
      </trkpt>
      <trkpt lat="41.826814" lon="2.361080">
        <ele>936.816</ele>
        <time>2021-06-12T12:05:51Z</time>
      </trkpt>
      <trkpt lat="41.826770" lon="2.361104">
        <ele>937.661</ele>
        <time>2021-06-12T12:05:57Z</time>
      </trkpt>
      <trkpt lat="41.826721" lon="2.361103">
        <ele>938.366</ele>
        <time>2021-06-12T12:06:03Z</time>
      </trkpt>
      <trkpt lat="41.826677" lon="2.361124">
        <ele>939.133</ele>
        <time>2021-06-12T12:06:10Z</time>
      </trkpt>
      <trkpt lat="41.826631" lon="2.361138">
        <ele>940.422</ele>
        <time>2021-06-12T12:06:19Z</time>
      </trkpt>
      <trkpt lat="41.826606" lon="2.361087">
        <ele>941.138</ele>
        <time>2021-06-12T12:06:25Z</time>
      </trkpt>
      <trkpt lat="41.826385" lon="2.360818">
        <ele>947.455</ele>
        <time>2021-06-12T12:07:33Z</time>
      </trkpt>
      <trkpt lat="41.826357" lon="2.360866">
        <ele>947.407</ele>
        <time>2021-06-12T12:07:43Z</time>
      </trkpt>
      <trkpt lat="41.826314" lon="2.360849">
        <ele>950.017</ele>
        <time>2021-06-12T12:08:18Z</time>
      </trkpt>
      <trkpt lat="41.826304" lon="2.360786">
        <ele>951.308</ele>
        <time>2021-06-12T12:08:36Z</time>
      </trkpt>
      <trkpt lat="41.826269" lon="2.360744">
        <ele>952.642</ele>
        <time>2021-06-12T12:08:49Z</time>
      </trkpt>
      <trkpt lat="41.826221" lon="2.360744">
        <ele>953.550</ele>
        <time>2021-06-12T12:08:57Z</time>
      </trkpt>
      <trkpt lat="41.826180" lon="2.360712">
        <ele>954.473</ele>
        <time>2021-06-12T12:09:03Z</time>
      </trkpt>
      <trkpt lat="41.826191" lon="2.360652">
        <ele>953.868</ele>
        <time>2021-06-12T12:09:18Z</time>
      </trkpt>
      <trkpt lat="41.826192" lon="2.360591">
        <ele>955.013</ele>
        <time>2021-06-12T12:09:47Z</time>
      </trkpt>
      <trkpt lat="41.826156" lon="2.360552">
        <ele>956.360</ele>
        <time>2021-06-12T12:09:55Z</time>
      </trkpt>
      <trkpt lat="41.826067" lon="2.360420">
        <ele>956.919</ele>
        <time>2021-06-12T12:10:02Z</time>
      </trkpt>
      <trkpt lat="41.825923" lon="2.360399">
        <ele>957.145</ele>
        <time>2021-06-12T12:10:07Z</time>
      </trkpt>
      <trkpt lat="41.825857" lon="2.360259">
        <ele>957.631</ele>
        <time>2021-06-12T12:10:14Z</time>
      </trkpt>
      <trkpt lat="41.825707" lon="2.360198">
        <ele>958.461</ele>
        <time>2021-06-12T12:10:19Z</time>
      </trkpt>
      <trkpt lat="41.825564" lon="2.359923">
        <ele>958.907</ele>
        <time>2021-06-12T12:10:25Z</time>
      </trkpt>
      <trkpt lat="41.825440" lon="2.360056">
        <ele>958.908</ele>
        <time>2021-06-12T12:10:32Z</time>
      </trkpt>
      <trkpt lat="41.825411" lon="2.359986">
        <ele>958.960</ele>
        <time>2021-06-12T12:10:36Z</time>
      </trkpt>
      <trkpt lat="41.825306" lon="2.359893">
        <ele>971.958</ele>
        <time>2021-06-12T12:14:20Z</time>
      </trkpt>
      <trkpt lat="41.825290" lon="2.359829">
        <ele>973.161</ele>
        <time>2021-06-12T12:14:28Z</time>
      </trkpt>
      <trkpt lat="41.825064" lon="2.359231">
        <ele>989.176</ele>
        <time>2021-06-12T12:17:05Z</time>
      </trkpt>
      <trkpt lat="41.825041" lon="2.359176">
        <ele>990.821</ele>
        <time>2021-06-12T12:17:18Z</time>
      </trkpt>
      <trkpt lat="41.825005" lon="2.359214">
        <ele>994.348</ele>
        <time>2021-06-12T12:17:46Z</time>
      </trkpt>
      <trkpt lat="41.824994" lon="2.359277">
        <ele>996.947</ele>
        <time>2021-06-12T12:18:16Z</time>
      </trkpt>
      <trkpt lat="41.824992" lon="2.359330">
        <ele>996.983</ele>
        <time>2021-06-12T12:18:27Z</time>
      </trkpt>
      <trkpt lat="41.824877" lon="2.359344">
        <ele>996.276</ele>
        <time>2021-06-12T12:18:43Z</time>
      </trkpt>
      <trkpt lat="41.824861" lon="2.359489">
        <ele>996.890</ele>
        <time>2021-06-12T12:22:34Z</time>
      </trkpt>
      <trkpt lat="41.824827" lon="2.359503">
        <ele>997.119</ele>
        <time>2021-06-12T12:22:49Z</time>
      </trkpt>
      <trkpt lat="41.824784" lon="2.359521">
        <ele>996.808</ele>
        <time>2021-06-12T12:23:05Z</time>
      </trkpt>
      <trkpt lat="41.824757" lon="2.359717">
        <ele>995.124</ele>
        <time>2021-06-12T12:23:36Z</time>
      </trkpt>
      <trkpt lat="41.824402" lon="2.360230">
        <ele>999.312</ele>
        <time>2021-06-12T12:27:24Z</time>
      </trkpt>
      <trkpt lat="41.824384" lon="2.360285">
        <ele>999.495</ele>
        <time>2021-06-12T12:27:28Z</time>
      </trkpt>
      <trkpt lat="41.824376" lon="2.360352">
        <ele>999.330</ele>
        <time>2021-06-12T12:27:32Z</time>
      </trkpt>
      <trkpt lat="41.824348" lon="2.360409">
        <ele>999.235</ele>
        <time>2021-06-12T12:27:38Z</time>
      </trkpt>
      <trkpt lat="41.824328" lon="2.360464">
        <ele>999.442</ele>
        <time>2021-06-12T12:27:44Z</time>
      </trkpt>
      <trkpt lat="41.824299" lon="2.360515">
        <ele>999.271</ele>
        <time>2021-06-12T12:27:50Z</time>
      </trkpt>
      <trkpt lat="41.824269" lon="2.360572">
        <ele>998.947</ele>
        <time>2021-06-12T12:27:57Z</time>
      </trkpt>
      <trkpt lat="41.824230" lon="2.360608">
        <ele>998.851</ele>
        <time>2021-06-12T12:28:03Z</time>
      </trkpt>
      <trkpt lat="41.824184" lon="2.360632">
        <ele>999.001</ele>
        <time>2021-06-12T12:28:09Z</time>
      </trkpt>
      <trkpt lat="41.824142" lon="2.360655">
        <ele>999.211</ele>
        <time>2021-06-12T12:28:14Z</time>
      </trkpt>
      <trkpt lat="41.824097" lon="2.360669">
        <ele>998.908</ele>
        <time>2021-06-12T12:28:18Z</time>
      </trkpt>
      <trkpt lat="41.824051" lon="2.360677">
        <ele>999.432</ele>
        <time>2021-06-12T12:28:26Z</time>
      </trkpt>
      <trkpt lat="41.824010" lon="2.360630">
        <ele>999.670</ele>
        <time>2021-06-12T12:28:33Z</time>
      </trkpt>
      <trkpt lat="41.823979" lon="2.360576">
        <ele>999.553</ele>
        <time>2021-06-12T12:28:37Z</time>
      </trkpt>
      <trkpt lat="41.823944" lon="2.360533">
        <ele>1000.218</ele>
        <time>2021-06-12T12:28:43Z</time>
      </trkpt>
      <trkpt lat="41.823898" lon="2.360559">
        <ele>999.743</ele>
        <time>2021-06-12T12:28:57Z</time>
      </trkpt>
      <trkpt lat="41.823850" lon="2.360554">
        <ele>1000.150</ele>
        <time>2021-06-12T12:29:02Z</time>
      </trkpt>
      <trkpt lat="41.823810" lon="2.360526">
        <ele>999.749</ele>
        <time>2021-06-12T12:29:14Z</time>
      </trkpt>
      <trkpt lat="41.823764" lon="2.360520">
        <ele>998.125</ele>
        <time>2021-06-12T12:29:41Z</time>
      </trkpt>
      <trkpt lat="41.823729" lon="2.360472">
        <ele>998.312</ele>
        <time>2021-06-12T12:29:47Z</time>
      </trkpt>
      <trkpt lat="41.823744" lon="2.360551">
        <ele>998.332</ele>
        <time>2021-06-12T12:30:16Z</time>
      </trkpt>
      <trkpt lat="41.823735" lon="2.360615">
        <ele>998.105</ele>
        <time>2021-06-12T12:31:28Z</time>
      </trkpt>
      <trkpt lat="41.823719" lon="2.360556">
        <ele>999.208</ele>
        <time>2021-06-12T12:32:18Z</time>
      </trkpt>
      <trkpt lat="41.823759" lon="2.360503">
        <ele>999.048</ele>
        <time>2021-06-12T12:32:29Z</time>
      </trkpt>
      <trkpt lat="41.823662" lon="2.360529">
        <ele>999.086</ele>
        <time>2021-06-12T12:32:40Z</time>
      </trkpt>
      <trkpt lat="41.823626" lon="2.360525">
        <ele>999.359</ele>
        <time>2021-06-12T12:32:46Z</time>
      </trkpt>
      <trkpt lat="41.823609" lon="2.360501">
        <ele>999.144</ele>
        <time>2021-06-12T12:32:52Z</time>
      </trkpt>
      <trkpt lat="41.823622" lon="2.360515">
        <ele>998.969</ele>
        <time>2021-06-12T12:33:05Z</time>
      </trkpt>
      <trkpt lat="41.823613" lon="2.360466">
        <ele>1000.186</ele>
        <time>2021-06-12T12:33:41Z</time>
      </trkpt>
      <trkpt lat="41.823574" lon="2.360443">
        <ele>1000.885</ele>
        <time>2021-06-12T12:33:46Z</time>
      </trkpt>
      <trkpt lat="41.823539" lon="2.360389">
        <ele>1001.581</ele>
        <time>2021-06-12T12:33:52Z</time>
      </trkpt>
      <trkpt lat="41.823487" lon="2.360338">
        <ele>1002.643</ele>
        <time>2021-06-12T12:34:01Z</time>
      </trkpt>
      <trkpt lat="41.823509" lon="2.360268">
        <ele>1003.164</ele>
        <time>2021-06-12T12:34:07Z</time>
      </trkpt>
      <trkpt lat="41.823500" lon="2.360254">
        <ele>1003.710</ele>
        <time>2021-06-12T12:34:12Z</time>
      </trkpt>
      <trkpt lat="41.823462" lon="2.360240">
        <ele>1004.608</ele>
        <time>2021-06-12T12:34:18Z</time>
      </trkpt>
      <trkpt lat="41.823437" lon="2.360224">
        <ele>1004.281</ele>
        <time>2021-06-12T12:34:24Z</time>
      </trkpt>
      <trkpt lat="41.823425" lon="2.360198">
        <ele>1005.849</ele>
        <time>2021-06-12T12:34:29Z</time>
      </trkpt>
      <trkpt lat="41.823376" lon="2.360200">
        <ele>1005.412</ele>
        <time>2021-06-12T12:34:38Z</time>
      </trkpt>
      <trkpt lat="41.823338" lon="2.360162">
        <ele>1008.627</ele>
        <time>2021-06-12T12:34:47Z</time>
      </trkpt>
      <trkpt lat="41.823295" lon="2.360181">
        <ele>1005.872</ele>
        <time>2021-06-12T12:35:16Z</time>
      </trkpt>
      <trkpt lat="41.823262" lon="2.360140">
        <ele>1005.039</ele>
        <time>2021-06-12T12:35:30Z</time>
      </trkpt>
      <trkpt lat="41.823219" lon="2.360158">
        <ele>1005.428</ele>
        <time>2021-06-12T12:36:04Z</time>
      </trkpt>
      <trkpt lat="41.823193" lon="2.360211">
        <ele>1005.474</ele>
        <time>2021-06-12T12:36:18Z</time>
      </trkpt>
      <trkpt lat="41.823149" lon="2.360239">
        <ele>1005.697</ele>
        <time>2021-06-12T12:36:35Z</time>
      </trkpt>
      <trkpt lat="41.823108" lon="2.360264">
        <ele>1005.523</ele>
        <time>2021-06-12T12:36:41Z</time>
      </trkpt>
      <trkpt lat="41.823117" lon="2.360333">
        <ele>1005.525</ele>
        <time>2021-06-12T12:36:50Z</time>
      </trkpt>
      <trkpt lat="41.823069" lon="2.360337">
        <ele>1005.708</ele>
        <time>2021-06-12T12:37:07Z</time>
      </trkpt>
      <trkpt lat="41.823052" lon="2.360277">
        <ele>1005.356</ele>
        <time>2021-06-12T12:37:29Z</time>
      </trkpt>
      <trkpt lat="41.823011" lon="2.360246">
        <ele>1005.594</ele>
        <time>2021-06-12T12:38:19Z</time>
      </trkpt>
      <trkpt lat="41.823042" lon="2.360291">
        <ele>1005.577</ele>
        <time>2021-06-12T12:38:28Z</time>
      </trkpt>
      <trkpt lat="41.823005" lon="2.360328">
        <ele>1005.612</ele>
        <time>2021-06-12T12:38:40Z</time>
      </trkpt>
      <trkpt lat="41.822964" lon="2.360356">
        <ele>1005.417</ele>
        <time>2021-06-12T12:39:01Z</time>
      </trkpt>
      <trkpt lat="41.822985" lon="2.360300">
        <ele>1004.914</ele>
        <time>2021-06-12T12:39:19Z</time>
      </trkpt>
      <trkpt lat="41.823021" lon="2.360253">
        <ele>1004.913</ele>
        <time>2021-06-12T12:39:22Z</time>
      </trkpt>
      <trkpt lat="41.823053" lon="2.360205">
        <ele>1005.279</ele>
        <time>2021-06-12T12:39:25Z</time>
      </trkpt>
      <trkpt lat="41.823105" lon="2.360189">
        <ele>1006.696</ele>
        <time>2021-06-12T12:39:28Z</time>
      </trkpt>
      <trkpt lat="41.823150" lon="2.360160">
        <ele>1006.931</ele>
        <time>2021-06-12T12:39:31Z</time>
      </trkpt>
      <trkpt lat="41.823197" lon="2.360145">
        <ele>1007.324</ele>
        <time>2021-06-12T12:39:36Z</time>
      </trkpt>
      <trkpt lat="41.823162" lon="2.360104">
        <ele>1010.208</ele>
        <time>2021-06-12T12:39:52Z</time>
      </trkpt>
      <trkpt lat="41.823110" lon="2.360142">
        <ele>1012.186</ele>
        <time>2021-06-12T12:40:11Z</time>
      </trkpt>
      <trkpt lat="41.823017" lon="2.360130">
        <ele>1013.864</ele>
        <time>2021-06-12T12:40:26Z</time>
      </trkpt>
      <trkpt lat="41.822918" lon="2.360102">
        <ele>1017.167</ele>
        <time>2021-06-12T12:40:40Z</time>
      </trkpt>
      <trkpt lat="41.822880" lon="2.360093">
        <ele>1016.692</ele>
        <time>2021-06-12T12:40:44Z</time>
      </trkpt>
      <trkpt lat="41.822864" lon="2.360083">
        <ele>1017.087</ele>
        <time>2021-06-12T12:40:47Z</time>
      </trkpt>
      <trkpt lat="41.822852" lon="2.359990">
        <ele>1017.214</ele>
        <time>2021-06-12T12:40:49Z</time>
      </trkpt>
      <trkpt lat="41.822801" lon="2.359985">
        <ele>1017.413</ele>
        <time>2021-06-12T12:40:52Z</time>
      </trkpt>
      <trkpt lat="41.822747" lon="2.359934">
        <ele>1018.569</ele>
        <time>2021-06-12T12:41:02Z</time>
      </trkpt>
      <trkpt lat="41.822724" lon="2.359920">
        <ele>1022.849</ele>
        <time>2021-06-12T12:41:34Z</time>
      </trkpt>
      <trkpt lat="41.822699" lon="2.359897">
        <ele>1022.902</ele>
        <time>2021-06-12T12:41:47Z</time>
      </trkpt>
      <trkpt lat="41.822677" lon="2.359883">
        <ele>1022.922</ele>
        <time>2021-06-12T12:41:51Z</time>
      </trkpt>
      <trkpt lat="41.822670" lon="2.359855">
        <ele>1022.908</ele>
        <time>2021-06-12T12:41:53Z</time>
      </trkpt>
      <trkpt lat="41.822635" lon="2.359796">
        <ele>1022.891</ele>
        <time>2021-06-12T12:41:55Z</time>
      </trkpt>
      <trkpt lat="41.822616" lon="2.359625">
        <ele>1046.869</ele>
        <time>2021-06-12T12:46:23Z</time>
      </trkpt>
      <trkpt lat="41.822646" lon="2.359607">
        <ele>1049.062</ele>
        <time>2021-06-12T12:46:37Z</time>
      </trkpt>
      <trkpt lat="41.822680" lon="2.359565">
        <ele>1049.847</ele>
        <time>2021-06-12T12:46:43Z</time>
      </trkpt>
      <trkpt lat="41.822705" lon="2.359520">
        <ele>1052.172</ele>
        <time>2021-06-12T12:47:17Z</time>
      </trkpt>
      <trkpt lat="41.822722" lon="2.359481">
        <ele>1052.199</ele>
        <time>2021-06-12T12:47:55Z</time>
      </trkpt>
      <trkpt lat="41.822768" lon="2.359480">
        <ele>1052.148</ele>
        <time>2021-06-12T12:48:09Z</time>
      </trkpt>
      <trkpt lat="41.822811" lon="2.359404">
        <ele>1053.014</ele>
        <time>2021-06-12T12:49:04Z</time>
      </trkpt>
      <trkpt lat="41.822853" lon="2.359373">
        <ele>1053.225</ele>
        <time>2021-06-12T12:49:15Z</time>
      </trkpt>
      <trkpt lat="41.823092" lon="2.359124">
        <ele>1053.526</ele>
        <time>2021-06-12T12:49:21Z</time>
      </trkpt>
      <trkpt lat="41.823128" lon="2.359052">
        <ele>1053.808</ele>
        <time>2021-06-12T12:49:38Z</time>
      </trkpt>
      <trkpt lat="41.823133" lon="2.358912">
        <ele>1057.908</ele>
        <time>2021-06-12T12:50:23Z</time>
      </trkpt>
      <trkpt lat="41.823110" lon="2.358765">
        <ele>1069.829</ele>
        <time>2021-06-12T12:55:48Z</time>
      </trkpt>
      <trkpt lat="41.823084" lon="2.358664">
        <ele>1070.677</ele>
        <time>2021-06-12T12:55:52Z</time>
      </trkpt>
      <trkpt lat="41.823072" lon="2.358555">
        <ele>1070.920</ele>
        <time>2021-06-12T12:55:57Z</time>
      </trkpt>
      <trkpt lat="41.823068" lon="2.358475">
        <ele>1071.575</ele>
        <time>2021-06-12T12:56:02Z</time>
      </trkpt>
      <trkpt lat="41.823067" lon="2.358363">
        <ele>1071.890</ele>
        <time>2021-06-12T12:56:10Z</time>
      </trkpt>
      <trkpt lat="41.823061" lon="2.358130">
        <ele>1071.937</ele>
        <time>2021-06-12T12:56:16Z</time>
      </trkpt>
      <trkpt lat="41.822980" lon="2.357962">
        <ele>1072.616</ele>
        <time>2021-06-12T12:56:25Z</time>
      </trkpt>
      <trkpt lat="41.822926" lon="2.357840">
        <ele>1072.852</ele>
        <time>2021-06-12T12:56:29Z</time>
      </trkpt>
      <trkpt lat="41.822940" lon="2.357787">
        <ele>1072.634</ele>
        <time>2021-06-12T12:56:34Z</time>
      </trkpt>
      <trkpt lat="41.822895" lon="2.357705">
        <ele>1072.555</ele>
        <time>2021-06-12T12:56:38Z</time>
      </trkpt>
      <trkpt lat="41.822769" lon="2.357116">
        <ele>1088.810</ele>
        <time>2021-06-12T13:01:51Z</time>
      </trkpt>
      <trkpt lat="41.822774" lon="2.356871">
        <ele>1090.108</ele>
        <time>2021-06-12T13:01:58Z</time>
      </trkpt>
      <trkpt lat="41.822854" lon="2.356749">
        <ele>1091.080</ele>
        <time>2021-06-12T13:02:04Z</time>
      </trkpt>
      <trkpt lat="41.822976" lon="2.356545">
        <ele>1091.728</ele>
        <time>2021-06-12T13:02:11Z</time>
      </trkpt>
      <trkpt lat="41.823088" lon="2.356446">
        <ele>1092.271</ele>
        <time>2021-06-12T13:02:16Z</time>
      </trkpt>
      <trkpt lat="41.823182" lon="2.356317">
        <ele>1092.746</ele>
        <time>2021-06-12T13:02:20Z</time>
      </trkpt>
      <trkpt lat="41.823679" lon="2.355357">
        <ele>1111.561</ele>
        <time>2021-06-12T13:05:42Z</time>
      </trkpt>
      <trkpt lat="41.823722" lon="2.355334">
        <ele>1112.718</ele>
        <time>2021-06-12T13:05:51Z</time>
      </trkpt>
      <trkpt lat="41.823727" lon="2.355267">
        <ele>1112.767</ele>
        <time>2021-06-12T13:05:56Z</time>
      </trkpt>
      <trkpt lat="41.823727" lon="2.355206">
        <ele>1112.993</ele>
        <time>2021-06-12T13:05:59Z</time>
      </trkpt>
      <trkpt lat="41.823734" lon="2.355142">
        <ele>1113.473</ele>
        <time>2021-06-12T13:06:04Z</time>
      </trkpt>
      <trkpt lat="41.823748" lon="2.355079">
        <ele>1114.385</ele>
        <time>2021-06-12T13:06:09Z</time>
      </trkpt>
      <trkpt lat="41.823768" lon="2.355022">
        <ele>1116.113</ele>
        <time>2021-06-12T13:06:25Z</time>
      </trkpt>
      <trkpt lat="41.823808" lon="2.354992">
        <ele>1117.208</ele>
        <time>2021-06-12T13:06:36Z</time>
      </trkpt>
      <trkpt lat="41.823854" lon="2.354975">
        <ele>1118.094</ele>
        <time>2021-06-12T13:06:42Z</time>
      </trkpt>
      <trkpt lat="41.823870" lon="2.354913">
        <ele>1119.332</ele>
        <time>2021-06-12T13:06:55Z</time>
      </trkpt>
      <trkpt lat="41.823892" lon="2.354851">
        <ele>1119.435</ele>
        <time>2021-06-12T13:06:59Z</time>
      </trkpt>
      <trkpt lat="41.823915" lon="2.354795">
        <ele>1120.220</ele>
        <time>2021-06-12T13:07:05Z</time>
      </trkpt>
      <trkpt lat="41.823867" lon="2.354792">
        <ele>1122.745</ele>
        <time>2021-06-12T13:07:41Z</time>
      </trkpt>
      <trkpt lat="41.823822" lon="2.354774">
        <ele>1124.542</ele>
        <time>2021-06-12T13:08:00Z</time>
      </trkpt>
      <trkpt lat="41.823777" lon="2.354754">
        <ele>1126.031</ele>
        <time>2021-06-12T13:08:13Z</time>
      </trkpt>
      <trkpt lat="41.823760" lon="2.354810">
        <ele>1128.667</ele>
        <time>2021-06-12T13:08:37Z</time>
      </trkpt>
      <trkpt lat="41.823714" lon="2.354812">
        <ele>1130.315</ele>
        <time>2021-06-12T13:09:02Z</time>
      </trkpt>
      <trkpt lat="41.823678" lon="2.354849">
        <ele>1131.865</ele>
        <time>2021-06-12T13:09:12Z</time>
      </trkpt>
      <trkpt lat="41.823630" lon="2.354861">
        <ele>1133.511</ele>
        <time>2021-06-12T13:09:24Z</time>
      </trkpt>
      <trkpt lat="41.823582" lon="2.354861">
        <ele>1134.108</ele>
        <time>2021-06-12T13:09:33Z</time>
      </trkpt>
      <trkpt lat="41.823533" lon="2.354859">
        <ele>1134.918</ele>
        <time>2021-06-12T13:09:39Z</time>
      </trkpt>
      <trkpt lat="41.823488" lon="2.354848">
        <ele>1137.866</ele>
        <time>2021-06-12T13:10:02Z</time>
      </trkpt>
      <trkpt lat="41.823444" lon="2.354865">
        <ele>1138.649</ele>
        <time>2021-06-12T13:10:12Z</time>
      </trkpt>
      <trkpt lat="41.823401" lon="2.354892">
        <ele>1139.374</ele>
        <time>2021-06-12T13:10:17Z</time>
      </trkpt>
      <trkpt lat="41.823355" lon="2.354920">
        <ele>1139.769</ele>
        <time>2021-06-12T13:10:22Z</time>
      </trkpt>
      <trkpt lat="41.823313" lon="2.354898">
        <ele>1141.946</ele>
        <time>2021-06-12T13:10:54Z</time>
      </trkpt>
      <trkpt lat="41.823268" lon="2.354903">
        <ele>1143.985</ele>
        <time>2021-06-12T13:11:25Z</time>
      </trkpt>
      <trkpt lat="41.823259" lon="2.354844">
        <ele>1145.761</ele>
        <time>2021-06-12T13:11:40Z</time>
      </trkpt>
      <trkpt lat="41.823279" lon="2.354786">
        <ele>1146.737</ele>
        <time>2021-06-12T13:11:52Z</time>
      </trkpt>
      <trkpt lat="41.823324" lon="2.354775">
        <ele>1146.549</ele>
        <time>2021-06-12T13:12:06Z</time>
      </trkpt>
      <trkpt lat="41.823366" lon="2.354741">
        <ele>1147.313</ele>
        <time>2021-06-12T13:12:12Z</time>
      </trkpt>
      <trkpt lat="41.823393" lon="2.354692">
        <ele>1148.508</ele>
        <time>2021-06-12T13:12:19Z</time>
      </trkpt>
      <trkpt lat="41.823404" lon="2.354632">
        <ele>1147.850</ele>
        <time>2021-06-12T13:12:53Z</time>
      </trkpt>
      <trkpt lat="41.823377" lon="2.354688">
        <ele>1148.588</ele>
        <time>2021-06-12T13:14:03Z</time>
      </trkpt>
      <trkpt lat="41.823338" lon="2.354654">
        <ele>1149.821</ele>
        <time>2021-06-12T13:14:19Z</time>
      </trkpt>
      <trkpt lat="41.823313" lon="2.354602">
        <ele>1150.656</ele>
        <time>2021-06-12T13:14:26Z</time>
      </trkpt>
      <trkpt lat="41.823270" lon="2.354629">
        <ele>1151.111</ele>
        <time>2021-06-12T13:14:39Z</time>
      </trkpt>
      <trkpt lat="41.823249" lon="2.354572">
        <ele>1154.568</ele>
        <time>2021-06-12T13:15:14Z</time>
      </trkpt>
      <trkpt lat="41.823212" lon="2.354530">
        <ele>1155.447</ele>
        <time>2021-06-12T13:15:21Z</time>
      </trkpt>
      <trkpt lat="41.823193" lon="2.354474">
        <ele>1155.933</ele>
        <time>2021-06-12T13:15:24Z</time>
      </trkpt>
      <trkpt lat="41.823169" lon="2.354414">
        <ele>1155.589</ele>
        <time>2021-06-12T13:15:28Z</time>
      </trkpt>
      <trkpt lat="41.823142" lon="2.354361">
        <ele>1155.006</ele>
        <time>2021-06-12T13:15:32Z</time>
      </trkpt>
      <trkpt lat="41.823103" lon="2.354318">
        <ele>1154.526</ele>
        <time>2021-06-12T13:15:36Z</time>
      </trkpt>
      <trkpt lat="41.823057" lon="2.354289">
        <ele>1155.008</ele>
        <time>2021-06-12T13:15:41Z</time>
      </trkpt>
      <trkpt lat="41.823021" lon="2.354325">
        <ele>1155.745</ele>
        <time>2021-06-12T13:15:51Z</time>
      </trkpt>
      <trkpt lat="41.823007" lon="2.354263">
        <ele>1156.383</ele>
        <time>2021-06-12T13:15:58Z</time>
      </trkpt>
      <trkpt lat="41.822993" lon="2.354198">
        <ele>1156.556</ele>
        <time>2021-06-12T13:16:03Z</time>
      </trkpt>
      <trkpt lat="41.822946" lon="2.354187">
        <ele>1156.631</ele>
        <time>2021-06-12T13:16:08Z</time>
      </trkpt>
      <trkpt lat="41.822901" lon="2.354206">
        <ele>1157.176</ele>
        <time>2021-06-12T13:16:11Z</time>
      </trkpt>
      <trkpt lat="41.822087" lon="2.353926">
        <ele>1214.923</ele>
        <time>2021-06-14T17:22:43Z</time>
      </trkpt>
      <trkpt lat="41.821988" lon="2.353804">
        <ele>1217.392</ele>
        <time>2021-06-14T17:23:03Z</time>
      </trkpt>
      <trkpt lat="41.821939" lon="2.353704">
        <ele>1217.588</ele>
        <time>2021-06-14T17:23:23Z</time>
      </trkpt>
      <trkpt lat="41.821844" lon="2.353430">
        <ele>1215.112</ele>
        <time>2021-06-14T17:23:43Z</time>
      </trkpt>
      <trkpt lat="41.821719" lon="2.353267">
        <ele>1216.732</ele>
        <time>2021-06-14T17:24:03Z</time>
      </trkpt>
      <trkpt lat="41.821512" lon="2.353069">
        <ele>1220.805</ele>
        <time>2021-06-14T17:24:23Z</time>
      </trkpt>
      <trkpt lat="41.821431" lon="2.352999">
        <ele>1222.408</ele>
        <time>2021-06-14T17:24:43Z</time>
      </trkpt>
      <trkpt lat="41.821429" lon="2.352906">
        <ele>1192.548</ele>
        <time>2021-06-12T13:31:04Z</time>
      </trkpt>
      <trkpt lat="41.821444" lon="2.352844">
        <ele>1192.156</ele>
        <time>2021-06-12T13:31:08Z</time>
      </trkpt>
      <trkpt lat="41.821484" lon="2.352812">
        <ele>1193.869</ele>
        <time>2021-06-12T13:31:16Z</time>
      </trkpt>
      <trkpt lat="41.821457" lon="2.352763">
        <ele>1194.154</ele>
        <time>2021-06-12T13:31:28Z</time>
      </trkpt>
      <trkpt lat="41.821434" lon="2.352709">
        <ele>1194.059</ele>
        <time>2021-06-12T13:31:32Z</time>
      </trkpt>
      <trkpt lat="41.821411" lon="2.352653">
        <ele>1194.486</ele>
        <time>2021-06-12T13:31:36Z</time>
      </trkpt>
      <trkpt lat="41.821401" lon="2.352584">
        <ele>1194.635</ele>
        <time>2021-06-12T13:31:41Z</time>
      </trkpt>
      <trkpt lat="41.821381" lon="2.352526">
        <ele>1195.131</ele>
        <time>2021-06-12T13:31:45Z</time>
      </trkpt>
      <trkpt lat="41.821344" lon="2.352484">
        <ele>1195.159</ele>
        <time>2021-06-12T13:31:50Z</time>
      </trkpt>
      <trkpt lat="41.821318" lon="2.352429">
        <ele>1195.403</ele>
        <time>2021-06-12T13:31:56Z</time>
      </trkpt>
      <trkpt lat="41.821341" lon="2.352376">
        <ele>1195.523</ele>
        <time>2021-06-12T13:32:32Z</time>
      </trkpt>
      <trkpt lat="41.821312" lon="2.352326">
        <ele>1195.708</ele>
        <time>2021-06-12T13:33:00Z</time>
      </trkpt>
      <trkpt lat="41.821311" lon="2.352262">
        <ele>1196.182</ele>
        <time>2021-06-12T13:33:03Z</time>
      </trkpt>
      <trkpt lat="41.821339" lon="2.352215">
        <ele>1197.250</ele>
        <time>2021-06-12T13:33:40Z</time>
      </trkpt>
      <trkpt lat="41.821329" lon="2.352282">
        <ele>1196.093</ele>
        <time>2021-06-12T13:34:38Z</time>
      </trkpt>
      <trkpt lat="41.821315" lon="2.352350">
        <ele>1196.038</ele>
        <time>2021-06-12T13:34:41Z</time>
      </trkpt>
      <trkpt lat="41.821310" lon="2.352418">
        <ele>1196.113</ele>
        <time>2021-06-12T13:34:45Z</time>
      </trkpt>
      <trkpt lat="41.821278" lon="2.352476">
        <ele>1196.220</ele>
        <time>2021-06-12T13:34:50Z</time>
      </trkpt>
      <trkpt lat="41.821249" lon="2.352530">
        <ele>1196.579</ele>
        <time>2021-06-12T13:34:55Z</time>
      </trkpt>
      <trkpt lat="41.821200" lon="2.352539">
        <ele>1197.045</ele>
        <time>2021-06-12T13:35:00Z</time>
      </trkpt>
      <trkpt lat="41.821153" lon="2.352565">
        <ele>1197.335</ele>
        <time>2021-06-12T13:35:04Z</time>
      </trkpt>
      <trkpt lat="41.821111" lon="2.352598">
        <ele>1197.786</ele>
        <time>2021-06-12T13:35:10Z</time>
      </trkpt>
      <trkpt lat="41.821070" lon="2.352628">
        <ele>1197.614</ele>
        <time>2021-06-12T13:35:15Z</time>
      </trkpt>
      <trkpt lat="41.821047" lon="2.352681">
        <ele>1198.208</ele>
        <time>2021-06-12T13:35:35Z</time>
      </trkpt>
      <trkpt lat="41.821073" lon="2.352733">
        <ele>1198.580</ele>
        <time>2021-06-12T13:35:56Z</time>
      </trkpt>
      <trkpt lat="41.821096" lon="2.352787">
        <ele>1198.558</ele>
        <time>2021-06-12T13:36:43Z</time>
      </trkpt>
      <trkpt lat="41.821046" lon="2.352789">
        <ele>1198.811</ele>
        <time>2021-06-12T13:37:25Z</time>
      </trkpt>
      <trkpt lat="41.820998" lon="2.352806">
        <ele>1198.916</ele>
        <time>2021-06-12T13:37:29Z</time>
      </trkpt>
      <trkpt lat="41.820955" lon="2.352840">
        <ele>1202.951</ele>
        <time>2021-06-12T13:38:37Z</time>
      </trkpt>
      <trkpt lat="41.820909" lon="2.352829">
        <ele>1203.548</ele>
        <time>2021-06-12T13:38:41Z</time>
      </trkpt>
      <trkpt lat="41.820865" lon="2.352844">
        <ele>1204.697</ele>
        <time>2021-06-12T13:38:50Z</time>
      </trkpt>
      <trkpt lat="41.820819" lon="2.352844">
        <ele>1204.333</ele>
        <time>2021-06-12T13:39:04Z</time>
      </trkpt>
      <trkpt lat="41.820792" lon="2.352893">
        <ele>1207.058</ele>
        <time>2021-06-12T13:39:19Z</time>
      </trkpt>
      <trkpt lat="41.820772" lon="2.352948">
        <ele>1206.752</ele>
        <time>2021-06-12T13:39:31Z</time>
      </trkpt>
      <trkpt lat="41.820733" lon="2.352980">
        <ele>1207.017</ele>
        <time>2021-06-12T13:39:45Z</time>
      </trkpt>
      <trkpt lat="41.820691" lon="2.353005">
        <ele>1209.608</ele>
        <time>2021-06-12T13:40:36Z</time>
      </trkpt>
      <trkpt lat="41.820734" lon="2.353028">
        <ele>1211.072</ele>
        <time>2021-06-12T13:41:00Z</time>
      </trkpt>
      <trkpt lat="41.820779" lon="2.353026">
        <ele>1213.260</ele>
        <time>2021-06-12T13:41:19Z</time>
      </trkpt>
      <trkpt lat="41.820822" lon="2.353055">
        <ele>1214.753</ele>
        <time>2021-06-12T13:41:29Z</time>
      </trkpt>
      <trkpt lat="41.820810" lon="2.353117">
        <ele>1217.568</ele>
        <time>2021-06-12T13:42:09Z</time>
      </trkpt>
      <trkpt lat="41.820824" lon="2.353175">
        <ele>1219.443</ele>
        <time>2021-06-12T13:42:50Z</time>
      </trkpt>
      <trkpt lat="41.820852" lon="2.353223">
        <ele>1221.430</ele>
        <time>2021-06-12T13:43:14Z</time>
      </trkpt>
      <trkpt lat="41.820837" lon="2.353280">
        <ele>1224.249</ele>
        <time>2021-06-12T13:43:46Z</time>
      </trkpt>
      <trkpt lat="41.820816" lon="2.353334">
        <ele>1227.735</ele>
        <time>2021-06-12T13:44:46Z</time>
      </trkpt>
      <trkpt lat="41.820842" lon="2.353384">
        <ele>1231.319</ele>
        <time>2021-06-12T13:45:14Z</time>
      </trkpt>
      <trkpt lat="41.820885" lon="2.353400">
        <ele>1234.009</ele>
        <time>2021-06-12T13:45:46Z</time>
      </trkpt>
      <trkpt lat="41.820924" lon="2.353430">
        <ele>1235.119</ele>
        <time>2021-06-12T13:46:17Z</time>
      </trkpt>
      <trkpt lat="41.820966" lon="2.353462">
        <ele>1236.808</ele>
        <time>2021-06-12T13:46:26Z</time>
      </trkpt>
      <trkpt lat="41.820993" lon="2.353514">
        <ele>1237.348</ele>
        <time>2021-06-12T13:46:42Z</time>
      </trkpt>
      <trkpt lat="41.821036" lon="2.353496">
        <ele>1240.836</ele>
        <time>2021-06-12T13:47:19Z</time>
      </trkpt>
      <trkpt lat="41.821062" lon="2.353548">
        <ele>1243.229</ele>
        <time>2021-06-12T13:48:50Z</time>
      </trkpt>
      <trkpt lat="41.821066" lon="2.353612">
        <ele>1245.554</ele>
        <time>2021-06-12T13:49:05Z</time>
      </trkpt>
      <trkpt lat="41.821043" lon="2.353664">
        <ele>1246.719</ele>
        <time>2021-06-12T13:49:14Z</time>
      </trkpt>
      <trkpt lat="41.821056" lon="2.353722">
        <ele>1248.536</ele>
        <time>2021-06-12T13:49:44Z</time>
      </trkpt>
      <trkpt lat="41.821077" lon="2.353777">
        <ele>1250.265</ele>
        <time>2021-06-12T13:50:10Z</time>
      </trkpt>
      <trkpt lat="41.821087" lon="2.353842">
        <ele>1251.961</ele>
        <time>2021-06-12T13:50:22Z</time>
      </trkpt>
      <trkpt lat="41.821112" lon="2.353893">
        <ele>1253.375</ele>
        <time>2021-06-12T13:50:32Z</time>
      </trkpt>
      <trkpt lat="41.821091" lon="2.353948">
        <ele>1255.128</ele>
        <time>2021-06-12T13:51:39Z</time>
      </trkpt>
      <trkpt lat="41.821061" lon="2.353993">
        <ele>1255.720</ele>
        <time>2021-06-12T13:52:03Z</time>
      </trkpt>
      <trkpt lat="41.821019" lon="2.354022">
        <ele>1256.708</ele>
        <time>2021-06-12T13:52:13Z</time>
      </trkpt>
      <trkpt lat="41.820974" lon="2.354009">
        <ele>1257.424</ele>
        <time>2021-06-12T13:52:19Z</time>
      </trkpt>
      <trkpt lat="41.820947" lon="2.354062">
        <ele>1259.892</ele>
        <time>2021-06-12T13:52:39Z</time>
      </trkpt>
      <trkpt lat="41.820957" lon="2.354121">
        <ele>1262.385</ele>
        <time>2021-06-12T13:53:06Z</time>
      </trkpt>
      <trkpt lat="41.820989" lon="2.354167">
        <ele>1264.240</ele>
        <time>2021-06-12T13:53:17Z</time>
      </trkpt>
      <trkpt lat="41.821000" lon="2.354228">
        <ele>1264.785</ele>
        <time>2021-06-12T13:53:50Z</time>
      </trkpt>
      <trkpt lat="41.820986" lon="2.354286">
        <ele>1267.122</ele>
        <time>2021-06-12T13:54:18Z</time>
      </trkpt>
      <trkpt lat="41.820950" lon="2.354324">
        <ele>1268.341</ele>
        <time>2021-06-12T13:54:32Z</time>
      </trkpt>
      <trkpt lat="41.820913" lon="2.354362">
        <ele>1270.347</ele>
        <time>2021-06-12T13:54:52Z</time>
      </trkpt>
      <trkpt lat="41.820879" lon="2.354405">
        <ele>1270.735</ele>
        <time>2021-06-12T13:54:58Z</time>
      </trkpt>
      <trkpt lat="41.820893" lon="2.354463">
        <ele>1273.086</ele>
        <time>2021-06-12T13:56:09Z</time>
      </trkpt>
      <trkpt lat="41.820863" lon="2.354510">
        <ele>1273.714</ele>
        <time>2021-06-12T13:56:21Z</time>
      </trkpt>
      <trkpt lat="41.820865" lon="2.354571">
        <ele>1277.408</ele>
        <time>2021-06-12T13:56:52Z</time>
      </trkpt>
      <trkpt lat="41.820905" lon="2.354603">
        <ele>1279.350</ele>
        <time>2021-06-12T13:57:06Z</time>
      </trkpt>
      <trkpt lat="41.820947" lon="2.354630">
        <ele>1281.398</ele>
        <time>2021-06-12T13:57:26Z</time>
      </trkpt>
      <trkpt lat="41.820955" lon="2.354690">
        <ele>1282.431</ele>
        <time>2021-06-12T13:57:47Z</time>
      </trkpt>
      <trkpt lat="41.820945" lon="2.354749">
        <ele>1284.146</ele>
        <time>2021-06-12T13:58:07Z</time>
      </trkpt>
      <trkpt lat="41.820979" lon="2.354790">
        <ele>1283.371</ele>
        <time>2021-06-12T13:58:37Z</time>
      </trkpt>
      <trkpt lat="41.821021" lon="2.354826">
        <ele>1282.868</ele>
        <time>2021-06-12T13:58:44Z</time>
      </trkpt>
      <trkpt lat="41.821039" lon="2.354881">
        <ele>1282.247</ele>
        <time>2021-06-12T13:58:56Z</time>
      </trkpt>
      <trkpt lat="41.821060" lon="2.354934">
        <ele>1280.663</ele>
        <time>2021-06-12T13:59:16Z</time>
      </trkpt>
      <trkpt lat="41.821088" lon="2.354986">
        <ele>1277.966</ele>
        <time>2021-06-12T13:59:38Z</time>
      </trkpt>
      <trkpt lat="41.821133" lon="2.355000">
        <ele>1276.729</ele>
        <time>2021-06-12T13:59:48Z</time>
      </trkpt>
      <trkpt lat="41.821159" lon="2.354949">
        <ele>1275.321</ele>
        <time>2021-06-12T13:59:59Z</time>
      </trkpt>
      <trkpt lat="41.821204" lon="2.354933">
        <ele>1273.408</ele>
        <time>2021-06-12T14:00:13Z</time>
      </trkpt>
      <trkpt lat="41.821237" lon="2.354886">
        <ele>1273.343</ele>
        <time>2021-06-12T14:00:39Z</time>
      </trkpt>
      <trkpt lat="41.821231" lon="2.354950">
        <ele>1274.251</ele>
        <time>2021-06-12T14:01:32Z</time>
      </trkpt>
      <trkpt lat="41.821242" lon="2.354890">
        <ele>1273.664</ele>
        <time>2021-06-12T14:02:22Z</time>
      </trkpt>
      <trkpt lat="41.821190" lon="2.354899">
        <ele>1273.179</ele>
        <time>2021-06-12T14:02:40Z</time>
      </trkpt>
      <trkpt lat="41.821145" lon="2.354917">
        <ele>1274.484</ele>
        <time>2021-06-12T14:03:26Z</time>
      </trkpt>
      <trkpt lat="41.821101" lon="2.354938">
        <ele>1275.741</ele>
        <time>2021-06-12T14:03:35Z</time>
      </trkpt>
      <trkpt lat="41.821058" lon="2.354966">
        <ele>1276.460</ele>
        <time>2021-06-12T14:03:39Z</time>
      </trkpt>
      <trkpt lat="41.821010" lon="2.354981">
        <ele>1277.046</ele>
        <time>2021-06-12T14:03:43Z</time>
      </trkpt>
      <trkpt lat="41.820968" lon="2.355004">
        <ele>1279.061</ele>
        <time>2021-06-12T14:04:21Z</time>
      </trkpt>
      <trkpt lat="41.820982" lon="2.354946">
        <ele>1282.221</ele>
        <time>2021-06-12T14:05:15Z</time>
      </trkpt>
      <trkpt lat="41.820985" lon="2.354883">
        <ele>1283.213</ele>
        <time>2021-06-12T14:05:45Z</time>
      </trkpt>
      <trkpt lat="41.820973" lon="2.354824">
        <ele>1283.808</ele>
        <time>2021-06-12T14:06:19Z</time>
      </trkpt>
      <trkpt lat="41.820940" lon="2.354783">
        <ele>1283.913</ele>
        <time>2021-06-12T14:06:37Z</time>
      </trkpt>
      <trkpt lat="41.820939" lon="2.354722">
        <ele>1284.021</ele>
        <time>2021-06-12T14:06:47Z</time>
      </trkpt>
      <trkpt lat="41.820894" lon="2.354735">
        <ele>1285.454</ele>
        <time>2021-06-12T14:06:57Z</time>
      </trkpt>
      <trkpt lat="41.820856" lon="2.354769">
        <ele>1286.319</ele>
        <time>2021-06-12T14:07:09Z</time>
      </trkpt>
      <trkpt lat="41.820810" lon="2.354791">
        <ele>1285.954</ele>
        <time>2021-06-12T14:07:13Z</time>
      </trkpt>
      <trkpt lat="41.820778" lon="2.354841">
        <ele>1287.311</ele>
        <time>2021-06-12T14:07:17Z</time>
      </trkpt>
      <trkpt lat="41.820751" lon="2.354899">
        <ele>1287.880</ele>
        <time>2021-06-12T14:07:22Z</time>
      </trkpt>
      <trkpt lat="41.820763" lon="2.354962">
        <ele>1288.686</ele>
        <time>2021-06-12T14:07:27Z</time>
      </trkpt>
      <trkpt lat="41.820752" lon="2.355023">
        <ele>1291.632</ele>
        <time>2021-06-12T14:07:53Z</time>
      </trkpt>
      <trkpt lat="41.820724" lon="2.355072">
        <ele>1292.892</ele>
        <time>2021-06-12T14:08:02Z</time>
      </trkpt>
      <trkpt lat="41.820686" lon="2.355117">
        <ele>1294.211</ele>
        <time>2021-06-12T14:09:17Z</time>
      </trkpt>
      <trkpt lat="41.820663" lon="2.355173">
        <ele>1294.708</ele>
        <time>2021-06-12T14:09:23Z</time>
      </trkpt>
      <trkpt lat="41.820641" lon="2.355227">
        <ele>1297.150</ele>
        <time>2021-06-12T14:09:41Z</time>
      </trkpt>
      <trkpt lat="41.820630" lon="2.355291">
        <ele>1298.648</ele>
        <time>2021-06-12T14:09:56Z</time>
      </trkpt>
      <trkpt lat="41.820616" lon="2.355353">
        <ele>1299.771</ele>
        <time>2021-06-12T14:10:02Z</time>
      </trkpt>
      <trkpt lat="41.820575" lon="2.355381">
        <ele>1300.766</ele>
        <time>2021-06-12T14:10:26Z</time>
      </trkpt>
      <trkpt lat="41.820555" lon="2.355436">
        <ele>1301.251</ele>
        <time>2021-06-12T14:10:37Z</time>
      </trkpt>
      <trkpt lat="41.820543" lon="2.355500">
        <ele>1301.228</ele>
        <time>2021-06-12T14:10:42Z</time>
      </trkpt>
      <trkpt lat="41.820523" lon="2.355557">
        <ele>1301.557</ele>
        <time>2021-06-12T14:10:46Z</time>
      </trkpt>
      <trkpt lat="41.820491" lon="2.355604">
        <ele>1301.653</ele>
        <time>2021-06-12T14:10:50Z</time>
      </trkpt>
      <trkpt lat="41.820476" lon="2.355664">
        <ele>1301.913</ele>
        <time>2021-06-12T14:10:54Z</time>
      </trkpt>
      <trkpt lat="41.820467" lon="2.355733">
        <ele>1301.843</ele>
        <time>2021-06-12T14:10:58Z</time>
      </trkpt>
      <trkpt lat="41.820469" lon="2.355795">
        <ele>1302.307</ele>
        <time>2021-06-12T14:11:03Z</time>
      </trkpt>
      <trkpt lat="41.820466" lon="2.355860">
        <ele>1302.408</ele>
        <time>2021-06-12T14:12:12Z</time>
      </trkpt>
      <trkpt lat="41.820448" lon="2.355920">
        <ele>1302.828</ele>
        <time>2021-06-12T14:12:40Z</time>
      </trkpt>
      <trkpt lat="41.820416" lon="2.355964">
        <ele>1303.556</ele>
        <time>2021-06-12T14:12:45Z</time>
      </trkpt>
      <trkpt lat="41.820380" lon="2.356002">
        <ele>1303.979</ele>
        <time>2021-06-12T14:12:50Z</time>
      </trkpt>
      <trkpt lat="41.820342" lon="2.356037">
        <ele>1304.444</ele>
        <time>2021-06-12T14:12:58Z</time>
      </trkpt>
      <trkpt lat="41.820312" lon="2.356085">
        <ele>1304.739</ele>
        <time>2021-06-12T14:13:04Z</time>
      </trkpt>
      <trkpt lat="41.820279" lon="2.356130">
        <ele>1305.956</ele>
        <time>2021-06-12T14:13:13Z</time>
      </trkpt>
      <trkpt lat="41.820261" lon="2.356190">
        <ele>1307.215</ele>
        <time>2021-06-12T14:13:27Z</time>
      </trkpt>
      <trkpt lat="41.820232" lon="2.356243">
        <ele>1308.591</ele>
        <time>2021-06-12T14:13:36Z</time>
      </trkpt>
      <trkpt lat="41.820188" lon="2.356258">
        <ele>1308.449</ele>
        <time>2021-06-12T14:13:43Z</time>
      </trkpt>
      <trkpt lat="41.820142" lon="2.356274">
        <ele>1309.302</ele>
        <time>2021-06-12T14:13:49Z</time>
      </trkpt>
      <trkpt lat="41.820096" lon="2.356277">
        <ele>1310.422</ele>
        <time>2021-06-12T14:13:57Z</time>
      </trkpt>
      <trkpt lat="41.820060" lon="2.356317">
        <ele>1311.908</ele>
        <time>2021-06-12T14:14:10Z</time>
      </trkpt>
      <trkpt lat="41.820020" lon="2.356348">
        <ele>1312.341</ele>
        <time>2021-06-12T14:14:36Z</time>
      </trkpt>
      <trkpt lat="41.819983" lon="2.356385">
        <ele>1312.599</ele>
        <time>2021-06-12T14:14:42Z</time>
      </trkpt>
      <trkpt lat="41.819947" lon="2.356423">
        <ele>1312.492</ele>
        <time>2021-06-12T14:14:46Z</time>
      </trkpt>
      <trkpt lat="41.819906" lon="2.356459">
        <ele>1312.897</ele>
        <time>2021-06-12T14:14:50Z</time>
      </trkpt>
      <trkpt lat="41.819861" lon="2.356488">
        <ele>1312.662</ele>
        <time>2021-06-12T14:14:55Z</time>
      </trkpt>
      <trkpt lat="41.819818" lon="2.356519">
        <ele>1313.219</ele>
        <time>2021-06-12T14:15:00Z</time>
      </trkpt>
      <trkpt lat="41.819775" lon="2.356540">
        <ele>1314.388</ele>
        <time>2021-06-12T14:15:09Z</time>
      </trkpt>
      <trkpt lat="41.819730" lon="2.356556">
        <ele>1314.594</ele>
        <time>2021-06-12T14:15:13Z</time>
      </trkpt>
      <trkpt lat="41.819681" lon="2.356562">
        <ele>1315.669</ele>
        <time>2021-06-12T14:15:25Z</time>
      </trkpt>
      <trkpt lat="41.819639" lon="2.356590">
        <ele>1316.104</ele>
        <time>2021-06-12T14:15:32Z</time>
      </trkpt>
      <trkpt lat="41.819594" lon="2.356612">
        <ele>1316.324</ele>
        <time>2021-06-12T14:15:39Z</time>
      </trkpt>
      <trkpt lat="41.819549" lon="2.356629">
        <ele>1316.908</ele>
        <time>2021-06-12T14:15:45Z</time>
      </trkpt>
      <trkpt lat="41.819501" lon="2.356644">
        <ele>1317.793</ele>
        <time>2021-06-12T14:15:56Z</time>
      </trkpt>
      <trkpt lat="41.819454" lon="2.356658">
        <ele>1318.631</ele>
        <time>2021-06-12T14:16:03Z</time>
      </trkpt>
      <trkpt lat="41.819403" lon="2.356663">
        <ele>1319.134</ele>
        <time>2021-06-12T14:16:09Z</time>
      </trkpt>
      <trkpt lat="41.819361" lon="2.356687">
        <ele>1319.659</ele>
        <time>2021-06-12T14:16:17Z</time>
      </trkpt>
      <trkpt lat="41.819313" lon="2.356704">
        <ele>1320.784</ele>
        <time>2021-06-12T14:16:24Z</time>
      </trkpt>
      <trkpt lat="41.819275" lon="2.356740">
        <ele>1321.591</ele>
        <time>2021-06-12T14:16:32Z</time>
      </trkpt>
      <trkpt lat="41.819234" lon="2.356782">
        <ele>1322.880</ele>
        <time>2021-06-12T14:16:44Z</time>
      </trkpt>
      <trkpt lat="41.819191" lon="2.356803">
        <ele>1324.936</ele>
        <time>2021-06-12T14:17:14Z</time>
      </trkpt>
      <trkpt lat="41.819148" lon="2.356821">
        <ele>1325.172</ele>
        <time>2021-06-12T14:17:21Z</time>
      </trkpt>
      <trkpt lat="41.819117" lon="2.356876">
        <ele>1326.413</ele>
        <time>2021-06-12T14:17:31Z</time>
      </trkpt>
      <trkpt lat="41.819075" lon="2.356911">
        <ele>1326.814</ele>
        <time>2021-06-12T14:17:38Z</time>
      </trkpt>
      <trkpt lat="41.819039" lon="2.356949">
        <ele>1327.308</ele>
        <time>2021-06-12T14:17:42Z</time>
      </trkpt>
      <trkpt lat="41.819008" lon="2.356998">
        <ele>1327.694</ele>
        <time>2021-06-12T14:17:48Z</time>
      </trkpt>
      <trkpt lat="41.818967" lon="2.357035">
        <ele>1327.752</ele>
        <time>2021-06-12T14:17:55Z</time>
      </trkpt>
      <trkpt lat="41.818935" lon="2.357079">
        <ele>1328.645</ele>
        <time>2021-06-12T14:18:02Z</time>
      </trkpt>
      <trkpt lat="41.818893" lon="2.357105">
        <ele>1329.110</ele>
        <time>2021-06-12T14:18:08Z</time>
      </trkpt>
      <trkpt lat="41.818845" lon="2.357118">
        <ele>1329.855</ele>
        <time>2021-06-12T14:18:16Z</time>
      </trkpt>
      <trkpt lat="41.818811" lon="2.357164">
        <ele>1330.412</ele>
        <time>2021-06-12T14:18:24Z</time>
      </trkpt>
      <trkpt lat="41.818774" lon="2.357216">
        <ele>1331.821</ele>
        <time>2021-06-12T14:18:44Z</time>
      </trkpt>
      <trkpt lat="41.818735" lon="2.357265">
        <ele>1332.117</ele>
        <time>2021-06-12T14:18:50Z</time>
      </trkpt>
      <trkpt lat="41.818708" lon="2.357314">
        <ele>1332.962</ele>
        <time>2021-06-12T14:18:55Z</time>
      </trkpt>
      <trkpt lat="41.818676" lon="2.357358">
        <ele>1333.083</ele>
        <time>2021-06-12T14:18:59Z</time>
      </trkpt>
      <trkpt lat="41.818637" lon="2.357389">
        <ele>1334.311</ele>
        <time>2021-06-12T14:19:19Z</time>
      </trkpt>
      <trkpt lat="41.818593" lon="2.357416">
        <ele>1334.808</ele>
        <time>2021-06-12T14:19:24Z</time>
      </trkpt>
      <trkpt lat="41.818566" lon="2.357469">
        <ele>1336.993</ele>
        <time>2021-06-12T14:19:55Z</time>
      </trkpt>
      <trkpt lat="41.818530" lon="2.357505">
        <ele>1337.461</ele>
        <time>2021-06-12T14:20:02Z</time>
      </trkpt>
      <trkpt lat="41.818489" lon="2.357531">
        <ele>1338.114</ele>
        <time>2021-06-12T14:20:10Z</time>
      </trkpt>
      <trkpt lat="41.818447" lon="2.357563">
        <ele>1339.019</ele>
        <time>2021-06-12T14:20:18Z</time>
      </trkpt>
      <trkpt lat="41.818404" lon="2.357581">
        <ele>1339.494</ele>
        <time>2021-06-12T14:20:23Z</time>
      </trkpt>
      <trkpt lat="41.818364" lon="2.357614">
        <ele>1340.341</ele>
        <time>2021-06-12T14:20:34Z</time>
      </trkpt>
      <trkpt lat="41.818329" lon="2.357653">
        <ele>1341.490</ele>
        <time>2021-06-12T14:20:43Z</time>
      </trkpt>
      <trkpt lat="41.818297" lon="2.357698">
        <ele>1342.266</ele>
        <time>2021-06-12T14:20:52Z</time>
      </trkpt>
      <trkpt lat="41.818267" lon="2.357747">
        <ele>1342.921</ele>
        <time>2021-06-12T14:21:00Z</time>
      </trkpt>
      <trkpt lat="41.818224" lon="2.357783">
        <ele>1343.641</ele>
        <time>2021-06-12T14:21:10Z</time>
      </trkpt>
      <trkpt lat="41.818175" lon="2.357787">
        <ele>1344.305</ele>
        <time>2021-06-12T14:21:17Z</time>
      </trkpt>
      <trkpt lat="41.818157" lon="2.357843">
        <ele>1345.508</ele>
        <time>2021-06-12T14:21:38Z</time>
      </trkpt>
      <trkpt lat="41.818149" lon="2.357907">
        <ele>1346.499</ele>
        <time>2021-06-12T14:21:46Z</time>
      </trkpt>
      <trkpt lat="41.818106" lon="2.357938">
        <ele>1347.467</ele>
        <time>2021-06-12T14:22:05Z</time>
      </trkpt>
      <trkpt lat="41.818061" lon="2.357967">
        <ele>1348.090</ele>
        <time>2021-06-12T14:22:10Z</time>
      </trkpt>
      <trkpt lat="41.818012" lon="2.357974">
        <ele>1348.615</ele>
        <time>2021-06-12T14:22:19Z</time>
      </trkpt>
      <trkpt lat="41.817964" lon="2.357978">
        <ele>1348.740</ele>
        <time>2021-06-12T14:22:29Z</time>
      </trkpt>
      <trkpt lat="41.817934" lon="2.358025">
        <ele>1349.457</ele>
        <time>2021-06-12T14:22:37Z</time>
      </trkpt>
      <trkpt lat="41.817900" lon="2.358068">
        <ele>1350.966</ele>
        <time>2021-06-12T14:22:57Z</time>
      </trkpt>
      <trkpt lat="41.817868" lon="2.358115">
        <ele>1351.112</ele>
        <time>2021-06-12T14:23:04Z</time>
      </trkpt>
      <trkpt lat="41.817833" lon="2.358153">
        <ele>1350.438</ele>
        <time>2021-06-12T14:23:13Z</time>
      </trkpt>
      <trkpt lat="41.817788" lon="2.358161">
        <ele>1351.170</ele>
        <time>2021-06-12T14:23:22Z</time>
      </trkpt>
      <trkpt lat="41.817742" lon="2.358168">
        <ele>1351.917</ele>
        <time>2021-06-12T14:23:31Z</time>
      </trkpt>
      <trkpt lat="41.817698" lon="2.358188">
        <ele>1352.608</ele>
        <time>2021-06-12T14:23:39Z</time>
      </trkpt>
      <trkpt lat="41.817650" lon="2.358200">
        <ele>1352.740</ele>
        <time>2021-06-12T14:23:44Z</time>
      </trkpt>
      <trkpt lat="41.817605" lon="2.358221">
        <ele>1353.088</ele>
        <time>2021-06-12T14:23:49Z</time>
      </trkpt>
      <trkpt lat="41.817562" lon="2.358250">
        <ele>1354.151</ele>
        <time>2021-06-12T14:23:56Z</time>
      </trkpt>
      <trkpt lat="41.817519" lon="2.358281">
        <ele>1354.176</ele>
        <time>2021-06-12T14:24:33Z</time>
      </trkpt>
      <trkpt lat="41.817478" lon="2.358327">
        <ele>1354.151</ele>
        <time>2021-06-12T14:24:39Z</time>
      </trkpt>
      <trkpt lat="41.817454" lon="2.358389">
        <ele>1354.288</ele>
        <time>2021-06-12T14:24:44Z</time>
      </trkpt>
      <trkpt lat="41.817423" lon="2.358436">
        <ele>1354.567</ele>
        <time>2021-06-12T14:24:50Z</time>
      </trkpt>
      <trkpt lat="41.817399" lon="2.358494">
        <ele>1354.543</ele>
        <time>2021-06-12T14:24:57Z</time>
      </trkpt>
      <trkpt lat="41.817367" lon="2.358547">
        <ele>1354.746</ele>
        <time>2021-06-12T14:25:03Z</time>
      </trkpt>
      <trkpt lat="41.817368" lon="2.358609">
        <ele>1354.488</ele>
        <time>2021-06-12T14:25:12Z</time>
      </trkpt>
      <trkpt lat="41.817368" lon="2.358675">
        <ele>1354.516</ele>
        <time>2021-06-12T14:25:16Z</time>
      </trkpt>
      <trkpt lat="41.817360" lon="2.358745">
        <ele>1354.508</ele>
        <time>2021-06-12T14:25:21Z</time>
      </trkpt>
      <trkpt lat="41.817341" lon="2.358813">
        <ele>1354.481</ele>
        <time>2021-06-12T14:25:25Z</time>
      </trkpt>
      <trkpt lat="41.817319" lon="2.358868">
        <ele>1354.539</ele>
        <time>2021-06-12T14:25:29Z</time>
      </trkpt>
      <trkpt lat="41.817290" lon="2.358915">
        <ele>1354.582</ele>
        <time>2021-06-12T14:25:34Z</time>
      </trkpt>
      <trkpt lat="41.817265" lon="2.358972">
        <ele>1354.337</ele>
        <time>2021-06-12T14:25:39Z</time>
      </trkpt>
      <trkpt lat="41.817236" lon="2.359030">
        <ele>1354.152</ele>
        <time>2021-06-12T14:25:44Z</time>
      </trkpt>
      <trkpt lat="41.817214" lon="2.359085">
        <ele>1353.859</ele>
        <time>2021-06-12T14:25:48Z</time>
      </trkpt>
      <trkpt lat="41.817198" lon="2.359147">
        <ele>1354.168</ele>
        <time>2021-06-12T14:25:52Z</time>
      </trkpt>
      <trkpt lat="41.817191" lon="2.359208">
        <ele>1354.564</ele>
        <time>2021-06-12T14:25:56Z</time>
      </trkpt>
      <trkpt lat="41.817172" lon="2.359264">
        <ele>1354.442</ele>
        <time>2021-06-12T14:26:04Z</time>
      </trkpt>
      <trkpt lat="41.817166" lon="2.359327">
        <ele>1354.522</ele>
        <time>2021-06-12T14:26:11Z</time>
      </trkpt>
      <trkpt lat="41.817151" lon="2.359385">
        <ele>1354.614</ele>
        <time>2021-06-12T14:26:16Z</time>
      </trkpt>
      <trkpt lat="41.817135" lon="2.359445">
        <ele>1354.608</ele>
        <time>2021-06-12T14:26:20Z</time>
      </trkpt>
      <trkpt lat="41.817123" lon="2.359508">
        <ele>1354.941</ele>
        <time>2021-06-12T14:26:25Z</time>
      </trkpt>
      <trkpt lat="41.817106" lon="2.359572">
        <ele>1355.029</ele>
        <time>2021-06-12T14:26:30Z</time>
      </trkpt>
      <trkpt lat="41.817083" lon="2.359630">
        <ele>1355.462</ele>
        <time>2021-06-12T14:26:35Z</time>
      </trkpt>
      <trkpt lat="41.817035" lon="2.359616">
        <ele>1356.157</ele>
        <time>2021-06-12T14:29:55Z</time>
      </trkpt>
      <trkpt lat="41.816987" lon="2.359624">
        <ele>1356.792</ele>
        <time>2021-06-12T14:30:00Z</time>
      </trkpt>
      <trkpt lat="41.816941" lon="2.359622">
        <ele>1355.629</ele>
        <time>2021-06-12T14:30:26Z</time>
      </trkpt>
      <trkpt lat="41.816901" lon="2.359659">
        <ele>1357.818</ele>
        <time>2021-06-12T14:30:32Z</time>
      </trkpt>
      <trkpt lat="41.816870" lon="2.359711">
        <ele>1358.344</ele>
        <time>2021-06-12T14:30:36Z</time>
      </trkpt>
      <trkpt lat="41.816826" lon="2.359755">
        <ele>1359.077</ele>
        <time>2021-06-12T14:30:40Z</time>
      </trkpt>
      <trkpt lat="41.816778" lon="2.359756">
        <ele>1359.861</ele>
        <time>2021-06-12T14:30:45Z</time>
      </trkpt>
      <trkpt lat="41.816734" lon="2.359783">
        <ele>1360.027</ele>
        <time>2021-06-12T14:30:51Z</time>
      </trkpt>
      <trkpt lat="41.816696" lon="2.359817">
        <ele>1360.408</ele>
        <time>2021-06-12T14:30:56Z</time>
      </trkpt>
      <trkpt lat="41.816653" lon="2.359850">
        <ele>1360.964</ele>
        <time>2021-06-12T14:31:02Z</time>
      </trkpt>
      <trkpt lat="41.816605" lon="2.359865">
        <ele>1361.332</ele>
        <time>2021-06-12T14:31:07Z</time>
      </trkpt>
      <trkpt lat="41.816557" lon="2.359873">
        <ele>1362.035</ele>
        <time>2021-06-12T14:31:13Z</time>
      </trkpt>
      <trkpt lat="41.816509" lon="2.359844">
        <ele>1363.540</ele>
        <time>2021-06-12T14:31:43Z</time>
      </trkpt>
      <trkpt lat="41.816459" lon="2.359847">
        <ele>1364.075</ele>
        <time>2021-06-12T14:32:06Z</time>
      </trkpt>
      <trkpt lat="41.816420" lon="2.359885">
        <ele>1364.892</ele>
        <time>2021-06-12T14:32:14Z</time>
      </trkpt>
      <trkpt lat="41.816386" lon="2.359928">
        <ele>1365.891</ele>
        <time>2021-06-12T14:32:27Z</time>
      </trkpt>
      <trkpt lat="41.816341" lon="2.359948">
        <ele>1367.147</ele>
        <time>2021-06-12T14:32:41Z</time>
      </trkpt>
      <trkpt lat="41.816294" lon="2.359956">
        <ele>1367.289</ele>
        <time>2021-06-12T14:32:47Z</time>
      </trkpt>
      <trkpt lat="41.816247" lon="2.359971">
        <ele>1368.006</ele>
        <time>2021-06-12T14:32:55Z</time>
      </trkpt>
      <trkpt lat="41.816202" lon="2.359968">
        <ele>1369.126</ele>
        <time>2021-06-12T14:33:13Z</time>
      </trkpt>
      <trkpt lat="41.816163" lon="2.359998">
        <ele>1370.608</ele>
        <time>2021-06-12T14:33:29Z</time>
      </trkpt>
      <trkpt lat="41.816118" lon="2.359999">
        <ele>1370.985</ele>
        <time>2021-06-12T14:33:37Z</time>
      </trkpt>
      <trkpt lat="41.816071" lon="2.360000">
        <ele>1371.563</ele>
        <time>2021-06-12T14:33:43Z</time>
      </trkpt>
      <trkpt lat="41.816026" lon="2.359983">
        <ele>1372.466</ele>
        <time>2021-06-12T14:33:53Z</time>
      </trkpt>
      <trkpt lat="41.815980" lon="2.359969">
        <ele>1373.921</ele>
        <time>2021-06-12T14:34:10Z</time>
      </trkpt>
      <trkpt lat="41.815949" lon="2.360020">
        <ele>1374.566</ele>
        <time>2021-06-12T14:34:19Z</time>
      </trkpt>
      <trkpt lat="41.815899" lon="2.360031">
        <ele>1374.883</ele>
        <time>2021-06-12T14:34:25Z</time>
      </trkpt>
      <trkpt lat="41.815854" lon="2.360040">
        <ele>1376.152</ele>
        <time>2021-06-12T14:34:36Z</time>
      </trkpt>
      <trkpt lat="41.815820" lon="2.360080">
        <ele>1377.138</ele>
        <time>2021-06-12T14:34:46Z</time>
      </trkpt>
      <trkpt lat="41.815778" lon="2.360113">
        <ele>1378.229</ele>
        <time>2021-06-12T14:34:55Z</time>
      </trkpt>
      <trkpt lat="41.815743" lon="2.360155">
        <ele>1379.700</ele>
        <time>2021-06-12T14:35:11Z</time>
      </trkpt>
      <trkpt lat="41.815737" lon="2.360215">
        <ele>1380.720</ele>
        <time>2021-06-12T14:35:32Z</time>
      </trkpt>
      <trkpt lat="41.815724" lon="2.360273">
        <ele>1381.308</ele>
        <time>2021-06-12T14:35:42Z</time>
      </trkpt>
      <trkpt lat="41.815691" lon="2.360326">
        <ele>1381.359</ele>
        <time>2021-06-12T14:35:52Z</time>
      </trkpt>
      <trkpt lat="41.815657" lon="2.360366">
        <ele>1381.957</ele>
        <time>2021-06-12T14:35:55Z</time>
      </trkpt>
      <trkpt lat="41.815619" lon="2.360410">
        <ele>1382.160</ele>
        <time>2021-06-12T14:36:02Z</time>
      </trkpt>
      <trkpt lat="41.815589" lon="2.360460">
        <ele>1383.515</ele>
        <time>2021-06-12T14:36:17Z</time>
      </trkpt>
      <trkpt lat="41.815554" lon="2.360501">
        <ele>1383.790</ele>
        <time>2021-06-12T14:36:21Z</time>
      </trkpt>
      <trkpt lat="41.815510" lon="2.360521">
        <ele>1384.497</ele>
        <time>2021-06-12T14:36:27Z</time>
      </trkpt>
      <trkpt lat="41.815481" lon="2.360573">
        <ele>1386.056</ele>
        <time>2021-06-12T14:36:38Z</time>
      </trkpt>
      <trkpt lat="41.815469" lon="2.360639">
        <ele>1386.312</ele>
        <time>2021-06-12T14:36:44Z</time>
      </trkpt>
      <trkpt lat="41.815450" lon="2.360697">
        <ele>1386.916</ele>
        <time>2021-06-12T14:36:49Z</time>
      </trkpt>
      <trkpt lat="41.815423" lon="2.360746">
        <ele>1388.076</ele>
        <time>2021-06-12T14:37:30Z</time>
      </trkpt>
      <trkpt lat="41.815374" lon="2.360754">
        <ele>1388.413</ele>
        <time>2021-06-12T14:37:37Z</time>
      </trkpt>
      <trkpt lat="41.815327" lon="2.360753">
        <ele>1388.808</ele>
        <time>2021-06-12T14:37:41Z</time>
      </trkpt>
      <trkpt lat="41.815284" lon="2.360777">
        <ele>1389.098</ele>
        <time>2021-06-12T14:37:46Z</time>
      </trkpt>
      <trkpt lat="41.815246" lon="2.360813">
        <ele>1389.546</ele>
        <time>2021-06-12T14:37:51Z</time>
      </trkpt>
      <trkpt lat="41.815205" lon="2.360839">
        <ele>1391.129</ele>
        <time>2021-06-12T14:38:08Z</time>
      </trkpt>
      <trkpt lat="41.815159" lon="2.360855">
        <ele>1391.894</ele>
        <time>2021-06-12T14:38:14Z</time>
      </trkpt>
      <trkpt lat="41.815115" lon="2.360875">
        <ele>1392.449</ele>
        <time>2021-06-12T14:38:20Z</time>
      </trkpt>
      <trkpt lat="41.815068" lon="2.360887">
        <ele>1393.336</ele>
        <time>2021-06-12T14:38:34Z</time>
      </trkpt>
      <trkpt lat="41.815022" lon="2.360901">
        <ele>1393.645</ele>
        <time>2021-06-12T14:38:38Z</time>
      </trkpt>
      <trkpt lat="41.814973" lon="2.360918">
        <ele>1393.531</ele>
        <time>2021-06-12T14:38:42Z</time>
      </trkpt>
      <trkpt lat="41.814927" lon="2.360945">
        <ele>1393.729</ele>
        <time>2021-06-12T14:38:45Z</time>
      </trkpt>
      <trkpt lat="41.814893" lon="2.360986">
        <ele>1394.600</ele>
        <time>2021-06-12T14:38:50Z</time>
      </trkpt>
      <trkpt lat="41.814861" lon="2.361030">
        <ele>1395.720</ele>
        <time>2021-06-12T14:39:03Z</time>
      </trkpt>
      <trkpt lat="41.814818" lon="2.361053">
        <ele>1396.608</ele>
        <time>2021-06-12T14:39:32Z</time>
      </trkpt>
      <trkpt lat="41.814790" lon="2.361102">
        <ele>1397.229</ele>
        <time>2021-06-12T14:39:39Z</time>
      </trkpt>
      <trkpt lat="41.814751" lon="2.361131">
        <ele>1397.837</ele>
        <time>2021-06-12T14:40:05Z</time>
      </trkpt>
      <trkpt lat="41.814708" lon="2.361154">
        <ele>1398.460</ele>
        <time>2021-06-12T14:40:11Z</time>
      </trkpt>
      <trkpt lat="41.814664" lon="2.361177">
        <ele>1399.025</ele>
        <time>2021-06-12T14:40:17Z</time>
      </trkpt>
      <trkpt lat="41.814629" lon="2.361217">
        <ele>1399.270</ele>
        <time>2021-06-12T14:40:22Z</time>
      </trkpt>
      <trkpt lat="41.814585" lon="2.361234">
        <ele>1399.857</ele>
        <time>2021-06-12T14:40:29Z</time>
      </trkpt>
      <trkpt lat="41.814548" lon="2.361275">
        <ele>1400.416</ele>
        <time>2021-06-12T14:40:35Z</time>
      </trkpt>
      <trkpt lat="41.814517" lon="2.361327">
        <ele>1401.152</ele>
        <time>2021-06-12T14:40:43Z</time>
      </trkpt>
      <trkpt lat="41.814502" lon="2.361385">
        <ele>1402.082</ele>
        <time>2021-06-12T14:40:54Z</time>
      </trkpt>
      <trkpt lat="41.814463" lon="2.361418">
        <ele>1402.243</ele>
        <time>2021-06-12T14:41:02Z</time>
      </trkpt>
      <trkpt lat="41.814429" lon="2.361459">
        <ele>1402.317</ele>
        <time>2021-06-12T14:41:06Z</time>
      </trkpt>
      <trkpt lat="41.814378" lon="2.361485">
        <ele>1402.808</ele>
        <time>2021-06-12T14:41:12Z</time>
      </trkpt>
      <trkpt lat="41.814343" lon="2.361525">
        <ele>1403.535</ele>
        <time>2021-06-12T14:41:20Z</time>
      </trkpt>
      <trkpt lat="41.814308" lon="2.361563">
        <ele>1404.523</ele>
        <time>2021-06-12T14:41:31Z</time>
      </trkpt>
      <trkpt lat="41.814267" lon="2.361591">
        <ele>1405.016</ele>
        <time>2021-06-12T14:41:36Z</time>
      </trkpt>
      <trkpt lat="41.814233" lon="2.361638">
        <ele>1405.841</ele>
        <time>2021-06-12T14:41:43Z</time>
      </trkpt>
      <trkpt lat="41.814221" lon="2.361700">
        <ele>1406.546</ele>
        <time>2021-06-12T14:41:51Z</time>
      </trkpt>
      <trkpt lat="41.814178" lon="2.361722">
        <ele>1407.333</ele>
        <time>2021-06-12T14:42:00Z</time>
      </trkpt>
      <trkpt lat="41.814133" lon="2.361696">
        <ele>1407.612</ele>
        <time>2021-06-12T14:42:07Z</time>
      </trkpt>
      <trkpt lat="41.814087" lon="2.361683">
        <ele>1407.938</ele>
        <time>2021-06-12T14:42:14Z</time>
      </trkpt>
      <trkpt lat="41.814040" lon="2.361692">
        <ele>1408.195</ele>
        <time>2021-06-12T14:42:20Z</time>
      </trkpt>
      <trkpt lat="41.814006" lon="2.361734">
        <ele>1408.449</ele>
        <time>2021-06-12T14:42:24Z</time>
      </trkpt>
      <trkpt lat="41.813978" lon="2.361784">
        <ele>1408.923</ele>
        <time>2021-06-12T14:42:32Z</time>
      </trkpt>
      <trkpt lat="41.813939" lon="2.361818">
        <ele>1409.208</ele>
        <time>2021-06-12T14:42:37Z</time>
      </trkpt>
      <trkpt lat="41.813894" lon="2.361849">
        <ele>1409.386</ele>
        <time>2021-06-12T14:42:40Z</time>
      </trkpt>
      <trkpt lat="41.813849" lon="2.361874">
        <ele>1409.814</ele>
        <time>2021-06-12T14:42:45Z</time>
      </trkpt>
      <trkpt lat="41.813805" lon="2.361889">
        <ele>1411.157</ele>
        <time>2021-06-12T14:43:01Z</time>
      </trkpt>
      <trkpt lat="41.813759" lon="2.361874">
        <ele>1412.642</ele>
        <time>2021-06-12T14:43:15Z</time>
      </trkpt>
      <trkpt lat="41.813713" lon="2.361881">
        <ele>1413.067</ele>
        <time>2021-06-12T14:43:20Z</time>
      </trkpt>
      <trkpt lat="41.813670" lon="2.361900">
        <ele>1414.724</ele>
        <time>2021-06-12T14:43:44Z</time>
      </trkpt>
      <trkpt lat="41.813627" lon="2.361920">
        <ele>1415.783</ele>
        <time>2021-06-12T14:43:57Z</time>
      </trkpt>
      <trkpt lat="41.813583" lon="2.361910">
        <ele>1416.899</ele>
        <time>2021-06-12T14:44:14Z</time>
      </trkpt>
      <trkpt lat="41.813538" lon="2.361933">
        <ele>1418.782</ele>
        <time>2021-06-12T14:44:38Z</time>
      </trkpt>
      <trkpt lat="41.813490" lon="2.361939">
        <ele>1419.343</ele>
        <time>2021-06-12T14:44:43Z</time>
      </trkpt>
      <trkpt lat="41.813444" lon="2.361943">
        <ele>1420.017</ele>
        <time>2021-06-12T14:44:55Z</time>
      </trkpt>
      <trkpt lat="41.813399" lon="2.361925">
        <ele>1421.308</ele>
        <time>2021-06-12T14:45:08Z</time>
      </trkpt>
      <trkpt lat="41.813359" lon="2.361894">
        <ele>1422.595</ele>
        <time>2021-06-12T14:45:22Z</time>
      </trkpt>
      <trkpt lat="41.813322" lon="2.361932">
        <ele>1423.523</ele>
        <time>2021-06-12T14:46:09Z</time>
      </trkpt>
      <trkpt lat="41.813299" lon="2.361989">
        <ele>1424.586</ele>
        <time>2021-06-12T14:46:18Z</time>
      </trkpt>
      <trkpt lat="41.813254" lon="2.362016">
        <ele>1425.271</ele>
        <time>2021-06-12T14:46:29Z</time>
      </trkpt>
      <trkpt lat="41.813211" lon="2.362048">
        <ele>1425.786</ele>
        <time>2021-06-12T14:46:35Z</time>
      </trkpt>
      <trkpt lat="41.813171" lon="2.362076">
        <ele>1426.213</ele>
        <time>2021-06-12T14:46:40Z</time>
      </trkpt>
      <trkpt lat="41.813134" lon="2.362112">
        <ele>1427.012</ele>
        <time>2021-06-12T14:46:46Z</time>
      </trkpt>
      <trkpt lat="41.813092" lon="2.362137">
        <ele>1427.788</ele>
        <time>2021-06-12T14:47:06Z</time>
      </trkpt>
      <trkpt lat="41.813053" lon="2.362174">
        <ele>1427.977</ele>
        <time>2021-06-12T14:47:12Z</time>
      </trkpt>
      <trkpt lat="41.813012" lon="2.362206">
        <ele>1428.761</ele>
        <time>2021-06-12T14:47:20Z</time>
      </trkpt>
      <trkpt lat="41.812988" lon="2.362259">
        <ele>1431.027</ele>
        <time>2021-06-12T14:47:39Z</time>
      </trkpt>
      <trkpt lat="41.812953" lon="2.362302">
        <ele>1432.608</ele>
        <time>2021-06-12T14:47:54Z</time>
      </trkpt>
      <trkpt lat="41.812914" lon="2.362346">
        <ele>1433.294</ele>
        <time>2021-06-12T14:48:00Z</time>
      </trkpt>
      <trkpt lat="41.812866" lon="2.362351">
        <ele>1433.712</ele>
        <time>2021-06-12T14:48:08Z</time>
      </trkpt>
      <trkpt lat="41.812820" lon="2.362382">
        <ele>1434.245</ele>
        <time>2021-06-12T14:48:12Z</time>
      </trkpt>
      <trkpt lat="41.812781" lon="2.362420">
        <ele>1434.490</ele>
        <time>2021-06-12T14:48:16Z</time>
      </trkpt>
      <trkpt lat="41.812742" lon="2.362453">
        <ele>1434.745</ele>
        <time>2021-06-12T14:48:21Z</time>
      </trkpt>
      <trkpt lat="41.812702" lon="2.362493">
        <ele>1435.092</ele>
        <time>2021-06-12T14:48:27Z</time>
      </trkpt>
      <trkpt lat="41.812664" lon="2.362528">
        <ele>1435.291</ele>
        <time>2021-06-12T14:48:32Z</time>
      </trkpt>
      <trkpt lat="41.812618" lon="2.362556">
        <ele>1435.447</ele>
        <time>2021-06-12T14:48:37Z</time>
      </trkpt>
      <trkpt lat="41.812579" lon="2.362591">
        <ele>1435.479</ele>
        <time>2021-06-12T14:48:42Z</time>
      </trkpt>
      <trkpt lat="41.812536" lon="2.362619">
        <ele>1435.805</ele>
        <time>2021-06-12T14:48:48Z</time>
      </trkpt>
      <trkpt lat="41.812503" lon="2.362661">
        <ele>1436.225</ele>
        <time>2021-06-12T14:48:53Z</time>
      </trkpt>
      <trkpt lat="41.812478" lon="2.362712">
        <ele>1437.108</ele>
        <time>2021-06-12T14:48:59Z</time>
      </trkpt>
      <trkpt lat="41.812431" lon="2.362738">
        <ele>1437.774</ele>
        <time>2021-06-12T14:49:10Z</time>
      </trkpt>
      <trkpt lat="41.812386" lon="2.362736">
        <ele>1438.212</ele>
        <time>2021-06-12T14:49:15Z</time>
      </trkpt>
      <trkpt lat="41.812339" lon="2.362753">
        <ele>1439.135</ele>
        <time>2021-06-12T14:49:23Z</time>
      </trkpt>
      <trkpt lat="41.812312" lon="2.362803">
        <ele>1439.530</ele>
        <time>2021-06-12T14:49:30Z</time>
      </trkpt>
      <trkpt lat="41.812274" lon="2.362846">
        <ele>1440.485</ele>
        <time>2021-06-12T14:49:36Z</time>
      </trkpt>
      <trkpt lat="41.812241" lon="2.362888">
        <ele>1441.082</ele>
        <time>2021-06-12T14:49:40Z</time>
      </trkpt>
      <trkpt lat="41.812202" lon="2.362935">
        <ele>1441.711</ele>
        <time>2021-06-12T14:49:45Z</time>
      </trkpt>
      <trkpt lat="41.812173" lon="2.362991">
        <ele>1441.877</ele>
        <time>2021-06-12T14:49:50Z</time>
      </trkpt>
      <trkpt lat="41.812136" lon="2.363028">
        <ele>1442.166</ele>
        <time>2021-06-12T14:49:57Z</time>
      </trkpt>
      <trkpt lat="41.812114" lon="2.363081">
        <ele>1442.929</ele>
        <time>2021-06-12T14:50:06Z</time>
      </trkpt>
      <trkpt lat="41.812082" lon="2.363124">
        <ele>1443.621</ele>
        <time>2021-06-12T14:50:13Z</time>
      </trkpt>
      <trkpt lat="41.812049" lon="2.363176">
        <ele>1444.008</ele>
        <time>2021-06-12T14:50:19Z</time>
      </trkpt>
      <trkpt lat="41.812001" lon="2.363206">
        <ele>1444.793</ele>
        <time>2021-06-12T14:50:24Z</time>
      </trkpt>
      <trkpt lat="41.811969" lon="2.363254">
        <ele>1445.711</ele>
        <time>2021-06-12T14:50:31Z</time>
      </trkpt>
      <trkpt lat="41.811951" lon="2.363310">
        <ele>1446.024</ele>
        <time>2021-06-12T14:50:39Z</time>
      </trkpt>
      <trkpt lat="41.811960" lon="2.363374">
        <ele>1446.789</ele>
        <time>2021-06-12T14:50:45Z</time>
      </trkpt>
      <trkpt lat="41.811932" lon="2.363416">
        <ele>1447.224</ele>
        <time>2021-06-12T14:50:51Z</time>
      </trkpt>
      <trkpt lat="41.811905" lon="2.363482">
        <ele>1447.441</ele>
        <time>2021-06-12T14:50:56Z</time>
      </trkpt>
      <trkpt lat="41.811866" lon="2.363561">
        <ele>1447.920</ele>
        <time>2021-06-12T14:51:04Z</time>
      </trkpt>
      <trkpt lat="41.811821" lon="2.363661">
        <ele>1448.066</ele>
        <time>2021-06-12T14:51:09Z</time>
      </trkpt>
      <trkpt lat="41.811774" lon="2.363773">
        <ele>1448.343</ele>
        <time>2021-06-12T14:51:14Z</time>
      </trkpt>
      <trkpt lat="41.811738" lon="2.363855">
        <ele>1448.364</ele>
        <time>2021-06-12T14:51:18Z</time>
      </trkpt>
      <trkpt lat="41.811699" lon="2.363939">
        <ele>1448.810</ele>
        <time>2021-06-12T14:51:23Z</time>
      </trkpt>
      <trkpt lat="41.811654" lon="2.364020">
        <ele>1449.208</ele>
        <time>2021-06-12T14:51:28Z</time>
      </trkpt>
      <trkpt lat="41.811598" lon="2.364140">
        <ele>1449.781</ele>
        <time>2021-06-12T14:51:33Z</time>
      </trkpt>
      <trkpt lat="41.811576" lon="2.364202">
        <ele>1450.369</ele>
        <time>2021-06-12T14:51:41Z</time>
      </trkpt>
      <trkpt lat="41.811566" lon="2.364300">
        <ele>1450.782</ele>
        <time>2021-06-12T14:51:48Z</time>
      </trkpt>
      <trkpt lat="41.811557" lon="2.364394">
        <ele>1450.917</ele>
        <time>2021-06-12T14:51:53Z</time>
      </trkpt>
      <trkpt lat="41.811544" lon="2.364480">
        <ele>1451.232</ele>
        <time>2021-06-12T14:51:57Z</time>
      </trkpt>
      <trkpt lat="41.811522" lon="2.364658">
        <ele>1452.269</ele>
        <time>2021-06-12T14:52:03Z</time>
      </trkpt>
      <trkpt lat="41.811492" lon="2.364830">
        <ele>1452.758</ele>
        <time>2021-06-12T14:52:12Z</time>
      </trkpt>
      <trkpt lat="41.811301" lon="2.365778">
        <ele>1473.074</ele>
        <time>2021-06-12T14:57:39Z</time>
      </trkpt>
      <trkpt lat="41.811373" lon="2.366124">
        <ele>1473.787</ele>
        <time>2021-06-12T14:57:45Z</time>
      </trkpt>
      <trkpt lat="41.811395" lon="2.366268">
        <ele>1474.842</ele>
        <time>2021-06-12T14:57:55Z</time>
      </trkpt>
      <trkpt lat="41.811409" lon="2.366362">
        <ele>1475.626</ele>
        <time>2021-06-12T14:58:01Z</time>
      </trkpt>
      <trkpt lat="41.811433" lon="2.366538">
        <ele>1477.808</ele>
        <time>2021-06-12T14:58:31Z</time>
      </trkpt>
      <trkpt lat="41.811441" lon="2.366566">
        <ele>1478.915</ele>
        <time>2021-06-12T14:58:41Z</time>
      </trkpt>
      <trkpt lat="41.811427" lon="2.366720">
        <ele>1479.893</ele>
        <time>2021-06-12T14:58:48Z</time>
      </trkpt>
      <trkpt lat="41.811387" lon="2.367985">
        <ele>1491.216</ele>
        <time>2021-06-12T15:02:48Z</time>
      </trkpt>
      <trkpt lat="41.811368" lon="2.368041">
        <ele>1492.011</ele>
        <time>2021-06-12T15:02:54Z</time>
      </trkpt>
      <trkpt lat="41.811358" lon="2.368100">
        <ele>1492.866</ele>
        <time>2021-06-12T15:02:59Z</time>
      </trkpt>
      <trkpt lat="41.811339" lon="2.368156">
        <ele>1493.053</ele>
        <time>2021-06-12T15:03:05Z</time>
      </trkpt>
      <trkpt lat="41.811298" lon="2.368188">
        <ele>1493.822</ele>
        <time>2021-06-12T15:03:13Z</time>
      </trkpt>
      <trkpt lat="41.811266" lon="2.368333">
        <ele>1494.288</ele>
        <time>2021-06-12T15:03:19Z</time>
      </trkpt>
      <trkpt lat="41.811225" lon="2.368547">
        <ele>1494.385</ele>
        <time>2021-06-12T15:03:23Z</time>
      </trkpt>
      <trkpt lat="41.811293" lon="2.368771">
        <ele>1495.389</ele>
        <time>2021-06-12T15:03:29Z</time>
      </trkpt>
      <trkpt lat="41.811214" lon="2.369005">
        <ele>1496.717</ele>
        <time>2021-06-12T15:03:54Z</time>
      </trkpt>
      <trkpt lat="41.811147" lon="2.369240">
        <ele>1497.908</ele>
        <time>2021-06-12T15:04:03Z</time>
      </trkpt>
      <trkpt lat="41.811131" lon="2.369446">
        <ele>1498.265</ele>
        <time>2021-06-12T15:04:09Z</time>
      </trkpt>
      <trkpt lat="41.811152" lon="2.369737">
        <ele>1498.573</ele>
        <time>2021-06-12T15:04:14Z</time>
      </trkpt>
      <trkpt lat="41.811104" lon="2.369954">
        <ele>1498.966</ele>
        <time>2021-06-12T15:04:22Z</time>
      </trkpt>
      <trkpt lat="41.810807" lon="2.370507">
        <ele>1499.611</ele>
        <time>2021-06-12T15:04:32Z</time>
      </trkpt>
      <trkpt lat="41.810640" lon="2.370972">
        <ele>1499.636</ele>
        <time>2021-06-12T15:04:38Z</time>
      </trkpt>
      <trkpt lat="41.810622" lon="2.371161">
        <ele>1501.173</ele>
        <time>2021-06-12T15:04:48Z</time>
      </trkpt>
      <trkpt lat="41.810255" lon="2.371770">
        <ele>1501.722</ele>
        <time>2021-06-12T15:04:54Z</time>
      </trkpt>
      <trkpt lat="41.810177" lon="2.371699">
        <ele>1512.688</ele>
        <time>2021-06-12T15:10:39Z</time>
      </trkpt>
      <trkpt lat="41.810208" lon="2.371743">
        <ele>1516.526</ele>
        <time>2021-06-12T15:11:11Z</time>
      </trkpt>
      <trkpt lat="41.810245" lon="2.371780">
        <ele>1515.247</ele>
        <time>2021-06-12T15:11:26Z</time>
      </trkpt>
      <trkpt lat="41.810216" lon="2.371837">
        <ele>1514.811</ele>
        <time>2021-06-12T15:12:04Z</time>
      </trkpt>
      <trkpt lat="41.810185" lon="2.371892">
        <ele>1514.208</ele>
        <time>2021-06-12T15:12:08Z</time>
      </trkpt>
      <trkpt lat="41.810154" lon="2.371939">
        <ele>1513.839</ele>
        <time>2021-06-12T15:12:12Z</time>
      </trkpt>
      <trkpt lat="41.810118" lon="2.371984">
        <ele>1513.427</ele>
        <time>2021-06-12T15:12:15Z</time>
      </trkpt>
      <trkpt lat="41.810087" lon="2.372036">
        <ele>1513.170</ele>
        <time>2021-06-12T15:12:19Z</time>
      </trkpt>
      <trkpt lat="41.810056" lon="2.372081">
        <ele>1512.835</ele>
        <time>2021-06-12T15:12:23Z</time>
      </trkpt>
      <trkpt lat="41.810027" lon="2.372142">
        <ele>1512.960</ele>
        <time>2021-06-12T15:12:47Z</time>
      </trkpt>
      <trkpt lat="41.810022" lon="2.372209">
        <ele>1513.157</ele>
        <time>2021-06-12T15:12:59Z</time>
      </trkpt>
      <trkpt lat="41.809995" lon="2.372263">
        <ele>1513.246</ele>
        <time>2021-06-12T15:13:05Z</time>
      </trkpt>
      <trkpt lat="41.809974" lon="2.372318">
        <ele>1513.352</ele>
        <time>2021-06-12T15:13:09Z</time>
      </trkpt>
      <trkpt lat="41.809950" lon="2.372383">
        <ele>1513.373</ele>
        <time>2021-06-12T15:13:15Z</time>
      </trkpt>
      <trkpt lat="41.809938" lon="2.372447">
        <ele>1513.185</ele>
        <time>2021-06-12T15:13:20Z</time>
      </trkpt>
      <trkpt lat="41.809911" lon="2.372497">
        <ele>1513.413</ele>
        <time>2021-06-12T15:13:27Z</time>
      </trkpt>
      <trkpt lat="41.809907" lon="2.372562">
        <ele>1514.208</ele>
        <time>2021-06-12T15:13:33Z</time>
      </trkpt>
      <trkpt lat="41.809886" lon="2.372622">
        <ele>1514.524</ele>
        <time>2021-06-12T15:13:39Z</time>
      </trkpt>
      <trkpt lat="41.809862" lon="2.372677">
        <ele>1514.772</ele>
        <time>2021-06-12T15:13:43Z</time>
      </trkpt>
      <trkpt lat="41.809836" lon="2.372739">
        <ele>1515.115</ele>
        <time>2021-06-12T15:13:48Z</time>
      </trkpt>
      <trkpt lat="41.809818" lon="2.372802">
        <ele>1515.480</ele>
        <time>2021-06-12T15:13:53Z</time>
      </trkpt>
      <trkpt lat="41.809803" lon="2.372859">
        <ele>1515.725</ele>
        <time>2021-06-12T15:13:58Z</time>
      </trkpt>
      <trkpt lat="41.809781" lon="2.372924">
        <ele>1516.192</ele>
        <time>2021-06-12T15:14:04Z</time>
      </trkpt>
      <trkpt lat="41.809759" lon="2.372979">
        <ele>1516.731</ele>
        <time>2021-06-12T15:14:12Z</time>
      </trkpt>
      <trkpt lat="41.809735" lon="2.373032">
        <ele>1517.227</ele>
        <time>2021-06-12T15:14:17Z</time>
      </trkpt>
      <trkpt lat="41.809766" lon="2.373078">
        <ele>1516.495</ele>
        <time>2021-06-12T15:15:00Z</time>
      </trkpt>
      <trkpt lat="41.809809" lon="2.373108">
        <ele>1516.049</ele>
        <time>2021-06-12T15:15:04Z</time>
      </trkpt>
      <trkpt lat="41.809840" lon="2.373161">
        <ele>1515.223</ele>
        <time>2021-06-12T15:15:08Z</time>
      </trkpt>
      <trkpt lat="41.809851" lon="2.373231">
        <ele>1514.908</ele>
        <time>2021-06-12T15:15:12Z</time>
      </trkpt>
      <trkpt lat="41.809848" lon="2.373294">
        <ele>1514.426</ele>
        <time>2021-06-12T15:15:30Z</time>
      </trkpt>
      <trkpt lat="41.809845" lon="2.373356">
        <ele>1513.974</ele>
        <time>2021-06-12T15:15:35Z</time>
      </trkpt>
      <trkpt lat="41.809844" lon="2.373418">
        <ele>1513.737</ele>
        <time>2021-06-12T15:15:39Z</time>
      </trkpt>
      <trkpt lat="41.809837" lon="2.373482">
        <ele>1513.892</ele>
        <time>2021-06-12T15:15:45Z</time>
      </trkpt>
      <trkpt lat="41.809854" lon="2.373539">
        <ele>1514.317</ele>
        <time>2021-06-12T15:15:50Z</time>
      </trkpt>
      <trkpt lat="41.809885" lon="2.373586">
        <ele>1514.644</ele>
        <time>2021-06-12T15:15:55Z</time>
      </trkpt>
      <trkpt lat="41.809933" lon="2.373592">
        <ele>1514.153</ele>
        <time>2021-06-12T15:16:01Z</time>
      </trkpt>
      <trkpt lat="41.809983" lon="2.373595">
        <ele>1513.919</ele>
        <time>2021-06-12T15:16:06Z</time>
      </trkpt>
      <trkpt lat="41.810029" lon="2.373603">
        <ele>1513.873</ele>
        <time>2021-06-12T15:16:10Z</time>
      </trkpt>
      <trkpt lat="41.810075" lon="2.373601">
        <ele>1513.685</ele>
        <time>2021-06-12T15:16:16Z</time>
      </trkpt>
      <trkpt lat="41.810124" lon="2.373600">
        <ele>1513.713</ele>
        <time>2021-06-12T15:16:21Z</time>
      </trkpt>
      <trkpt lat="41.810173" lon="2.373614">
        <ele>1513.908</ele>
        <time>2021-06-12T15:16:25Z</time>
      </trkpt>
      <trkpt lat="41.810228" lon="2.373635">
        <ele>1514.244</ele>
        <time>2021-06-12T15:16:29Z</time>
      </trkpt>
      <trkpt lat="41.810265" lon="2.373671">
        <ele>1514.382</ele>
        <time>2021-06-12T15:16:33Z</time>
      </trkpt>
      <trkpt lat="41.810294" lon="2.373722">
        <ele>1515.015</ele>
        <time>2021-06-12T15:16:37Z</time>
      </trkpt>
      <trkpt lat="41.810346" lon="2.373715">
        <ele>1515.230</ele>
        <time>2021-06-12T15:16:43Z</time>
      </trkpt>
      <trkpt lat="41.810383" lon="2.373759">
        <ele>1515.545</ele>
        <time>2021-06-12T15:16:48Z</time>
      </trkpt>
      <trkpt lat="41.810417" lon="2.373806">
        <ele>1515.592</ele>
        <time>2021-06-12T15:16:52Z</time>
      </trkpt>
      <trkpt lat="41.810444" lon="2.373860">
        <ele>1515.511</ele>
        <time>2021-06-12T15:16:57Z</time>
      </trkpt>
      <trkpt lat="41.810455" lon="2.373922">
        <ele>1515.547</ele>
        <time>2021-06-12T15:17:02Z</time>
      </trkpt>
      <trkpt lat="41.810446" lon="2.373987">
        <ele>1515.395</ele>
        <time>2021-06-12T15:17:06Z</time>
      </trkpt>
      <trkpt lat="41.810461" lon="2.374049">
        <ele>1515.049</ele>
        <time>2021-06-12T15:17:09Z</time>
      </trkpt>
      <trkpt lat="41.810475" lon="2.374111">
        <ele>1515.123</ele>
        <time>2021-06-12T15:17:13Z</time>
      </trkpt>
      <trkpt lat="41.810483" lon="2.374173">
        <ele>1515.008</ele>
        <time>2021-06-12T15:17:19Z</time>
      </trkpt>
      <trkpt lat="41.810510" lon="2.374229">
        <ele>1515.216</ele>
        <time>2021-06-12T15:17:28Z</time>
      </trkpt>
      <trkpt lat="41.810527" lon="2.374288">
        <ele>1514.564</ele>
        <time>2021-06-12T15:17:35Z</time>
      </trkpt>
      <trkpt lat="41.810504" lon="2.374343">
        <ele>1515.527</ele>
        <time>2021-06-12T15:18:05Z</time>
      </trkpt>
      <trkpt lat="41.810523" lon="2.374400">
        <ele>1515.992</ele>
        <time>2021-06-12T15:18:26Z</time>
      </trkpt>
      <trkpt lat="41.810491" lon="2.374445">
        <ele>1515.517</ele>
        <time>2021-06-12T15:18:48Z</time>
      </trkpt>
      <trkpt lat="41.810445" lon="2.374448">
        <ele>1515.044</ele>
        <time>2021-06-12T15:18:54Z</time>
      </trkpt>
      <trkpt lat="41.810408" lon="2.374485">
        <ele>1516.963</ele>
        <time>2021-06-12T15:19:02Z</time>
      </trkpt>
      <trkpt lat="41.810388" lon="2.374544">
        <ele>1517.559</ele>
        <time>2021-06-12T15:19:08Z</time>
      </trkpt>
      <trkpt lat="41.810380" lon="2.374606">
        <ele>1518.071</ele>
        <time>2021-06-12T15:19:14Z</time>
      </trkpt>
      <trkpt lat="41.810395" lon="2.374664">
        <ele>1517.941</ele>
        <time>2021-06-12T15:19:19Z</time>
      </trkpt>
      <trkpt lat="41.810425" lon="2.374714">
        <ele>1518.915</ele>
        <time>2021-06-12T15:19:42Z</time>
      </trkpt>
      <trkpt lat="41.810432" lon="2.374777">
        <ele>1519.608</ele>
        <time>2021-06-12T15:19:48Z</time>
      </trkpt>
      <trkpt lat="41.810457" lon="2.374829">
        <ele>1519.584</ele>
        <time>2021-06-12T15:20:20Z</time>
      </trkpt>
      <trkpt lat="41.810504" lon="2.374825">
        <ele>1519.782</ele>
        <time>2021-06-12T15:20:36Z</time>
      </trkpt>
      <trkpt lat="41.810526" lon="2.374770">
        <ele>1519.985</ele>
        <time>2021-06-12T15:20:42Z</time>
      </trkpt>
      <trkpt lat="41.810565" lon="2.374735">
        <ele>1520.630</ele>
        <time>2021-06-12T15:20:56Z</time>
      </trkpt>
      <trkpt lat="41.810571" lon="2.374927">
        <ele>1521.015</ele>
        <time>2021-06-12T15:21:17Z</time>
      </trkpt>
      <trkpt lat="41.810668" lon="2.375029">
        <ele>1519.962</ele>
        <time>2021-06-12T15:21:39Z</time>
      </trkpt>
      <trkpt lat="41.811002" lon="2.375312">
        <ele>1542.131</ele>
        <time>2021-06-12T15:33:42Z</time>
      </trkpt>
      <trkpt lat="41.811442" lon="2.375565">
        <ele>1543.127</ele>
        <time>2021-06-12T15:33:54Z</time>
      </trkpt>
      <trkpt lat="41.811440" lon="2.375625">
        <ele>1543.857</ele>
        <time>2021-06-12T15:34:13Z</time>
      </trkpt>
      <trkpt lat="41.811429" lon="2.375685">
        <ele>1544.800</ele>
        <time>2021-06-12T15:34:43Z</time>
      </trkpt>
      <trkpt lat="41.811397" lon="2.375730">
        <ele>1545.420</ele>
        <time>2021-06-12T15:34:49Z</time>
      </trkpt>
      <trkpt lat="41.811363" lon="2.375770">
        <ele>1546.208</ele>
        <time>2021-06-12T15:34:58Z</time>
      </trkpt>
      <trkpt lat="41.811330" lon="2.375817">
        <ele>1548.112</ele>
        <time>2021-06-12T15:35:17Z</time>
      </trkpt>
      <trkpt lat="41.811282" lon="2.375828">
        <ele>1549.010</ele>
        <time>2021-06-12T15:35:25Z</time>
      </trkpt>
      <trkpt lat="41.811246" lon="2.375868">
        <ele>1549.743</ele>
        <time>2021-06-12T15:35:33Z</time>
      </trkpt>
      <trkpt lat="41.811220" lon="2.375925">
        <ele>1550.998</ele>
        <time>2021-06-12T15:36:00Z</time>
      </trkpt>
      <trkpt lat="41.811210" lon="2.375987">
        <ele>1551.563</ele>
        <time>2021-06-12T15:36:06Z</time>
      </trkpt>
      <trkpt lat="41.811196" lon="2.376045">
        <ele>1552.690</ele>
        <time>2021-06-12T15:36:15Z</time>
      </trkpt>
      <trkpt lat="41.811174" lon="2.376103">
        <ele>1554.139</ele>
        <time>2021-06-12T15:36:30Z</time>
      </trkpt>
      <trkpt lat="41.811149" lon="2.376162">
        <ele>1554.835</ele>
        <time>2021-06-12T15:36:35Z</time>
      </trkpt>
      <trkpt lat="41.811115" lon="2.376204">
        <ele>1555.265</ele>
        <time>2021-06-12T15:36:44Z</time>
      </trkpt>
      <trkpt lat="41.811087" lon="2.376252">
        <ele>1555.468</ele>
        <time>2021-06-12T15:37:13Z</time>
      </trkpt>
      <trkpt lat="41.811094" lon="2.376317">
        <ele>1554.214</ele>
        <time>2021-06-12T15:37:41Z</time>
      </trkpt>
      <trkpt lat="41.811086" lon="2.376380">
        <ele>1554.308</ele>
        <time>2021-06-12T15:37:49Z</time>
      </trkpt>
      <trkpt lat="41.811133" lon="2.376358">
        <ele>1552.113</ele>
        <time>2021-06-12T15:38:02Z</time>
      </trkpt>
      <trkpt lat="41.811174" lon="2.376332">
        <ele>1550.871</ele>
        <time>2021-06-12T15:38:07Z</time>
      </trkpt>
      <trkpt lat="41.811219" lon="2.376328">
        <ele>1549.434</ele>
        <time>2021-06-12T15:38:14Z</time>
      </trkpt>
      <trkpt lat="41.811268" lon="2.376331">
        <ele>1548.249</ele>
        <time>2021-06-12T15:38:21Z</time>
      </trkpt>
      <trkpt lat="41.811313" lon="2.376338">
        <ele>1547.484</ele>
        <time>2021-06-12T15:38:24Z</time>
      </trkpt>
      <trkpt lat="41.811301" lon="2.376399">
        <ele>1546.951</ele>
        <time>2021-06-12T15:38:38Z</time>
      </trkpt>
      <trkpt lat="41.811272" lon="2.376446">
        <ele>1547.260</ele>
        <time>2021-06-12T15:38:43Z</time>
      </trkpt>
      <trkpt lat="41.811271" lon="2.376507">
        <ele>1547.376</ele>
        <time>2021-06-12T15:38:47Z</time>
      </trkpt>
      <trkpt lat="41.811245" lon="2.376562">
        <ele>1547.929</ele>
        <time>2021-06-12T15:38:54Z</time>
      </trkpt>
      <trkpt lat="41.811203" lon="2.376594">
        <ele>1548.700</ele>
        <time>2021-06-12T15:39:02Z</time>
      </trkpt>
      <trkpt lat="41.811163" lon="2.376631">
        <ele>1549.420</ele>
        <time>2021-06-12T15:39:12Z</time>
      </trkpt>
      <trkpt lat="41.811131" lon="2.376675">
        <ele>1550.108</ele>
        <time>2021-06-12T15:39:22Z</time>
      </trkpt>
      <trkpt lat="41.811094" lon="2.376711">
        <ele>1550.459</ele>
        <time>2021-06-12T15:39:33Z</time>
      </trkpt>
      <trkpt lat="41.811078" lon="2.376769">
        <ele>1551.447</ele>
        <time>2021-06-12T15:39:43Z</time>
      </trkpt>
      <trkpt lat="41.811083" lon="2.376832">
        <ele>1551.960</ele>
        <time>2021-06-12T15:39:51Z</time>
      </trkpt>
      <trkpt lat="41.811078" lon="2.376892">
        <ele>1552.475</ele>
        <time>2021-06-12T15:39:57Z</time>
      </trkpt>
      <trkpt lat="41.811048" lon="2.376937">
        <ele>1553.690</ele>
        <time>2021-06-12T15:40:08Z</time>
      </trkpt>
      <trkpt lat="41.811057" lon="2.377001">
        <ele>1553.677</ele>
        <time>2021-06-12T15:40:25Z</time>
      </trkpt>
      <trkpt lat="41.811022" lon="2.377040">
        <ele>1553.436</ele>
        <time>2021-06-12T15:41:13Z</time>
      </trkpt>
      <trkpt lat="41.810982" lon="2.377071">
        <ele>1554.412</ele>
        <time>2021-06-12T15:42:34Z</time>
      </trkpt>
      <trkpt lat="41.810940" lon="2.377108">
        <ele>1554.754</ele>
        <time>2021-06-12T15:42:39Z</time>
      </trkpt>
      <trkpt lat="41.810903" lon="2.377150">
        <ele>1555.056</ele>
        <time>2021-06-12T15:42:45Z</time>
      </trkpt>
      <trkpt lat="41.810866" lon="2.377188">
        <ele>1555.511</ele>
        <time>2021-06-12T15:42:49Z</time>
      </trkpt>
      <trkpt lat="41.810828" lon="2.377231">
        <ele>1555.908</ele>
        <time>2021-06-12T15:42:54Z</time>
      </trkpt>
      <trkpt lat="41.810783" lon="2.377209">
        <ele>1558.352</ele>
        <time>2021-06-12T15:43:24Z</time>
      </trkpt>
      <trkpt lat="41.810738" lon="2.377229">
        <ele>1559.540</ele>
        <time>2021-06-12T15:43:40Z</time>
      </trkpt>
      <trkpt lat="41.810691" lon="2.377243">
        <ele>1560.323</ele>
        <time>2021-06-12T15:43:48Z</time>
      </trkpt>
      <trkpt lat="41.810661" lon="2.377289">
        <ele>1563.268</ele>
        <time>2021-06-12T15:44:25Z</time>
      </trkpt>
      <trkpt lat="41.810614" lon="2.377290">
        <ele>1563.793</ele>
        <time>2021-06-12T15:44:39Z</time>
      </trkpt>
      <trkpt lat="41.810574" lon="2.377323">
        <ele>1564.550</ele>
        <time>2021-06-12T15:44:51Z</time>
      </trkpt>
      <trkpt lat="41.810531" lon="2.377346">
        <ele>1565.299</ele>
        <time>2021-06-12T15:45:00Z</time>
      </trkpt>
      <trkpt lat="41.810488" lon="2.377370">
        <ele>1566.715</ele>
        <time>2021-06-12T15:45:19Z</time>
      </trkpt>
      <trkpt lat="41.810443" lon="2.377403">
        <ele>1566.987</ele>
        <time>2021-06-12T15:45:26Z</time>
      </trkpt>
      <trkpt lat="41.810398" lon="2.377446">
        <ele>1567.342</ele>
        <time>2021-06-12T15:45:31Z</time>
      </trkpt>
      <trkpt lat="41.810361" lon="2.377482">
        <ele>1567.526</ele>
        <time>2021-06-12T15:45:35Z</time>
      </trkpt>
      <trkpt lat="41.810326" lon="2.377528">
        <ele>1567.708</ele>
        <time>2021-06-12T15:45:40Z</time>
      </trkpt>
      <trkpt lat="41.810290" lon="2.377577">
        <ele>1568.095</ele>
        <time>2021-06-12T15:45:45Z</time>
      </trkpt>
      <trkpt lat="41.810258" lon="2.377622">
        <ele>1569.913</ele>
        <time>2021-06-12T15:46:05Z</time>
      </trkpt>
      <trkpt lat="41.810221" lon="2.377656">
        <ele>1571.016</ele>
        <time>2021-06-12T15:46:16Z</time>
      </trkpt>
      <trkpt lat="41.810182" lon="2.377686">
        <ele>1571.341</ele>
        <time>2021-06-12T15:46:21Z</time>
      </trkpt>
      <trkpt lat="41.810145" lon="2.377727">
        <ele>1571.716</ele>
        <time>2021-06-12T15:46:29Z</time>
      </trkpt>
      <trkpt lat="41.810117" lon="2.377776">
        <ele>1572.353</ele>
        <time>2021-06-12T15:46:38Z</time>
      </trkpt>
      <trkpt lat="41.810091" lon="2.377833">
        <ele>1572.292</ele>
        <time>2021-06-12T15:46:43Z</time>
      </trkpt>
      <trkpt lat="41.810054" lon="2.377873">
        <ele>1572.498</ele>
        <time>2021-06-12T15:46:48Z</time>
      </trkpt>
      <trkpt lat="41.810031" lon="2.377932">
        <ele>1572.434</ele>
        <time>2021-06-12T15:46:52Z</time>
      </trkpt>
      <trkpt lat="41.809994" lon="2.377970">
        <ele>1572.555</ele>
        <time>2021-06-12T15:46:56Z</time>
      </trkpt>
      <trkpt lat="41.809975" lon="2.378026">
        <ele>1572.310</ele>
        <time>2021-06-12T15:47:01Z</time>
      </trkpt>
      <trkpt lat="41.809979" lon="2.378093">
        <ele>1573.008</ele>
        <time>2021-06-12T15:47:07Z</time>
      </trkpt>
      <trkpt lat="41.809991" lon="2.378158">
        <ele>1573.230</ele>
        <time>2021-06-12T15:47:13Z</time>
      </trkpt>
      <trkpt lat="41.809997" lon="2.378219">
        <ele>1573.588</ele>
        <time>2021-06-12T15:47:17Z</time>
      </trkpt>
      <trkpt lat="41.809991" lon="2.378279">
        <ele>1574.731</ele>
        <time>2021-06-12T15:47:29Z</time>
      </trkpt>
      <trkpt lat="41.809962" lon="2.378333">
        <ele>1575.256</ele>
        <time>2021-06-12T15:47:37Z</time>
      </trkpt>
      <trkpt lat="41.809915" lon="2.378358">
        <ele>1575.731</ele>
        <time>2021-06-12T15:47:43Z</time>
      </trkpt>
      <trkpt lat="41.809872" lon="2.378384">
        <ele>1576.258</ele>
        <time>2021-06-12T15:47:49Z</time>
      </trkpt>
      <trkpt lat="41.809870" lon="2.378445">
        <ele>1576.617</ele>
        <time>2021-06-12T15:47:57Z</time>
      </trkpt>
      <trkpt lat="41.809863" lon="2.378505">
        <ele>1577.313</ele>
        <time>2021-06-12T15:48:03Z</time>
      </trkpt>
      <trkpt lat="41.809828" lon="2.378547">
        <ele>1578.248</ele>
        <time>2021-06-12T15:48:15Z</time>
      </trkpt>
      <trkpt lat="41.809787" lon="2.378577">
        <ele>1578.661</ele>
        <time>2021-06-12T15:48:27Z</time>
      </trkpt>
      <trkpt lat="41.809773" lon="2.378636">
        <ele>1580.217</ele>
        <time>2021-06-12T15:48:44Z</time>
      </trkpt>
      <trkpt lat="41.809753" lon="2.378693">
        <ele>1581.208</ele>
        <time>2021-06-12T15:48:52Z</time>
      </trkpt>
      <trkpt lat="41.809734" lon="2.378749">
        <ele>1581.891</ele>
        <time>2021-06-12T15:48:58Z</time>
      </trkpt>
      <trkpt lat="41.809694" lon="2.378782">
        <ele>1582.999</ele>
        <time>2021-06-12T15:49:15Z</time>
      </trkpt>
      <trkpt lat="41.809644" lon="2.378816">
        <ele>1583.532</ele>
        <time>2021-06-12T15:49:29Z</time>
      </trkpt>
      <trkpt lat="41.809603" lon="2.378844">
        <ele>1584.097</ele>
        <time>2021-06-12T15:49:34Z</time>
      </trkpt>
      <trkpt lat="41.809573" lon="2.378895">
        <ele>1584.152</ele>
        <time>2021-06-12T15:49:40Z</time>
      </trkpt>
      <trkpt lat="41.809545" lon="2.378942">
        <ele>1584.579</ele>
        <time>2021-06-12T15:49:46Z</time>
      </trkpt>
      <trkpt lat="41.809539" lon="2.379004">
        <ele>1585.088</ele>
        <time>2021-06-12T15:49:52Z</time>
      </trkpt>
      <trkpt lat="41.809529" lon="2.379067">
        <ele>1585.524</ele>
        <time>2021-06-12T15:50:05Z</time>
      </trkpt>
      <trkpt lat="41.809507" lon="2.379120">
        <ele>1586.214</ele>
        <time>2021-06-12T15:50:46Z</time>
      </trkpt>
      <trkpt lat="41.809472" lon="2.379160">
        <ele>1587.854</ele>
        <time>2021-06-12T15:50:58Z</time>
      </trkpt>
      <trkpt lat="41.809430" lon="2.379181">
        <ele>1589.009</ele>
        <time>2021-06-12T15:51:08Z</time>
      </trkpt>
      <trkpt lat="41.809397" lon="2.379225">
        <ele>1590.208</ele>
        <time>2021-06-12T15:51:41Z</time>
      </trkpt>
      <trkpt lat="41.809352" lon="2.379234">
        <ele>1591.988</ele>
        <time>2021-06-12T15:51:58Z</time>
      </trkpt>
      <trkpt lat="41.809359" lon="2.379295">
        <ele>1592.916</ele>
        <time>2021-06-12T15:52:12Z</time>
      </trkpt>
      <trkpt lat="41.809356" lon="2.379358">
        <ele>1593.769</ele>
        <time>2021-06-12T15:52:22Z</time>
      </trkpt>
      <trkpt lat="41.809336" lon="2.379417">
        <ele>1594.714</ele>
        <time>2021-06-12T15:52:31Z</time>
      </trkpt>
      <trkpt lat="41.809303" lon="2.379459">
        <ele>1594.919</ele>
        <time>2021-06-12T15:52:49Z</time>
      </trkpt>
      <trkpt lat="41.809297" lon="2.379527">
        <ele>1595.826</ele>
        <time>2021-06-12T15:53:13Z</time>
      </trkpt>
      <trkpt lat="41.809283" lon="2.379587">
        <ele>1596.415</ele>
        <time>2021-06-12T15:53:19Z</time>
      </trkpt>
      <trkpt lat="41.809252" lon="2.379635">
        <ele>1597.621</ele>
        <time>2021-06-12T15:53:45Z</time>
      </trkpt>
      <trkpt lat="41.809210" lon="2.379659">
        <ele>1598.593</ele>
        <time>2021-06-12T15:53:54Z</time>
      </trkpt>
      <trkpt lat="41.809168" lon="2.379685">
        <ele>1598.665</ele>
        <time>2021-06-12T15:54:19Z</time>
      </trkpt>
      <trkpt lat="41.809142" lon="2.379744">
        <ele>1599.221</ele>
        <time>2021-06-12T15:54:24Z</time>
      </trkpt>
      <trkpt lat="41.809119" lon="2.379805">
        <ele>1600.008</ele>
        <time>2021-06-12T15:55:16Z</time>
      </trkpt>
      <trkpt lat="41.809115" lon="2.379867">
        <ele>1600.516</ele>
        <time>2021-06-12T15:55:22Z</time>
      </trkpt>
      <trkpt lat="41.809110" lon="2.379927">
        <ele>1602.054</ele>
        <time>2021-06-12T15:55:35Z</time>
      </trkpt>
      <trkpt lat="41.809123" lon="2.379986">
        <ele>1602.437</ele>
        <time>2021-06-12T15:55:40Z</time>
      </trkpt>
      <trkpt lat="41.809138" lon="2.380052">
        <ele>1602.732</ele>
        <time>2021-06-12T15:55:46Z</time>
      </trkpt>
      <trkpt lat="41.809114" lon="2.380115">
        <ele>1603.287</ele>
        <time>2021-06-12T15:55:52Z</time>
      </trkpt>
      <trkpt lat="41.809094" lon="2.380171">
        <ele>1604.024</ele>
        <time>2021-06-12T15:55:58Z</time>
      </trkpt>
      <trkpt lat="41.809073" lon="2.380231">
        <ele>1604.973</ele>
        <time>2021-06-12T15:56:05Z</time>
      </trkpt>
      <trkpt lat="41.809083" lon="2.380292">
        <ele>1606.329</ele>
        <time>2021-06-12T15:56:40Z</time>
      </trkpt>
      <trkpt lat="41.809102" lon="2.380351">
        <ele>1608.699</ele>
        <time>2021-06-12T15:57:05Z</time>
      </trkpt>
      <trkpt lat="41.809109" lon="2.380411">
        <ele>1609.807</ele>
        <time>2021-06-12T15:57:14Z</time>
      </trkpt>
      <trkpt lat="41.809117" lon="2.380477">
        <ele>1610.527</ele>
        <time>2021-06-12T15:57:40Z</time>
      </trkpt>
      <trkpt lat="41.809122" lon="2.380538">
        <ele>1611.608</ele>
        <time>2021-06-12T15:57:50Z</time>
      </trkpt>
      <trkpt lat="41.809093" lon="2.380596">
        <ele>1613.046</ele>
        <time>2021-06-12T15:58:04Z</time>
      </trkpt>
      <trkpt lat="41.809078" lon="2.380656">
        <ele>1613.684</ele>
        <time>2021-06-12T15:58:11Z</time>
      </trkpt>
      <trkpt lat="41.809069" lon="2.380717">
        <ele>1614.847</ele>
        <time>2021-06-12T15:58:24Z</time>
      </trkpt>
      <trkpt lat="41.809046" lon="2.380769">
        <ele>1616.312</ele>
        <time>2021-06-12T15:58:59Z</time>
      </trkpt>
      <trkpt lat="41.809018" lon="2.380820">
        <ele>1617.177</ele>
        <time>2021-06-12T15:59:07Z</time>
      </trkpt>
      <trkpt lat="41.809000" lon="2.380876">
        <ele>1618.034</ele>
        <time>2021-06-12T15:59:16Z</time>
      </trkpt>
      <trkpt lat="41.808985" lon="2.380934">
        <ele>1619.083</ele>
        <time>2021-06-12T15:59:26Z</time>
      </trkpt>
      <trkpt lat="41.809004" lon="2.380990">
        <ele>1620.779</ele>
        <time>2021-06-12T15:59:55Z</time>
      </trkpt>
      <trkpt lat="41.809049" lon="2.380998">
        <ele>1620.622</ele>
        <time>2021-06-12T16:04:50Z</time>
      </trkpt>
      <trkpt lat="41.809059" lon="2.381059">
        <ele>1623.562</ele>
        <time>2021-06-12T16:06:02Z</time>
      </trkpt>
      <trkpt lat="41.809063" lon="2.381120">
        <ele>1624.208</ele>
        <time>2021-06-12T16:06:14Z</time>
      </trkpt>
      <trkpt lat="41.809056" lon="2.381184">
        <ele>1625.808</ele>
        <time>2021-06-12T16:06:31Z</time>
      </trkpt>
      <trkpt lat="41.809036" lon="2.381238">
        <ele>1626.059</ele>
        <time>2021-06-12T16:06:51Z</time>
      </trkpt>
      <trkpt lat="41.808997" lon="2.381269">
        <ele>1627.567</ele>
        <time>2021-06-12T16:07:20Z</time>
      </trkpt>
      <trkpt lat="41.808968" lon="2.381319">
        <ele>1628.750</ele>
        <time>2021-06-12T16:07:32Z</time>
      </trkpt>
      <trkpt lat="41.808949" lon="2.381376">
        <ele>1629.665</ele>
        <time>2021-06-12T16:07:43Z</time>
      </trkpt>
      <trkpt lat="41.808912" lon="2.381414">
        <ele>1630.410</ele>
        <time>2021-06-12T16:07:54Z</time>
      </trkpt>
      <trkpt lat="41.808890" lon="2.381471">
        <ele>1631.197</ele>
        <time>2021-06-12T16:08:06Z</time>
      </trkpt>
      <trkpt lat="41.808885" lon="2.381533">
        <ele>1632.336</ele>
        <time>2021-06-12T16:08:45Z</time>
      </trkpt>
      <trkpt lat="41.808856" lon="2.381579">
        <ele>1633.452</ele>
        <time>2021-06-12T16:08:56Z</time>
      </trkpt>
      <trkpt lat="41.808819" lon="2.381621">
        <ele>1634.087</ele>
        <time>2021-06-12T16:09:01Z</time>
      </trkpt>
      <trkpt lat="41.808793" lon="2.381673">
        <ele>1635.142</ele>
        <time>2021-06-12T16:09:12Z</time>
      </trkpt>
      <trkpt lat="41.808783" lon="2.381737">
        <ele>1636.926</ele>
        <time>2021-06-12T16:09:54Z</time>
      </trkpt>
      <trkpt lat="41.808765" lon="2.381795">
        <ele>1637.808</ele>
        <time>2021-06-12T16:10:03Z</time>
      </trkpt>
      <trkpt lat="41.808739" lon="2.381847">
        <ele>1638.455</ele>
        <time>2021-06-12T16:10:11Z</time>
      </trkpt>
      <trkpt lat="41.808753" lon="2.381905">
        <ele>1639.463</ele>
        <time>2021-06-12T16:13:31Z</time>
      </trkpt>
      <trkpt lat="41.808741" lon="2.381971">
        <ele>1640.476</ele>
        <time>2021-06-12T16:13:43Z</time>
      </trkpt>
      <trkpt lat="41.808731" lon="2.382033">
        <ele>1641.791</ele>
        <time>2021-06-12T16:13:57Z</time>
      </trkpt>
      <trkpt lat="41.808707" lon="2.382086">
        <ele>1642.676</ele>
        <time>2021-06-12T16:14:08Z</time>
      </trkpt>
      <trkpt lat="41.808693" lon="2.382146">
        <ele>1643.643</ele>
        <time>2021-06-12T16:14:17Z</time>
      </trkpt>
      <trkpt lat="41.808675" lon="2.382201">
        <ele>1643.952</ele>
        <time>2021-06-12T16:14:28Z</time>
      </trkpt>
      <trkpt lat="41.808651" lon="2.382256">
        <ele>1644.418</ele>
        <time>2021-06-12T16:14:38Z</time>
      </trkpt>
      <trkpt lat="41.808643" lon="2.382317">
        <ele>1645.312</ele>
        <time>2021-06-12T16:14:45Z</time>
      </trkpt>
      <trkpt lat="41.808640" lon="2.382378">
        <ele>1645.732</ele>
        <time>2021-06-12T16:14:53Z</time>
      </trkpt>
      <trkpt lat="41.808631" lon="2.382438">
        <ele>1646.605</ele>
        <time>2021-06-12T16:15:01Z</time>
      </trkpt>
      <trkpt lat="41.808635" lon="2.382499">
        <ele>1647.708</ele>
        <time>2021-06-12T16:15:10Z</time>
      </trkpt>
      <trkpt lat="41.808642" lon="2.382560">
        <ele>1648.618</ele>
        <time>2021-06-12T16:15:17Z</time>
      </trkpt>
      <trkpt lat="41.808641" lon="2.382623">
        <ele>1649.796</ele>
        <time>2021-06-12T16:15:26Z</time>
      </trkpt>
      <trkpt lat="41.808644" lon="2.382688">
        <ele>1649.819</ele>
        <time>2021-06-12T16:15:31Z</time>
      </trkpt>
      <trkpt lat="41.808735" lon="2.382677">
        <ele>1680.154</ele>
        <time>2021-06-12T16:46:20Z</time>
      </trkpt>
      <trkpt lat="41.808768" lon="2.382721">
        <ele>1664.639</ele>
        <time>2021-06-12T16:47:15Z</time>
      </trkpt>
      <trkpt lat="41.808749" lon="2.382666">
        <ele>1650.856</ele>
        <time>2021-06-12T16:48:21Z</time>
      </trkpt>
      <trkpt lat="41.808792" lon="2.382649">
        <ele>1650.355</ele>
        <time>2021-06-12T16:48:49Z</time>
      </trkpt>
      <trkpt lat="41.808829" lon="2.382604">
        <ele>1649.291</ele>
        <time>2021-06-12T16:49:02Z</time>
      </trkpt>
      <trkpt lat="41.808826" lon="2.382542">
        <ele>1648.373</ele>
        <time>2021-06-12T16:49:06Z</time>
      </trkpt>
      <trkpt lat="41.808816" lon="2.382482">
        <ele>1648.085</ele>
        <time>2021-06-12T16:49:09Z</time>
      </trkpt>
      <trkpt lat="41.808821" lon="2.382419">
        <ele>1647.113</ele>
        <time>2021-06-12T16:49:14Z</time>
      </trkpt>
      <trkpt lat="41.808837" lon="2.382354">
        <ele>1646.608</ele>
        <time>2021-06-12T16:49:21Z</time>
      </trkpt>
      <trkpt lat="41.808802" lon="2.382303">
        <ele>1644.314</ele>
        <time>2021-06-12T16:49:36Z</time>
      </trkpt>
      <trkpt lat="41.808785" lon="2.382241">
        <ele>1644.822</ele>
        <time>2021-06-12T16:49:42Z</time>
      </trkpt>
      <trkpt lat="41.808758" lon="2.382188">
        <ele>1643.675</ele>
        <time>2021-06-12T16:49:45Z</time>
      </trkpt>
      <trkpt lat="41.808732" lon="2.382138">
        <ele>1641.760</ele>
        <time>2021-06-12T16:49:49Z</time>
      </trkpt>
      <trkpt lat="41.808722" lon="2.382077">
        <ele>1640.835</ele>
        <time>2021-06-12T16:49:54Z</time>
      </trkpt>
      <trkpt lat="41.808736" lon="2.382018">
        <ele>1639.652</ele>
        <time>2021-06-12T16:49:59Z</time>
      </trkpt>
      <trkpt lat="41.808751" lon="2.381957">
        <ele>1639.141</ele>
        <time>2021-06-12T16:50:04Z</time>
      </trkpt>
      <trkpt lat="41.808739" lon="2.381894">
        <ele>1638.917</ele>
        <time>2021-06-12T16:50:09Z</time>
      </trkpt>
      <trkpt lat="41.808716" lon="2.381839">
        <ele>1637.275</ele>
        <time>2021-06-12T16:50:14Z</time>
      </trkpt>
      <trkpt lat="41.808717" lon="2.381778">
        <ele>1634.928</ele>
        <time>2021-06-12T16:50:20Z</time>
      </trkpt>
      <trkpt lat="41.808754" lon="2.381728">
        <ele>1633.820</ele>
        <time>2021-06-12T16:50:25Z</time>
      </trkpt>
      <trkpt lat="41.808791" lon="2.381691">
        <ele>1634.908</ele>
        <time>2021-06-12T16:50:29Z</time>
      </trkpt>
      <trkpt lat="41.808803" lon="2.381632">
        <ele>1633.974</ele>
        <time>2021-06-12T16:50:35Z</time>
      </trkpt>
      <trkpt lat="41.808778" lon="2.381579">
        <ele>1632.722</ele>
        <time>2021-06-12T16:50:56Z</time>
      </trkpt>
      <trkpt lat="41.808783" lon="2.381516">
        <ele>1631.985</ele>
        <time>2021-06-12T16:51:02Z</time>
      </trkpt>
      <trkpt lat="41.808815" lon="2.381474">
        <ele>1630.840</ele>
        <time>2021-06-12T16:51:06Z</time>
      </trkpt>
      <trkpt lat="41.808849" lon="2.381435">
        <ele>1630.125</ele>
        <time>2021-06-12T16:51:10Z</time>
      </trkpt>
      <trkpt lat="41.808861" lon="2.381375">
        <ele>1629.852</ele>
        <time>2021-06-12T16:51:15Z</time>
      </trkpt>
      <trkpt lat="41.808846" lon="2.381316">
        <ele>1627.841</ele>
        <time>2021-06-12T16:51:22Z</time>
      </trkpt>
      <trkpt lat="41.808877" lon="2.381263">
        <ele>1627.237</ele>
        <time>2021-06-12T16:51:27Z</time>
      </trkpt>
      <trkpt lat="41.808912" lon="2.381216">
        <ele>1626.086</ele>
        <time>2021-06-12T16:51:32Z</time>
      </trkpt>
      <trkpt lat="41.808932" lon="2.381154">
        <ele>1624.960</ele>
        <time>2021-06-12T16:51:37Z</time>
      </trkpt>
      <trkpt lat="41.808972" lon="2.381117">
        <ele>1624.726</ele>
        <time>2021-06-12T16:51:41Z</time>
      </trkpt>
      <trkpt lat="41.808967" lon="2.381055">
        <ele>1624.208</ele>
        <time>2021-06-12T16:51:47Z</time>
      </trkpt>
      <trkpt lat="41.808942" lon="2.381000">
        <ele>1623.045</ele>
        <time>2021-06-12T16:51:53Z</time>
      </trkpt>
      <trkpt lat="41.808916" lon="2.380946">
        <ele>1621.433</ele>
        <time>2021-06-12T16:51:57Z</time>
      </trkpt>
      <trkpt lat="41.808923" lon="2.380882">
        <ele>1620.576</ele>
        <time>2021-06-12T16:52:02Z</time>
      </trkpt>
      <trkpt lat="41.808946" lon="2.380827">
        <ele>1619.671</ele>
        <time>2021-06-12T16:52:08Z</time>
      </trkpt>
      <trkpt lat="41.808981" lon="2.380786">
        <ele>1618.716</ele>
        <time>2021-06-12T16:52:15Z</time>
      </trkpt>
      <trkpt lat="41.808973" lon="2.380720">
        <ele>1617.583</ele>
        <time>2021-06-12T16:52:23Z</time>
      </trkpt>
      <trkpt lat="41.808958" lon="2.380657">
        <ele>1616.612</ele>
        <time>2021-06-12T16:52:28Z</time>
      </trkpt>
      <trkpt lat="41.808913" lon="2.380619">
        <ele>1615.448</ele>
        <time>2021-06-12T16:52:33Z</time>
      </trkpt>
      <trkpt lat="41.808881" lon="2.380564">
        <ele>1614.683</ele>
        <time>2021-06-12T16:52:38Z</time>
      </trkpt>
      <trkpt lat="41.808860" lon="2.380500">
        <ele>1613.525</ele>
        <time>2021-06-12T16:52:43Z</time>
      </trkpt>
      <trkpt lat="41.808843" lon="2.380443">
        <ele>1613.017</ele>
        <time>2021-06-12T16:52:47Z</time>
      </trkpt>
      <trkpt lat="41.808830" lon="2.380381">
        <ele>1610.908</ele>
        <time>2021-06-12T16:53:11Z</time>
      </trkpt>
      <trkpt lat="41.808834" lon="2.380311">
        <ele>1610.185</ele>
        <time>2021-06-12T16:53:16Z</time>
      </trkpt>
      <trkpt lat="41.808835" lon="2.380246">
        <ele>1609.953</ele>
        <time>2021-06-12T16:53:20Z</time>
      </trkpt>
      <trkpt lat="41.808833" lon="2.380182">
        <ele>1608.226</ele>
        <time>2021-06-12T16:53:25Z</time>
      </trkpt>
      <trkpt lat="41.808834" lon="2.380116">
        <ele>1607.551</ele>
        <time>2021-06-12T16:53:30Z</time>
      </trkpt>
      <trkpt lat="41.808850" lon="2.380052">
        <ele>1606.586</ele>
        <time>2021-06-12T16:53:34Z</time>
      </trkpt>
      <trkpt lat="41.808854" lon="2.379989">
        <ele>1606.593</ele>
        <time>2021-06-12T16:53:39Z</time>
      </trkpt>
      <trkpt lat="41.808862" lon="2.379926">
        <ele>1606.112</ele>
        <time>2021-06-12T16:53:43Z</time>
      </trkpt>
      <trkpt lat="41.808868" lon="2.379861">
        <ele>1605.818</ele>
        <time>2021-06-12T16:53:47Z</time>
      </trkpt>
      <trkpt lat="41.808871" lon="2.379797">
        <ele>1604.494</ele>
        <time>2021-06-12T16:53:51Z</time>
      </trkpt>
      <trkpt lat="41.808894" lon="2.379745">
        <ele>1604.557</ele>
        <time>2021-06-12T16:53:56Z</time>
      </trkpt>
      <trkpt lat="41.808922" lon="2.379695">
        <ele>1603.922</ele>
        <time>2021-06-12T16:54:02Z</time>
      </trkpt>
      <trkpt lat="41.808862" lon="2.379696">
        <ele>1603.408</ele>
        <time>2021-06-12T16:54:27Z</time>
      </trkpt>
      <trkpt lat="41.808814" lon="2.379711">
        <ele>1603.586</ele>
        <time>2021-06-12T16:54:30Z</time>
      </trkpt>
      <trkpt lat="41.808767" lon="2.379713">
        <ele>1603.514</ele>
        <time>2021-06-12T16:54:33Z</time>
      </trkpt>
      <trkpt lat="41.808716" lon="2.379727">
        <ele>1602.457</ele>
        <time>2021-06-12T16:54:38Z</time>
      </trkpt>
      <trkpt lat="41.808668" lon="2.379737">
        <ele>1602.882</ele>
        <time>2021-06-12T16:54:42Z</time>
      </trkpt>
      <trkpt lat="41.808622" lon="2.379727">
        <ele>1602.667</ele>
        <time>2021-06-12T16:54:45Z</time>
      </trkpt>
      <trkpt lat="41.808576" lon="2.379719">
        <ele>1602.384</ele>
        <time>2021-06-12T16:54:48Z</time>
      </trkpt>
      <trkpt lat="41.808530" lon="2.379729">
        <ele>1602.013</ele>
        <time>2021-06-12T16:54:52Z</time>
      </trkpt>
      <trkpt lat="41.808482" lon="2.379740">
        <ele>1602.139</ele>
        <time>2021-06-12T16:54:56Z</time>
      </trkpt>
      <trkpt lat="41.808434" lon="2.379747">
        <ele>1601.924</ele>
        <time>2021-06-12T16:55:00Z</time>
      </trkpt>
      <trkpt lat="41.808388" lon="2.379736">
        <ele>1601.304</ele>
        <time>2021-06-12T16:55:04Z</time>
      </trkpt>
      <trkpt lat="41.808335" lon="2.379746">
        <ele>1601.114</ele>
        <time>2021-06-12T16:55:10Z</time>
      </trkpt>
      <trkpt lat="41.808287" lon="2.379768">
        <ele>1600.708</ele>
        <time>2021-06-12T16:55:16Z</time>
      </trkpt>
      <trkpt lat="41.808253" lon="2.379714">
        <ele>1599.979</ele>
        <time>2021-06-12T16:55:21Z</time>
      </trkpt>
      <trkpt lat="41.808229" lon="2.379661">
        <ele>1598.597</ele>
        <time>2021-06-12T16:55:32Z</time>
      </trkpt>
      <trkpt lat="41.808193" lon="2.379617">
        <ele>1597.230</ele>
        <time>2021-06-12T16:55:40Z</time>
      </trkpt>
      <trkpt lat="41.808147" lon="2.379596">
        <ele>1596.595</ele>
        <time>2021-06-12T16:55:45Z</time>
      </trkpt>
      <trkpt lat="41.808110" lon="2.379554">
        <ele>1595.550</ele>
        <time>2021-06-12T16:55:51Z</time>
      </trkpt>
      <trkpt lat="41.808101" lon="2.379489">
        <ele>1594.097</ele>
        <time>2021-06-12T16:56:01Z</time>
      </trkpt>
      <trkpt lat="41.808110" lon="2.379428">
        <ele>1592.566</ele>
        <time>2021-06-12T16:56:05Z</time>
      </trkpt>
      <trkpt lat="41.808117" lon="2.379368">
        <ele>1591.792</ele>
        <time>2021-06-12T16:56:09Z</time>
      </trkpt>
      <trkpt lat="41.808073" lon="2.379340">
        <ele>1589.779</ele>
        <time>2021-06-12T16:56:15Z</time>
      </trkpt>
      <trkpt lat="41.808026" lon="2.379345">
        <ele>1589.005</ele>
        <time>2021-06-12T16:56:21Z</time>
      </trkpt>
      <trkpt lat="41.807985" lon="2.379317">
        <ele>1588.025</ele>
        <time>2021-06-12T16:56:26Z</time>
      </trkpt>
      <trkpt lat="41.807939" lon="2.379323">
        <ele>1586.508</ele>
        <time>2021-06-12T16:56:32Z</time>
      </trkpt>
      <trkpt lat="41.807909" lon="2.379274">
        <ele>1583.964</ele>
        <time>2021-06-12T16:56:51Z</time>
      </trkpt>
      <trkpt lat="41.807867" lon="2.379238">
        <ele>1583.282</ele>
        <time>2021-06-12T16:56:56Z</time>
      </trkpt>
      <trkpt lat="41.807824" lon="2.379209">
        <ele>1582.135</ele>
        <time>2021-06-12T16:56:59Z</time>
      </trkpt>
      <trkpt lat="41.807780" lon="2.379191">
        <ele>1581.810</ele>
        <time>2021-06-12T16:57:02Z</time>
      </trkpt>
      <trkpt lat="41.807735" lon="2.379170">
        <ele>1579.895</ele>
        <time>2021-06-12T16:57:14Z</time>
      </trkpt>
      <trkpt lat="41.807687" lon="2.379186">
        <ele>1578.072</ele>
        <time>2021-06-12T16:57:21Z</time>
      </trkpt>
      <trkpt lat="41.807656" lon="2.379141">
        <ele>1577.091</ele>
        <time>2021-06-12T16:57:27Z</time>
      </trkpt>
      <trkpt lat="41.807620" lon="2.379104">
        <ele>1575.427</ele>
        <time>2021-06-12T16:57:37Z</time>
      </trkpt>
      <trkpt lat="41.807595" lon="2.379049">
        <ele>1573.975</ele>
        <time>2021-06-12T16:57:42Z</time>
      </trkpt>
      <trkpt lat="41.807584" lon="2.378988">
        <ele>1572.928</ele>
        <time>2021-06-12T16:57:47Z</time>
      </trkpt>
      <trkpt lat="41.807577" lon="2.378920">
        <ele>1572.220</ele>
        <time>2021-06-12T16:57:52Z</time>
      </trkpt>
      <trkpt lat="41.807566" lon="2.378861">
        <ele>1572.008</ele>
        <time>2021-06-12T16:57:56Z</time>
      </trkpt>
      <trkpt lat="41.807552" lon="2.378799">
        <ele>1571.184</ele>
        <time>2021-06-12T16:58:00Z</time>
      </trkpt>
      <trkpt lat="41.807539" lon="2.378741">
        <ele>1569.772</ele>
        <time>2021-06-12T16:58:06Z</time>
      </trkpt>
      <trkpt lat="41.807513" lon="2.378692">
        <ele>1568.485</ele>
        <time>2021-06-12T16:58:13Z</time>
      </trkpt>
      <trkpt lat="41.807467" lon="2.378684">
        <ele>1566.440</ele>
        <time>2021-06-12T16:58:24Z</time>
      </trkpt>
      <trkpt lat="41.807420" lon="2.378669">
        <ele>1564.485</ele>
        <time>2021-06-12T16:58:33Z</time>
      </trkpt>
      <trkpt lat="41.807385" lon="2.378630">
        <ele>1562.632</ele>
        <time>2021-06-12T16:58:42Z</time>
      </trkpt>
      <trkpt lat="41.807373" lon="2.378569">
        <ele>1561.691</ele>
        <time>2021-06-12T16:58:46Z</time>
      </trkpt>
      <trkpt lat="41.807346" lon="2.378514">
        <ele>1561.277</ele>
        <time>2021-06-12T16:58:50Z</time>
      </trkpt>
      <trkpt lat="41.807312" lon="2.378470">
        <ele>1559.251</ele>
        <time>2021-06-12T16:58:56Z</time>
      </trkpt>
      <trkpt lat="41.807266" lon="2.378502">
        <ele>1558.901</ele>
        <time>2021-06-12T16:59:04Z</time>
      </trkpt>
      <trkpt lat="41.807219" lon="2.378484">
        <ele>1556.711</ele>
        <time>2021-06-12T16:59:11Z</time>
      </trkpt>
      <trkpt lat="41.807203" lon="2.378425">
        <ele>1555.608</ele>
        <time>2021-06-12T16:59:16Z</time>
      </trkpt>
      <trkpt lat="41.807181" lon="2.378366">
        <ele>1554.892</ele>
        <time>2021-06-12T16:59:21Z</time>
      </trkpt>
      <trkpt lat="41.807176" lon="2.378301">
        <ele>1554.240</ele>
        <time>2021-06-12T16:59:25Z</time>
      </trkpt>
      <trkpt lat="41.807132" lon="2.378273">
        <ele>1553.253</ele>
        <time>2021-06-12T16:59:32Z</time>
      </trkpt>
      <trkpt lat="41.807084" lon="2.378250">
        <ele>1551.478</ele>
        <time>2021-06-12T16:59:37Z</time>
      </trkpt>
      <trkpt lat="41.807043" lon="2.378212">
        <ele>1550.863</ele>
        <time>2021-06-12T16:59:41Z</time>
      </trkpt>
      <trkpt lat="41.806998" lon="2.378201">
        <ele>1550.010</ele>
        <time>2021-06-12T16:59:47Z</time>
      </trkpt>
      <trkpt lat="41.806954" lon="2.378183">
        <ele>1548.729</ele>
        <time>2021-06-12T16:59:53Z</time>
      </trkpt>
      <trkpt lat="41.806935" lon="2.378127">
        <ele>1546.995</ele>
        <time>2021-06-12T17:00:00Z</time>
      </trkpt>
      <trkpt lat="41.806898" lon="2.378085">
        <ele>1546.422</ele>
        <time>2021-06-12T17:00:05Z</time>
      </trkpt>
      <trkpt lat="41.806853" lon="2.378066">
        <ele>1544.862</ele>
        <time>2021-06-12T17:00:20Z</time>
      </trkpt>
      <trkpt lat="41.806815" lon="2.378030">
        <ele>1544.908</ele>
        <time>2021-06-12T17:00:27Z</time>
      </trkpt>
      <trkpt lat="41.806768" lon="2.378018">
        <ele>1543.208</ele>
        <time>2021-06-12T17:00:34Z</time>
      </trkpt>
      <trkpt lat="41.806717" lon="2.378023">
        <ele>1542.369</ele>
        <time>2021-06-12T17:00:38Z</time>
      </trkpt>
      <trkpt lat="41.806669" lon="2.378032">
        <ele>1541.547</ele>
        <time>2021-06-12T17:00:42Z</time>
      </trkpt>
      <trkpt lat="41.806625" lon="2.378052">
        <ele>1540.760</ele>
        <time>2021-06-12T17:00:54Z</time>
      </trkpt>
      <trkpt lat="41.806580" lon="2.378055">
        <ele>1540.155</ele>
        <time>2021-06-12T17:01:06Z</time>
      </trkpt>
      <trkpt lat="41.806533" lon="2.378053">
        <ele>1538.520</ele>
        <time>2021-06-12T17:01:16Z</time>
      </trkpt>
      <trkpt lat="41.806488" lon="2.378059">
        <ele>1537.957</ele>
        <time>2021-06-12T17:01:20Z</time>
      </trkpt>
      <trkpt lat="41.806440" lon="2.378054">
        <ele>1536.296</ele>
        <time>2021-06-12T17:01:24Z</time>
      </trkpt>
      <trkpt lat="41.806398" lon="2.378021">
        <ele>1534.672</ele>
        <time>2021-06-12T17:01:28Z</time>
      </trkpt>
      <trkpt lat="41.806364" lon="2.377968">
        <ele>1534.671</ele>
        <time>2021-06-12T17:01:32Z</time>
      </trkpt>
      <trkpt lat="41.806341" lon="2.377908">
        <ele>1533.841</ele>
        <time>2021-06-12T17:01:48Z</time>
      </trkpt>
      <trkpt lat="41.806298" lon="2.377878">
        <ele>1533.215</ele>
        <time>2021-06-12T17:01:52Z</time>
      </trkpt>
      <trkpt lat="41.806251" lon="2.377859">
        <ele>1531.608</ele>
        <time>2021-06-12T17:01:56Z</time>
      </trkpt>
      <trkpt lat="41.806209" lon="2.377828">
        <ele>1531.664</ele>
        <time>2021-06-12T17:01:59Z</time>
      </trkpt>
      <trkpt lat="41.806169" lon="2.377789">
        <ele>1530.432</ele>
        <time>2021-06-12T17:02:03Z</time>
      </trkpt>
      <trkpt lat="41.806135" lon="2.377746">
        <ele>1529.575</ele>
        <time>2021-06-12T17:02:07Z</time>
      </trkpt>
      <trkpt lat="41.806098" lon="2.377702">
        <ele>1528.820</ele>
        <time>2021-06-12T17:02:10Z</time>
      </trkpt>
      <trkpt lat="41.806065" lon="2.377661">
        <ele>1528.435</ele>
        <time>2021-06-12T17:02:14Z</time>
      </trkpt>
      <trkpt lat="41.806036" lon="2.377608">
        <ele>1527.372</ele>
        <time>2021-06-12T17:02:17Z</time>
      </trkpt>
      <trkpt lat="41.806018" lon="2.377550">
        <ele>1527.171</ele>
        <time>2021-06-12T17:02:21Z</time>
      </trkpt>
      <trkpt lat="41.806008" lon="2.377489">
        <ele>1526.257</ele>
        <time>2021-06-12T17:02:24Z</time>
      </trkpt>
      <trkpt lat="41.805983" lon="2.377425">
        <ele>1525.593</ele>
        <time>2021-06-12T17:02:29Z</time>
      </trkpt>
      <trkpt lat="41.805960" lon="2.377367">
        <ele>1525.865</ele>
        <time>2021-06-12T17:02:33Z</time>
      </trkpt>
      <trkpt lat="41.805932" lon="2.377314">
        <ele>1524.421</ele>
        <time>2021-06-12T17:02:36Z</time>
      </trkpt>
      <trkpt lat="41.805900" lon="2.377264">
        <ele>1524.008</ele>
        <time>2021-06-12T17:02:40Z</time>
      </trkpt>
      <trkpt lat="41.805875" lon="2.377213">
        <ele>1523.346</ele>
        <time>2021-06-12T17:02:43Z</time>
      </trkpt>
      <trkpt lat="41.805854" lon="2.377147">
        <ele>1522.644</ele>
        <time>2021-06-12T17:02:47Z</time>
      </trkpt>
      <trkpt lat="41.805831" lon="2.377092">
        <ele>1522.077</ele>
        <time>2021-06-12T17:02:50Z</time>
      </trkpt>
      <trkpt lat="41.805804" lon="2.377026">
        <ele>1521.352</ele>
        <time>2021-06-12T17:02:54Z</time>
      </trkpt>
      <trkpt lat="41.805772" lon="2.376972">
        <ele>1520.317</ele>
        <time>2021-06-12T17:02:58Z</time>
      </trkpt>
      <trkpt lat="41.805741" lon="2.376921">
        <ele>1518.914</ele>
        <time>2021-06-12T17:03:02Z</time>
      </trkpt>
      <trkpt lat="41.805710" lon="2.376867">
        <ele>1520.083</ele>
        <time>2021-06-12T17:03:05Z</time>
      </trkpt>
      <trkpt lat="41.805692" lon="2.376809">
        <ele>1519.249</ele>
        <time>2021-06-12T17:03:09Z</time>
      </trkpt>
      <trkpt lat="41.805670" lon="2.376750">
        <ele>1519.479</ele>
        <time>2021-06-12T17:03:13Z</time>
      </trkpt>
      <trkpt lat="41.805650" lon="2.376696">
        <ele>1519.705</ele>
        <time>2021-06-12T17:03:18Z</time>
      </trkpt>
      <trkpt lat="41.805627" lon="2.376633">
        <ele>1518.625</ele>
        <time>2021-06-12T17:03:22Z</time>
      </trkpt>
      <trkpt lat="41.805617" lon="2.376573">
        <ele>1518.308</ele>
        <time>2021-06-12T17:03:26Z</time>
      </trkpt>
      <trkpt lat="41.805604" lon="2.376514">
        <ele>1517.884</ele>
        <time>2021-06-12T17:03:30Z</time>
      </trkpt>
      <trkpt lat="41.805595" lon="2.376452">
        <ele>1516.482</ele>
        <time>2021-06-12T17:03:34Z</time>
      </trkpt>
      <trkpt lat="41.805589" lon="2.376390">
        <ele>1516.355</ele>
        <time>2021-06-12T17:03:39Z</time>
      </trkpt>
      <trkpt lat="41.805581" lon="2.376328">
        <ele>1515.770</ele>
        <time>2021-06-12T17:03:45Z</time>
      </trkpt>
      <trkpt lat="41.805586" lon="2.376259">
        <ele>1515.445</ele>
        <time>2021-06-12T17:03:50Z</time>
      </trkpt>
      <trkpt lat="41.805592" lon="2.376198">
        <ele>1515.852</ele>
        <time>2021-06-12T17:03:53Z</time>
      </trkpt>
      <trkpt lat="41.805586" lon="2.376125">
        <ele>1514.111</ele>
        <time>2021-06-12T17:03:57Z</time>
      </trkpt>
      <trkpt lat="41.805572" lon="2.376067">
        <ele>1514.297</ele>
        <time>2021-06-12T17:04:00Z</time>
      </trkpt>
      <trkpt lat="41.805571" lon="2.376002">
        <ele>1513.356</ele>
        <time>2021-06-12T17:04:04Z</time>
      </trkpt>
      <trkpt lat="41.805556" lon="2.375938">
        <ele>1512.859</ele>
        <time>2021-06-12T17:04:09Z</time>
      </trkpt>
      <trkpt lat="41.805548" lon="2.375871">
        <ele>1511.614</ele>
        <time>2021-06-12T17:04:14Z</time>
      </trkpt>
      <trkpt lat="41.805545" lon="2.375805">
        <ele>1510.808</ele>
        <time>2021-06-12T17:04:18Z</time>
      </trkpt>
      <trkpt lat="41.805550" lon="2.375742">
        <ele>1511.182</ele>
        <time>2021-06-12T17:04:23Z</time>
      </trkpt>
      <trkpt lat="41.805532" lon="2.375686">
        <ele>1510.490</ele>
        <time>2021-06-12T17:04:28Z</time>
      </trkpt>
      <trkpt lat="41.805521" lon="2.375626">
        <ele>1509.053</ele>
        <time>2021-06-12T17:04:32Z</time>
      </trkpt>
      <trkpt lat="41.805514" lon="2.375559">
        <ele>1509.428</ele>
        <time>2021-06-12T17:04:36Z</time>
      </trkpt>
      <trkpt lat="41.805505" lon="2.375496">
        <ele>1508.263</ele>
        <time>2021-06-12T17:04:40Z</time>
      </trkpt>
      <trkpt lat="41.805485" lon="2.375437">
        <ele>1508.260</ele>
        <time>2021-06-12T17:04:47Z</time>
      </trkpt>
      <trkpt lat="41.805463" lon="2.375379">
        <ele>1507.389</ele>
        <time>2021-06-12T17:04:51Z</time>
      </trkpt>
      <trkpt lat="41.805442" lon="2.375323">
        <ele>1506.445</ele>
        <time>2021-06-12T17:04:55Z</time>
      </trkpt>
      <trkpt lat="41.805419" lon="2.375267">
        <ele>1505.197</ele>
        <time>2021-06-12T17:05:19Z</time>
      </trkpt>
      <trkpt lat="41.805412" lon="2.375197">
        <ele>1504.523</ele>
        <time>2021-06-12T17:05:23Z</time>
      </trkpt>
      <trkpt lat="41.805395" lon="2.375133">
        <ele>1504.125</ele>
        <time>2021-06-12T17:05:27Z</time>
      </trkpt>
      <trkpt lat="41.805386" lon="2.375071">
        <ele>1503.908</ele>
        <time>2021-06-12T17:05:30Z</time>
      </trkpt>
      <trkpt lat="41.805372" lon="2.375010">
        <ele>1503.136</ele>
        <time>2021-06-12T17:05:35Z</time>
      </trkpt>
      <trkpt lat="41.805364" lon="2.374934">
        <ele>1502.394</ele>
        <time>2021-06-12T17:05:40Z</time>
      </trkpt>
      <trkpt lat="41.805355" lon="2.374874">
        <ele>1502.647</ele>
        <time>2021-06-12T17:05:44Z</time>
      </trkpt>
      <trkpt lat="41.805351" lon="2.374809">
        <ele>1502.052</ele>
        <time>2021-06-12T17:05:48Z</time>
      </trkpt>
      <trkpt lat="41.805345" lon="2.374743">
        <ele>1501.367</ele>
        <time>2021-06-12T17:05:52Z</time>
      </trkpt>
      <trkpt lat="41.805330" lon="2.374683">
        <ele>1501.394</ele>
        <time>2021-06-12T17:05:55Z</time>
      </trkpt>
      <trkpt lat="41.805300" lon="2.374627">
        <ele>1500.193</ele>
        <time>2021-06-12T17:05:59Z</time>
      </trkpt>
      <trkpt lat="41.805273" lon="2.374567">
        <ele>1499.579</ele>
        <time>2021-06-12T17:06:04Z</time>
      </trkpt>
      <trkpt lat="41.805260" lon="2.374499">
        <ele>1499.049</ele>
        <time>2021-06-12T17:06:09Z</time>
      </trkpt>
      <trkpt lat="41.805261" lon="2.374437">
        <ele>1498.502</ele>
        <time>2021-06-12T17:06:14Z</time>
      </trkpt>
      <trkpt lat="41.805260" lon="2.374368">
        <ele>1497.722</ele>
        <time>2021-06-12T17:06:18Z</time>
      </trkpt>
      <trkpt lat="41.805240" lon="2.374313">
        <ele>1497.808</ele>
        <time>2021-06-12T17:06:22Z</time>
      </trkpt>
      <trkpt lat="41.805212" lon="2.374253">
        <ele>1496.951</ele>
        <time>2021-06-12T17:06:26Z</time>
      </trkpt>
      <trkpt lat="41.805191" lon="2.374200">
        <ele>1497.699</ele>
        <time>2021-06-12T17:06:29Z</time>
      </trkpt>
      <trkpt lat="41.805177" lon="2.374133">
        <ele>1496.212</ele>
        <time>2021-06-12T17:06:34Z</time>
      </trkpt>
      <trkpt lat="41.805176" lon="2.374073">
        <ele>1495.687</ele>
        <time>2021-06-12T17:06:38Z</time>
      </trkpt>
      <trkpt lat="41.805165" lon="2.374008">
        <ele>1494.852</ele>
        <time>2021-06-12T17:06:41Z</time>
      </trkpt>
      <trkpt lat="41.805165" lon="2.373947">
        <ele>1494.649</ele>
        <time>2021-06-12T17:06:45Z</time>
      </trkpt>
      <trkpt lat="41.805150" lon="2.373882">
        <ele>1493.538</ele>
        <time>2021-06-12T17:06:50Z</time>
      </trkpt>
      <trkpt lat="41.805149" lon="2.373817">
        <ele>1492.944</ele>
        <time>2021-06-12T17:06:55Z</time>
      </trkpt>
      <trkpt lat="41.805143" lon="2.373747">
        <ele>1492.584</ele>
        <time>2021-06-12T17:06:59Z</time>
      </trkpt>
      <trkpt lat="41.805113" lon="2.373693">
        <ele>1493.007</ele>
        <time>2021-06-12T17:07:03Z</time>
      </trkpt>
      <trkpt lat="41.805091" lon="2.373631">
        <ele>1492.517</ele>
        <time>2021-06-12T17:07:08Z</time>
      </trkpt>
      <trkpt lat="41.805073" lon="2.373556">
        <ele>1491.908</ele>
        <time>2021-06-12T17:07:12Z</time>
      </trkpt>
      <trkpt lat="41.805056" lon="2.373499">
        <ele>1492.385</ele>
        <time>2021-06-12T17:07:15Z</time>
      </trkpt>
      <trkpt lat="41.805037" lon="2.373442">
        <ele>1491.283</ele>
        <time>2021-06-12T17:07:18Z</time>
      </trkpt>
      <trkpt lat="41.805024" lon="2.373383">
        <ele>1490.736</ele>
        <time>2021-06-12T17:07:22Z</time>
      </trkpt>
      <trkpt lat="41.805008" lon="2.373325">
        <ele>1490.891</ele>
        <time>2021-06-12T17:07:26Z</time>
      </trkpt>
      <trkpt lat="41.804985" lon="2.373266">
        <ele>1490.736</ele>
        <time>2021-06-12T17:07:31Z</time>
      </trkpt>
      <trkpt lat="41.804966" lon="2.373208">
        <ele>1489.043</ele>
        <time>2021-06-12T17:07:35Z</time>
      </trkpt>
      <trkpt lat="41.804949" lon="2.373149">
        <ele>1489.922</ele>
        <time>2021-06-12T17:07:38Z</time>
      </trkpt>
      <trkpt lat="41.804932" lon="2.373093">
        <ele>1489.298</ele>
        <time>2021-06-12T17:07:42Z</time>
      </trkpt>
      <trkpt lat="41.804920" lon="2.373026">
        <ele>1487.129</ele>
        <time>2021-06-12T17:07:46Z</time>
      </trkpt>
      <trkpt lat="41.804900" lon="2.372966">
        <ele>1486.800</ele>
        <time>2021-06-12T17:07:50Z</time>
      </trkpt>
      <trkpt lat="41.804884" lon="2.372900">
        <ele>1487.820</ele>
        <time>2021-06-12T17:07:54Z</time>
      </trkpt>
      <trkpt lat="41.804865" lon="2.372832">
        <ele>1487.108</ele>
        <time>2021-06-12T17:07:58Z</time>
      </trkpt>
      <trkpt lat="41.804844" lon="2.372770">
        <ele>1487.089</ele>
        <time>2021-06-12T17:08:01Z</time>
      </trkpt>
      <trkpt lat="41.804826" lon="2.372713">
        <ele>1487.877</ele>
        <time>2021-06-12T17:08:04Z</time>
      </trkpt>
      <trkpt lat="41.804807" lon="2.372656">
        <ele>1486.060</ele>
        <time>2021-06-12T17:08:08Z</time>
      </trkpt>
      <trkpt lat="41.804780" lon="2.372600">
        <ele>1487.375</ele>
        <time>2021-06-12T17:08:11Z</time>
      </trkpt>
      <trkpt lat="41.804757" lon="2.372547">
        <ele>1486.340</ele>
        <time>2021-06-12T17:08:14Z</time>
      </trkpt>
      <trkpt lat="41.804736" lon="2.372488">
        <ele>1486.817</ele>
        <time>2021-06-12T17:08:18Z</time>
      </trkpt>
      <trkpt lat="41.804729" lon="2.372428">
        <ele>1485.616</ele>
        <time>2021-06-12T17:08:22Z</time>
      </trkpt>
      <trkpt lat="41.804734" lon="2.372364">
        <ele>1486.582</ele>
        <time>2021-06-12T17:08:25Z</time>
      </trkpt>
      <trkpt lat="41.804729" lon="2.372297">
        <ele>1485.987</ele>
        <time>2021-06-12T17:08:29Z</time>
      </trkpt>
      <trkpt lat="41.804723" lon="2.372230">
        <ele>1486.242</ele>
        <time>2021-06-12T17:08:34Z</time>
      </trkpt>
      <trkpt lat="41.804708" lon="2.372149">
        <ele>1485.826</ele>
        <time>2021-06-12T17:08:38Z</time>
      </trkpt>
      <trkpt lat="41.804682" lon="2.372078">
        <ele>1486.108</ele>
        <time>2021-06-12T17:08:41Z</time>
      </trkpt>
      <trkpt lat="41.804667" lon="2.372015">
        <ele>1487.085</ele>
        <time>2021-06-12T17:08:45Z</time>
      </trkpt>
      <trkpt lat="41.804663" lon="2.371952">
        <ele>1486.963</ele>
        <time>2021-06-12T17:08:48Z</time>
      </trkpt>
      <trkpt lat="41.804658" lon="2.371889">
        <ele>1485.756</ele>
        <time>2021-06-12T17:08:51Z</time>
      </trkpt>
      <trkpt lat="41.804643" lon="2.371823">
        <ele>1487.541</ele>
        <time>2021-06-12T17:08:55Z</time>
      </trkpt>
      <trkpt lat="41.804629" lon="2.371761">
        <ele>1487.476</ele>
        <time>2021-06-12T17:08:58Z</time>
      </trkpt>
      <trkpt lat="41.804624" lon="2.371685">
        <ele>1486.623</ele>
        <time>2021-06-12T17:09:02Z</time>
      </trkpt>
      <trkpt lat="41.804612" lon="2.371626">
        <ele>1488.012</ele>
        <time>2021-06-12T17:09:05Z</time>
      </trkpt>
      <trkpt lat="41.804597" lon="2.371569">
        <ele>1487.978</ele>
        <time>2021-06-12T17:09:08Z</time>
      </trkpt>
      <trkpt lat="41.804577" lon="2.371509">
        <ele>1487.899</ele>
        <time>2021-06-12T17:09:11Z</time>
      </trkpt>
      <trkpt lat="41.804558" lon="2.371447">
        <ele>1486.407</ele>
        <time>2021-06-12T17:09:15Z</time>
      </trkpt>
      <trkpt lat="41.804546" lon="2.371380">
        <ele>1487.327</ele>
        <time>2021-06-12T17:09:20Z</time>
      </trkpt>
      <trkpt lat="41.804523" lon="2.371314">
        <ele>1486.908</ele>
        <time>2021-06-12T17:09:24Z</time>
      </trkpt>
      <trkpt lat="41.804530" lon="2.371250">
        <ele>1486.946</ele>
        <time>2021-06-12T17:09:29Z</time>
      </trkpt>
      <trkpt lat="41.804544" lon="2.371190">
        <ele>1486.424</ele>
        <time>2021-06-12T17:09:33Z</time>
      </trkpt>
      <trkpt lat="41.804539" lon="2.371121">
        <ele>1486.417</ele>
        <time>2021-06-12T17:09:36Z</time>
      </trkpt>
      <trkpt lat="41.804532" lon="2.371059">
        <ele>1486.942</ele>
        <time>2021-06-12T17:09:39Z</time>
      </trkpt>
      <trkpt lat="41.804512" lon="2.371003">
        <ele>1486.817</ele>
        <time>2021-06-12T17:09:42Z</time>
      </trkpt>
      <trkpt lat="41.804491" lon="2.370948">
        <ele>1487.584</ele>
        <time>2021-06-12T17:09:46Z</time>
      </trkpt>
      <trkpt lat="41.804508" lon="2.370886">
        <ele>1486.563</ele>
        <time>2021-06-12T17:09:51Z</time>
      </trkpt>
      <trkpt lat="41.804515" lon="2.370825">
        <ele>1487.619</ele>
        <time>2021-06-12T17:09:56Z</time>
      </trkpt>
      <trkpt lat="41.804510" lon="2.370758">
        <ele>1487.234</ele>
        <time>2021-06-12T17:10:01Z</time>
      </trkpt>
      <trkpt lat="41.804497" lon="2.370696">
        <ele>1487.955</ele>
        <time>2021-06-12T17:10:05Z</time>
      </trkpt>
      <trkpt lat="41.804502" lon="2.370634">
        <ele>1488.610</ele>
        <time>2021-06-12T17:10:10Z</time>
      </trkpt>
      <trkpt lat="41.804529" lon="2.370577">
        <ele>1489.008</ele>
        <time>2021-06-12T17:10:15Z</time>
      </trkpt>
      <trkpt lat="41.804529" lon="2.370507">
        <ele>1488.930</ele>
        <time>2021-06-12T17:10:20Z</time>
      </trkpt>
      <trkpt lat="41.804540" lon="2.370440">
        <ele>1489.028</ele>
        <time>2021-06-12T17:10:23Z</time>
      </trkpt>
      <trkpt lat="41.804557" lon="2.370383">
        <ele>1488.211</ele>
        <time>2021-06-12T17:10:26Z</time>
      </trkpt>
      <trkpt lat="41.804555" lon="2.370317">
        <ele>1488.866</ele>
        <time>2021-06-12T17:10:29Z</time>
      </trkpt>
      <trkpt lat="41.804561" lon="2.370255">
        <ele>1489.181</ele>
        <time>2021-06-12T17:10:33Z</time>
      </trkpt>
      <trkpt lat="41.804571" lon="2.370189">
        <ele>1488.668</ele>
        <time>2021-06-12T17:10:36Z</time>
      </trkpt>
      <trkpt lat="41.804585" lon="2.370120">
        <ele>1488.577</ele>
        <time>2021-06-12T17:10:40Z</time>
      </trkpt>
      <trkpt lat="41.804596" lon="2.370060">
        <ele>1487.773</ele>
        <time>2021-06-12T17:10:44Z</time>
      </trkpt>
      <trkpt lat="41.804613" lon="2.370002">
        <ele>1487.053</ele>
        <time>2021-06-12T17:10:49Z</time>
      </trkpt>
      <trkpt lat="41.804630" lon="2.369939">
        <ele>1487.004</ele>
        <time>2021-06-12T17:10:53Z</time>
      </trkpt>
      <trkpt lat="41.804638" lon="2.369879">
        <ele>1488.214</ele>
        <time>2021-06-12T17:10:57Z</time>
      </trkpt>
      <trkpt lat="41.804649" lon="2.369814">
        <ele>1489.008</ele>
        <time>2021-06-12T17:11:01Z</time>
      </trkpt>
      <trkpt lat="41.804665" lon="2.369751">
        <ele>1487.532</ele>
        <time>2021-06-12T17:11:06Z</time>
      </trkpt>
      <trkpt lat="41.804694" lon="2.369703">
        <ele>1486.090</ele>
        <time>2021-06-12T17:11:10Z</time>
      </trkpt>
      <trkpt lat="41.804714" lon="2.369645">
        <ele>1484.393</ele>
        <time>2021-06-12T17:11:14Z</time>
      </trkpt>
      <trkpt lat="41.804720" lon="2.369579">
        <ele>1487.258</ele>
        <time>2021-06-12T17:11:18Z</time>
      </trkpt>
      <trkpt lat="41.804699" lon="2.369522">
        <ele>1485.043</ele>
        <time>2021-06-12T17:11:23Z</time>
      </trkpt>
      <trkpt lat="41.804686" lon="2.369462">
        <ele>1488.060</ele>
        <time>2021-06-12T17:11:30Z</time>
      </trkpt>
      <trkpt lat="41.804696" lon="2.369398">
        <ele>1486.899</ele>
        <time>2021-06-12T17:11:35Z</time>
      </trkpt>
      <trkpt lat="41.804703" lon="2.369329">
        <ele>1485.415</ele>
        <time>2021-06-12T17:11:39Z</time>
      </trkpt>
      <trkpt lat="41.804699" lon="2.369269">
        <ele>1487.497</ele>
        <time>2021-06-12T17:11:43Z</time>
      </trkpt>
      <trkpt lat="41.804697" lon="2.369203">
        <ele>1488.023</ele>
        <time>2021-06-12T17:11:47Z</time>
      </trkpt>
      <trkpt lat="41.804704" lon="2.369142">
        <ele>1487.825</ele>
        <time>2021-06-12T17:11:51Z</time>
      </trkpt>
      <trkpt lat="41.804716" lon="2.369083">
        <ele>1488.008</ele>
        <time>2021-06-12T17:11:55Z</time>
      </trkpt>
      <trkpt lat="41.804719" lon="2.369015">
        <ele>1487.326</ele>
        <time>2021-06-12T17:11:59Z</time>
      </trkpt>
      <trkpt lat="41.804709" lon="2.368944">
        <ele>1487.144</ele>
        <time>2021-06-12T17:12:03Z</time>
      </trkpt>
      <trkpt lat="41.804713" lon="2.368881">
        <ele>1487.767</ele>
        <time>2021-06-12T17:12:07Z</time>
      </trkpt>
      <trkpt lat="41.804705" lon="2.368812">
        <ele>1486.642</ele>
        <time>2021-06-12T17:12:11Z</time>
      </trkpt>
      <trkpt lat="41.804690" lon="2.368747">
        <ele>1487.257</ele>
        <time>2021-06-12T17:12:14Z</time>
      </trkpt>
      <trkpt lat="41.804665" lon="2.368696">
        <ele>1487.064</ele>
        <time>2021-06-12T17:12:17Z</time>
      </trkpt>
      <trkpt lat="41.804638" lon="2.368642">
        <ele>1486.233</ele>
        <time>2021-06-12T17:12:19Z</time>
      </trkpt>
      <trkpt lat="41.804611" lon="2.368592">
        <ele>1486.359</ele>
        <time>2021-06-12T17:12:23Z</time>
      </trkpt>
      <trkpt lat="41.804584" lon="2.368532">
        <ele>1485.966</ele>
        <time>2021-06-12T17:12:27Z</time>
      </trkpt>
      <trkpt lat="41.804568" lon="2.368475">
        <ele>1485.529</ele>
        <time>2021-06-12T17:12:31Z</time>
      </trkpt>
      <trkpt lat="41.804545" lon="2.368420">
        <ele>1484.921</ele>
        <time>2021-06-12T17:12:36Z</time>
      </trkpt>
      <trkpt lat="41.804527" lon="2.368360">
        <ele>1484.408</ele>
        <time>2021-06-12T17:12:40Z</time>
      </trkpt>
      <trkpt lat="41.804518" lon="2.368297">
        <ele>1483.623</ele>
        <time>2021-06-12T17:12:44Z</time>
      </trkpt>
      <trkpt lat="41.804501" lon="2.368235">
        <ele>1483.311</ele>
        <time>2021-06-12T17:12:48Z</time>
      </trkpt>
      <trkpt lat="41.804483" lon="2.368179">
        <ele>1484.384</ele>
        <time>2021-06-12T17:12:51Z</time>
      </trkpt>
      <trkpt lat="41.804468" lon="2.368119">
        <ele>1483.439</ele>
        <time>2021-06-12T17:12:55Z</time>
      </trkpt>
      <trkpt lat="41.804453" lon="2.368056">
        <ele>1483.934</ele>
        <time>2021-06-12T17:13:00Z</time>
      </trkpt>
      <trkpt lat="41.804443" lon="2.367992">
        <ele>1481.941</ele>
        <time>2021-06-12T17:13:06Z</time>
      </trkpt>
      <trkpt lat="41.804433" lon="2.367927">
        <ele>1481.740</ele>
        <time>2021-06-12T17:13:09Z</time>
      </trkpt>
      <trkpt lat="41.804424" lon="2.367864">
        <ele>1481.336</ele>
        <time>2021-06-12T17:13:12Z</time>
      </trkpt>
      <trkpt lat="41.804418" lon="2.367800">
        <ele>1479.786</ele>
        <time>2021-06-12T17:13:15Z</time>
      </trkpt>
      <trkpt lat="41.804416" lon="2.367726">
        <ele>1481.160</ele>
        <time>2021-06-12T17:13:18Z</time>
      </trkpt>
      <trkpt lat="41.804410" lon="2.367665">
        <ele>1481.326</ele>
        <time>2021-06-12T17:13:20Z</time>
      </trkpt>
      <trkpt lat="41.804397" lon="2.367586">
        <ele>1479.408</ele>
        <time>2021-06-12T17:13:24Z</time>
      </trkpt>
      <trkpt lat="41.804387" lon="2.367524">
        <ele>1479.745</ele>
        <time>2021-06-12T17:13:27Z</time>
      </trkpt>
      <trkpt lat="41.804381" lon="2.367449">
        <ele>1480.353</ele>
        <time>2021-06-12T17:13:31Z</time>
      </trkpt>
      <trkpt lat="41.804388" lon="2.367376">
        <ele>1478.796</ele>
        <time>2021-06-12T17:13:35Z</time>
      </trkpt>
      <trkpt lat="41.804402" lon="2.367312">
        <ele>1479.831</ele>
        <time>2021-06-12T17:13:39Z</time>
      </trkpt>
      <trkpt lat="41.804414" lon="2.367248">
        <ele>1479.526</ele>
        <time>2021-06-12T17:13:43Z</time>
      </trkpt>
      <trkpt lat="41.804432" lon="2.367181">
        <ele>1480.053</ele>
        <time>2021-06-12T17:13:46Z</time>
      </trkpt>
      <trkpt lat="41.804447" lon="2.367118">
        <ele>1480.012</ele>
        <time>2021-06-12T17:13:50Z</time>
      </trkpt>
      <trkpt lat="41.804465" lon="2.367047">
        <ele>1480.648</ele>
        <time>2021-06-12T17:13:54Z</time>
      </trkpt>
      <trkpt lat="41.804487" lon="2.366990">
        <ele>1481.089</ele>
        <time>2021-06-12T17:13:57Z</time>
      </trkpt>
      <trkpt lat="41.804516" lon="2.366943">
        <ele>1480.906</ele>
        <time>2021-06-12T17:14:01Z</time>
      </trkpt>
      <trkpt lat="41.804550" lon="2.366900">
        <ele>1481.726</ele>
        <time>2021-06-12T17:14:04Z</time>
      </trkpt>
      <trkpt lat="41.804587" lon="2.366858">
        <ele>1480.208</ele>
        <time>2021-06-12T17:14:08Z</time>
      </trkpt>
      <trkpt lat="41.804614" lon="2.366805">
        <ele>1479.285</ele>
        <time>2021-06-12T17:14:11Z</time>
      </trkpt>
      <trkpt lat="41.804639" lon="2.366749">
        <ele>1480.583</ele>
        <time>2021-06-12T17:14:15Z</time>
      </trkpt>
      <trkpt lat="41.804679" lon="2.366709">
        <ele>1478.746</ele>
        <time>2021-06-12T17:14:19Z</time>
      </trkpt>
      <trkpt lat="41.804719" lon="2.366679">
        <ele>1478.561</ele>
        <time>2021-06-12T17:14:22Z</time>
      </trkpt>
      <trkpt lat="41.804763" lon="2.366663">
        <ele>1477.546</ele>
        <time>2021-06-12T17:14:25Z</time>
      </trkpt>
      <trkpt lat="41.804808" lon="2.366649">
        <ele>1475.863</ele>
        <time>2021-06-12T17:14:29Z</time>
      </trkpt>
      <trkpt lat="41.804857" lon="2.366627">
        <ele>1476.432</ele>
        <time>2021-06-12T17:14:33Z</time>
      </trkpt>
      <trkpt lat="41.804894" lon="2.366576">
        <ele>1476.568</ele>
        <time>2021-06-12T17:14:36Z</time>
      </trkpt>
      <trkpt lat="41.804925" lon="2.366522">
        <ele>1475.813</ele>
        <time>2021-06-12T17:14:40Z</time>
      </trkpt>
      <trkpt lat="41.804950" lon="2.366466">
        <ele>1474.643</ele>
        <time>2021-06-12T17:14:42Z</time>
      </trkpt>
      <trkpt lat="41.804969" lon="2.366396">
        <ele>1475.007</ele>
        <time>2021-06-12T17:14:46Z</time>
      </trkpt>
      <trkpt lat="41.804976" lon="2.366324">
        <ele>1474.108</ele>
        <time>2021-06-12T17:14:49Z</time>
      </trkpt>
      <trkpt lat="41.804981" lon="2.366253">
        <ele>1473.038</ele>
        <time>2021-06-12T17:14:53Z</time>
      </trkpt>
      <trkpt lat="41.804974" lon="2.366191">
        <ele>1473.336</ele>
        <time>2021-06-12T17:14:57Z</time>
      </trkpt>
      <trkpt lat="41.804976" lon="2.366124">
        <ele>1471.769</ele>
        <time>2021-06-12T17:15:01Z</time>
      </trkpt>
      <trkpt lat="41.804994" lon="2.366063">
        <ele>1470.964</ele>
        <time>2021-06-12T17:15:06Z</time>
      </trkpt>
      <trkpt lat="41.805007" lon="2.365999">
        <ele>1469.539</ele>
        <time>2021-06-12T17:15:12Z</time>
      </trkpt>
      <trkpt lat="41.805018" lon="2.365935">
        <ele>1467.356</ele>
        <time>2021-06-12T17:15:17Z</time>
      </trkpt>
      <trkpt lat="41.805022" lon="2.365874">
        <ele>1465.895</ele>
        <time>2021-06-12T17:15:25Z</time>
      </trkpt>
      <trkpt lat="41.805025" lon="2.365808">
        <ele>1464.111</ele>
        <time>2021-06-12T17:15:31Z</time>
      </trkpt>
      <trkpt lat="41.805051" lon="2.365754">
        <ele>1461.825</ele>
        <time>2021-06-12T17:15:39Z</time>
      </trkpt>
      <trkpt lat="41.805072" lon="2.365696">
        <ele>1460.026</ele>
        <time>2021-06-12T17:15:45Z</time>
      </trkpt>
      <trkpt lat="41.805091" lon="2.365641">
        <ele>1458.808</ele>
        <time>2021-06-12T17:15:50Z</time>
      </trkpt>
      <trkpt lat="41.805110" lon="2.365586">
        <ele>1458.108</ele>
        <time>2021-06-12T17:15:55Z</time>
      </trkpt>
      <trkpt lat="41.805133" lon="2.365531">
        <ele>1456.819</ele>
        <time>2021-06-12T17:16:01Z</time>
      </trkpt>
      <trkpt lat="41.805171" lon="2.365498">
        <ele>1455.557</ele>
        <time>2021-06-12T17:16:08Z</time>
      </trkpt>
      <trkpt lat="41.805191" lon="2.365439">
        <ele>1452.550</ele>
        <time>2021-06-12T17:16:18Z</time>
      </trkpt>
      <trkpt lat="41.805224" lon="2.365397">
        <ele>1451.425</ele>
        <time>2021-06-12T17:16:25Z</time>
      </trkpt>
      <trkpt lat="41.805257" lon="2.365353">
        <ele>1450.080</ele>
        <time>2021-06-12T17:16:29Z</time>
      </trkpt>
      <trkpt lat="41.805282" lon="2.365300">
        <ele>1448.867</ele>
        <time>2021-06-12T17:16:34Z</time>
      </trkpt>
      <trkpt lat="41.805314" lon="2.365252">
        <ele>1446.116</ele>
        <time>2021-06-12T17:16:45Z</time>
      </trkpt>
      <trkpt lat="41.805352" lon="2.365208">
        <ele>1445.052</ele>
        <time>2021-06-12T17:16:50Z</time>
      </trkpt>
      <trkpt lat="41.805386" lon="2.365168">
        <ele>1444.395</ele>
        <time>2021-06-12T17:16:54Z</time>
      </trkpt>
      <trkpt lat="41.805417" lon="2.365124">
        <ele>1442.449</ele>
        <time>2021-06-12T17:17:01Z</time>
      </trkpt>
      <trkpt lat="41.805439" lon="2.365067">
        <ele>1440.523</ele>
        <time>2021-06-12T17:17:12Z</time>
      </trkpt>
      <trkpt lat="41.805481" lon="2.365034">
        <ele>1439.708</ele>
        <time>2021-06-12T17:17:17Z</time>
      </trkpt>
      <trkpt lat="41.805514" lon="2.364989">
        <ele>1438.346</ele>
        <time>2021-06-12T17:17:22Z</time>
      </trkpt>
      <trkpt lat="41.805537" lon="2.364931">
        <ele>1437.124</ele>
        <time>2021-06-12T17:17:28Z</time>
      </trkpt>
      <trkpt lat="41.805546" lon="2.364871">
        <ele>1435.967</ele>
        <time>2021-06-12T17:17:34Z</time>
      </trkpt>
      <trkpt lat="41.805592" lon="2.364848">
        <ele>1434.722</ele>
        <time>2021-06-12T17:17:40Z</time>
      </trkpt>
      <trkpt lat="41.805634" lon="2.364822">
        <ele>1433.517</ele>
        <time>2021-06-12T17:17:46Z</time>
      </trkpt>
      <trkpt lat="41.805681" lon="2.364792">
        <ele>1431.134</ele>
        <time>2021-06-12T17:17:51Z</time>
      </trkpt>
      <trkpt lat="41.805714" lon="2.364745">
        <ele>1430.753</ele>
        <time>2021-06-12T17:17:59Z</time>
      </trkpt>
      <trkpt lat="41.805761" lon="2.364725">
        <ele>1429.029</ele>
        <time>2021-06-12T17:18:05Z</time>
      </trkpt>
      <trkpt lat="41.805811" lon="2.364712">
        <ele>1428.288</ele>
        <time>2021-06-12T17:18:09Z</time>
      </trkpt>
      <trkpt lat="41.805852" lon="2.364679">
        <ele>1427.024</ele>
        <time>2021-06-12T17:18:14Z</time>
      </trkpt>
      <trkpt lat="41.805899" lon="2.364646">
        <ele>1426.226</ele>
        <time>2021-06-12T17:18:19Z</time>
      </trkpt>
      <trkpt lat="41.805944" lon="2.364636">
        <ele>1423.708</ele>
        <time>2021-06-12T17:18:31Z</time>
      </trkpt>
      <trkpt lat="41.805963" lon="2.364578">
        <ele>1422.645</ele>
        <time>2021-06-12T17:18:35Z</time>
      </trkpt>
      <trkpt lat="41.805992" lon="2.364530">
        <ele>1422.063</ele>
        <time>2021-06-12T17:18:40Z</time>
      </trkpt>
      <trkpt lat="41.806033" lon="2.364504">
        <ele>1420.166</ele>
        <time>2021-06-12T17:18:47Z</time>
      </trkpt>
      <trkpt lat="41.806070" lon="2.364458">
        <ele>1417.471</ele>
        <time>2021-06-12T17:18:55Z</time>
      </trkpt>
      <trkpt lat="41.806112" lon="2.364433">
        <ele>1416.866</ele>
        <time>2021-06-12T17:18:59Z</time>
      </trkpt>
      <trkpt lat="41.806132" lon="2.364377">
        <ele>1415.123</ele>
        <time>2021-06-12T17:19:06Z</time>
      </trkpt>
      <trkpt lat="41.806155" lon="2.364319">
        <ele>1411.822</ele>
        <time>2021-06-12T17:19:22Z</time>
      </trkpt>
      <trkpt lat="41.806189" lon="2.364275">
        <ele>1411.598</ele>
        <time>2021-06-12T17:19:26Z</time>
      </trkpt>
      <trkpt lat="41.806217" lon="2.364224">
        <ele>1410.571</ele>
        <time>2021-06-12T17:19:30Z</time>
      </trkpt>
      <trkpt lat="41.806254" lon="2.364185">
        <ele>1409.641</ele>
        <time>2021-06-12T17:19:34Z</time>
      </trkpt>
      <trkpt lat="41.806287" lon="2.364137">
        <ele>1407.815</ele>
        <time>2021-06-12T17:19:40Z</time>
      </trkpt>
      <trkpt lat="41.806301" lon="2.364079">
        <ele>1406.808</ele>
        <time>2021-06-12T17:19:47Z</time>
      </trkpt>
      <trkpt lat="41.806294" lon="2.364018">
        <ele>1405.194</ele>
        <time>2021-06-12T17:19:54Z</time>
      </trkpt>
      <trkpt lat="41.806322" lon="2.363966">
        <ele>1404.172</ele>
        <time>2021-06-12T17:20:01Z</time>
      </trkpt>
      <trkpt lat="41.806367" lon="2.363949">
        <ele>1401.985</ele>
        <time>2021-06-12T17:20:07Z</time>
      </trkpt>
      <trkpt lat="41.806407" lon="2.363913">
        <ele>1402.020</ele>
        <time>2021-06-12T17:20:12Z</time>
      </trkpt>
      <trkpt lat="41.806439" lon="2.363869">
        <ele>1399.785</ele>
        <time>2021-06-12T17:20:20Z</time>
      </trkpt>
      <trkpt lat="41.806483" lon="2.363838">
        <ele>1397.082</ele>
        <time>2021-06-12T17:20:37Z</time>
      </trkpt>
      <trkpt lat="41.806501" lon="2.363777">
        <ele>1394.921</ele>
        <time>2021-06-12T17:20:44Z</time>
      </trkpt>
      <trkpt lat="41.806536" lon="2.363738">
        <ele>1394.397</ele>
        <time>2021-06-12T17:20:49Z</time>
      </trkpt>
      <trkpt lat="41.806560" lon="2.363685">
        <ele>1392.516</ele>
        <time>2021-06-12T17:20:58Z</time>
      </trkpt>
      <trkpt lat="41.806612" lon="2.363653">
        <ele>1391.376</ele>
        <time>2021-06-12T17:21:03Z</time>
      </trkpt>
      <trkpt lat="41.806599" lon="2.363594">
        <ele>1390.213</ele>
        <time>2021-06-12T17:21:10Z</time>
      </trkpt>
      <trkpt lat="41.806601" lon="2.363530">
        <ele>1387.408</ele>
        <time>2021-06-12T17:21:19Z</time>
      </trkpt>
      <trkpt lat="41.806646" lon="2.363499">
        <ele>1386.338</ele>
        <time>2021-06-12T17:21:30Z</time>
      </trkpt>
      <trkpt lat="41.806682" lon="2.363453">
        <ele>1383.446</ele>
        <time>2021-06-12T17:21:35Z</time>
      </trkpt>
      <trkpt lat="41.806688" lon="2.363390">
        <ele>1385.049</ele>
        <time>2021-06-12T17:21:40Z</time>
      </trkpt>
      <trkpt lat="41.806696" lon="2.363325">
        <ele>1381.944</ele>
        <time>2021-06-12T17:21:50Z</time>
      </trkpt>
      <trkpt lat="41.806730" lon="2.363282">
        <ele>1380.679</ele>
        <time>2021-06-12T17:21:57Z</time>
      </trkpt>
      <trkpt lat="41.806711" lon="2.363226">
        <ele>1379.816</ele>
        <time>2021-06-12T17:22:02Z</time>
      </trkpt>
      <trkpt lat="41.806736" lon="2.363169">
        <ele>1378.625</ele>
        <time>2021-06-12T17:22:08Z</time>
      </trkpt>
      <trkpt lat="41.806718" lon="2.363107">
        <ele>1377.281</ele>
        <time>2021-06-12T17:22:16Z</time>
      </trkpt>
      <trkpt lat="41.806705" lon="2.363046">
        <ele>1375.449</ele>
        <time>2021-06-12T17:22:21Z</time>
      </trkpt>
      <trkpt lat="41.806667" lon="2.363011">
        <ele>1373.302</ele>
        <time>2021-06-12T17:22:30Z</time>
      </trkpt>
      <trkpt lat="41.806647" lon="2.362954">
        <ele>1371.922</ele>
        <time>2021-06-12T17:22:38Z</time>
      </trkpt>
      <trkpt lat="41.806636" lon="2.362892">
        <ele>1370.408</ele>
        <time>2021-06-12T17:22:43Z</time>
      </trkpt>
      <trkpt lat="41.806652" lon="2.362831">
        <ele>1369.131</ele>
        <time>2021-06-12T17:22:47Z</time>
      </trkpt>
      <trkpt lat="41.806687" lon="2.362791">
        <ele>1369.059</ele>
        <time>2021-06-12T17:22:52Z</time>
      </trkpt>
      <trkpt lat="41.806699" lon="2.362728">
        <ele>1367.322</ele>
        <time>2021-06-12T17:22:58Z</time>
      </trkpt>
      <trkpt lat="41.806724" lon="2.362677">
        <ele>1366.257</ele>
        <time>2021-06-12T17:23:03Z</time>
      </trkpt>
      <trkpt lat="41.806704" lon="2.362621">
        <ele>1364.022</ele>
        <time>2021-06-12T17:23:14Z</time>
      </trkpt>
      <trkpt lat="41.806717" lon="2.362561">
        <ele>1363.169</ele>
        <time>2021-06-12T17:23:18Z</time>
      </trkpt>
      <trkpt lat="41.806699" lon="2.362501">
        <ele>1360.818</ele>
        <time>2021-06-12T17:23:28Z</time>
      </trkpt>
      <trkpt lat="41.806691" lon="2.362438">
        <ele>1359.394</ele>
        <time>2021-06-12T17:23:33Z</time>
      </trkpt>
      <trkpt lat="41.806697" lon="2.362369">
        <ele>1357.486</ele>
        <time>2021-06-12T17:23:39Z</time>
      </trkpt>
      <trkpt lat="41.806699" lon="2.362306">
        <ele>1356.360</ele>
        <time>2021-06-12T17:23:44Z</time>
      </trkpt>
      <trkpt lat="41.806689" lon="2.362243">
        <ele>1355.926</ele>
        <time>2021-06-12T17:23:50Z</time>
      </trkpt>
      <trkpt lat="41.806703" lon="2.362183">
        <ele>1354.208</ele>
        <time>2021-06-12T17:23:55Z</time>
      </trkpt>
      <trkpt lat="41.806692" lon="2.362121">
        <ele>1353.155</ele>
        <time>2021-06-12T17:24:00Z</time>
      </trkpt>
      <trkpt lat="41.806652" lon="2.362078">
        <ele>1350.773</ele>
        <time>2021-06-12T17:24:09Z</time>
      </trkpt>
      <trkpt lat="41.806612" lon="2.362047">
        <ele>1349.016</ele>
        <time>2021-06-12T17:24:13Z</time>
      </trkpt>
      <trkpt lat="41.806584" lon="2.361998">
        <ele>1349.091</ele>
        <time>2021-06-12T17:24:17Z</time>
      </trkpt>
      <trkpt lat="41.806560" lon="2.361945">
        <ele>1347.946</ele>
        <time>2021-06-12T17:24:21Z</time>
      </trkpt>
      <trkpt lat="41.806536" lon="2.361892">
        <ele>1346.973</ele>
        <time>2021-06-12T17:24:26Z</time>
      </trkpt>
      <trkpt lat="41.806523" lon="2.361825">
        <ele>1345.422</ele>
        <time>2021-06-12T17:24:31Z</time>
      </trkpt>
      <trkpt lat="41.806511" lon="2.361766">
        <ele>1344.618</ele>
        <time>2021-06-12T17:24:35Z</time>
      </trkpt>
      <trkpt lat="41.806493" lon="2.361693">
        <ele>1342.642</ele>
        <time>2021-06-12T17:24:40Z</time>
      </trkpt>
      <trkpt lat="41.806481" lon="2.361625">
        <ele>1341.522</ele>
        <time>2021-06-12T17:24:45Z</time>
      </trkpt>
      <trkpt lat="41.806460" lon="2.361562">
        <ele>1340.514</ele>
        <time>2021-06-12T17:24:50Z</time>
      </trkpt>
      <trkpt lat="41.806443" lon="2.361500">
        <ele>1339.108</ele>
        <time>2021-06-12T17:24:54Z</time>
      </trkpt>
      <trkpt lat="41.806444" lon="2.361434">
        <ele>1339.091</ele>
        <time>2021-06-12T17:24:58Z</time>
      </trkpt>
      <trkpt lat="41.806462" lon="2.361378">
        <ele>1338.489</ele>
        <time>2021-06-12T17:25:02Z</time>
      </trkpt>
      <trkpt lat="41.806466" lon="2.361315">
        <ele>1338.612</ele>
        <time>2021-06-12T17:25:06Z</time>
      </trkpt>
      <trkpt lat="41.806438" lon="2.361262">
        <ele>1337.357</ele>
        <time>2021-06-12T17:25:09Z</time>
      </trkpt>
      <trkpt lat="41.806411" lon="2.361204">
        <ele>1335.762</ele>
        <time>2021-06-12T17:25:13Z</time>
      </trkpt>
      <trkpt lat="41.806389" lon="2.361139">
        <ele>1337.259</ele>
        <time>2021-06-12T17:25:17Z</time>
      </trkpt>
      <trkpt lat="41.806372" lon="2.361072">
        <ele>1337.028</ele>
        <time>2021-06-12T17:25:21Z</time>
      </trkpt>
      <trkpt lat="41.806364" lon="2.361009">
        <ele>1337.024</ele>
        <time>2021-06-12T17:25:25Z</time>
      </trkpt>
      <trkpt lat="41.806357" lon="2.360949">
        <ele>1336.861</ele>
        <time>2021-06-12T17:25:28Z</time>
      </trkpt>
      <trkpt lat="41.806350" lon="2.360881">
        <ele>1338.421</ele>
        <time>2021-06-12T17:25:32Z</time>
      </trkpt>
      <trkpt lat="41.806344" lon="2.360818">
        <ele>1338.613</ele>
        <time>2021-06-12T17:25:35Z</time>
      </trkpt>
      <trkpt lat="41.806327" lon="2.360761">
        <ele>1338.208</ele>
        <time>2021-06-12T17:25:38Z</time>
      </trkpt>
      <trkpt lat="41.806302" lon="2.360708">
        <ele>1338.943</ele>
        <time>2021-06-12T17:25:43Z</time>
      </trkpt>
      <trkpt lat="41.806279" lon="2.360654">
        <ele>1338.721</ele>
        <time>2021-06-12T17:25:47Z</time>
      </trkpt>
      <trkpt lat="41.806266" lon="2.360585">
        <ele>1338.784</ele>
        <time>2021-06-12T17:25:51Z</time>
      </trkpt>
      <trkpt lat="41.806273" lon="2.360507">
        <ele>1338.929</ele>
        <time>2021-06-12T17:25:55Z</time>
      </trkpt>
      <trkpt lat="41.806281" lon="2.360441">
        <ele>1338.724</ele>
        <time>2021-06-12T17:25:59Z</time>
      </trkpt>
      <trkpt lat="41.806267" lon="2.360374">
        <ele>1337.451</ele>
        <time>2021-06-12T17:26:03Z</time>
      </trkpt>
      <trkpt lat="41.806249" lon="2.360310">
        <ele>1336.730</ele>
        <time>2021-06-12T17:26:06Z</time>
      </trkpt>
      <trkpt lat="41.806224" lon="2.360252">
        <ele>1337.656</ele>
        <time>2021-06-12T17:26:09Z</time>
      </trkpt>
      <trkpt lat="41.806206" lon="2.360191">
        <ele>1336.781</ele>
        <time>2021-06-12T17:26:13Z</time>
      </trkpt>
      <trkpt lat="41.806210" lon="2.360123">
        <ele>1334.361</ele>
        <time>2021-06-12T17:26:17Z</time>
      </trkpt>
      <trkpt lat="41.806195" lon="2.360064">
        <ele>1337.617</ele>
        <time>2021-06-12T17:26:21Z</time>
      </trkpt>
      <trkpt lat="41.806172" lon="2.359999">
        <ele>1336.808</ele>
        <time>2021-06-12T17:26:26Z</time>
      </trkpt>
      <trkpt lat="41.806147" lon="2.359942">
        <ele>1337.245</ele>
        <time>2021-06-12T17:26:30Z</time>
      </trkpt>
      <trkpt lat="41.806128" lon="2.359876">
        <ele>1337.343</ele>
        <time>2021-06-12T17:26:34Z</time>
      </trkpt>
      <trkpt lat="41.806114" lon="2.359807">
        <ele>1338.956</ele>
        <time>2021-06-12T17:26:38Z</time>
      </trkpt>
      <trkpt lat="41.806098" lon="2.359744">
        <ele>1338.251</ele>
        <time>2021-06-12T17:26:41Z</time>
      </trkpt>
      <trkpt lat="41.806088" lon="2.359679">
        <ele>1338.716</ele>
        <time>2021-06-12T17:26:45Z</time>
      </trkpt>
      <trkpt lat="41.806089" lon="2.359598">
        <ele>1338.733</ele>
        <time>2021-06-12T17:26:49Z</time>
      </trkpt>
      <trkpt lat="41.806083" lon="2.359532">
        <ele>1339.472</ele>
        <time>2021-06-12T17:26:52Z</time>
      </trkpt>
      <trkpt lat="41.806073" lon="2.359473">
        <ele>1338.538</ele>
        <time>2021-06-12T17:26:56Z</time>
      </trkpt>
      <trkpt lat="41.806068" lon="2.359401">
        <ele>1340.289</ele>
        <time>2021-06-12T17:27:00Z</time>
      </trkpt>
      <trkpt lat="41.806068" lon="2.359339">
        <ele>1339.006</ele>
        <time>2021-06-12T17:27:03Z</time>
      </trkpt>
      <trkpt lat="41.806070" lon="2.359274">
        <ele>1340.026</ele>
        <time>2021-06-12T17:27:06Z</time>
      </trkpt>
      <trkpt lat="41.806099" lon="2.359221">
        <ele>1339.608</ele>
        <time>2021-06-12T17:27:10Z</time>
      </trkpt>
      <trkpt lat="41.806135" lon="2.359181">
        <ele>1339.785</ele>
        <time>2021-06-12T17:27:14Z</time>
      </trkpt>
      <trkpt lat="41.806161" lon="2.359124">
        <ele>1338.563</ele>
        <time>2021-06-12T17:27:18Z</time>
      </trkpt>
      <trkpt lat="41.806172" lon="2.359053">
        <ele>1339.856</ele>
        <time>2021-06-12T17:27:22Z</time>
      </trkpt>
      <trkpt lat="41.806186" lon="2.358995">
        <ele>1340.871</ele>
        <time>2021-06-12T17:27:26Z</time>
      </trkpt>
      <trkpt lat="41.806191" lon="2.358924">
        <ele>1339.866</ele>
        <time>2021-06-12T17:27:31Z</time>
      </trkpt>
      <trkpt lat="41.806202" lon="2.358862">
        <ele>1340.333</ele>
        <time>2021-06-12T17:27:35Z</time>
      </trkpt>
      <trkpt lat="41.806222" lon="2.358806">
        <ele>1341.452</ele>
        <time>2021-06-12T17:27:39Z</time>
      </trkpt>
      <trkpt lat="41.806230" lon="2.358744">
        <ele>1340.978</ele>
        <time>2021-06-12T17:27:43Z</time>
      </trkpt>
      <trkpt lat="41.806238" lon="2.358676">
        <ele>1341.298</ele>
        <time>2021-06-12T17:27:47Z</time>
      </trkpt>
      <trkpt lat="41.806254" lon="2.358614">
        <ele>1340.715</ele>
        <time>2021-06-12T17:27:52Z</time>
      </trkpt>
      <trkpt lat="41.806287" lon="2.358566">
        <ele>1341.626</ele>
        <time>2021-06-12T17:27:56Z</time>
      </trkpt>
      <trkpt lat="41.806324" lon="2.358521">
        <ele>1341.508</ele>
        <time>2021-06-12T17:28:00Z</time>
      </trkpt>
      <trkpt lat="41.806351" lon="2.358463">
        <ele>1340.086</ele>
        <time>2021-06-12T17:28:06Z</time>
      </trkpt>
      <trkpt lat="41.806387" lon="2.358424">
        <ele>1340.964</ele>
        <time>2021-06-12T17:28:10Z</time>
      </trkpt>
      <trkpt lat="41.806426" lon="2.358393">
        <ele>1341.027</ele>
        <time>2021-06-12T17:28:14Z</time>
      </trkpt>
      <trkpt lat="41.806467" lon="2.358346">
        <ele>1339.052</ele>
        <time>2021-06-12T17:28:19Z</time>
      </trkpt>
      <trkpt lat="41.806497" lon="2.358299">
        <ele>1338.737</ele>
        <time>2021-06-12T17:28:23Z</time>
      </trkpt>
      <trkpt lat="41.806520" lon="2.358236">
        <ele>1337.554</ele>
        <time>2021-06-12T17:28:26Z</time>
      </trkpt>
      <trkpt lat="41.806545" lon="2.358175">
        <ele>1337.373</ele>
        <time>2021-06-12T17:28:29Z</time>
      </trkpt>
      <trkpt lat="41.806580" lon="2.358119">
        <ele>1336.149</ele>
        <time>2021-06-12T17:28:33Z</time>
      </trkpt>
      <trkpt lat="41.806613" lon="2.358067">
        <ele>1337.838</ele>
        <time>2021-06-12T17:28:36Z</time>
      </trkpt>
      <trkpt lat="41.806637" lon="2.358004">
        <ele>1337.370</ele>
        <time>2021-06-12T17:28:40Z</time>
      </trkpt>
      <trkpt lat="41.806652" lon="2.357945">
        <ele>1337.817</ele>
        <time>2021-06-12T17:28:43Z</time>
      </trkpt>
      <trkpt lat="41.806659" lon="2.357881">
        <ele>1335.508</ele>
        <time>2021-06-12T17:28:47Z</time>
      </trkpt>
      <trkpt lat="41.806680" lon="2.357817">
        <ele>1336.360</ele>
        <time>2021-06-12T17:28:52Z</time>
      </trkpt>
      <trkpt lat="41.806688" lon="2.357757">
        <ele>1335.098</ele>
        <time>2021-06-12T17:28:56Z</time>
      </trkpt>
      <trkpt lat="41.806706" lon="2.357693">
        <ele>1334.211</ele>
        <time>2021-06-12T17:29:00Z</time>
      </trkpt>
      <trkpt lat="41.806723" lon="2.357631">
        <ele>1336.576</ele>
        <time>2021-06-12T17:29:04Z</time>
      </trkpt>
      <trkpt lat="41.806724" lon="2.357570">
        <ele>1334.851</ele>
        <time>2021-06-12T17:29:07Z</time>
      </trkpt>
      <trkpt lat="41.806725" lon="2.357499">
        <ele>1333.638</ele>
        <time>2021-06-12T17:29:10Z</time>
      </trkpt>
      <trkpt lat="41.806734" lon="2.357431">
        <ele>1333.687</ele>
        <time>2021-06-12T17:29:14Z</time>
      </trkpt>
      <trkpt lat="41.806743" lon="2.357362">
        <ele>1333.243</ele>
        <time>2021-06-12T17:29:18Z</time>
      </trkpt>
      <trkpt lat="41.806758" lon="2.357299">
        <ele>1334.861</ele>
        <time>2021-06-12T17:29:22Z</time>
      </trkpt>
      <trkpt lat="41.806763" lon="2.357237">
        <ele>1333.421</ele>
        <time>2021-06-12T17:29:26Z</time>
      </trkpt>
      <trkpt lat="41.806766" lon="2.357175">
        <ele>1334.213</ele>
        <time>2021-06-12T17:29:29Z</time>
      </trkpt>
      <trkpt lat="41.806758" lon="2.357098">
        <ele>1334.708</ele>
        <time>2021-06-12T17:29:33Z</time>
      </trkpt>
      <trkpt lat="41.806734" lon="2.357040">
        <ele>1334.693</ele>
        <time>2021-06-12T17:29:38Z</time>
      </trkpt>
      <trkpt lat="41.806737" lon="2.356965">
        <ele>1332.881</ele>
        <time>2021-06-12T17:29:43Z</time>
      </trkpt>
      <trkpt lat="41.806738" lon="2.356902">
        <ele>1333.644</ele>
        <time>2021-06-12T17:29:47Z</time>
      </trkpt>
      <trkpt lat="41.806726" lon="2.356834">
        <ele>1333.379</ele>
        <time>2021-06-12T17:29:52Z</time>
      </trkpt>
      <trkpt lat="41.806712" lon="2.356766">
        <ele>1333.164</ele>
        <time>2021-06-12T17:29:56Z</time>
      </trkpt>
      <trkpt lat="41.806709" lon="2.356685">
        <ele>1334.941</ele>
        <time>2021-06-12T17:30:00Z</time>
      </trkpt>
      <trkpt lat="41.806709" lon="2.356620">
        <ele>1335.940</ele>
        <time>2021-06-12T17:30:03Z</time>
      </trkpt>
      <trkpt lat="41.806703" lon="2.356556">
        <ele>1335.326</ele>
        <time>2021-06-12T17:30:07Z</time>
      </trkpt>
      <trkpt lat="41.806692" lon="2.356493">
        <ele>1333.842</ele>
        <time>2021-06-12T17:30:11Z</time>
      </trkpt>
      <trkpt lat="41.806696" lon="2.356425">
        <ele>1333.522</ele>
        <time>2021-06-12T17:30:15Z</time>
      </trkpt>
      <trkpt lat="41.806698" lon="2.356364">
        <ele>1333.614</ele>
        <time>2021-06-12T17:30:18Z</time>
      </trkpt>
      <trkpt lat="41.806692" lon="2.356295">
        <ele>1334.208</ele>
        <time>2021-06-12T17:30:21Z</time>
      </trkpt>
      <trkpt lat="41.806691" lon="2.356230">
        <ele>1333.421</ele>
        <time>2021-06-12T17:30:25Z</time>
      </trkpt>
      <trkpt lat="41.806688" lon="2.356161">
        <ele>1332.369</ele>
        <time>2021-06-12T17:30:30Z</time>
      </trkpt>
      <trkpt lat="41.806678" lon="2.356095">
        <ele>1332.532</ele>
        <time>2021-06-12T17:30:33Z</time>
      </trkpt>
      <trkpt lat="41.806678" lon="2.356032">
        <ele>1332.757</ele>
        <time>2021-06-12T17:30:37Z</time>
      </trkpt>
      <trkpt lat="41.806669" lon="2.355965">
        <ele>1331.442</ele>
        <time>2021-06-12T17:30:41Z</time>
      </trkpt>
      <trkpt lat="41.806647" lon="2.355910">
        <ele>1331.769</ele>
        <time>2021-06-12T17:30:44Z</time>
      </trkpt>
      <trkpt lat="41.806604" lon="2.355888">
        <ele>1330.958</ele>
        <time>2021-06-12T17:30:49Z</time>
      </trkpt>
      <trkpt lat="41.806621" lon="2.355945">
        <ele>1330.594</ele>
        <time>2021-06-12T17:31:19Z</time>
      </trkpt>
      <trkpt lat="41.806574" lon="2.355916">
        <ele>1327.497</ele>
        <time>2021-06-12T17:32:03Z</time>
      </trkpt>
      <trkpt lat="41.806546" lon="2.355863">
        <ele>1327.523</ele>
        <time>2021-06-12T17:32:08Z</time>
      </trkpt>
      <trkpt lat="41.806525" lon="2.355807">
        <ele>1325.025</ele>
        <time>2021-06-12T17:32:12Z</time>
      </trkpt>
      <trkpt lat="41.806507" lon="2.355743">
        <ele>1325.308</ele>
        <time>2021-06-12T17:32:15Z</time>
      </trkpt>
      <trkpt lat="41.806499" lon="2.355675">
        <ele>1325.676</ele>
        <time>2021-06-12T17:32:19Z</time>
      </trkpt>
      <trkpt lat="41.806487" lon="2.355616">
        <ele>1325.494</ele>
        <time>2021-06-12T17:32:22Z</time>
      </trkpt>
      <trkpt lat="41.806493" lon="2.355551">
        <ele>1327.017</ele>
        <time>2021-06-12T17:32:25Z</time>
      </trkpt>
      <trkpt lat="41.806516" lon="2.355487">
        <ele>1327.782</ele>
        <time>2021-06-12T17:32:28Z</time>
      </trkpt>
      <trkpt lat="41.806525" lon="2.355427">
        <ele>1326.997</ele>
        <time>2021-06-12T17:32:32Z</time>
      </trkpt>
      <trkpt lat="41.806514" lon="2.355364">
        <ele>1326.954</ele>
        <time>2021-06-12T17:32:36Z</time>
      </trkpt>
      <trkpt lat="41.806491" lon="2.355310">
        <ele>1326.063</ele>
        <time>2021-06-12T17:32:40Z</time>
      </trkpt>
      <trkpt lat="41.806469" lon="2.355248">
        <ele>1324.549</ele>
        <time>2021-06-12T17:32:45Z</time>
      </trkpt>
      <trkpt lat="41.806457" lon="2.355188">
        <ele>1323.934</ele>
        <time>2021-06-12T17:32:49Z</time>
      </trkpt>
      <trkpt lat="41.806432" lon="2.355137">
        <ele>1321.855</ele>
        <time>2021-06-12T17:32:58Z</time>
      </trkpt>
      <trkpt lat="41.806419" lon="2.355077">
        <ele>1320.510</ele>
        <time>2021-06-12T17:33:04Z</time>
      </trkpt>
      <trkpt lat="41.806381" lon="2.355040">
        <ele>1319.108</ele>
        <time>2021-06-12T17:33:10Z</time>
      </trkpt>
      <trkpt lat="41.806337" lon="2.355026">
        <ele>1318.790</ele>
        <time>2021-06-12T17:33:14Z</time>
      </trkpt>
      <trkpt lat="41.806306" lon="2.354976">
        <ele>1316.988</ele>
        <time>2021-06-12T17:33:18Z</time>
      </trkpt>
      <trkpt lat="41.806282" lon="2.354924">
        <ele>1316.611</ele>
        <time>2021-06-12T17:33:23Z</time>
      </trkpt>
      <trkpt lat="41.806243" lon="2.354892">
        <ele>1315.256</ele>
        <time>2021-06-12T17:33:29Z</time>
      </trkpt>
      <trkpt lat="41.806211" lon="2.354841">
        <ele>1314.071</ele>
        <time>2021-06-12T17:33:33Z</time>
      </trkpt>
      <trkpt lat="41.806203" lon="2.354779">
        <ele>1313.478</ele>
        <time>2021-06-12T17:33:36Z</time>
      </trkpt>
      <trkpt lat="41.806196" lon="2.354714">
        <ele>1311.747</ele>
        <time>2021-06-12T17:33:41Z</time>
      </trkpt>
      <trkpt lat="41.806179" lon="2.354654">
        <ele>1311.233</ele>
        <time>2021-06-12T17:33:46Z</time>
      </trkpt>
      <trkpt lat="41.806157" lon="2.354598">
        <ele>1309.225</ele>
        <time>2021-06-12T17:33:52Z</time>
      </trkpt>
      <trkpt lat="41.806112" lon="2.354568">
        <ele>1308.526</ele>
        <time>2021-06-12T17:33:57Z</time>
      </trkpt>
      <trkpt lat="41.806086" lon="2.354517">
        <ele>1306.808</ele>
        <time>2021-06-12T17:34:01Z</time>
      </trkpt>
      <trkpt lat="41.806073" lon="2.354453">
        <ele>1307.108</ele>
        <time>2021-06-12T17:34:05Z</time>
      </trkpt>
      <trkpt lat="41.806047" lon="2.354402">
        <ele>1306.789</ele>
        <time>2021-06-12T17:34:09Z</time>
      </trkpt>
      <trkpt lat="41.806019" lon="2.354351">
        <ele>1306.237</ele>
        <time>2021-06-12T17:34:13Z</time>
      </trkpt>
      <trkpt lat="41.805993" lon="2.354297">
        <ele>1303.980</ele>
        <time>2021-06-12T17:34:17Z</time>
      </trkpt>
      <trkpt lat="41.805982" lon="2.354227">
        <ele>1304.645</ele>
        <time>2021-06-12T17:34:21Z</time>
      </trkpt>
      <trkpt lat="41.805964" lon="2.354170">
        <ele>1303.940</ele>
        <time>2021-06-12T17:34:24Z</time>
      </trkpt>
      <trkpt lat="41.805953" lon="2.354111">
        <ele>1303.557</ele>
        <time>2021-06-12T17:34:27Z</time>
      </trkpt>
      <trkpt lat="41.805944" lon="2.354046">
        <ele>1302.956</ele>
        <time>2021-06-12T17:34:32Z</time>
      </trkpt>
      <trkpt lat="41.805905" lon="2.354004">
        <ele>1302.142</ele>
        <time>2021-06-12T17:34:36Z</time>
      </trkpt>
      <trkpt lat="41.805874" lon="2.353954">
        <ele>1300.549</ele>
        <time>2021-06-12T17:34:40Z</time>
      </trkpt>
      <trkpt lat="41.805857" lon="2.353894">
        <ele>1300.602</ele>
        <time>2021-06-12T17:34:44Z</time>
      </trkpt>
      <trkpt lat="41.805841" lon="2.353831">
        <ele>1300.122</ele>
        <time>2021-06-12T17:34:48Z</time>
      </trkpt>
      <trkpt lat="41.805824" lon="2.353765">
        <ele>1299.908</ele>
        <time>2021-06-12T17:34:52Z</time>
      </trkpt>
      <trkpt lat="41.805812" lon="2.353706">
        <ele>1298.351</ele>
        <time>2021-06-12T17:34:57Z</time>
      </trkpt>
      <trkpt lat="41.805801" lon="2.353641">
        <ele>1298.029</ele>
        <time>2021-06-12T17:35:01Z</time>
      </trkpt>
      <trkpt lat="41.805802" lon="2.353573">
        <ele>1297.052</ele>
        <time>2021-06-12T17:35:07Z</time>
      </trkpt>
      <trkpt lat="41.805774" lon="2.353515">
        <ele>1295.227</ele>
        <time>2021-06-12T17:35:13Z</time>
      </trkpt>
      <trkpt lat="41.805772" lon="2.353448">
        <ele>1295.632</ele>
        <time>2021-06-12T17:35:17Z</time>
      </trkpt>
      <trkpt lat="41.805746" lon="2.353392">
        <ele>1294.689</ele>
        <time>2021-06-12T17:35:22Z</time>
      </trkpt>
      <trkpt lat="41.805722" lon="2.353338">
        <ele>1293.458</ele>
        <time>2021-06-12T17:35:28Z</time>
      </trkpt>
      <trkpt lat="41.805693" lon="2.353291">
        <ele>1292.164</ele>
        <time>2021-06-12T17:35:34Z</time>
      </trkpt>
      <trkpt lat="41.805652" lon="2.353259">
        <ele>1290.114</ele>
        <time>2021-06-12T17:35:48Z</time>
      </trkpt>
      <trkpt lat="41.805614" lon="2.353216">
        <ele>1288.354</ele>
        <time>2021-06-12T17:35:54Z</time>
      </trkpt>
      <trkpt lat="41.805587" lon="2.353162">
        <ele>1287.209</ele>
        <time>2021-06-12T17:35:58Z</time>
      </trkpt>
      <trkpt lat="41.805545" lon="2.353128">
        <ele>1286.608</ele>
        <time>2021-06-12T17:36:03Z</time>
      </trkpt>
      <trkpt lat="41.805532" lon="2.353066">
        <ele>1286.088</ele>
        <time>2021-06-12T17:36:07Z</time>
      </trkpt>
      <trkpt lat="41.805507" lon="2.353008">
        <ele>1284.726</ele>
        <time>2021-06-12T17:36:12Z</time>
      </trkpt>
      <trkpt lat="41.805478" lon="2.352961">
        <ele>1282.719</ele>
        <time>2021-06-12T17:36:15Z</time>
      </trkpt>
      <trkpt lat="41.805437" lon="2.352934">
        <ele>1283.344</ele>
        <time>2021-06-12T17:36:21Z</time>
      </trkpt>
      <trkpt lat="41.805426" lon="2.352874">
        <ele>1282.019</ele>
        <time>2021-06-12T17:36:27Z</time>
      </trkpt>
      <trkpt lat="41.805416" lon="2.352809">
        <ele>1280.596</ele>
        <time>2021-06-12T17:36:33Z</time>
      </trkpt>
      <trkpt lat="41.805393" lon="2.352754">
        <ele>1280.035</ele>
        <time>2021-06-12T17:36:39Z</time>
      </trkpt>
      <trkpt lat="41.805383" lon="2.352694">
        <ele>1279.211</ele>
        <time>2021-06-12T17:36:43Z</time>
      </trkpt>
      <trkpt lat="41.805372" lon="2.352634">
        <ele>1278.327</ele>
        <time>2021-06-12T17:36:47Z</time>
      </trkpt>
      <trkpt lat="41.805333" lon="2.352592">
        <ele>1277.168</ele>
        <time>2021-06-12T17:36:52Z</time>
      </trkpt>
      <trkpt lat="41.805303" lon="2.352547">
        <ele>1276.514</ele>
        <time>2021-06-12T17:36:57Z</time>
      </trkpt>
      <trkpt lat="41.805272" lon="2.352497">
        <ele>1275.308</ele>
        <time>2021-06-12T17:37:02Z</time>
      </trkpt>
      <trkpt lat="41.805243" lon="2.352444">
        <ele>1274.019</ele>
        <time>2021-06-12T17:37:08Z</time>
      </trkpt>
      <trkpt lat="41.805208" lon="2.352397">
        <ele>1272.337</ele>
        <time>2021-06-12T17:37:12Z</time>
      </trkpt>
      <trkpt lat="41.805165" lon="2.352363">
        <ele>1271.830</ele>
        <time>2021-06-12T17:37:17Z</time>
      </trkpt>
      <trkpt lat="41.805130" lon="2.352323">
        <ele>1271.555</ele>
        <time>2021-06-12T17:37:22Z</time>
      </trkpt>
      <trkpt lat="41.805092" lon="2.352279">
        <ele>1270.180</ele>
        <time>2021-06-12T17:37:28Z</time>
      </trkpt>
      <trkpt lat="41.805064" lon="2.352228">
        <ele>1269.597</ele>
        <time>2021-06-12T17:37:32Z</time>
      </trkpt>
      <trkpt lat="41.805029" lon="2.352179">
        <ele>1267.856</ele>
        <time>2021-06-12T17:37:36Z</time>
      </trkpt>
      <trkpt lat="41.804993" lon="2.352138">
        <ele>1267.762</ele>
        <time>2021-06-12T17:37:41Z</time>
      </trkpt>
      <trkpt lat="41.804963" lon="2.352088">
        <ele>1266.896</ele>
        <time>2021-06-12T17:37:45Z</time>
      </trkpt>
      <trkpt lat="41.804926" lon="2.352051">
        <ele>1266.231</ele>
        <time>2021-06-12T17:37:49Z</time>
      </trkpt>
      <trkpt lat="41.804888" lon="2.352017">
        <ele>1264.424</ele>
        <time>2021-06-12T17:37:56Z</time>
      </trkpt>
      <trkpt lat="41.804854" lon="2.351970">
        <ele>1263.508</ele>
        <time>2021-06-12T17:37:59Z</time>
      </trkpt>
      <trkpt lat="41.804817" lon="2.351930">
        <ele>1264.426</ele>
        <time>2021-06-12T17:38:04Z</time>
      </trkpt>
      <trkpt lat="41.804781" lon="2.351884">
        <ele>1260.664</ele>
        <time>2021-06-12T17:38:12Z</time>
      </trkpt>
      <trkpt lat="41.804771" lon="2.351822">
        <ele>1261.667</ele>
        <time>2021-06-12T17:38:17Z</time>
      </trkpt>
      <trkpt lat="41.804724" lon="2.351802">
        <ele>1261.752</ele>
        <time>2021-06-12T17:38:22Z</time>
      </trkpt>
      <trkpt lat="41.804676" lon="2.351785">
        <ele>1260.017</ele>
        <time>2021-06-12T17:38:27Z</time>
      </trkpt>
      <trkpt lat="41.804642" lon="2.351742">
        <ele>1258.384</ele>
        <time>2021-06-12T17:38:33Z</time>
      </trkpt>
      <trkpt lat="41.804595" lon="2.351756">
        <ele>1257.013</ele>
        <time>2021-06-12T17:38:38Z</time>
      </trkpt>
      <trkpt lat="41.804549" lon="2.351747">
        <ele>1256.339</ele>
        <time>2021-06-12T17:38:42Z</time>
      </trkpt>
      <trkpt lat="41.804510" lon="2.351717">
        <ele>1254.312</ele>
        <time>2021-06-12T17:38:46Z</time>
      </trkpt>
      <trkpt lat="41.804471" lon="2.351683">
        <ele>1255.032</ele>
        <time>2021-06-12T17:38:49Z</time>
      </trkpt>
      <trkpt lat="41.804429" lon="2.351645">
        <ele>1254.205</ele>
        <time>2021-06-12T17:38:53Z</time>
      </trkpt>
      <trkpt lat="41.804390" lon="2.351608">
        <ele>1253.608</ele>
        <time>2021-06-12T17:38:57Z</time>
      </trkpt>
      <trkpt lat="41.804352" lon="2.351570">
        <ele>1252.888</ele>
        <time>2021-06-12T17:39:02Z</time>
      </trkpt>
      <trkpt lat="41.804310" lon="2.351538">
        <ele>1252.186</ele>
        <time>2021-06-12T17:39:07Z</time>
      </trkpt>
      <trkpt lat="41.804261" lon="2.351520">
        <ele>1250.359</ele>
        <time>2021-06-12T17:39:13Z</time>
      </trkpt>
      <trkpt lat="41.804228" lon="2.351470">
        <ele>1250.424</ele>
        <time>2021-06-12T17:39:19Z</time>
      </trkpt>
      <trkpt lat="41.804194" lon="2.351429">
        <ele>1250.429</ele>
        <time>2021-06-12T17:39:25Z</time>
      </trkpt>
      <trkpt lat="41.804181" lon="2.351364">
        <ele>1248.756</ele>
        <time>2021-06-12T17:39:31Z</time>
      </trkpt>
      <trkpt lat="41.804189" lon="2.351304">
        <ele>1247.895</ele>
        <time>2021-06-12T17:39:35Z</time>
      </trkpt>
      <trkpt lat="41.804142" lon="2.351294">
        <ele>1248.411</ele>
        <time>2021-06-12T17:39:40Z</time>
      </trkpt>
      <trkpt lat="41.804094" lon="2.351271">
        <ele>1246.467</ele>
        <time>2021-06-12T17:39:47Z</time>
      </trkpt>
      <trkpt lat="41.804062" lon="2.351226">
        <ele>1244.581</ele>
        <time>2021-06-12T17:39:57Z</time>
      </trkpt>
      <trkpt lat="41.804025" lon="2.351191">
        <ele>1242.819</ele>
        <time>2021-06-12T17:40:01Z</time>
      </trkpt>
      <trkpt lat="41.804004" lon="2.351132">
        <ele>1242.608</ele>
        <time>2021-06-12T17:40:05Z</time>
      </trkpt>
      <trkpt lat="41.803982" lon="2.351076">
        <ele>1241.433</ele>
        <time>2021-06-12T17:40:11Z</time>
      </trkpt>
      <trkpt lat="41.803958" lon="2.351021">
        <ele>1240.061</ele>
        <time>2021-06-12T17:40:19Z</time>
      </trkpt>
      <trkpt lat="41.803927" lon="2.350975">
        <ele>1239.364</ele>
        <time>2021-06-12T17:40:25Z</time>
      </trkpt>
      <trkpt lat="41.803888" lon="2.350939">
        <ele>1238.739</ele>
        <time>2021-06-12T17:40:31Z</time>
      </trkpt>
      <trkpt lat="41.803842" lon="2.350915">
        <ele>1237.494</ele>
        <time>2021-06-12T17:40:36Z</time>
      </trkpt>
      <trkpt lat="41.803794" lon="2.350906">
        <ele>1236.231</ele>
        <time>2021-06-12T17:40:41Z</time>
      </trkpt>
      <trkpt lat="41.803757" lon="2.350870">
        <ele>1233.930</ele>
        <time>2021-06-12T17:40:46Z</time>
      </trkpt>
      <trkpt lat="41.803710" lon="2.350858">
        <ele>1233.226</ele>
        <time>2021-06-12T17:40:53Z</time>
      </trkpt>
      <trkpt lat="41.803683" lon="2.350804">
        <ele>1232.582</ele>
        <time>2021-06-12T17:40:58Z</time>
      </trkpt>
      <trkpt lat="41.803653" lon="2.350747">
        <ele>1231.143</ele>
        <time>2021-06-12T17:41:03Z</time>
      </trkpt>
      <trkpt lat="41.803614" lon="2.350716">
        <ele>1229.717</ele>
        <time>2021-06-12T17:41:07Z</time>
      </trkpt>
      <trkpt lat="41.803567" lon="2.350708">
        <ele>1229.008</ele>
        <time>2021-06-12T17:41:12Z</time>
      </trkpt>
      <trkpt lat="41.803519" lon="2.350720">
        <ele>1227.995</ele>
        <time>2021-06-12T17:41:17Z</time>
      </trkpt>
      <trkpt lat="41.803471" lon="2.350716">
        <ele>1226.693</ele>
        <time>2021-06-12T17:41:22Z</time>
      </trkpt>
      <trkpt lat="41.803457" lon="2.350653">
        <ele>1224.536</ele>
        <time>2021-06-12T17:41:28Z</time>
      </trkpt>
      <trkpt lat="41.803409" lon="2.350657">
        <ele>1224.381</ele>
        <time>2021-06-12T17:41:34Z</time>
      </trkpt>
      <trkpt lat="41.803357" lon="2.350604">
        <ele>1223.826</ele>
        <time>2021-06-12T17:41:39Z</time>
      </trkpt>
      <trkpt lat="41.803150" lon="2.350419">
        <ele>1223.363</ele>
        <time>2021-06-12T17:41:44Z</time>
      </trkpt>
      <trkpt lat="41.802818" lon="2.349834">
        <ele>1204.382</ele>
        <time>2021-06-12T17:43:34Z</time>
      </trkpt>
      <trkpt lat="41.802812" lon="2.349828">
        <ele>1203.838</ele>
        <time>2021-06-12T17:43:38Z</time>
      </trkpt>
      <trkpt lat="41.802791" lon="2.349764">
        <ele>1202.765</ele>
        <time>2021-06-12T17:43:44Z</time>
      </trkpt>
      <trkpt lat="41.802724" lon="2.349705">
        <ele>1201.168</ele>
        <time>2021-06-12T17:43:51Z</time>
      </trkpt>
      <trkpt lat="41.802689" lon="2.349659">
        <ele>1200.314</ele>
        <time>2021-06-12T17:43:58Z</time>
      </trkpt>
      <trkpt lat="41.802662" lon="2.349666">
        <ele>1199.208</ele>
        <time>2021-06-12T17:44:03Z</time>
      </trkpt>
      <trkpt lat="41.802641" lon="2.349675">
        <ele>1198.943</ele>
        <time>2021-06-12T17:44:07Z</time>
      </trkpt>
      <trkpt lat="41.802641" lon="2.349609">
        <ele>1196.061</ele>
        <time>2021-06-12T17:44:22Z</time>
      </trkpt>
      <trkpt lat="41.802533" lon="2.349589">
        <ele>1195.114</ele>
        <time>2021-06-12T17:44:27Z</time>
      </trkpt>
      <trkpt lat="41.802498" lon="2.349540">
        <ele>1193.729</ele>
        <time>2021-06-12T17:44:35Z</time>
      </trkpt>
      <trkpt lat="41.802446" lon="2.349512">
        <ele>1191.734</ele>
        <time>2021-06-12T17:44:45Z</time>
      </trkpt>
      <trkpt lat="41.802406" lon="2.349474">
        <ele>1190.191</ele>
        <time>2021-06-12T17:44:54Z</time>
      </trkpt>
      <trkpt lat="41.802409" lon="2.349397">
        <ele>1188.550</ele>
        <time>2021-06-12T17:45:00Z</time>
      </trkpt>
      <trkpt lat="41.802379" lon="2.349330">
        <ele>1187.196</ele>
        <time>2021-06-12T17:45:06Z</time>
      </trkpt>
      <trkpt lat="41.802358" lon="2.349305">
        <ele>1186.567</ele>
        <time>2021-06-12T17:45:11Z</time>
      </trkpt>
      <trkpt lat="41.802331" lon="2.349256">
        <ele>1184.681</ele>
        <time>2021-06-12T17:45:15Z</time>
      </trkpt>
      <trkpt lat="41.802339" lon="2.349252">
        <ele>1183.719</ele>
        <time>2021-06-12T17:45:20Z</time>
      </trkpt>
      <trkpt lat="41.802269" lon="2.349221">
        <ele>1183.108</ele>
        <time>2021-06-12T17:45:25Z</time>
      </trkpt>
      <trkpt lat="41.802261" lon="2.349193">
        <ele>1181.443</ele>
        <time>2021-06-12T17:45:31Z</time>
      </trkpt>
      <trkpt lat="41.802231" lon="2.349165">
        <ele>1180.611</ele>
        <time>2021-06-12T17:45:35Z</time>
      </trkpt>
      <trkpt lat="41.802182" lon="2.349088">
        <ele>1177.814</ele>
        <time>2021-06-12T17:45:45Z</time>
      </trkpt>
      <trkpt lat="41.802155" lon="2.349011">
        <ele>1176.499</ele>
        <time>2021-06-12T17:45:53Z</time>
      </trkpt>
      <trkpt lat="41.802131" lon="2.348997">
        <ele>1175.034</ele>
        <time>2021-06-12T17:46:00Z</time>
      </trkpt>
      <trkpt lat="41.802096" lon="2.348955">
        <ele>1172.751</ele>
        <time>2021-06-12T17:46:12Z</time>
      </trkpt>
      <trkpt lat="41.802072" lon="2.348938">
        <ele>1170.880</ele>
        <time>2021-06-12T17:46:22Z</time>
      </trkpt>
      <trkpt lat="41.802040" lon="2.348882">
        <ele>1169.736</ele>
        <time>2021-06-12T17:46:31Z</time>
      </trkpt>
      <trkpt lat="41.802042" lon="2.348906">
        <ele>1169.248</ele>
        <time>2021-06-12T17:46:35Z</time>
      </trkpt>
      <trkpt lat="41.802026" lon="2.348864">
        <ele>1167.861</ele>
        <time>2021-06-12T17:46:42Z</time>
      </trkpt>
      <trkpt lat="41.802002" lon="2.348843">
        <ele>1167.017</ele>
        <time>2021-06-12T17:46:46Z</time>
      </trkpt>
      <trkpt lat="41.802029" lon="2.348784">
        <ele>1167.608</ele>
        <time>2021-06-12T17:46:49Z</time>
      </trkpt>
      <trkpt lat="41.801982" lon="2.348800">
        <ele>1166.651</ele>
        <time>2021-06-12T17:46:52Z</time>
      </trkpt>
      <trkpt lat="41.801940" lon="2.348721">
        <ele>1166.229</ele>
        <time>2021-06-12T17:46:55Z</time>
      </trkpt>
      <trkpt lat="41.801808" lon="2.348605">
        <ele>1165.512</ele>
        <time>2021-06-12T17:46:58Z</time>
      </trkpt>
      <trkpt lat="41.801792" lon="2.348553">
        <ele>1164.937</ele>
        <time>2021-06-12T17:47:01Z</time>
      </trkpt>
      <trkpt lat="41.801724" lon="2.348588">
        <ele>1163.332</ele>
        <time>2021-06-12T17:47:05Z</time>
      </trkpt>
      <trkpt lat="41.801657" lon="2.348588">
        <ele>1163.039</ele>
        <time>2021-06-12T17:47:09Z</time>
      </trkpt>
      <trkpt lat="41.801554" lon="2.348644">
        <ele>1163.398</ele>
        <time>2021-06-12T17:47:28Z</time>
      </trkpt>
      <trkpt lat="41.801594" lon="2.348516">
        <ele>1150.544</ele>
        <time>2021-06-12T17:48:52Z</time>
      </trkpt>
      <trkpt lat="41.801567" lon="2.348564">
        <ele>1148.355</ele>
        <time>2021-06-12T17:48:57Z</time>
      </trkpt>
      <trkpt lat="41.801527" lon="2.348530">
        <ele>1149.907</ele>
        <time>2021-06-12T17:49:01Z</time>
      </trkpt>
      <trkpt lat="41.801492" lon="2.348573">
        <ele>1150.117</ele>
        <time>2021-06-12T17:49:09Z</time>
      </trkpt>
      <trkpt lat="41.801448" lon="2.348549">
        <ele>1147.008</ele>
        <time>2021-06-12T17:49:17Z</time>
      </trkpt>
      <trkpt lat="41.801422" lon="2.348492">
        <ele>1145.942</ele>
        <time>2021-06-12T17:49:22Z</time>
      </trkpt>
      <trkpt lat="41.801415" lon="2.348429">
        <ele>1145.020</ele>
        <time>2021-06-12T17:49:26Z</time>
      </trkpt>
      <trkpt lat="41.801400" lon="2.348367">
        <ele>1143.843</ele>
        <time>2021-06-12T17:49:31Z</time>
      </trkpt>
      <trkpt lat="41.801376" lon="2.348315">
        <ele>1143.048</ele>
        <time>2021-06-12T17:49:37Z</time>
      </trkpt>
      <trkpt lat="41.801347" lon="2.348263">
        <ele>1141.773</ele>
        <time>2021-06-12T17:49:43Z</time>
      </trkpt>
      <trkpt lat="41.801323" lon="2.348207">
        <ele>1140.960</ele>
        <time>2021-06-12T17:49:49Z</time>
      </trkpt>
      <trkpt lat="41.801295" lon="2.348158">
        <ele>1139.699</ele>
        <time>2021-06-12T17:49:55Z</time>
      </trkpt>
      <trkpt lat="41.801262" lon="2.348113">
        <ele>1138.215</ele>
        <time>2021-06-12T17:50:03Z</time>
      </trkpt>
      <trkpt lat="41.801251" lon="2.348044">
        <ele>1136.087</ele>
        <time>2021-06-12T17:50:08Z</time>
      </trkpt>
      <trkpt lat="41.801235" lon="2.347987">
        <ele>1135.442</ele>
        <time>2021-06-12T17:50:12Z</time>
      </trkpt>
      <trkpt lat="41.801238" lon="2.347927">
        <ele>1135.026</ele>
        <time>2021-06-12T17:50:18Z</time>
      </trkpt>
      <trkpt lat="41.801210" lon="2.347871">
        <ele>1133.808</ele>
        <time>2021-06-12T17:50:38Z</time>
      </trkpt>
      <trkpt lat="41.801227" lon="2.347809">
        <ele>1133.395</ele>
        <time>2021-06-12T17:50:50Z</time>
      </trkpt>
      <trkpt lat="41.801243" lon="2.347751">
        <ele>1133.273</ele>
        <time>2021-06-12T17:51:06Z</time>
      </trkpt>
      <trkpt lat="41.801244" lon="2.347738">
        <ele>1136.756</ele>
        <time>2021-06-12T17:51:59Z</time>
      </trkpt>
      <trkpt lat="41.801227" lon="2.347678">
        <ele>1130.271</ele>
        <time>2021-06-12T17:52:37Z</time>
      </trkpt>
      <trkpt lat="41.801201" lon="2.347617">
        <ele>1130.156</ele>
        <time>2021-06-12T17:52:41Z</time>
      </trkpt>
      <trkpt lat="41.801182" lon="2.347562">
        <ele>1128.543</ele>
        <time>2021-06-12T17:52:51Z</time>
      </trkpt>
      <trkpt lat="41.801135" lon="2.347565">
        <ele>1126.992</ele>
        <time>2021-06-12T17:52:59Z</time>
      </trkpt>
      <trkpt lat="41.801097" lon="2.347601">
        <ele>1125.678</ele>
        <time>2021-06-12T17:53:04Z</time>
      </trkpt>
      <trkpt lat="41.801083" lon="2.347538">
        <ele>1124.944</ele>
        <time>2021-06-12T17:53:18Z</time>
      </trkpt>
      <trkpt lat="41.801096" lon="2.347475">
        <ele>1124.905</ele>
        <time>2021-06-12T17:53:21Z</time>
      </trkpt>
      <trkpt lat="41.801106" lon="2.347411">
        <ele>1124.815</ele>
        <time>2021-06-12T17:53:25Z</time>
      </trkpt>
      <trkpt lat="41.801058" lon="2.347424">
        <ele>1124.908</ele>
        <time>2021-06-12T17:53:33Z</time>
      </trkpt>
      <trkpt lat="41.801013" lon="2.347438">
        <ele>1124.911</ele>
        <time>2021-06-12T17:53:43Z</time>
      </trkpt>
      <trkpt lat="41.800972" lon="2.347400">
        <ele>1124.989</ele>
        <time>2021-06-12T17:53:46Z</time>
      </trkpt>
      <trkpt lat="41.800943" lon="2.347596">
        <ele>1125.152</ele>
        <time>2021-06-12T17:53:49Z</time>
      </trkpt>
      <trkpt lat="41.800894" lon="2.347512">
        <ele>1125.147</ele>
        <time>2021-06-12T17:53:54Z</time>
      </trkpt>
      <trkpt lat="41.800808" lon="2.347330">
        <ele>1126.022</ele>
        <time>2021-06-12T17:53:59Z</time>
      </trkpt>
      <trkpt lat="41.800765" lon="2.347239">
        <ele>1126.829</ele>
        <time>2021-06-12T17:54:03Z</time>
      </trkpt>
      <trkpt lat="41.800738" lon="2.347204">
        <ele>1123.758</ele>
        <time>2021-06-12T17:54:07Z</time>
      </trkpt>
      <trkpt lat="41.800754" lon="2.347154">
        <ele>1128.344</ele>
        <time>2021-06-12T17:54:15Z</time>
      </trkpt>
      <trkpt lat="41.800709" lon="2.347124">
        <ele>1127.942</ele>
        <time>2021-06-12T17:54:20Z</time>
      </trkpt>
      <trkpt lat="41.800671" lon="2.347089">
        <ele>1128.922</ele>
        <time>2021-06-12T17:54:28Z</time>
      </trkpt>
      <trkpt lat="41.800601" lon="2.347047">
        <ele>1128.614</ele>
        <time>2021-06-12T17:54:33Z</time>
      </trkpt>
      <trkpt lat="41.800514" lon="2.346998">
        <ele>1129.108</ele>
        <time>2021-06-12T17:54:37Z</time>
      </trkpt>
      <trkpt lat="41.800463" lon="2.346973">
        <ele>1129.521</ele>
        <time>2021-06-12T17:54:41Z</time>
      </trkpt>
      <trkpt lat="41.800412" lon="2.346928">
        <ele>1129.629</ele>
        <time>2021-06-12T17:54:45Z</time>
      </trkpt>
      <trkpt lat="41.800347" lon="2.346882">
        <ele>1129.782</ele>
        <time>2021-06-12T17:54:49Z</time>
      </trkpt>
      <trkpt lat="41.800269" lon="2.346844">
        <ele>1130.167</ele>
        <time>2021-06-12T17:54:53Z</time>
      </trkpt>
      <trkpt lat="41.800210" lon="2.346819">
        <ele>1130.452</ele>
        <time>2021-06-12T17:54:59Z</time>
      </trkpt>
      <trkpt lat="41.800129" lon="2.346774">
        <ele>1130.789</ele>
        <time>2021-06-12T17:55:04Z</time>
      </trkpt>
      <trkpt lat="41.800035" lon="2.346767">
        <ele>1130.938</ele>
        <time>2021-06-12T17:55:08Z</time>
      </trkpt>
      <trkpt lat="41.799852" lon="2.346774">
        <ele>1131.524</ele>
        <time>2021-06-12T17:55:12Z</time>
      </trkpt>
      <trkpt lat="41.799606" lon="2.346802">
        <ele>1131.656</ele>
        <time>2021-06-12T17:55:16Z</time>
      </trkpt>
      <trkpt lat="41.799520" lon="2.346760">
        <ele>1135.959</ele>
        <time>2021-06-12T17:56:20Z</time>
      </trkpt>
      <trkpt lat="41.799436" lon="2.346732">
        <ele>1136.014</ele>
        <time>2021-06-12T17:56:25Z</time>
      </trkpt>
      <trkpt lat="41.799377" lon="2.346693">
        <ele>1136.208</ele>
        <time>2021-06-12T17:56:30Z</time>
      </trkpt>
      <trkpt lat="41.799304" lon="2.346655">
        <ele>1136.812</ele>
        <time>2021-06-12T17:56:35Z</time>
      </trkpt>
      <trkpt lat="41.799275" lon="2.346602">
        <ele>1136.770</ele>
        <time>2021-06-12T17:56:40Z</time>
      </trkpt>
      <trkpt lat="41.799210" lon="2.346567">
        <ele>1137.073</ele>
        <time>2021-06-12T17:56:44Z</time>
      </trkpt>
      <trkpt lat="41.799151" lon="2.346508">
        <ele>1137.228</ele>
        <time>2021-06-12T17:56:49Z</time>
      </trkpt>
      <trkpt lat="41.799089" lon="2.346480">
        <ele>1137.683</ele>
        <time>2021-06-12T17:56:54Z</time>
      </trkpt>
      <trkpt lat="41.799035" lon="2.346448">
        <ele>1137.940</ele>
        <time>2021-06-12T17:56:58Z</time>
      </trkpt>
      <trkpt lat="41.798949" lon="2.346441">
        <ele>1138.459</ele>
        <time>2021-06-12T17:57:02Z</time>
      </trkpt>
      <trkpt lat="41.798876" lon="2.346420">
        <ele>1138.395</ele>
        <time>2021-06-12T17:57:06Z</time>
      </trkpt>
      <trkpt lat="41.798666" lon="2.346182">
        <ele>1142.297</ele>
        <time>2021-06-12T17:58:11Z</time>
      </trkpt>
      <trkpt lat="41.798606" lon="2.346172">
        <ele>1142.423</ele>
        <time>2021-06-12T17:58:15Z</time>
      </trkpt>
      <trkpt lat="41.798552" lon="2.346186">
        <ele>1142.625</ele>
        <time>2021-06-12T17:58:19Z</time>
      </trkpt>
      <trkpt lat="41.798547" lon="2.346224">
        <ele>1142.708</ele>
        <time>2021-06-12T17:58:24Z</time>
      </trkpt>
      <trkpt lat="41.798466" lon="2.346284">
        <ele>1142.676</ele>
        <time>2021-06-12T17:58:28Z</time>
      </trkpt>
      <trkpt lat="41.798481" lon="2.346336">
        <ele>1142.884</ele>
        <time>2021-06-12T17:58:33Z</time>
      </trkpt>
      <trkpt lat="41.798432" lon="2.346335">
        <ele>1142.887</ele>
        <time>2021-06-12T17:58:38Z</time>
      </trkpt>
      <trkpt lat="41.798386" lon="2.346337">
        <ele>1142.762</ele>
        <time>2021-06-12T17:58:41Z</time>
      </trkpt>
      <trkpt lat="41.798326" lon="2.346438">
        <ele>1143.057</ele>
        <time>2021-06-12T17:58:45Z</time>
      </trkpt>
      <trkpt lat="41.798232" lon="2.346459">
        <ele>1143.164</ele>
        <time>2021-06-12T17:58:49Z</time>
      </trkpt>
      <trkpt lat="41.798113" lon="2.346420">
        <ele>1143.563</ele>
        <time>2021-06-12T17:58:53Z</time>
      </trkpt>
      <trkpt lat="41.797978" lon="2.346417">
        <ele>1143.619</ele>
        <time>2021-06-12T17:58:57Z</time>
      </trkpt>
      <trkpt lat="41.797900" lon="2.346361">
        <ele>1143.729</ele>
        <time>2021-06-12T17:59:00Z</time>
      </trkpt>
      <trkpt lat="41.797833" lon="2.346298">
        <ele>1143.800</ele>
        <time>2021-06-12T17:59:05Z</time>
      </trkpt>
      <trkpt lat="41.797809" lon="2.346263">
        <ele>1144.120</ele>
        <time>2021-06-12T17:59:09Z</time>
      </trkpt>
      <trkpt lat="41.797784" lon="2.346214">
        <ele>1144.208</ele>
        <time>2021-06-12T17:59:13Z</time>
      </trkpt>
      <trkpt lat="41.797771" lon="2.346137">
        <ele>1144.819</ele>
        <time>2021-06-12T17:59:17Z</time>
      </trkpt>
      <trkpt lat="41.797698" lon="2.346077">
        <ele>1145.027</ele>
        <time>2021-06-12T17:59:22Z</time>
      </trkpt>
      <trkpt lat="41.797644" lon="2.346025">
        <ele>1145.440</ele>
        <time>2021-06-12T17:59:27Z</time>
      </trkpt>
      <trkpt lat="41.797596" lon="2.345969">
        <ele>1145.895</ele>
        <time>2021-06-12T17:59:31Z</time>
      </trkpt>
      <trkpt lat="41.797504" lon="2.345979">
        <ele>1146.220</ele>
        <time>2021-06-12T17:59:36Z</time>
      </trkpt>
      <trkpt lat="41.797429" lon="2.345979">
        <ele>1146.887</ele>
        <time>2021-06-12T17:59:40Z</time>
      </trkpt>
      <trkpt lat="41.796884" lon="2.346119">
        <ele>1151.816</ele>
        <time>2021-06-12T18:01:11Z</time>
      </trkpt>
      <trkpt lat="41.796720" lon="2.345996">
        <ele>1151.662</ele>
        <time>2021-06-12T18:01:15Z</time>
      </trkpt>
      <trkpt lat="41.796672" lon="2.345923">
        <ele>1152.397</ele>
        <time>2021-06-12T18:01:19Z</time>
      </trkpt>
      <trkpt lat="41.796637" lon="2.345870">
        <ele>1152.323</ele>
        <time>2021-06-12T18:01:22Z</time>
      </trkpt>
      <trkpt lat="41.796626" lon="2.345737">
        <ele>1152.225</ele>
        <time>2021-06-12T18:01:26Z</time>
      </trkpt>
      <trkpt lat="41.796626" lon="2.345636">
        <ele>1153.108</ele>
        <time>2021-06-12T18:01:30Z</time>
      </trkpt>
      <trkpt lat="41.796621" lon="2.345562">
        <ele>1152.836</ele>
        <time>2021-06-12T18:01:34Z</time>
      </trkpt>
      <trkpt lat="41.796647" lon="2.345492">
        <ele>1153.044</ele>
        <time>2021-06-12T18:01:37Z</time>
      </trkpt>
      <trkpt lat="41.796656" lon="2.345412">
        <ele>1153.147</ele>
        <time>2021-06-12T18:01:41Z</time>
      </trkpt>
      <trkpt lat="41.796669" lon="2.345363">
        <ele>1153.422</ele>
        <time>2021-06-12T18:01:46Z</time>
      </trkpt>
      <trkpt lat="41.796674" lon="2.345403">
        <ele>1153.957</ele>
        <time>2021-06-12T18:01:50Z</time>
      </trkpt>
      <trkpt lat="41.796685" lon="2.345334">
        <ele>1154.054</ele>
        <time>2021-06-12T18:01:55Z</time>
      </trkpt>
      <trkpt lat="41.796695" lon="2.345273">
        <ele>1154.473</ele>
        <time>2021-06-12T18:01:59Z</time>
      </trkpt>
      <trkpt lat="41.796707" lon="2.345212">
        <ele>1154.629</ele>
        <time>2021-06-12T18:02:04Z</time>
      </trkpt>
      <trkpt lat="41.796710" lon="2.345142">
        <ele>1154.873</ele>
        <time>2021-06-12T18:02:09Z</time>
      </trkpt>
      <trkpt lat="41.796723" lon="2.345080">
        <ele>1155.285</ele>
        <time>2021-06-12T18:02:13Z</time>
      </trkpt>
      <trkpt lat="41.796721" lon="2.345018">
        <ele>1155.513</ele>
        <time>2021-06-12T18:02:17Z</time>
      </trkpt>
      <trkpt lat="41.796723" lon="2.344958">
        <ele>1155.408</ele>
        <time>2021-06-12T18:02:20Z</time>
      </trkpt>
      <trkpt lat="41.796724" lon="2.344890">
        <ele>1155.744</ele>
        <time>2021-06-12T18:02:25Z</time>
      </trkpt>
      <trkpt lat="41.796731" lon="2.344824">
        <ele>1155.972</ele>
        <time>2021-06-12T18:02:29Z</time>
      </trkpt>
      <trkpt lat="41.796730" lon="2.344757">
        <ele>1156.175</ele>
        <time>2021-06-12T18:02:33Z</time>
      </trkpt>
      <trkpt lat="41.796257" lon="2.344179">
        <ele>1160.150</ele>
        <time>2021-06-12T18:03:42Z</time>
      </trkpt>
      <trkpt lat="41.796181" lon="2.344180">
        <ele>1160.485</ele>
        <time>2021-06-12T18:03:48Z</time>
      </trkpt>
      <trkpt lat="41.796068" lon="2.344166">
        <ele>1160.812</ele>
        <time>2021-06-12T18:03:53Z</time>
      </trkpt>
      <trkpt lat="41.795874" lon="2.344173">
        <ele>1160.971</ele>
        <time>2021-06-12T18:03:57Z</time>
      </trkpt>
      <trkpt lat="41.795712" lon="2.344166">
        <ele>1161.557</ele>
        <time>2021-06-12T18:04:01Z</time>
      </trkpt>
      <trkpt lat="41.795572" lon="2.344155">
        <ele>1161.742</ele>
        <time>2021-06-12T18:04:05Z</time>
      </trkpt>
      <trkpt lat="41.795276" lon="2.344187">
        <ele>1161.922</ele>
        <time>2021-06-12T18:04:10Z</time>
      </trkpt>
      <trkpt lat="41.795025" lon="2.344236">
        <ele>1167.114</ele>
        <time>2021-06-12T18:05:56Z</time>
      </trkpt>
      <trkpt lat="41.794920" lon="2.344386">
        <ele>1167.408</ele>
        <time>2021-06-12T18:06:01Z</time>
      </trkpt>
      <trkpt lat="41.794826" lon="2.344411">
        <ele>1167.551</ele>
        <time>2021-06-12T18:06:05Z</time>
      </trkpt>
      <trkpt lat="41.794729" lon="2.344404">
        <ele>1167.689</ele>
        <time>2021-06-12T18:06:09Z</time>
      </trkpt>
      <trkpt lat="41.794602" lon="2.344379">
        <ele>1167.712</ele>
        <time>2021-06-12T18:06:33Z</time>
      </trkpt>
      <trkpt lat="41.794518" lon="2.344330">
        <ele>1168.167</ele>
        <time>2021-06-12T18:06:37Z</time>
      </trkpt>
      <trkpt lat="41.794389" lon="2.344299">
        <ele>1168.142</ele>
        <time>2021-06-12T18:06:41Z</time>
      </trkpt>
      <trkpt lat="41.794209" lon="2.344257">
        <ele>1168.069</ele>
        <time>2021-06-12T18:06:46Z</time>
      </trkpt>
      <trkpt lat="41.794150" lon="2.344204">
        <ele>1168.338</ele>
        <time>2021-06-12T18:06:50Z</time>
      </trkpt>
      <trkpt lat="41.793751" lon="2.343984">
        <ele>1174.974</ele>
        <time>2021-06-12T18:08:07Z</time>
      </trkpt>
      <trkpt lat="41.793738" lon="2.343875">
        <ele>1175.185</ele>
        <time>2021-06-12T18:08:12Z</time>
      </trkpt>
      <trkpt lat="41.793704" lon="2.343830">
        <ele>1175.589</ele>
        <time>2021-06-12T18:08:18Z</time>
      </trkpt>
      <trkpt lat="41.793679" lon="2.343775">
        <ele>1176.317</ele>
        <time>2021-06-12T18:08:24Z</time>
      </trkpt>
      <trkpt lat="41.793646" lon="2.343718">
        <ele>1176.908</ele>
        <time>2021-06-12T18:08:30Z</time>
      </trkpt>
      <trkpt lat="41.793606" lon="2.343687">
        <ele>1177.235</ele>
        <time>2021-06-12T18:08:34Z</time>
      </trkpt>
      <trkpt lat="41.793574" lon="2.343642">
        <ele>1177.643</ele>
        <time>2021-06-12T18:08:39Z</time>
      </trkpt>
      <trkpt lat="41.793540" lon="2.343591">
        <ele>1177.826</ele>
        <time>2021-06-12T18:08:45Z</time>
      </trkpt>
      <trkpt lat="41.793507" lon="2.343538">
        <ele>1177.871</ele>
        <time>2021-06-12T18:08:49Z</time>
      </trkpt>
      <trkpt lat="41.793470" lon="2.343495">
        <ele>1178.316</ele>
        <time>2021-06-12T18:08:55Z</time>
      </trkpt>
      <trkpt lat="41.793427" lon="2.343455">
        <ele>1178.673</ele>
        <time>2021-06-12T18:08:59Z</time>
      </trkpt>
      <trkpt lat="41.793386" lon="2.343416">
        <ele>1178.992</ele>
        <time>2021-06-12T18:09:03Z</time>
      </trkpt>
      <trkpt lat="41.793350" lon="2.343369">
        <ele>1179.188</ele>
        <time>2021-06-12T18:09:07Z</time>
      </trkpt>
      <trkpt lat="41.793311" lon="2.343329">
        <ele>1179.228</ele>
        <time>2021-06-12T18:09:12Z</time>
      </trkpt>
      <trkpt lat="41.793283" lon="2.343276">
        <ele>1179.589</ele>
        <time>2021-06-12T18:09:16Z</time>
      </trkpt>
      <trkpt lat="41.793260" lon="2.343220">
        <ele>1179.917</ele>
        <time>2021-06-12T18:09:21Z</time>
      </trkpt>
      <trkpt lat="41.793230" lon="2.343174">
        <ele>1180.408</ele>
        <time>2021-06-12T18:09:27Z</time>
      </trkpt>
      <trkpt lat="41.793196" lon="2.343125">
        <ele>1180.559</ele>
        <time>2021-06-12T18:09:33Z</time>
      </trkpt>
      <trkpt lat="41.793165" lon="2.343080">
        <ele>1181.177</ele>
        <time>2021-06-12T18:09:38Z</time>
      </trkpt>
      <trkpt lat="41.793121" lon="2.343045">
        <ele>1181.540</ele>
        <time>2021-06-12T18:09:43Z</time>
      </trkpt>
      <trkpt lat="41.793081" lon="2.343011">
        <ele>1181.885</ele>
        <time>2021-06-12T18:09:48Z</time>
      </trkpt>
      <trkpt lat="41.793052" lon="2.342962">
        <ele>1182.520</ele>
        <time>2021-06-12T18:09:53Z</time>
      </trkpt>
      <trkpt lat="41.793019" lon="2.342912">
        <ele>1182.947</ele>
        <time>2021-06-12T18:09:59Z</time>
      </trkpt>
      <trkpt lat="41.792991" lon="2.342852">
        <ele>1183.256</ele>
        <time>2021-06-12T18:10:05Z</time>
      </trkpt>
      <trkpt lat="41.792972" lon="2.342796">
        <ele>1184.032</ele>
        <time>2021-06-12T18:10:55Z</time>
      </trkpt>
      <trkpt lat="41.792861" lon="2.342794">
        <ele>1183.258</ele>
        <time>2021-06-12T18:11:31Z</time>
      </trkpt>
      <trkpt lat="41.792748" lon="2.342734">
        <ele>1183.652</ele>
        <time>2021-06-12T18:12:00Z</time>
      </trkpt>
      <trkpt lat="41.792702" lon="2.342710">
        <ele>1184.617</ele>
        <time>2021-06-12T18:12:05Z</time>
      </trkpt>
      <trkpt lat="41.792643" lon="2.342668">
        <ele>1185.008</ele>
        <time>2021-06-12T18:12:08Z</time>
      </trkpt>
      <trkpt lat="41.792619" lon="2.342633">
        <ele>1184.432</ele>
        <time>2021-06-12T18:12:12Z</time>
      </trkpt>
      <trkpt lat="41.791794" lon="2.342251">
        <ele>1184.640</ele>
        <time>2021-06-12T18:13:43Z</time>
      </trkpt>
      <trkpt lat="41.791763" lon="2.342096">
        <ele>1184.853</ele>
        <time>2021-06-12T18:13:49Z</time>
      </trkpt>
      <trkpt lat="41.791713" lon="2.342114">
        <ele>1185.568</ele>
        <time>2021-06-12T18:13:55Z</time>
      </trkpt>
      <trkpt lat="41.791675" lon="2.342147">
        <ele>1185.733</ele>
        <time>2021-06-12T18:13:59Z</time>
      </trkpt>
      <trkpt lat="41.791657" lon="2.342206">
        <ele>1185.280</ele>
        <time>2021-06-12T18:14:03Z</time>
      </trkpt>
      <trkpt lat="41.791646" lon="2.342273">
        <ele>1184.889</ele>
        <time>2021-06-12T18:14:08Z</time>
      </trkpt>
      <trkpt lat="41.791619" lon="2.342332">
        <ele>1184.395</ele>
        <time>2021-06-12T18:14:11Z</time>
      </trkpt>
      <trkpt lat="41.791599" lon="2.342391">
        <ele>1184.097</ele>
        <time>2021-06-12T18:14:15Z</time>
      </trkpt>
      <trkpt lat="41.791570" lon="2.342439">
        <ele>1183.823</ele>
        <time>2021-06-12T18:14:18Z</time>
      </trkpt>
      <trkpt lat="41.791544" lon="2.342545">
        <ele>1184.025</ele>
        <time>2021-06-12T18:14:22Z</time>
      </trkpt>
      <trkpt lat="41.791486" lon="2.342493">
        <ele>1183.608</ele>
        <time>2021-06-12T18:14:26Z</time>
      </trkpt>
      <trkpt lat="41.791438" lon="2.342488">
        <ele>1183.436</ele>
        <time>2021-06-12T18:14:30Z</time>
      </trkpt>
      <trkpt lat="41.791386" lon="2.342466">
        <ele>1183.434</ele>
        <time>2021-06-12T18:14:33Z</time>
      </trkpt>
      <trkpt lat="41.791342" lon="2.342446">
        <ele>1183.637</ele>
        <time>2021-06-12T18:14:36Z</time>
      </trkpt>
      <trkpt lat="41.791300" lon="2.342422">
        <ele>1183.432</ele>
        <time>2021-06-12T18:14:39Z</time>
      </trkpt>
      <trkpt lat="41.791253" lon="2.342406">
        <ele>1183.637</ele>
        <time>2021-06-12T18:14:43Z</time>
      </trkpt>
      <trkpt lat="41.791204" lon="2.342386">
        <ele>1183.514</ele>
        <time>2021-06-12T18:14:47Z</time>
      </trkpt>
      <trkpt lat="41.791159" lon="2.342371">
        <ele>1183.263</ele>
        <time>2021-06-12T18:14:51Z</time>
      </trkpt>
      <trkpt lat="41.791112" lon="2.342355">
        <ele>1183.259</ele>
        <time>2021-06-12T18:14:55Z</time>
      </trkpt>
      <trkpt lat="41.791057" lon="2.342346">
        <ele>1183.045</ele>
        <time>2021-06-12T18:14:59Z</time>
      </trkpt>
      <trkpt lat="41.791007" lon="2.342347">
        <ele>1182.747</ele>
        <time>2021-06-12T18:15:03Z</time>
      </trkpt>
      <trkpt lat="41.790962" lon="2.342348">
        <ele>1182.111</ele>
        <time>2021-06-12T18:15:09Z</time>
      </trkpt>
      <trkpt lat="41.790915" lon="2.342344">
        <ele>1182.008</ele>
        <time>2021-06-12T18:15:14Z</time>
      </trkpt>
      <trkpt lat="41.790868" lon="2.342345">
        <ele>1181.781</ele>
        <time>2021-06-12T18:15:18Z</time>
      </trkpt>
      <trkpt lat="41.790824" lon="2.342322">
        <ele>1182.349</ele>
        <time>2021-06-12T18:15:21Z</time>
      </trkpt>
      <trkpt lat="41.790804" lon="2.342267">
        <ele>1180.782</ele>
        <time>2021-06-12T18:15:34Z</time>
      </trkpt>
      <trkpt lat="41.790771" lon="2.342214">
        <ele>1181.417</ele>
        <time>2021-06-12T18:15:41Z</time>
      </trkpt>
      <trkpt lat="41.790744" lon="2.342165">
        <ele>1181.732</ele>
        <time>2021-06-12T18:15:44Z</time>
      </trkpt>
      <trkpt lat="41.790709" lon="2.342112">
        <ele>1181.939</ele>
        <time>2021-06-12T18:15:47Z</time>
      </trkpt>
      <trkpt lat="41.790684" lon="2.342055">
        <ele>1181.988</ele>
        <time>2021-06-12T18:15:51Z</time>
      </trkpt>
      <trkpt lat="41.790666" lon="2.341993">
        <ele>1181.984</ele>
        <time>2021-06-12T18:15:55Z</time>
      </trkpt>
      <trkpt lat="41.790646" lon="2.341931">
        <ele>1181.893</ele>
        <time>2021-06-12T18:16:00Z</time>
      </trkpt>
      <trkpt lat="41.790623" lon="2.341871">
        <ele>1182.065</ele>
        <time>2021-06-12T18:16:05Z</time>
      </trkpt>
      <trkpt lat="41.790594" lon="2.341819">
        <ele>1182.421</ele>
        <time>2021-06-12T18:16:10Z</time>
      </trkpt>
      <trkpt lat="41.790569" lon="2.341763">
        <ele>1182.308</ele>
        <time>2021-06-12T18:16:15Z</time>
      </trkpt>
      <trkpt lat="41.790566" lon="2.341700">
        <ele>1182.466</ele>
        <time>2021-06-12T18:16:20Z</time>
      </trkpt>
      <trkpt lat="41.790566" lon="2.341633">
        <ele>1182.954</ele>
        <time>2021-06-12T18:16:25Z</time>
      </trkpt>
      <trkpt lat="41.790560" lon="2.341568">
        <ele>1183.157</ele>
        <time>2021-06-12T18:16:29Z</time>
      </trkpt>
      <trkpt lat="41.790553" lon="2.341501">
        <ele>1183.222</ele>
        <time>2021-06-12T18:16:34Z</time>
      </trkpt>
      <trkpt lat="41.790546" lon="2.341440">
        <ele>1183.527</ele>
        <time>2021-06-12T18:16:39Z</time>
      </trkpt>
      <trkpt lat="41.790530" lon="2.341378">
        <ele>1183.454</ele>
        <time>2021-06-12T18:16:43Z</time>
      </trkpt>
      <trkpt lat="41.790514" lon="2.341316">
        <ele>1183.553</ele>
        <time>2021-06-12T18:16:47Z</time>
      </trkpt>
      <trkpt lat="41.790503" lon="2.341249">
        <ele>1183.629</ele>
        <time>2021-06-12T18:16:51Z</time>
      </trkpt>
      <trkpt lat="41.790492" lon="2.341185">
        <ele>1183.675</ele>
        <time>2021-06-12T18:16:55Z</time>
      </trkpt>
      <trkpt lat="41.790480" lon="2.341125">
        <ele>1183.728</ele>
        <time>2021-06-12T18:16:58Z</time>
      </trkpt>
      <trkpt lat="41.790477" lon="2.341062">
        <ele>1183.620</ele>
        <time>2021-06-12T18:17:01Z</time>
      </trkpt>
      <trkpt lat="41.790472" lon="2.341002">
        <ele>1183.808</ele>
        <time>2021-06-12T18:17:04Z</time>
      </trkpt>
      <trkpt lat="41.790458" lon="2.340937">
        <ele>1183.654</ele>
        <time>2021-06-12T18:17:08Z</time>
      </trkpt>
      <trkpt lat="41.790433" lon="2.340885">
        <ele>1183.512</ele>
        <time>2021-06-12T18:17:12Z</time>
      </trkpt>
      <trkpt lat="41.790403" lon="2.340826">
        <ele>1183.765</ele>
        <time>2021-06-12T18:17:16Z</time>
      </trkpt>
      <trkpt lat="41.790370" lon="2.340777">
        <ele>1183.310</ele>
        <time>2021-06-12T18:17:19Z</time>
      </trkpt>
      <trkpt lat="41.790345" lon="2.340725">
        <ele>1183.325</ele>
        <time>2021-06-12T18:17:22Z</time>
      </trkpt>
      <trkpt lat="41.790314" lon="2.340672">
        <ele>1183.422</ele>
        <time>2021-06-12T18:17:24Z</time>
      </trkpt>
      <trkpt lat="41.790278" lon="2.340623">
        <ele>1183.051</ele>
        <time>2021-06-12T18:17:27Z</time>
      </trkpt>
      <trkpt lat="41.790241" lon="2.340574">
        <ele>1182.837</ele>
        <time>2021-06-12T18:17:31Z</time>
      </trkpt>
      <trkpt lat="41.790205" lon="2.340531">
        <ele>1182.828</ele>
        <time>2021-06-12T18:17:34Z</time>
      </trkpt>
      <trkpt lat="41.790164" lon="2.340496">
        <ele>1182.889</ele>
        <time>2021-06-12T18:17:38Z</time>
      </trkpt>
      <trkpt lat="41.790125" lon="2.340459">
        <ele>1182.917</ele>
        <time>2021-06-12T18:17:41Z</time>
      </trkpt>
      <trkpt lat="41.790091" lon="2.340414">
        <ele>1182.808</ele>
        <time>2021-06-12T18:17:45Z</time>
      </trkpt>
      <trkpt lat="41.790051" lon="2.340372">
        <ele>1182.729</ele>
        <time>2021-06-12T18:17:49Z</time>
      </trkpt>
      <trkpt lat="41.790019" lon="2.340326">
        <ele>1182.627</ele>
        <time>2021-06-12T18:17:53Z</time>
      </trkpt>
      <trkpt lat="41.789988" lon="2.340282">
        <ele>1182.560</ele>
        <time>2021-06-12T18:17:57Z</time>
      </trkpt>
      <trkpt lat="41.789954" lon="2.340234">
        <ele>1182.485</ele>
        <time>2021-06-12T18:18:01Z</time>
      </trkpt>
      <trkpt lat="41.789930" lon="2.340182">
        <ele>1182.120</ele>
        <time>2021-06-12T18:18:05Z</time>
      </trkpt>
      <trkpt lat="41.789897" lon="2.340129">
        <ele>1182.017</ele>
        <time>2021-06-12T18:18:09Z</time>
      </trkpt>
      <trkpt lat="41.789862" lon="2.340088">
        <ele>1181.636</ele>
        <time>2021-06-12T18:18:13Z</time>
      </trkpt>
      <trkpt lat="41.789825" lon="2.340053">
        <ele>1181.552</ele>
        <time>2021-06-12T18:18:16Z</time>
      </trkpt>
      <trkpt lat="41.789789" lon="2.340010">
        <ele>1181.216</ele>
        <time>2021-06-12T18:18:19Z</time>
      </trkpt>
      <trkpt lat="41.789750" lon="2.339968">
        <ele>1180.976</ele>
        <time>2021-06-12T18:18:23Z</time>
      </trkpt>
      <trkpt lat="41.789706" lon="2.339941">
        <ele>1180.813</ele>
        <time>2021-06-12T18:18:27Z</time>
      </trkpt>
      <trkpt lat="41.789656" lon="2.339918">
        <ele>1180.508</ele>
        <time>2021-06-12T18:18:32Z</time>
      </trkpt>
      <trkpt lat="41.789607" lon="2.339895">
        <ele>1180.268</ele>
        <time>2021-06-12T18:18:36Z</time>
      </trkpt>
      <trkpt lat="41.789570" lon="2.339854">
        <ele>1180.456</ele>
        <time>2021-06-12T18:18:39Z</time>
      </trkpt>
      <trkpt lat="41.789537" lon="2.339800">
        <ele>1180.469</ele>
        <time>2021-06-12T18:18:43Z</time>
      </trkpt>
      <trkpt lat="41.789503" lon="2.339745">
        <ele>1179.964</ele>
        <time>2021-06-12T18:18:47Z</time>
      </trkpt>
      <trkpt lat="41.789471" lon="2.339690">
        <ele>1180.049</ele>
        <time>2021-06-12T18:18:51Z</time>
      </trkpt>
      <trkpt lat="41.789441" lon="2.339643">
        <ele>1179.936</ele>
        <time>2021-06-12T18:18:54Z</time>
      </trkpt>
      <trkpt lat="41.789407" lon="2.339600">
        <ele>1179.865</ele>
        <time>2021-06-12T18:18:58Z</time>
      </trkpt>
      <trkpt lat="41.789375" lon="2.339555">
        <ele>1179.891</ele>
        <time>2021-06-12T18:19:01Z</time>
      </trkpt>
      <trkpt lat="41.789339" lon="2.339517">
        <ele>1179.855</ele>
        <time>2021-06-12T18:19:05Z</time>
      </trkpt>
      <trkpt lat="41.789310" lon="2.339467">
        <ele>1179.707</ele>
        <time>2021-06-12T18:19:09Z</time>
      </trkpt>
      <trkpt lat="41.789286" lon="2.339414">
        <ele>1179.617</ele>
        <time>2021-06-12T18:19:12Z</time>
      </trkpt>
      <trkpt lat="41.789260" lon="2.339349">
        <ele>1179.708</ele>
        <time>2021-06-12T18:19:16Z</time>
      </trkpt>
      <trkpt lat="41.789240" lon="2.339287">
        <ele>1179.552</ele>
        <time>2021-06-12T18:19:20Z</time>
      </trkpt>
      <trkpt lat="41.789232" lon="2.339227">
        <ele>1179.140</ele>
        <time>2021-06-12T18:19:24Z</time>
      </trkpt>
      <trkpt lat="41.789223" lon="2.339163">
        <ele>1179.063</ele>
        <time>2021-06-12T18:19:29Z</time>
      </trkpt>
      <trkpt lat="41.789217" lon="2.339100">
        <ele>1178.668</ele>
        <time>2021-06-12T18:19:34Z</time>
      </trkpt>
      <trkpt lat="41.789199" lon="2.339038">
        <ele>1178.773</ele>
        <time>2021-06-12T18:19:39Z</time>
      </trkpt>
      <trkpt lat="41.789186" lon="2.338978">
        <ele>1178.210</ele>
        <time>2021-06-12T18:19:43Z</time>
      </trkpt>
      <trkpt lat="41.789176" lon="2.338915">
        <ele>1178.119</ele>
        <time>2021-06-12T18:19:47Z</time>
      </trkpt>
      <trkpt lat="41.789167" lon="2.338856">
        <ele>1178.075</ele>
        <time>2021-06-12T18:19:50Z</time>
      </trkpt>
      <trkpt lat="41.789159" lon="2.338789">
        <ele>1178.275</ele>
        <time>2021-06-12T18:19:54Z</time>
      </trkpt>
      <trkpt lat="41.789168" lon="2.338727">
        <ele>1178.028</ele>
        <time>2021-06-12T18:19:58Z</time>
      </trkpt>
      <trkpt lat="41.789181" lon="2.338668">
        <ele>1177.820</ele>
        <time>2021-06-12T18:20:02Z</time>
      </trkpt>
      <trkpt lat="41.789199" lon="2.338610">
        <ele>1177.708</ele>
        <time>2021-06-12T18:20:06Z</time>
      </trkpt>
      <trkpt lat="41.789214" lon="2.338552">
        <ele>1177.924</ele>
        <time>2021-06-12T18:20:10Z</time>
      </trkpt>
      <trkpt lat="41.789226" lon="2.338485">
        <ele>1177.872</ele>
        <time>2021-06-12T18:20:14Z</time>
      </trkpt>
      <trkpt lat="41.789237" lon="2.338425">
        <ele>1177.735</ele>
        <time>2021-06-12T18:20:19Z</time>
      </trkpt>
      <trkpt lat="41.789241" lon="2.338362">
        <ele>1177.250</ele>
        <time>2021-06-12T18:20:24Z</time>
      </trkpt>
      <trkpt lat="41.789241" lon="2.338299">
        <ele>1177.065</ele>
        <time>2021-06-12T18:20:28Z</time>
      </trkpt>
      <trkpt lat="41.789250" lon="2.338237">
        <ele>1176.772</ele>
        <time>2021-06-12T18:20:32Z</time>
      </trkpt>
      <trkpt lat="41.789264" lon="2.338171">
        <ele>1176.791</ele>
        <time>2021-06-12T18:20:36Z</time>
      </trkpt>
      <trkpt lat="41.789274" lon="2.338108">
        <ele>1176.647</ele>
        <time>2021-06-12T18:20:40Z</time>
      </trkpt>
      <trkpt lat="41.789287" lon="2.338043">
        <ele>1176.698</ele>
        <time>2021-06-12T18:20:44Z</time>
      </trkpt>
      <trkpt lat="41.789288" lon="2.337973">
        <ele>1176.215</ele>
        <time>2021-06-12T18:20:48Z</time>
      </trkpt>
      <trkpt lat="41.789288" lon="2.337901">
        <ele>1176.126</ele>
        <time>2021-06-12T18:20:53Z</time>
      </trkpt>
      <trkpt lat="41.789274" lon="2.337840">
        <ele>1175.508</ele>
        <time>2021-06-12T18:20:57Z</time>
      </trkpt>
      <trkpt lat="41.789252" lon="2.337781">
        <ele>1175.196</ele>
        <time>2021-06-12T18:21:00Z</time>
      </trkpt>
      <trkpt lat="41.789229" lon="2.337712">
        <ele>1174.644</ele>
        <time>2021-06-12T18:21:04Z</time>
      </trkpt>
      <trkpt lat="41.789215" lon="2.337654">
        <ele>1174.137</ele>
        <time>2021-06-12T18:21:07Z</time>
      </trkpt>
      <trkpt lat="41.789205" lon="2.337590">
        <ele>1173.882</ele>
        <time>2021-06-12T18:21:11Z</time>
      </trkpt>
      <trkpt lat="41.789193" lon="2.337529">
        <ele>1173.317</ele>
        <time>2021-06-12T18:21:15Z</time>
      </trkpt>
      <trkpt lat="41.789177" lon="2.337473">
        <ele>1172.784</ele>
        <time>2021-06-12T18:21:18Z</time>
      </trkpt>
      <trkpt lat="41.789160" lon="2.337415">
        <ele>1172.833</ele>
        <time>2021-06-12T18:21:22Z</time>
      </trkpt>
      <trkpt lat="41.789137" lon="2.337361">
        <ele>1172.329</ele>
        <time>2021-06-12T18:21:26Z</time>
      </trkpt>
      <trkpt lat="41.789120" lon="2.337305">
        <ele>1172.354</ele>
        <time>2021-06-12T18:21:29Z</time>
      </trkpt>
      <trkpt lat="41.789097" lon="2.337246">
        <ele>1171.956</ele>
        <time>2021-06-12T18:21:33Z</time>
      </trkpt>
      <trkpt lat="41.789075" lon="2.337191">
        <ele>1171.811</ele>
        <time>2021-06-12T18:21:37Z</time>
      </trkpt>
      <trkpt lat="41.789045" lon="2.337137">
        <ele>1171.308</ele>
        <time>2021-06-12T18:21:40Z</time>
      </trkpt>
      <trkpt lat="41.789008" lon="2.337085">
        <ele>1171.272</ele>
        <time>2021-06-12T18:21:45Z</time>
      </trkpt>
      <trkpt lat="41.788977" lon="2.337038">
        <ele>1170.870</ele>
        <time>2021-06-12T18:21:48Z</time>
      </trkpt>
      <trkpt lat="41.788938" lon="2.336996">
        <ele>1170.783</ele>
        <time>2021-06-12T18:21:52Z</time>
      </trkpt>
      <trkpt lat="41.788892" lon="2.336975">
        <ele>1170.328</ele>
        <time>2021-06-12T18:21:55Z</time>
      </trkpt>
      <trkpt lat="41.788842" lon="2.336959">
        <ele>1169.993</ele>
        <time>2021-06-12T18:21:59Z</time>
      </trkpt>
      <trkpt lat="41.788791" lon="2.336963">
        <ele>1169.320</ele>
        <time>2021-06-12T18:22:03Z</time>
      </trkpt>
      <trkpt lat="41.788746" lon="2.336970">
        <ele>1168.439</ele>
        <time>2021-06-12T18:22:07Z</time>
      </trkpt>
      <trkpt lat="41.788701" lon="2.336966">
        <ele>1167.995</ele>
        <time>2021-06-12T18:22:11Z</time>
      </trkpt>
      <trkpt lat="41.788649" lon="2.336958">
        <ele>1167.138</ele>
        <time>2021-06-12T18:22:15Z</time>
      </trkpt>
      <trkpt lat="41.788603" lon="2.336938">
        <ele>1166.770</ele>
        <time>2021-06-12T18:22:19Z</time>
      </trkpt>
      <trkpt lat="41.788564" lon="2.336895">
        <ele>1165.817</ele>
        <time>2021-06-12T18:22:23Z</time>
      </trkpt>
      <trkpt lat="41.788555" lon="2.336836">
        <ele>1165.208</ele>
        <time>2021-06-12T18:22:27Z</time>
      </trkpt>
      <trkpt lat="41.788558" lon="2.336772">
        <ele>1164.450</ele>
        <time>2021-06-12T18:22:30Z</time>
      </trkpt>
      <trkpt lat="41.788559" lon="2.336710">
        <ele>1163.928</ele>
        <time>2021-06-12T18:22:34Z</time>
      </trkpt>
      <trkpt lat="41.788564" lon="2.336646">
        <ele>1163.221</ele>
        <time>2021-06-12T18:22:39Z</time>
      </trkpt>
      <trkpt lat="41.788566" lon="2.336582">
        <ele>1162.756</ele>
        <time>2021-06-12T18:22:43Z</time>
      </trkpt>
      <trkpt lat="41.788554" lon="2.336518">
        <ele>1161.751</ele>
        <time>2021-06-12T18:22:47Z</time>
      </trkpt>
      <trkpt lat="41.788542" lon="2.336459">
        <ele>1161.838</ele>
        <time>2021-06-12T18:22:50Z</time>
      </trkpt>
      <trkpt lat="41.788521" lon="2.336394">
        <ele>1161.277</ele>
        <time>2021-06-12T18:22:54Z</time>
      </trkpt>
      <trkpt lat="41.788507" lon="2.336333">
        <ele>1160.863</ele>
        <time>2021-06-12T18:22:57Z</time>
      </trkpt>
      <trkpt lat="41.788496" lon="2.336270">
        <ele>1160.276</ele>
        <time>2021-06-12T18:23:01Z</time>
      </trkpt>
      <trkpt lat="41.788482" lon="2.336207">
        <ele>1159.790</ele>
        <time>2021-06-12T18:23:05Z</time>
      </trkpt>
      <trkpt lat="41.788456" lon="2.336154">
        <ele>1159.419</ele>
        <time>2021-06-12T18:23:08Z</time>
      </trkpt>
      <trkpt lat="41.788430" lon="2.336100">
        <ele>1158.908</ele>
        <time>2021-06-12T18:23:13Z</time>
      </trkpt>
      <trkpt lat="41.788408" lon="2.336047">
        <ele>1158.214</ele>
        <time>2021-06-12T18:23:16Z</time>
      </trkpt>
      <trkpt lat="41.788379" lon="2.335992">
        <ele>1158.012</ele>
        <time>2021-06-12T18:23:20Z</time>
      </trkpt>
      <trkpt lat="41.788371" lon="2.335927">
        <ele>1157.555</ele>
        <time>2021-06-12T18:23:24Z</time>
      </trkpt>
      <trkpt lat="41.788381" lon="2.335864">
        <ele>1156.930</ele>
        <time>2021-06-12T18:23:28Z</time>
      </trkpt>
      <trkpt lat="41.788374" lon="2.335799">
        <ele>1156.195</ele>
        <time>2021-06-12T18:23:32Z</time>
      </trkpt>
      <trkpt lat="41.788382" lon="2.335731">
        <ele>1155.282</ele>
        <time>2021-06-12T18:23:36Z</time>
      </trkpt>
      <trkpt lat="41.788397" lon="2.335673">
        <ele>1154.751</ele>
        <time>2021-06-12T18:23:39Z</time>
      </trkpt>
      <trkpt lat="41.788419" lon="2.335620">
        <ele>1154.037</ele>
        <time>2021-06-12T18:23:42Z</time>
      </trkpt>
      <trkpt lat="41.788436" lon="2.335560">
        <ele>1153.623</ele>
        <time>2021-06-12T18:23:45Z</time>
      </trkpt>
      <trkpt lat="41.788454" lon="2.335503">
        <ele>1153.383</ele>
        <time>2021-06-12T18:23:48Z</time>
      </trkpt>
      <trkpt lat="41.788470" lon="2.335441">
        <ele>1152.511</ele>
        <time>2021-06-12T18:23:51Z</time>
      </trkpt>
      <trkpt lat="41.788489" lon="2.335386">
        <ele>1152.208</ele>
        <time>2021-06-12T18:23:54Z</time>
      </trkpt>
      <trkpt lat="41.788506" lon="2.335321">
        <ele>1151.559</ele>
        <time>2021-06-12T18:23:58Z</time>
      </trkpt>
      <trkpt lat="41.788528" lon="2.335266">
        <ele>1151.047</ele>
        <time>2021-06-12T18:24:02Z</time>
      </trkpt>
      <trkpt lat="41.788536" lon="2.335195">
        <ele>1150.420</ele>
        <time>2021-06-12T18:24:05Z</time>
      </trkpt>
      <trkpt lat="41.788533" lon="2.335133">
        <ele>1149.415</ele>
        <time>2021-06-12T18:24:07Z</time>
      </trkpt>
      <trkpt lat="41.788527" lon="2.335061">
        <ele>1149.120</ele>
        <time>2021-06-12T18:24:11Z</time>
      </trkpt>
      <trkpt lat="41.788527" lon="2.334995">
        <ele>1148.257</ele>
        <time>2021-06-12T18:24:15Z</time>
      </trkpt>
      <trkpt lat="41.788540" lon="2.334932">
        <ele>1147.966</ele>
        <time>2021-06-12T18:24:21Z</time>
      </trkpt>
      <trkpt lat="41.788542" lon="2.334868">
        <ele>1147.162</ele>
        <time>2021-06-12T18:24:25Z</time>
      </trkpt>
      <trkpt lat="41.788528" lon="2.334806">
        <ele>1146.935</ele>
        <time>2021-06-12T18:24:29Z</time>
      </trkpt>
      <trkpt lat="41.788510" lon="2.334745">
        <ele>1146.486</ele>
        <time>2021-06-12T18:24:33Z</time>
      </trkpt>
      <trkpt lat="41.788490" lon="2.334688">
        <ele>1146.414</ele>
        <time>2021-06-12T18:24:36Z</time>
      </trkpt>
      <trkpt lat="41.788480" lon="2.334623">
        <ele>1146.008</ele>
        <time>2021-06-12T18:24:39Z</time>
      </trkpt>
      <trkpt lat="41.788470" lon="2.334560">
        <ele>1145.850</ele>
        <time>2021-06-12T18:24:42Z</time>
      </trkpt>
      <trkpt lat="41.788464" lon="2.334496">
        <ele>1145.258</ele>
        <time>2021-06-12T18:24:46Z</time>
      </trkpt>
      <trkpt lat="41.788460" lon="2.334435">
        <ele>1144.491</ele>
        <time>2021-06-12T18:24:50Z</time>
      </trkpt>
      <trkpt lat="41.788446" lon="2.334375">
        <ele>1144.466</ele>
        <time>2021-06-12T18:24:54Z</time>
      </trkpt>
      <trkpt lat="41.788431" lon="2.334312">
        <ele>1144.041</ele>
        <time>2021-06-12T18:24:57Z</time>
      </trkpt>
      <trkpt lat="41.788423" lon="2.334252">
        <ele>1143.538</ele>
        <time>2021-06-12T18:25:00Z</time>
      </trkpt>
      <trkpt lat="41.788431" lon="2.334189">
        <ele>1143.017</ele>
        <time>2021-06-12T18:25:04Z</time>
      </trkpt>
      <trkpt lat="41.788440" lon="2.334121">
        <ele>1142.113</ele>
        <time>2021-06-12T18:25:08Z</time>
      </trkpt>
      <trkpt lat="41.788439" lon="2.334057">
        <ele>1141.917</ele>
        <time>2021-06-12T18:25:11Z</time>
      </trkpt>
      <trkpt lat="41.788441" lon="2.333990">
        <ele>1141.287</ele>
        <time>2021-06-12T18:25:14Z</time>
      </trkpt>
      <trkpt lat="41.788447" lon="2.333926">
        <ele>1140.615</ele>
        <time>2021-06-12T18:25:18Z</time>
      </trkpt>
      <trkpt lat="41.788449" lon="2.333859">
        <ele>1140.108</ele>
        <time>2021-06-12T18:25:21Z</time>
      </trkpt>
      <trkpt lat="41.788457" lon="2.333791">
        <ele>1139.848</ele>
        <time>2021-06-12T18:25:24Z</time>
      </trkpt>
      <trkpt lat="41.788474" lon="2.333735">
        <ele>1139.416</ele>
        <time>2021-06-12T18:25:27Z</time>
      </trkpt>
      <trkpt lat="41.788490" lon="2.333673">
        <ele>1139.069</ele>
        <time>2021-06-12T18:25:31Z</time>
      </trkpt>
      <trkpt lat="41.788505" lon="2.333616">
        <ele>1138.964</ele>
        <time>2021-06-12T18:25:35Z</time>
      </trkpt>
      <trkpt lat="41.788513" lon="2.333552">
        <ele>1138.749</ele>
        <time>2021-06-12T18:25:39Z</time>
      </trkpt>
      <trkpt lat="41.788508" lon="2.333487">
        <ele>1138.146</ele>
        <time>2021-06-12T18:25:43Z</time>
      </trkpt>
      <trkpt lat="41.788495" lon="2.333419">
        <ele>1137.745</ele>
        <time>2021-06-12T18:25:46Z</time>
      </trkpt>
      <trkpt lat="41.788478" lon="2.333359">
        <ele>1137.421</ele>
        <time>2021-06-12T18:25:50Z</time>
      </trkpt>
      <trkpt lat="41.788459" lon="2.333302">
        <ele>1137.393</ele>
        <time>2021-06-12T18:25:53Z</time>
      </trkpt>
      <trkpt lat="41.788443" lon="2.333240">
        <ele>1136.965</ele>
        <time>2021-06-12T18:25:56Z</time>
      </trkpt>
      <trkpt lat="41.788430" lon="2.333180">
        <ele>1136.521</ele>
        <time>2021-06-12T18:25:59Z</time>
      </trkpt>
      <trkpt lat="41.788419" lon="2.333117">
        <ele>1136.408</ele>
        <time>2021-06-12T18:26:03Z</time>
      </trkpt>
      <trkpt lat="41.788407" lon="2.333055">
        <ele>1136.216</ele>
        <time>2021-06-12T18:26:07Z</time>
      </trkpt>
      <trkpt lat="41.788395" lon="2.332989">
        <ele>1135.714</ele>
        <time>2021-06-12T18:26:10Z</time>
      </trkpt>
      <trkpt lat="41.788375" lon="2.332928">
        <ele>1135.727</ele>
        <time>2021-06-12T18:26:14Z</time>
      </trkpt>
      <trkpt lat="41.788352" lon="2.332865">
        <ele>1135.312</ele>
        <time>2021-06-12T18:26:18Z</time>
      </trkpt>
      <trkpt lat="41.788330" lon="2.332810">
        <ele>1135.137</ele>
        <time>2021-06-12T18:26:21Z</time>
      </trkpt>
      <trkpt lat="41.788309" lon="2.332749">
        <ele>1135.244</ele>
        <time>2021-06-12T18:26:25Z</time>
      </trkpt>
      <trkpt lat="41.788300" lon="2.332686">
        <ele>1134.963</ele>
        <time>2021-06-12T18:26:28Z</time>
      </trkpt>
      <trkpt lat="41.788286" lon="2.332628">
        <ele>1134.789</ele>
        <time>2021-06-12T18:26:31Z</time>
      </trkpt>
      <trkpt lat="41.788261" lon="2.332566">
        <ele>1134.571</ele>
        <time>2021-06-12T18:26:35Z</time>
      </trkpt>
      <trkpt lat="41.788243" lon="2.332502">
        <ele>1134.641</ele>
        <time>2021-06-12T18:26:39Z</time>
      </trkpt>
      <trkpt lat="41.788229" lon="2.332443">
        <ele>1134.315</ele>
        <time>2021-06-12T18:26:42Z</time>
      </trkpt>
      <trkpt lat="41.788212" lon="2.332383">
        <ele>1134.208</ele>
        <time>2021-06-12T18:26:45Z</time>
      </trkpt>
      <trkpt lat="41.788204" lon="2.332317">
        <ele>1134.134</ele>
        <time>2021-06-12T18:26:49Z</time>
      </trkpt>
      <trkpt lat="41.788194" lon="2.332250">
        <ele>1134.122</ele>
        <time>2021-06-12T18:26:52Z</time>
      </trkpt>
      <trkpt lat="41.788175" lon="2.332192">
        <ele>1133.635</ele>
        <time>2021-06-12T18:26:56Z</time>
      </trkpt>
      <trkpt lat="41.788145" lon="2.332136">
        <ele>1133.770</ele>
        <time>2021-06-12T18:27:01Z</time>
      </trkpt>
      <trkpt lat="41.788126" lon="2.332078">
        <ele>1133.515</ele>
        <time>2021-06-12T18:27:05Z</time>
      </trkpt>
      <trkpt lat="41.788119" lon="2.332017">
        <ele>1133.792</ele>
        <time>2021-06-12T18:27:09Z</time>
      </trkpt>
      <trkpt lat="41.788118" lon="2.331949">
        <ele>1133.961</ele>
        <time>2021-06-12T18:27:14Z</time>
      </trkpt>
      <trkpt lat="41.788107" lon="2.331887">
        <ele>1133.617</ele>
        <time>2021-06-12T18:27:17Z</time>
      </trkpt>
      <trkpt lat="41.788094" lon="2.331827">
        <ele>1133.924</ele>
        <time>2021-06-12T18:27:21Z</time>
      </trkpt>
      <trkpt lat="41.788074" lon="2.331773">
        <ele>1133.704</ele>
        <time>2021-06-12T18:27:24Z</time>
      </trkpt>
      <trkpt lat="41.788049" lon="2.331712">
        <ele>1133.714</ele>
        <time>2021-06-12T18:27:28Z</time>
      </trkpt>
      <trkpt lat="41.788031" lon="2.331656">
        <ele>1133.408</ele>
        <time>2021-06-12T18:27:32Z</time>
      </trkpt>
      <trkpt lat="41.788010" lon="2.331594">
        <ele>1133.119</ele>
        <time>2021-06-12T18:27:36Z</time>
      </trkpt>
      <trkpt lat="41.787991" lon="2.331533">
        <ele>1133.227</ele>
        <time>2021-06-12T18:27:39Z</time>
      </trkpt>
      <trkpt lat="41.787971" lon="2.331474">
        <ele>1133.550</ele>
        <time>2021-06-12T18:27:43Z</time>
      </trkpt>
      <trkpt lat="41.787947" lon="2.331413">
        <ele>1133.655</ele>
        <time>2021-06-12T18:27:48Z</time>
      </trkpt>
      <trkpt lat="41.787918" lon="2.331357">
        <ele>1133.810</ele>
        <time>2021-06-12T18:27:52Z</time>
      </trkpt>
      <trkpt lat="41.787892" lon="2.331299">
        <ele>1134.117</ele>
        <time>2021-06-12T18:27:56Z</time>
      </trkpt>
      <trkpt lat="41.787863" lon="2.331245">
        <ele>1134.176</ele>
        <time>2021-06-12T18:27:59Z</time>
      </trkpt>
      <trkpt lat="41.787835" lon="2.331189">
        <ele>1134.252</ele>
        <time>2021-06-12T18:28:03Z</time>
      </trkpt>
      <trkpt lat="41.787807" lon="2.331141">
        <ele>1134.131</ele>
        <time>2021-06-12T18:28:07Z</time>
      </trkpt>
      <trkpt lat="41.787780" lon="2.331087">
        <ele>1134.361</ele>
        <time>2021-06-12T18:28:10Z</time>
      </trkpt>
      <trkpt lat="41.787747" lon="2.331040">
        <ele>1134.507</ele>
        <time>2021-06-12T18:28:14Z</time>
      </trkpt>
      <trkpt lat="41.787720" lon="2.330990">
        <ele>1134.608</ele>
        <time>2021-06-12T18:28:18Z</time>
      </trkpt>
      <trkpt lat="41.787692" lon="2.330938">
        <ele>1135.140</ele>
        <time>2021-06-12T18:28:22Z</time>
      </trkpt>
      <trkpt lat="41.787653" lon="2.330891">
        <ele>1135.118</ele>
        <time>2021-06-12T18:28:27Z</time>
      </trkpt>
      <trkpt lat="41.787619" lon="2.330847">
        <ele>1135.221</ele>
        <time>2021-06-12T18:28:31Z</time>
      </trkpt>
      <trkpt lat="41.787577" lon="2.330819">
        <ele>1135.836</ele>
        <time>2021-06-12T18:28:36Z</time>
      </trkpt>
      <trkpt lat="41.787547" lon="2.330769">
        <ele>1136.241</ele>
        <time>2021-06-12T18:28:42Z</time>
      </trkpt>
      <trkpt lat="41.787518" lon="2.330713">
        <ele>1136.878</ele>
        <time>2021-06-12T18:28:48Z</time>
      </trkpt>
      <trkpt lat="41.787493" lon="2.330660">
        <ele>1136.847</ele>
        <time>2021-06-12T18:28:52Z</time>
      </trkpt>
      <trkpt lat="41.787453" lon="2.330622">
        <ele>1137.823</ele>
        <time>2021-06-12T18:29:22Z</time>
      </trkpt>
      <trkpt lat="41.787415" lon="2.330588">
        <ele>1137.876</ele>
        <time>2021-06-12T18:29:26Z</time>
      </trkpt>
      <trkpt lat="41.787371" lon="2.330556">
        <ele>1138.690</ele>
        <time>2021-06-12T18:29:31Z</time>
      </trkpt>
      <trkpt lat="41.787336" lon="2.330510">
        <ele>1138.719</ele>
        <time>2021-06-12T18:29:37Z</time>
      </trkpt>
      <trkpt lat="41.787296" lon="2.330470">
        <ele>1138.808</ele>
        <time>2021-06-12T18:29:42Z</time>
      </trkpt>
      <trkpt lat="41.787269" lon="2.330419">
        <ele>1138.824</ele>
        <time>2021-06-12T18:29:46Z</time>
      </trkpt>
      <trkpt lat="41.787232" lon="2.330376">
        <ele>1138.982</ele>
        <time>2021-06-12T18:29:50Z</time>
      </trkpt>
      <trkpt lat="41.787198" lon="2.330323">
        <ele>1139.585</ele>
        <time>2021-06-12T18:29:55Z</time>
      </trkpt>
      <trkpt lat="41.787170" lon="2.330275">
        <ele>1139.640</ele>
        <time>2021-06-12T18:29:59Z</time>
      </trkpt>
      <trkpt lat="41.787138" lon="2.330228">
        <ele>1139.865</ele>
        <time>2021-06-12T18:30:03Z</time>
      </trkpt>
      <trkpt lat="41.787102" lon="2.330185">
        <ele>1140.012</ele>
        <time>2021-06-12T18:30:07Z</time>
      </trkpt>
      <trkpt lat="41.787065" lon="2.330140">
        <ele>1140.361</ele>
        <time>2021-06-12T18:30:11Z</time>
      </trkpt>
      <trkpt lat="41.787026" lon="2.330100">
        <ele>1140.087</ele>
        <time>2021-06-12T18:30:15Z</time>
      </trkpt>
      <trkpt lat="41.786992" lon="2.330058">
        <ele>1139.681</ele>
        <time>2021-06-12T18:30:19Z</time>
      </trkpt>
      <trkpt lat="41.786959" lon="2.330007">
        <ele>1139.361</ele>
        <time>2021-06-12T18:30:23Z</time>
      </trkpt>
      <trkpt lat="41.786935" lon="2.329950">
        <ele>1139.217</ele>
        <time>2021-06-12T18:30:26Z</time>
      </trkpt>
      <trkpt lat="41.786910" lon="2.329893">
        <ele>1138.508</ele>
        <time>2021-06-12T18:30:30Z</time>
      </trkpt>
      <trkpt lat="41.786894" lon="2.329827">
        <ele>1138.225</ele>
        <time>2021-06-12T18:30:34Z</time>
      </trkpt>
      <trkpt lat="41.786891" lon="2.329757">
        <ele>1137.943</ele>
        <time>2021-06-12T18:30:38Z</time>
      </trkpt>
      <trkpt lat="41.786888" lon="2.329689">
        <ele>1137.676</ele>
        <time>2021-06-12T18:30:42Z</time>
      </trkpt>
      <trkpt lat="41.786870" lon="2.329625">
        <ele>1137.151</ele>
        <time>2021-06-12T18:30:46Z</time>
      </trkpt>
      <trkpt lat="41.786852" lon="2.329570">
        <ele>1137.126</ele>
        <time>2021-06-12T18:30:49Z</time>
      </trkpt>
      <trkpt lat="41.786834" lon="2.329509">
        <ele>1136.753</ele>
        <time>2021-06-12T18:30:53Z</time>
      </trkpt>
      <trkpt lat="41.786818" lon="2.329451">
        <ele>1136.542</ele>
        <time>2021-06-12T18:30:57Z</time>
      </trkpt>
      <trkpt lat="41.786811" lon="2.329391">
        <ele>1136.538</ele>
        <time>2021-06-12T18:31:01Z</time>
      </trkpt>
      <trkpt lat="41.786788" lon="2.329333">
        <ele>1136.137</ele>
        <time>2021-06-12T18:31:05Z</time>
      </trkpt>
      <trkpt lat="41.786748" lon="2.329298">
        <ele>1136.149</ele>
        <time>2021-06-12T18:31:08Z</time>
      </trkpt>
      <trkpt lat="41.786707" lon="2.329261">
        <ele>1135.613</ele>
        <time>2021-06-12T18:31:12Z</time>
      </trkpt>
      <trkpt lat="41.786673" lon="2.329221">
        <ele>1135.208</ele>
        <time>2021-06-12T18:31:16Z</time>
      </trkpt>
      <trkpt lat="41.786629" lon="2.329185">
        <ele>1134.850</ele>
        <time>2021-06-12T18:31:21Z</time>
      </trkpt>
      <trkpt lat="41.786594" lon="2.329138">
        <ele>1134.148</ele>
        <time>2021-06-12T18:31:25Z</time>
      </trkpt>
      <trkpt lat="41.786564" lon="2.329081">
        <ele>1133.451</ele>
        <time>2021-06-12T18:31:30Z</time>
      </trkpt>
      <trkpt lat="41.786538" lon="2.329020">
        <ele>1133.126</ele>
        <time>2021-06-12T18:31:35Z</time>
      </trkpt>
      <trkpt lat="41.786513" lon="2.328962">
        <ele>1132.791</ele>
        <time>2021-06-12T18:31:39Z</time>
      </trkpt>
      <trkpt lat="41.786493" lon="2.328908">
        <ele>1132.698</ele>
        <time>2021-06-12T18:31:42Z</time>
      </trkpt>
      <trkpt lat="41.786467" lon="2.328853">
        <ele>1132.677</ele>
        <time>2021-06-12T18:31:46Z</time>
      </trkpt>
      <trkpt lat="41.786448" lon="2.328796">
        <ele>1132.073</ele>
        <time>2021-06-12T18:31:50Z</time>
      </trkpt>
      <trkpt lat="41.786425" lon="2.328739">
        <ele>1131.734</ele>
        <time>2021-06-12T18:31:56Z</time>
      </trkpt>
      <trkpt lat="41.786434" lon="2.328676">
        <ele>1131.555</ele>
        <time>2021-06-12T18:32:02Z</time>
      </trkpt>
      <trkpt lat="41.786420" lon="2.328614">
        <ele>1131.610</ele>
        <time>2021-06-12T18:32:07Z</time>
      </trkpt>
      <trkpt lat="41.786392" lon="2.328564">
        <ele>1130.108</ele>
        <time>2021-06-12T18:32:11Z</time>
      </trkpt>
      <trkpt lat="41.786366" lon="2.328510">
        <ele>1131.690</ele>
        <time>2021-06-12T18:32:14Z</time>
      </trkpt>
      <trkpt lat="41.786335" lon="2.328452">
        <ele>1132.248</ele>
        <time>2021-06-12T18:32:18Z</time>
      </trkpt>
      <trkpt lat="41.786297" lon="2.328414">
        <ele>1131.611</ele>
        <time>2021-06-12T18:32:21Z</time>
      </trkpt>
      <trkpt lat="41.786254" lon="2.328378">
        <ele>1131.616</ele>
        <time>2021-06-12T18:32:24Z</time>
      </trkpt>
      <trkpt lat="41.786226" lon="2.328326">
        <ele>1131.781</ele>
        <time>2021-06-12T18:32:28Z</time>
      </trkpt>
      <trkpt lat="41.786207" lon="2.328271">
        <ele>1131.468</ele>
        <time>2021-06-12T18:32:31Z</time>
      </trkpt>
      <trkpt lat="41.786175" lon="2.328218">
        <ele>1131.787</ele>
        <time>2021-06-12T18:32:35Z</time>
      </trkpt>
      <trkpt lat="41.786139" lon="2.328178">
        <ele>1131.673</ele>
        <time>2021-06-12T18:32:39Z</time>
      </trkpt>
      <trkpt lat="41.786095" lon="2.328157">
        <ele>1131.512</ele>
        <time>2021-06-12T18:32:43Z</time>
      </trkpt>
      <trkpt lat="41.786055" lon="2.328123">
        <ele>1131.432</ele>
        <time>2021-06-12T18:32:47Z</time>
      </trkpt>
      <trkpt lat="41.786014" lon="2.328089">
        <ele>1131.405</ele>
        <time>2021-06-12T18:32:51Z</time>
      </trkpt>
      <trkpt lat="41.785970" lon="2.328060">
        <ele>1131.608</ele>
        <time>2021-06-12T18:32:55Z</time>
      </trkpt>
      <trkpt lat="41.785927" lon="2.328034">
        <ele>1131.658</ele>
        <time>2021-06-12T18:32:58Z</time>
      </trkpt>
      <trkpt lat="41.785881" lon="2.328005">
        <ele>1131.666</ele>
        <time>2021-06-12T18:33:02Z</time>
      </trkpt>
      <trkpt lat="41.785835" lon="2.327978">
        <ele>1131.389</ele>
        <time>2021-06-12T18:33:06Z</time>
      </trkpt>
      <trkpt lat="41.785789" lon="2.327966">
        <ele>1131.674</ele>
        <time>2021-06-12T18:33:10Z</time>
      </trkpt>
      <trkpt lat="41.785739" lon="2.327951">
        <ele>1131.659</ele>
        <time>2021-06-12T18:33:13Z</time>
      </trkpt>
      <trkpt lat="41.785694" lon="2.327938">
        <ele>1131.486</ele>
        <time>2021-06-12T18:33:16Z</time>
      </trkpt>
      <trkpt lat="41.785647" lon="2.327922">
        <ele>1131.525</ele>
        <time>2021-06-12T18:33:20Z</time>
      </trkpt>
      <trkpt lat="41.785605" lon="2.327895">
        <ele>1131.331</ele>
        <time>2021-06-12T18:33:26Z</time>
      </trkpt>
      <trkpt lat="41.785557" lon="2.327881">
        <ele>1131.954</ele>
        <time>2021-06-12T18:33:33Z</time>
      </trkpt>
      <trkpt lat="41.785515" lon="2.327857">
        <ele>1132.156</ele>
        <time>2021-06-12T18:33:37Z</time>
      </trkpt>
      <trkpt lat="41.785488" lon="2.327807">
        <ele>1131.711</ele>
        <time>2021-06-12T18:34:01Z</time>
      </trkpt>
      <trkpt lat="41.785462" lon="2.327744">
        <ele>1131.408</ele>
        <time>2021-06-12T18:34:06Z</time>
      </trkpt>
      <trkpt lat="41.785460" lon="2.327683">
        <ele>1131.082</ele>
        <time>2021-06-12T18:34:09Z</time>
      </trkpt>
      <trkpt lat="41.785459" lon="2.327621">
        <ele>1130.750</ele>
        <time>2021-06-12T18:34:12Z</time>
      </trkpt>
      <trkpt lat="41.785473" lon="2.327557">
        <ele>1130.273</ele>
        <time>2021-06-12T18:34:16Z</time>
      </trkpt>
      <trkpt lat="41.785498" lon="2.327499">
        <ele>1129.528</ele>
        <time>2021-06-12T18:34:20Z</time>
      </trkpt>
      <trkpt lat="41.785529" lon="2.327447">
        <ele>1129.423</ele>
        <time>2021-06-12T18:34:24Z</time>
      </trkpt>
      <trkpt lat="41.785562" lon="2.327404">
        <ele>1129.130</ele>
        <time>2021-06-12T18:34:27Z</time>
      </trkpt>
      <trkpt lat="41.785590" lon="2.327355">
        <ele>1128.959</ele>
        <time>2021-06-12T18:34:31Z</time>
      </trkpt>
      <trkpt lat="41.785622" lon="2.327303">
        <ele>1128.585</ele>
        <time>2021-06-12T18:34:36Z</time>
      </trkpt>
      <trkpt lat="41.785656" lon="2.327260">
        <ele>1128.631</ele>
        <time>2021-06-12T18:34:40Z</time>
      </trkpt>
      <trkpt lat="41.785690" lon="2.327214">
        <ele>1128.361</ele>
        <time>2021-06-12T18:34:43Z</time>
      </trkpt>
      <trkpt lat="41.785720" lon="2.327158">
        <ele>1128.207</ele>
        <time>2021-06-12T18:34:47Z</time>
      </trkpt>
      <trkpt lat="41.785756" lon="2.327117">
        <ele>1127.608</ele>
        <time>2021-06-12T18:34:51Z</time>
      </trkpt>
      <trkpt lat="41.785788" lon="2.327064">
        <ele>1127.250</ele>
        <time>2021-06-12T18:34:55Z</time>
      </trkpt>
      <trkpt lat="41.785823" lon="2.327020">
        <ele>1127.178</ele>
        <time>2021-06-12T18:34:59Z</time>
      </trkpt>
      <trkpt lat="41.785859" lon="2.326974">
        <ele>1126.281</ele>
        <time>2021-06-12T18:35:03Z</time>
      </trkpt>
      <trkpt lat="41.785899" lon="2.326947">
        <ele>1126.246</ele>
        <time>2021-06-12T18:35:07Z</time>
      </trkpt>
      <trkpt lat="41.785948" lon="2.326923">
        <ele>1126.221</ele>
        <time>2021-06-12T18:35:11Z</time>
      </trkpt>
      <trkpt lat="41.785995" lon="2.326894">
        <ele>1125.678</ele>
        <time>2021-06-12T18:35:15Z</time>
      </trkpt>
      <trkpt lat="41.786041" lon="2.326868">
        <ele>1124.877</ele>
        <time>2021-06-12T18:35:19Z</time>
      </trkpt>
      <trkpt lat="41.786083" lon="2.326843">
        <ele>1124.513</ele>
        <time>2021-06-12T18:35:22Z</time>
      </trkpt>
      <trkpt lat="41.786125" lon="2.326820">
        <ele>1124.461</ele>
        <time>2021-06-12T18:35:25Z</time>
      </trkpt>
      <trkpt lat="41.786169" lon="2.326799">
        <ele>1123.821</ele>
        <time>2021-06-12T18:35:29Z</time>
      </trkpt>
      <trkpt lat="41.786219" lon="2.326783">
        <ele>1123.813</ele>
        <time>2021-06-12T18:35:32Z</time>
      </trkpt>
      <trkpt lat="41.786266" lon="2.326756">
        <ele>1123.308</ele>
        <time>2021-06-12T18:35:35Z</time>
      </trkpt>
      <trkpt lat="41.786311" lon="2.326732">
        <ele>1123.053</ele>
        <time>2021-06-12T18:35:39Z</time>
      </trkpt>
      <trkpt lat="41.786354" lon="2.326708">
        <ele>1123.041</ele>
        <time>2021-06-12T18:35:44Z</time>
      </trkpt>
      <trkpt lat="41.786395" lon="2.326683">
        <ele>1122.584</ele>
        <time>2021-06-12T18:35:47Z</time>
      </trkpt>
      <trkpt lat="41.786441" lon="2.326663">
        <ele>1122.019</ele>
        <time>2021-06-12T18:35:50Z</time>
      </trkpt>
      <trkpt lat="41.786493" lon="2.326667">
        <ele>1121.954</ele>
        <time>2021-06-12T18:35:53Z</time>
      </trkpt>
      <trkpt lat="41.786541" lon="2.326658">
        <ele>1121.871</ele>
        <time>2021-06-12T18:35:57Z</time>
      </trkpt>
      <trkpt lat="41.786589" lon="2.326643">
        <ele>1121.360</ele>
        <time>2021-06-12T18:36:01Z</time>
      </trkpt>
      <trkpt lat="41.786636" lon="2.326629">
        <ele>1121.116</ele>
        <time>2021-06-12T18:36:05Z</time>
      </trkpt>
      <trkpt lat="41.786683" lon="2.326606">
        <ele>1120.389</ele>
        <time>2021-06-12T18:36:10Z</time>
      </trkpt>
      <trkpt lat="41.786724" lon="2.326577">
        <ele>1119.806</ele>
        <time>2021-06-12T18:36:14Z</time>
      </trkpt>
      <trkpt lat="41.786749" lon="2.326524">
        <ele>1118.926</ele>
        <time>2021-06-12T18:36:20Z</time>
      </trkpt>
      <trkpt lat="41.786760" lon="2.326465">
        <ele>1118.608</ele>
        <time>2021-06-12T18:36:24Z</time>
      </trkpt>
      <trkpt lat="41.786740" lon="2.326407">
        <ele>1118.095</ele>
        <time>2021-06-12T18:36:28Z</time>
      </trkpt>
      <trkpt lat="41.786715" lon="2.326356">
        <ele>1117.773</ele>
        <time>2021-06-12T18:36:32Z</time>
      </trkpt>
      <trkpt lat="41.786677" lon="2.326318">
        <ele>1117.466</ele>
        <time>2021-06-12T18:36:36Z</time>
      </trkpt>
      <trkpt lat="41.786647" lon="2.326271">
        <ele>1117.161</ele>
        <time>2021-06-12T18:36:40Z</time>
      </trkpt>
      <trkpt lat="41.786608" lon="2.326221">
        <ele>1116.676</ele>
        <time>2021-06-12T18:36:43Z</time>
      </trkpt>
      <trkpt lat="41.786575" lon="2.326171">
        <ele>1116.323</ele>
        <time>2021-06-12T18:36:47Z</time>
      </trkpt>
      <trkpt lat="41.786543" lon="2.326126">
        <ele>1115.852</ele>
        <time>2021-06-12T18:36:50Z</time>
      </trkpt>
      <trkpt lat="41.786506" lon="2.326080">
        <ele>1115.988</ele>
        <time>2021-06-12T18:36:53Z</time>
      </trkpt>
      <trkpt lat="41.786465" lon="2.326044">
        <ele>1115.453</ele>
        <time>2021-06-12T18:36:57Z</time>
      </trkpt>
      <trkpt lat="41.786424" lon="2.326002">
        <ele>1114.704</ele>
        <time>2021-06-12T18:37:00Z</time>
      </trkpt>
      <trkpt lat="41.786384" lon="2.325965">
        <ele>1114.614</ele>
        <time>2021-06-12T18:37:04Z</time>
      </trkpt>
      <trkpt lat="41.786347" lon="2.325925">
        <ele>1113.708</ele>
        <time>2021-06-12T18:37:08Z</time>
      </trkpt>
      <trkpt lat="41.786307" lon="2.325890">
        <ele>1113.462</ele>
        <time>2021-06-12T18:37:12Z</time>
      </trkpt>
      <trkpt lat="41.786262" lon="2.325855">
        <ele>1113.240</ele>
        <time>2021-06-12T18:37:16Z</time>
      </trkpt>
      <trkpt lat="41.786223" lon="2.325822">
        <ele>1113.413</ele>
        <time>2021-06-12T18:37:20Z</time>
      </trkpt>
      <trkpt lat="41.786177" lon="2.325806">
        <ele>1113.218</ele>
        <time>2021-06-12T18:37:23Z</time>
      </trkpt>
      <trkpt lat="41.786128" lon="2.325818">
        <ele>1112.963</ele>
        <time>2021-06-12T18:37:27Z</time>
      </trkpt>
      <trkpt lat="41.786086" lon="2.325858">
        <ele>1112.780</ele>
        <time>2021-06-12T18:37:31Z</time>
      </trkpt>
      <trkpt lat="41.786052" lon="2.325905">
        <ele>1112.279</ele>
        <time>2021-06-12T18:37:35Z</time>
      </trkpt>
      <trkpt lat="41.786015" lon="2.325947">
        <ele>1112.285</ele>
        <time>2021-06-12T18:37:39Z</time>
      </trkpt>
      <trkpt lat="41.785971" lon="2.325974">
        <ele>1111.598</ele>
        <time>2021-06-12T18:37:42Z</time>
      </trkpt>
      <trkpt lat="41.785924" lon="2.325945">
        <ele>1111.315</ele>
        <time>2021-06-12T18:37:46Z</time>
      </trkpt>
      <trkpt lat="41.785919" lon="2.325877">
        <ele>1110.126</ele>
        <time>2021-06-12T18:37:50Z</time>
      </trkpt>
      <trkpt lat="41.785943" lon="2.325811">
        <ele>1109.608</ele>
        <time>2021-06-12T18:37:54Z</time>
      </trkpt>
      <trkpt lat="41.785965" lon="2.325747">
        <ele>1109.246</ele>
        <time>2021-06-12T18:37:56Z</time>
      </trkpt>
      <trkpt lat="41.785980" lon="2.325677">
        <ele>1108.474</ele>
        <time>2021-06-12T18:38:00Z</time>
      </trkpt>
      <trkpt lat="41.786000" lon="2.325614">
        <ele>1108.567</ele>
        <time>2021-06-12T18:38:03Z</time>
      </trkpt>
      <trkpt lat="41.786016" lon="2.325557">
        <ele>1107.922</ele>
        <time>2021-06-12T18:38:06Z</time>
      </trkpt>
      <trkpt lat="41.786059" lon="2.325521">
        <ele>1107.157</ele>
        <time>2021-06-12T18:38:10Z</time>
      </trkpt>
      <trkpt lat="41.786094" lon="2.325477">
        <ele>1106.614</ele>
        <time>2021-06-12T18:38:14Z</time>
      </trkpt>
      <trkpt lat="41.786116" lon="2.325419">
        <ele>1105.953</ele>
        <time>2021-06-12T18:38:19Z</time>
      </trkpt>
      <trkpt lat="41.786131" lon="2.325357">
        <ele>1105.719</ele>
        <time>2021-06-12T18:38:24Z</time>
      </trkpt>
      <trkpt lat="41.786142" lon="2.325290">
        <ele>1105.369</ele>
        <time>2021-06-12T18:38:28Z</time>
      </trkpt>
      <trkpt lat="41.786152" lon="2.325226">
        <ele>1104.604</ele>
        <time>2021-06-12T18:38:32Z</time>
      </trkpt>
      <trkpt lat="41.786182" lon="2.325168">
        <ele>1103.824</ele>
        <time>2021-06-12T18:38:36Z</time>
      </trkpt>
      <trkpt lat="41.786212" lon="2.325112">
        <ele>1103.508</ele>
        <time>2021-06-12T18:38:39Z</time>
      </trkpt>
      <trkpt lat="41.786234" lon="2.325057">
        <ele>1102.613</ele>
        <time>2021-06-12T18:38:43Z</time>
      </trkpt>
      <trkpt lat="41.786275" lon="2.325029">
        <ele>1102.141</ele>
        <time>2021-06-12T18:38:49Z</time>
      </trkpt>
      <trkpt lat="41.786324" lon="2.325023">
        <ele>1101.154</ele>
        <time>2021-06-12T18:38:53Z</time>
      </trkpt>
      <trkpt lat="41.786370" lon="2.324998">
        <ele>1100.659</ele>
        <time>2021-06-12T18:38:56Z</time>
      </trkpt>
      <trkpt lat="41.786415" lon="2.324968">
        <ele>1100.574</ele>
        <time>2021-06-12T18:39:01Z</time>
      </trkpt>
      <trkpt lat="41.786458" lon="2.324947">
        <ele>1099.921</ele>
        <time>2021-06-12T18:39:05Z</time>
      </trkpt>
      <trkpt lat="41.786499" lon="2.324922">
        <ele>1099.860</ele>
        <time>2021-06-12T18:39:08Z</time>
      </trkpt>
      <trkpt lat="41.786543" lon="2.324907">
        <ele>1099.636</ele>
        <time>2021-06-12T18:39:12Z</time>
      </trkpt>
      <trkpt lat="41.786580" lon="2.324869">
        <ele>1099.434</ele>
        <time>2021-06-12T18:39:16Z</time>
      </trkpt>
      <trkpt lat="41.786606" lon="2.324814">
        <ele>1098.755</ele>
        <time>2021-06-12T18:39:20Z</time>
      </trkpt>
      <trkpt lat="41.786646" lon="2.324777">
        <ele>1098.310</ele>
        <time>2021-06-12T18:39:23Z</time>
      </trkpt>
      <trkpt lat="41.786682" lon="2.324737">
        <ele>1097.708</ele>
        <time>2021-06-12T18:39:27Z</time>
      </trkpt>
      <trkpt lat="41.786696" lon="2.324666">
        <ele>1097.470</ele>
        <time>2021-06-12T18:39:32Z</time>
      </trkpt>
      <trkpt lat="41.786722" lon="2.324614">
        <ele>1097.018</ele>
        <time>2021-06-12T18:39:40Z</time>
      </trkpt>
      <trkpt lat="41.786760" lon="2.324575">
        <ele>1095.361</ele>
        <time>2021-06-12T18:40:39Z</time>
      </trkpt>
      <trkpt lat="41.786770" lon="2.324511">
        <ele>1094.426</ele>
        <time>2021-06-12T18:40:42Z</time>
      </trkpt>
      <trkpt lat="41.786771" lon="2.324443">
        <ele>1094.051</ele>
        <time>2021-06-12T18:40:45Z</time>
      </trkpt>
      <trkpt lat="41.786768" lon="2.324381">
        <ele>1093.598</ele>
        <time>2021-06-12T18:40:49Z</time>
      </trkpt>
      <trkpt lat="41.786753" lon="2.324320">
        <ele>1093.157</ele>
        <time>2021-06-12T18:40:53Z</time>
      </trkpt>
      <trkpt lat="41.786763" lon="2.324261">
        <ele>1089.353</ele>
        <time>2021-06-12T18:40:57Z</time>
      </trkpt>
      <trkpt lat="41.786759" lon="2.324200">
        <ele>1091.511</ele>
        <time>2021-06-12T18:41:02Z</time>
      </trkpt>
      <trkpt lat="41.786789" lon="2.324151">
        <ele>1091.221</ele>
        <time>2021-06-12T18:41:09Z</time>
      </trkpt>
      <trkpt lat="41.786804" lon="2.324088">
        <ele>1091.403</ele>
        <time>2021-06-12T18:41:11Z</time>
      </trkpt>
      <trkpt lat="41.786821" lon="2.324018">
        <ele>1091.208</ele>
        <time>2021-06-12T18:41:14Z</time>
      </trkpt>
      <trkpt lat="41.786833" lon="2.323951">
        <ele>1091.018</ele>
        <time>2021-06-12T18:41:18Z</time>
      </trkpt>
      <trkpt lat="41.786854" lon="2.323895">
        <ele>1090.666</ele>
        <time>2021-06-12T18:41:21Z</time>
      </trkpt>
      <trkpt lat="41.786877" lon="2.323834">
        <ele>1090.459</ele>
        <time>2021-06-12T18:41:25Z</time>
      </trkpt>
      <trkpt lat="41.786900" lon="2.323781">
        <ele>1087.744</ele>
        <time>2021-06-12T18:41:28Z</time>
      </trkpt>
      <trkpt lat="41.786929" lon="2.323722">
        <ele>1089.569</ele>
        <time>2021-06-12T18:41:32Z</time>
      </trkpt>
      <trkpt lat="41.786971" lon="2.323695">
        <ele>1088.546</ele>
        <time>2021-06-12T18:41:36Z</time>
      </trkpt>
      <trkpt lat="41.786978" lon="2.323628">
        <ele>1089.295</ele>
        <time>2021-06-12T18:41:40Z</time>
      </trkpt>
      <trkpt lat="41.787003" lon="2.323569">
        <ele>1089.141</ele>
        <time>2021-06-12T18:41:44Z</time>
      </trkpt>
      <trkpt lat="41.787051" lon="2.323555">
        <ele>1089.398</ele>
        <time>2021-06-12T18:41:47Z</time>
      </trkpt>
      <trkpt lat="41.787098" lon="2.323540">
        <ele>1088.615</ele>
        <time>2021-06-12T18:41:51Z</time>
      </trkpt>
      <trkpt lat="41.787076" lon="2.323487">
        <ele>1088.126</ele>
        <time>2021-06-12T18:41:57Z</time>
      </trkpt>
      <trkpt lat="41.787090" lon="2.323424">
        <ele>1087.808</ele>
        <time>2021-06-12T18:42:01Z</time>
      </trkpt>
      <trkpt lat="41.787102" lon="2.323358">
        <ele>1088.076</ele>
        <time>2021-06-12T18:42:05Z</time>
      </trkpt>
      <trkpt lat="41.787118" lon="2.323299">
        <ele>1087.754</ele>
        <time>2021-06-12T18:42:08Z</time>
      </trkpt>
      <trkpt lat="41.787123" lon="2.323234">
        <ele>1087.257</ele>
        <time>2021-06-12T18:42:12Z</time>
      </trkpt>
      <trkpt lat="41.787124" lon="2.323167">
        <ele>1087.192</ele>
        <time>2021-06-12T18:42:16Z</time>
      </trkpt>
      <trkpt lat="41.787119" lon="2.323104">
        <ele>1087.367</ele>
        <time>2021-06-12T18:42:20Z</time>
      </trkpt>
      <trkpt lat="41.787104" lon="2.323040">
        <ele>1087.054</ele>
        <time>2021-06-12T18:42:24Z</time>
      </trkpt>
      <trkpt lat="41.787115" lon="2.322978">
        <ele>1086.423</ele>
        <time>2021-06-12T18:42:27Z</time>
      </trkpt>
      <trkpt lat="41.787101" lon="2.322911">
        <ele>1085.949</ele>
        <time>2021-06-12T18:42:31Z</time>
      </trkpt>
      <trkpt lat="41.787095" lon="2.322849">
        <ele>1085.618</ele>
        <time>2021-06-12T18:42:35Z</time>
      </trkpt>
      <trkpt lat="41.787097" lon="2.322786">
        <ele>1085.298</ele>
        <time>2021-06-12T18:42:39Z</time>
      </trkpt>
      <trkpt lat="41.787114" lon="2.322726">
        <ele>1084.617</ele>
        <time>2021-06-12T18:42:43Z</time>
      </trkpt>
      <trkpt lat="41.787127" lon="2.322660">
        <ele>1084.608</ele>
        <time>2021-06-12T18:42:46Z</time>
      </trkpt>
      <trkpt lat="41.787143" lon="2.322600">
        <ele>1084.078</ele>
        <time>2021-06-12T18:42:50Z</time>
      </trkpt>
      <trkpt lat="41.787154" lon="2.322531">
        <ele>1083.986</ele>
        <time>2021-06-12T18:42:54Z</time>
      </trkpt>
      <trkpt lat="41.787166" lon="2.322469">
        <ele>1084.089</ele>
        <time>2021-06-12T18:42:57Z</time>
      </trkpt>
      <trkpt lat="41.787170" lon="2.322404">
        <ele>1083.354</ele>
        <time>2021-06-12T18:43:00Z</time>
      </trkpt>
      <trkpt lat="41.787171" lon="2.322339">
        <ele>1082.819</ele>
        <time>2021-06-12T18:43:04Z</time>
      </trkpt>
      <trkpt lat="41.787188" lon="2.322281">
        <ele>1081.936</ele>
        <time>2021-06-12T18:43:09Z</time>
      </trkpt>
      <trkpt lat="41.787201" lon="2.322218">
        <ele>1081.485</ele>
        <time>2021-06-12T18:43:12Z</time>
      </trkpt>
      <trkpt lat="41.787206" lon="2.322150">
        <ele>1081.011</ele>
        <time>2021-06-12T18:43:16Z</time>
      </trkpt>
      <trkpt lat="41.787206" lon="2.322086">
        <ele>1080.427</ele>
        <time>2021-06-12T18:43:20Z</time>
      </trkpt>
      <trkpt lat="41.787217" lon="2.322018">
        <ele>1079.968</ele>
        <time>2021-06-12T18:43:24Z</time>
      </trkpt>
      <trkpt lat="41.787220" lon="2.321946">
        <ele>1079.514</ele>
        <time>2021-06-12T18:43:28Z</time>
      </trkpt>
      <trkpt lat="41.787216" lon="2.321877">
        <ele>1079.608</ele>
        <time>2021-06-12T18:43:32Z</time>
      </trkpt>
      <trkpt lat="41.787203" lon="2.321817">
        <ele>1079.189</ele>
        <time>2021-06-12T18:43:34Z</time>
      </trkpt>
      <trkpt lat="41.787178" lon="2.321760">
        <ele>1078.987</ele>
        <time>2021-06-12T18:43:38Z</time>
      </trkpt>
      <trkpt lat="41.787156" lon="2.321702">
        <ele>1078.560</ele>
        <time>2021-06-12T18:43:43Z</time>
      </trkpt>
      <trkpt lat="41.787121" lon="2.321655">
        <ele>1078.095</ele>
        <time>2021-06-12T18:43:48Z</time>
      </trkpt>
      <trkpt lat="41.787097" lon="2.321601">
        <ele>1077.540</ele>
        <time>2021-06-12T18:43:54Z</time>
      </trkpt>
      <trkpt lat="41.787096" lon="2.321540">
        <ele>1076.957</ele>
        <time>2021-06-12T18:43:58Z</time>
      </trkpt>
      <trkpt lat="41.787086" lon="2.321481">
        <ele>1076.246</ele>
        <time>2021-06-12T18:44:02Z</time>
      </trkpt>
      <trkpt lat="41.787075" lon="2.321414">
        <ele>1076.022</ele>
        <time>2021-06-12T18:44:06Z</time>
      </trkpt>
      <trkpt lat="41.787063" lon="2.321356">
        <ele>1075.421</ele>
        <time>2021-06-12T18:44:09Z</time>
      </trkpt>
      <trkpt lat="41.787058" lon="2.321292">
        <ele>1075.241</ele>
        <time>2021-06-12T18:44:13Z</time>
      </trkpt>
      <trkpt lat="41.787048" lon="2.321230">
        <ele>1074.305</ele>
        <time>2021-06-12T18:44:17Z</time>
      </trkpt>
      <trkpt lat="41.787030" lon="2.321169">
        <ele>1073.608</ele>
        <time>2021-06-12T18:44:21Z</time>
      </trkpt>
      <trkpt lat="41.787013" lon="2.321105">
        <ele>1073.449</ele>
        <time>2021-06-12T18:44:25Z</time>
      </trkpt>
      <trkpt lat="41.786992" lon="2.321049">
        <ele>1071.517</ele>
        <time>2021-06-12T18:44:29Z</time>
      </trkpt>
      <trkpt lat="41.786964" lon="2.320993">
        <ele>1071.650</ele>
        <time>2021-06-12T18:44:34Z</time>
      </trkpt>
      <trkpt lat="41.786920" lon="2.320976">
        <ele>1071.445</ele>
        <time>2021-06-12T18:44:36Z</time>
      </trkpt>
      <trkpt lat="41.786873" lon="2.320967">
        <ele>1071.550</ele>
        <time>2021-06-12T18:44:39Z</time>
      </trkpt>
      <trkpt lat="41.786835" lon="2.320935">
        <ele>1069.977</ele>
        <time>2021-06-12T18:44:44Z</time>
      </trkpt>
      <trkpt lat="41.786833" lon="2.320865">
        <ele>1069.376</ele>
        <time>2021-06-12T18:44:47Z</time>
      </trkpt>
      <trkpt lat="41.786835" lon="2.320804">
        <ele>1069.162</ele>
        <time>2021-06-12T18:44:50Z</time>
      </trkpt>
      <trkpt lat="41.786836" lon="2.320732">
        <ele>1068.433</ele>
        <time>2021-06-12T18:44:53Z</time>
      </trkpt>
      <trkpt lat="41.786833" lon="2.320671">
        <ele>1067.923</ele>
        <time>2021-06-12T18:44:56Z</time>
      </trkpt>
      <trkpt lat="41.786839" lon="2.320609">
        <ele>1067.615</ele>
        <time>2021-06-12T18:44:59Z</time>
      </trkpt>
      <trkpt lat="41.786867" lon="2.320552">
        <ele>1067.008</ele>
        <time>2021-06-12T18:45:02Z</time>
      </trkpt>
      <trkpt lat="41.786887" lon="2.320491">
        <ele>1066.410</ele>
        <time>2021-06-12T18:45:05Z</time>
      </trkpt>
      <trkpt lat="41.786906" lon="2.320436">
        <ele>1066.248</ele>
        <time>2021-06-12T18:45:08Z</time>
      </trkpt>
      <trkpt lat="41.786926" lon="2.320375">
        <ele>1066.261</ele>
        <time>2021-06-12T18:45:12Z</time>
      </trkpt>
      <trkpt lat="41.786931" lon="2.320311">
        <ele>1065.536</ele>
        <time>2021-06-12T18:45:15Z</time>
      </trkpt>
      <trkpt lat="41.786931" lon="2.320249">
        <ele>1065.291</ele>
        <time>2021-06-12T18:45:20Z</time>
      </trkpt>
      <trkpt lat="41.786936" lon="2.320182">
        <ele>1064.748</ele>
        <time>2021-06-12T18:45:24Z</time>
      </trkpt>
      <trkpt lat="41.786949" lon="2.320119">
        <ele>1064.327</ele>
        <time>2021-06-12T18:45:28Z</time>
      </trkpt>
      <trkpt lat="41.786965" lon="2.320058">
        <ele>1064.183</ele>
        <time>2021-06-12T18:45:32Z</time>
      </trkpt>
      <trkpt lat="41.786968" lon="2.319997">
        <ele>1064.278</ele>
        <time>2021-06-12T18:45:36Z</time>
      </trkpt>
      <trkpt lat="41.786941" lon="2.319942">
        <ele>1063.033</ele>
        <time>2021-06-12T18:45:43Z</time>
      </trkpt>
      <trkpt lat="41.786897" lon="2.319925">
        <ele>1062.726</ele>
        <time>2021-06-12T18:45:47Z</time>
      </trkpt>
      <trkpt lat="41.786852" lon="2.319931">
        <ele>1062.408</ele>
        <time>2021-06-12T18:45:57Z</time>
      </trkpt>
      <trkpt lat="41.786830" lon="2.319873">
        <ele>1062.844</ele>
        <time>2021-06-12T18:46:04Z</time>
      </trkpt>
      <trkpt lat="41.786788" lon="2.319841">
        <ele>1061.382</ele>
        <time>2021-06-12T18:47:03Z</time>
      </trkpt>
      <trkpt lat="41.786742" lon="2.319871">
        <ele>1061.555</ele>
        <time>2021-06-12T18:47:06Z</time>
      </trkpt>
      <trkpt lat="41.786704" lon="2.319904">
        <ele>1061.480</ele>
        <time>2021-06-12T18:47:09Z</time>
      </trkpt>
      <trkpt lat="41.786656" lon="2.319921">
        <ele>1061.585</ele>
        <time>2021-06-12T18:47:12Z</time>
      </trkpt>
      <trkpt lat="41.786608" lon="2.319934">
        <ele>1061.562</ele>
        <time>2021-06-12T18:47:16Z</time>
      </trkpt>
      <trkpt lat="41.786560" lon="2.319942">
        <ele>1060.911</ele>
        <time>2021-06-12T18:47:20Z</time>
      </trkpt>
      <trkpt lat="41.786516" lon="2.319969">
        <ele>1060.867</ele>
        <time>2021-06-12T18:47:24Z</time>
      </trkpt>
      <trkpt lat="41.786478" lon="2.320005">
        <ele>1060.716</ele>
        <time>2021-06-12T18:47:26Z</time>
      </trkpt>
      <trkpt lat="41.786431" lon="2.320028">
        <ele>1060.876</ele>
        <time>2021-06-12T18:47:30Z</time>
      </trkpt>
      <trkpt lat="41.786399" lon="2.320071">
        <ele>1061.613</ele>
        <time>2021-06-12T18:47:33Z</time>
      </trkpt>
      <trkpt lat="41.786356" lon="2.320099">
        <ele>1060.608</ele>
        <time>2021-06-12T18:47:36Z</time>
      </trkpt>
      <trkpt lat="41.786313" lon="2.320131">
        <ele>1060.468</ele>
        <time>2021-06-12T18:47:40Z</time>
      </trkpt>
      <trkpt lat="41.786272" lon="2.320175">
        <ele>1060.276</ele>
        <time>2021-06-12T18:47:44Z</time>
      </trkpt>
      <trkpt lat="41.786232" lon="2.320217">
        <ele>1060.059</ele>
        <time>2021-06-12T18:47:48Z</time>
      </trkpt>
      <trkpt lat="41.786194" lon="2.320257">
        <ele>1060.044</ele>
        <time>2021-06-12T18:47:52Z</time>
      </trkpt>
      <trkpt lat="41.786165" lon="2.320317">
        <ele>1059.439</ele>
        <time>2021-06-12T18:47:56Z</time>
      </trkpt>
      <trkpt lat="41.786136" lon="2.320370">
        <ele>1059.336</ele>
        <time>2021-06-12T18:48:00Z</time>
      </trkpt>
      <trkpt lat="41.786114" lon="2.320430">
        <ele>1059.245</ele>
        <time>2021-06-12T18:48:03Z</time>
      </trkpt>
      <trkpt lat="41.786098" lon="2.320493">
        <ele>1058.891</ele>
        <time>2021-06-12T18:48:07Z</time>
      </trkpt>
      <trkpt lat="41.786072" lon="2.320550">
        <ele>1058.713</ele>
        <time>2021-06-12T18:48:12Z</time>
      </trkpt>
      <trkpt lat="41.786030" lon="2.320583">
        <ele>1058.043</ele>
        <time>2021-06-12T18:48:16Z</time>
      </trkpt>
      <trkpt lat="41.785987" lon="2.320563">
        <ele>1057.507</ele>
        <time>2021-06-12T18:48:19Z</time>
      </trkpt>
      <trkpt lat="41.785959" lon="2.320507">
        <ele>1057.308</ele>
        <time>2021-06-12T18:48:23Z</time>
      </trkpt>
      <trkpt lat="41.785965" lon="2.320446">
        <ele>1057.068</ele>
        <time>2021-06-12T18:48:26Z</time>
      </trkpt>
      <trkpt lat="41.785980" lon="2.320384">
        <ele>1057.056</ele>
        <time>2021-06-12T18:48:29Z</time>
      </trkpt>
      <trkpt lat="41.785995" lon="2.320323">
        <ele>1056.629</ele>
        <time>2021-06-12T18:48:32Z</time>
      </trkpt>
      <trkpt lat="41.786004" lon="2.320260">
        <ele>1056.544</ele>
        <time>2021-06-12T18:48:35Z</time>
      </trkpt>
      <trkpt lat="41.786007" lon="2.320196">
        <ele>1056.119</ele>
        <time>2021-06-12T18:48:39Z</time>
      </trkpt>
      <trkpt lat="41.786018" lon="2.320131">
        <ele>1056.046</ele>
        <time>2021-06-12T18:48:43Z</time>
      </trkpt>
      <trkpt lat="41.786019" lon="2.320069">
        <ele>1055.445</ele>
        <time>2021-06-12T18:48:48Z</time>
      </trkpt>
      <trkpt lat="41.786019" lon="2.320002">
        <ele>1054.791</ele>
        <time>2021-06-12T18:48:52Z</time>
      </trkpt>
      <trkpt lat="41.786041" lon="2.319942">
        <ele>1054.472</ele>
        <time>2021-06-12T18:48:56Z</time>
      </trkpt>
      <trkpt lat="41.786070" lon="2.319893">
        <ele>1054.313</ele>
        <time>2021-06-12T18:48:59Z</time>
      </trkpt>
      <trkpt lat="41.786089" lon="2.319837">
        <ele>1054.514</ele>
        <time>2021-06-12T18:49:02Z</time>
      </trkpt>
      <trkpt lat="41.786100" lon="2.319778">
        <ele>1054.008</ele>
        <time>2021-06-12T18:49:06Z</time>
      </trkpt>
      <trkpt lat="41.786112" lon="2.319714">
        <ele>1053.964</ele>
        <time>2021-06-12T18:49:09Z</time>
      </trkpt>
      <trkpt lat="41.786131" lon="2.319650">
        <ele>1053.392</ele>
        <time>2021-06-12T18:49:13Z</time>
      </trkpt>
      <trkpt lat="41.786167" lon="2.319601">
        <ele>1052.535</ele>
        <time>2021-06-12T18:49:16Z</time>
      </trkpt>
      <trkpt lat="41.786210" lon="2.319567">
        <ele>1052.530</ele>
        <time>2021-06-12T18:49:20Z</time>
      </trkpt>
      <trkpt lat="41.786259" lon="2.319541">
        <ele>1052.155</ele>
        <time>2021-06-12T18:49:24Z</time>
      </trkpt>
      <trkpt lat="41.786303" lon="2.319517">
        <ele>1051.752</ele>
        <time>2021-06-12T18:49:45Z</time>
      </trkpt>
      <trkpt lat="41.786349" lon="2.319532">
        <ele>1050.541</ele>
        <time>2021-06-12T18:49:50Z</time>
      </trkpt>
      <trkpt lat="41.786385" lon="2.319485">
        <ele>1050.347</ele>
        <time>2021-06-12T18:49:54Z</time>
      </trkpt>
      <trkpt lat="41.786413" lon="2.319430">
        <ele>1050.699</ele>
        <time>2021-06-12T18:49:57Z</time>
      </trkpt>
      <trkpt lat="41.786444" lon="2.319380">
        <ele>1049.907</ele>
        <time>2021-06-12T18:50:00Z</time>
      </trkpt>
      <trkpt lat="41.786479" lon="2.319337">
        <ele>1050.027</ele>
        <time>2021-06-12T18:50:04Z</time>
      </trkpt>
      <trkpt lat="41.786520" lon="2.319297">
        <ele>1049.608</ele>
        <time>2021-06-12T18:50:08Z</time>
      </trkpt>
      <trkpt lat="41.786554" lon="2.319245">
        <ele>1049.486</ele>
        <time>2021-06-12T18:50:11Z</time>
      </trkpt>
      <trkpt lat="41.786594" lon="2.319209">
        <ele>1049.134</ele>
        <time>2021-06-12T18:50:15Z</time>
      </trkpt>
      <trkpt lat="41.786639" lon="2.319186">
        <ele>1049.257</ele>
        <time>2021-06-12T18:50:19Z</time>
      </trkpt>
      <trkpt lat="41.786683" lon="2.319155">
        <ele>1048.592</ele>
        <time>2021-06-12T18:50:23Z</time>
      </trkpt>
      <trkpt lat="41.786719" lon="2.319117">
        <ele>1048.067</ele>
        <time>2021-06-12T18:50:26Z</time>
      </trkpt>
      <trkpt lat="41.786750" lon="2.319072">
        <ele>1047.894</ele>
        <time>2021-06-12T18:50:30Z</time>
      </trkpt>
      <trkpt lat="41.786775" lon="2.319013">
        <ele>1046.713</ele>
        <time>2021-06-12T18:50:35Z</time>
      </trkpt>
      <trkpt lat="41.786804" lon="2.318963">
        <ele>1045.749</ele>
        <time>2021-06-12T18:50:39Z</time>
      </trkpt>
      <trkpt lat="41.786832" lon="2.318915">
        <ele>1045.475</ele>
        <time>2021-06-12T18:50:43Z</time>
      </trkpt>
      <trkpt lat="41.786857" lon="2.318853">
        <ele>1044.428</ele>
        <time>2021-06-12T18:50:48Z</time>
      </trkpt>
      <trkpt lat="41.786882" lon="2.318801">
        <ele>1043.820</ele>
        <time>2021-06-12T18:50:51Z</time>
      </trkpt>
      <trkpt lat="41.786916" lon="2.318751">
        <ele>1043.408</ele>
        <time>2021-06-12T18:50:55Z</time>
      </trkpt>
      <trkpt lat="41.786940" lon="2.318699">
        <ele>1043.044</ele>
        <time>2021-06-12T18:50:58Z</time>
      </trkpt>
      <trkpt lat="41.786971" lon="2.318644">
        <ele>1043.212</ele>
        <time>2021-06-12T18:51:03Z</time>
      </trkpt>
      <trkpt lat="41.787005" lon="2.318600">
        <ele>1042.965</ele>
        <time>2021-06-12T18:51:07Z</time>
      </trkpt>
      <trkpt lat="41.787044" lon="2.318565">
        <ele>1042.580</ele>
        <time>2021-06-12T18:51:12Z</time>
      </trkpt>
      <trkpt lat="41.787091" lon="2.318533">
        <ele>1042.825</ele>
        <time>2021-06-12T18:51:16Z</time>
      </trkpt>
      <trkpt lat="41.787129" lon="2.318497">
        <ele>1043.082</ele>
        <time>2021-06-12T18:51:19Z</time>
      </trkpt>
      <trkpt lat="41.787155" lon="2.318435">
        <ele>1043.031</ele>
        <time>2021-06-12T18:51:23Z</time>
      </trkpt>
      <trkpt lat="41.787170" lon="2.318367">
        <ele>1042.867</ele>
        <time>2021-06-12T18:51:26Z</time>
      </trkpt>
      <trkpt lat="41.787188" lon="2.318300">
        <ele>1042.552</ele>
        <time>2021-06-12T18:51:30Z</time>
      </trkpt>
      <trkpt lat="41.787208" lon="2.318243">
        <ele>1041.653</ele>
        <time>2021-06-12T18:51:32Z</time>
      </trkpt>
      <trkpt lat="41.787225" lon="2.318185">
        <ele>1041.408</ele>
        <time>2021-06-12T18:51:35Z</time>
      </trkpt>
      <trkpt lat="41.787249" lon="2.318133">
        <ele>1041.308</ele>
        <time>2021-06-12T18:51:38Z</time>
      </trkpt>
      <trkpt lat="41.787277" lon="2.318072">
        <ele>1040.552</ele>
        <time>2021-06-12T18:51:41Z</time>
      </trkpt>
      <trkpt lat="41.787311" lon="2.318029">
        <ele>1040.540</ele>
        <time>2021-06-12T18:51:44Z</time>
      </trkpt>
      <trkpt lat="41.787342" lon="2.317977">
        <ele>1039.883</ele>
        <time>2021-06-12T18:51:48Z</time>
      </trkpt>
      <trkpt lat="41.787376" lon="2.317936">
        <ele>1039.018</ele>
        <time>2021-06-12T18:51:53Z</time>
      </trkpt>
      <trkpt lat="41.787418" lon="2.317899">
        <ele>1038.793</ele>
        <time>2021-06-12T18:51:59Z</time>
      </trkpt>
      <trkpt lat="41.787419" lon="2.317835">
        <ele>1036.810</ele>
        <time>2021-06-12T18:52:10Z</time>
      </trkpt>
      <trkpt lat="41.787449" lon="2.317790">
        <ele>1035.999</ele>
        <time>2021-06-12T18:52:16Z</time>
      </trkpt>
      <trkpt lat="41.787479" lon="2.317743">
        <ele>1034.915</ele>
        <time>2021-06-12T18:52:22Z</time>
      </trkpt>
      <trkpt lat="41.787507" lon="2.317690">
        <ele>1034.247</ele>
        <time>2021-06-12T18:52:26Z</time>
      </trkpt>
      <trkpt lat="41.787521" lon="2.317629">
        <ele>1033.529</ele>
        <time>2021-06-12T18:52:30Z</time>
      </trkpt>
      <trkpt lat="41.787540" lon="2.317565">
        <ele>1032.721</ele>
        <time>2021-06-12T18:52:34Z</time>
      </trkpt>
      <trkpt lat="41.787545" lon="2.317505">
        <ele>1032.208</ele>
        <time>2021-06-12T18:52:38Z</time>
      </trkpt>
      <trkpt lat="41.787539" lon="2.317439">
        <ele>1031.561</ele>
        <time>2021-06-12T18:52:43Z</time>
      </trkpt>
      <trkpt lat="41.787513" lon="2.317389">
        <ele>1029.969</ele>
        <time>2021-06-12T18:52:53Z</time>
      </trkpt>
      <trkpt lat="41.787508" lon="2.317324">
        <ele>1028.672</ele>
        <time>2021-06-12T18:53:00Z</time>
      </trkpt>
      <trkpt lat="41.787505" lon="2.317260">
        <ele>1027.997</ele>
        <time>2021-06-12T18:53:04Z</time>
      </trkpt>
      <trkpt lat="41.787510" lon="2.317198">
        <ele>1027.152</ele>
        <time>2021-06-12T18:53:08Z</time>
      </trkpt>
      <trkpt lat="41.787504" lon="2.317129">
        <ele>1026.649</ele>
        <time>2021-06-12T18:53:13Z</time>
      </trkpt>
      <trkpt lat="41.787542" lon="2.317089">
        <ele>1025.628</ele>
        <time>2021-06-12T18:53:18Z</time>
      </trkpt>
      <trkpt lat="41.787575" lon="2.317041">
        <ele>1024.994</ele>
        <time>2021-06-12T18:53:24Z</time>
      </trkpt>
      <trkpt lat="41.787586" lon="2.316981">
        <ele>1024.394</ele>
        <time>2021-06-12T18:53:28Z</time>
      </trkpt>
      <trkpt lat="41.787607" lon="2.316922">
        <ele>1023.557</ele>
        <time>2021-06-12T18:53:33Z</time>
      </trkpt>
      <trkpt lat="41.787629" lon="2.316863">
        <ele>1023.022</ele>
        <time>2021-06-12T18:53:37Z</time>
      </trkpt>
      <trkpt lat="41.787654" lon="2.316805">
        <ele>1022.508</ele>
        <time>2021-06-12T18:53:41Z</time>
      </trkpt>
      <trkpt lat="41.787644" lon="2.316744">
        <ele>1022.116</ele>
        <time>2021-06-12T18:53:45Z</time>
      </trkpt>
      <trkpt lat="41.787630" lon="2.316681">
        <ele>1021.044</ele>
        <time>2021-06-12T18:53:50Z</time>
      </trkpt>
      <trkpt lat="41.787627" lon="2.316616">
        <ele>1020.117</ele>
        <time>2021-06-12T18:53:55Z</time>
      </trkpt>
      <trkpt lat="41.787607" lon="2.316555">
        <ele>1019.572</ele>
        <time>2021-06-12T18:54:01Z</time>
      </trkpt>
      <trkpt lat="41.787562" lon="2.316547">
        <ele>1017.127</ele>
        <time>2021-06-12T18:54:14Z</time>
      </trkpt>
      <trkpt lat="41.787573" lon="2.316489">
        <ele>1016.654</ele>
        <time>2021-06-12T18:54:22Z</time>
      </trkpt>
      <trkpt lat="41.787604" lon="2.316439">
        <ele>1015.763</ele>
        <time>2021-06-12T18:54:26Z</time>
      </trkpt>
      <trkpt lat="41.787643" lon="2.316405">
        <ele>1015.249</ele>
        <time>2021-06-12T18:54:30Z</time>
      </trkpt>
      <trkpt lat="41.787688" lon="2.316386">
        <ele>1014.636</ele>
        <time>2021-06-12T18:54:35Z</time>
      </trkpt>
      <trkpt lat="41.787734" lon="2.316370">
        <ele>1014.117</ele>
        <time>2021-06-12T18:54:39Z</time>
      </trkpt>
      <trkpt lat="41.787782" lon="2.316364">
        <ele>1013.418</ele>
        <time>2021-06-12T18:54:44Z</time>
      </trkpt>
      <trkpt lat="41.787826" lon="2.316350">
        <ele>1012.608</ele>
        <time>2021-06-12T18:54:48Z</time>
      </trkpt>
      <trkpt lat="41.787871" lon="2.316356">
        <ele>1012.540</ele>
        <time>2021-06-12T18:54:52Z</time>
      </trkpt>
      <trkpt lat="41.787917" lon="2.316363">
        <ele>1012.348</ele>
        <time>2021-06-12T18:54:55Z</time>
      </trkpt>
      <trkpt lat="41.787966" lon="2.316353">
        <ele>1012.281</ele>
        <time>2021-06-12T18:54:58Z</time>
      </trkpt>
      <trkpt lat="41.788013" lon="2.316336">
        <ele>1011.836</ele>
        <time>2021-06-12T18:55:01Z</time>
      </trkpt>
      <trkpt lat="41.788051" lon="2.316301">
        <ele>1011.041</ele>
        <time>2021-06-12T18:55:05Z</time>
      </trkpt>
      <trkpt lat="41.788073" lon="2.316244">
        <ele>1010.358</ele>
        <time>2021-06-12T18:55:09Z</time>
      </trkpt>
      <trkpt lat="41.788106" lon="2.316196">
        <ele>1010.147</ele>
        <time>2021-06-12T18:55:13Z</time>
      </trkpt>
      <trkpt lat="41.788126" lon="2.316134">
        <ele>1009.323</ele>
        <time>2021-06-12T18:55:16Z</time>
      </trkpt>
      <trkpt lat="41.788139" lon="2.316071">
        <ele>1008.878</ele>
        <time>2021-06-12T18:55:20Z</time>
      </trkpt>
      <trkpt lat="41.788159" lon="2.316012">
        <ele>1008.733</ele>
        <time>2021-06-12T18:55:23Z</time>
      </trkpt>
      <trkpt lat="41.788172" lon="2.315948">
        <ele>1008.326</ele>
        <time>2021-06-12T18:55:26Z</time>
      </trkpt>
      <trkpt lat="41.788178" lon="2.315884">
        <ele>1008.108</ele>
        <time>2021-06-12T18:55:30Z</time>
      </trkpt>
      <trkpt lat="41.788168" lon="2.315814">
        <ele>1008.014</ele>
        <time>2021-06-12T18:55:34Z</time>
      </trkpt>
      <trkpt lat="41.788163" lon="2.315753">
        <ele>1007.842</ele>
        <time>2021-06-12T18:55:37Z</time>
      </trkpt>
      <trkpt lat="41.788151" lon="2.315692">
        <ele>1007.355</ele>
        <time>2021-06-12T18:55:40Z</time>
      </trkpt>
      <trkpt lat="41.788134" lon="2.315630">
        <ele>1006.910</ele>
        <time>2021-06-12T18:55:44Z</time>
      </trkpt>
      <trkpt lat="41.788113" lon="2.315572">
        <ele>1007.085</ele>
        <time>2021-06-12T18:55:47Z</time>
      </trkpt>
      <trkpt lat="41.788089" lon="2.315518">
        <ele>1006.512</ele>
        <time>2021-06-12T18:55:51Z</time>
      </trkpt>
      <trkpt lat="41.788055" lon="2.315476">
        <ele>1006.431</ele>
        <time>2021-06-12T18:55:55Z</time>
      </trkpt>
      <trkpt lat="41.788006" lon="2.315459">
        <ele>1005.637</ele>
        <time>2021-06-12T18:55:59Z</time>
      </trkpt>
      <trkpt lat="41.787962" lon="2.315479">
        <ele>1005.876</ele>
        <time>2021-06-12T18:56:02Z</time>
      </trkpt>
      <trkpt lat="41.787916" lon="2.315506">
        <ele>1005.690</ele>
        <time>2021-06-12T18:56:05Z</time>
      </trkpt>
      <trkpt lat="41.787871" lon="2.315528">
        <ele>1005.519</ele>
        <time>2021-06-12T18:56:08Z</time>
      </trkpt>
      <trkpt lat="41.787821" lon="2.315550">
        <ele>1005.408</ele>
        <time>2021-06-12T18:56:11Z</time>
      </trkpt>
      <trkpt lat="41.787788" lon="2.315591">
        <ele>1004.974</ele>
        <time>2021-06-12T18:56:14Z</time>
      </trkpt>
      <trkpt lat="41.787746" lon="2.315631">
        <ele>1004.462</ele>
        <time>2021-06-12T18:56:17Z</time>
      </trkpt>
      <trkpt lat="41.787712" lon="2.315670">
        <ele>1004.135</ele>
        <time>2021-06-12T18:56:20Z</time>
      </trkpt>
      <trkpt lat="41.787674" lon="2.315706">
        <ele>1004.190</ele>
        <time>2021-06-12T18:56:24Z</time>
      </trkpt>
      <trkpt lat="41.787716" lon="2.315676">
        <ele>1001.495</ele>
        <time>2021-06-12T18:56:30Z</time>
      </trkpt>
      <trkpt lat="41.787770" lon="2.315674">
        <ele>1004.192</ele>
        <time>2021-06-12T18:56:35Z</time>
      </trkpt>
      <trkpt lat="41.787817" lon="2.315634">
        <ele>1005.291</ele>
        <time>2021-06-12T18:56:38Z</time>
      </trkpt>
      <trkpt lat="41.787861" lon="2.315594">
        <ele>1005.017</ele>
        <time>2021-06-12T18:56:41Z</time>
      </trkpt>
      <trkpt lat="41.787894" lon="2.315551">
        <ele>1005.316</ele>
        <time>2021-06-12T18:56:44Z</time>
      </trkpt>
      <trkpt lat="41.787899" lon="2.315491">
        <ele>1004.376</ele>
        <time>2021-06-12T18:56:51Z</time>
      </trkpt>
      <trkpt lat="41.787917" lon="2.315430">
        <ele>1004.313</ele>
        <time>2021-06-12T18:56:55Z</time>
      </trkpt>
      <trkpt lat="41.787899" lon="2.315375">
        <ele>1003.408</ele>
        <time>2021-06-12T18:56:59Z</time>
      </trkpt>
      <trkpt lat="41.787886" lon="2.315314">
        <ele>1003.378</ele>
        <time>2021-06-12T18:57:04Z</time>
      </trkpt>
      <trkpt lat="41.787859" lon="2.315264">
        <ele>1003.086</ele>
        <time>2021-06-12T18:57:08Z</time>
      </trkpt>
      <trkpt lat="41.787832" lon="2.315206">
        <ele>1002.129</ele>
        <time>2021-06-12T18:57:12Z</time>
      </trkpt>
      <trkpt lat="41.787805" lon="2.315150">
        <ele>1002.034</ele>
        <time>2021-06-12T18:57:17Z</time>
      </trkpt>
      <trkpt lat="41.787789" lon="2.315089">
        <ele>1001.289</ele>
        <time>2021-06-12T18:57:23Z</time>
      </trkpt>
      <trkpt lat="41.787807" lon="2.315031">
        <ele>1001.756</ele>
        <time>2021-06-12T18:57:28Z</time>
      </trkpt>
      <trkpt lat="41.787818" lon="2.314968">
        <ele>999.525</ele>
        <time>2021-06-12T18:57:37Z</time>
      </trkpt>
      <trkpt lat="41.787845" lon="2.314915">
        <ele>998.351</ele>
        <time>2021-06-12T18:57:43Z</time>
      </trkpt>
      <trkpt lat="41.787864" lon="2.314857">
        <ele>996.974</ele>
        <time>2021-06-12T18:57:49Z</time>
      </trkpt>
      <trkpt lat="41.787903" lon="2.314823">
        <ele>995.956</ele>
        <time>2021-06-12T18:57:54Z</time>
      </trkpt>
      <trkpt lat="41.787934" lon="2.314779">
        <ele>994.421</ele>
        <time>2021-06-12T18:58:02Z</time>
      </trkpt>
      <trkpt lat="41.787934" lon="2.314713">
        <ele>992.708</ele>
        <time>2021-06-12T18:58:11Z</time>
      </trkpt>
      <trkpt lat="41.787947" lon="2.314646">
        <ele>992.054</ele>
        <time>2021-06-12T18:58:16Z</time>
      </trkpt>
      <trkpt lat="41.787944" lon="2.314584">
        <ele>991.472</ele>
        <time>2021-06-12T18:58:18Z</time>
      </trkpt>
      <trkpt lat="41.787932" lon="2.314519">
        <ele>990.855</ele>
        <time>2021-06-12T18:58:22Z</time>
      </trkpt>
      <trkpt lat="41.787935" lon="2.314457">
        <ele>989.670</ele>
        <time>2021-06-12T18:58:26Z</time>
      </trkpt>
      <trkpt lat="41.787936" lon="2.314386">
        <ele>989.415</ele>
        <time>2021-06-12T18:58:31Z</time>
      </trkpt>
      <trkpt lat="41.787890" lon="2.314376">
        <ele>992.612</ele>
        <time>2021-06-12T18:58:56Z</time>
      </trkpt>
      <trkpt lat="41.787899" lon="2.314315">
        <ele>988.811</ele>
        <time>2021-06-12T18:59:06Z</time>
      </trkpt>
      <trkpt lat="41.787896" lon="2.314254">
        <ele>988.017</ele>
        <time>2021-06-12T18:59:19Z</time>
      </trkpt>
      <trkpt lat="41.787892" lon="2.314194">
        <ele>987.768</ele>
        <time>2021-06-12T18:59:33Z</time>
      </trkpt>
      <trkpt lat="41.787881" lon="2.314135">
        <ele>986.642</ele>
        <time>2021-06-12T18:59:50Z</time>
      </trkpt>
      <trkpt lat="41.787883" lon="2.314067">
        <ele>985.226</ele>
        <time>2021-06-12T18:59:56Z</time>
      </trkpt>
      <trkpt lat="41.787887" lon="2.314003">
        <ele>984.708</ele>
        <time>2021-06-12T19:00:00Z</time>
      </trkpt>
      <trkpt lat="41.787890" lon="2.313941">
        <ele>984.013</ele>
        <time>2021-06-12T19:00:04Z</time>
      </trkpt>
      <trkpt lat="41.787900" lon="2.313875">
        <ele>983.421</ele>
        <time>2021-06-12T19:00:09Z</time>
      </trkpt>
      <trkpt lat="41.787902" lon="2.313814">
        <ele>983.074</ele>
        <time>2021-06-12T19:00:13Z</time>
      </trkpt>
      <trkpt lat="41.787912" lon="2.313745">
        <ele>982.919</ele>
        <time>2021-06-12T19:00:17Z</time>
      </trkpt>
      <trkpt lat="41.787916" lon="2.313680">
        <ele>982.884</ele>
        <time>2021-06-12T19:00:21Z</time>
      </trkpt>
      <trkpt lat="41.787919" lon="2.313614">
        <ele>983.081</ele>
        <time>2021-06-12T19:00:26Z</time>
      </trkpt>
      <trkpt lat="41.787918" lon="2.313551">
        <ele>982.980</ele>
        <time>2021-06-12T19:00:30Z</time>
      </trkpt>
      <trkpt lat="41.787896" lon="2.313490">
        <ele>982.516</ele>
        <time>2021-06-12T19:00:35Z</time>
      </trkpt>
      <trkpt lat="41.787875" lon="2.313429">
        <ele>982.263</ele>
        <time>2021-06-12T19:00:41Z</time>
      </trkpt>
      <trkpt lat="41.787847" lon="2.313378">
        <ele>981.544</ele>
        <time>2021-06-12T19:00:46Z</time>
      </trkpt>
      <trkpt lat="41.787815" lon="2.313331">
        <ele>980.818</ele>
        <time>2021-06-12T19:00:51Z</time>
      </trkpt>
      <trkpt lat="41.787788" lon="2.313273">
        <ele>980.608</ele>
        <time>2021-06-12T19:00:56Z</time>
      </trkpt>
      <trkpt lat="41.787758" lon="2.313217">
        <ele>979.973</ele>
        <time>2021-06-12T19:00:59Z</time>
      </trkpt>
      <trkpt lat="41.787742" lon="2.313159">
        <ele>979.711</ele>
        <time>2021-06-12T19:01:03Z</time>
      </trkpt>
      <trkpt lat="41.787722" lon="2.313097">
        <ele>979.294</ele>
        <time>2021-06-12T19:01:07Z</time>
      </trkpt>
      <trkpt lat="41.787701" lon="2.313034">
        <ele>978.999</ele>
        <time>2021-06-12T19:01:11Z</time>
      </trkpt>
      <trkpt lat="41.787680" lon="2.312969">
        <ele>978.954</ele>
        <time>2021-06-12T19:01:15Z</time>
      </trkpt>
      <trkpt lat="41.787651" lon="2.312923">
        <ele>978.871</ele>
        <time>2021-06-12T19:01:17Z</time>
      </trkpt>
      <trkpt lat="41.787620" lon="2.312872">
        <ele>978.620</ele>
        <time>2021-06-12T19:01:21Z</time>
      </trkpt>
      <trkpt lat="41.787590" lon="2.312824">
        <ele>978.356</ele>
        <time>2021-06-12T19:01:25Z</time>
      </trkpt>
      <trkpt lat="41.787543" lon="2.312842">
        <ele>978.464</ele>
        <time>2021-06-12T19:01:30Z</time>
      </trkpt>
      <trkpt lat="41.787503" lon="2.312804">
        <ele>977.606</ele>
        <time>2021-06-12T19:01:37Z</time>
      </trkpt>
      <trkpt lat="41.787468" lon="2.312767">
        <ele>976.616</ele>
        <time>2021-06-12T19:01:41Z</time>
      </trkpt>
      <trkpt lat="41.787437" lon="2.312720">
        <ele>976.108</ele>
        <time>2021-06-12T19:01:46Z</time>
      </trkpt>
      <trkpt lat="41.787414" lon="2.312662">
        <ele>974.913</ele>
        <time>2021-06-12T19:01:51Z</time>
      </trkpt>
      <trkpt lat="41.787411" lon="2.312595">
        <ele>974.751</ele>
        <time>2021-06-12T19:01:54Z</time>
      </trkpt>
      <trkpt lat="41.787408" lon="2.312530">
        <ele>974.634</ele>
        <time>2021-06-12T19:01:58Z</time>
      </trkpt>
      <trkpt lat="41.787404" lon="2.312468">
        <ele>974.179</ele>
        <time>2021-06-12T19:02:03Z</time>
      </trkpt>
      <trkpt lat="41.787398" lon="2.312407">
        <ele>973.394</ele>
        <time>2021-06-12T19:02:07Z</time>
      </trkpt>
      <trkpt lat="41.787382" lon="2.312349">
        <ele>972.611</ele>
        <time>2021-06-12T19:02:13Z</time>
      </trkpt>
      <trkpt lat="41.787357" lon="2.312290">
        <ele>971.710</ele>
        <time>2021-06-12T19:02:20Z</time>
      </trkpt>
      <trkpt lat="41.787365" lon="2.312226">
        <ele>971.216</ele>
        <time>2021-06-12T19:02:24Z</time>
      </trkpt>
      <trkpt lat="41.787367" lon="2.312166">
        <ele>971.483</ele>
        <time>2021-06-12T19:02:28Z</time>
      </trkpt>
      <trkpt lat="41.787340" lon="2.312117">
        <ele>971.025</ele>
        <time>2021-06-12T19:02:31Z</time>
      </trkpt>
      <trkpt lat="41.787314" lon="2.312065">
        <ele>970.117</ele>
        <time>2021-06-12T19:02:34Z</time>
      </trkpt>
      <trkpt lat="41.787300" lon="2.312006">
        <ele>970.208</ele>
        <time>2021-06-12T19:02:38Z</time>
      </trkpt>
      <trkpt lat="41.787286" lon="2.311948">
        <ele>970.035</ele>
        <time>2021-06-12T19:02:42Z</time>
      </trkpt>
      <trkpt lat="41.787270" lon="2.311888">
        <ele>969.393</ele>
        <time>2021-06-12T19:02:45Z</time>
      </trkpt>
      <trkpt lat="41.787257" lon="2.311821">
        <ele>969.236</ele>
        <time>2021-06-12T19:02:49Z</time>
      </trkpt>
      <trkpt lat="41.787253" lon="2.311758">
        <ele>968.861</ele>
        <time>2021-06-12T19:02:53Z</time>
      </trkpt>
      <trkpt lat="41.787260" lon="2.311693">
        <ele>967.586</ele>
        <time>2021-06-12T19:02:58Z</time>
      </trkpt>
      <trkpt lat="41.787239" lon="2.311638">
        <ele>966.343</ele>
        <time>2021-06-12T19:03:05Z</time>
      </trkpt>
      <trkpt lat="41.787229" lon="2.311574">
        <ele>966.412</ele>
        <time>2021-06-12T19:03:10Z</time>
      </trkpt>
      <trkpt lat="41.787206" lon="2.311514">
        <ele>965.528</ele>
        <time>2021-06-12T19:03:16Z</time>
      </trkpt>
      <trkpt lat="41.787172" lon="2.311470">
        <ele>964.795</ele>
        <time>2021-06-12T19:03:52Z</time>
      </trkpt>
      <trkpt lat="41.787145" lon="2.311417">
        <ele>964.949</ele>
        <time>2021-06-12T19:03:59Z</time>
      </trkpt>
      <trkpt lat="41.787100" lon="2.311430">
        <ele>963.523</ele>
        <time>2021-06-12T19:04:16Z</time>
      </trkpt>
      <trkpt lat="41.787067" lon="2.311386">
        <ele>963.208</ele>
        <time>2021-06-12T19:04:22Z</time>
      </trkpt>
      <trkpt lat="41.787043" lon="2.311333">
        <ele>962.756</ele>
        <time>2021-06-12T19:04:37Z</time>
      </trkpt>
      <trkpt lat="41.786999" lon="2.311307">
        <ele>961.244</ele>
        <time>2021-06-12T19:04:45Z</time>
      </trkpt>
      <trkpt lat="41.786983" lon="2.311243">
        <ele>962.027</ele>
        <time>2021-06-12T19:04:51Z</time>
      </trkpt>
      <trkpt lat="41.786995" lon="2.311184">
        <ele>961.272</ele>
        <time>2021-06-12T19:05:03Z</time>
      </trkpt>
      <trkpt lat="41.786944" lon="2.311184">
        <ele>959.287</ele>
        <time>2021-06-12T19:05:16Z</time>
      </trkpt>
      <trkpt lat="41.786899" lon="2.311168">
        <ele>958.334</ele>
        <time>2021-06-12T19:05:19Z</time>
      </trkpt>
      <trkpt lat="41.786851" lon="2.311153">
        <ele>958.223</ele>
        <time>2021-06-12T19:05:22Z</time>
      </trkpt>
      <trkpt lat="41.786816" lon="2.311114">
        <ele>957.919</ele>
        <time>2021-06-12T19:05:26Z</time>
      </trkpt>
      <trkpt lat="41.786712" lon="2.311068">
        <ele>956.844</ele>
        <time>2021-06-12T19:05:32Z</time>
      </trkpt>
      <trkpt lat="41.786682" lon="2.311029">
        <ele>956.305</ele>
        <time>2021-06-12T19:05:40Z</time>
      </trkpt>
      <trkpt lat="41.786628" lon="2.311008">
        <ele>955.215</ele>
        <time>2021-06-12T19:05:45Z</time>
      </trkpt>
      <trkpt lat="41.786302" lon="2.310564">
        <ele>940.908</ele>
        <time>2021-06-12T19:09:55Z</time>
      </trkpt>
      <trkpt lat="41.786256" lon="2.310543">
        <ele>941.431</ele>
        <time>2021-06-12T19:10:00Z</time>
      </trkpt>
      <trkpt lat="41.786150" lon="2.310485">
        <ele>941.329</ele>
        <time>2021-06-12T19:10:06Z</time>
      </trkpt>
      <trkpt lat="41.786107" lon="2.310465">
        <ele>940.572</ele>
        <time>2021-06-12T19:10:12Z</time>
      </trkpt>
      <trkpt lat="41.786087" lon="2.310407">
        <ele>937.587</ele>
        <time>2021-06-12T19:10:30Z</time>
      </trkpt>
      <trkpt lat="41.786067" lon="2.310352">
        <ele>934.412</ele>
        <time>2021-06-12T19:10:46Z</time>
      </trkpt>
      <trkpt lat="41.786073" lon="2.310284">
        <ele>932.729</ele>
        <time>2021-06-12T19:10:54Z</time>
      </trkpt>
      <trkpt lat="41.786068" lon="2.310222">
        <ele>932.078</ele>
        <time>2021-06-12T19:10:59Z</time>
      </trkpt>
      <trkpt lat="41.786071" lon="2.310157">
        <ele>931.254</ele>
        <time>2021-06-12T19:11:03Z</time>
      </trkpt>
      <trkpt lat="41.786072" lon="2.310089">
        <ele>930.246</ele>
        <time>2021-06-12T19:11:08Z</time>
      </trkpt>
      <trkpt lat="41.786086" lon="2.310026">
        <ele>929.788</ele>
        <time>2021-06-12T19:11:11Z</time>
      </trkpt>
      <trkpt lat="41.786087" lon="2.309965">
        <ele>929.016</ele>
        <time>2021-06-12T19:11:15Z</time>
      </trkpt>
      <trkpt lat="41.786058" lon="2.309914">
        <ele>928.108</ele>
        <time>2021-06-12T19:11:20Z</time>
      </trkpt>
      <trkpt lat="41.786038" lon="2.309855">
        <ele>926.961</ele>
        <time>2021-06-12T19:11:27Z</time>
      </trkpt>
      <trkpt lat="41.786052" lon="2.309793">
        <ele>925.879</ele>
        <time>2021-06-12T19:11:33Z</time>
      </trkpt>
      <trkpt lat="41.786077" lon="2.309734">
        <ele>923.792</ele>
        <time>2021-06-12T19:11:44Z</time>
      </trkpt>
      <trkpt lat="41.786082" lon="2.309674">
        <ele>921.727</ele>
        <time>2021-06-12T19:11:55Z</time>
      </trkpt>
      <trkpt lat="41.786057" lon="2.309621">
        <ele>919.862</ele>
        <time>2021-06-12T19:12:12Z</time>
      </trkpt>
      <trkpt lat="41.786046" lon="2.309560">
        <ele>917.619</ele>
        <time>2021-06-12T19:12:28Z</time>
      </trkpt>
      <trkpt lat="41.786074" lon="2.309507">
        <ele>915.888</ele>
        <time>2021-06-12T19:12:38Z</time>
      </trkpt>
      <trkpt lat="41.786116" lon="2.309476">
        <ele>914.214</ele>
        <time>2021-06-12T19:12:46Z</time>
      </trkpt>
      <trkpt lat="41.786154" lon="2.309437">
        <ele>912.645</ele>
        <time>2021-06-12T19:12:55Z</time>
      </trkpt>
      <trkpt lat="41.786147" lon="2.309375">
        <ele>911.347</ele>
        <time>2021-06-12T19:13:06Z</time>
      </trkpt>
      <trkpt lat="41.786107" lon="2.309346">
        <ele>909.611</ele>
        <time>2021-06-12T19:13:12Z</time>
      </trkpt>
      <trkpt lat="41.786107" lon="2.309285">
        <ele>907.908</ele>
        <time>2021-06-12T19:13:26Z</time>
      </trkpt>
      <trkpt lat="41.786069" lon="2.309244">
        <ele>906.751</ele>
        <time>2021-06-12T19:13:32Z</time>
      </trkpt>
      <trkpt lat="41.786074" lon="2.309182">
        <ele>905.629</ele>
        <time>2021-06-12T19:13:40Z</time>
      </trkpt>
      <trkpt lat="41.785965" lon="2.309181">
        <ele>903.782</ele>
        <time>2021-06-12T19:13:51Z</time>
      </trkpt>
      <trkpt lat="41.785860" lon="2.309185">
        <ele>902.087</ele>
        <time>2021-06-12T19:14:08Z</time>
      </trkpt>
      <trkpt lat="41.785704" lon="2.309258">
        <ele>902.182</ele>
        <time>2021-06-12T19:14:16Z</time>
      </trkpt>
      <trkpt lat="41.785539" lon="2.309346">
        <ele>901.839</ele>
        <time>2021-06-12T19:14:19Z</time>
      </trkpt>
      <trkpt lat="41.785415" lon="2.309489">
        <ele>901.198</ele>
        <time>2021-06-12T19:14:22Z</time>
      </trkpt>
      <trkpt lat="41.785343" lon="2.309643">
        <ele>900.844</ele>
        <time>2021-06-12T19:14:24Z</time>
      </trkpt>
      <trkpt lat="41.785256" lon="2.309836">
        <ele>900.294</ele>
        <time>2021-06-12T19:14:27Z</time>
      </trkpt>
      <trkpt lat="41.785159" lon="2.310067">
        <ele>900.257</ele>
        <time>2021-06-12T19:14:30Z</time>
      </trkpt>
      <trkpt lat="41.785070" lon="2.310504">
        <ele>899.722</ele>
        <time>2021-06-12T19:14:32Z</time>
      </trkpt>
      <trkpt lat="41.785068" lon="2.310581">
        <ele>888.508</ele>
        <time>2021-06-12T19:16:19Z</time>
      </trkpt>
      <trkpt lat="41.785080" lon="2.310646">
        <ele>888.066</ele>
        <time>2021-06-12T19:16:22Z</time>
      </trkpt>
      <trkpt lat="41.785090" lon="2.310706">
        <ele>887.774</ele>
        <time>2021-06-12T19:16:25Z</time>
      </trkpt>
      <trkpt lat="41.785110" lon="2.310767">
        <ele>886.927</ele>
        <time>2021-06-12T19:16:29Z</time>
      </trkpt>
      <trkpt lat="41.785121" lon="2.310831">
        <ele>886.312</ele>
        <time>2021-06-12T19:16:33Z</time>
      </trkpt>
      <trkpt lat="41.785137" lon="2.310892">
        <ele>885.427</ele>
        <time>2021-06-12T19:16:36Z</time>
      </trkpt>
      <trkpt lat="41.785175" lon="2.310939">
        <ele>884.834</ele>
        <time>2021-06-12T19:16:40Z</time>
      </trkpt>
      <trkpt lat="41.785162" lon="2.311054">
        <ele>883.943</ele>
        <time>2021-06-12T19:16:43Z</time>
      </trkpt>
      <trkpt lat="41.785192" lon="2.311148">
        <ele>883.119</ele>
        <time>2021-06-12T19:16:46Z</time>
      </trkpt>
      <trkpt lat="41.785197" lon="2.311229">
        <ele>882.512</ele>
        <time>2021-06-12T19:16:49Z</time>
      </trkpt>
      <trkpt lat="41.785192" lon="2.311271">
        <ele>881.232</ele>
        <time>2021-06-12T19:16:54Z</time>
      </trkpt>
      <trkpt lat="41.785189" lon="2.311372">
        <ele>880.805</ele>
        <time>2021-06-12T19:16:59Z</time>
      </trkpt>
      <trkpt lat="41.785186" lon="2.311477">
        <ele>878.608</ele>
        <time>2021-06-12T19:17:05Z</time>
      </trkpt>
      <trkpt lat="41.785154" lon="2.311589">
        <ele>878.328</ele>
        <time>2021-06-12T19:17:10Z</time>
      </trkpt>
      <trkpt lat="41.785141" lon="2.311677">
        <ele>877.936</ele>
        <time>2021-06-12T19:17:14Z</time>
      </trkpt>
      <trkpt lat="41.785084" lon="2.311736">
        <ele>874.249</ele>
        <time>2021-06-12T19:17:39Z</time>
      </trkpt>
      <trkpt lat="41.785182" lon="2.311617">
        <ele>872.014</ele>
        <time>2021-06-12T19:17:46Z</time>
      </trkpt>
      <trkpt lat="41.785070" lon="2.311701">
        <ele>870.789</ele>
        <time>2021-06-12T19:18:15Z</time>
      </trkpt>
      <trkpt lat="41.784717" lon="2.311299">
        <ele>875.816</ele>
        <time>2021-06-12T19:19:40Z</time>
      </trkpt>
      <trkpt lat="41.784668" lon="2.311286">
        <ele>876.075</ele>
        <time>2021-06-12T19:19:44Z</time>
      </trkpt>
      <trkpt lat="41.784622" lon="2.311281">
        <ele>875.191</ele>
        <time>2021-06-12T19:19:50Z</time>
      </trkpt>
      <trkpt lat="41.784580" lon="2.311254">
        <ele>875.033</ele>
        <time>2021-06-12T19:19:55Z</time>
      </trkpt>
      <trkpt lat="41.784536" lon="2.311230">
        <ele>874.823</ele>
        <time>2021-06-12T19:20:01Z</time>
      </trkpt>
      <trkpt lat="41.784509" lon="2.311180">
        <ele>874.215</ele>
        <time>2021-06-12T19:20:06Z</time>
      </trkpt>
      <trkpt lat="41.784483" lon="2.311121">
        <ele>873.708</ele>
        <time>2021-06-12T19:20:10Z</time>
      </trkpt>
      <trkpt lat="41.784454" lon="2.311067">
        <ele>873.580</ele>
        <time>2021-06-12T19:20:14Z</time>
      </trkpt>
      <trkpt lat="41.784427" lon="2.311018">
        <ele>873.348</ele>
        <time>2021-06-12T19:20:18Z</time>
      </trkpt>
      <trkpt lat="41.784405" lon="2.310959">
        <ele>873.321</ele>
        <time>2021-06-12T19:20:22Z</time>
      </trkpt>
      <trkpt lat="41.784413" lon="2.310895">
        <ele>873.646</ele>
        <time>2021-06-12T19:20:27Z</time>
      </trkpt>
      <trkpt lat="41.784421" lon="2.310829">
        <ele>873.371</ele>
        <time>2021-06-12T19:20:32Z</time>
      </trkpt>
      <trkpt lat="41.784417" lon="2.310764">
        <ele>872.488</ele>
        <time>2021-06-12T19:20:36Z</time>
      </trkpt>
      <trkpt lat="41.784428" lon="2.310699">
        <ele>871.517</ele>
        <time>2021-06-12T19:20:41Z</time>
      </trkpt>
      <trkpt lat="41.784394" lon="2.310656">
        <ele>871.163</ele>
        <time>2021-06-12T19:20:47Z</time>
      </trkpt>
      <trkpt lat="41.784363" lon="2.310610">
        <ele>869.988</ele>
        <time>2021-06-12T19:20:55Z</time>
      </trkpt>
      <trkpt lat="41.784324" lon="2.310571">
        <ele>868.924</ele>
        <time>2021-06-12T19:21:02Z</time>
      </trkpt>
      <trkpt lat="41.784294" lon="2.310524">
        <ele>868.626</ele>
        <time>2021-06-12T19:21:06Z</time>
      </trkpt>
      <trkpt lat="41.784278" lon="2.310457">
        <ele>868.408</ele>
        <time>2021-06-12T19:21:10Z</time>
      </trkpt>
      <trkpt lat="41.784259" lon="2.310398">
        <ele>867.395</ele>
        <time>2021-06-12T19:21:14Z</time>
      </trkpt>
      <trkpt lat="41.784256" lon="2.310337">
        <ele>866.863</ele>
        <time>2021-06-12T19:21:19Z</time>
      </trkpt>
      <trkpt lat="41.784250" lon="2.310268">
        <ele>865.736</ele>
        <time>2021-06-12T19:21:24Z</time>
      </trkpt>
      <trkpt lat="41.784243" lon="2.310200">
        <ele>865.161</ele>
        <time>2021-06-12T19:21:29Z</time>
      </trkpt>
      <trkpt lat="41.784218" lon="2.310147">
        <ele>864.536</ele>
        <time>2021-06-12T19:21:33Z</time>
      </trkpt>
      <trkpt lat="41.784198" lon="2.310089">
        <ele>863.663</ele>
        <time>2021-06-12T19:21:38Z</time>
      </trkpt>
      <trkpt lat="41.784171" lon="2.310030">
        <ele>864.082</ele>
        <time>2021-06-12T19:21:43Z</time>
      </trkpt>
      <trkpt lat="41.784139" lon="2.309981">
        <ele>863.378</ele>
        <time>2021-06-12T19:21:47Z</time>
      </trkpt>
      <trkpt lat="41.784111" lon="2.309923">
        <ele>863.013</ele>
        <time>2021-06-12T19:21:50Z</time>
      </trkpt>
      <trkpt lat="41.784091" lon="2.309864">
        <ele>863.243</ele>
        <time>2021-06-12T19:21:53Z</time>
      </trkpt>
      <trkpt lat="41.784089" lon="2.309803">
        <ele>863.807</ele>
        <time>2021-06-12T19:21:57Z</time>
      </trkpt>
      <trkpt lat="41.784053" lon="2.309754">
        <ele>863.708</ele>
        <time>2021-06-12T19:22:03Z</time>
      </trkpt>
      <trkpt lat="41.784006" lon="2.309734">
        <ele>863.338</ele>
        <time>2021-06-12T19:22:05Z</time>
      </trkpt>
      <trkpt lat="41.783955" lon="2.309735">
        <ele>862.716</ele>
        <time>2021-06-12T19:22:09Z</time>
      </trkpt>
      <trkpt lat="41.783908" lon="2.309751">
        <ele>862.569</ele>
        <time>2021-06-12T19:22:11Z</time>
      </trkpt>
      <trkpt lat="41.783863" lon="2.309755">
        <ele>861.514</ele>
        <time>2021-06-12T19:22:14Z</time>
      </trkpt>
      <trkpt lat="41.783818" lon="2.309744">
        <ele>862.039</ele>
        <time>2021-06-12T19:22:17Z</time>
      </trkpt>
      <trkpt lat="41.783768" lon="2.309727">
        <ele>861.566</ele>
        <time>2021-06-12T19:22:21Z</time>
      </trkpt>
      <trkpt lat="41.783719" lon="2.309716">
        <ele>861.395</ele>
        <time>2021-06-12T19:22:24Z</time>
      </trkpt>
      <trkpt lat="41.783672" lon="2.309725">
        <ele>860.691</ele>
        <time>2021-06-12T19:22:28Z</time>
      </trkpt>
      <trkpt lat="41.783625" lon="2.309705">
        <ele>860.134</ele>
        <time>2021-06-12T19:22:31Z</time>
      </trkpt>
      <trkpt lat="41.783575" lon="2.309714">
        <ele>859.355</ele>
        <time>2021-06-12T19:22:36Z</time>
      </trkpt>
      <trkpt lat="41.783530" lon="2.309727">
        <ele>858.810</ele>
        <time>2021-06-12T19:22:42Z</time>
      </trkpt>
      <trkpt lat="41.783486" lon="2.309759">
        <ele>858.408</ele>
        <time>2021-06-12T19:22:46Z</time>
      </trkpt>
      <trkpt lat="41.783446" lon="2.309804">
        <ele>857.980</ele>
        <time>2021-06-12T19:22:49Z</time>
      </trkpt>
      <trkpt lat="41.783418" lon="2.309852">
        <ele>857.628</ele>
        <time>2021-06-12T19:22:53Z</time>
      </trkpt>
      <trkpt lat="41.783387" lon="2.309902">
        <ele>856.851</ele>
        <time>2021-06-12T19:22:58Z</time>
      </trkpt>
      <trkpt lat="41.783351" lon="2.309954">
        <ele>856.226</ele>
        <time>2021-06-12T19:23:03Z</time>
      </trkpt>
      <trkpt lat="41.783323" lon="2.310001">
        <ele>856.721</ele>
        <time>2021-06-12T19:23:08Z</time>
      </trkpt>
      <trkpt lat="41.783293" lon="2.310054">
        <ele>856.228</ele>
        <time>2021-06-12T19:23:14Z</time>
      </trkpt>
      <trkpt lat="41.783253" lon="2.310090">
        <ele>856.717</ele>
        <time>2021-06-12T19:23:20Z</time>
      </trkpt>
      <trkpt lat="41.783208" lon="2.310115">
        <ele>857.143</ele>
        <time>2021-06-12T19:23:25Z</time>
      </trkpt>
      <trkpt lat="41.783172" lon="2.310153">
        <ele>856.988</ele>
        <time>2021-06-12T19:23:31Z</time>
      </trkpt>
      <trkpt lat="41.783128" lon="2.310171">
        <ele>855.424</ele>
        <time>2021-06-12T19:23:46Z</time>
      </trkpt>
      <trkpt lat="41.783124" lon="2.310109">
        <ele>855.326</ele>
        <time>2021-06-12T19:24:20Z</time>
      </trkpt>
      <trkpt lat="41.783110" lon="2.310046">
        <ele>854.608</ele>
        <time>2021-06-12T19:24:30Z</time>
      </trkpt>
      <trkpt lat="41.783144" lon="2.310006">
        <ele>855.675</ele>
        <time>2021-06-12T19:24:36Z</time>
      </trkpt>
      <trkpt lat="41.783155" lon="2.309935">
        <ele>855.883</ele>
        <time>2021-06-12T19:24:41Z</time>
      </trkpt>
      <trkpt lat="41.783148" lon="2.309873">
        <ele>856.276</ele>
        <time>2021-06-12T19:24:46Z</time>
      </trkpt>
      <trkpt lat="41.783136" lon="2.309808">
        <ele>856.371</ele>
        <time>2021-06-12T19:24:51Z</time>
      </trkpt>
      <trkpt lat="41.783132" lon="2.309746">
        <ele>857.136</ele>
        <time>2021-06-12T19:24:57Z</time>
      </trkpt>
      <trkpt lat="41.783137" lon="2.309678">
        <ele>857.313</ele>
        <time>2021-06-12T19:25:01Z</time>
      </trkpt>
      <trkpt lat="41.783140" lon="2.309618">
        <ele>857.772</ele>
        <time>2021-06-12T19:25:05Z</time>
      </trkpt>
      <trkpt lat="41.783128" lon="2.309558">
        <ele>858.838</ele>
        <time>2021-06-12T19:25:11Z</time>
      </trkpt>
      <trkpt lat="41.783135" lon="2.309498">
        <ele>859.526</ele>
        <time>2021-06-12T19:25:20Z</time>
      </trkpt>
      <trkpt lat="41.783152" lon="2.309438">
        <ele>860.247</ele>
        <time>2021-06-12T19:25:31Z</time>
      </trkpt>
      <trkpt lat="41.783162" lon="2.309375">
        <ele>860.211</ele>
        <time>2021-06-12T19:25:36Z</time>
      </trkpt>
      <trkpt lat="41.783168" lon="2.309312">
        <ele>860.608</ele>
        <time>2021-06-12T19:25:47Z</time>
      </trkpt>
      <trkpt lat="41.783169" lon="2.309251">
        <ele>861.399</ele>
        <time>2021-06-12T19:25:56Z</time>
      </trkpt>
      <trkpt lat="41.783134" lon="2.309202">
        <ele>861.437</ele>
        <time>2021-06-12T19:26:01Z</time>
      </trkpt>
      <trkpt lat="41.783100" lon="2.309157">
        <ele>861.980</ele>
        <time>2021-06-12T19:26:07Z</time>
      </trkpt>
      <trkpt lat="41.783095" lon="2.309094">
        <ele>862.615</ele>
        <time>2021-06-12T19:26:14Z</time>
      </trkpt>
      <trkpt lat="41.783108" lon="2.309033">
        <ele>862.520</ele>
        <time>2021-06-12T19:26:21Z</time>
      </trkpt>
      <trkpt lat="41.783105" lon="2.308969">
        <ele>863.537</ele>
        <time>2021-06-12T19:26:28Z</time>
      </trkpt>
      <trkpt lat="41.783094" lon="2.308906">
        <ele>864.166</ele>
        <time>2021-06-12T19:26:40Z</time>
      </trkpt>
      <trkpt lat="41.783119" lon="2.308854">
        <ele>864.242</ele>
        <time>2021-06-12T19:26:45Z</time>
      </trkpt>
      <trkpt lat="41.783146" lon="2.308802">
        <ele>864.492</ele>
        <time>2021-06-12T19:26:49Z</time>
      </trkpt>
      <trkpt lat="41.783171" lon="2.308739">
        <ele>864.673</ele>
        <time>2021-06-12T19:26:54Z</time>
      </trkpt>
      <trkpt lat="41.783184" lon="2.308675">
        <ele>865.120</ele>
        <time>2021-06-12T19:26:59Z</time>
      </trkpt>
      <trkpt lat="41.783184" lon="2.308609">
        <ele>865.408</ele>
        <time>2021-06-12T19:27:05Z</time>
      </trkpt>
      <trkpt lat="41.783154" lon="2.308560">
        <ele>865.846</ele>
        <time>2021-06-12T19:27:09Z</time>
      </trkpt>
      <trkpt lat="41.783137" lon="2.308504">
        <ele>866.474</ele>
        <time>2021-06-12T19:27:29Z</time>
      </trkpt>
      <trkpt lat="41.783148" lon="2.308441">
        <ele>866.667</ele>
        <time>2021-06-12T19:27:34Z</time>
      </trkpt>
      <trkpt lat="41.783168" lon="2.308386">
        <ele>867.392</ele>
        <time>2021-06-12T19:27:39Z</time>
      </trkpt>
      <trkpt lat="41.783157" lon="2.308323">
        <ele>868.047</ele>
        <time>2021-06-12T19:27:50Z</time>
      </trkpt>
      <trkpt lat="41.783164" lon="2.308261">
        <ele>868.524</ele>
        <time>2021-06-12T19:28:00Z</time>
      </trkpt>
      <trkpt lat="41.783178" lon="2.308200">
        <ele>869.663</ele>
        <time>2021-06-12T19:28:10Z</time>
      </trkpt>
      <trkpt lat="41.783219" lon="2.308166">
        <ele>870.279</ele>
        <time>2021-06-12T19:28:20Z</time>
      </trkpt>
      <trkpt lat="41.783255" lon="2.308130">
        <ele>870.687</ele>
        <time>2021-06-12T19:28:26Z</time>
      </trkpt>
      <trkpt lat="41.783278" lon="2.308071">
        <ele>870.942</ele>
        <time>2021-06-12T19:28:31Z</time>
      </trkpt>
      <trkpt lat="41.783300" lon="2.308016">
        <ele>871.226</ele>
        <time>2021-06-12T19:28:35Z</time>
      </trkpt>
      <trkpt lat="41.783287" lon="2.307958">
        <ele>871.808</ele>
        <time>2021-06-12T19:28:40Z</time>
      </trkpt>
      <trkpt lat="41.783272" lon="2.307897">
        <ele>872.485</ele>
        <time>2021-06-12T19:28:46Z</time>
      </trkpt>
      <trkpt lat="41.783269" lon="2.307828">
        <ele>873.333</ele>
        <time>2021-06-12T19:28:55Z</time>
      </trkpt>
      <trkpt lat="41.783268" lon="2.307766">
        <ele>873.716</ele>
        <time>2021-06-12T19:29:02Z</time>
      </trkpt>
      <trkpt lat="41.783297" lon="2.307717">
        <ele>874.661</ele>
        <time>2021-06-12T19:29:08Z</time>
      </trkpt>
      <trkpt lat="41.783308" lon="2.307654">
        <ele>875.676</ele>
        <time>2021-06-12T19:29:18Z</time>
      </trkpt>
      <trkpt lat="41.783345" lon="2.307701">
        <ele>875.843</ele>
        <time>2021-06-12T19:29:43Z</time>
      </trkpt>
      <trkpt lat="41.783392" lon="2.307732">
        <ele>875.872</ele>
        <time>2021-06-12T19:30:18Z</time>
      </trkpt>
      <trkpt lat="41.783433" lon="2.307706">
        <ele>875.978</ele>
        <time>2021-06-12T19:30:25Z</time>
      </trkpt>
      <trkpt lat="41.783449" lon="2.307648">
        <ele>876.613</ele>
        <time>2021-06-12T19:30:38Z</time>
      </trkpt>
      <trkpt lat="41.783439" lon="2.307589">
        <ele>877.243</ele>
        <time>2021-06-12T19:30:45Z</time>
      </trkpt>
      <trkpt lat="41.783413" lon="2.307529">
        <ele>877.607</ele>
        <time>2021-06-12T19:30:50Z</time>
      </trkpt>
      <trkpt lat="41.783374" lon="2.307499">
        <ele>877.608</ele>
        <time>2021-06-12T19:30:58Z</time>
      </trkpt>
      <trkpt lat="41.783335" lon="2.307468">
        <ele>878.598</ele>
        <time>2021-06-12T19:31:11Z</time>
      </trkpt>
      <trkpt lat="41.783354" lon="2.307411">
        <ele>880.146</ele>
        <time>2021-06-12T19:31:24Z</time>
      </trkpt>
      <trkpt lat="41.783379" lon="2.307359">
        <ele>880.959</ele>
        <time>2021-06-12T19:31:42Z</time>
      </trkpt>
      <trkpt lat="41.783382" lon="2.307421">
        <ele>881.184</ele>
        <time>2021-06-12T19:34:18Z</time>
      </trkpt>
      <trkpt lat="41.783406" lon="2.307367">
        <ele>881.639</ele>
        <time>2021-06-12T19:34:49Z</time>
      </trkpt>
      <trkpt lat="41.783409" lon="2.307306">
        <ele>877.486</ele>
        <time>2021-06-12T19:35:03Z</time>
      </trkpt>
      <trkpt lat="41.783442" lon="2.307257">
        <ele>882.565</ele>
        <time>2021-06-12T19:35:21Z</time>
      </trkpt>
      <trkpt lat="41.783436" lon="2.307196">
        <ele>883.441</ele>
        <time>2021-06-12T19:35:28Z</time>
      </trkpt>
      <trkpt lat="41.783477" lon="2.307160">
        <ele>884.836</ele>
        <time>2021-06-12T19:35:42Z</time>
      </trkpt>
      <trkpt lat="41.783499" lon="2.307106">
        <ele>884.917</ele>
        <time>2021-06-12T19:35:48Z</time>
      </trkpt>
      <trkpt lat="41.783496" lon="2.307045">
        <ele>884.818</ele>
        <time>2021-06-12T19:35:52Z</time>
      </trkpt>
      <trkpt lat="41.783528" lon="2.306999">
        <ele>884.908</ele>
        <time>2021-06-12T19:35:55Z</time>
      </trkpt>
      <trkpt lat="41.783548" lon="2.306945">
        <ele>885.030</ele>
        <time>2021-06-12T19:35:59Z</time>
      </trkpt>
      <trkpt lat="41.783545" lon="2.306877">
        <ele>885.258</ele>
        <time>2021-06-12T19:36:04Z</time>
      </trkpt>
      <trkpt lat="41.783524" lon="2.306822">
        <ele>885.531</ele>
        <time>2021-06-12T19:36:10Z</time>
      </trkpt>
      <trkpt lat="41.783497" lon="2.306774">
        <ele>886.286</ele>
        <time>2021-06-12T19:36:19Z</time>
      </trkpt>
      <trkpt lat="41.783506" lon="2.306704">
        <ele>887.581</ele>
        <time>2021-06-12T19:36:31Z</time>
      </trkpt>
      <trkpt lat="41.783531" lon="2.306652">
        <ele>887.998</ele>
        <time>2021-06-12T19:36:37Z</time>
      </trkpt>
      <trkpt lat="41.783523" lon="2.306592">
        <ele>888.157</ele>
        <time>2021-06-12T19:36:56Z</time>
      </trkpt>
      <trkpt lat="41.783486" lon="2.306545">
        <ele>888.113</ele>
        <time>2021-06-12T19:37:08Z</time>
      </trkpt>
      <trkpt lat="41.783471" lon="2.306484">
        <ele>888.065</ele>
        <time>2021-06-12T19:37:11Z</time>
      </trkpt>
      <trkpt lat="41.783468" lon="2.306423">
        <ele>888.068</ele>
        <time>2021-06-12T19:37:14Z</time>
      </trkpt>
      <trkpt lat="41.783468" lon="2.306357">
        <ele>888.114</ele>
        <time>2021-06-12T19:37:17Z</time>
      </trkpt>
      <trkpt lat="41.783469" lon="2.306290">
        <ele>888.308</ele>
        <time>2021-06-12T19:37:22Z</time>
      </trkpt>
      <trkpt lat="41.783476" lon="2.306229">
        <ele>889.063</ele>
        <time>2021-06-12T19:37:29Z</time>
      </trkpt>
      <trkpt lat="41.783489" lon="2.306166">
        <ele>888.451</ele>
        <time>2021-06-12T19:37:36Z</time>
      </trkpt>
      <trkpt lat="41.783469" lon="2.306112">
        <ele>889.594</ele>
        <time>2021-06-12T19:37:52Z</time>
      </trkpt>
      <trkpt lat="41.783449" lon="2.306057">
        <ele>889.419</ele>
        <time>2021-06-12T19:37:56Z</time>
      </trkpt>
      <trkpt lat="41.783438" lon="2.305998">
        <ele>886.674</ele>
        <time>2021-06-12T19:38:01Z</time>
      </trkpt>
      <trkpt lat="41.783413" lon="2.305941">
        <ele>889.131</ele>
        <time>2021-06-12T19:38:07Z</time>
      </trkpt>
      <trkpt lat="41.783371" lon="2.305917">
        <ele>888.420</ele>
        <time>2021-06-12T19:38:13Z</time>
      </trkpt>
      <trkpt lat="41.783328" lon="2.305885">
        <ele>887.856</ele>
        <time>2021-06-12T19:38:18Z</time>
      </trkpt>
      <trkpt lat="41.783286" lon="2.305862">
        <ele>887.199</ele>
        <time>2021-06-12T19:38:22Z</time>
      </trkpt>
      <trkpt lat="41.783240" lon="2.305845">
        <ele>886.307</ele>
        <time>2021-06-12T19:38:26Z</time>
      </trkpt>
      <trkpt lat="41.783197" lon="2.305817">
        <ele>885.727</ele>
        <time>2021-06-12T19:38:29Z</time>
      </trkpt>
      <trkpt lat="41.783144" lon="2.305808">
        <ele>885.308</ele>
        <time>2021-06-12T19:38:32Z</time>
      </trkpt>
      <trkpt lat="41.783095" lon="2.305811">
        <ele>885.466</ele>
        <time>2021-06-12T19:38:35Z</time>
      </trkpt>
      <trkpt lat="41.783044" lon="2.305813">
        <ele>885.294</ele>
        <time>2021-06-12T19:38:39Z</time>
      </trkpt>
      <trkpt lat="41.782994" lon="2.305825">
        <ele>885.077</ele>
        <time>2021-06-12T19:38:44Z</time>
      </trkpt>
      <trkpt lat="41.782951" lon="2.305842">
        <ele>884.642</ele>
        <time>2021-06-12T19:38:48Z</time>
      </trkpt>
      <trkpt lat="41.782913" lon="2.305877">
        <ele>884.067</ele>
        <time>2021-06-12T19:38:52Z</time>
      </trkpt>
      <trkpt lat="41.782885" lon="2.305926">
        <ele>883.584</ele>
        <time>2021-06-12T19:38:56Z</time>
      </trkpt>
      <trkpt lat="41.782853" lon="2.305978">
        <ele>883.223</ele>
        <time>2021-06-12T19:39:00Z</time>
      </trkpt>
      <trkpt lat="41.782810" lon="2.306014">
        <ele>882.179</ele>
        <time>2021-06-12T19:39:05Z</time>
      </trkpt>
      <trkpt lat="41.782763" lon="2.306031">
        <ele>881.663</ele>
        <time>2021-06-12T19:39:09Z</time>
      </trkpt>
      <trkpt lat="41.782720" lon="2.306057">
        <ele>881.244</ele>
        <time>2021-06-12T19:39:13Z</time>
      </trkpt>
      <trkpt lat="41.782679" lon="2.306085">
        <ele>880.618</ele>
        <time>2021-06-12T19:39:17Z</time>
      </trkpt>
      <trkpt lat="41.782635" lon="2.306118">
        <ele>880.408</ele>
        <time>2021-06-12T19:39:21Z</time>
      </trkpt>
      <trkpt lat="41.782589" lon="2.306139">
        <ele>879.953</ele>
        <time>2021-06-12T19:39:25Z</time>
      </trkpt>
      <trkpt lat="41.782541" lon="2.306156">
        <ele>879.581</ele>
        <time>2021-06-12T19:39:29Z</time>
      </trkpt>
      <trkpt lat="41.782495" lon="2.306129">
        <ele>879.414</ele>
        <time>2021-06-12T19:39:33Z</time>
      </trkpt>
      <trkpt lat="41.782474" lon="2.306071">
        <ele>878.729</ele>
        <time>2021-06-12T19:39:39Z</time>
      </trkpt>
      <trkpt lat="41.782448" lon="2.306021">
        <ele>878.234</ele>
        <time>2021-06-12T19:39:44Z</time>
      </trkpt>
      <trkpt lat="41.782462" lon="2.305960">
        <ele>878.771</ele>
        <time>2021-06-12T19:39:49Z</time>
      </trkpt>
      <trkpt lat="41.782461" lon="2.305895">
        <ele>879.280</ele>
        <time>2021-06-12T19:39:54Z</time>
      </trkpt>
      <trkpt lat="41.782451" lon="2.305833">
        <ele>879.416</ele>
        <time>2021-06-12T19:39:57Z</time>
      </trkpt>
      <trkpt lat="41.782446" lon="2.305772">
        <ele>879.944</ele>
        <time>2021-06-12T19:40:01Z</time>
      </trkpt>
      <trkpt lat="41.782434" lon="2.305713">
        <ele>880.505</ele>
        <time>2021-06-12T19:40:05Z</time>
      </trkpt>
      <trkpt lat="41.782431" lon="2.305649">
        <ele>880.615</ele>
        <time>2021-06-12T19:40:09Z</time>
      </trkpt>
      <trkpt lat="41.782419" lon="2.305589">
        <ele>881.008</ele>
        <time>2021-06-12T19:40:15Z</time>
      </trkpt>
      <trkpt lat="41.782388" lon="2.305539">
        <ele>881.581</ele>
        <time>2021-06-12T19:40:20Z</time>
      </trkpt>
      <trkpt lat="41.782340" lon="2.305508">
        <ele>881.979</ele>
        <time>2021-06-12T19:40:24Z</time>
      </trkpt>
      <trkpt lat="41.782300" lon="2.305466">
        <ele>882.222</ele>
        <time>2021-06-12T19:40:29Z</time>
      </trkpt>
      <trkpt lat="41.782295" lon="2.305404">
        <ele>882.427</ele>
        <time>2021-06-12T19:40:35Z</time>
      </trkpt>
      <trkpt lat="41.782299" lon="2.305341">
        <ele>883.292</ele>
        <time>2021-06-12T19:40:41Z</time>
      </trkpt>
      <trkpt lat="41.782281" lon="2.305279">
        <ele>884.149</ele>
        <time>2021-06-12T19:40:50Z</time>
      </trkpt>
      <trkpt lat="41.782290" lon="2.305215">
        <ele>884.418</ele>
        <time>2021-06-12T19:40:56Z</time>
      </trkpt>
      <trkpt lat="41.782286" lon="2.305151">
        <ele>884.654</ele>
        <time>2021-06-12T19:41:02Z</time>
      </trkpt>
      <trkpt lat="41.782296" lon="2.305089">
        <ele>885.239</ele>
        <time>2021-06-12T19:41:26Z</time>
      </trkpt>
      <trkpt lat="41.782294" lon="2.305025">
        <ele>884.601</ele>
        <time>2021-06-12T19:41:37Z</time>
      </trkpt>
      <trkpt lat="41.782267" lon="2.304970">
        <ele>886.221</ele>
        <time>2021-06-12T19:41:46Z</time>
      </trkpt>
      <trkpt lat="41.782248" lon="2.304912">
        <ele>886.208</ele>
        <time>2021-06-12T19:41:51Z</time>
      </trkpt>
      <trkpt lat="41.782235" lon="2.304852">
        <ele>886.860</ele>
        <time>2021-06-12T19:41:57Z</time>
      </trkpt>
      <trkpt lat="41.782212" lon="2.304796">
        <ele>887.218</ele>
        <time>2021-06-12T19:42:04Z</time>
      </trkpt>
      <trkpt lat="41.782215" lon="2.304736">
        <ele>888.081</ele>
        <time>2021-06-12T19:42:11Z</time>
      </trkpt>
      <trkpt lat="41.782241" lon="2.304684">
        <ele>888.256</ele>
        <time>2021-06-12T19:42:17Z</time>
      </trkpt>
      <trkpt lat="41.782273" lon="2.304634">
        <ele>889.471</ele>
        <time>2021-06-12T19:42:23Z</time>
      </trkpt>
      <trkpt lat="41.782294" lon="2.304580">
        <ele>890.038</ele>
        <time>2021-06-12T19:42:30Z</time>
      </trkpt>
      <trkpt lat="41.782324" lon="2.304534">
        <ele>890.667</ele>
        <time>2021-06-12T19:42:45Z</time>
      </trkpt>
      <trkpt lat="41.782343" lon="2.304478">
        <ele>891.393</ele>
        <time>2021-06-12T19:43:04Z</time>
      </trkpt>
      <trkpt lat="41.782341" lon="2.304417">
        <ele>892.128</ele>
        <time>2021-06-12T19:43:11Z</time>
      </trkpt>
      <trkpt lat="41.782344" lon="2.304351">
        <ele>892.989</ele>
        <time>2021-06-12T19:43:31Z</time>
      </trkpt>
      <trkpt lat="41.782383" lon="2.304307">
        <ele>892.717</ele>
        <time>2021-06-12T19:43:36Z</time>
      </trkpt>
      <trkpt lat="41.782420" lon="2.304253">
        <ele>892.708</ele>
        <time>2021-06-12T19:43:41Z</time>
      </trkpt>
      <trkpt lat="41.782458" lon="2.304218">
        <ele>892.949</ele>
        <time>2021-06-12T19:43:47Z</time>
      </trkpt>
      <trkpt lat="41.782487" lon="2.304170">
        <ele>893.047</ele>
        <time>2021-06-12T19:43:52Z</time>
      </trkpt>
      <trkpt lat="41.782514" lon="2.304120">
        <ele>893.450</ele>
        <time>2021-06-12T19:43:57Z</time>
      </trkpt>
      <trkpt lat="41.782530" lon="2.304061">
        <ele>893.895</ele>
        <time>2021-06-12T19:44:03Z</time>
      </trkpt>
      <trkpt lat="41.782550" lon="2.304000">
        <ele>893.980</ele>
        <time>2021-06-12T19:44:09Z</time>
      </trkpt>
      <trkpt lat="41.782561" lon="2.303939">
        <ele>894.257</ele>
        <time>2021-06-12T19:44:14Z</time>
      </trkpt>
      <trkpt lat="41.782564" lon="2.303865">
        <ele>894.446</ele>
        <time>2021-06-12T19:44:19Z</time>
      </trkpt>
      <trkpt lat="41.782559" lon="2.303801">
        <ele>894.492</ele>
        <time>2021-06-12T19:44:22Z</time>
      </trkpt>
      <trkpt lat="41.782541" lon="2.303731">
        <ele>894.948</ele>
        <time>2021-06-12T19:44:26Z</time>
      </trkpt>
      <trkpt lat="41.782544" lon="2.303666">
        <ele>895.361</ele>
        <time>2021-06-12T19:44:30Z</time>
      </trkpt>
      <trkpt lat="41.782564" lon="2.303609">
        <ele>895.417</ele>
        <time>2021-06-12T19:44:34Z</time>
      </trkpt>
      <trkpt lat="41.782591" lon="2.303556">
        <ele>895.808</ele>
        <time>2021-06-12T19:44:40Z</time>
      </trkpt>
      <trkpt lat="41.782587" lon="2.303491">
        <ele>896.331</ele>
        <time>2021-06-12T19:44:47Z</time>
      </trkpt>
      <trkpt lat="41.782553" lon="2.303439">
        <ele>896.649</ele>
        <time>2021-06-12T19:44:51Z</time>
      </trkpt>
      <trkpt lat="41.782547" lon="2.303376">
        <ele>896.882</ele>
        <time>2021-06-12T19:44:57Z</time>
      </trkpt>
      <trkpt lat="41.782532" lon="2.303319">
        <ele>897.327</ele>
        <time>2021-06-12T19:45:03Z</time>
      </trkpt>
      <trkpt lat="41.782514" lon="2.303258">
        <ele>897.262</ele>
        <time>2021-06-12T19:45:09Z</time>
      </trkpt>
      <trkpt lat="41.782494" lon="2.303202">
        <ele>897.729</ele>
        <time>2021-06-12T19:45:15Z</time>
      </trkpt>
      <trkpt lat="41.782505" lon="2.303143">
        <ele>898.148</ele>
        <time>2021-06-12T19:45:22Z</time>
      </trkpt>
      <trkpt lat="41.782516" lon="2.303074">
        <ele>898.414</ele>
        <time>2021-06-12T19:45:28Z</time>
      </trkpt>
      <trkpt lat="41.782504" lon="2.303016">
        <ele>898.438</ele>
        <time>2021-06-12T19:45:32Z</time>
      </trkpt>
      <trkpt lat="41.782490" lon="2.302955">
        <ele>898.970</ele>
        <time>2021-06-12T19:45:37Z</time>
      </trkpt>
      <trkpt lat="41.782489" lon="2.302889">
        <ele>899.017</ele>
        <time>2021-06-12T19:45:44Z</time>
      </trkpt>
      <trkpt lat="41.782482" lon="2.302824">
        <ele>899.908</ele>
        <time>2021-06-12T19:45:51Z</time>
      </trkpt>
      <trkpt lat="41.782443" lon="2.302788">
        <ele>900.630</ele>
        <time>2021-06-12T19:46:00Z</time>
      </trkpt>
      <trkpt lat="41.782420" lon="2.302730">
        <ele>901.168</ele>
        <time>2021-06-12T19:46:06Z</time>
      </trkpt>
      <trkpt lat="41.782389" lon="2.302686">
        <ele>901.661</ele>
        <time>2021-06-12T19:46:13Z</time>
      </trkpt>
      <trkpt lat="41.782350" lon="2.302655">
        <ele>901.696</ele>
        <time>2021-06-12T19:46:20Z</time>
      </trkpt>
      <trkpt lat="41.782310" lon="2.302620">
        <ele>902.211</ele>
        <time>2021-06-12T19:46:25Z</time>
      </trkpt>
      <trkpt lat="41.782280" lon="2.302573">
        <ele>902.288</ele>
        <time>2021-06-12T19:46:57Z</time>
      </trkpt>
      <trkpt lat="41.782252" lon="2.302510">
        <ele>902.517</ele>
        <time>2021-06-12T19:47:03Z</time>
      </trkpt>
      <trkpt lat="41.782227" lon="2.302454">
        <ele>902.753</ele>
        <time>2021-06-12T19:47:07Z</time>
      </trkpt>
      <trkpt lat="41.782207" lon="2.302398">
        <ele>903.275</ele>
        <time>2021-06-12T19:47:23Z</time>
      </trkpt>
      <trkpt lat="41.782181" lon="2.302342">
        <ele>903.028</ele>
        <time>2021-06-12T19:47:29Z</time>
      </trkpt>
      <trkpt lat="41.782158" lon="2.302288">
        <ele>903.620</ele>
        <time>2021-06-12T19:47:36Z</time>
      </trkpt>
      <trkpt lat="41.782122" lon="2.302247">
        <ele>904.008</ele>
        <time>2021-06-12T19:47:43Z</time>
      </trkpt>
      <trkpt lat="41.782087" lon="2.302201">
        <ele>904.524</ele>
        <time>2021-06-12T19:47:51Z</time>
      </trkpt>
      <trkpt lat="41.782055" lon="2.302158">
        <ele>904.952</ele>
        <time>2021-06-12T19:47:57Z</time>
      </trkpt>
      <trkpt lat="41.782032" lon="2.302104">
        <ele>905.655</ele>
        <time>2021-06-12T19:48:05Z</time>
      </trkpt>
      <trkpt lat="41.781991" lon="2.302065">
        <ele>905.920</ele>
        <time>2021-06-12T19:48:25Z</time>
      </trkpt>
      <trkpt lat="41.781960" lon="2.302008">
        <ele>906.135</ele>
        <time>2021-06-12T19:48:31Z</time>
      </trkpt>
      <trkpt lat="41.781929" lon="2.301958">
        <ele>906.232</ele>
        <time>2021-06-12T19:48:35Z</time>
      </trkpt>
      <trkpt lat="41.781918" lon="2.301890">
        <ele>906.261</ele>
        <time>2021-06-12T19:48:40Z</time>
      </trkpt>
      <trkpt lat="41.781904" lon="2.301830">
        <ele>906.087</ele>
        <time>2021-06-12T19:48:44Z</time>
      </trkpt>
      <trkpt lat="41.781884" lon="2.301773">
        <ele>905.865</ele>
        <time>2021-06-12T19:48:50Z</time>
      </trkpt>
      <trkpt lat="41.781871" lon="2.301714">
        <ele>905.668</ele>
        <time>2021-06-12T19:48:57Z</time>
      </trkpt>
      <trkpt lat="41.781897" lon="2.301664">
        <ele>905.214</ele>
        <time>2021-06-12T19:49:40Z</time>
      </trkpt>
      <trkpt lat="41.781863" lon="2.301619">
        <ele>905.008</ele>
        <time>2021-06-12T19:50:54Z</time>
      </trkpt>
      <trkpt lat="41.781827" lon="2.301568">
        <ele>904.953</ele>
        <time>2021-06-12T19:50:58Z</time>
      </trkpt>
      <trkpt lat="41.781787" lon="2.301532">
        <ele>904.551</ele>
        <time>2021-06-12T19:51:02Z</time>
      </trkpt>
      <trkpt lat="41.781746" lon="2.301501">
        <ele>904.434</ele>
        <time>2021-06-12T19:51:07Z</time>
      </trkpt>
      <trkpt lat="41.781702" lon="2.301473">
        <ele>904.449</ele>
        <time>2021-06-12T19:51:12Z</time>
      </trkpt>
      <trkpt lat="41.781658" lon="2.301442">
        <ele>904.274</ele>
        <time>2021-06-12T19:51:17Z</time>
      </trkpt>
      <trkpt lat="41.781613" lon="2.301414">
        <ele>904.031</ele>
        <time>2021-06-12T19:51:22Z</time>
      </trkpt>
      <trkpt lat="41.781577" lon="2.301378">
        <ele>903.890</ele>
        <time>2021-06-12T19:51:25Z</time>
      </trkpt>
      <trkpt lat="41.781541" lon="2.301340">
        <ele>903.726</ele>
        <time>2021-06-12T19:51:28Z</time>
      </trkpt>
      <trkpt lat="41.781500" lon="2.301304">
        <ele>903.529</ele>
        <time>2021-06-12T19:51:32Z</time>
      </trkpt>
      <trkpt lat="41.781464" lon="2.301268">
        <ele>903.400</ele>
        <time>2021-06-12T19:51:36Z</time>
      </trkpt>
      <trkpt lat="41.781423" lon="2.301231">
        <ele>903.420</ele>
        <time>2021-06-12T19:51:39Z</time>
      </trkpt>
      <trkpt lat="41.781373" lon="2.301217">
        <ele>903.308</ele>
        <time>2021-06-12T19:51:44Z</time>
      </trkpt>
      <trkpt lat="41.781330" lon="2.301187">
        <ele>903.399</ele>
        <time>2021-06-12T19:51:49Z</time>
      </trkpt>
      <trkpt lat="41.781298" lon="2.301143">
        <ele>903.457</ele>
        <time>2021-06-12T19:51:53Z</time>
      </trkpt>
      <trkpt lat="41.781272" lon="2.301090">
        <ele>903.770</ele>
        <time>2021-06-12T19:51:59Z</time>
      </trkpt>
      <trkpt lat="41.781234" lon="2.301055">
        <ele>903.975</ele>
        <time>2021-06-12T19:52:03Z</time>
      </trkpt>
      <trkpt lat="41.781208" lon="2.300997">
        <ele>904.010</ele>
        <time>2021-06-12T19:52:09Z</time>
      </trkpt>
      <trkpt lat="41.781203" lon="2.300931">
        <ele>903.657</ele>
        <time>2021-06-12T19:52:14Z</time>
      </trkpt>
      <trkpt lat="41.781212" lon="2.300865">
        <ele>903.236</ele>
        <time>2021-06-12T19:52:20Z</time>
      </trkpt>
      <trkpt lat="41.781206" lon="2.300800">
        <ele>902.672</ele>
        <time>2021-06-12T19:52:26Z</time>
      </trkpt>
      <trkpt lat="41.781192" lon="2.300737">
        <ele>902.142</ele>
        <time>2021-06-12T19:52:30Z</time>
      </trkpt>
      <trkpt lat="41.781177" lon="2.300672">
        <ele>901.822</ele>
        <time>2021-06-12T19:52:34Z</time>
      </trkpt>
      <trkpt lat="41.781169" lon="2.300611">
        <ele>901.314</ele>
        <time>2021-06-12T19:52:38Z</time>
      </trkpt>
      <trkpt lat="41.781166" lon="2.300544">
        <ele>901.208</ele>
        <time>2021-06-12T19:52:43Z</time>
      </trkpt>
      <trkpt lat="41.781156" lon="2.300481">
        <ele>901.161</ele>
        <time>2021-06-12T19:52:49Z</time>
      </trkpt>
      <trkpt lat="41.781160" lon="2.300419">
        <ele>901.399</ele>
        <time>2021-06-12T19:52:55Z</time>
      </trkpt>
      <trkpt lat="41.781151" lon="2.300358">
        <ele>900.972</ele>
        <time>2021-06-12T19:53:00Z</time>
      </trkpt>
      <trkpt lat="41.781137" lon="2.300291">
        <ele>901.177</ele>
        <time>2021-06-12T19:53:04Z</time>
      </trkpt>
      <trkpt lat="41.781112" lon="2.300236">
        <ele>901.272</ele>
        <time>2021-06-12T19:53:08Z</time>
      </trkpt>
      <trkpt lat="41.781098" lon="2.300176">
        <ele>901.259</ele>
        <time>2021-06-12T19:53:12Z</time>
      </trkpt>
      <trkpt lat="41.781098" lon="2.300106">
        <ele>901.198</ele>
        <time>2021-06-12T19:53:16Z</time>
      </trkpt>
      <trkpt lat="41.781100" lon="2.300041">
        <ele>901.124</ele>
        <time>2021-06-12T19:53:19Z</time>
      </trkpt>
      <trkpt lat="41.781094" lon="2.299978">
        <ele>901.283</ele>
        <time>2021-06-12T19:53:23Z</time>
      </trkpt>
      <trkpt lat="41.781104" lon="2.299912">
        <ele>901.225</ele>
        <time>2021-06-12T19:53:28Z</time>
      </trkpt>
      <trkpt lat="41.781135" lon="2.299859">
        <ele>901.117</ele>
        <time>2021-06-12T19:53:33Z</time>
      </trkpt>
      <trkpt lat="41.781153" lon="2.299797">
        <ele>901.508</ele>
        <time>2021-06-12T19:53:38Z</time>
      </trkpt>
      <trkpt lat="41.781163" lon="2.299730">
        <ele>901.625</ele>
        <time>2021-06-12T19:53:43Z</time>
      </trkpt>
      <trkpt lat="41.781154" lon="2.299670">
        <ele>902.083</ele>
        <time>2021-06-12T19:53:49Z</time>
      </trkpt>
      <trkpt lat="41.781137" lon="2.299612">
        <ele>902.546</ele>
        <time>2021-06-12T19:53:55Z</time>
      </trkpt>
      <trkpt lat="41.781125" lon="2.299554">
        <ele>902.591</ele>
        <time>2021-06-12T19:54:00Z</time>
      </trkpt>
      <trkpt lat="41.781110" lon="2.299496">
        <ele>902.336</ele>
        <time>2021-06-12T19:54:05Z</time>
      </trkpt>
      <trkpt lat="41.781104" lon="2.299432">
        <ele>901.523</ele>
        <time>2021-06-12T19:54:10Z</time>
      </trkpt>
      <trkpt lat="41.781093" lon="2.299370">
        <ele>900.962</ele>
        <time>2021-06-12T19:54:15Z</time>
      </trkpt>
      <trkpt lat="41.781086" lon="2.299307">
        <ele>900.498</ele>
        <time>2021-06-12T19:54:19Z</time>
      </trkpt>
      <trkpt lat="41.781078" lon="2.299244">
        <ele>899.637</ele>
        <time>2021-06-12T19:54:24Z</time>
      </trkpt>
      <trkpt lat="41.781078" lon="2.299174">
        <ele>899.249</ele>
        <time>2021-06-12T19:54:29Z</time>
      </trkpt>
      <trkpt lat="41.781080" lon="2.299112">
        <ele>898.513</ele>
        <time>2021-06-12T19:55:09Z</time>
      </trkpt>
      <trkpt lat="41.781076" lon="2.299044">
        <ele>898.108</ele>
        <time>2021-06-12T19:55:14Z</time>
      </trkpt>
      <trkpt lat="41.781072" lon="2.298982">
        <ele>897.850</ele>
        <time>2021-06-12T19:55:17Z</time>
      </trkpt>
      <trkpt lat="41.781059" lon="2.298920">
        <ele>897.378</ele>
        <time>2021-06-12T19:55:21Z</time>
      </trkpt>
      <trkpt lat="41.781036" lon="2.298867">
        <ele>896.931</ele>
        <time>2021-06-12T19:55:26Z</time>
      </trkpt>
      <trkpt lat="41.781005" lon="2.298819">
        <ele>896.716</ele>
        <time>2021-06-12T19:55:32Z</time>
      </trkpt>
      <trkpt lat="41.780976" lon="2.298773">
        <ele>896.431</ele>
        <time>2021-06-12T19:55:36Z</time>
      </trkpt>
      <trkpt lat="41.780939" lon="2.298730">
        <ele>896.358</ele>
        <time>2021-06-12T19:55:40Z</time>
      </trkpt>
      <trkpt lat="41.780901" lon="2.298685">
        <ele>896.427</ele>
        <time>2021-06-12T19:55:44Z</time>
      </trkpt>
      <trkpt lat="41.780869" lon="2.298634">
        <ele>895.813</ele>
        <time>2021-06-12T19:55:48Z</time>
      </trkpt>
      <trkpt lat="41.780833" lon="2.298587">
        <ele>895.795</ele>
        <time>2021-06-12T19:55:53Z</time>
      </trkpt>
      <trkpt lat="41.780797" lon="2.298551">
        <ele>895.549</ele>
        <time>2021-06-12T19:55:58Z</time>
      </trkpt>
      <trkpt lat="41.780762" lon="2.298510">
        <ele>895.423</ele>
        <time>2021-06-12T19:56:02Z</time>
      </trkpt>
      <trkpt lat="41.780731" lon="2.298459">
        <ele>895.208</ele>
        <time>2021-06-12T19:56:08Z</time>
      </trkpt>
      <trkpt lat="41.780693" lon="2.298425">
        <ele>895.316</ele>
        <time>2021-06-12T19:56:13Z</time>
      </trkpt>
      <trkpt lat="41.780650" lon="2.298401">
        <ele>895.344</ele>
        <time>2021-06-12T19:56:18Z</time>
      </trkpt>
      <trkpt lat="41.780609" lon="2.298374">
        <ele>895.097</ele>
        <time>2021-06-12T19:56:22Z</time>
      </trkpt>
      <trkpt lat="41.780571" lon="2.298341">
        <ele>894.982</ele>
        <time>2021-06-12T19:56:26Z</time>
      </trkpt>
      <trkpt lat="41.780537" lon="2.298295">
        <ele>895.237</ele>
        <time>2021-06-12T19:56:32Z</time>
      </trkpt>
      <trkpt lat="41.780508" lon="2.298244">
        <ele>895.054</ele>
        <time>2021-06-12T19:56:37Z</time>
      </trkpt>
      <trkpt lat="41.780488" lon="2.298179">
        <ele>895.183</ele>
        <time>2021-06-12T19:56:41Z</time>
      </trkpt>
      <trkpt lat="41.780452" lon="2.298126">
        <ele>894.969</ele>
        <time>2021-06-12T19:56:46Z</time>
      </trkpt>
      <trkpt lat="41.780418" lon="2.298073">
        <ele>895.175</ele>
        <time>2021-06-12T19:56:52Z</time>
      </trkpt>
      <trkpt lat="41.780377" lon="2.298034">
        <ele>895.328</ele>
        <time>2021-06-12T19:56:57Z</time>
      </trkpt>
      <trkpt lat="41.780336" lon="2.297999">
        <ele>895.220</ele>
        <time>2021-06-12T19:57:01Z</time>
      </trkpt>
      <trkpt lat="41.780297" lon="2.297953">
        <ele>895.308</ele>
        <time>2021-06-12T19:57:06Z</time>
      </trkpt>
      <trkpt lat="41.780258" lon="2.297916">
        <ele>895.324</ele>
        <time>2021-06-12T19:57:10Z</time>
      </trkpt>
      <trkpt lat="41.780216" lon="2.297873">
        <ele>895.452</ele>
        <time>2021-06-12T19:57:14Z</time>
      </trkpt>
      <trkpt lat="41.780182" lon="2.297831">
        <ele>895.385</ele>
        <time>2021-06-12T19:57:18Z</time>
      </trkpt>
      <trkpt lat="41.780142" lon="2.297793">
        <ele>895.110</ele>
        <time>2021-06-12T19:57:22Z</time>
      </trkpt>
      <trkpt lat="41.780100" lon="2.297767">
        <ele>895.035</ele>
        <time>2021-06-12T19:57:27Z</time>
      </trkpt>
      <trkpt lat="41.780054" lon="2.297749">
        <ele>894.262</ele>
        <time>2021-06-12T19:57:33Z</time>
      </trkpt>
      <trkpt lat="41.780010" lon="2.297719">
        <ele>893.791</ele>
        <time>2021-06-12T19:57:38Z</time>
      </trkpt>
      <trkpt lat="41.779979" lon="2.297674">
        <ele>892.997</ele>
        <time>2021-06-12T19:57:43Z</time>
      </trkpt>
      <trkpt lat="41.779940" lon="2.297632">
        <ele>892.078</ele>
        <time>2021-06-12T19:57:48Z</time>
      </trkpt>
      <trkpt lat="41.779904" lon="2.297586">
        <ele>891.833</ele>
        <time>2021-06-12T19:57:53Z</time>
      </trkpt>
      <trkpt lat="41.779872" lon="2.297535">
        <ele>891.226</ele>
        <time>2021-06-12T19:57:58Z</time>
      </trkpt>
      <trkpt lat="41.779840" lon="2.297488">
        <ele>890.408</ele>
        <time>2021-06-12T19:58:03Z</time>
      </trkpt>
      <trkpt lat="41.779811" lon="2.297431">
        <ele>890.234</ele>
        <time>2021-06-12T19:58:08Z</time>
      </trkpt>
      <trkpt lat="41.779783" lon="2.297379">
        <ele>889.832</ele>
        <time>2021-06-12T19:58:15Z</time>
      </trkpt>
      <trkpt lat="41.779759" lon="2.297323">
        <ele>888.845</ele>
        <time>2021-06-12T19:58:22Z</time>
      </trkpt>
      <trkpt lat="41.779737" lon="2.297269">
        <ele>887.630</ele>
        <time>2021-06-12T19:58:29Z</time>
      </trkpt>
      <trkpt lat="41.779718" lon="2.297214">
        <ele>886.895</ele>
        <time>2021-06-12T19:58:35Z</time>
      </trkpt>
      <trkpt lat="41.779700" lon="2.297152">
        <ele>885.592</ele>
        <time>2021-06-12T19:58:44Z</time>
      </trkpt>
      <trkpt lat="41.779701" lon="2.297077">
        <ele>885.131</ele>
        <time>2021-06-12T19:58:49Z</time>
      </trkpt>
      <trkpt lat="41.779690" lon="2.297014">
        <ele>884.517</ele>
        <time>2021-06-12T19:58:55Z</time>
      </trkpt>
      <trkpt lat="41.779700" lon="2.296947">
        <ele>883.729</ele>
        <time>2021-06-12T19:59:00Z</time>
      </trkpt>
      <trkpt lat="41.779717" lon="2.296891">
        <ele>883.100</ele>
        <time>2021-06-12T19:59:04Z</time>
      </trkpt>
      <trkpt lat="41.779735" lon="2.296835">
        <ele>882.420</ele>
        <time>2021-06-12T19:59:08Z</time>
      </trkpt>
      <trkpt lat="41.779749" lon="2.296775">
        <ele>882.008</ele>
        <time>2021-06-12T19:59:11Z</time>
      </trkpt>
      <trkpt lat="41.779765" lon="2.296707">
        <ele>881.649</ele>
        <time>2021-06-12T19:59:16Z</time>
      </trkpt>
      <trkpt lat="41.779770" lon="2.296641">
        <ele>880.777</ele>
        <time>2021-06-12T19:59:26Z</time>
      </trkpt>
      <trkpt lat="41.779764" lon="2.296581">
        <ele>880.290</ele>
        <time>2021-06-12T19:59:30Z</time>
      </trkpt>
      <trkpt lat="41.779757" lon="2.296521">
        <ele>880.165</ele>
        <time>2021-06-12T19:59:34Z</time>
      </trkpt>
      <trkpt lat="41.779755" lon="2.296452">
        <ele>880.020</ele>
        <time>2021-06-12T19:59:38Z</time>
      </trkpt>
      <trkpt lat="41.779736" lon="2.296390">
        <ele>879.147</ele>
        <time>2021-06-12T19:59:43Z</time>
      </trkpt>
      <trkpt lat="41.779714" lon="2.296337">
        <ele>878.316</ele>
        <time>2021-06-12T19:59:48Z</time>
      </trkpt>
      <trkpt lat="41.779695" lon="2.296281">
        <ele>878.382</ele>
        <time>2021-06-12T19:59:53Z</time>
      </trkpt>
      <trkpt lat="41.779683" lon="2.296217">
        <ele>879.232</ele>
        <time>2021-06-12T20:00:02Z</time>
      </trkpt>
      <trkpt lat="41.779643" lon="2.296188">
        <ele>877.092</ele>
        <time>2021-06-12T20:00:21Z</time>
      </trkpt>
      <trkpt lat="41.779594" lon="2.296171">
        <ele>878.211</ele>
        <time>2021-06-12T20:00:24Z</time>
      </trkpt>
      <trkpt lat="41.779547" lon="2.296166">
        <ele>877.608</ele>
        <time>2021-06-12T20:00:32Z</time>
      </trkpt>
      <trkpt lat="41.779496" lon="2.296170">
        <ele>877.170</ele>
        <time>2021-06-12T20:00:48Z</time>
      </trkpt>
      <trkpt lat="41.779458" lon="2.296124">
        <ele>876.518</ele>
        <time>2021-06-12T20:01:05Z</time>
      </trkpt>
      <trkpt lat="41.779455" lon="2.296061">
        <ele>876.451</ele>
        <time>2021-06-12T20:01:09Z</time>
      </trkpt>
      <trkpt lat="41.779475" lon="2.296003">
        <ele>876.436</ele>
        <time>2021-06-12T20:01:29Z</time>
      </trkpt>
      <trkpt lat="41.779467" lon="2.295941">
        <ele>875.771</ele>
        <time>2021-06-12T20:01:35Z</time>
      </trkpt>
      <trkpt lat="41.779458" lon="2.295877">
        <ele>875.188</ele>
        <time>2021-06-12T20:01:39Z</time>
      </trkpt>
      <trkpt lat="41.779443" lon="2.295812">
        <ele>874.527</ele>
        <time>2021-06-12T20:01:44Z</time>
      </trkpt>
      <trkpt lat="41.779416" lon="2.295760">
        <ele>873.733</ele>
        <time>2021-06-12T20:01:48Z</time>
      </trkpt>
      <trkpt lat="41.779382" lon="2.295717">
        <ele>873.379</ele>
        <time>2021-06-12T20:01:52Z</time>
      </trkpt>
      <trkpt lat="41.779350" lon="2.295669">
        <ele>873.405</ele>
        <time>2021-06-12T20:01:56Z</time>
      </trkpt>
      <trkpt lat="41.779322" lon="2.295611">
        <ele>872.825</ele>
        <time>2021-06-12T20:02:00Z</time>
      </trkpt>
      <trkpt lat="41.779284" lon="2.295576">
        <ele>872.608</ele>
        <time>2021-06-12T20:02:03Z</time>
      </trkpt>
      <trkpt lat="41.779254" lon="2.295526">
        <ele>872.484</ele>
        <time>2021-06-12T20:02:07Z</time>
      </trkpt>
      <trkpt lat="41.779225" lon="2.295479">
        <ele>872.442</ele>
        <time>2021-06-12T20:02:11Z</time>
      </trkpt>
      <trkpt lat="41.779205" lon="2.295415">
        <ele>872.035</ele>
        <time>2021-06-12T20:02:15Z</time>
      </trkpt>
      <trkpt lat="41.779191" lon="2.295356">
        <ele>871.940</ele>
        <time>2021-06-12T20:02:19Z</time>
      </trkpt>
      <trkpt lat="41.779165" lon="2.295296">
        <ele>871.575</ele>
        <time>2021-06-12T20:02:23Z</time>
      </trkpt>
      <trkpt lat="41.779149" lon="2.295235">
        <ele>871.392</ele>
        <time>2021-06-12T20:02:28Z</time>
      </trkpt>
      <trkpt lat="41.779136" lon="2.295173">
        <ele>870.851</ele>
        <time>2021-06-12T20:02:32Z</time>
      </trkpt>
      <trkpt lat="41.779124" lon="2.295109">
        <ele>870.677</ele>
        <time>2021-06-12T20:02:37Z</time>
      </trkpt>
      <trkpt lat="41.779123" lon="2.295038">
        <ele>870.487</ele>
        <time>2021-06-12T20:02:41Z</time>
      </trkpt>
      <trkpt lat="41.779123" lon="2.294975">
        <ele>870.042</ele>
        <time>2021-06-12T20:02:44Z</time>
      </trkpt>
      <trkpt lat="41.779135" lon="2.294912">
        <ele>869.726</ele>
        <time>2021-06-12T20:02:48Z</time>
      </trkpt>
      <trkpt lat="41.779157" lon="2.294857">
        <ele>869.408</ele>
        <time>2021-06-12T20:02:52Z</time>
      </trkpt>
      <trkpt lat="41.779173" lon="2.294793">
        <ele>868.955</ele>
        <time>2021-06-12T20:02:58Z</time>
      </trkpt>
      <trkpt lat="41.779170" lon="2.294726">
        <ele>868.693</ele>
        <time>2021-06-12T20:03:02Z</time>
      </trkpt>
      <trkpt lat="41.779199" lon="2.294669">
        <ele>868.476</ele>
        <time>2021-06-12T20:03:06Z</time>
      </trkpt>
      <trkpt lat="41.779222" lon="2.294614">
        <ele>868.241</ele>
        <time>2021-06-12T20:03:10Z</time>
      </trkpt>
      <trkpt lat="41.779175" lon="2.294621">
        <ele>866.296</ele>
        <time>2021-06-12T20:03:25Z</time>
      </trkpt>
      <trkpt lat="41.779140" lon="2.294578">
        <ele>864.893</ele>
        <time>2021-06-12T20:03:39Z</time>
      </trkpt>
      <trkpt lat="41.779149" lon="2.294516">
        <ele>864.482</ele>
        <time>2021-06-12T20:03:47Z</time>
      </trkpt>
      <trkpt lat="41.779171" lon="2.294461">
        <ele>863.338</ele>
        <time>2021-06-12T20:03:53Z</time>
      </trkpt>
      <trkpt lat="41.779143" lon="2.294410">
        <ele>861.772</ele>
        <time>2021-06-12T20:04:01Z</time>
      </trkpt>
      <trkpt lat="41.779098" lon="2.294379">
        <ele>861.613</ele>
        <time>2021-06-12T20:04:06Z</time>
      </trkpt>
      <trkpt lat="41.779055" lon="2.294337">
        <ele>860.914</ele>
        <time>2021-06-12T20:04:09Z</time>
      </trkpt>
      <trkpt lat="41.779049" lon="2.294276">
        <ele>860.508</ele>
        <time>2021-06-12T20:04:14Z</time>
      </trkpt>
      <trkpt lat="41.779071" lon="2.294213">
        <ele>859.964</ele>
        <time>2021-06-12T20:04:18Z</time>
      </trkpt>
      <trkpt lat="41.779099" lon="2.294158">
        <ele>859.272</ele>
        <time>2021-06-12T20:04:22Z</time>
      </trkpt>
      <trkpt lat="41.779136" lon="2.294105">
        <ele>859.035</ele>
        <time>2021-06-12T20:04:26Z</time>
      </trkpt>
      <trkpt lat="41.779163" lon="2.294046">
        <ele>858.670</ele>
        <time>2021-06-12T20:04:29Z</time>
      </trkpt>
      <trkpt lat="41.779180" lon="2.293981">
        <ele>858.285</ele>
        <time>2021-06-12T20:04:33Z</time>
      </trkpt>
      <trkpt lat="41.779199" lon="2.293925">
        <ele>857.742</ele>
        <time>2021-06-12T20:04:36Z</time>
      </trkpt>
      <trkpt lat="41.779223" lon="2.293871">
        <ele>857.771</ele>
        <time>2021-06-12T20:04:40Z</time>
      </trkpt>
      <trkpt lat="41.779252" lon="2.293822">
        <ele>857.167</ele>
        <time>2021-06-12T20:04:44Z</time>
      </trkpt>
      <trkpt lat="41.779285" lon="2.293771">
        <ele>856.436</ele>
        <time>2021-06-12T20:04:49Z</time>
      </trkpt>
      <trkpt lat="41.779307" lon="2.293716">
        <ele>856.017</ele>
        <time>2021-06-12T20:04:52Z</time>
      </trkpt>
      <trkpt lat="41.779337" lon="2.293669">
        <ele>856.018</ele>
        <time>2021-06-12T20:04:56Z</time>
      </trkpt>
      <trkpt lat="41.779359" lon="2.293614">
        <ele>855.508</ele>
        <time>2021-06-12T20:05:01Z</time>
      </trkpt>
      <trkpt lat="41.779387" lon="2.293558">
        <ele>855.160</ele>
        <time>2021-06-12T20:05:05Z</time>
      </trkpt>
      <trkpt lat="41.779415" lon="2.293505">
        <ele>854.848</ele>
        <time>2021-06-12T20:05:10Z</time>
      </trkpt>
      <trkpt lat="41.779448" lon="2.293453">
        <ele>854.721</ele>
        <time>2021-06-12T20:05:14Z</time>
      </trkpt>
      <trkpt lat="41.779468" lon="2.293395">
        <ele>854.326</ele>
        <time>2021-06-12T20:05:18Z</time>
      </trkpt>
      <trkpt lat="41.779483" lon="2.293337">
        <ele>853.811</ele>
        <time>2021-06-12T20:05:22Z</time>
      </trkpt>
      <trkpt lat="41.779518" lon="2.293287">
        <ele>853.468</ele>
        <time>2021-06-12T20:05:26Z</time>
      </trkpt>
      <trkpt lat="41.779557" lon="2.293251">
        <ele>852.977</ele>
        <time>2021-06-12T20:05:30Z</time>
      </trkpt>
      <trkpt lat="41.779599" lon="2.293214">
        <ele>852.223</ele>
        <time>2021-06-12T20:05:35Z</time>
      </trkpt>
      <trkpt lat="41.779643" lon="2.293196">
        <ele>851.915</ele>
        <time>2021-06-12T20:05:39Z</time>
      </trkpt>
      <trkpt lat="41.779686" lon="2.293172">
        <ele>851.765</ele>
        <time>2021-06-12T20:05:43Z</time>
      </trkpt>
      <trkpt lat="41.779723" lon="2.293136">
        <ele>851.011</ele>
        <time>2021-06-12T20:05:48Z</time>
      </trkpt>
      <trkpt lat="41.779764" lon="2.293103">
        <ele>850.408</ele>
        <time>2021-06-12T20:05:53Z</time>
      </trkpt>
      <trkpt lat="41.779809" lon="2.293073">
        <ele>850.128</ele>
        <time>2021-06-12T20:05:58Z</time>
      </trkpt>
      <trkpt lat="41.779854" lon="2.293049">
        <ele>849.826</ele>
        <time>2021-06-12T20:06:02Z</time>
      </trkpt>
      <trkpt lat="41.779897" lon="2.293024">
        <ele>849.469</ele>
        <time>2021-06-12T20:06:06Z</time>
      </trkpt>
      <trkpt lat="41.779947" lon="2.293031">
        <ele>849.184</ele>
        <time>2021-06-12T20:06:10Z</time>
      </trkpt>
      <trkpt lat="41.779995" lon="2.293049">
        <ele>849.079</ele>
        <time>2021-06-12T20:06:14Z</time>
      </trkpt>
      <trkpt lat="41.780038" lon="2.293084">
        <ele>848.696</ele>
        <time>2021-06-12T20:06:18Z</time>
      </trkpt>
      <trkpt lat="41.780078" lon="2.293123">
        <ele>848.545</ele>
        <time>2021-06-12T20:06:22Z</time>
      </trkpt>
      <trkpt lat="41.780120" lon="2.293155">
        <ele>848.541</ele>
        <time>2021-06-12T20:06:25Z</time>
      </trkpt>
      <trkpt lat="41.780167" lon="2.293177">
        <ele>848.257</ele>
        <time>2021-06-12T20:06:29Z</time>
      </trkpt>
      <trkpt lat="41.780211" lon="2.293204">
        <ele>847.600</ele>
        <time>2021-06-12T20:06:33Z</time>
      </trkpt>
      <trkpt lat="41.780254" lon="2.293222">
        <ele>847.020</ele>
        <time>2021-06-12T20:06:37Z</time>
      </trkpt>
      <trkpt lat="41.780298" lon="2.293246">
        <ele>846.408</ele>
        <time>2021-06-12T20:06:43Z</time>
      </trkpt>
      <trkpt lat="41.780344" lon="2.293239">
        <ele>846.292</ele>
        <time>2021-06-12T20:06:48Z</time>
      </trkpt>
      <trkpt lat="41.780386" lon="2.293206">
        <ele>845.350</ele>
        <time>2021-06-12T20:06:54Z</time>
      </trkpt>
      <trkpt lat="41.780389" lon="2.293146">
        <ele>844.733</ele>
        <time>2021-06-12T20:06:59Z</time>
      </trkpt>
      <trkpt lat="41.780376" lon="2.293083">
        <ele>844.748</ele>
        <time>2021-06-12T20:07:04Z</time>
      </trkpt>
      <trkpt lat="41.780345" lon="2.293036">
        <ele>843.953</ele>
        <time>2021-06-12T20:07:08Z</time>
      </trkpt>
      <trkpt lat="41.780309" lon="2.292989">
        <ele>843.430</ele>
        <time>2021-06-12T20:07:12Z</time>
      </trkpt>
      <trkpt lat="41.780270" lon="2.292956">
        <ele>843.059</ele>
        <time>2021-06-12T20:07:16Z</time>
      </trkpt>
      <trkpt lat="41.780228" lon="2.292924">
        <ele>842.735</ele>
        <time>2021-06-12T20:07:21Z</time>
      </trkpt>
      <trkpt lat="41.780194" lon="2.292879">
        <ele>842.568</ele>
        <time>2021-06-12T20:07:24Z</time>
      </trkpt>
      <trkpt lat="41.780167" lon="2.292825">
        <ele>842.042</ele>
        <time>2021-06-12T20:07:28Z</time>
      </trkpt>
      <trkpt lat="41.780152" lon="2.292760">
        <ele>841.526</ele>
        <time>2021-06-12T20:07:31Z</time>
      </trkpt>
      <trkpt lat="41.780141" lon="2.292699">
        <ele>841.008</ele>
        <time>2021-06-12T20:07:35Z</time>
      </trkpt>
      <trkpt lat="41.780142" lon="2.292634">
        <ele>840.543</ele>
        <time>2021-06-12T20:07:39Z</time>
      </trkpt>
      <trkpt lat="41.780132" lon="2.292567">
        <ele>840.221</ele>
        <time>2021-06-12T20:07:44Z</time>
      </trkpt>
      <trkpt lat="41.780114" lon="2.292511">
        <ele>839.664</ele>
        <time>2021-06-12T20:07:48Z</time>
      </trkpt>
      <trkpt lat="41.780088" lon="2.292456">
        <ele>838.819</ele>
        <time>2021-06-12T20:07:52Z</time>
      </trkpt>
      <trkpt lat="41.780055" lon="2.292409">
        <ele>838.334</ele>
        <time>2021-06-12T20:07:57Z</time>
      </trkpt>
      <trkpt lat="41.780009" lon="2.292384">
        <ele>838.251</ele>
        <time>2021-06-12T20:08:01Z</time>
      </trkpt>
      <trkpt lat="41.779961" lon="2.292366">
        <ele>837.690</ele>
        <time>2021-06-12T20:08:05Z</time>
      </trkpt>
      <trkpt lat="41.779924" lon="2.292325">
        <ele>837.236</ele>
        <time>2021-06-12T20:08:09Z</time>
      </trkpt>
      <trkpt lat="41.779887" lon="2.292281">
        <ele>836.919</ele>
        <time>2021-06-12T20:08:13Z</time>
      </trkpt>
      <trkpt lat="41.779846" lon="2.292239">
        <ele>836.709</ele>
        <time>2021-06-12T20:08:17Z</time>
      </trkpt>
      <trkpt lat="41.779807" lon="2.292199">
        <ele>836.319</ele>
        <time>2021-06-12T20:08:21Z</time>
      </trkpt>
      <trkpt lat="41.779763" lon="2.292185">
        <ele>835.808</ele>
        <time>2021-06-12T20:08:24Z</time>
      </trkpt>
      <trkpt lat="41.779721" lon="2.292147">
        <ele>835.218</ele>
        <time>2021-06-12T20:08:29Z</time>
      </trkpt>
      <trkpt lat="41.779683" lon="2.292103">
        <ele>835.176</ele>
        <time>2021-06-12T20:08:33Z</time>
      </trkpt>
      <trkpt lat="41.779667" lon="2.292046">
        <ele>834.559</ele>
        <time>2021-06-12T20:08:37Z</time>
      </trkpt>
      <trkpt lat="41.779660" lon="2.291981">
        <ele>834.284</ele>
        <time>2021-06-12T20:08:42Z</time>
      </trkpt>
      <trkpt lat="41.779627" lon="2.291926">
        <ele>833.729</ele>
        <time>2021-06-12T20:08:47Z</time>
      </trkpt>
      <trkpt lat="41.779593" lon="2.291880">
        <ele>833.426</ele>
        <time>2021-06-12T20:08:50Z</time>
      </trkpt>
      <trkpt lat="41.779550" lon="2.291854">
        <ele>833.345</ele>
        <time>2021-06-12T20:08:54Z</time>
      </trkpt>
      <trkpt lat="41.779504" lon="2.291834">
        <ele>832.911</ele>
        <time>2021-06-12T20:08:57Z</time>
      </trkpt>
      <trkpt lat="41.779457" lon="2.291818">
        <ele>832.418</ele>
        <time>2021-06-12T20:09:01Z</time>
      </trkpt>
      <trkpt lat="41.779410" lon="2.291802">
        <ele>832.298</ele>
        <time>2021-06-12T20:09:05Z</time>
      </trkpt>
      <trkpt lat="41.779366" lon="2.291785">
        <ele>830.817</ele>
        <time>2021-06-12T20:09:10Z</time>
      </trkpt>
      <trkpt lat="41.779320" lon="2.291743">
        <ele>831.208</ele>
        <time>2021-06-12T20:09:15Z</time>
      </trkpt>
      <trkpt lat="41.779284" lon="2.291696">
        <ele>831.018</ele>
        <time>2021-06-12T20:09:19Z</time>
      </trkpt>
      <trkpt lat="41.779254" lon="2.291651">
        <ele>830.546</ele>
        <time>2021-06-12T20:09:23Z</time>
      </trkpt>
      <trkpt lat="41.779211" lon="2.291623">
        <ele>831.479</ele>
        <time>2021-06-12T20:09:28Z</time>
      </trkpt>
      <trkpt lat="41.779176" lon="2.291578">
        <ele>829.854</ele>
        <time>2021-06-12T20:09:32Z</time>
      </trkpt>
      <trkpt lat="41.779139" lon="2.291534">
        <ele>829.789</ele>
        <time>2021-06-12T20:09:36Z</time>
      </trkpt>
      <trkpt lat="41.779105" lon="2.291490">
        <ele>829.056</ele>
        <time>2021-06-12T20:09:42Z</time>
      </trkpt>
      <trkpt lat="41.779062" lon="2.291471">
        <ele>828.535</ele>
        <time>2021-06-12T20:09:47Z</time>
      </trkpt>
      <trkpt lat="41.779020" lon="2.291430">
        <ele>827.981</ele>
        <time>2021-06-12T20:09:52Z</time>
      </trkpt>
      <trkpt lat="41.778973" lon="2.291402">
        <ele>827.382</ele>
        <time>2021-06-12T20:09:57Z</time>
      </trkpt>
      <trkpt lat="41.778930" lon="2.291381">
        <ele>827.543</ele>
        <time>2021-06-12T20:10:02Z</time>
      </trkpt>
      <trkpt lat="41.778885" lon="2.291404">
        <ele>826.917</ele>
        <time>2021-06-12T20:10:07Z</time>
      </trkpt>
      <trkpt lat="41.778855" lon="2.291465">
        <ele>826.508</ele>
        <time>2021-06-12T20:10:12Z</time>
      </trkpt>
      <trkpt lat="41.778840" lon="2.291529">
        <ele>826.255</ele>
        <time>2021-06-12T20:10:15Z</time>
      </trkpt>
      <trkpt lat="41.778832" lon="2.291591">
        <ele>825.713</ele>
        <time>2021-06-12T20:10:19Z</time>
      </trkpt>
      <trkpt lat="41.778824" lon="2.291658">
        <ele>825.296</ele>
        <time>2021-06-12T20:10:22Z</time>
      </trkpt>
      <trkpt lat="41.778807" lon="2.291714">
        <ele>825.031</ele>
        <time>2021-06-12T20:10:26Z</time>
      </trkpt>
      <trkpt lat="41.778799" lon="2.291781">
        <ele>824.446</ele>
        <time>2021-06-12T20:10:31Z</time>
      </trkpt>
      <trkpt lat="41.778795" lon="2.291847">
        <ele>823.893</ele>
        <time>2021-06-12T20:10:34Z</time>
      </trkpt>
      <trkpt lat="41.778785" lon="2.291913">
        <ele>823.632</ele>
        <time>2021-06-12T20:10:38Z</time>
      </trkpt>
      <trkpt lat="41.778778" lon="2.291973">
        <ele>823.398</ele>
        <time>2021-06-12T20:10:41Z</time>
      </trkpt>
      <trkpt lat="41.778753" lon="2.292029">
        <ele>822.886</ele>
        <time>2021-06-12T20:10:46Z</time>
      </trkpt>
      <trkpt lat="41.778737" lon="2.292089">
        <ele>822.360</ele>
        <time>2021-06-12T20:10:50Z</time>
      </trkpt>
      <trkpt lat="41.778746" lon="2.292154">
        <ele>822.026</ele>
        <time>2021-06-12T20:10:54Z</time>
      </trkpt>
      <trkpt lat="41.778758" lon="2.292214">
        <ele>821.608</ele>
        <time>2021-06-12T20:10:58Z</time>
      </trkpt>
      <trkpt lat="41.778765" lon="2.292276">
        <ele>821.245</ele>
        <time>2021-06-12T20:11:02Z</time>
      </trkpt>
      <trkpt lat="41.778759" lon="2.292342">
        <ele>820.993</ele>
        <time>2021-06-12T20:11:06Z</time>
      </trkpt>
      <trkpt lat="41.778743" lon="2.292403">
        <ele>820.696</ele>
        <time>2021-06-12T20:11:10Z</time>
      </trkpt>
      <trkpt lat="41.778694" lon="2.292426">
        <ele>819.661</ele>
        <time>2021-06-12T20:11:14Z</time>
      </trkpt>
      <trkpt lat="41.778646" lon="2.292398">
        <ele>819.346</ele>
        <time>2021-06-12T20:11:18Z</time>
      </trkpt>
      <trkpt lat="41.778626" lon="2.292334">
        <ele>818.963</ele>
        <time>2021-06-12T20:11:21Z</time>
      </trkpt>
      <trkpt lat="41.778614" lon="2.292268">
        <ele>818.382</ele>
        <time>2021-06-12T20:11:24Z</time>
      </trkpt>
      <trkpt lat="41.778612" lon="2.292202">
        <ele>818.688</ele>
        <time>2021-06-12T20:11:28Z</time>
      </trkpt>
      <trkpt lat="41.778607" lon="2.292139">
        <ele>817.983</ele>
        <time>2021-06-12T20:11:32Z</time>
      </trkpt>
      <trkpt lat="41.778612" lon="2.292077">
        <ele>817.425</ele>
        <time>2021-06-12T20:11:36Z</time>
      </trkpt>
      <trkpt lat="41.778615" lon="2.292013">
        <ele>816.817</ele>
        <time>2021-06-12T20:11:40Z</time>
      </trkpt>
      <trkpt lat="41.778622" lon="2.291953">
        <ele>816.208</ele>
        <time>2021-06-12T20:11:44Z</time>
      </trkpt>
      <trkpt lat="41.778618" lon="2.291888">
        <ele>815.785</ele>
        <time>2021-06-12T20:11:48Z</time>
      </trkpt>
      <trkpt lat="41.778626" lon="2.291822">
        <ele>815.253</ele>
        <time>2021-06-12T20:11:53Z</time>
      </trkpt>
      <trkpt lat="41.778610" lon="2.291759">
        <ele>814.716</ele>
        <time>2021-06-12T20:11:58Z</time>
      </trkpt>
      <trkpt lat="41.778595" lon="2.291697">
        <ele>814.081</ele>
        <time>2021-06-12T20:12:03Z</time>
      </trkpt>
      <trkpt lat="41.778568" lon="2.291648">
        <ele>813.686</ele>
        <time>2021-06-12T20:12:07Z</time>
      </trkpt>
      <trkpt lat="41.778564" lon="2.291584">
        <ele>813.163</ele>
        <time>2021-06-12T20:12:11Z</time>
      </trkpt>
      <trkpt lat="41.778566" lon="2.291520">
        <ele>812.982</ele>
        <time>2021-06-12T20:12:15Z</time>
      </trkpt>
      <trkpt lat="41.778559" lon="2.291456">
        <ele>812.468</ele>
        <time>2021-06-12T20:12:20Z</time>
      </trkpt>
      <trkpt lat="41.778560" lon="2.291391">
        <ele>812.293</ele>
        <time>2021-06-12T20:12:24Z</time>
      </trkpt>
      <trkpt lat="41.778552" lon="2.291325">
        <ele>811.465</ele>
        <time>2021-06-12T20:12:29Z</time>
      </trkpt>
      <trkpt lat="41.778552" lon="2.291263">
        <ele>810.921</ele>
        <time>2021-06-12T20:12:33Z</time>
      </trkpt>
      <trkpt lat="41.778561" lon="2.291202">
        <ele>811.008</ele>
        <time>2021-06-12T20:12:36Z</time>
      </trkpt>
      <trkpt lat="41.778573" lon="2.291134">
        <ele>810.336</ele>
        <time>2021-06-12T20:12:40Z</time>
      </trkpt>
      <trkpt lat="41.778594" lon="2.291074">
        <ele>810.014</ele>
        <time>2021-06-12T20:12:44Z</time>
      </trkpt>
      <trkpt lat="41.778620" lon="2.291020">
        <ele>809.667</ele>
        <time>2021-06-12T20:12:49Z</time>
      </trkpt>
      <trkpt lat="41.778645" lon="2.290966">
        <ele>809.222</ele>
        <time>2021-06-12T20:12:53Z</time>
      </trkpt>
      <trkpt lat="41.778666" lon="2.290910">
        <ele>808.577</ele>
        <time>2021-06-12T20:12:58Z</time>
      </trkpt>
      <trkpt lat="41.778677" lon="2.290844">
        <ele>808.384</ele>
        <time>2021-06-12T20:13:01Z</time>
      </trkpt>
      <trkpt lat="41.778693" lon="2.290783">
        <ele>808.213</ele>
        <time>2021-06-12T20:13:05Z</time>
      </trkpt>
      <trkpt lat="41.778725" lon="2.290733">
        <ele>807.739</ele>
        <time>2021-06-12T20:13:08Z</time>
      </trkpt>
      <trkpt lat="41.778763" lon="2.290689">
        <ele>807.416</ele>
        <time>2021-06-12T20:13:12Z</time>
      </trkpt>
      <trkpt lat="41.778776" lon="2.290616">
        <ele>807.176</ele>
        <time>2021-06-12T20:13:16Z</time>
      </trkpt>
      <trkpt lat="41.778793" lon="2.290552">
        <ele>806.813</ele>
        <time>2021-06-12T20:13:20Z</time>
      </trkpt>
      <trkpt lat="41.778802" lon="2.290487">
        <ele>806.008</ele>
        <time>2021-06-12T20:13:25Z</time>
      </trkpt>
      <trkpt lat="41.778821" lon="2.290430">
        <ele>805.848</ele>
        <time>2021-06-12T20:13:30Z</time>
      </trkpt>
      <trkpt lat="41.778838" lon="2.290371">
        <ele>805.296</ele>
        <time>2021-06-12T20:13:35Z</time>
      </trkpt>
      <trkpt lat="41.778847" lon="2.290304">
        <ele>804.339</ele>
        <time>2021-06-12T20:13:39Z</time>
      </trkpt>
      <trkpt lat="41.778875" lon="2.290253">
        <ele>804.144</ele>
        <time>2021-06-12T20:13:43Z</time>
      </trkpt>
      <trkpt lat="41.778899" lon="2.290197">
        <ele>803.829</ele>
        <time>2021-06-12T20:13:48Z</time>
      </trkpt>
      <trkpt lat="41.778919" lon="2.290134">
        <ele>803.486</ele>
        <time>2021-06-12T20:13:53Z</time>
      </trkpt>
      <trkpt lat="41.778926" lon="2.290072">
        <ele>803.065</ele>
        <time>2021-06-12T20:13:58Z</time>
      </trkpt>
      <trkpt lat="41.778902" lon="2.290012">
        <ele>802.791</ele>
        <time>2021-06-12T20:14:03Z</time>
      </trkpt>
      <trkpt lat="41.778877" lon="2.289955">
        <ele>802.463</ele>
        <time>2021-06-12T20:14:07Z</time>
      </trkpt>
      <trkpt lat="41.778856" lon="2.289897">
        <ele>802.144</ele>
        <time>2021-06-12T20:14:11Z</time>
      </trkpt>
      <trkpt lat="41.778843" lon="2.289838">
        <ele>801.918</ele>
        <time>2021-06-12T20:14:15Z</time>
      </trkpt>
      <trkpt lat="41.778822" lon="2.289783">
        <ele>801.408</ele>
        <time>2021-06-12T20:14:19Z</time>
      </trkpt>
      <trkpt lat="41.778800" lon="2.289729">
        <ele>801.293</ele>
        <time>2021-06-12T20:14:23Z</time>
      </trkpt>
      <trkpt lat="41.778761" lon="2.289700">
        <ele>801.161</ele>
        <time>2021-06-12T20:14:26Z</time>
      </trkpt>
      <trkpt lat="41.778712" lon="2.289681">
        <ele>800.844</ele>
        <time>2021-06-12T20:14:30Z</time>
      </trkpt>
      <trkpt lat="41.778670" lon="2.289657">
        <ele>800.849</ele>
        <time>2021-06-12T20:14:34Z</time>
      </trkpt>
      <trkpt lat="41.778619" lon="2.289665">
        <ele>800.464</ele>
        <time>2021-06-12T20:14:39Z</time>
      </trkpt>
      <trkpt lat="41.778575" lon="2.289648">
        <ele>798.721</ele>
        <time>2021-06-12T20:14:54Z</time>
      </trkpt>
      <trkpt lat="41.778538" lon="2.289598">
        <ele>799.360</ele>
        <time>2021-06-12T20:15:35Z</time>
      </trkpt>
      <trkpt lat="41.778492" lon="2.289593">
        <ele>798.926</ele>
        <time>2021-06-12T20:15:45Z</time>
      </trkpt>
      <trkpt lat="41.778451" lon="2.289554">
        <ele>798.556</ele>
        <time>2021-06-12T20:15:50Z</time>
      </trkpt>
      <trkpt lat="41.778414" lon="2.289511">
        <ele>798.159</ele>
        <time>2021-06-12T20:15:54Z</time>
      </trkpt>
      <trkpt lat="41.778386" lon="2.289457">
        <ele>797.514</ele>
        <time>2021-06-12T20:15:58Z</time>
      </trkpt>
      <trkpt lat="41.778356" lon="2.289410">
        <ele>796.508</ele>
        <time>2021-06-12T20:16:02Z</time>
      </trkpt>
      <trkpt lat="41.778317" lon="2.289376">
        <ele>796.282</ele>
        <time>2021-06-12T20:16:06Z</time>
      </trkpt>
      <trkpt lat="41.778293" lon="2.289323">
        <ele>795.820</ele>
        <time>2021-06-12T20:16:28Z</time>
      </trkpt>
      <trkpt lat="41.778262" lon="2.289271">
        <ele>795.083</ele>
        <time>2021-06-12T20:16:33Z</time>
      </trkpt>
      <trkpt lat="41.778239" lon="2.289218">
        <ele>794.638</ele>
        <time>2021-06-12T20:16:37Z</time>
      </trkpt>
      <trkpt lat="41.778208" lon="2.289157">
        <ele>794.253</ele>
        <time>2021-06-12T20:16:41Z</time>
      </trkpt>
      <trkpt lat="41.778175" lon="2.289114">
        <ele>793.790</ele>
        <time>2021-06-12T20:16:45Z</time>
      </trkpt>
      <trkpt lat="41.778133" lon="2.289075">
        <ele>792.929</ele>
        <time>2021-06-12T20:16:49Z</time>
      </trkpt>
      <trkpt lat="41.778108" lon="2.289023">
        <ele>792.585</ele>
        <time>2021-06-12T20:16:53Z</time>
      </trkpt>
      <trkpt lat="41.778088" lon="2.288963">
        <ele>791.912</ele>
        <time>2021-06-12T20:16:57Z</time>
      </trkpt>
      <trkpt lat="41.778061" lon="2.288912">
        <ele>791.132</ele>
        <time>2021-06-12T20:17:00Z</time>
      </trkpt>
      <trkpt lat="41.778024" lon="2.288875">
        <ele>790.705</ele>
        <time>2021-06-12T20:17:04Z</time>
      </trkpt>
      <trkpt lat="41.777991" lon="2.288832">
        <ele>790.408</ele>
        <time>2021-06-12T20:17:07Z</time>
      </trkpt>
      <trkpt lat="41.777951" lon="2.288799">
        <ele>789.968</ele>
        <time>2021-06-12T20:17:10Z</time>
      </trkpt>
      <trkpt lat="41.777903" lon="2.288775">
        <ele>789.466</ele>
        <time>2021-06-12T20:17:14Z</time>
      </trkpt>
      <trkpt lat="41.777853" lon="2.288773">
        <ele>788.819</ele>
        <time>2021-06-12T20:17:18Z</time>
      </trkpt>
      <trkpt lat="41.777806" lon="2.288764">
        <ele>788.554</ele>
        <time>2021-06-12T20:17:22Z</time>
      </trkpt>
      <trkpt lat="41.777755" lon="2.288750">
        <ele>788.119</ele>
        <time>2021-06-12T20:17:26Z</time>
      </trkpt>
      <trkpt lat="41.777702" lon="2.288746">
        <ele>787.746</ele>
        <time>2021-06-12T20:17:29Z</time>
      </trkpt>
      <trkpt lat="41.777656" lon="2.288760">
        <ele>787.155</ele>
        <time>2021-06-12T20:17:33Z</time>
      </trkpt>
      <trkpt lat="41.777605" lon="2.288764">
        <ele>786.251</ele>
        <time>2021-06-12T20:17:37Z</time>
      </trkpt>
      <trkpt lat="41.777560" lon="2.288792">
        <ele>786.069</ele>
        <time>2021-06-12T20:17:41Z</time>
      </trkpt>
      <trkpt lat="41.777515" lon="2.288783">
        <ele>785.504</ele>
        <time>2021-06-12T20:17:45Z</time>
      </trkpt>
      <trkpt lat="41.777467" lon="2.288790">
        <ele>784.924</ele>
        <time>2021-06-12T20:17:49Z</time>
      </trkpt>
      <trkpt lat="41.777422" lon="2.288775">
        <ele>784.508</ele>
        <time>2021-06-12T20:17:54Z</time>
      </trkpt>
      <trkpt lat="41.777381" lon="2.288744">
        <ele>783.773</ele>
        <time>2021-06-12T20:17:57Z</time>
      </trkpt>
      <trkpt lat="41.777345" lon="2.288704">
        <ele>783.211</ele>
        <time>2021-06-12T20:18:01Z</time>
      </trkpt>
      <trkpt lat="41.777306" lon="2.288664">
        <ele>782.864</ele>
        <time>2021-06-12T20:18:05Z</time>
      </trkpt>
      <trkpt lat="41.777264" lon="2.288631">
        <ele>782.489</ele>
        <time>2021-06-12T20:18:08Z</time>
      </trkpt>
      <trkpt lat="41.777222" lon="2.288606">
        <ele>782.514</ele>
        <time>2021-06-12T20:18:12Z</time>
      </trkpt>
      <trkpt lat="41.777175" lon="2.288592">
        <ele>781.661</ele>
        <time>2021-06-12T20:18:17Z</time>
      </trkpt>
      <trkpt lat="41.777128" lon="2.288566">
        <ele>781.170</ele>
        <time>2021-06-12T20:18:21Z</time>
      </trkpt>
      <trkpt lat="41.777080" lon="2.288556">
        <ele>780.596</ele>
        <time>2021-06-12T20:18:25Z</time>
      </trkpt>
      <trkpt lat="41.777033" lon="2.288548">
        <ele>780.134</ele>
        <time>2021-06-12T20:18:29Z</time>
      </trkpt>
      <trkpt lat="41.776987" lon="2.288546">
        <ele>779.955</ele>
        <time>2021-06-12T20:18:32Z</time>
      </trkpt>
      <trkpt lat="41.776942" lon="2.288520">
        <ele>779.510</ele>
        <time>2021-06-12T20:18:36Z</time>
      </trkpt>
      <trkpt lat="41.776897" lon="2.288530">
        <ele>779.008</ele>
        <time>2021-06-12T20:18:40Z</time>
      </trkpt>
      <trkpt lat="41.776847" lon="2.288517">
        <ele>779.010</ele>
        <time>2021-06-12T20:18:43Z</time>
      </trkpt>
      <trkpt lat="41.776802" lon="2.288497">
        <ele>778.498</ele>
        <time>2021-06-12T20:18:47Z</time>
      </trkpt>
      <trkpt lat="41.776762" lon="2.288451">
        <ele>777.541</ele>
        <time>2021-06-12T20:18:51Z</time>
      </trkpt>
      <trkpt lat="41.776721" lon="2.288417">
        <ele>777.516</ele>
        <time>2021-06-12T20:18:54Z</time>
      </trkpt>
      <trkpt lat="41.776683" lon="2.288373">
        <ele>776.581</ele>
        <time>2021-06-12T20:18:58Z</time>
      </trkpt>
      <trkpt lat="41.776657" lon="2.288319">
        <ele>776.078</ele>
        <time>2021-06-12T20:19:02Z</time>
      </trkpt>
      <trkpt lat="41.776619" lon="2.288281">
        <ele>775.367</ele>
        <time>2021-06-12T20:19:07Z</time>
      </trkpt>
      <trkpt lat="41.776589" lon="2.288228">
        <ele>774.763</ele>
        <time>2021-06-12T20:19:12Z</time>
      </trkpt>
      <trkpt lat="41.776571" lon="2.288171">
        <ele>774.399</ele>
        <time>2021-06-12T20:19:15Z</time>
      </trkpt>
      <trkpt lat="41.776575" lon="2.288102">
        <ele>773.907</ele>
        <time>2021-06-12T20:19:20Z</time>
      </trkpt>
      <trkpt lat="41.776561" lon="2.288036">
        <ele>773.127</ele>
        <time>2021-06-12T20:19:24Z</time>
      </trkpt>
      <trkpt lat="41.776546" lon="2.287975">
        <ele>772.508</ele>
        <time>2021-06-12T20:19:28Z</time>
      </trkpt>
      <trkpt lat="41.776549" lon="2.287912">
        <ele>771.926</ele>
        <time>2021-06-12T20:19:32Z</time>
      </trkpt>
      <trkpt lat="41.776526" lon="2.287859">
        <ele>771.214</ele>
        <time>2021-06-12T20:19:37Z</time>
      </trkpt>
      <trkpt lat="41.776489" lon="2.287822">
        <ele>770.467</ele>
        <time>2021-06-12T20:19:41Z</time>
      </trkpt>
      <trkpt lat="41.776462" lon="2.287766">
        <ele>769.912</ele>
        <time>2021-06-12T20:19:46Z</time>
      </trkpt>
      <trkpt lat="41.776431" lon="2.287719">
        <ele>769.417</ele>
        <time>2021-06-12T20:19:49Z</time>
      </trkpt>
      <trkpt lat="41.776406" lon="2.287665">
        <ele>768.934</ele>
        <time>2021-06-12T20:19:53Z</time>
      </trkpt>
      <trkpt lat="41.776380" lon="2.287609">
        <ele>768.363</ele>
        <time>2021-06-12T20:19:57Z</time>
      </trkpt>
      <trkpt lat="41.776357" lon="2.287555">
        <ele>767.759</ele>
        <time>2021-06-12T20:20:02Z</time>
      </trkpt>
      <trkpt lat="41.776351" lon="2.287495">
        <ele>767.284</ele>
        <time>2021-06-12T20:20:06Z</time>
      </trkpt>
      <trkpt lat="41.776343" lon="2.287431">
        <ele>766.407</ele>
        <time>2021-06-12T20:20:10Z</time>
      </trkpt>
      <trkpt lat="41.776344" lon="2.287368">
        <ele>765.917</ele>
        <time>2021-06-12T20:20:14Z</time>
      </trkpt>
      <trkpt lat="41.776332" lon="2.287304">
        <ele>765.308</ele>
        <time>2021-06-12T20:20:18Z</time>
      </trkpt>
      <trkpt lat="41.776297" lon="2.287250">
        <ele>764.925</ele>
        <time>2021-06-12T20:20:21Z</time>
      </trkpt>
      <trkpt lat="41.776264" lon="2.287203">
        <ele>764.793</ele>
        <time>2021-06-12T20:20:24Z</time>
      </trkpt>
      <trkpt lat="41.776231" lon="2.287155">
        <ele>764.346</ele>
        <time>2021-06-12T20:20:28Z</time>
      </trkpt>
      <trkpt lat="41.776203" lon="2.287106">
        <ele>763.611</ele>
        <time>2021-06-12T20:20:31Z</time>
      </trkpt>
      <trkpt lat="41.776174" lon="2.287059">
        <ele>763.136</ele>
        <time>2021-06-12T20:20:35Z</time>
      </trkpt>
      <trkpt lat="41.776150" lon="2.287007">
        <ele>762.663</ele>
        <time>2021-06-12T20:20:39Z</time>
      </trkpt>
      <trkpt lat="41.776119" lon="2.286957">
        <ele>762.182</ele>
        <time>2021-06-12T20:20:43Z</time>
      </trkpt>
      <trkpt lat="41.776081" lon="2.286916">
        <ele>761.548</ele>
        <time>2021-06-12T20:20:47Z</time>
      </trkpt>
      <trkpt lat="41.776045" lon="2.286872">
        <ele>761.053</ele>
        <time>2021-06-12T20:20:51Z</time>
      </trkpt>
      <trkpt lat="41.776006" lon="2.286833">
        <ele>760.504</ele>
        <time>2021-06-12T20:20:55Z</time>
      </trkpt>
      <trkpt lat="41.775988" lon="2.286776">
        <ele>760.214</ele>
        <time>2021-06-12T20:20:58Z</time>
      </trkpt>
      <trkpt lat="41.775986" lon="2.286715">
        <ele>759.508</ele>
        <time>2021-06-12T20:21:01Z</time>
      </trkpt>
      <trkpt lat="41.775979" lon="2.286656">
        <ele>759.182</ele>
        <time>2021-06-12T20:21:05Z</time>
      </trkpt>
      <trkpt lat="41.775975" lon="2.286583">
        <ele>758.410</ele>
        <time>2021-06-12T20:21:09Z</time>
      </trkpt>
      <trkpt lat="41.775960" lon="2.286515">
        <ele>758.093</ele>
        <time>2021-06-12T20:21:13Z</time>
      </trkpt>
      <trkpt lat="41.775936" lon="2.286456">
        <ele>757.058</ele>
        <time>2021-06-12T20:21:17Z</time>
      </trkpt>
      <trkpt lat="41.775915" lon="2.286394">
        <ele>756.983</ele>
        <time>2021-06-12T20:21:21Z</time>
      </trkpt>
      <trkpt lat="41.775898" lon="2.286334">
        <ele>756.420</ele>
        <time>2021-06-12T20:21:25Z</time>
      </trkpt>
      <trkpt lat="41.775876" lon="2.286279">
        <ele>755.989</ele>
        <time>2021-06-12T20:21:29Z</time>
      </trkpt>
      <trkpt lat="41.775842" lon="2.286232">
        <ele>755.455</ele>
        <time>2021-06-12T20:21:32Z</time>
      </trkpt>
      <trkpt lat="41.775813" lon="2.286174">
        <ele>754.957</ele>
        <time>2021-06-12T20:21:36Z</time>
      </trkpt>
      <trkpt lat="41.775781" lon="2.286121">
        <ele>754.600</ele>
        <time>2021-06-12T20:21:39Z</time>
      </trkpt>
      <trkpt lat="41.775737" lon="2.286079">
        <ele>754.420</ele>
        <time>2021-06-12T20:21:42Z</time>
      </trkpt>
      <trkpt lat="41.775694" lon="2.286050">
        <ele>754.008</ele>
        <time>2021-06-12T20:21:46Z</time>
      </trkpt>
      <trkpt lat="41.775656" lon="2.286013">
        <ele>753.582</ele>
        <time>2021-06-12T20:21:50Z</time>
      </trkpt>
      <trkpt lat="41.775611" lon="2.285979">
        <ele>752.950</ele>
        <time>2021-06-12T20:21:54Z</time>
      </trkpt>
      <trkpt lat="41.775572" lon="2.285946">
        <ele>752.323</ele>
        <time>2021-06-12T20:21:58Z</time>
      </trkpt>
      <trkpt lat="41.775533" lon="2.285909">
        <ele>751.658</ele>
        <time>2021-06-12T20:22:02Z</time>
      </trkpt>
      <trkpt lat="41.775487" lon="2.285887">
        <ele>751.393</ele>
        <time>2021-06-12T20:22:06Z</time>
      </trkpt>
      <trkpt lat="41.775445" lon="2.285857">
        <ele>750.770</ele>
        <time>2021-06-12T20:22:09Z</time>
      </trkpt>
      <trkpt lat="41.775406" lon="2.285818">
        <ele>749.829</ele>
        <time>2021-06-12T20:22:14Z</time>
      </trkpt>
      <trkpt lat="41.775377" lon="2.285766">
        <ele>749.265</ele>
        <time>2021-06-12T20:22:19Z</time>
      </trkpt>
      <trkpt lat="41.775349" lon="2.285710">
        <ele>748.891</ele>
        <time>2021-06-12T20:22:23Z</time>
      </trkpt>
      <trkpt lat="41.775329" lon="2.285650">
        <ele>748.281</ele>
        <time>2021-06-12T20:22:27Z</time>
      </trkpt>
      <trkpt lat="41.775306" lon="2.285593">
        <ele>747.919</ele>
        <time>2021-06-12T20:22:32Z</time>
      </trkpt>
      <trkpt lat="41.775282" lon="2.285534">
        <ele>747.208</ele>
        <time>2021-06-12T20:22:35Z</time>
      </trkpt>
      <trkpt lat="41.775254" lon="2.285475">
        <ele>746.846</ele>
        <time>2021-06-12T20:22:38Z</time>
      </trkpt>
      <trkpt lat="41.775230" lon="2.285411">
        <ele>746.464</ele>
        <time>2021-06-12T20:22:42Z</time>
      </trkpt>
      <trkpt lat="41.775205" lon="2.285354">
        <ele>745.637</ele>
        <time>2021-06-12T20:22:45Z</time>
      </trkpt>
      <trkpt lat="41.775187" lon="2.285295">
        <ele>745.212</ele>
        <time>2021-06-12T20:22:48Z</time>
      </trkpt>
      <trkpt lat="41.775162" lon="2.285242">
        <ele>745.067</ele>
        <time>2021-06-12T20:22:51Z</time>
      </trkpt>
      <trkpt lat="41.775142" lon="2.285183">
        <ele>744.434</ele>
        <time>2021-06-12T20:22:55Z</time>
      </trkpt>
      <trkpt lat="41.775125" lon="2.285126">
        <ele>743.933</ele>
        <time>2021-06-12T20:22:59Z</time>
      </trkpt>
      <trkpt lat="41.775110" lon="2.285066">
        <ele>743.299</ele>
        <time>2021-06-12T20:23:03Z</time>
      </trkpt>
      <trkpt lat="41.775091" lon="2.285005">
        <ele>742.532</ele>
        <time>2021-06-12T20:23:07Z</time>
      </trkpt>
      <trkpt lat="41.775103" lon="2.284937">
        <ele>741.992</ele>
        <time>2021-06-12T20:23:11Z</time>
      </trkpt>
      <trkpt lat="41.775124" lon="2.284874">
        <ele>741.611</ele>
        <time>2021-06-12T20:23:14Z</time>
      </trkpt>
      <trkpt lat="41.775151" lon="2.284813">
        <ele>741.108</ele>
        <time>2021-06-12T20:23:18Z</time>
      </trkpt>
      <trkpt lat="41.775177" lon="2.284757">
        <ele>740.610</ele>
        <time>2021-06-12T20:23:21Z</time>
      </trkpt>
      <trkpt lat="41.775215" lon="2.284710">
        <ele>739.968</ele>
        <time>2021-06-12T20:23:26Z</time>
      </trkpt>
      <trkpt lat="41.775238" lon="2.284656">
        <ele>739.431</ele>
        <time>2021-06-12T20:23:29Z</time>
      </trkpt>
      <trkpt lat="41.775266" lon="2.284597">
        <ele>738.996</ele>
        <time>2021-06-12T20:23:34Z</time>
      </trkpt>
      <trkpt lat="41.775286" lon="2.284532">
        <ele>738.351</ele>
        <time>2021-06-12T20:23:37Z</time>
      </trkpt>
      <trkpt lat="41.775299" lon="2.284474">
        <ele>738.198</ele>
        <time>2021-06-12T20:23:41Z</time>
      </trkpt>
      <trkpt lat="41.775316" lon="2.284415">
        <ele>737.427</ele>
        <time>2021-06-12T20:23:45Z</time>
      </trkpt>
      <trkpt lat="41.775308" lon="2.284348">
        <ele>736.513</ele>
        <time>2021-06-12T20:23:49Z</time>
      </trkpt>
      <trkpt lat="41.775280" lon="2.284289">
        <ele>736.781</ele>
        <time>2021-06-12T20:23:52Z</time>
      </trkpt>
      <trkpt lat="41.775262" lon="2.284231">
        <ele>736.461</ele>
        <time>2021-06-12T20:23:55Z</time>
      </trkpt>
      <trkpt lat="41.775244" lon="2.284174">
        <ele>735.617</ele>
        <time>2021-06-12T20:23:59Z</time>
      </trkpt>
      <trkpt lat="41.775224" lon="2.284119">
        <ele>735.008</ele>
        <time>2021-06-12T20:24:02Z</time>
      </trkpt>
      <trkpt lat="41.775190" lon="2.284070">
        <ele>734.445</ele>
        <time>2021-06-12T20:24:06Z</time>
      </trkpt>
      <trkpt lat="41.775179" lon="2.284009">
        <ele>733.933</ele>
        <time>2021-06-12T20:24:10Z</time>
      </trkpt>
      <trkpt lat="41.775163" lon="2.283951">
        <ele>733.396</ele>
        <time>2021-06-12T20:24:15Z</time>
      </trkpt>
      <trkpt lat="41.775143" lon="2.283893">
        <ele>732.571</ele>
        <time>2021-06-12T20:24:19Z</time>
      </trkpt>
      <trkpt lat="41.775118" lon="2.283842">
        <ele>732.016</ele>
        <time>2021-06-12T20:24:23Z</time>
      </trkpt>
      <trkpt lat="41.775089" lon="2.283791">
        <ele>731.493</ele>
        <time>2021-06-12T20:24:27Z</time>
      </trkpt>
      <trkpt lat="41.775064" lon="2.283735">
        <ele>731.232</ele>
        <time>2021-06-12T20:24:30Z</time>
      </trkpt>
      <trkpt lat="41.775049" lon="2.283676">
        <ele>730.698</ele>
        <time>2021-06-12T20:24:34Z</time>
      </trkpt>
      <trkpt lat="41.775030" lon="2.283617">
        <ele>730.085</ele>
        <time>2021-06-12T20:24:38Z</time>
      </trkpt>
      <trkpt lat="41.775016" lon="2.283555">
        <ele>729.489</ele>
        <time>2021-06-12T20:24:42Z</time>
      </trkpt>
      <trkpt lat="41.774999" lon="2.283492">
        <ele>728.617</ele>
        <time>2021-06-12T20:24:46Z</time>
      </trkpt>
      <trkpt lat="41.774992" lon="2.283429">
        <ele>728.708</ele>
        <time>2021-06-12T20:24:49Z</time>
      </trkpt>
      <trkpt lat="41.774979" lon="2.283365">
        <ele>728.355</ele>
        <time>2021-06-12T20:24:53Z</time>
      </trkpt>
      <trkpt lat="41.774977" lon="2.283296">
        <ele>727.993</ele>
        <time>2021-06-12T20:24:57Z</time>
      </trkpt>
      <trkpt lat="41.774957" lon="2.283240">
        <ele>726.876</ele>
        <time>2021-06-12T20:25:00Z</time>
      </trkpt>
      <trkpt lat="41.774949" lon="2.283171">
        <ele>727.641</ele>
        <time>2021-06-12T20:25:04Z</time>
      </trkpt>
      <trkpt lat="41.774965" lon="2.283112">
        <ele>724.026</ele>
        <time>2021-06-12T20:25:07Z</time>
      </trkpt>
      <trkpt lat="41.774995" lon="2.283051">
        <ele>726.323</ele>
        <time>2021-06-12T20:25:12Z</time>
      </trkpt>
      <trkpt lat="41.774995" lon="2.283051">
        <ele>726.362</ele>
        <time>2021-06-12T20:25:12Z</time>
      </trkpt>
      <trkpt lat="41.775019" lon="2.282989">
        <ele>726.168</ele>
        <time>2021-06-12T20:25:14Z</time>
      </trkpt>
      <trkpt lat="41.775036" lon="2.282929">
        <ele>725.739</ele>
        <time>2021-06-12T20:25:18Z</time>
      </trkpt>
      <trkpt lat="41.775051" lon="2.282861">
        <ele>725.401</ele>
        <time>2021-06-12T20:25:22Z</time>
      </trkpt>
      <trkpt lat="41.775070" lon="2.282800">
        <ele>725.121</ele>
        <time>2021-06-12T20:25:25Z</time>
      </trkpt>
      <trkpt lat="41.775092" lon="2.282735">
        <ele>724.708</ele>
        <time>2021-06-12T20:25:29Z</time>
      </trkpt>
      <trkpt lat="41.775128" lon="2.282683">
        <ele>724.180</ele>
        <time>2021-06-12T20:25:33Z</time>
      </trkpt>
      <trkpt lat="41.775176" lon="2.282639">
        <ele>723.528</ele>
        <time>2021-06-12T20:25:37Z</time>
      </trkpt>
      <trkpt lat="41.775220" lon="2.282623">
        <ele>723.171</ele>
        <time>2021-06-12T20:25:40Z</time>
      </trkpt>
      <trkpt lat="41.775267" lon="2.282604">
        <ele>722.736</ele>
        <time>2021-06-12T20:25:45Z</time>
      </trkpt>
      <trkpt lat="41.775314" lon="2.282579">
        <ele>721.081</ele>
        <time>2021-06-12T20:25:48Z</time>
      </trkpt>
      <trkpt lat="41.775348" lon="2.282540">
        <ele>723.538</ele>
        <time>2021-06-12T20:25:52Z</time>
      </trkpt>
      <trkpt lat="41.775394" lon="2.282519">
        <ele>722.527</ele>
        <time>2021-06-12T20:25:55Z</time>
      </trkpt>
      <trkpt lat="41.775424" lon="2.282465">
        <ele>720.633</ele>
        <time>2021-06-12T20:25:59Z</time>
      </trkpt>
      <trkpt lat="41.775385" lon="2.282430">
        <ele>719.876</ele>
        <time>2021-06-12T20:26:07Z</time>
      </trkpt>
      <trkpt lat="41.775335" lon="2.282423">
        <ele>719.390</ele>
        <time>2021-06-12T20:26:12Z</time>
      </trkpt>
      <trkpt lat="41.775284" lon="2.282416">
        <ele>719.119</ele>
        <time>2021-06-12T20:26:15Z</time>
      </trkpt>
      <trkpt lat="41.775236" lon="2.282427">
        <ele>718.508</ele>
        <time>2021-06-12T20:26:40Z</time>
      </trkpt>
      <trkpt lat="41.775275" lon="2.282397">
        <ele>714.054</ele>
        <time>2021-06-12T20:30:45Z</time>
      </trkpt>
      <trkpt lat="41.775278" lon="2.282327">
        <ele>710.672</ele>
        <time>2021-06-12T20:31:05Z</time>
      </trkpt>
      <trkpt lat="41.775265" lon="2.282265">
        <ele>709.915</ele>
        <time>2021-06-12T20:31:08Z</time>
      </trkpt>
      <trkpt lat="41.775245" lon="2.282204">
        <ele>709.270</ele>
        <time>2021-06-12T20:31:13Z</time>
      </trkpt>
      <trkpt lat="41.775208" lon="2.282163">
        <ele>707.615</ele>
        <time>2021-06-12T20:31:21Z</time>
      </trkpt>
      <trkpt lat="41.775201" lon="2.282099">
        <ele>706.442</ele>
        <time>2021-06-12T20:31:30Z</time>
      </trkpt>
      <trkpt lat="41.775229" lon="2.282044">
        <ele>705.361</ele>
        <time>2021-06-12T20:31:35Z</time>
      </trkpt>
      <trkpt lat="41.775222" lon="2.281984">
        <ele>704.097</ele>
        <time>2021-06-12T20:31:42Z</time>
      </trkpt>
      <trkpt lat="41.775207" lon="2.281924">
        <ele>702.548</ele>
        <time>2021-06-12T20:31:50Z</time>
      </trkpt>
      <trkpt lat="41.775198" lon="2.281865">
        <ele>701.661</ele>
        <time>2021-06-12T20:31:54Z</time>
      </trkpt>
      <trkpt lat="41.775161" lon="2.281825">
        <ele>700.217</ele>
        <time>2021-06-12T20:32:01Z</time>
      </trkpt>
      <trkpt lat="41.775139" lon="2.281765">
        <ele>696.808</ele>
        <time>2021-06-12T20:32:18Z</time>
      </trkpt>
      <trkpt lat="41.775143" lon="2.281704">
        <ele>695.851</ele>
        <time>2021-06-12T20:32:22Z</time>
      </trkpt>
      <trkpt lat="41.775129" lon="2.281645">
        <ele>695.259</ele>
        <time>2021-06-12T20:32:28Z</time>
      </trkpt>
      <trkpt lat="41.775099" lon="2.281599">
        <ele>693.512</ele>
        <time>2021-06-12T20:32:37Z</time>
      </trkpt>
      <trkpt lat="41.775054" lon="2.281578">
        <ele>692.057</ele>
        <time>2021-06-12T20:32:43Z</time>
      </trkpt>
      <trkpt lat="41.775035" lon="2.281521">
        <ele>690.522</ele>
        <time>2021-06-12T20:32:49Z</time>
      </trkpt>
      <trkpt lat="41.775012" lon="2.281468">
        <ele>688.829</ele>
        <time>2021-06-12T20:33:00Z</time>
      </trkpt>
      <trkpt lat="41.775017" lon="2.281406">
        <ele>687.018</ele>
        <time>2021-06-12T20:33:09Z</time>
      </trkpt>
      <trkpt lat="41.774986" lon="2.281361">
        <ele>685.354</ele>
        <time>2021-06-12T20:33:18Z</time>
      </trkpt>
      <trkpt lat="41.774956" lon="2.281313">
        <ele>683.863</ele>
        <time>2021-06-12T20:33:25Z</time>
      </trkpt>
      <trkpt lat="41.774922" lon="2.281269">
        <ele>682.544</ele>
        <time>2021-06-12T20:33:32Z</time>
      </trkpt>
      <trkpt lat="41.774888" lon="2.281228">
        <ele>681.318</ele>
        <time>2021-06-12T20:33:39Z</time>
      </trkpt>
      <trkpt lat="41.774855" lon="2.281178">
        <ele>680.308</ele>
        <time>2021-06-12T20:33:45Z</time>
      </trkpt>
      <trkpt lat="41.774819" lon="2.281138">
        <ele>678.163</ele>
        <time>2021-06-12T20:33:57Z</time>
      </trkpt>
      <trkpt lat="41.774790" lon="2.281088">
        <ele>676.111</ele>
        <time>2021-06-12T20:34:06Z</time>
      </trkpt>
      <trkpt lat="41.774750" lon="2.281055">
        <ele>675.084</ele>
        <time>2021-06-12T20:34:12Z</time>
      </trkpt>
      <trkpt lat="41.774728" lon="2.280994">
        <ele>674.019</ele>
        <time>2021-06-12T20:34:17Z</time>
      </trkpt>
      <trkpt lat="41.774703" lon="2.280942">
        <ele>673.374</ele>
        <time>2021-06-12T20:34:21Z</time>
      </trkpt>
      <trkpt lat="41.774686" lon="2.280886">
        <ele>672.581</ele>
        <time>2021-06-12T20:34:26Z</time>
      </trkpt>
      <trkpt lat="41.774654" lon="2.280842">
        <ele>671.330</ele>
        <time>2021-06-12T20:34:37Z</time>
      </trkpt>
      <trkpt lat="41.774610" lon="2.280822">
        <ele>669.366</ele>
        <time>2021-06-12T20:34:46Z</time>
      </trkpt>
      <trkpt lat="41.774569" lon="2.280794">
        <ele>668.215</ele>
        <time>2021-06-12T20:34:54Z</time>
      </trkpt>
      <trkpt lat="41.774535" lon="2.280751">
        <ele>667.165</ele>
        <time>2021-06-12T20:34:59Z</time>
      </trkpt>
      <trkpt lat="41.774521" lon="2.280691">
        <ele>666.311</ele>
        <time>2021-06-12T20:35:05Z</time>
      </trkpt>
      <trkpt lat="41.774515" lon="2.280630">
        <ele>664.808</ele>
        <time>2021-06-12T20:35:11Z</time>
      </trkpt>
      <trkpt lat="41.774496" lon="2.280574">
        <ele>663.748</ele>
        <time>2021-06-12T20:35:18Z</time>
      </trkpt>
      <trkpt lat="41.774472" lon="2.280521">
        <ele>662.836</ele>
        <time>2021-06-12T20:35:24Z</time>
      </trkpt>
      <trkpt lat="41.774450" lon="2.280469">
        <ele>660.859</ele>
        <time>2021-06-12T20:35:35Z</time>
      </trkpt>
      <trkpt lat="41.774411" lon="2.280437">
        <ele>658.914</ele>
        <time>2021-06-12T20:35:47Z</time>
      </trkpt>
      <trkpt lat="41.774367" lon="2.280408">
        <ele>658.159</ele>
        <time>2021-06-12T20:35:52Z</time>
      </trkpt>
      <trkpt lat="41.774321" lon="2.280383">
        <ele>656.876</ele>
        <time>2021-06-12T20:35:57Z</time>
      </trkpt>
      <trkpt lat="41.774276" lon="2.280372">
        <ele>656.175</ele>
        <time>2021-06-12T20:36:01Z</time>
      </trkpt>
      <trkpt lat="41.774242" lon="2.280329">
        <ele>655.081</ele>
        <time>2021-06-12T20:36:06Z</time>
      </trkpt>
      <trkpt lat="41.774211" lon="2.280285">
        <ele>654.032</ele>
        <time>2021-06-12T20:36:13Z</time>
      </trkpt>
      <trkpt lat="41.774183" lon="2.280237">
        <ele>653.192</ele>
        <time>2021-06-12T20:36:21Z</time>
      </trkpt>
      <trkpt lat="41.774138" lon="2.280223">
        <ele>651.811</ele>
        <time>2021-06-12T20:36:31Z</time>
      </trkpt>
      <trkpt lat="41.774106" lon="2.280179">
        <ele>651.708</ele>
        <time>2021-06-12T20:36:35Z</time>
      </trkpt>
      <trkpt lat="41.774082" lon="2.280125">
        <ele>650.850</ele>
        <time>2021-06-12T20:36:39Z</time>
      </trkpt>
      <trkpt lat="41.774054" lon="2.280067">
        <ele>650.168</ele>
        <time>2021-06-12T20:36:43Z</time>
      </trkpt>
      <trkpt lat="41.774041" lon="2.280007">
        <ele>649.291</ele>
        <time>2021-06-12T20:36:47Z</time>
      </trkpt>
      <trkpt lat="41.774021" lon="2.279951">
        <ele>648.086</ele>
        <time>2021-06-12T20:36:53Z</time>
      </trkpt>
      <trkpt lat="41.773990" lon="2.279906">
        <ele>646.921</ele>
        <time>2021-06-12T20:37:02Z</time>
      </trkpt>
      <trkpt lat="41.773948" lon="2.279882">
        <ele>645.348</ele>
        <time>2021-06-12T20:37:11Z</time>
      </trkpt>
      <trkpt lat="41.773917" lon="2.279831">
        <ele>644.567</ele>
        <time>2021-06-12T20:37:15Z</time>
      </trkpt>
      <trkpt lat="41.773882" lon="2.279792">
        <ele>643.323</ele>
        <time>2021-06-12T20:37:23Z</time>
      </trkpt>
      <trkpt lat="41.773879" lon="2.279731">
        <ele>642.372</ele>
        <time>2021-06-12T20:37:32Z</time>
      </trkpt>
      <trkpt lat="41.773862" lon="2.279674">
        <ele>641.213</ele>
        <time>2021-06-12T20:37:38Z</time>
      </trkpt>
      <trkpt lat="41.773828" lon="2.279632">
        <ele>639.214</ele>
        <time>2021-06-12T20:37:49Z</time>
      </trkpt>
      <trkpt lat="41.773793" lon="2.279587">
        <ele>637.308</ele>
        <time>2021-06-12T20:38:00Z</time>
      </trkpt>
      <trkpt lat="41.773748" lon="2.279573">
        <ele>636.554</ele>
        <time>2021-06-12T20:38:11Z</time>
      </trkpt>
      <trkpt lat="41.773702" lon="2.279570">
        <ele>635.552</ele>
        <time>2021-06-12T20:38:18Z</time>
      </trkpt>
      <trkpt lat="41.773675" lon="2.279518">
        <ele>633.995</ele>
        <time>2021-06-12T20:38:27Z</time>
      </trkpt>
      <trkpt lat="41.773660" lon="2.279460">
        <ele>632.180</ele>
        <time>2021-06-12T20:38:45Z</time>
      </trkpt>
      <trkpt lat="41.773625" lon="2.279416">
        <ele>630.535</ele>
        <time>2021-06-12T20:38:53Z</time>
      </trkpt>
      <trkpt lat="41.773589" lon="2.279377">
        <ele>629.842</ele>
        <time>2021-06-12T20:38:59Z</time>
      </trkpt>
      <trkpt lat="41.773561" lon="2.279324">
        <ele>628.831</ele>
        <time>2021-06-12T20:39:14Z</time>
      </trkpt>
      <trkpt lat="41.773526" lon="2.279284">
        <ele>628.117</ele>
        <time>2021-06-12T20:39:20Z</time>
      </trkpt>
      <trkpt lat="41.773505" lon="2.279226">
        <ele>625.863</ele>
        <time>2021-06-12T20:39:38Z</time>
      </trkpt>
      <trkpt lat="41.773490" lon="2.279169">
        <ele>625.144</ele>
        <time>2021-06-12T20:39:42Z</time>
      </trkpt>
      <trkpt lat="41.773448" lon="2.279130">
        <ele>624.818</ele>
        <time>2021-06-12T20:39:47Z</time>
      </trkpt>
      <trkpt lat="41.773425" lon="2.279072">
        <ele>623.808</ele>
        <time>2021-06-12T20:39:51Z</time>
      </trkpt>
      <trkpt lat="41.773396" lon="2.279015">
        <ele>623.263</ele>
        <time>2021-06-12T20:39:56Z</time>
      </trkpt>
      <trkpt lat="41.773362" lon="2.278972">
        <ele>622.671</ele>
        <time>2021-06-12T20:40:00Z</time>
      </trkpt>
      <trkpt lat="41.773323" lon="2.278931">
        <ele>621.914</ele>
        <time>2021-06-12T20:40:04Z</time>
      </trkpt>
      <trkpt lat="41.773289" lon="2.278887">
        <ele>621.699</ele>
        <time>2021-06-12T20:40:08Z</time>
      </trkpt>
      <trkpt lat="41.773260" lon="2.278831">
        <ele>621.184</ele>
        <time>2021-06-12T20:40:13Z</time>
      </trkpt>
      <trkpt lat="41.773243" lon="2.278765">
        <ele>620.751</ele>
        <time>2021-06-12T20:40:17Z</time>
      </trkpt>
      <trkpt lat="41.773232" lon="2.278707">
        <ele>620.060</ele>
        <time>2021-06-12T20:40:21Z</time>
      </trkpt>
      <trkpt lat="41.773221" lon="2.278648">
        <ele>619.826</ele>
        <time>2021-06-12T20:40:25Z</time>
      </trkpt>
      <trkpt lat="41.773208" lon="2.278588">
        <ele>619.137</ele>
        <time>2021-06-12T20:40:29Z</time>
      </trkpt>
      <trkpt lat="41.773192" lon="2.278530">
        <ele>618.849</ele>
        <time>2021-06-12T20:40:31Z</time>
      </trkpt>
      <trkpt lat="41.773176" lon="2.278465">
        <ele>618.713</ele>
        <time>2021-06-12T20:40:35Z</time>
      </trkpt>
      <trkpt lat="41.773175" lon="2.278400">
        <ele>618.008</ele>
        <time>2021-06-12T20:40:39Z</time>
      </trkpt>
      <trkpt lat="41.773164" lon="2.278338">
        <ele>617.370</ele>
        <time>2021-06-12T20:40:44Z</time>
      </trkpt>
      <trkpt lat="41.773158" lon="2.278271">
        <ele>616.538</ele>
        <time>2021-06-12T20:40:49Z</time>
      </trkpt>
      <trkpt lat="41.773144" lon="2.278204">
        <ele>616.221</ele>
        <time>2021-06-12T20:40:53Z</time>
      </trkpt>
      <trkpt lat="41.773143" lon="2.278138">
        <ele>615.616</ele>
        <time>2021-06-12T20:40:56Z</time>
      </trkpt>
      <trkpt lat="41.773141" lon="2.278076">
        <ele>615.651</ele>
        <time>2021-06-12T20:41:00Z</time>
      </trkpt>
      <trkpt lat="41.773113" lon="2.278027">
        <ele>614.538</ele>
        <time>2021-06-12T20:41:04Z</time>
      </trkpt>
      <trkpt lat="41.773072" lon="2.277995">
        <ele>614.487</ele>
        <time>2021-06-12T20:41:08Z</time>
      </trkpt>
      <trkpt lat="41.773029" lon="2.277971">
        <ele>613.893</ele>
        <time>2021-06-12T20:41:12Z</time>
      </trkpt>
      <trkpt lat="41.772978" lon="2.277981">
        <ele>613.317</ele>
        <time>2021-06-12T20:41:16Z</time>
      </trkpt>
      <trkpt lat="41.772933" lon="2.278012">
        <ele>612.987</ele>
        <time>2021-06-12T20:41:20Z</time>
      </trkpt>
      <trkpt lat="41.772898" lon="2.277974">
        <ele>610.515</ele>
        <time>2021-06-12T20:41:41Z</time>
      </trkpt>
      <trkpt lat="41.772876" lon="2.277917">
        <ele>608.808</ele>
        <time>2021-06-12T20:41:50Z</time>
      </trkpt>
      <trkpt lat="41.772872" lon="2.277853">
        <ele>608.348</ele>
        <time>2021-06-12T20:41:54Z</time>
      </trkpt>
      <trkpt lat="41.772855" lon="2.277795">
        <ele>607.016</ele>
        <time>2021-06-12T20:42:04Z</time>
      </trkpt>
      <trkpt lat="41.772858" lon="2.277733">
        <ele>604.639</ele>
        <time>2021-06-12T20:42:17Z</time>
      </trkpt>
      <trkpt lat="41.772835" lon="2.277679">
        <ele>603.644</ele>
        <time>2021-06-12T20:42:24Z</time>
      </trkpt>
      <trkpt lat="41.772789" lon="2.277662">
        <ele>602.259</ele>
        <time>2021-06-12T20:42:33Z</time>
      </trkpt>
      <trkpt lat="41.772767" lon="2.277605">
        <ele>601.486</ele>
        <time>2021-06-12T20:42:38Z</time>
      </trkpt>
      <trkpt lat="41.772737" lon="2.277555">
        <ele>599.955</ele>
        <time>2021-06-12T20:42:48Z</time>
      </trkpt>
      <trkpt lat="41.772707" lon="2.277509">
        <ele>597.821</ele>
        <time>2021-06-12T20:43:36Z</time>
      </trkpt>
      <trkpt lat="41.772663" lon="2.277531">
        <ele>596.591</ele>
        <time>2021-06-12T20:44:05Z</time>
      </trkpt>
      <trkpt lat="41.772623" lon="2.277501">
        <ele>594.481</ele>
        <time>2021-06-12T20:44:23Z</time>
      </trkpt>
      <trkpt lat="41.772595" lon="2.277452">
        <ele>592.919</ele>
        <time>2021-06-12T20:44:34Z</time>
      </trkpt>
      <trkpt lat="41.772552" lon="2.277430">
        <ele>591.208</ele>
        <time>2021-06-12T20:44:43Z</time>
      </trkpt>
      <trkpt lat="41.772522" lon="2.277380">
        <ele>589.196</ele>
        <time>2021-06-12T20:44:55Z</time>
      </trkpt>
      <trkpt lat="41.772488" lon="2.277340">
        <ele>588.584</ele>
        <time>2021-06-12T20:45:03Z</time>
      </trkpt>
      <trkpt lat="41.772447" lon="2.277375">
        <ele>587.127</ele>
        <time>2021-06-12T20:45:11Z</time>
      </trkpt>
      <trkpt lat="41.772406" lon="2.277403">
        <ele>586.222</ele>
        <time>2021-06-12T20:45:18Z</time>
      </trkpt>
      <trkpt lat="41.772374" lon="2.277353">
        <ele>585.457</ele>
        <time>2021-06-12T20:45:24Z</time>
      </trkpt>
      <trkpt lat="41.772358" lon="2.277296">
        <ele>583.874</ele>
        <time>2021-06-12T20:45:33Z</time>
      </trkpt>
      <trkpt lat="41.772325" lon="2.277248">
        <ele>581.823</ele>
        <time>2021-06-12T20:45:44Z</time>
      </trkpt>
      <trkpt lat="41.772283" lon="2.277216">
        <ele>580.579</ele>
        <time>2021-06-12T20:45:51Z</time>
      </trkpt>
      <trkpt lat="41.772240" lon="2.277194">
        <ele>579.649</ele>
        <time>2021-06-12T20:45:57Z</time>
      </trkpt>
      <trkpt lat="41.772192" lon="2.277190">
        <ele>578.602</ele>
        <time>2021-06-12T20:46:06Z</time>
      </trkpt>
      <trkpt lat="41.772164" lon="2.277251">
        <ele>577.422</ele>
        <time>2021-06-12T20:46:18Z</time>
      </trkpt>
      <trkpt lat="41.772142" lon="2.277312">
        <ele>576.808</ele>
        <time>2021-06-12T20:46:23Z</time>
      </trkpt>
      <trkpt lat="41.772097" lon="2.277298">
        <ele>574.421</ele>
        <time>2021-06-12T20:46:49Z</time>
      </trkpt>
      <trkpt lat="41.772089" lon="2.277237">
        <ele>575.259</ele>
        <time>2021-06-12T20:47:04Z</time>
      </trkpt>
      <trkpt lat="41.772091" lon="2.277177">
        <ele>575.242</ele>
        <time>2021-06-12T20:47:12Z</time>
      </trkpt>
      <trkpt lat="41.772046" lon="2.277169">
        <ele>574.057</ele>
        <time>2021-06-12T20:47:24Z</time>
      </trkpt>
      <trkpt lat="41.772000" lon="2.277148">
        <ele>572.822</ele>
        <time>2021-06-12T20:47:33Z</time>
      </trkpt>
      <trkpt lat="41.771961" lon="2.277116">
        <ele>572.439</ele>
        <time>2021-06-12T20:47:42Z</time>
      </trkpt>
      <trkpt lat="41.771925" lon="2.277153">
        <ele>572.168</ele>
        <time>2021-06-12T20:48:44Z</time>
      </trkpt>
      <trkpt lat="41.771916" lon="2.277216">
        <ele>571.094</ele>
        <time>2021-06-12T20:49:15Z</time>
      </trkpt>
      <trkpt lat="41.771893" lon="2.277245">
        <ele>568.553</ele>
        <time>2021-06-12T20:52:10Z</time>
      </trkpt>
      <trkpt lat="41.771924" lon="2.277290">
        <ele>567.904</ele>
        <time>2021-06-12T20:52:17Z</time>
      </trkpt>
      <trkpt lat="41.771932" lon="2.277350">
        <ele>565.714</ele>
        <time>2021-06-12T20:52:40Z</time>
      </trkpt>
      <trkpt lat="41.771935" lon="2.277412">
        <ele>564.308</ele>
        <time>2021-06-12T20:52:49Z</time>
      </trkpt>
      <trkpt lat="41.771923" lon="2.277472">
        <ele>563.732</ele>
        <time>2021-06-12T20:52:55Z</time>
      </trkpt>
      <trkpt lat="41.771934" lon="2.277534">
        <ele>562.130</ele>
        <time>2021-06-12T20:53:08Z</time>
      </trkpt>
      <trkpt lat="41.771947" lon="2.277592">
        <ele>561.043</ele>
        <time>2021-06-12T20:53:18Z</time>
      </trkpt>
      <trkpt lat="41.771962" lon="2.277649">
        <ele>559.628</ele>
        <time>2021-06-12T20:53:34Z</time>
      </trkpt>
      <trkpt lat="41.771953" lon="2.277712">
        <ele>559.383</ele>
        <time>2021-06-12T20:53:42Z</time>
      </trkpt>
      <trkpt lat="41.771921" lon="2.277761">
        <ele>557.960</ele>
        <time>2021-06-12T20:53:49Z</time>
      </trkpt>
      <trkpt lat="41.771882" lon="2.277723">
        <ele>557.239</ele>
        <time>2021-06-12T20:53:56Z</time>
      </trkpt>
      <trkpt lat="41.771885" lon="2.277658">
        <ele>557.175</ele>
        <time>2021-06-12T20:54:02Z</time>
      </trkpt>
      <trkpt lat="41.771870" lon="2.277597">
        <ele>556.795</ele>
        <time>2021-06-12T20:54:11Z</time>
      </trkpt>
      <trkpt lat="41.771839" lon="2.277550">
        <ele>556.149</ele>
        <time>2021-06-12T20:54:14Z</time>
      </trkpt>
      <trkpt lat="41.771803" lon="2.277505">
        <ele>555.923</ele>
        <time>2021-06-12T20:54:17Z</time>
      </trkpt>
      <trkpt lat="41.771768" lon="2.277459">
        <ele>555.408</ele>
        <time>2021-06-12T20:54:23Z</time>
      </trkpt>
      <trkpt lat="41.771756" lon="2.277392">
        <ele>554.356</ele>
        <time>2021-06-12T20:54:33Z</time>
      </trkpt>
      <trkpt lat="41.771739" lon="2.277329">
        <ele>553.584</ele>
        <time>2021-06-12T20:54:37Z</time>
      </trkpt>
      <trkpt lat="41.771724" lon="2.277266">
        <ele>552.957</ele>
        <time>2021-06-12T20:54:41Z</time>
      </trkpt>
      <trkpt lat="41.771698" lon="2.277207">
        <ele>552.822</ele>
        <time>2021-06-12T20:54:45Z</time>
      </trkpt>
      <trkpt lat="41.771673" lon="2.277148">
        <ele>551.947</ele>
        <time>2021-06-12T20:54:49Z</time>
      </trkpt>
      <trkpt lat="41.771638" lon="2.277100">
        <ele>551.714</ele>
        <time>2021-06-12T20:54:54Z</time>
      </trkpt>
      <trkpt lat="41.771616" lon="2.277042">
        <ele>550.993</ele>
        <time>2021-06-12T20:55:00Z</time>
      </trkpt>
      <trkpt lat="41.771598" lon="2.276985">
        <ele>549.579</ele>
        <time>2021-06-12T20:55:11Z</time>
      </trkpt>
      <trkpt lat="41.771567" lon="2.276941">
        <ele>547.877</ele>
        <time>2021-06-12T20:55:24Z</time>
      </trkpt>
      <trkpt lat="41.771521" lon="2.276927">
        <ele>547.161</ele>
        <time>2021-06-12T20:55:28Z</time>
      </trkpt>
      <trkpt lat="41.771489" lon="2.276882">
        <ele>546.627</ele>
        <time>2021-06-12T20:55:32Z</time>
      </trkpt>
      <trkpt lat="41.771461" lon="2.276829">
        <ele>546.008</ele>
        <time>2021-06-12T20:55:37Z</time>
      </trkpt>
      <trkpt lat="41.771430" lon="2.276775">
        <ele>545.214</ele>
        <time>2021-06-12T20:55:42Z</time>
      </trkpt>
      <trkpt lat="41.771395" lon="2.276736">
        <ele>544.772</ele>
        <time>2021-06-12T20:55:47Z</time>
      </trkpt>
      <trkpt lat="41.771406" lon="2.276675">
        <ele>543.965</ele>
        <time>2021-06-12T20:55:57Z</time>
      </trkpt>
      <trkpt lat="41.771390" lon="2.276615">
        <ele>542.960</ele>
        <time>2021-06-12T20:56:09Z</time>
      </trkpt>
      <trkpt lat="41.771356" lon="2.276569">
        <ele>542.675</ele>
        <time>2021-06-12T20:56:15Z</time>
      </trkpt>
      <trkpt lat="41.771311" lon="2.276583">
        <ele>541.522</ele>
        <time>2021-06-12T20:56:27Z</time>
      </trkpt>
      <trkpt lat="41.771268" lon="2.276613">
        <ele>540.931</ele>
        <time>2021-06-12T20:56:36Z</time>
      </trkpt>
      <trkpt lat="41.771221" lon="2.276601">
        <ele>539.457</ele>
        <time>2021-06-12T20:56:52Z</time>
      </trkpt>
      <trkpt lat="41.771209" lon="2.276540">
        <ele>537.934</ele>
        <time>2021-06-12T20:57:10Z</time>
      </trkpt>
      <trkpt lat="41.771175" lon="2.276498">
        <ele>537.455</ele>
        <time>2021-06-12T20:57:15Z</time>
      </trkpt>
      <trkpt lat="41.771141" lon="2.276456">
        <ele>537.210</ele>
        <time>2021-06-12T20:57:21Z</time>
      </trkpt>
      <trkpt lat="41.771124" lon="2.276399">
        <ele>535.608</ele>
        <time>2021-06-12T20:57:37Z</time>
      </trkpt>
      <trkpt lat="41.771087" lon="2.276359">
        <ele>534.350</ele>
        <time>2021-06-12T20:57:46Z</time>
      </trkpt>
      <trkpt lat="41.771078" lon="2.276294">
        <ele>533.288</ele>
        <time>2021-06-12T20:57:57Z</time>
      </trkpt>
      <trkpt lat="41.771090" lon="2.276235">
        <ele>532.891</ele>
        <time>2021-06-12T20:58:02Z</time>
      </trkpt>
      <trkpt lat="41.771048" lon="2.276209">
        <ele>530.216</ele>
        <time>2021-06-12T20:58:37Z</time>
      </trkpt>
      <trkpt lat="41.771008" lon="2.276239">
        <ele>527.951</ele>
        <time>2021-06-12T20:58:56Z</time>
      </trkpt>
      <trkpt lat="41.770985" lon="2.276304">
        <ele>527.478</ele>
        <time>2021-06-12T20:59:02Z</time>
      </trkpt>
      <trkpt lat="41.770962" lon="2.276365">
        <ele>526.977</ele>
        <time>2021-06-12T20:59:05Z</time>
      </trkpt>
      <trkpt lat="41.770918" lon="2.276382">
        <ele>525.543</ele>
        <time>2021-06-12T20:59:16Z</time>
      </trkpt>
      <trkpt lat="41.770884" lon="2.276339">
        <ele>523.855</ele>
        <time>2021-06-12T20:59:31Z</time>
      </trkpt>
      <trkpt lat="41.770841" lon="2.276306">
        <ele>522.907</ele>
        <time>2021-06-12T20:59:39Z</time>
      </trkpt>
      <trkpt lat="41.770806" lon="2.276262">
        <ele>522.317</ele>
        <time>2021-06-12T20:59:45Z</time>
      </trkpt>
      <trkpt lat="41.770767" lon="2.276294">
        <ele>517.708</ele>
        <time>2021-06-12T21:00:33Z</time>
      </trkpt>
      <trkpt lat="41.770724" lon="2.276269">
        <ele>516.522</ele>
        <time>2021-06-12T21:00:52Z</time>
      </trkpt>
      <trkpt lat="41.770818" lon="2.276167">
        <ele>514.720</ele>
        <time>2021-06-12T21:13:54Z</time>
      </trkpt>
      <trkpt lat="41.770771" lon="2.276136">
        <ele>514.473</ele>
        <time>2021-06-12T21:13:59Z</time>
      </trkpt>
      <trkpt lat="41.770726" lon="2.276123">
        <ele>514.478</ele>
        <time>2021-06-12T21:14:03Z</time>
      </trkpt>
      <trkpt lat="41.770680" lon="2.276129">
        <ele>513.823</ele>
        <time>2021-06-12T21:14:09Z</time>
      </trkpt>
      <trkpt lat="41.770636" lon="2.276104">
        <ele>513.250</ele>
        <time>2021-06-12T21:14:16Z</time>
      </trkpt>
      <trkpt lat="41.770599" lon="2.276066">
        <ele>512.349</ele>
        <time>2021-06-12T21:14:28Z</time>
      </trkpt>
      <trkpt lat="41.770598" lon="2.276004">
        <ele>511.745</ele>
        <time>2021-06-12T21:14:39Z</time>
      </trkpt>
      <trkpt lat="41.770633" lon="2.275963">
        <ele>510.797</ele>
        <time>2021-06-12T21:14:49Z</time>
      </trkpt>
      <trkpt lat="41.770665" lon="2.275919">
        <ele>510.423</ele>
        <time>2021-06-12T21:14:56Z</time>
      </trkpt>
      <trkpt lat="41.770676" lon="2.275860">
        <ele>509.725</ele>
        <time>2021-06-12T21:15:02Z</time>
      </trkpt>
      <trkpt lat="41.770707" lon="2.275814">
        <ele>509.308</ele>
        <time>2021-06-12T21:15:08Z</time>
      </trkpt>
      <trkpt lat="41.770739" lon="2.275771">
        <ele>508.686</ele>
        <time>2021-06-12T21:15:18Z</time>
      </trkpt>
      <trkpt lat="41.770778" lon="2.275727">
        <ele>507.714</ele>
        <time>2021-06-12T21:15:30Z</time>
      </trkpt>
      <trkpt lat="41.770811" lon="2.275685">
        <ele>507.267</ele>
        <time>2021-06-12T21:15:37Z</time>
      </trkpt>
      <trkpt lat="41.770849" lon="2.275644">
        <ele>506.772</ele>
        <time>2021-06-12T21:15:43Z</time>
      </trkpt>
      <trkpt lat="41.770875" lon="2.275589">
        <ele>506.087</ele>
        <time>2021-06-12T21:15:50Z</time>
      </trkpt>
      <trkpt lat="41.770903" lon="2.275540">
        <ele>505.384</ele>
        <time>2021-06-12T21:15:59Z</time>
      </trkpt>
      <trkpt lat="41.770945" lon="2.275508">
        <ele>504.673</ele>
        <time>2021-06-12T21:16:07Z</time>
      </trkpt>
      <trkpt lat="41.770981" lon="2.275469">
        <ele>503.239</ele>
        <time>2021-06-12T21:16:24Z</time>
      </trkpt>
      <trkpt lat="41.770972" lon="2.275409">
        <ele>502.168</ele>
        <time>2021-06-12T21:16:34Z</time>
      </trkpt>
      <trkpt lat="41.770961" lon="2.275348">
        <ele>500.642</ele>
        <time>2021-06-12T21:16:51Z</time>
      </trkpt>
      <trkpt lat="41.770990" lon="2.275297">
        <ele>500.226</ele>
        <time>2021-06-12T21:16:57Z</time>
      </trkpt>
      <trkpt lat="41.771000" lon="2.275235">
        <ele>499.208</ele>
        <time>2021-06-12T21:17:08Z</time>
      </trkpt>
      <trkpt lat="41.771007" lon="2.275173">
        <ele>497.983</ele>
        <time>2021-06-12T21:17:19Z</time>
      </trkpt>
      <trkpt lat="41.771050" lon="2.275141">
        <ele>497.341</ele>
        <time>2021-06-12T21:17:25Z</time>
      </trkpt>
      <trkpt lat="41.771091" lon="2.275114">
        <ele>495.854</ele>
        <time>2021-06-12T21:17:39Z</time>
      </trkpt>
      <trkpt lat="41.771088" lon="2.275052">
        <ele>495.179</ele>
        <time>2021-06-12T21:17:47Z</time>
      </trkpt>
      <trkpt lat="41.771070" lon="2.274990">
        <ele>494.984</ele>
        <time>2021-06-12T21:17:51Z</time>
      </trkpt>
      <trkpt lat="41.771065" lon="2.274919">
        <ele>494.381</ele>
        <time>2021-06-12T21:17:56Z</time>
      </trkpt>
      <trkpt lat="41.771043" lon="2.274856">
        <ele>494.020</ele>
        <time>2021-06-12T21:18:00Z</time>
      </trkpt>
      <trkpt lat="41.771012" lon="2.274812">
        <ele>492.886</ele>
        <time>2021-06-12T21:18:14Z</time>
      </trkpt>
      <trkpt lat="41.770970" lon="2.274785">
        <ele>491.029</ele>
        <time>2021-06-12T21:18:31Z</time>
      </trkpt>
      <trkpt lat="41.770959" lon="2.274725">
        <ele>489.500</ele>
        <time>2021-06-12T21:18:43Z</time>
      </trkpt>
      <trkpt lat="41.770985" lon="2.274675">
        <ele>488.320</ele>
        <time>2021-06-12T21:19:02Z</time>
      </trkpt>
      <trkpt lat="41.771020" lon="2.274714">
        <ele>487.408</ele>
        <time>2021-06-12T21:19:14Z</time>
      </trkpt>
      <trkpt lat="41.771011" lon="2.274653">
        <ele>486.169</ele>
        <time>2021-06-12T21:19:27Z</time>
      </trkpt>
      <trkpt lat="41.770989" lon="2.274597">
        <ele>485.387</ele>
        <time>2021-06-12T21:19:40Z</time>
      </trkpt>
      <trkpt lat="41.771031" lon="2.274572">
        <ele>484.290</ele>
        <time>2021-06-12T21:19:51Z</time>
      </trkpt>
      <trkpt lat="41.771075" lon="2.274592">
        <ele>482.465</ele>
        <time>2021-06-12T21:20:07Z</time>
      </trkpt>
      <trkpt lat="41.771074" lon="2.274657">
        <ele>481.670</ele>
        <time>2021-06-12T21:20:16Z</time>
      </trkpt>
      <trkpt lat="41.771110" lon="2.274695">
        <ele>480.527</ele>
        <time>2021-06-12T21:20:24Z</time>
      </trkpt>
      <trkpt lat="41.771125" lon="2.274754">
        <ele>479.956</ele>
        <time>2021-06-12T21:20:30Z</time>
      </trkpt>
      <trkpt lat="41.771137" lon="2.274812">
        <ele>478.782</ele>
        <time>2021-06-12T21:20:40Z</time>
      </trkpt>
      <trkpt lat="41.771184" lon="2.274839">
        <ele>477.786</ele>
        <time>2021-06-12T21:20:48Z</time>
      </trkpt>
      <trkpt lat="41.771230" lon="2.274864">
        <ele>477.360</ele>
        <time>2021-06-12T21:20:53Z</time>
      </trkpt>
      <trkpt lat="41.771276" lon="2.274885">
        <ele>476.826</ele>
        <time>2021-06-12T21:20:59Z</time>
      </trkpt>
      <trkpt lat="41.771320" lon="2.274901">
        <ele>476.108</ele>
        <time>2021-06-12T21:21:04Z</time>
      </trkpt>
      <trkpt lat="41.771369" lon="2.274905">
        <ele>475.665</ele>
        <time>2021-06-12T21:21:10Z</time>
      </trkpt>
      <trkpt lat="41.771412" lon="2.274924">
        <ele>474.443</ele>
        <time>2021-06-12T21:21:23Z</time>
      </trkpt>
      <trkpt lat="41.771442" lon="2.274970">
        <ele>472.836</ele>
        <time>2021-06-12T21:21:37Z</time>
      </trkpt>
      <trkpt lat="41.771459" lon="2.275026">
        <ele>471.241</ele>
        <time>2021-06-12T21:21:59Z</time>
      </trkpt>
      <trkpt lat="41.771463" lon="2.275087">
        <ele>470.646</ele>
        <time>2021-06-12T21:22:05Z</time>
      </trkpt>
      <trkpt lat="41.771508" lon="2.275096">
        <ele>469.933</ele>
        <time>2021-06-12T21:22:14Z</time>
      </trkpt>
      <trkpt lat="41.771553" lon="2.275109">
        <ele>468.962</ele>
        <time>2021-06-12T21:22:21Z</time>
      </trkpt>
      <trkpt lat="41.771602" lon="2.275113">
        <ele>468.918</ele>
        <time>2021-06-12T21:22:26Z</time>
      </trkpt>
      <trkpt lat="41.771645" lon="2.275094">
        <ele>468.293</ele>
        <time>2021-06-12T21:22:37Z</time>
      </trkpt>
      <trkpt lat="41.771690" lon="2.275083">
        <ele>467.365</ele>
        <time>2021-06-12T21:22:45Z</time>
      </trkpt>
      <trkpt lat="41.771732" lon="2.275055">
        <ele>466.121</ele>
        <time>2021-06-12T21:22:55Z</time>
      </trkpt>
      <trkpt lat="41.771769" lon="2.275020">
        <ele>465.208</ele>
        <time>2021-06-12T21:23:03Z</time>
      </trkpt>
      <trkpt lat="41.771736" lon="2.274979">
        <ele>464.316</ele>
        <time>2021-06-12T21:23:18Z</time>
      </trkpt>
      <trkpt lat="41.771695" lon="2.274947">
        <ele>463.594</ele>
        <time>2021-06-12T21:23:25Z</time>
      </trkpt>
      <trkpt lat="41.771649" lon="2.274935">
        <ele>462.637</ele>
        <time>2021-06-12T21:23:32Z</time>
      </trkpt>
      <trkpt lat="41.771606" lon="2.274913">
        <ele>461.762</ele>
        <time>2021-06-12T21:23:41Z</time>
      </trkpt>
      <trkpt lat="41.771565" lon="2.274881">
        <ele>460.727</ele>
        <time>2021-06-12T21:23:50Z</time>
      </trkpt>
      <trkpt lat="41.771529" lon="2.274838">
        <ele>460.164</ele>
        <time>2021-06-12T21:23:56Z</time>
      </trkpt>
      <trkpt lat="41.771498" lon="2.274794">
        <ele>459.623</ele>
        <time>2021-06-12T21:24:02Z</time>
      </trkpt>
      <trkpt lat="41.771460" lon="2.274761">
        <ele>458.829</ele>
        <time>2021-06-12T21:24:08Z</time>
      </trkpt>
      <trkpt lat="41.771430" lon="2.274715">
        <ele>457.549</ele>
        <time>2021-06-12T21:24:17Z</time>
      </trkpt>
      <trkpt lat="41.771417" lon="2.274655">
        <ele>456.202</ele>
        <time>2021-06-12T21:24:28Z</time>
      </trkpt>
      <trkpt lat="41.771399" lon="2.274596">
        <ele>455.422</ele>
        <time>2021-06-12T21:24:39Z</time>
      </trkpt>
      <trkpt lat="41.771407" lon="2.274534">
        <ele>455.108</ele>
        <time>2021-06-12T21:24:51Z</time>
      </trkpt>
      <trkpt lat="41.771452" lon="2.274526">
        <ele>454.091</ele>
        <time>2021-06-12T21:25:00Z</time>
      </trkpt>
      <trkpt lat="41.771469" lon="2.274582">
        <ele>453.929</ele>
        <time>2021-06-12T21:26:02Z</time>
      </trkpt>
      <trkpt lat="41.771461" lon="2.274511">
        <ele>453.972</ele>
        <time>2021-06-12T21:27:02Z</time>
      </trkpt>
      <trkpt lat="41.771440" lon="2.274455">
        <ele>454.067</ele>
        <time>2021-06-12T21:27:04Z</time>
      </trkpt>
      <trkpt lat="41.771406" lon="2.274400">
        <ele>453.332</ele>
        <time>2021-06-12T21:27:08Z</time>
      </trkpt>
      <trkpt lat="41.771373" lon="2.274357">
        <ele>453.399</ele>
        <time>2021-06-12T21:27:11Z</time>
      </trkpt>
      <trkpt lat="41.771338" lon="2.274317">
        <ele>453.418</ele>
        <time>2021-06-12T21:27:18Z</time>
      </trkpt>
      <trkpt lat="41.771307" lon="2.274268">
        <ele>452.724</ele>
        <time>2021-06-12T21:27:24Z</time>
      </trkpt>
      <trkpt lat="41.771282" lon="2.274216">
        <ele>452.212</ele>
        <time>2021-06-12T21:27:30Z</time>
      </trkpt>
      <trkpt lat="41.771291" lon="2.274154">
        <ele>452.532</ele>
        <time>2021-06-12T21:27:39Z</time>
      </trkpt>
      <trkpt lat="41.771315" lon="2.274098">
        <ele>450.705</ele>
        <time>2021-06-12T21:27:45Z</time>
      </trkpt>
      <trkpt lat="41.771307" lon="2.274041">
        <ele>452.808</ele>
        <time>2021-06-12T21:27:49Z</time>
      </trkpt>
      <trkpt lat="41.771310" lon="2.273919">
        <ele>451.948</ele>
        <time>2021-06-12T21:27:51Z</time>
      </trkpt>
      <trkpt lat="41.771353" lon="2.273891">
        <ele>452.366</ele>
        <time>2021-06-12T21:27:56Z</time>
      </trkpt>
      <trkpt lat="41.771383" lon="2.273779">
        <ele>452.999</ele>
        <time>2021-06-12T21:27:59Z</time>
      </trkpt>
      <trkpt lat="41.771445" lon="2.273688">
        <ele>452.264</ele>
        <time>2021-06-12T21:28:05Z</time>
      </trkpt>
      <trkpt lat="41.771482" lon="2.273562">
        <ele>452.339</ele>
        <time>2021-06-12T21:28:11Z</time>
      </trkpt>
      <trkpt lat="41.771509" lon="2.273460">
        <ele>452.286</ele>
        <time>2021-06-12T21:28:15Z</time>
      </trkpt>
      <trkpt lat="41.771555" lon="2.273460">
        <ele>452.215</ele>
        <time>2021-06-12T21:28:19Z</time>
      </trkpt>
      <trkpt lat="41.771577" lon="2.273425">
        <ele>452.281</ele>
        <time>2021-06-12T21:28:23Z</time>
      </trkpt>
      <trkpt lat="41.771550" lon="2.273320">
        <ele>452.149</ele>
        <time>2021-06-12T21:28:27Z</time>
      </trkpt>
      <trkpt lat="41.771588" lon="2.273138">
        <ele>452.302</ele>
        <time>2021-06-12T21:28:31Z</time>
      </trkpt>
      <trkpt lat="41.771334" lon="2.272841">
        <ele>447.722</ele>
        <time>2021-06-12T21:30:42Z</time>
      </trkpt>
      <trkpt lat="41.770870" lon="2.272685">
        <ele>447.508</ele>
        <time>2021-06-12T21:30:46Z</time>
      </trkpt>
      <trkpt lat="41.770829" lon="2.272658">
        <ele>446.741</ele>
        <time>2021-06-12T21:30:50Z</time>
      </trkpt>
      <trkpt lat="41.770782" lon="2.272633">
        <ele>446.739</ele>
        <time>2021-06-12T21:30:56Z</time>
      </trkpt>
      <trkpt lat="41.770742" lon="2.272596">
        <ele>446.462</ele>
        <time>2021-06-12T21:31:01Z</time>
      </trkpt>
      <trkpt lat="41.770705" lon="2.272558">
        <ele>445.917</ele>
        <time>2021-06-12T21:31:06Z</time>
      </trkpt>
      <trkpt lat="41.770668" lon="2.272518">
        <ele>445.962</ele>
        <time>2021-06-12T21:31:10Z</time>
      </trkpt>
      <trkpt lat="41.770666" lon="2.272452">
        <ele>445.989</ele>
        <time>2021-06-12T21:31:16Z</time>
      </trkpt>
      <trkpt lat="41.770683" lon="2.272396">
        <ele>445.828</ele>
        <time>2021-06-12T21:31:21Z</time>
      </trkpt>
      <trkpt lat="41.770666" lon="2.272331">
        <ele>445.174</ele>
        <time>2021-06-12T21:31:28Z</time>
      </trkpt>
      <trkpt lat="41.770646" lon="2.272276">
        <ele>445.161</ele>
        <time>2021-06-12T21:31:32Z</time>
      </trkpt>
      <trkpt lat="41.770616" lon="2.272231">
        <ele>445.921</ele>
        <time>2021-06-12T21:31:37Z</time>
      </trkpt>
      <trkpt lat="41.770589" lon="2.272182">
        <ele>446.713</ele>
        <time>2021-06-12T21:31:42Z</time>
      </trkpt>
      <trkpt lat="41.770545" lon="2.272161">
        <ele>446.408</ele>
        <time>2021-06-12T21:31:47Z</time>
      </trkpt>
      <trkpt lat="41.770506" lon="2.272126">
        <ele>446.813</ele>
        <time>2021-06-12T21:31:53Z</time>
      </trkpt>
      <trkpt lat="41.770463" lon="2.272103">
        <ele>446.521</ele>
        <time>2021-06-12T21:32:01Z</time>
      </trkpt>
      <trkpt lat="41.770426" lon="2.272067">
        <ele>446.784</ele>
        <time>2021-06-12T21:32:08Z</time>
      </trkpt>
      <trkpt lat="41.770393" lon="2.272025">
        <ele>446.799</ele>
        <time>2021-06-12T21:32:11Z</time>
      </trkpt>
      <trkpt lat="41.770364" lon="2.271965">
        <ele>446.324</ele>
        <time>2021-06-12T21:32:15Z</time>
      </trkpt>
      <trkpt lat="41.770357" lon="2.271899">
        <ele>446.621</ele>
        <time>2021-06-12T21:32:20Z</time>
      </trkpt>
      <trkpt lat="41.770373" lon="2.271841">
        <ele>446.410</ele>
        <time>2021-06-12T21:32:24Z</time>
      </trkpt>
      <trkpt lat="41.770390" lon="2.271778">
        <ele>446.486</ele>
        <time>2021-06-12T21:32:29Z</time>
      </trkpt>
      <trkpt lat="41.770410" lon="2.271720">
        <ele>446.364</ele>
        <time>2021-06-12T21:32:33Z</time>
      </trkpt>
      <trkpt lat="41.770435" lon="2.271670">
        <ele>446.406</ele>
        <time>2021-06-12T21:32:37Z</time>
      </trkpt>
      <trkpt lat="41.770466" lon="2.271618">
        <ele>446.416</ele>
        <time>2021-06-12T21:32:41Z</time>
      </trkpt>
      <trkpt lat="41.770495" lon="2.271563">
        <ele>446.308</ele>
        <time>2021-06-12T21:32:46Z</time>
      </trkpt>
      <trkpt lat="41.770509" lon="2.271502">
        <ele>446.483</ele>
        <time>2021-06-12T21:32:50Z</time>
      </trkpt>
      <trkpt lat="41.770520" lon="2.271437">
        <ele>446.211</ele>
        <time>2021-06-12T21:32:54Z</time>
      </trkpt>
      <trkpt lat="41.770543" lon="2.271382">
        <ele>446.044</ele>
        <time>2021-06-12T21:32:59Z</time>
      </trkpt>
      <trkpt lat="41.770566" lon="2.271329">
        <ele>446.049</ele>
        <time>2021-06-12T21:33:03Z</time>
      </trkpt>
      <trkpt lat="41.770588" lon="2.271265">
        <ele>445.864</ele>
        <time>2021-06-12T21:33:08Z</time>
      </trkpt>
      <trkpt lat="41.770606" lon="2.271210">
        <ele>445.861</ele>
        <time>2021-06-12T21:33:12Z</time>
      </trkpt>
      <trkpt lat="41.770634" lon="2.271160">
        <ele>445.620</ele>
        <time>2021-06-12T21:33:16Z</time>
      </trkpt>
      <trkpt lat="41.770674" lon="2.271125">
        <ele>445.766</ele>
        <time>2021-06-12T21:33:21Z</time>
      </trkpt>
      <trkpt lat="41.770722" lon="2.271105">
        <ele>445.689</ele>
        <time>2021-06-12T21:33:28Z</time>
      </trkpt>
      <trkpt lat="41.770759" lon="2.271067">
        <ele>445.406</ele>
        <time>2021-06-12T21:33:32Z</time>
      </trkpt>
      <trkpt lat="41.770788" lon="2.271014">
        <ele>445.326</ele>
        <time>2021-06-12T21:33:37Z</time>
      </trkpt>
      <trkpt lat="41.770811" lon="2.270959">
        <ele>445.308</ele>
        <time>2021-06-12T21:33:41Z</time>
      </trkpt>
      <trkpt lat="41.770826" lon="2.270902">
        <ele>445.375</ele>
        <time>2021-06-12T21:33:45Z</time>
      </trkpt>
      <trkpt lat="41.770847" lon="2.270841">
        <ele>445.183</ele>
        <time>2021-06-12T21:33:48Z</time>
      </trkpt>
      <trkpt lat="41.770882" lon="2.270798">
        <ele>444.916</ele>
        <time>2021-06-12T21:33:52Z</time>
      </trkpt>
      <trkpt lat="41.770924" lon="2.270766">
        <ele>444.151</ele>
        <time>2021-06-12T21:33:58Z</time>
      </trkpt>
      <trkpt lat="41.770946" lon="2.270709">
        <ele>444.396</ele>
        <time>2021-06-12T21:34:03Z</time>
      </trkpt>
      <trkpt lat="41.770960" lon="2.270647">
        <ele>444.193</ele>
        <time>2021-06-12T21:34:09Z</time>
      </trkpt>
      <trkpt lat="41.770985" lon="2.270587">
        <ele>443.812</ele>
        <time>2021-06-12T21:34:14Z</time>
      </trkpt>
      <trkpt lat="41.770997" lon="2.270527">
        <ele>443.688</ele>
        <time>2021-06-12T21:34:18Z</time>
      </trkpt>
      <trkpt lat="41.771013" lon="2.270465">
        <ele>443.486</ele>
        <time>2021-06-12T21:34:22Z</time>
      </trkpt>
      <trkpt lat="41.771032" lon="2.270409">
        <ele>443.060</ele>
        <time>2021-06-12T21:34:28Z</time>
      </trkpt>
      <trkpt lat="41.771057" lon="2.270356">
        <ele>443.226</ele>
        <time>2021-06-12T21:34:35Z</time>
      </trkpt>
      <trkpt lat="41.771067" lon="2.270294">
        <ele>443.308</ele>
        <time>2021-06-12T21:34:43Z</time>
      </trkpt>
      <trkpt lat="41.771079" lon="2.270235">
        <ele>443.565</ele>
        <time>2021-06-12T21:34:48Z</time>
      </trkpt>
      <trkpt lat="41.771110" lon="2.270190">
        <ele>443.893</ele>
        <time>2021-06-12T21:34:53Z</time>
      </trkpt>
      <trkpt lat="41.771147" lon="2.270148">
        <ele>443.816</ele>
        <time>2021-06-12T21:34:59Z</time>
      </trkpt>
      <trkpt lat="41.771183" lon="2.270109">
        <ele>444.171</ele>
        <time>2021-06-12T21:35:06Z</time>
      </trkpt>
      <trkpt lat="41.771187" lon="2.270048">
        <ele>444.266</ele>
        <time>2021-06-12T21:35:14Z</time>
      </trkpt>
      <trkpt lat="41.771195" lon="2.269982">
        <ele>444.053</ele>
        <time>2021-06-12T21:35:18Z</time>
      </trkpt>
      <trkpt lat="41.771185" lon="2.269914">
        <ele>443.732</ele>
        <time>2021-06-12T21:35:21Z</time>
      </trkpt>
      <trkpt lat="41.771171" lon="2.269856">
        <ele>443.948</ele>
        <time>2021-06-12T21:35:23Z</time>
      </trkpt>
      <trkpt lat="41.771163" lon="2.269793">
        <ele>443.683</ele>
        <time>2021-06-12T21:35:26Z</time>
      </trkpt>
      <trkpt lat="41.771156" lon="2.269725">
        <ele>443.425</ele>
        <time>2021-06-12T21:35:29Z</time>
      </trkpt>
      <trkpt lat="41.771136" lon="2.269670">
        <ele>442.917</ele>
        <time>2021-06-12T21:35:33Z</time>
      </trkpt>
      <trkpt lat="41.771139" lon="2.269610">
        <ele>442.408</ele>
        <time>2021-06-12T21:35:38Z</time>
      </trkpt>
      <trkpt lat="41.771115" lon="2.269557">
        <ele>442.125</ele>
        <time>2021-06-12T21:35:44Z</time>
      </trkpt>
      <trkpt lat="41.771092" lon="2.269503">
        <ele>442.023</ele>
        <time>2021-06-12T21:35:47Z</time>
      </trkpt>
      <trkpt lat="41.771073" lon="2.269443">
        <ele>442.096</ele>
        <time>2021-06-12T21:35:50Z</time>
      </trkpt>
      <trkpt lat="41.771062" lon="2.269379">
        <ele>441.661</ele>
        <time>2021-06-12T21:35:54Z</time>
      </trkpt>
      <trkpt lat="41.771043" lon="2.269322">
        <ele>441.496</ele>
        <time>2021-06-12T21:35:59Z</time>
      </trkpt>
      <trkpt lat="41.771019" lon="2.269262">
        <ele>441.243</ele>
        <time>2021-06-12T21:36:02Z</time>
      </trkpt>
      <trkpt lat="41.770995" lon="2.269209">
        <ele>441.282</ele>
        <time>2021-06-12T21:36:06Z</time>
      </trkpt>
      <trkpt lat="41.770970" lon="2.269159">
        <ele>441.258</ele>
        <time>2021-06-12T21:36:10Z</time>
      </trkpt>
      <trkpt lat="41.770932" lon="2.269121">
        <ele>440.963</ele>
        <time>2021-06-12T21:36:15Z</time>
      </trkpt>
      <trkpt lat="41.770890" lon="2.269090">
        <ele>440.844</ele>
        <time>2021-06-12T21:36:20Z</time>
      </trkpt>
      <trkpt lat="41.770845" lon="2.269077">
        <ele>440.218</ele>
        <time>2021-06-12T21:36:26Z</time>
      </trkpt>
      <trkpt lat="41.770796" lon="2.269060">
        <ele>439.908</ele>
        <time>2021-06-12T21:36:31Z</time>
      </trkpt>
      <trkpt lat="41.770749" lon="2.269031">
        <ele>439.643</ele>
        <time>2021-06-12T21:36:35Z</time>
      </trkpt>
      <trkpt lat="41.770704" lon="2.269007">
        <ele>439.621</ele>
        <time>2021-06-12T21:36:39Z</time>
      </trkpt>
      <trkpt lat="41.770664" lon="2.268974">
        <ele>439.554</ele>
        <time>2021-06-12T21:36:43Z</time>
      </trkpt>
      <trkpt lat="41.770623" lon="2.268947">
        <ele>439.369</ele>
        <time>2021-06-12T21:36:48Z</time>
      </trkpt>
      <trkpt lat="41.770576" lon="2.268922">
        <ele>439.474</ele>
        <time>2021-06-12T21:36:53Z</time>
      </trkpt>
      <trkpt lat="41.770534" lon="2.268892">
        <ele>439.551</ele>
        <time>2021-06-12T21:37:00Z</time>
      </trkpt>
      <trkpt lat="41.770489" lon="2.268868">
        <ele>439.660</ele>
        <time>2021-06-12T21:37:05Z</time>
      </trkpt>
      <trkpt lat="41.770446" lon="2.268837">
        <ele>439.856</ele>
        <time>2021-06-12T21:37:11Z</time>
      </trkpt>
      <trkpt lat="41.770404" lon="2.268811">
        <ele>439.832</ele>
        <time>2021-06-12T21:37:15Z</time>
      </trkpt>
      <trkpt lat="41.770366" lon="2.268775">
        <ele>439.892</ele>
        <time>2021-06-12T21:37:21Z</time>
      </trkpt>
      <trkpt lat="41.770330" lon="2.268730">
        <ele>440.111</ele>
        <time>2021-06-12T21:37:27Z</time>
      </trkpt>
      <trkpt lat="41.770295" lon="2.268687">
        <ele>440.908</ele>
        <time>2021-06-12T21:37:32Z</time>
      </trkpt>
      <trkpt lat="41.770257" lon="2.268631">
        <ele>440.810</ele>
        <time>2021-06-12T21:37:41Z</time>
      </trkpt>
      <trkpt lat="41.770216" lon="2.268605">
        <ele>440.778</ele>
        <time>2021-06-12T21:37:46Z</time>
      </trkpt>
      <trkpt lat="41.770180" lon="2.268558">
        <ele>440.291</ele>
        <time>2021-06-12T21:37:52Z</time>
      </trkpt>
      <trkpt lat="41.770149" lon="2.268512">
        <ele>440.136</ele>
        <time>2021-06-12T21:37:58Z</time>
      </trkpt>
      <trkpt lat="41.770117" lon="2.268463">
        <ele>439.441</ele>
        <time>2021-06-12T21:38:05Z</time>
      </trkpt>
      <trkpt lat="41.770077" lon="2.268424">
        <ele>440.648</ele>
        <time>2021-06-12T21:38:12Z</time>
      </trkpt>
      <trkpt lat="41.770029" lon="2.268394">
        <ele>440.467</ele>
        <time>2021-06-12T21:38:18Z</time>
      </trkpt>
      <trkpt lat="41.770007" lon="2.268338">
        <ele>440.073</ele>
        <time>2021-06-12T21:38:25Z</time>
      </trkpt>
      <trkpt lat="41.769990" lon="2.268280">
        <ele>441.792</ele>
        <time>2021-06-12T21:38:29Z</time>
      </trkpt>
      <trkpt lat="41.769978" lon="2.268221">
        <ele>440.673</ele>
        <time>2021-06-12T21:38:33Z</time>
      </trkpt>
      <trkpt lat="41.769959" lon="2.268161">
        <ele>440.820</ele>
        <time>2021-06-12T21:38:38Z</time>
      </trkpt>
      <trkpt lat="41.769920" lon="2.268118">
        <ele>440.908</ele>
        <time>2021-06-12T21:38:42Z</time>
      </trkpt>
      <trkpt lat="41.769888" lon="2.268074">
        <ele>440.926</ele>
        <time>2021-06-12T21:38:46Z</time>
      </trkpt>
      <trkpt lat="41.769849" lon="2.268032">
        <ele>440.824</ele>
        <time>2021-06-12T21:38:49Z</time>
      </trkpt>
      <trkpt lat="41.769815" lon="2.267989">
        <ele>440.737</ele>
        <time>2021-06-12T21:38:53Z</time>
      </trkpt>
      <trkpt lat="41.769778" lon="2.267946">
        <ele>440.522</ele>
        <time>2021-06-12T21:38:58Z</time>
      </trkpt>
      <trkpt lat="41.769753" lon="2.267892">
        <ele>440.577</ele>
        <time>2021-06-12T21:39:03Z</time>
      </trkpt>
      <trkpt lat="41.769724" lon="2.267840">
        <ele>440.264</ele>
        <time>2021-06-12T21:39:08Z</time>
      </trkpt>
      <trkpt lat="41.769687" lon="2.267797">
        <ele>440.033</ele>
        <time>2021-06-12T21:39:12Z</time>
      </trkpt>
      <trkpt lat="41.769643" lon="2.267765">
        <ele>440.059</ele>
        <time>2021-06-12T21:39:17Z</time>
      </trkpt>
      <trkpt lat="41.769600" lon="2.267736">
        <ele>440.012</ele>
        <time>2021-06-12T21:39:22Z</time>
      </trkpt>
      <trkpt lat="41.769553" lon="2.267716">
        <ele>439.532</ele>
        <time>2021-06-12T21:39:28Z</time>
      </trkpt>
      <trkpt lat="41.769509" lon="2.267681">
        <ele>439.305</ele>
        <time>2021-06-12T21:39:32Z</time>
      </trkpt>
      <trkpt lat="41.769471" lon="2.267649">
        <ele>439.208</ele>
        <time>2021-06-12T21:39:36Z</time>
      </trkpt>
      <trkpt lat="41.769428" lon="2.267627">
        <ele>439.058</ele>
        <time>2021-06-12T21:39:39Z</time>
      </trkpt>
      <trkpt lat="41.769383" lon="2.267602">
        <ele>438.936</ele>
        <time>2021-06-12T21:39:42Z</time>
      </trkpt>
      <trkpt lat="41.769341" lon="2.267563">
        <ele>438.769</ele>
        <time>2021-06-12T21:39:46Z</time>
      </trkpt>
      <trkpt lat="41.769298" lon="2.267533">
        <ele>438.374</ele>
        <time>2021-06-12T21:39:51Z</time>
      </trkpt>
      <trkpt lat="41.769256" lon="2.267501">
        <ele>438.389</ele>
        <time>2021-06-12T21:39:56Z</time>
      </trkpt>
      <trkpt lat="41.769219" lon="2.267456">
        <ele>438.276</ele>
        <time>2021-06-12T21:40:02Z</time>
      </trkpt>
      <trkpt lat="41.769181" lon="2.267420">
        <ele>438.075</ele>
        <time>2021-06-12T21:40:07Z</time>
      </trkpt>
      <trkpt lat="41.769142" lon="2.267377">
        <ele>437.931</ele>
        <time>2021-06-12T21:40:13Z</time>
      </trkpt>
      <trkpt lat="41.769111" lon="2.267330">
        <ele>437.734</ele>
        <time>2021-06-12T21:40:17Z</time>
      </trkpt>
      <trkpt lat="41.769074" lon="2.267290">
        <ele>437.655</ele>
        <time>2021-06-12T21:40:22Z</time>
      </trkpt>
      <trkpt lat="41.769030" lon="2.267265">
        <ele>437.410</ele>
        <time>2021-06-12T21:40:26Z</time>
      </trkpt>
      <trkpt lat="41.768988" lon="2.267240">
        <ele>437.208</ele>
        <time>2021-06-12T21:40:30Z</time>
      </trkpt>
      <trkpt lat="41.768944" lon="2.267209">
        <ele>437.250</ele>
        <time>2021-06-12T21:40:36Z</time>
      </trkpt>
      <trkpt lat="41.768909" lon="2.267161">
        <ele>437.068</ele>
        <time>2021-06-12T21:40:40Z</time>
      </trkpt>
      <trkpt lat="41.768877" lon="2.267105">
        <ele>436.941</ele>
        <time>2021-06-12T21:40:45Z</time>
      </trkpt>
      <trkpt lat="41.768843" lon="2.267060">
        <ele>436.746</ele>
        <time>2021-06-12T21:40:50Z</time>
      </trkpt>
      <trkpt lat="41.768810" lon="2.267016">
        <ele>436.881</ele>
        <time>2021-06-12T21:40:54Z</time>
      </trkpt>
      <trkpt lat="41.768771" lon="2.266980">
        <ele>436.758</ele>
        <time>2021-06-12T21:40:58Z</time>
      </trkpt>
      <trkpt lat="41.768726" lon="2.266953">
        <ele>436.347</ele>
        <time>2021-06-12T21:41:06Z</time>
      </trkpt>
      <trkpt lat="41.768686" lon="2.266912">
        <ele>436.163</ele>
        <time>2021-06-12T21:41:13Z</time>
      </trkpt>
      <trkpt lat="41.768645" lon="2.266877">
        <ele>436.098</ele>
        <time>2021-06-12T21:41:17Z</time>
      </trkpt>
      <trkpt lat="41.768610" lon="2.266836">
        <ele>435.815</ele>
        <time>2021-06-12T21:41:21Z</time>
      </trkpt>
      <trkpt lat="41.768581" lon="2.266788">
        <ele>435.826</ele>
        <time>2021-06-12T21:41:24Z</time>
      </trkpt>
      <trkpt lat="41.768547" lon="2.266745">
        <ele>435.808</ele>
        <time>2021-06-12T21:41:27Z</time>
      </trkpt>
      <trkpt lat="41.768500" lon="2.266715">
        <ele>435.836</ele>
        <time>2021-06-12T21:41:31Z</time>
      </trkpt>
      <trkpt lat="41.768455" lon="2.266692">
        <ele>435.764</ele>
        <time>2021-06-12T21:41:35Z</time>
      </trkpt>
      <trkpt lat="41.768414" lon="2.266664">
        <ele>435.557</ele>
        <time>2021-06-12T21:41:39Z</time>
      </trkpt>
      <trkpt lat="41.768378" lon="2.266627">
        <ele>435.312</ele>
        <time>2021-06-12T21:41:44Z</time>
      </trkpt>
      <trkpt lat="41.768343" lon="2.266588">
        <ele>435.247</ele>
        <time>2021-06-12T21:41:48Z</time>
      </trkpt>
      <trkpt lat="41.768308" lon="2.266534">
        <ele>435.344</ele>
        <time>2021-06-12T21:41:52Z</time>
      </trkpt>
      <trkpt lat="41.768281" lon="2.266481">
        <ele>435.083</ele>
        <time>2021-06-12T21:41:59Z</time>
      </trkpt>
      <trkpt lat="41.768249" lon="2.266430">
        <ele>434.819</ele>
        <time>2021-06-12T21:42:05Z</time>
      </trkpt>
      <trkpt lat="41.768213" lon="2.266387">
        <ele>434.453</ele>
        <time>2021-06-12T21:42:14Z</time>
      </trkpt>
      <trkpt lat="41.768181" lon="2.266341">
        <ele>434.204</ele>
        <time>2021-06-12T21:42:18Z</time>
      </trkpt>
      <trkpt lat="41.768149" lon="2.266289">
        <ele>434.014</ele>
        <time>2021-06-12T21:42:22Z</time>
      </trkpt>
      <trkpt lat="41.768123" lon="2.266231">
        <ele>434.008</ele>
        <time>2021-06-12T21:42:25Z</time>
      </trkpt>
      <trkpt lat="41.768097" lon="2.266164">
        <ele>433.872</ele>
        <time>2021-06-12T21:42:28Z</time>
      </trkpt>
      <trkpt lat="41.768077" lon="2.266100">
        <ele>433.550</ele>
        <time>2021-06-12T21:42:32Z</time>
      </trkpt>
      <trkpt lat="41.768057" lon="2.266041">
        <ele>433.843</ele>
        <time>2021-06-12T21:42:36Z</time>
      </trkpt>
      <trkpt lat="41.768038" lon="2.265981">
        <ele>433.628</ele>
        <time>2021-06-12T21:42:40Z</time>
      </trkpt>
      <trkpt lat="41.768023" lon="2.265923">
        <ele>433.513</ele>
        <time>2021-06-12T21:42:44Z</time>
      </trkpt>
      <trkpt lat="41.768000" lon="2.265870">
        <ele>433.510</ele>
        <time>2021-06-12T21:42:48Z</time>
      </trkpt>
      <trkpt lat="41.767971" lon="2.265815">
        <ele>433.329</ele>
        <time>2021-06-12T21:42:52Z</time>
      </trkpt>
      <trkpt lat="41.767939" lon="2.265763">
        <ele>433.345</ele>
        <time>2021-06-12T21:42:55Z</time>
      </trkpt>
      <trkpt lat="41.767903" lon="2.265724">
        <ele>433.183</ele>
        <time>2021-06-12T21:42:59Z</time>
      </trkpt>
      <trkpt lat="41.767872" lon="2.265673">
        <ele>433.125</ele>
        <time>2021-06-12T21:43:03Z</time>
      </trkpt>
      <trkpt lat="41.767855" lon="2.265617">
        <ele>432.917</ele>
        <time>2021-06-12T21:43:07Z</time>
      </trkpt>
      <trkpt lat="41.767836" lon="2.265554">
        <ele>432.808</ele>
        <time>2021-06-12T21:43:11Z</time>
      </trkpt>
      <trkpt lat="41.767808" lon="2.265499">
        <ele>432.775</ele>
        <time>2021-06-12T21:43:17Z</time>
      </trkpt>
      <trkpt lat="41.767784" lon="2.265445">
        <ele>432.433</ele>
        <time>2021-06-12T21:43:21Z</time>
      </trkpt>
      <trkpt lat="41.767762" lon="2.265389">
        <ele>431.966</ele>
        <time>2021-06-12T21:43:25Z</time>
      </trkpt>
      <trkpt lat="41.767740" lon="2.265333">
        <ele>431.561</ele>
        <time>2021-06-12T21:43:28Z</time>
      </trkpt>
      <trkpt lat="41.767701" lon="2.265295">
        <ele>432.166</ele>
        <time>2021-06-12T21:43:34Z</time>
      </trkpt>
      <trkpt lat="41.767670" lon="2.265250">
        <ele>432.983</ele>
        <time>2021-06-12T21:43:38Z</time>
      </trkpt>
      <trkpt lat="41.767647" lon="2.265197">
        <ele>431.092</ele>
        <time>2021-06-12T21:43:42Z</time>
      </trkpt>
      <trkpt lat="41.767623" lon="2.265141">
        <ele>430.658</ele>
        <time>2021-06-12T21:43:47Z</time>
      </trkpt>
      <trkpt lat="41.767592" lon="2.265093">
        <ele>430.415</ele>
        <time>2021-06-12T21:43:52Z</time>
      </trkpt>
      <trkpt lat="41.767548" lon="2.265068">
        <ele>430.065</ele>
        <time>2021-06-12T21:43:57Z</time>
      </trkpt>
      <trkpt lat="41.767504" lon="2.265045">
        <ele>429.711</ele>
        <time>2021-06-12T21:44:01Z</time>
      </trkpt>
      <trkpt lat="41.767461" lon="2.265021">
        <ele>429.708</ele>
        <time>2021-06-12T21:44:06Z</time>
      </trkpt>
      <trkpt lat="41.767419" lon="2.264995">
        <ele>429.778</ele>
        <time>2021-06-12T21:44:11Z</time>
      </trkpt>
      <trkpt lat="41.767372" lon="2.264969">
        <ele>429.656</ele>
        <time>2021-06-12T21:44:16Z</time>
      </trkpt>
      <trkpt lat="41.767325" lon="2.264948">
        <ele>429.579</ele>
        <time>2021-06-12T21:44:21Z</time>
      </trkpt>
      <trkpt lat="41.767280" lon="2.264934">
        <ele>429.664</ele>
        <time>2021-06-12T21:44:28Z</time>
      </trkpt>
      <trkpt lat="41.767235" lon="2.264923">
        <ele>429.669</ele>
        <time>2021-06-12T21:44:33Z</time>
      </trkpt>
      <trkpt lat="41.767188" lon="2.264928">
        <ele>429.536</ele>
        <time>2021-06-12T21:44:37Z</time>
      </trkpt>
      <trkpt lat="41.767145" lon="2.264956">
        <ele>429.675</ele>
        <time>2021-06-12T21:44:41Z</time>
      </trkpt>
      <trkpt lat="41.767097" lon="2.264977">
        <ele>429.511</ele>
        <time>2021-06-12T21:44:46Z</time>
      </trkpt>
      <trkpt lat="41.767058" lon="2.265023">
        <ele>429.634</ele>
        <time>2021-06-12T21:44:49Z</time>
      </trkpt>
      <trkpt lat="41.767032" lon="2.265082">
        <ele>429.855</ele>
        <time>2021-06-12T21:44:53Z</time>
      </trkpt>
      <trkpt lat="41.767018" lon="2.265142">
        <ele>429.810</ele>
        <time>2021-06-12T21:44:56Z</time>
      </trkpt>
      <trkpt lat="41.766999" lon="2.265201">
        <ele>430.208</ele>
        <time>2021-06-12T21:45:01Z</time>
      </trkpt>
      <trkpt lat="41.766987" lon="2.265261">
        <ele>430.550</ele>
        <time>2021-06-12T21:45:07Z</time>
      </trkpt>
      <trkpt lat="41.766968" lon="2.265317">
        <ele>430.558</ele>
        <time>2021-06-12T21:45:12Z</time>
      </trkpt>
      <trkpt lat="41.766934" lon="2.265365">
        <ele>430.881</ele>
        <time>2021-06-12T21:45:21Z</time>
      </trkpt>
      <trkpt lat="41.766930" lon="2.265426">
        <ele>430.836</ele>
        <time>2021-06-12T21:45:27Z</time>
      </trkpt>
      <trkpt lat="41.766886" lon="2.265457">
        <ele>430.781</ele>
        <time>2021-06-12T21:45:31Z</time>
      </trkpt>
      <trkpt lat="41.766839" lon="2.265475">
        <ele>430.658</ele>
        <time>2021-06-12T21:45:34Z</time>
      </trkpt>
      <trkpt lat="41.766802" lon="2.265516">
        <ele>430.237</ele>
        <time>2021-06-12T21:45:38Z</time>
      </trkpt>
      <trkpt lat="41.766762" lon="2.265556">
        <ele>430.213</ele>
        <time>2021-06-12T21:45:43Z</time>
      </trkpt>
      <trkpt lat="41.766719" lon="2.265583">
        <ele>430.027</ele>
        <time>2021-06-12T21:45:47Z</time>
      </trkpt>
      <trkpt lat="41.766670" lon="2.265608">
        <ele>429.968</ele>
        <time>2021-06-12T21:45:51Z</time>
      </trkpt>
      <trkpt lat="41.766630" lon="2.265638">
        <ele>429.814</ele>
        <time>2021-06-12T21:45:55Z</time>
      </trkpt>
      <trkpt lat="41.766589" lon="2.265678">
        <ele>429.908</ele>
        <time>2021-06-12T21:46:00Z</time>
      </trkpt>
      <trkpt lat="41.766545" lon="2.265700">
        <ele>429.879</ele>
        <time>2021-06-12T21:46:04Z</time>
      </trkpt>
      <trkpt lat="41.766500" lon="2.265707">
        <ele>429.857</ele>
        <time>2021-06-12T21:46:09Z</time>
      </trkpt>
      <trkpt lat="41.766455" lon="2.265709">
        <ele>429.870</ele>
        <time>2021-06-12T21:46:13Z</time>
      </trkpt>
      <trkpt lat="41.766408" lon="2.265708">
        <ele>430.055</ele>
        <time>2021-06-12T21:46:17Z</time>
      </trkpt>
      <trkpt lat="41.766358" lon="2.265689">
        <ele>429.780</ele>
        <time>2021-06-12T21:46:22Z</time>
      </trkpt>
      <trkpt lat="41.766318" lon="2.265656">
        <ele>429.477</ele>
        <time>2021-06-12T21:46:27Z</time>
      </trkpt>
      <trkpt lat="41.766277" lon="2.265627">
        <ele>429.346</ele>
        <time>2021-06-12T21:46:32Z</time>
      </trkpt>
      <trkpt lat="41.766235" lon="2.265587">
        <ele>428.992</ele>
        <time>2021-06-12T21:46:37Z</time>
      </trkpt>
      <trkpt lat="41.766204" lon="2.265534">
        <ele>428.989</ele>
        <time>2021-06-12T21:46:41Z</time>
      </trkpt>
      <trkpt lat="41.766189" lon="2.265474">
        <ele>428.406</ele>
        <time>2021-06-12T21:46:45Z</time>
      </trkpt>
      <trkpt lat="41.766175" lon="2.265409">
        <ele>428.326</ele>
        <time>2021-06-12T21:46:51Z</time>
      </trkpt>
      <trkpt lat="41.766162" lon="2.265347">
        <ele>428.008</ele>
        <time>2021-06-12T21:46:55Z</time>
      </trkpt>
      <trkpt lat="41.766134" lon="2.265293">
        <ele>427.755</ele>
        <time>2021-06-12T21:46:58Z</time>
      </trkpt>
      <trkpt lat="41.766123" lon="2.265233">
        <ele>427.333</ele>
        <time>2021-06-12T21:47:03Z</time>
      </trkpt>
      <trkpt lat="41.766106" lon="2.265173">
        <ele>426.956</ele>
        <time>2021-06-12T21:47:08Z</time>
      </trkpt>
      <trkpt lat="41.766089" lon="2.265114">
        <ele>426.251</ele>
        <time>2021-06-12T21:47:13Z</time>
      </trkpt>
      <trkpt lat="41.766071" lon="2.265052">
        <ele>426.646</ele>
        <time>2021-06-12T21:47:16Z</time>
      </trkpt>
      <trkpt lat="41.766059" lon="2.264991">
        <ele>425.953</ele>
        <time>2021-06-12T21:47:20Z</time>
      </trkpt>
      <trkpt lat="41.766049" lon="2.264924">
        <ele>425.492</ele>
        <time>2021-06-12T21:47:24Z</time>
      </trkpt>
      <trkpt lat="41.766041" lon="2.264859">
        <ele>425.178</ele>
        <time>2021-06-12T21:47:28Z</time>
      </trkpt>
      <trkpt lat="41.766023" lon="2.264802">
        <ele>424.843</ele>
        <time>2021-06-12T21:47:33Z</time>
      </trkpt>
      <trkpt lat="41.766003" lon="2.264744">
        <ele>424.464</ele>
        <time>2021-06-12T21:47:37Z</time>
      </trkpt>
      <trkpt lat="41.765988" lon="2.264677">
        <ele>424.110</ele>
        <time>2021-06-12T21:47:41Z</time>
      </trkpt>
      <trkpt lat="41.765970" lon="2.264616">
        <ele>423.808</ele>
        <time>2021-06-12T21:47:44Z</time>
      </trkpt>
      <trkpt lat="41.765946" lon="2.264557">
        <ele>423.611</ele>
        <time>2021-06-12T21:47:48Z</time>
      </trkpt>
      <trkpt lat="41.765921" lon="2.264503">
        <ele>423.379</ele>
        <time>2021-06-12T21:47:53Z</time>
      </trkpt>
      <trkpt lat="41.765894" lon="2.264454">
        <ele>423.342</ele>
        <time>2021-06-12T21:47:57Z</time>
      </trkpt>
      <trkpt lat="41.765866" lon="2.264399">
        <ele>423.087</ele>
        <time>2021-06-12T21:48:01Z</time>
      </trkpt>
      <trkpt lat="41.765838" lon="2.264349">
        <ele>423.062</ele>
        <time>2021-06-12T21:48:06Z</time>
      </trkpt>
      <trkpt lat="41.765823" lon="2.264288">
        <ele>422.749</ele>
        <time>2021-06-12T21:48:10Z</time>
      </trkpt>
      <trkpt lat="41.765803" lon="2.264224">
        <ele>422.448</ele>
        <time>2021-06-12T21:48:15Z</time>
      </trkpt>
      <trkpt lat="41.765775" lon="2.264174">
        <ele>422.144</ele>
        <time>2021-06-12T21:48:19Z</time>
      </trkpt>
      <trkpt lat="41.765747" lon="2.264126">
        <ele>421.478</ele>
        <time>2021-06-12T21:48:24Z</time>
      </trkpt>
      <trkpt lat="41.765714" lon="2.264077">
        <ele>420.933</ele>
        <time>2021-06-12T21:48:30Z</time>
      </trkpt>
      <trkpt lat="41.765681" lon="2.264036">
        <ele>420.426</ele>
        <time>2021-06-12T21:48:34Z</time>
      </trkpt>
      <trkpt lat="41.765645" lon="2.263988">
        <ele>420.108</ele>
        <time>2021-06-12T21:48:39Z</time>
      </trkpt>
      <trkpt lat="41.765622" lon="2.263931">
        <ele>419.434</ele>
        <time>2021-06-12T21:48:43Z</time>
      </trkpt>
      <trkpt lat="41.765610" lon="2.263870">
        <ele>419.062</ele>
        <time>2021-06-12T21:48:48Z</time>
      </trkpt>
      <trkpt lat="41.765600" lon="2.263807">
        <ele>418.835</ele>
        <time>2021-06-12T21:48:52Z</time>
      </trkpt>
      <trkpt lat="41.765600" lon="2.263746">
        <ele>418.940</ele>
        <time>2021-06-12T21:48:55Z</time>
      </trkpt>
      <trkpt lat="41.765597" lon="2.263672">
        <ele>418.645</ele>
        <time>2021-06-12T21:48:59Z</time>
      </trkpt>
      <trkpt lat="41.765583" lon="2.263611">
        <ele>418.582</ele>
        <time>2021-06-12T21:49:03Z</time>
      </trkpt>
      <trkpt lat="41.765566" lon="2.263552">
        <ele>418.551</ele>
        <time>2021-06-12T21:49:10Z</time>
      </trkpt>
      <trkpt lat="41.765554" lon="2.263493">
        <ele>418.147</ele>
        <time>2021-06-12T21:49:15Z</time>
      </trkpt>
      <trkpt lat="41.765524" lon="2.263438">
        <ele>417.923</ele>
        <time>2021-06-12T21:49:20Z</time>
      </trkpt>
      <trkpt lat="41.765503" lon="2.263379">
        <ele>418.083</ele>
        <time>2021-06-12T21:49:25Z</time>
      </trkpt>
      <trkpt lat="41.765474" lon="2.263330">
        <ele>418.011</ele>
        <time>2021-06-12T21:49:30Z</time>
      </trkpt>
      <trkpt lat="41.765443" lon="2.263277">
        <ele>417.808</ele>
        <time>2021-06-12T21:49:33Z</time>
      </trkpt>
      <trkpt lat="41.765422" lon="2.263214">
        <ele>417.759</ele>
        <time>2021-06-12T21:49:37Z</time>
      </trkpt>
      <trkpt lat="41.765418" lon="2.263150">
        <ele>417.457</ele>
        <time>2021-06-12T21:49:41Z</time>
      </trkpt>
      <trkpt lat="41.765410" lon="2.263089">
        <ele>417.220</ele>
        <time>2021-06-12T21:49:46Z</time>
      </trkpt>
      <trkpt lat="41.765404" lon="2.263024">
        <ele>417.455</ele>
        <time>2021-06-12T21:49:50Z</time>
      </trkpt>
      <trkpt lat="41.765398" lon="2.262955">
        <ele>417.120</ele>
        <time>2021-06-12T21:49:55Z</time>
      </trkpt>
      <trkpt lat="41.765392" lon="2.262895">
        <ele>416.917</ele>
        <time>2021-06-12T21:49:59Z</time>
      </trkpt>
      <trkpt lat="41.765393" lon="2.262834">
        <ele>416.986</ele>
        <time>2021-06-12T21:50:03Z</time>
      </trkpt>
      <trkpt lat="41.765376" lon="2.262769">
        <ele>416.772</ele>
        <time>2021-06-12T21:50:08Z</time>
      </trkpt>
      <trkpt lat="41.765368" lon="2.262705">
        <ele>416.654</ele>
        <time>2021-06-12T21:50:13Z</time>
      </trkpt>
      <trkpt lat="41.765356" lon="2.262637">
        <ele>416.656</ele>
        <time>2021-06-12T21:50:17Z</time>
      </trkpt>
      <trkpt lat="41.765352" lon="2.262568">
        <ele>416.711</ele>
        <time>2021-06-12T21:50:21Z</time>
      </trkpt>
      <trkpt lat="41.765344" lon="2.262502">
        <ele>416.308</ele>
        <time>2021-06-12T21:50:25Z</time>
      </trkpt>
      <trkpt lat="41.765340" lon="2.262432">
        <ele>416.332</ele>
        <time>2021-06-12T21:50:29Z</time>
      </trkpt>
      <trkpt lat="41.765334" lon="2.262364">
        <ele>416.130</ele>
        <time>2021-06-12T21:50:33Z</time>
      </trkpt>
      <trkpt lat="41.765332" lon="2.262300">
        <ele>416.163</ele>
        <time>2021-06-12T21:50:36Z</time>
      </trkpt>
      <trkpt lat="41.765329" lon="2.262237">
        <ele>416.028</ele>
        <time>2021-06-12T21:50:41Z</time>
      </trkpt>
      <trkpt lat="41.765320" lon="2.262175">
        <ele>416.123</ele>
        <time>2021-06-12T21:50:48Z</time>
      </trkpt>
      <trkpt lat="41.765309" lon="2.262112">
        <ele>416.190</ele>
        <time>2021-06-12T21:50:52Z</time>
      </trkpt>
      <trkpt lat="41.765306" lon="2.262047">
        <ele>416.069</ele>
        <time>2021-06-12T21:50:57Z</time>
      </trkpt>
      <trkpt lat="41.765305" lon="2.261983">
        <ele>415.735</ele>
        <time>2021-06-12T21:51:01Z</time>
      </trkpt>
      <trkpt lat="41.765296" lon="2.261921">
        <ele>415.569</ele>
        <time>2021-06-12T21:51:06Z</time>
      </trkpt>
      <trkpt lat="41.765297" lon="2.261857">
        <ele>415.504</ele>
        <time>2021-06-12T21:51:11Z</time>
      </trkpt>
      <trkpt lat="41.765290" lon="2.261795">
        <ele>415.624</ele>
        <time>2021-06-12T21:51:14Z</time>
      </trkpt>
      <trkpt lat="41.765279" lon="2.261734">
        <ele>415.308</ele>
        <time>2021-06-12T21:51:18Z</time>
      </trkpt>
      <trkpt lat="41.765270" lon="2.261674">
        <ele>415.253</ele>
        <time>2021-06-12T21:51:21Z</time>
      </trkpt>
      <trkpt lat="41.765263" lon="2.261608">
        <ele>415.171</ele>
        <time>2021-06-12T21:51:25Z</time>
      </trkpt>
      <trkpt lat="41.765249" lon="2.261546">
        <ele>415.014</ele>
        <time>2021-06-12T21:51:29Z</time>
      </trkpt>
      <trkpt lat="41.765226" lon="2.261489">
        <ele>414.719</ele>
        <time>2021-06-12T21:51:34Z</time>
      </trkpt>
      <trkpt lat="41.765220" lon="2.261428">
        <ele>414.714</ele>
        <time>2021-06-12T21:51:38Z</time>
      </trkpt>
      <trkpt lat="41.765216" lon="2.261366">
        <ele>414.531</ele>
        <time>2021-06-12T21:51:42Z</time>
      </trkpt>
      <trkpt lat="41.765210" lon="2.261300">
        <ele>414.440</ele>
        <time>2021-06-12T21:51:46Z</time>
      </trkpt>
      <trkpt lat="41.765204" lon="2.261234">
        <ele>414.086</ele>
        <time>2021-06-12T21:51:51Z</time>
      </trkpt>
      <trkpt lat="41.765205" lon="2.261169">
        <ele>413.965</ele>
        <time>2021-06-12T21:51:57Z</time>
      </trkpt>
      <trkpt lat="41.765209" lon="2.261108">
        <ele>414.068</ele>
        <time>2021-06-12T21:52:01Z</time>
      </trkpt>
      <trkpt lat="41.765213" lon="2.261041">
        <ele>414.014</ele>
        <time>2021-06-12T21:52:05Z</time>
      </trkpt>
      <trkpt lat="41.765229" lon="2.260983">
        <ele>413.808</ele>
        <time>2021-06-12T21:52:09Z</time>
      </trkpt>
      <trkpt lat="41.765251" lon="2.260930">
        <ele>413.963</ele>
        <time>2021-06-12T21:52:13Z</time>
      </trkpt>
      <trkpt lat="41.765261" lon="2.260865">
        <ele>413.941</ele>
        <time>2021-06-12T21:52:18Z</time>
      </trkpt>
      <trkpt lat="41.765264" lon="2.260802">
        <ele>413.934</ele>
        <time>2021-06-12T21:52:22Z</time>
      </trkpt>
      <trkpt lat="41.765268" lon="2.260734">
        <ele>414.069</ele>
        <time>2021-06-12T21:52:27Z</time>
      </trkpt>
      <trkpt lat="41.765263" lon="2.260672">
        <ele>414.094</ele>
        <time>2021-06-12T21:52:30Z</time>
      </trkpt>
      <trkpt lat="41.765262" lon="2.260610">
        <ele>413.961</ele>
        <time>2021-06-12T21:52:34Z</time>
      </trkpt>
      <trkpt lat="41.765267" lon="2.260542">
        <ele>414.050</ele>
        <time>2021-06-12T21:52:39Z</time>
      </trkpt>
      <trkpt lat="41.765277" lon="2.260478">
        <ele>413.856</ele>
        <time>2021-06-12T21:52:44Z</time>
      </trkpt>
      <trkpt lat="41.765289" lon="2.260416">
        <ele>413.826</ele>
        <time>2021-06-12T21:52:49Z</time>
      </trkpt>
      <trkpt lat="41.765297" lon="2.260352">
        <ele>413.747</ele>
        <time>2021-06-12T21:52:54Z</time>
      </trkpt>
      <trkpt lat="41.765306" lon="2.260290">
        <ele>413.711</ele>
        <time>2021-06-12T21:52:59Z</time>
      </trkpt>
      <trkpt lat="41.765337" lon="2.260239">
        <ele>413.808</ele>
        <time>2021-06-12T21:53:08Z</time>
      </trkpt>
      <trkpt lat="41.765355" lon="2.260179">
        <ele>413.759</ele>
        <time>2021-06-12T21:53:14Z</time>
      </trkpt>
      <trkpt lat="41.765380" lon="2.260239">
        <ele>414.267</ele>
        <time>2021-06-12T21:54:08Z</time>
      </trkpt>
      <trkpt lat="41.765419" lon="2.260208">
        <ele>414.450</ele>
        <time>2021-06-12T21:54:21Z</time>
      </trkpt>
      <trkpt lat="41.765459" lon="2.260307">
        <ele>413.775</ele>
        <time>2021-06-12T21:55:02Z</time>
      </trkpt>
      <trkpt lat="41.765470" lon="2.260242">
        <ele>414.020</ele>
        <time>2021-06-12T21:55:14Z</time>
      </trkpt>
      <trkpt lat="41.765458" lon="2.260153">
        <ele>414.077</ele>
        <time>2021-06-12T22:02:58Z</time>
      </trkpt>
      <trkpt lat="41.765394" lon="2.260196">
        <ele>413.746</ele>
        <time>2021-06-12T22:03:01Z</time>
      </trkpt>
      <trkpt lat="41.765369" lon="2.260247">
        <ele>412.652</ele>
        <time>2021-06-12T22:03:06Z</time>
      </trkpt>
      <trkpt lat="41.765361" lon="2.260183">
        <ele>412.889</ele>
        <time>2021-06-12T22:03:14Z</time>
      </trkpt>
      <trkpt lat="41.765361" lon="2.260119">
        <ele>413.206</ele>
        <time>2021-06-12T22:03:22Z</time>
      </trkpt>
      <trkpt lat="41.765402" lon="2.260085">
        <ele>413.026</ele>
        <time>2021-06-12T22:03:36Z</time>
      </trkpt>
      <trkpt lat="41.765439" lon="2.260051">
        <ele>412.908</ele>
        <time>2021-06-12T22:03:40Z</time>
      </trkpt>
      <trkpt lat="41.765462" lon="2.259994">
        <ele>412.915</ele>
        <time>2021-06-12T22:03:44Z</time>
      </trkpt>
      <trkpt lat="41.765460" lon="2.259934">
        <ele>412.983</ele>
        <time>2021-06-12T22:03:47Z</time>
      </trkpt>
      <trkpt lat="41.765474" lon="2.259872">
        <ele>412.796</ele>
        <time>2021-06-12T22:03:50Z</time>
      </trkpt>
      <trkpt lat="41.765500" lon="2.259809">
        <ele>412.741</ele>
        <time>2021-06-12T22:03:54Z</time>
      </trkpt>
      <trkpt lat="41.765525" lon="2.259755">
        <ele>412.746</ele>
        <time>2021-06-12T22:03:58Z</time>
      </trkpt>
      <trkpt lat="41.765555" lon="2.259709">
        <ele>412.633</ele>
        <time>2021-06-12T22:04:02Z</time>
      </trkpt>
      <trkpt lat="41.765588" lon="2.259667">
        <ele>412.882</ele>
        <time>2021-06-12T22:04:07Z</time>
      </trkpt>
      <trkpt lat="41.765628" lon="2.259627">
        <ele>412.788</ele>
        <time>2021-06-12T22:04:13Z</time>
      </trkpt>
      <trkpt lat="41.765654" lon="2.259573">
        <ele>412.647</ele>
        <time>2021-06-12T22:04:19Z</time>
      </trkpt>
      <trkpt lat="41.765684" lon="2.259524">
        <ele>412.629</ele>
        <time>2021-06-12T22:04:24Z</time>
      </trkpt>
      <trkpt lat="41.765716" lon="2.259481">
        <ele>412.421</ele>
        <time>2021-06-12T22:04:29Z</time>
      </trkpt>
      <trkpt lat="41.765753" lon="2.259438">
        <ele>412.708</ele>
        <time>2021-06-12T22:04:33Z</time>
      </trkpt>
      <trkpt lat="41.765777" lon="2.259376">
        <ele>412.451</ele>
        <time>2021-06-12T22:04:38Z</time>
      </trkpt>
      <trkpt lat="41.765778" lon="2.259308">
        <ele>412.369</ele>
        <time>2021-06-12T22:04:52Z</time>
      </trkpt>
      <trkpt lat="41.765795" lon="2.259237">
        <ele>412.332</ele>
        <time>2021-06-12T22:04:55Z</time>
      </trkpt>
      <trkpt lat="41.765824" lon="2.259183">
        <ele>412.247</ele>
        <time>2021-06-12T22:04:58Z</time>
      </trkpt>
      <trkpt lat="41.765859" lon="2.259136">
        <ele>411.492</ele>
        <time>2021-06-12T22:05:01Z</time>
      </trkpt>
      <trkpt lat="41.765882" lon="2.259075">
        <ele>411.849</ele>
        <time>2021-06-12T22:05:05Z</time>
      </trkpt>
      <trkpt lat="41.765902" lon="2.259018">
        <ele>411.438</ele>
        <time>2021-06-12T22:05:10Z</time>
      </trkpt>
      <trkpt lat="41.765943" lon="2.258976">
        <ele>411.324</ele>
        <time>2021-06-12T22:05:13Z</time>
      </trkpt>
      <trkpt lat="41.765967" lon="2.258916">
        <ele>411.025</ele>
        <time>2021-06-12T22:05:18Z</time>
      </trkpt>
      <trkpt lat="41.765994" lon="2.258866">
        <ele>411.026</ele>
        <time>2021-06-12T22:05:22Z</time>
      </trkpt>
      <trkpt lat="41.766032" lon="2.258829">
        <ele>410.308</ele>
        <time>2021-06-12T22:05:27Z</time>
      </trkpt>
      <trkpt lat="41.766076" lon="2.258806">
        <ele>410.508</ele>
        <time>2021-06-12T22:05:34Z</time>
      </trkpt>
      <trkpt lat="41.766085" lon="2.258735">
        <ele>410.729</ele>
        <time>2021-06-12T22:05:38Z</time>
      </trkpt>
      <trkpt lat="41.766077" lon="2.258675">
        <ele>409.397</ele>
        <time>2021-06-12T22:05:42Z</time>
      </trkpt>
      <trkpt lat="41.766108" lon="2.258626">
        <ele>413.910</ele>
        <time>2021-06-12T22:05:46Z</time>
      </trkpt>
      <trkpt lat="41.766132" lon="2.258572">
        <ele>410.625</ele>
        <time>2021-06-12T22:05:51Z</time>
      </trkpt>
      <trkpt lat="41.766143" lon="2.258505">
        <ele>410.450</ele>
        <time>2021-06-12T22:05:55Z</time>
      </trkpt>
      <trkpt lat="41.766149" lon="2.258434">
        <ele>410.367</ele>
        <time>2021-06-12T22:05:59Z</time>
      </trkpt>
      <trkpt lat="41.766145" lon="2.258372">
        <ele>410.196</ele>
        <time>2021-06-12T22:06:02Z</time>
      </trkpt>
      <trkpt lat="41.766138" lon="2.258311">
        <ele>409.832</ele>
        <time>2021-06-12T22:06:06Z</time>
      </trkpt>
      <trkpt lat="41.766134" lon="2.258247">
        <ele>409.743</ele>
        <time>2021-06-12T22:06:11Z</time>
      </trkpt>
      <trkpt lat="41.766138" lon="2.258184">
        <ele>409.564</ele>
        <time>2021-06-12T22:06:15Z</time>
      </trkpt>
      <trkpt lat="41.766137" lon="2.258121">
        <ele>409.310</ele>
        <time>2021-06-12T22:06:20Z</time>
      </trkpt>
      <trkpt lat="41.766145" lon="2.258055">
        <ele>409.308</ele>
        <time>2021-06-12T22:06:24Z</time>
      </trkpt>
      <trkpt lat="41.766151" lon="2.257992">
        <ele>409.261</ele>
        <time>2021-06-12T22:06:28Z</time>
      </trkpt>
      <trkpt lat="41.766155" lon="2.257925">
        <ele>408.929</ele>
        <time>2021-06-12T22:06:32Z</time>
      </trkpt>
      <trkpt lat="41.766150" lon="2.257862">
        <ele>409.042</ele>
        <time>2021-06-12T22:06:36Z</time>
      </trkpt>
      <trkpt lat="41.766138" lon="2.257795">
        <ele>408.877</ele>
        <time>2021-06-12T22:06:41Z</time>
      </trkpt>
      <trkpt lat="41.766125" lon="2.257737">
        <ele>409.032</ele>
        <time>2021-06-12T22:06:46Z</time>
      </trkpt>
      <trkpt lat="41.766149" lon="2.257680">
        <ele>408.919</ele>
        <time>2021-06-12T22:06:54Z</time>
      </trkpt>
      <trkpt lat="41.766171" lon="2.257627">
        <ele>408.978</ele>
        <time>2021-06-12T22:06:58Z</time>
      </trkpt>
      <trkpt lat="41.766175" lon="2.257566">
        <ele>409.164</ele>
        <time>2021-06-12T22:07:01Z</time>
      </trkpt>
      <trkpt lat="41.766165" lon="2.257499">
        <ele>408.879</ele>
        <time>2021-06-12T22:07:05Z</time>
      </trkpt>
      <trkpt lat="41.766152" lon="2.257441">
        <ele>408.805</ele>
        <time>2021-06-12T22:07:10Z</time>
      </trkpt>
      <trkpt lat="41.766147" lon="2.257380">
        <ele>409.125</ele>
        <time>2021-06-12T22:07:13Z</time>
      </trkpt>
      <trkpt lat="41.766147" lon="2.257314">
        <ele>408.808</ele>
        <time>2021-06-12T22:07:17Z</time>
      </trkpt>
      <trkpt lat="41.766156" lon="2.257254">
        <ele>408.754</ele>
        <time>2021-06-12T22:07:21Z</time>
      </trkpt>
      <trkpt lat="41.766162" lon="2.257192">
        <ele>408.892</ele>
        <time>2021-06-12T22:07:24Z</time>
      </trkpt>
      <trkpt lat="41.766170" lon="2.257124">
        <ele>408.775</ele>
        <time>2021-06-12T22:07:29Z</time>
      </trkpt>
      <trkpt lat="41.766169" lon="2.257058">
        <ele>408.670</ele>
        <time>2021-06-12T22:07:34Z</time>
      </trkpt>
      <trkpt lat="41.766175" lon="2.256994">
        <ele>408.515</ele>
        <time>2021-06-12T22:07:40Z</time>
      </trkpt>
      <trkpt lat="41.766169" lon="2.256934">
        <ele>408.322</ele>
        <time>2021-06-12T22:07:44Z</time>
      </trkpt>
      <trkpt lat="41.766165" lon="2.256864">
        <ele>408.291</ele>
        <time>2021-06-12T22:07:49Z</time>
      </trkpt>
      <trkpt lat="41.766165" lon="2.256802">
        <ele>408.177</ele>
        <time>2021-06-12T22:07:53Z</time>
      </trkpt>
      <trkpt lat="41.766177" lon="2.256743">
        <ele>408.125</ele>
        <time>2021-06-12T22:07:57Z</time>
      </trkpt>
      <trkpt lat="41.766186" lon="2.256678">
        <ele>408.226</ele>
        <time>2021-06-12T22:08:03Z</time>
      </trkpt>
      <trkpt lat="41.766193" lon="2.256612">
        <ele>408.408</ele>
        <time>2021-06-12T22:08:12Z</time>
      </trkpt>
      <trkpt lat="41.766191" lon="2.256540">
        <ele>408.408</ele>
        <time>2021-06-12T22:08:16Z</time>
      </trkpt>
      <trkpt lat="41.766191" lon="2.256473">
        <ele>408.699</ele>
        <time>2021-06-12T22:08:19Z</time>
      </trkpt>
      <trkpt lat="41.766182" lon="2.256410">
        <ele>408.887</ele>
        <time>2021-06-12T22:08:22Z</time>
      </trkpt>
      <trkpt lat="41.766185" lon="2.256345">
        <ele>409.390</ele>
        <time>2021-06-12T22:08:27Z</time>
      </trkpt>
      <trkpt lat="41.766175" lon="2.256285">
        <ele>409.515</ele>
        <time>2021-06-12T22:08:32Z</time>
      </trkpt>
      <trkpt lat="41.766167" lon="2.256219">
        <ele>410.030</ele>
        <time>2021-06-12T22:08:36Z</time>
      </trkpt>
      <trkpt lat="41.766161" lon="2.256147">
        <ele>409.527</ele>
        <time>2021-06-12T22:08:39Z</time>
      </trkpt>
      <trkpt lat="41.766136" lon="2.256094">
        <ele>410.696</ele>
        <time>2021-06-12T22:08:43Z</time>
      </trkpt>
      <trkpt lat="41.766104" lon="2.256048">
        <ele>410.842</ele>
        <time>2021-06-12T22:08:46Z</time>
      </trkpt>
      <trkpt lat="41.766076" lon="2.255999">
        <ele>411.596</ele>
        <time>2021-06-12T22:08:51Z</time>
      </trkpt>
      <trkpt lat="41.766062" lon="2.255940">
        <ele>411.731</ele>
        <time>2021-06-12T22:08:56Z</time>
      </trkpt>
      <trkpt lat="41.766070" lon="2.255880">
        <ele>412.324</ele>
        <time>2021-06-12T22:09:00Z</time>
      </trkpt>
      <trkpt lat="41.766075" lon="2.255816">
        <ele>412.108</ele>
        <time>2021-06-12T22:09:05Z</time>
      </trkpt>
      <trkpt lat="41.766071" lon="2.255751">
        <ele>412.416</ele>
        <time>2021-06-12T22:09:09Z</time>
      </trkpt>
      <trkpt lat="41.766059" lon="2.255688">
        <ele>412.184</ele>
        <time>2021-06-12T22:09:12Z</time>
      </trkpt>
      <trkpt lat="41.766043" lon="2.255627">
        <ele>412.077</ele>
        <time>2021-06-12T22:09:16Z</time>
      </trkpt>
      <trkpt lat="41.766044" lon="2.255560">
        <ele>412.222</ele>
        <time>2021-06-12T22:09:20Z</time>
      </trkpt>
      <trkpt lat="41.766036" lon="2.255496">
        <ele>412.047</ele>
        <time>2021-06-12T22:09:24Z</time>
      </trkpt>
      <trkpt lat="41.766024" lon="2.255434">
        <ele>412.044</ele>
        <time>2021-06-12T22:09:28Z</time>
      </trkpt>
      <trkpt lat="41.766008" lon="2.255373">
        <ele>413.043</ele>
        <time>2021-06-12T22:09:31Z</time>
      </trkpt>
      <trkpt lat="41.765985" lon="2.255319">
        <ele>411.849</ele>
        <time>2021-06-12T22:09:35Z</time>
      </trkpt>
      <trkpt lat="41.765954" lon="2.255270">
        <ele>412.776</ele>
        <time>2021-06-12T22:09:39Z</time>
      </trkpt>
      <trkpt lat="41.765941" lon="2.255208">
        <ele>412.090</ele>
        <time>2021-06-12T22:09:57Z</time>
      </trkpt>
      <trkpt lat="41.765928" lon="2.255149">
        <ele>412.019</ele>
        <time>2021-06-12T22:10:00Z</time>
      </trkpt>
      <trkpt lat="41.765916" lon="2.255089">
        <ele>412.608</ele>
        <time>2021-06-12T22:10:05Z</time>
      </trkpt>
      <trkpt lat="41.765912" lon="2.255028">
        <ele>412.014</ele>
        <time>2021-06-12T22:10:10Z</time>
      </trkpt>
      <trkpt lat="41.765894" lon="2.254972">
        <ele>412.422</ele>
        <time>2021-06-12T22:10:15Z</time>
      </trkpt>
      <trkpt lat="41.765857" lon="2.254923">
        <ele>412.445</ele>
        <time>2021-06-12T22:10:21Z</time>
      </trkpt>
      <trkpt lat="41.765848" lon="2.254852">
        <ele>412.620</ele>
        <time>2021-06-12T22:10:24Z</time>
      </trkpt>
      <trkpt lat="41.765841" lon="2.254788">
        <ele>412.385</ele>
        <time>2021-06-12T22:10:27Z</time>
      </trkpt>
      <trkpt lat="41.765830" lon="2.254727">
        <ele>412.792</ele>
        <time>2021-06-12T22:10:31Z</time>
      </trkpt>
      <trkpt lat="41.765817" lon="2.254667">
        <ele>413.021</ele>
        <time>2021-06-12T22:10:35Z</time>
      </trkpt>
      <trkpt lat="41.765803" lon="2.254605">
        <ele>413.377</ele>
        <time>2021-06-12T22:10:39Z</time>
      </trkpt>
      <trkpt lat="41.765783" lon="2.254550">
        <ele>413.699</ele>
        <time>2021-06-12T22:10:44Z</time>
      </trkpt>
      <trkpt lat="41.765783" lon="2.254489">
        <ele>414.107</ele>
        <time>2021-06-12T22:10:51Z</time>
      </trkpt>
      <trkpt lat="41.765804" lon="2.254429">
        <ele>414.427</ele>
        <time>2021-06-12T22:10:57Z</time>
      </trkpt>
      <trkpt lat="41.765798" lon="2.254362">
        <ele>414.708</ele>
        <time>2021-06-12T22:11:02Z</time>
      </trkpt>
      <trkpt lat="41.765788" lon="2.254303">
        <ele>414.876</ele>
        <time>2021-06-12T22:11:07Z</time>
      </trkpt>
      <trkpt lat="41.765790" lon="2.254236">
        <ele>415.114</ele>
        <time>2021-06-12T22:11:11Z</time>
      </trkpt>
      <trkpt lat="41.765799" lon="2.254177">
        <ele>415.437</ele>
        <time>2021-06-12T22:11:16Z</time>
      </trkpt>
      <trkpt lat="41.765806" lon="2.254110">
        <ele>415.552</ele>
        <time>2021-06-12T22:11:21Z</time>
      </trkpt>
      <trkpt lat="41.765794" lon="2.254051">
        <ele>415.787</ele>
        <time>2021-06-12T22:11:26Z</time>
      </trkpt>
      <trkpt lat="41.765771" lon="2.253994">
        <ele>416.094</ele>
        <time>2021-06-12T22:11:30Z</time>
      </trkpt>
      <trkpt lat="41.765754" lon="2.253933">
        <ele>416.293</ele>
        <time>2021-06-12T22:11:36Z</time>
      </trkpt>
      <trkpt lat="41.765763" lon="2.253871">
        <ele>416.289</ele>
        <time>2021-06-12T22:11:43Z</time>
      </trkpt>
      <trkpt lat="41.765762" lon="2.253810">
        <ele>416.469</ele>
        <time>2021-06-12T22:11:48Z</time>
      </trkpt>
      <trkpt lat="41.765759" lon="2.253750">
        <ele>416.304</ele>
        <time>2021-06-12T22:11:52Z</time>
      </trkpt>
      <trkpt lat="41.765738" lon="2.253689">
        <ele>416.224</ele>
        <time>2021-06-12T22:11:56Z</time>
      </trkpt>
      <trkpt lat="41.765738" lon="2.253625">
        <ele>416.208</ele>
        <time>2021-06-12T22:12:01Z</time>
      </trkpt>
      <trkpt lat="41.765721" lon="2.253569">
        <ele>416.143</ele>
        <time>2021-06-12T22:12:04Z</time>
      </trkpt>
      <trkpt lat="41.765713" lon="2.253507">
        <ele>416.171</ele>
        <time>2021-06-12T22:12:07Z</time>
      </trkpt>
      <trkpt lat="41.765730" lon="2.253449">
        <ele>416.224</ele>
        <time>2021-06-12T22:12:11Z</time>
      </trkpt>
      <trkpt lat="41.765760" lon="2.253404">
        <ele>416.179</ele>
        <time>2021-06-12T22:12:14Z</time>
      </trkpt>
      <trkpt lat="41.765795" lon="2.253357">
        <ele>416.214</ele>
        <time>2021-06-12T22:12:18Z</time>
      </trkpt>
      <trkpt lat="41.765820" lon="2.253306">
        <ele>415.761</ele>
        <time>2021-06-12T22:12:22Z</time>
      </trkpt>
      <trkpt lat="41.765812" lon="2.253245">
        <ele>415.110</ele>
        <time>2021-06-12T22:12:27Z</time>
      </trkpt>
      <trkpt lat="41.765791" lon="2.253186">
        <ele>414.426</ele>
        <time>2021-06-12T22:12:31Z</time>
      </trkpt>
      <trkpt lat="41.765762" lon="2.253126">
        <ele>414.031</ele>
        <time>2021-06-12T22:12:35Z</time>
      </trkpt>
      <trkpt lat="41.765731" lon="2.253076">
        <ele>413.461</ele>
        <time>2021-06-12T22:12:39Z</time>
      </trkpt>
      <trkpt lat="41.765707" lon="2.253013">
        <ele>413.107</ele>
        <time>2021-06-12T22:12:43Z</time>
      </trkpt>
      <trkpt lat="41.765691" lon="2.252951">
        <ele>412.608</ele>
        <time>2021-06-12T22:12:47Z</time>
      </trkpt>
      <trkpt lat="41.765662" lon="2.252904">
        <ele>411.840</ele>
        <time>2021-06-12T22:12:53Z</time>
      </trkpt>
      <trkpt lat="41.765633" lon="2.252852">
        <ele>410.728</ele>
        <time>2021-06-12T22:13:29Z</time>
      </trkpt>
      <trkpt lat="41.765596" lon="2.252803">
        <ele>411.581</ele>
        <time>2021-06-12T22:13:36Z</time>
      </trkpt>
      <trkpt lat="41.765574" lon="2.252738">
        <ele>411.716</ele>
        <time>2021-06-12T22:13:40Z</time>
      </trkpt>
      <trkpt lat="41.765565" lon="2.252676">
        <ele>409.321</ele>
        <time>2021-06-12T22:13:43Z</time>
      </trkpt>
      <trkpt lat="41.765558" lon="2.252614">
        <ele>411.768</ele>
        <time>2021-06-12T22:13:46Z</time>
      </trkpt>
      <trkpt lat="41.765523" lon="2.252562">
        <ele>408.747</ele>
        <time>2021-06-12T22:13:51Z</time>
      </trkpt>
      <trkpt lat="41.765477" lon="2.252558">
        <ele>408.673</ele>
        <time>2021-06-12T22:13:54Z</time>
      </trkpt>
      <trkpt lat="41.765429" lon="2.252552">
        <ele>408.645</ele>
        <time>2021-06-12T22:13:58Z</time>
      </trkpt>
      <trkpt lat="41.765382" lon="2.252532">
        <ele>408.347</ele>
        <time>2021-06-12T22:14:05Z</time>
      </trkpt>
      <trkpt lat="41.765341" lon="2.252504">
        <ele>408.411</ele>
        <time>2021-06-12T22:14:10Z</time>
      </trkpt>
      <trkpt lat="41.765311" lon="2.252456">
        <ele>408.008</ele>
        <time>2021-06-12T22:14:16Z</time>
      </trkpt>
      <trkpt lat="41.765279" lon="2.252408">
        <ele>408.261</ele>
        <time>2021-06-12T22:14:20Z</time>
      </trkpt>
      <trkpt lat="41.765242" lon="2.252369">
        <ele>407.849</ele>
        <time>2021-06-12T22:14:22Z</time>
      </trkpt>
      <trkpt lat="41.765203" lon="2.252339">
        <ele>408.192</ele>
        <time>2021-06-12T22:14:25Z</time>
      </trkpt>
      <trkpt lat="41.765162" lon="2.252301">
        <ele>407.887</ele>
        <time>2021-06-12T22:14:28Z</time>
      </trkpt>
      <trkpt lat="41.765120" lon="2.252278">
        <ele>407.952</ele>
        <time>2021-06-12T22:14:32Z</time>
      </trkpt>
      <trkpt lat="41.765075" lon="2.252266">
        <ele>407.819</ele>
        <time>2021-06-12T22:14:35Z</time>
      </trkpt>
      <trkpt lat="41.765027" lon="2.252261">
        <ele>407.738</ele>
        <time>2021-06-12T22:14:39Z</time>
      </trkpt>
      <trkpt lat="41.764980" lon="2.252255">
        <ele>407.714</ele>
        <time>2021-06-12T22:14:43Z</time>
      </trkpt>
      <trkpt lat="41.764936" lon="2.252242">
        <ele>407.712</ele>
        <time>2021-06-12T22:14:47Z</time>
      </trkpt>
      <trkpt lat="41.764893" lon="2.252221">
        <ele>407.532</ele>
        <time>2021-06-12T22:14:53Z</time>
      </trkpt>
      <trkpt lat="41.764843" lon="2.252204">
        <ele>407.205</ele>
        <time>2021-06-12T22:14:57Z</time>
      </trkpt>
      <trkpt lat="41.764795" lon="2.252201">
        <ele>407.308</ele>
        <time>2021-06-12T22:15:01Z</time>
      </trkpt>
      <trkpt lat="41.764749" lon="2.252206">
        <ele>407.438</ele>
        <time>2021-06-12T22:15:05Z</time>
      </trkpt>
      <trkpt lat="41.764703" lon="2.252210">
        <ele>407.156</ele>
        <time>2021-06-12T22:15:09Z</time>
      </trkpt>
      <trkpt lat="41.764654" lon="2.252221">
        <ele>407.589</ele>
        <time>2021-06-12T22:15:13Z</time>
      </trkpt>
      <trkpt lat="41.764604" lon="2.252217">
        <ele>407.494</ele>
        <time>2021-06-12T22:15:18Z</time>
      </trkpt>
      <trkpt lat="41.764557" lon="2.252218">
        <ele>407.319</ele>
        <time>2021-06-12T22:15:23Z</time>
      </trkpt>
      <trkpt lat="41.764511" lon="2.252221">
        <ele>407.326</ele>
        <time>2021-06-12T22:15:32Z</time>
      </trkpt>
      <trkpt lat="41.764478" lon="2.252174">
        <ele>407.395</ele>
        <time>2021-06-12T22:15:38Z</time>
      </trkpt>
      <trkpt lat="41.764438" lon="2.252145">
        <ele>407.381</ele>
        <time>2021-06-12T22:15:44Z</time>
      </trkpt>
      <trkpt lat="41.764403" lon="2.252098">
        <ele>406.987</ele>
        <time>2021-06-12T22:15:53Z</time>
      </trkpt>
      <trkpt lat="41.764360" lon="2.252070">
        <ele>407.942</ele>
        <time>2021-06-12T22:15:57Z</time>
      </trkpt>
      <trkpt lat="41.764319" lon="2.252033">
        <ele>407.826</ele>
        <time>2021-06-12T22:16:08Z</time>
      </trkpt>
      <trkpt lat="41.764299" lon="2.251979">
        <ele>407.608</ele>
        <time>2021-06-12T22:16:30Z</time>
      </trkpt>
      <trkpt lat="41.764253" lon="2.251975">
        <ele>407.795</ele>
        <time>2021-06-12T22:16:40Z</time>
      </trkpt>
      <trkpt lat="41.764227" lon="2.251912">
        <ele>408.293</ele>
        <time>2021-06-12T22:16:51Z</time>
      </trkpt>
      <trkpt lat="41.764193" lon="2.251864">
        <ele>407.216</ele>
        <time>2021-06-12T22:16:53Z</time>
      </trkpt>
      <trkpt lat="41.764150" lon="2.251827">
        <ele>406.631</ele>
        <time>2021-06-12T22:16:57Z</time>
      </trkpt>
      <trkpt lat="41.764104" lon="2.251808">
        <ele>408.126</ele>
        <time>2021-06-12T22:17:00Z</time>
      </trkpt>
      <trkpt lat="41.764057" lon="2.251791">
        <ele>407.613</ele>
        <time>2021-06-12T22:17:04Z</time>
      </trkpt>
      <trkpt lat="41.764026" lon="2.251748">
        <ele>407.432</ele>
        <time>2021-06-12T22:17:15Z</time>
      </trkpt>
      <trkpt lat="41.764004" lon="2.251695">
        <ele>407.478</ele>
        <time>2021-06-12T22:17:17Z</time>
      </trkpt>
      <trkpt lat="41.763970" lon="2.251644">
        <ele>407.788</ele>
        <time>2021-06-12T22:17:20Z</time>
      </trkpt>
      <trkpt lat="41.763935" lon="2.251596">
        <ele>407.824</ele>
        <time>2021-06-12T22:17:23Z</time>
      </trkpt>
      <trkpt lat="41.763898" lon="2.251555">
        <ele>407.226</ele>
        <time>2021-06-12T22:17:25Z</time>
      </trkpt>
      <trkpt lat="41.763856" lon="2.251518">
        <ele>407.808</ele>
        <time>2021-06-12T22:17:29Z</time>
      </trkpt>
      <trkpt lat="41.763809" lon="2.251494">
        <ele>407.885</ele>
        <time>2021-06-12T22:17:32Z</time>
      </trkpt>
      <trkpt lat="41.763763" lon="2.251473">
        <ele>407.893</ele>
        <time>2021-06-12T22:17:36Z</time>
      </trkpt>
      <trkpt lat="41.763724" lon="2.251439">
        <ele>408.156</ele>
        <time>2021-06-12T22:17:40Z</time>
      </trkpt>
      <trkpt lat="41.763682" lon="2.251405">
        <ele>408.221</ele>
        <time>2021-06-12T22:17:44Z</time>
      </trkpt>
      <trkpt lat="41.763648" lon="2.251361">
        <ele>408.636</ele>
        <time>2021-06-12T22:17:48Z</time>
      </trkpt>
      <trkpt lat="41.763627" lon="2.251306">
        <ele>408.723</ele>
        <time>2021-06-12T22:17:53Z</time>
      </trkpt>
      <trkpt lat="41.763626" lon="2.251238">
        <ele>409.292</ele>
        <time>2021-06-12T22:17:57Z</time>
      </trkpt>
      <trkpt lat="41.763635" lon="2.251176">
        <ele>409.498</ele>
        <time>2021-06-12T22:18:03Z</time>
      </trkpt>
      <trkpt lat="41.763634" lon="2.251115">
        <ele>410.063</ele>
        <time>2021-06-12T22:18:09Z</time>
      </trkpt>
      <trkpt lat="41.763636" lon="2.251051">
        <ele>410.544</ele>
        <time>2021-06-12T22:18:15Z</time>
      </trkpt>
      <trkpt lat="41.763607" lon="2.251002">
        <ele>411.018</ele>
        <time>2021-06-12T22:18:27Z</time>
      </trkpt>
      <trkpt lat="41.763632" lon="2.250951">
        <ele>411.608</ele>
        <time>2021-06-12T22:18:45Z</time>
      </trkpt>
      <trkpt lat="41.763624" lon="2.250889">
        <ele>411.933</ele>
        <time>2021-06-12T22:18:50Z</time>
      </trkpt>
      <trkpt lat="41.763598" lon="2.250835">
        <ele>412.111</ele>
        <time>2021-06-12T22:18:54Z</time>
      </trkpt>
      <trkpt lat="41.763568" lon="2.250780">
        <ele>412.534</ele>
        <time>2021-06-12T22:18:58Z</time>
      </trkpt>
      <trkpt lat="41.763553" lon="2.250722">
        <ele>412.949</ele>
        <time>2021-06-12T22:19:02Z</time>
      </trkpt>
      <trkpt lat="41.763561" lon="2.250661">
        <ele>413.174</ele>
        <time>2021-06-12T22:19:06Z</time>
      </trkpt>
      <trkpt lat="41.763582" lon="2.250600">
        <ele>413.441</ele>
        <time>2021-06-12T22:19:10Z</time>
      </trkpt>
      <trkpt lat="41.763623" lon="2.250553">
        <ele>413.760</ele>
        <time>2021-06-12T22:19:13Z</time>
      </trkpt>
      <trkpt lat="41.763672" lon="2.250512">
        <ele>413.976</ele>
        <time>2021-06-12T22:19:16Z</time>
      </trkpt>
      <trkpt lat="41.763706" lon="2.250466">
        <ele>414.197</ele>
        <time>2021-06-12T22:19:20Z</time>
      </trkpt>
      <trkpt lat="41.763713" lon="2.250401">
        <ele>414.523</ele>
        <time>2021-06-12T22:19:24Z</time>
      </trkpt>
      <trkpt lat="41.763703" lon="2.250333">
        <ele>414.125</ele>
        <time>2021-06-12T22:19:29Z</time>
      </trkpt>
      <trkpt lat="41.763664" lon="2.250293">
        <ele>415.008</ele>
        <time>2021-06-12T22:19:35Z</time>
      </trkpt>
      <trkpt lat="41.763670" lon="2.250225">
        <ele>415.286</ele>
        <time>2021-06-12T22:19:39Z</time>
      </trkpt>
      <trkpt lat="41.763702" lon="2.250170">
        <ele>415.734</ele>
        <time>2021-06-12T22:19:43Z</time>
      </trkpt>
      <trkpt lat="41.763726" lon="2.250109">
        <ele>416.257</ele>
        <time>2021-06-12T22:19:48Z</time>
      </trkpt>
      <trkpt lat="41.763731" lon="2.250046">
        <ele>416.432</ele>
        <time>2021-06-12T22:19:52Z</time>
      </trkpt>
      <trkpt lat="41.763747" lon="2.249986">
        <ele>416.887</ele>
        <time>2021-06-12T22:19:57Z</time>
      </trkpt>
      <trkpt lat="41.763765" lon="2.249928">
        <ele>416.994</ele>
        <time>2021-06-12T22:20:22Z</time>
      </trkpt>
      <trkpt lat="41.763757" lon="2.249867">
        <ele>417.343</ele>
        <time>2021-06-12T22:20:29Z</time>
      </trkpt>
      <trkpt lat="41.763757" lon="2.249800">
        <ele>418.269</ele>
        <time>2021-06-12T22:20:35Z</time>
      </trkpt>
      <trkpt lat="41.763757" lon="2.249734">
        <ele>418.659</ele>
        <time>2021-06-12T22:20:39Z</time>
      </trkpt>
      <trkpt lat="41.763783" lon="2.249684">
        <ele>418.803</ele>
        <time>2021-06-12T22:20:42Z</time>
      </trkpt>
      <trkpt lat="41.763821" lon="2.249646">
        <ele>419.323</ele>
        <time>2021-06-12T22:20:46Z</time>
      </trkpt>
      <trkpt lat="41.763850" lon="2.249599">
        <ele>419.708</ele>
        <time>2021-06-12T22:20:50Z</time>
      </trkpt>
      <trkpt lat="41.763853" lon="2.249533">
        <ele>420.772</ele>
        <time>2021-06-12T22:20:58Z</time>
      </trkpt>
      <trkpt lat="41.763846" lon="2.249471">
        <ele>420.950</ele>
        <time>2021-06-12T22:21:02Z</time>
      </trkpt>
      <trkpt lat="41.763818" lon="2.249417">
        <ele>421.123</ele>
        <time>2021-06-12T22:21:07Z</time>
      </trkpt>
      <trkpt lat="41.763781" lon="2.249368">
        <ele>421.378</ele>
        <time>2021-06-12T22:21:12Z</time>
      </trkpt>
      <trkpt lat="41.763757" lon="2.249315">
        <ele>421.323</ele>
        <time>2021-06-12T22:21:17Z</time>
      </trkpt>
      <trkpt lat="41.763746" lon="2.249255">
        <ele>421.780</ele>
        <time>2021-06-12T22:21:22Z</time>
      </trkpt>
      <trkpt lat="41.763709" lon="2.249207">
        <ele>423.239</ele>
        <time>2021-06-12T22:21:29Z</time>
      </trkpt>
      <trkpt lat="41.763676" lon="2.249164">
        <ele>423.975</ele>
        <time>2021-06-12T22:21:36Z</time>
      </trkpt>
      <trkpt lat="41.763629" lon="2.249150">
        <ele>424.629</ele>
        <time>2021-06-12T22:21:43Z</time>
      </trkpt>
      <trkpt lat="41.763583" lon="2.249133">
        <ele>424.800</ele>
        <time>2021-06-12T22:21:47Z</time>
      </trkpt>
      <trkpt lat="41.763538" lon="2.249117">
        <ele>426.120</ele>
        <time>2021-06-12T22:22:00Z</time>
      </trkpt>
      <trkpt lat="41.763487" lon="2.249127">
        <ele>426.608</ele>
        <time>2021-06-12T22:22:07Z</time>
      </trkpt>
      <trkpt lat="41.763439" lon="2.249131">
        <ele>427.049</ele>
        <time>2021-06-12T22:22:12Z</time>
      </trkpt>
      <trkpt lat="41.763388" lon="2.249129">
        <ele>427.867</ele>
        <time>2021-06-12T22:22:17Z</time>
      </trkpt>
      <trkpt lat="41.763341" lon="2.249135">
        <ele>428.050</ele>
        <time>2021-06-12T22:22:21Z</time>
      </trkpt>
      <trkpt lat="41.763296" lon="2.249152">
        <ele>427.925</ele>
        <time>2021-06-12T22:22:25Z</time>
      </trkpt>
      <trkpt lat="41.763250" lon="2.249157">
        <ele>428.660</ele>
        <time>2021-06-12T22:22:30Z</time>
      </trkpt>
      <trkpt lat="41.763203" lon="2.249152">
        <ele>428.697</ele>
        <time>2021-06-12T22:22:35Z</time>
      </trkpt>
      <trkpt lat="41.763151" lon="2.249146">
        <ele>428.656</ele>
        <time>2021-06-12T22:22:39Z</time>
      </trkpt>
      <trkpt lat="41.763102" lon="2.249149">
        <ele>428.552</ele>
        <time>2021-06-12T22:22:43Z</time>
      </trkpt>
      <trkpt lat="41.763057" lon="2.249139">
        <ele>428.945</ele>
        <time>2021-06-12T22:22:47Z</time>
      </trkpt>
      <trkpt lat="41.763008" lon="2.249136">
        <ele>428.347</ele>
        <time>2021-06-12T22:22:51Z</time>
      </trkpt>
      <trkpt lat="41.762958" lon="2.249133">
        <ele>428.411</ele>
        <time>2021-06-12T22:22:56Z</time>
      </trkpt>
      <trkpt lat="41.762914" lon="2.249113">
        <ele>428.408</ele>
        <time>2021-06-12T22:22:59Z</time>
      </trkpt>
      <trkpt lat="41.762867" lon="2.249093">
        <ele>428.471</ele>
        <time>2021-06-12T22:23:02Z</time>
      </trkpt>
      <trkpt lat="41.762819" lon="2.249085">
        <ele>428.519</ele>
        <time>2021-06-12T22:23:06Z</time>
      </trkpt>
      <trkpt lat="41.762777" lon="2.249061">
        <ele>428.572</ele>
        <time>2021-06-12T22:23:10Z</time>
      </trkpt>
      <trkpt lat="41.762733" lon="2.249048">
        <ele>428.567</ele>
        <time>2021-06-12T22:23:14Z</time>
      </trkpt>
      <trkpt lat="41.762686" lon="2.249042">
        <ele>428.792</ele>
        <time>2021-06-12T22:23:20Z</time>
      </trkpt>
      <trkpt lat="41.762637" lon="2.249029">
        <ele>428.679</ele>
        <time>2021-06-12T22:23:32Z</time>
      </trkpt>
      <trkpt lat="41.762591" lon="2.249021">
        <ele>428.468</ele>
        <time>2021-06-12T22:23:59Z</time>
      </trkpt>
      <trkpt lat="41.762543" lon="2.249009">
        <ele>428.454</ele>
        <time>2021-06-12T22:24:50Z</time>
      </trkpt>
      <trkpt lat="41.762496" lon="2.248992">
        <ele>427.998</ele>
        <time>2021-06-12T22:24:53Z</time>
      </trkpt>
      <trkpt lat="41.762446" lon="2.248991">
        <ele>428.315</ele>
        <time>2021-06-12T22:24:58Z</time>
      </trkpt>
      <trkpt lat="41.762402" lon="2.248952">
        <ele>427.526</ele>
        <time>2021-06-12T22:25:01Z</time>
      </trkpt>
      <trkpt lat="41.762353" lon="2.248943">
        <ele>427.308</ele>
        <time>2021-06-12T22:25:04Z</time>
      </trkpt>
      <trkpt lat="41.762305" lon="2.248939">
        <ele>427.656</ele>
        <time>2021-06-12T22:25:08Z</time>
      </trkpt>
      <trkpt lat="41.762251" lon="2.248950">
        <ele>427.764</ele>
        <time>2021-06-12T22:25:12Z</time>
      </trkpt>
      <trkpt lat="41.762204" lon="2.248941">
        <ele>426.617</ele>
        <time>2021-06-12T22:25:15Z</time>
      </trkpt>
      <trkpt lat="41.762156" lon="2.248931">
        <ele>426.672</ele>
        <time>2021-06-12T22:25:19Z</time>
      </trkpt>
      <trkpt lat="41.762103" lon="2.248947">
        <ele>426.927</ele>
        <time>2021-06-12T22:25:22Z</time>
      </trkpt>
      <trkpt lat="41.762057" lon="2.248977">
        <ele>426.474</ele>
        <time>2021-06-12T22:25:25Z</time>
      </trkpt>
      <trkpt lat="41.762017" lon="2.249010">
        <ele>425.573</ele>
        <time>2021-06-12T22:25:28Z</time>
      </trkpt>
      <trkpt lat="41.761983" lon="2.249054">
        <ele>425.099</ele>
        <time>2021-06-12T22:25:31Z</time>
      </trkpt>
      <trkpt lat="41.761957" lon="2.249107">
        <ele>424.582</ele>
        <time>2021-06-12T22:25:34Z</time>
      </trkpt>
      <trkpt lat="41.761937" lon="2.249165">
        <ele>424.043</ele>
        <time>2021-06-12T22:25:36Z</time>
      </trkpt>
      <trkpt lat="41.761908" lon="2.249216">
        <ele>423.617</ele>
        <time>2021-06-12T22:25:39Z</time>
      </trkpt>
      <trkpt lat="41.761885" lon="2.249272">
        <ele>423.108</ele>
        <time>2021-06-12T22:25:42Z</time>
      </trkpt>
      <trkpt lat="41.761861" lon="2.249333">
        <ele>423.185</ele>
        <time>2021-06-12T22:25:45Z</time>
      </trkpt>
      <trkpt lat="41.761834" lon="2.249390">
        <ele>422.153</ele>
        <time>2021-06-12T22:25:48Z</time>
      </trkpt>
      <trkpt lat="41.761803" lon="2.249448">
        <ele>422.236</ele>
        <time>2021-06-12T22:25:52Z</time>
      </trkpt>
      <trkpt lat="41.761758" lon="2.249474">
        <ele>421.761</ele>
        <time>2021-06-12T22:25:55Z</time>
      </trkpt>
      <trkpt lat="41.761705" lon="2.249483">
        <ele>422.246</ele>
        <time>2021-06-12T22:25:58Z</time>
      </trkpt>
      <trkpt lat="41.761657" lon="2.249483">
        <ele>421.733</ele>
        <time>2021-06-12T22:26:01Z</time>
      </trkpt>
      <trkpt lat="41.761611" lon="2.249457">
        <ele>421.892</ele>
        <time>2021-06-12T22:26:04Z</time>
      </trkpt>
      <trkpt lat="41.761571" lon="2.249430">
        <ele>421.498</ele>
        <time>2021-06-12T22:26:08Z</time>
      </trkpt>
      <trkpt lat="41.761528" lon="2.249411">
        <ele>421.954</ele>
        <time>2021-06-12T22:26:11Z</time>
      </trkpt>
      <trkpt lat="41.761487" lon="2.249385">
        <ele>421.956</ele>
        <time>2021-06-12T22:26:15Z</time>
      </trkpt>
      <trkpt lat="41.761440" lon="2.249382">
        <ele>421.611</ele>
        <time>2021-06-12T22:26:18Z</time>
      </trkpt>
      <trkpt lat="41.761393" lon="2.249373">
        <ele>420.708</ele>
        <time>2021-06-12T22:26:21Z</time>
      </trkpt>
      <trkpt lat="41.761350" lon="2.249335">
        <ele>421.822</ele>
        <time>2021-06-12T22:26:25Z</time>
      </trkpt>
      <trkpt lat="41.761308" lon="2.249290">
        <ele>423.180</ele>
        <time>2021-06-12T22:26:29Z</time>
      </trkpt>
    </trkseg>
  </trk>
</gpx>
